<?xml version="1.0" encoding="UTF-8" standalone="no" ?>
<gpx xmlns="http://www.topografix.com/GPX/1/1" xmlns:xsi="http://www.w3.org/2001/XMLSchema-instance" xsi:schemaLocation="http://www.topografix.com/GPX/1/1 http://www.topografix.com/GPX/1/1/gpx.xsd" version="1.1" creator="VisuGPX - https://www.visugpx.com">
  <metadata>
    <name>Petit Som, Grand Som</name>
    <desc><![CDATA[Un tour sympa en Chartreuse départ de la Ruchère !]]></desc>
  </metadata>
  <trk>
    <name><![CDATA[Petit Som, Grand Som_1]]></name>
    <trkseg>
      <trkpt lat="45.40055" lon="5.79916">
        <ele>1047</ele>
        <time>2012-07-21T04:22:41.1Z</time>
      </trkpt>
      <trkpt lat="45.40057" lon="5.79918">
        <ele>1047</ele>
        <time>2012-07-21T04:22:43.1Z</time>
      </trkpt>
      <trkpt lat="45.40059" lon="5.79922">
        <ele>1046</ele>
        <time>2012-07-21T04:22:45.1Z</time>
      </trkpt>
      <trkpt lat="45.40061" lon="5.79924">
        <ele>1046</ele>
        <time>2012-07-21T04:22:47.1Z</time>
      </trkpt>
      <trkpt lat="45.40063" lon="5.7993">
        <ele>1046</ele>
        <time>2012-07-21T04:22:49.1Z</time>
      </trkpt>
      <trkpt lat="45.40065" lon="5.79936">
        <ele>1046</ele>
        <time>2012-07-21T04:22:51.1Z</time>
      </trkpt>
      <trkpt lat="45.40068" lon="5.79941">
        <ele>1047</ele>
        <time>2012-07-21T04:22:53.1Z</time>
      </trkpt>
      <trkpt lat="45.40072" lon="5.79946">
        <ele>1047</ele>
        <time>2012-07-21T04:22:55.1Z</time>
      </trkpt>
      <trkpt lat="45.40077" lon="5.79951">
        <ele>1047</ele>
        <time>2012-07-21T04:22:57.1Z</time>
      </trkpt>
      <trkpt lat="45.40082" lon="5.79954">
        <ele>1047</ele>
        <time>2012-07-21T04:22:59.1Z</time>
      </trkpt>
      <trkpt lat="45.40085" lon="5.79959">
        <ele>1047</ele>
        <time>2012-07-21T04:23:01.1Z</time>
      </trkpt>
      <trkpt lat="45.40084" lon="5.79967">
        <ele>1047</ele>
        <time>2012-07-21T04:23:04.1Z</time>
      </trkpt>
      <trkpt lat="45.40083" lon="5.79973">
        <ele>1047</ele>
        <time>2012-07-21T04:23:06.1Z</time>
      </trkpt>
      <trkpt lat="45.40081" lon="5.79979">
        <ele>1047</ele>
        <time>2012-07-21T04:23:08.1Z</time>
      </trkpt>
      <trkpt lat="45.40076" lon="5.79984">
        <ele>1047</ele>
        <time>2012-07-21T04:23:10.1Z</time>
      </trkpt>
      <trkpt lat="45.40074" lon="5.79989">
        <ele>1047</ele>
        <time>2012-07-21T04:23:12.1Z</time>
      </trkpt>
      <trkpt lat="45.40071" lon="5.79993">
        <ele>1047</ele>
        <time>2012-07-21T04:23:14.1Z</time>
      </trkpt>
      <trkpt lat="45.4007" lon="5.79999">
        <ele>1048</ele>
        <time>2012-07-21T04:23:16.1Z</time>
      </trkpt>
      <trkpt lat="45.40069" lon="5.80004">
        <ele>1048</ele>
        <time>2012-07-21T04:23:19.1Z</time>
      </trkpt>
      <trkpt lat="45.40067" lon="5.8001">
        <ele>1050</ele>
        <time>2012-07-21T04:23:21.1Z</time>
      </trkpt>
      <trkpt lat="45.40065" lon="5.80016">
        <ele>1050</ele>
        <time>2012-07-21T04:23:23.1Z</time>
      </trkpt>
      <trkpt lat="45.40064" lon="5.80021">
        <ele>1051</ele>
        <time>2012-07-21T04:23:25.1Z</time>
      </trkpt>
      <trkpt lat="45.40065" lon="5.8003">
        <ele>1052</ele>
        <time>2012-07-21T04:23:27.1Z</time>
      </trkpt>
      <trkpt lat="45.40066" lon="5.80035">
        <ele>1052</ele>
        <time>2012-07-21T04:23:29.1Z</time>
      </trkpt>
      <trkpt lat="45.40067" lon="5.80041">
        <ele>1052</ele>
        <time>2012-07-21T04:23:32.1Z</time>
      </trkpt>
      <trkpt lat="45.40068" lon="5.80047">
        <ele>1053</ele>
        <time>2012-07-21T04:23:34.1Z</time>
      </trkpt>
      <trkpt lat="45.40068" lon="5.80051">
        <ele>1053</ele>
        <time>2012-07-21T04:23:36.1Z</time>
      </trkpt>
      <trkpt lat="45.40068" lon="5.80056">
        <ele>1053</ele>
        <time>2012-07-21T04:23:38.1Z</time>
      </trkpt>
      <trkpt lat="45.40068" lon="5.80063">
        <ele>1054</ele>
        <time>2012-07-21T04:23:40.1Z</time>
      </trkpt>
      <trkpt lat="45.40068" lon="5.80068">
        <ele>1055</ele>
        <time>2012-07-21T04:23:42.1Z</time>
      </trkpt>
      <trkpt lat="45.40068" lon="5.80073">
        <ele>1055</ele>
        <time>2012-07-21T04:23:44.1Z</time>
      </trkpt>
      <trkpt lat="45.40067" lon="5.80077">
        <ele>1056</ele>
        <time>2012-07-21T04:23:46.1Z</time>
      </trkpt>
      <trkpt lat="45.40066" lon="5.80082">
        <ele>1057</ele>
        <time>2012-07-21T04:23:48.1Z</time>
      </trkpt>
      <trkpt lat="45.40065" lon="5.80086">
        <ele>1057</ele>
        <time>2012-07-21T04:23:50.1Z</time>
      </trkpt>
      <trkpt lat="45.40063" lon="5.8009">
        <ele>1058</ele>
        <time>2012-07-21T04:23:52.1Z</time>
      </trkpt>
      <trkpt lat="45.40062" lon="5.80094">
        <ele>1059</ele>
        <time>2012-07-21T04:23:54.1Z</time>
      </trkpt>
      <trkpt lat="45.40061" lon="5.80097">
        <ele>1059</ele>
        <time>2012-07-21T04:23:56.1Z</time>
      </trkpt>
      <trkpt lat="45.4006" lon="5.80101">
        <ele>1060</ele>
        <time>2012-07-21T04:23:58.1Z</time>
      </trkpt>
      <trkpt lat="45.40058" lon="5.80104">
        <ele>1061</ele>
        <time>2012-07-21T04:24:00.1Z</time>
      </trkpt>
      <trkpt lat="45.40056" lon="5.80109">
        <ele>1061</ele>
        <time>2012-07-21T04:24:02.1Z</time>
      </trkpt>
      <trkpt lat="45.40053" lon="5.80112">
        <ele>1062</ele>
        <time>2012-07-21T04:24:04.1Z</time>
      </trkpt>
      <trkpt lat="45.40051" lon="5.80116">
        <ele>1063</ele>
        <time>2012-07-21T04:24:07.1Z</time>
      </trkpt>
      <trkpt lat="45.40049" lon="5.80119">
        <ele>1063</ele>
        <time>2012-07-21T04:24:09.1Z</time>
      </trkpt>
      <trkpt lat="45.40048" lon="5.80123">
        <ele>1064</ele>
        <time>2012-07-21T04:24:11.1Z</time>
      </trkpt>
      <trkpt lat="45.40044" lon="5.80127">
        <ele>1065</ele>
        <time>2012-07-21T04:24:13.1Z</time>
      </trkpt>
      <trkpt lat="45.40043" lon="5.80131">
        <ele>1066</ele>
        <time>2012-07-21T04:24:15.1Z</time>
      </trkpt>
      <trkpt lat="45.40041" lon="5.80134">
        <ele>1066</ele>
        <time>2012-07-21T04:24:17.1Z</time>
      </trkpt>
      <trkpt lat="45.40039" lon="5.80135">
        <ele>1067</ele>
        <time>2012-07-21T04:24:20.1Z</time>
      </trkpt>
      <trkpt lat="45.40037" lon="5.80138">
        <ele>1068</ele>
        <time>2012-07-21T04:24:22.1Z</time>
      </trkpt>
      <trkpt lat="45.40035" lon="5.80141">
        <ele>1069</ele>
        <time>2012-07-21T04:24:24.1Z</time>
      </trkpt>
      <trkpt lat="45.40032" lon="5.80142">
        <ele>1069</ele>
        <time>2012-07-21T04:24:26.1Z</time>
      </trkpt>
      <trkpt lat="45.40029" lon="5.80145">
        <ele>1070</ele>
        <time>2012-07-21T04:24:28.1Z</time>
      </trkpt>
      <trkpt lat="45.40027" lon="5.80146">
        <ele>1071</ele>
        <time>2012-07-21T04:24:30.1Z</time>
      </trkpt>
      <trkpt lat="45.40024" lon="5.80148">
        <ele>1072</ele>
        <time>2012-07-21T04:24:32.1Z</time>
      </trkpt>
      <trkpt lat="45.40022" lon="5.8015">
        <ele>1073</ele>
        <time>2012-07-21T04:24:34.1Z</time>
      </trkpt>
      <trkpt lat="45.40019" lon="5.80151">
        <ele>1073</ele>
        <time>2012-07-21T04:24:36.1Z</time>
      </trkpt>
      <trkpt lat="45.40017" lon="5.80154">
        <ele>1074</ele>
        <time>2012-07-21T04:24:38.1Z</time>
      </trkpt>
      <trkpt lat="45.40015" lon="5.80156">
        <ele>1075</ele>
        <time>2012-07-21T04:24:41.1Z</time>
      </trkpt>
      <trkpt lat="45.40013" lon="5.80159">
        <ele>1076</ele>
        <time>2012-07-21T04:24:43.1Z</time>
      </trkpt>
      <trkpt lat="45.40012" lon="5.80161">
        <ele>1076</ele>
        <time>2012-07-21T04:24:45.1Z</time>
      </trkpt>
      <trkpt lat="45.4001" lon="5.80163">
        <ele>1077</ele>
        <time>2012-07-21T04:24:47.1Z</time>
      </trkpt>
      <trkpt lat="45.40009" lon="5.80165">
        <ele>1077</ele>
        <time>2012-07-21T04:24:49.1Z</time>
      </trkpt>
      <trkpt lat="45.40008" lon="5.80167">
        <ele>1078</ele>
        <time>2012-07-21T04:24:51.1Z</time>
      </trkpt>
      <trkpt lat="45.40006" lon="5.80169">
        <ele>1079</ele>
        <time>2012-07-21T04:24:53.1Z</time>
      </trkpt>
      <trkpt lat="45.40005" lon="5.8017">
        <ele>1080</ele>
        <time>2012-07-21T04:24:55.1Z</time>
      </trkpt>
      <trkpt lat="45.40004" lon="5.80171">
        <ele>1081</ele>
        <time>2012-07-21T04:24:57.1Z</time>
      </trkpt>
      <trkpt lat="45.40003" lon="5.80173">
        <ele>1081</ele>
        <time>2012-07-21T04:24:59.1Z</time>
      </trkpt>
      <trkpt lat="45.40002" lon="5.80175">
        <ele>1082</ele>
        <time>2012-07-21T04:25:01.1Z</time>
      </trkpt>
      <trkpt lat="45.40001" lon="5.80177">
        <ele>1083</ele>
        <time>2012-07-21T04:25:03.1Z</time>
      </trkpt>
      <trkpt lat="45.4" lon="5.80178">
        <ele>1084</ele>
        <time>2012-07-21T04:25:05.1Z</time>
      </trkpt>
      <trkpt lat="45.39997" lon="5.80177">
        <ele>1084</ele>
        <time>2012-07-21T04:25:07.1Z</time>
      </trkpt>
      <trkpt lat="45.39995" lon="5.80179">
        <ele>1085</ele>
        <time>2012-07-21T04:25:09.1Z</time>
      </trkpt>
      <trkpt lat="45.39994" lon="5.8018">
        <ele>1086</ele>
        <time>2012-07-21T04:25:11.1Z</time>
      </trkpt>
      <trkpt lat="45.39993" lon="5.80182">
        <ele>1086</ele>
        <time>2012-07-21T04:25:13.1Z</time>
      </trkpt>
      <trkpt lat="45.39992" lon="5.80184">
        <ele>1087</ele>
        <time>2012-07-21T04:25:15.1Z</time>
      </trkpt>
      <trkpt lat="45.3999" lon="5.80186">
        <ele>1088</ele>
        <time>2012-07-21T04:25:18.1Z</time>
      </trkpt>
      <trkpt lat="45.39988" lon="5.80187">
        <ele>1088</ele>
        <time>2012-07-21T04:25:20.1Z</time>
      </trkpt>
      <trkpt lat="45.39986" lon="5.8019">
        <ele>1089</ele>
        <time>2012-07-21T04:25:22.1Z</time>
      </trkpt>
      <trkpt lat="45.39985" lon="5.80193">
        <ele>1090</ele>
        <time>2012-07-21T04:25:24.1Z</time>
      </trkpt>
      <trkpt lat="45.39982" lon="5.80196">
        <ele>1091</ele>
        <time>2012-07-21T04:25:26.1Z</time>
      </trkpt>
      <trkpt lat="45.3998" lon="5.80198">
        <ele>1091</ele>
        <time>2012-07-21T04:25:28.1Z</time>
      </trkpt>
      <trkpt lat="45.39979" lon="5.802">
        <ele>1092</ele>
        <time>2012-07-21T04:25:30.1Z</time>
      </trkpt>
      <trkpt lat="45.39976" lon="5.80201">
        <ele>1092</ele>
        <time>2012-07-21T04:25:32.1Z</time>
      </trkpt>
      <trkpt lat="45.39973" lon="5.80204">
        <ele>1093</ele>
        <time>2012-07-21T04:25:35.1Z</time>
      </trkpt>
      <trkpt lat="45.39972" lon="5.80205">
        <ele>1093</ele>
        <time>2012-07-21T04:25:37.1Z</time>
      </trkpt>
      <trkpt lat="45.3997" lon="5.80205">
        <ele>1094</ele>
        <time>2012-07-21T04:25:39.1Z</time>
      </trkpt>
      <trkpt lat="45.39969" lon="5.80207">
        <ele>1095</ele>
        <time>2012-07-21T04:25:41.1Z</time>
      </trkpt>
      <trkpt lat="45.39964" lon="5.8021">
        <ele>1095</ele>
        <time>2012-07-21T04:25:43.1Z</time>
      </trkpt>
      <trkpt lat="45.39962" lon="5.8021">
        <ele>1096</ele>
        <time>2012-07-21T04:25:45.1Z</time>
      </trkpt>
      <trkpt lat="45.3996" lon="5.8021">
        <ele>1096</ele>
        <time>2012-07-21T04:25:47.1Z</time>
      </trkpt>
      <trkpt lat="45.39957" lon="5.80211">
        <ele>1096</ele>
        <time>2012-07-21T04:25:50.1Z</time>
      </trkpt>
      <trkpt lat="45.39956" lon="5.80212">
        <ele>1096</ele>
        <time>2012-07-21T04:25:52.1Z</time>
      </trkpt>
      <trkpt lat="45.39954" lon="5.80212">
        <ele>1097</ele>
        <time>2012-07-21T04:25:54.1Z</time>
      </trkpt>
      <trkpt lat="45.39951" lon="5.80214">
        <ele>1098</ele>
        <time>2012-07-21T04:25:56.1Z</time>
      </trkpt>
      <trkpt lat="45.39949" lon="5.80215">
        <ele>1098</ele>
        <time>2012-07-21T04:25:58.1Z</time>
      </trkpt>
      <trkpt lat="45.39946" lon="5.80216">
        <ele>1099</ele>
        <time>2012-07-21T04:26:00.1Z</time>
      </trkpt>
      <trkpt lat="45.39944" lon="5.80216">
        <ele>1100</ele>
        <time>2012-07-21T04:26:02.1Z</time>
      </trkpt>
      <trkpt lat="45.3994" lon="5.80217">
        <ele>1101</ele>
        <time>2012-07-21T04:26:05.1Z</time>
      </trkpt>
      <trkpt lat="45.39937" lon="5.80217">
        <ele>1101</ele>
        <time>2012-07-21T04:26:07.1Z</time>
      </trkpt>
      <trkpt lat="45.39933" lon="5.80218">
        <ele>1102</ele>
        <time>2012-07-21T04:26:09.1Z</time>
      </trkpt>
      <trkpt lat="45.39931" lon="5.8022">
        <ele>1103</ele>
        <time>2012-07-21T04:26:11.1Z</time>
      </trkpt>
      <trkpt lat="45.39929" lon="5.80221">
        <ele>1103</ele>
        <time>2012-07-21T04:26:13.1Z</time>
      </trkpt>
      <trkpt lat="45.39925" lon="5.80223">
        <ele>1104</ele>
        <time>2012-07-21T04:26:15.1Z</time>
      </trkpt>
      <trkpt lat="45.39923" lon="5.80223">
        <ele>1104</ele>
        <time>2012-07-21T04:26:17.1Z</time>
      </trkpt>
      <trkpt lat="45.39921" lon="5.80224">
        <ele>1105</ele>
        <time>2012-07-21T04:26:19.1Z</time>
      </trkpt>
      <trkpt lat="45.39919" lon="5.80225">
        <ele>1105</ele>
        <time>2012-07-21T04:26:21.1Z</time>
      </trkpt>
      <trkpt lat="45.39917" lon="5.80227">
        <ele>1106</ele>
        <time>2012-07-21T04:26:23.1Z</time>
      </trkpt>
      <trkpt lat="45.39914" lon="5.80229">
        <ele>1106</ele>
        <time>2012-07-21T04:26:25.1Z</time>
      </trkpt>
      <trkpt lat="45.39913" lon="5.80229">
        <ele>1107</ele>
        <time>2012-07-21T04:26:27.1Z</time>
      </trkpt>
      <trkpt lat="45.39911" lon="5.8023">
        <ele>1108</ele>
        <time>2012-07-21T04:26:29.1Z</time>
      </trkpt>
      <trkpt lat="45.39909" lon="5.80231">
        <ele>1109</ele>
        <time>2012-07-21T04:26:31.1Z</time>
      </trkpt>
      <trkpt lat="45.39907" lon="5.80233">
        <ele>1110</ele>
        <time>2012-07-21T04:26:33.1Z</time>
      </trkpt>
      <trkpt lat="45.39904" lon="5.80234">
        <ele>1110</ele>
        <time>2012-07-21T04:26:36.1Z</time>
      </trkpt>
      <trkpt lat="45.39902" lon="5.80236">
        <ele>1111</ele>
        <time>2012-07-21T04:26:38.1Z</time>
      </trkpt>
      <trkpt lat="45.399" lon="5.80237">
        <ele>1111</ele>
        <time>2012-07-21T04:26:40.1Z</time>
      </trkpt>
      <trkpt lat="45.39898" lon="5.80238">
        <ele>1112</ele>
        <time>2012-07-21T04:26:42.1Z</time>
      </trkpt>
      <trkpt lat="45.39897" lon="5.8024">
        <ele>1113</ele>
        <time>2012-07-21T04:26:44.1Z</time>
      </trkpt>
      <trkpt lat="45.39895" lon="5.80242">
        <ele>1113</ele>
        <time>2012-07-21T04:26:46.1Z</time>
      </trkpt>
      <trkpt lat="45.39892" lon="5.80245">
        <ele>1114</ele>
        <time>2012-07-21T04:26:48.1Z</time>
      </trkpt>
      <trkpt lat="45.3989" lon="5.80247">
        <ele>1114</ele>
        <time>2012-07-21T04:26:50.1Z</time>
      </trkpt>
      <trkpt lat="45.39888" lon="5.80248">
        <ele>1115</ele>
        <time>2012-07-21T04:26:52.1Z</time>
      </trkpt>
      <trkpt lat="45.39887" lon="5.8025">
        <ele>1116</ele>
        <time>2012-07-21T04:26:54.1Z</time>
      </trkpt>
      <trkpt lat="45.39884" lon="5.80252">
        <ele>1116</ele>
        <time>2012-07-21T04:26:56.1Z</time>
      </trkpt>
      <trkpt lat="45.39882" lon="5.80253">
        <ele>1116</ele>
        <time>2012-07-21T04:26:58.1Z</time>
      </trkpt>
      <trkpt lat="45.39879" lon="5.80254">
        <ele>1116</ele>
        <time>2012-07-21T04:27:00.1Z</time>
      </trkpt>
      <trkpt lat="45.39878" lon="5.80256">
        <ele>1117</ele>
        <time>2012-07-21T04:27:02.1Z</time>
      </trkpt>
      <trkpt lat="45.39877" lon="5.80259">
        <ele>1118</ele>
        <time>2012-07-21T04:27:05.1Z</time>
      </trkpt>
      <trkpt lat="45.39875" lon="5.80261">
        <ele>1118</ele>
        <time>2012-07-21T04:27:07.1Z</time>
      </trkpt>
      <trkpt lat="45.39874" lon="5.80261">
        <ele>1119</ele>
        <time>2012-07-21T04:27:09.1Z</time>
      </trkpt>
      <trkpt lat="45.3987" lon="5.80262">
        <ele>1120</ele>
        <time>2012-07-21T04:27:11.1Z</time>
      </trkpt>
      <trkpt lat="45.39869" lon="5.80263">
        <ele>1121</ele>
        <time>2012-07-21T04:27:13.1Z</time>
      </trkpt>
      <trkpt lat="45.39867" lon="5.80264">
        <ele>1121</ele>
        <time>2012-07-21T04:27:15.1Z</time>
      </trkpt>
      <trkpt lat="45.39865" lon="5.80265">
        <ele>1122</ele>
        <time>2012-07-21T04:27:17.1Z</time>
      </trkpt>
      <trkpt lat="45.39864" lon="5.80265">
        <ele>1123</ele>
        <time>2012-07-21T04:27:19.1Z</time>
      </trkpt>
      <trkpt lat="45.39863" lon="5.80267">
        <ele>1124</ele>
        <time>2012-07-21T04:27:21.1Z</time>
      </trkpt>
      <trkpt lat="45.39861" lon="5.80268">
        <ele>1124</ele>
        <time>2012-07-21T04:27:23.1Z</time>
      </trkpt>
      <trkpt lat="45.39859" lon="5.80269">
        <ele>1125</ele>
        <time>2012-07-21T04:27:25.1Z</time>
      </trkpt>
      <trkpt lat="45.39857" lon="5.8027">
        <ele>1126</ele>
        <time>2012-07-21T04:27:27.1Z</time>
      </trkpt>
      <trkpt lat="45.39854" lon="5.80271">
        <ele>1126</ele>
        <time>2012-07-21T04:27:29.1Z</time>
      </trkpt>
      <trkpt lat="45.39849" lon="5.8027">
        <ele>1127</ele>
        <time>2012-07-21T04:27:32.1Z</time>
      </trkpt>
      <trkpt lat="45.39846" lon="5.80269">
        <ele>1127</ele>
        <time>2012-07-21T04:27:34.1Z</time>
      </trkpt>
      <trkpt lat="45.39843" lon="5.8027">
        <ele>1128</ele>
        <time>2012-07-21T04:27:36.1Z</time>
      </trkpt>
      <trkpt lat="45.39841" lon="5.8027">
        <ele>1129</ele>
        <time>2012-07-21T04:27:38.1Z</time>
      </trkpt>
      <trkpt lat="45.39839" lon="5.8027">
        <ele>1130</ele>
        <time>2012-07-21T04:27:40.1Z</time>
      </trkpt>
      <trkpt lat="45.39837" lon="5.80271">
        <ele>1130</ele>
        <time>2012-07-21T04:27:42.1Z</time>
      </trkpt>
      <trkpt lat="45.39834" lon="5.80271">
        <ele>1131</ele>
        <time>2012-07-21T04:27:44.1Z</time>
      </trkpt>
      <trkpt lat="45.39832" lon="5.80271">
        <ele>1132</ele>
        <time>2012-07-21T04:27:46.1Z</time>
      </trkpt>
      <trkpt lat="45.3983" lon="5.80272">
        <ele>1132</ele>
        <time>2012-07-21T04:27:48.1Z</time>
      </trkpt>
      <trkpt lat="45.39828" lon="5.80273">
        <ele>1133</ele>
        <time>2012-07-21T04:27:50.1Z</time>
      </trkpt>
      <trkpt lat="45.39827" lon="5.80273">
        <ele>1134</ele>
        <time>2012-07-21T04:27:52.1Z</time>
      </trkpt>
      <trkpt lat="45.39824" lon="5.80273">
        <ele>1134</ele>
        <time>2012-07-21T04:27:54.1Z</time>
      </trkpt>
      <trkpt lat="45.39821" lon="5.80272">
        <ele>1135</ele>
        <time>2012-07-21T04:27:56.1Z</time>
      </trkpt>
      <trkpt lat="45.39819" lon="5.80273">
        <ele>1136</ele>
        <time>2012-07-21T04:27:59.1Z</time>
      </trkpt>
      <trkpt lat="45.39817" lon="5.80274">
        <ele>1137</ele>
        <time>2012-07-21T04:28:01.1Z</time>
      </trkpt>
      <trkpt lat="45.39816" lon="5.80274">
        <ele>1138</ele>
        <time>2012-07-21T04:28:03.1Z</time>
      </trkpt>
      <trkpt lat="45.39814" lon="5.80274">
        <ele>1138</ele>
        <time>2012-07-21T04:28:05.1Z</time>
      </trkpt>
      <trkpt lat="45.39812" lon="5.80275">
        <ele>1139</ele>
        <time>2012-07-21T04:28:07.1Z</time>
      </trkpt>
      <trkpt lat="45.3981" lon="5.80275">
        <ele>1139</ele>
        <time>2012-07-21T04:28:09.1Z</time>
      </trkpt>
      <trkpt lat="45.39808" lon="5.80275">
        <ele>1140</ele>
        <time>2012-07-21T04:28:11.1Z</time>
      </trkpt>
      <trkpt lat="45.39804" lon="5.80274">
        <ele>1141</ele>
        <time>2012-07-21T04:28:13.1Z</time>
      </trkpt>
      <trkpt lat="45.39802" lon="5.80275">
        <ele>1142</ele>
        <time>2012-07-21T04:28:15.1Z</time>
      </trkpt>
      <trkpt lat="45.39801" lon="5.80275">
        <ele>1142</ele>
        <time>2012-07-21T04:28:17.1Z</time>
      </trkpt>
      <trkpt lat="45.39798" lon="5.80276">
        <ele>1143</ele>
        <time>2012-07-21T04:28:19.1Z</time>
      </trkpt>
      <trkpt lat="45.39796" lon="5.80274">
        <ele>1143</ele>
        <time>2012-07-21T04:28:21.1Z</time>
      </trkpt>
      <trkpt lat="45.39793" lon="5.80274">
        <ele>1144</ele>
        <time>2012-07-21T04:28:23.1Z</time>
      </trkpt>
      <trkpt lat="45.39791" lon="5.80273">
        <ele>1145</ele>
        <time>2012-07-21T04:28:25.1Z</time>
      </trkpt>
      <trkpt lat="45.39789" lon="5.80273">
        <ele>1145</ele>
        <time>2012-07-21T04:28:28.1Z</time>
      </trkpt>
      <trkpt lat="45.39788" lon="5.80273">
        <ele>1146</ele>
        <time>2012-07-21T04:28:30.1Z</time>
      </trkpt>
      <trkpt lat="45.39786" lon="5.80273">
        <ele>1146</ele>
        <time>2012-07-21T04:28:32.1Z</time>
      </trkpt>
      <trkpt lat="45.39784" lon="5.80274">
        <ele>1147</ele>
        <time>2012-07-21T04:28:34.1Z</time>
      </trkpt>
      <trkpt lat="45.39782" lon="5.80273">
        <ele>1148</ele>
        <time>2012-07-21T04:28:36.1Z</time>
      </trkpt>
      <trkpt lat="45.39781" lon="5.80273">
        <ele>1148</ele>
        <time>2012-07-21T04:28:38.1Z</time>
      </trkpt>
      <trkpt lat="45.39777" lon="5.80273">
        <ele>1149</ele>
        <time>2012-07-21T04:28:40.1Z</time>
      </trkpt>
      <trkpt lat="45.39775" lon="5.80273">
        <ele>1149</ele>
        <time>2012-07-21T04:28:42.1Z</time>
      </trkpt>
      <trkpt lat="45.39772" lon="5.80274">
        <ele>1149</ele>
        <time>2012-07-21T04:28:44.1Z</time>
      </trkpt>
      <trkpt lat="45.3977" lon="5.80274">
        <ele>1150</ele>
        <time>2012-07-21T04:28:46.1Z</time>
      </trkpt>
      <trkpt lat="45.39767" lon="5.80274">
        <ele>1150</ele>
        <time>2012-07-21T04:28:48.1Z</time>
      </trkpt>
      <trkpt lat="45.39765" lon="5.80274">
        <ele>1151</ele>
        <time>2012-07-21T04:28:51.1Z</time>
      </trkpt>
      <trkpt lat="45.39763" lon="5.80274">
        <ele>1151</ele>
        <time>2012-07-21T04:28:53.1Z</time>
      </trkpt>
      <trkpt lat="45.39761" lon="5.80275">
        <ele>1151</ele>
        <time>2012-07-21T04:28:55.1Z</time>
      </trkpt>
      <trkpt lat="45.39758" lon="5.80276">
        <ele>1151</ele>
        <time>2012-07-21T04:28:57.1Z</time>
      </trkpt>
      <trkpt lat="45.39755" lon="5.80276">
        <ele>1151</ele>
        <time>2012-07-21T04:28:59.1Z</time>
      </trkpt>
      <trkpt lat="45.39753" lon="5.80277">
        <ele>1152</ele>
        <time>2012-07-21T04:29:01.1Z</time>
      </trkpt>
      <trkpt lat="45.39751" lon="5.80278">
        <ele>1152</ele>
        <time>2012-07-21T04:29:04.1Z</time>
      </trkpt>
      <trkpt lat="45.39748" lon="5.80279">
        <ele>1152</ele>
        <time>2012-07-21T04:29:06.1Z</time>
      </trkpt>
      <trkpt lat="45.39746" lon="5.8028">
        <ele>1152</ele>
        <time>2012-07-21T04:29:08.1Z</time>
      </trkpt>
      <trkpt lat="45.39744" lon="5.80281">
        <ele>1153</ele>
        <time>2012-07-21T04:29:10.1Z</time>
      </trkpt>
      <trkpt lat="45.39742" lon="5.80281">
        <ele>1153</ele>
        <time>2012-07-21T04:29:12.1Z</time>
      </trkpt>
      <trkpt lat="45.39739" lon="5.80281">
        <ele>1153</ele>
        <time>2012-07-21T04:29:14.1Z</time>
      </trkpt>
      <trkpt lat="45.39737" lon="5.80282">
        <ele>1153</ele>
        <time>2012-07-21T04:29:16.1Z</time>
      </trkpt>
      <trkpt lat="45.39735" lon="5.80282">
        <ele>1154</ele>
        <time>2012-07-21T04:29:18.1Z</time>
      </trkpt>
      <trkpt lat="45.39732" lon="5.80282">
        <ele>1154</ele>
        <time>2012-07-21T04:29:20.1Z</time>
      </trkpt>
      <trkpt lat="45.3973" lon="5.80283">
        <ele>1154</ele>
        <time>2012-07-21T04:29:22.1Z</time>
      </trkpt>
      <trkpt lat="45.39726" lon="5.80284">
        <ele>1154</ele>
        <time>2012-07-21T04:29:24.1Z</time>
      </trkpt>
      <trkpt lat="45.39724" lon="5.80285">
        <ele>1154</ele>
        <time>2012-07-21T04:29:26.1Z</time>
      </trkpt>
      <trkpt lat="45.39721" lon="5.80286">
        <ele>1154</ele>
        <time>2012-07-21T04:29:28.1Z</time>
      </trkpt>
      <trkpt lat="45.39719" lon="5.80288">
        <ele>1154</ele>
        <time>2012-07-21T04:29:30.1Z</time>
      </trkpt>
      <trkpt lat="45.39717" lon="5.80289">
        <ele>1155</ele>
        <time>2012-07-21T04:29:33.1Z</time>
      </trkpt>
      <trkpt lat="45.39714" lon="5.8029">
        <ele>1155</ele>
        <time>2012-07-21T04:29:35.1Z</time>
      </trkpt>
      <trkpt lat="45.39711" lon="5.80291">
        <ele>1155</ele>
        <time>2012-07-21T04:29:37.1Z</time>
      </trkpt>
      <trkpt lat="45.39708" lon="5.80292">
        <ele>1155</ele>
        <time>2012-07-21T04:29:39.1Z</time>
      </trkpt>
      <trkpt lat="45.39706" lon="5.80292">
        <ele>1155</ele>
        <time>2012-07-21T04:29:41.1Z</time>
      </trkpt>
      <trkpt lat="45.39704" lon="5.80293">
        <ele>1155</ele>
        <time>2012-07-21T04:29:43.1Z</time>
      </trkpt>
      <trkpt lat="45.39702" lon="5.80293">
        <ele>1155</ele>
        <time>2012-07-21T04:29:45.1Z</time>
      </trkpt>
      <trkpt lat="45.397" lon="5.80293">
        <ele>1155</ele>
        <time>2012-07-21T04:29:48.1Z</time>
      </trkpt>
      <trkpt lat="45.39697" lon="5.80293">
        <ele>1156</ele>
        <time>2012-07-21T04:29:50.1Z</time>
      </trkpt>
      <trkpt lat="45.39695" lon="5.80294">
        <ele>1156</ele>
        <time>2012-07-21T04:29:52.1Z</time>
      </trkpt>
      <trkpt lat="45.39692" lon="5.80295">
        <ele>1156</ele>
        <time>2012-07-21T04:29:54.1Z</time>
      </trkpt>
      <trkpt lat="45.39689" lon="5.80296">
        <ele>1157</ele>
        <time>2012-07-21T04:29:56.1Z</time>
      </trkpt>
      <trkpt lat="45.39686" lon="5.80296">
        <ele>1157</ele>
        <time>2012-07-21T04:29:58.1Z</time>
      </trkpt>
      <trkpt lat="45.39684" lon="5.80297">
        <ele>1157</ele>
        <time>2012-07-21T04:30:00.1Z</time>
      </trkpt>
      <trkpt lat="45.39681" lon="5.80298">
        <ele>1157</ele>
        <time>2012-07-21T04:30:02.1Z</time>
      </trkpt>
      <trkpt lat="45.39679" lon="5.80298">
        <ele>1158</ele>
        <time>2012-07-21T04:30:04.1Z</time>
      </trkpt>
      <trkpt lat="45.39676" lon="5.80298">
        <ele>1158</ele>
        <time>2012-07-21T04:30:07.1Z</time>
      </trkpt>
      <trkpt lat="45.39673" lon="5.80298">
        <ele>1159</ele>
        <time>2012-07-21T04:30:09.1Z</time>
      </trkpt>
      <trkpt lat="45.39671" lon="5.80299">
        <ele>1159</ele>
        <time>2012-07-21T04:30:11.1Z</time>
      </trkpt>
      <trkpt lat="45.39669" lon="5.80299">
        <ele>1160</ele>
        <time>2012-07-21T04:30:13.1Z</time>
      </trkpt>
      <trkpt lat="45.39666" lon="5.80299">
        <ele>1160</ele>
        <time>2012-07-21T04:30:15.1Z</time>
      </trkpt>
      <trkpt lat="45.39663" lon="5.80301">
        <ele>1160</ele>
        <time>2012-07-21T04:30:17.1Z</time>
      </trkpt>
      <trkpt lat="45.3966" lon="5.80302">
        <ele>1160</ele>
        <time>2012-07-21T04:30:19.1Z</time>
      </trkpt>
      <trkpt lat="45.39658" lon="5.80302">
        <ele>1161</ele>
        <time>2012-07-21T04:30:21.1Z</time>
      </trkpt>
      <trkpt lat="45.39656" lon="5.80303">
        <ele>1161</ele>
        <time>2012-07-21T04:30:23.1Z</time>
      </trkpt>
      <trkpt lat="45.39653" lon="5.80304">
        <ele>1162</ele>
        <time>2012-07-21T04:30:25.1Z</time>
      </trkpt>
      <trkpt lat="45.39651" lon="5.80305">
        <ele>1162</ele>
        <time>2012-07-21T04:30:28.1Z</time>
      </trkpt>
      <trkpt lat="45.39649" lon="5.80306">
        <ele>1163</ele>
        <time>2012-07-21T04:30:30.1Z</time>
      </trkpt>
      <trkpt lat="45.39647" lon="5.80307">
        <ele>1163</ele>
        <time>2012-07-21T04:30:32.1Z</time>
      </trkpt>
      <trkpt lat="45.39645" lon="5.80307">
        <ele>1164</ele>
        <time>2012-07-21T04:30:34.1Z</time>
      </trkpt>
      <trkpt lat="45.39643" lon="5.80308">
        <ele>1165</ele>
        <time>2012-07-21T04:30:36.1Z</time>
      </trkpt>
      <trkpt lat="45.3964" lon="5.80309">
        <ele>1165</ele>
        <time>2012-07-21T04:30:38.1Z</time>
      </trkpt>
      <trkpt lat="45.39638" lon="5.80311">
        <ele>1166</ele>
        <time>2012-07-21T04:30:40.1Z</time>
      </trkpt>
      <trkpt lat="45.39636" lon="5.80313">
        <ele>1167</ele>
        <time>2012-07-21T04:30:42.1Z</time>
      </trkpt>
      <trkpt lat="45.39633" lon="5.80314">
        <ele>1167</ele>
        <time>2012-07-21T04:30:44.1Z</time>
      </trkpt>
      <trkpt lat="45.39631" lon="5.80316">
        <ele>1168</ele>
        <time>2012-07-21T04:30:47.1Z</time>
      </trkpt>
      <trkpt lat="45.39628" lon="5.80317">
        <ele>1168</ele>
        <time>2012-07-21T04:30:49.1Z</time>
      </trkpt>
      <trkpt lat="45.39626" lon="5.80317">
        <ele>1169</ele>
        <time>2012-07-21T04:30:51.1Z</time>
      </trkpt>
      <trkpt lat="45.39621" lon="5.80318">
        <ele>1169</ele>
        <time>2012-07-21T04:30:53.1Z</time>
      </trkpt>
      <trkpt lat="45.39619" lon="5.80321">
        <ele>1170</ele>
        <time>2012-07-21T04:30:55.1Z</time>
      </trkpt>
      <trkpt lat="45.39616" lon="5.80323">
        <ele>1170</ele>
        <time>2012-07-21T04:30:57.1Z</time>
      </trkpt>
      <trkpt lat="45.39613" lon="5.80323">
        <ele>1171</ele>
        <time>2012-07-21T04:31:00.1Z</time>
      </trkpt>
      <trkpt lat="45.39611" lon="5.80323">
        <ele>1171</ele>
        <time>2012-07-21T04:31:02.1Z</time>
      </trkpt>
      <trkpt lat="45.39608" lon="5.80323">
        <ele>1172</ele>
        <time>2012-07-21T04:31:04.1Z</time>
      </trkpt>
      <trkpt lat="45.39605" lon="5.80324">
        <ele>1172</ele>
        <time>2012-07-21T04:31:06.1Z</time>
      </trkpt>
      <trkpt lat="45.39602" lon="5.80324">
        <ele>1173</ele>
        <time>2012-07-21T04:31:08.1Z</time>
      </trkpt>
      <trkpt lat="45.396" lon="5.80324">
        <ele>1174</ele>
        <time>2012-07-21T04:31:10.1Z</time>
      </trkpt>
      <trkpt lat="45.39599" lon="5.80324">
        <ele>1174</ele>
        <time>2012-07-21T04:31:12.1Z</time>
      </trkpt>
      <trkpt lat="45.39597" lon="5.80324">
        <ele>1175</ele>
        <time>2012-07-21T04:31:14.1Z</time>
      </trkpt>
      <trkpt lat="45.39595" lon="5.80325">
        <ele>1176</ele>
        <time>2012-07-21T04:31:17.1Z</time>
      </trkpt>
      <trkpt lat="45.39593" lon="5.80325">
        <ele>1177</ele>
        <time>2012-07-21T04:31:19.1Z</time>
      </trkpt>
      <trkpt lat="45.39591" lon="5.80326">
        <ele>1178</ele>
        <time>2012-07-21T04:31:21.1Z</time>
      </trkpt>
      <trkpt lat="45.3959" lon="5.80327">
        <ele>1178</ele>
        <time>2012-07-21T04:31:23.1Z</time>
      </trkpt>
      <trkpt lat="45.39589" lon="5.80328">
        <ele>1179</ele>
        <time>2012-07-21T04:31:25.1Z</time>
      </trkpt>
      <trkpt lat="45.39587" lon="5.80329">
        <ele>1180</ele>
        <time>2012-07-21T04:31:27.1Z</time>
      </trkpt>
      <trkpt lat="45.39585" lon="5.8033">
        <ele>1181</ele>
        <time>2012-07-21T04:31:29.1Z</time>
      </trkpt>
      <trkpt lat="45.39584" lon="5.80331">
        <ele>1181</ele>
        <time>2012-07-21T04:31:31.1Z</time>
      </trkpt>
      <trkpt lat="45.39582" lon="5.80331">
        <ele>1182</ele>
        <time>2012-07-21T04:31:33.1Z</time>
      </trkpt>
      <trkpt lat="45.39579" lon="5.80331">
        <ele>1182</ele>
        <time>2012-07-21T04:31:35.1Z</time>
      </trkpt>
      <trkpt lat="45.39576" lon="5.80333">
        <ele>1183</ele>
        <time>2012-07-21T04:31:37.1Z</time>
      </trkpt>
      <trkpt lat="45.39574" lon="5.80334">
        <ele>1184</ele>
        <time>2012-07-21T04:31:39.1Z</time>
      </trkpt>
      <trkpt lat="45.39571" lon="5.80336">
        <ele>1185</ele>
        <time>2012-07-21T04:31:41.1Z</time>
      </trkpt>
      <trkpt lat="45.39569" lon="5.80337">
        <ele>1186</ele>
        <time>2012-07-21T04:31:43.1Z</time>
      </trkpt>
      <trkpt lat="45.39567" lon="5.80337">
        <ele>1186</ele>
        <time>2012-07-21T04:31:45.1Z</time>
      </trkpt>
      <trkpt lat="45.39565" lon="5.80339">
        <ele>1187</ele>
        <time>2012-07-21T04:31:48.1Z</time>
      </trkpt>
      <trkpt lat="45.39563" lon="5.8034">
        <ele>1187</ele>
        <time>2012-07-21T04:31:50.1Z</time>
      </trkpt>
      <trkpt lat="45.3956" lon="5.8034">
        <ele>1188</ele>
        <time>2012-07-21T04:31:52.1Z</time>
      </trkpt>
      <trkpt lat="45.39558" lon="5.80341">
        <ele>1189</ele>
        <time>2012-07-21T04:31:54.1Z</time>
      </trkpt>
      <trkpt lat="45.39555" lon="5.80342">
        <ele>1189</ele>
        <time>2012-07-21T04:31:56.1Z</time>
      </trkpt>
      <trkpt lat="45.39553" lon="5.80344">
        <ele>1190</ele>
        <time>2012-07-21T04:31:58.1Z</time>
      </trkpt>
      <trkpt lat="45.3955" lon="5.80345">
        <ele>1191</ele>
        <time>2012-07-21T04:32:00.1Z</time>
      </trkpt>
      <trkpt lat="45.39549" lon="5.80345">
        <ele>1192</ele>
        <time>2012-07-21T04:32:02.1Z</time>
      </trkpt>
      <trkpt lat="45.39547" lon="5.80345">
        <ele>1192</ele>
        <time>2012-07-21T04:32:04.1Z</time>
      </trkpt>
      <trkpt lat="45.39544" lon="5.80348">
        <ele>1193</ele>
        <time>2012-07-21T04:32:06.1Z</time>
      </trkpt>
      <trkpt lat="45.39542" lon="5.8035">
        <ele>1193</ele>
        <time>2012-07-21T04:32:08.1Z</time>
      </trkpt>
      <trkpt lat="45.3954" lon="5.80351">
        <ele>1194</ele>
        <time>2012-07-21T04:32:10.1Z</time>
      </trkpt>
      <trkpt lat="45.39538" lon="5.80352">
        <ele>1195</ele>
        <time>2012-07-21T04:32:13.1Z</time>
      </trkpt>
      <trkpt lat="45.39534" lon="5.80353">
        <ele>1195</ele>
        <time>2012-07-21T04:32:15.1Z</time>
      </trkpt>
      <trkpt lat="45.39532" lon="5.80354">
        <ele>1196</ele>
        <time>2012-07-21T04:32:17.1Z</time>
      </trkpt>
      <trkpt lat="45.39531" lon="5.80354">
        <ele>1197</ele>
        <time>2012-07-21T04:32:19.1Z</time>
      </trkpt>
      <trkpt lat="45.39528" lon="5.80354">
        <ele>1197</ele>
        <time>2012-07-21T04:32:21.1Z</time>
      </trkpt>
      <trkpt lat="45.39526" lon="5.80355">
        <ele>1198</ele>
        <time>2012-07-21T04:32:23.1Z</time>
      </trkpt>
      <trkpt lat="45.39524" lon="5.80355">
        <ele>1199</ele>
        <time>2012-07-21T04:32:26.1Z</time>
      </trkpt>
      <trkpt lat="45.39522" lon="5.80355">
        <ele>1199</ele>
        <time>2012-07-21T04:32:28.1Z</time>
      </trkpt>
      <trkpt lat="45.3952" lon="5.80356">
        <ele>1200</ele>
        <time>2012-07-21T04:32:30.1Z</time>
      </trkpt>
      <trkpt lat="45.39519" lon="5.80356">
        <ele>1201</ele>
        <time>2012-07-21T04:32:32.1Z</time>
      </trkpt>
      <trkpt lat="45.39517" lon="5.80357">
        <ele>1201</ele>
        <time>2012-07-21T04:32:34.1Z</time>
      </trkpt>
      <trkpt lat="45.39515" lon="5.80358">
        <ele>1202</ele>
        <time>2012-07-21T04:32:36.1Z</time>
      </trkpt>
      <trkpt lat="45.39513" lon="5.80359">
        <ele>1203</ele>
        <time>2012-07-21T04:32:38.1Z</time>
      </trkpt>
      <trkpt lat="45.39511" lon="5.80359">
        <ele>1204</ele>
        <time>2012-07-21T04:32:40.1Z</time>
      </trkpt>
      <trkpt lat="45.39509" lon="5.80359">
        <ele>1204</ele>
        <time>2012-07-21T04:32:42.1Z</time>
      </trkpt>
      <trkpt lat="45.39507" lon="5.80359">
        <ele>1205</ele>
        <time>2012-07-21T04:32:45.1Z</time>
      </trkpt>
      <trkpt lat="45.39505" lon="5.80359">
        <ele>1206</ele>
        <time>2012-07-21T04:32:47.1Z</time>
      </trkpt>
      <trkpt lat="45.39503" lon="5.80359">
        <ele>1206</ele>
        <time>2012-07-21T04:32:49.1Z</time>
      </trkpt>
      <trkpt lat="45.39501" lon="5.8036">
        <ele>1207</ele>
        <time>2012-07-21T04:32:51.1Z</time>
      </trkpt>
      <trkpt lat="45.39499" lon="5.8036">
        <ele>1208</ele>
        <time>2012-07-21T04:32:53.1Z</time>
      </trkpt>
      <trkpt lat="45.39497" lon="5.8036">
        <ele>1208</ele>
        <time>2012-07-21T04:32:55.1Z</time>
      </trkpt>
      <trkpt lat="45.39495" lon="5.8036">
        <ele>1208</ele>
        <time>2012-07-21T04:32:57.1Z</time>
      </trkpt>
      <trkpt lat="45.39492" lon="5.80359">
        <ele>1209</ele>
        <time>2012-07-21T04:32:59.1Z</time>
      </trkpt>
      <trkpt lat="45.39491" lon="5.80359">
        <ele>1210</ele>
        <time>2012-07-21T04:33:01.1Z</time>
      </trkpt>
      <trkpt lat="45.39489" lon="5.80359">
        <ele>1210</ele>
        <time>2012-07-21T04:33:03.1Z</time>
      </trkpt>
      <trkpt lat="45.39486" lon="5.80359">
        <ele>1211</ele>
        <time>2012-07-21T04:33:05.1Z</time>
      </trkpt>
      <trkpt lat="45.39484" lon="5.80358">
        <ele>1212</ele>
        <time>2012-07-21T04:33:07.1Z</time>
      </trkpt>
      <trkpt lat="45.39482" lon="5.80358">
        <ele>1213</ele>
        <time>2012-07-21T04:33:09.1Z</time>
      </trkpt>
      <trkpt lat="45.3948" lon="5.80358">
        <ele>1213</ele>
        <time>2012-07-21T04:33:11.1Z</time>
      </trkpt>
      <trkpt lat="45.39479" lon="5.80358">
        <ele>1214</ele>
        <time>2012-07-21T04:33:14.1Z</time>
      </trkpt>
      <trkpt lat="45.39478" lon="5.80358">
        <ele>1215</ele>
        <time>2012-07-21T04:33:16.1Z</time>
      </trkpt>
      <trkpt lat="45.39476" lon="5.80357">
        <ele>1215</ele>
        <time>2012-07-21T04:33:18.1Z</time>
      </trkpt>
      <trkpt lat="45.39475" lon="5.80357">
        <ele>1216</ele>
        <time>2012-07-21T04:33:20.1Z</time>
      </trkpt>
      <trkpt lat="45.39473" lon="5.80357">
        <ele>1216</ele>
        <time>2012-07-21T04:33:22.1Z</time>
      </trkpt>
      <trkpt lat="45.39471" lon="5.80356">
        <ele>1217</ele>
        <time>2012-07-21T04:33:24.1Z</time>
      </trkpt>
      <trkpt lat="45.3947" lon="5.80356">
        <ele>1217</ele>
        <time>2012-07-21T04:33:26.1Z</time>
      </trkpt>
      <trkpt lat="45.39468" lon="5.80356">
        <ele>1218</ele>
        <time>2012-07-21T04:33:28.1Z</time>
      </trkpt>
      <trkpt lat="45.39466" lon="5.80357">
        <ele>1219</ele>
        <time>2012-07-21T04:33:30.1Z</time>
      </trkpt>
      <trkpt lat="45.39465" lon="5.80355">
        <ele>1220</ele>
        <time>2012-07-21T04:33:32.1Z</time>
      </trkpt>
      <trkpt lat="45.39463" lon="5.80355">
        <ele>1221</ele>
        <time>2012-07-21T04:33:34.1Z</time>
      </trkpt>
      <trkpt lat="45.39461" lon="5.80354">
        <ele>1221</ele>
        <time>2012-07-21T04:33:36.1Z</time>
      </trkpt>
      <trkpt lat="45.3946" lon="5.80354">
        <ele>1221</ele>
        <time>2012-07-21T04:33:38.1Z</time>
      </trkpt>
      <trkpt lat="45.39458" lon="5.80354">
        <ele>1222</ele>
        <time>2012-07-21T04:33:40.1Z</time>
      </trkpt>
      <trkpt lat="45.39456" lon="5.80353">
        <ele>1223</ele>
        <time>2012-07-21T04:33:42.1Z</time>
      </trkpt>
      <trkpt lat="45.39454" lon="5.80352">
        <ele>1223</ele>
        <time>2012-07-21T04:33:45.1Z</time>
      </trkpt>
      <trkpt lat="45.39452" lon="5.80351">
        <ele>1224</ele>
        <time>2012-07-21T04:33:47.1Z</time>
      </trkpt>
      <trkpt lat="45.3945" lon="5.80352">
        <ele>1225</ele>
        <time>2012-07-21T04:33:49.1Z</time>
      </trkpt>
      <trkpt lat="45.39448" lon="5.80353">
        <ele>1226</ele>
        <time>2012-07-21T04:33:51.1Z</time>
      </trkpt>
      <trkpt lat="45.39443" lon="5.80353">
        <ele>1226</ele>
        <time>2012-07-21T04:33:53.1Z</time>
      </trkpt>
      <trkpt lat="45.39441" lon="5.80353">
        <ele>1227</ele>
        <time>2012-07-21T04:33:55.1Z</time>
      </trkpt>
      <trkpt lat="45.39439" lon="5.80354">
        <ele>1228</ele>
        <time>2012-07-21T04:33:57.1Z</time>
      </trkpt>
      <trkpt lat="45.39437" lon="5.80354">
        <ele>1228</ele>
        <time>2012-07-21T04:33:59.1Z</time>
      </trkpt>
      <trkpt lat="45.39435" lon="5.80355">
        <ele>1229</ele>
        <time>2012-07-21T04:34:01.1Z</time>
      </trkpt>
      <trkpt lat="45.39433" lon="5.80355">
        <ele>1230</ele>
        <time>2012-07-21T04:34:04.1Z</time>
      </trkpt>
      <trkpt lat="45.39431" lon="5.80354">
        <ele>1230</ele>
        <time>2012-07-21T04:34:06.1Z</time>
      </trkpt>
      <trkpt lat="45.39429" lon="5.80353">
        <ele>1231</ele>
        <time>2012-07-21T04:34:08.1Z</time>
      </trkpt>
      <trkpt lat="45.39428" lon="5.80352">
        <ele>1232</ele>
        <time>2012-07-21T04:34:10.1Z</time>
      </trkpt>
      <trkpt lat="45.39425" lon="5.80352">
        <ele>1232</ele>
        <time>2012-07-21T04:34:12.1Z</time>
      </trkpt>
      <trkpt lat="45.39423" lon="5.80352">
        <ele>1233</ele>
        <time>2012-07-21T04:34:14.1Z</time>
      </trkpt>
      <trkpt lat="45.3942" lon="5.80351">
        <ele>1233</ele>
        <time>2012-07-21T04:34:16.1Z</time>
      </trkpt>
      <trkpt lat="45.39418" lon="5.80351">
        <ele>1234</ele>
        <time>2012-07-21T04:34:18.1Z</time>
      </trkpt>
      <trkpt lat="45.39416" lon="5.80351">
        <ele>1235</ele>
        <time>2012-07-21T04:34:20.1Z</time>
      </trkpt>
      <trkpt lat="45.39413" lon="5.80352">
        <ele>1235</ele>
        <time>2012-07-21T04:34:22.1Z</time>
      </trkpt>
      <trkpt lat="45.3941" lon="5.80352">
        <ele>1236</ele>
        <time>2012-07-21T04:34:24.1Z</time>
      </trkpt>
      <trkpt lat="45.39408" lon="5.80352">
        <ele>1237</ele>
        <time>2012-07-21T04:34:26.1Z</time>
      </trkpt>
      <trkpt lat="45.39406" lon="5.80351">
        <ele>1237</ele>
        <time>2012-07-21T04:34:28.1Z</time>
      </trkpt>
      <trkpt lat="45.39404" lon="5.80351">
        <ele>1238</ele>
        <time>2012-07-21T04:34:31.1Z</time>
      </trkpt>
      <trkpt lat="45.39402" lon="5.80351">
        <ele>1238</ele>
        <time>2012-07-21T04:34:33.1Z</time>
      </trkpt>
      <trkpt lat="45.394" lon="5.80349">
        <ele>1239</ele>
        <time>2012-07-21T04:34:35.1Z</time>
      </trkpt>
      <trkpt lat="45.39399" lon="5.80348">
        <ele>1240</ele>
        <time>2012-07-21T04:34:37.1Z</time>
      </trkpt>
      <trkpt lat="45.39397" lon="5.80348">
        <ele>1240</ele>
        <time>2012-07-21T04:34:39.1Z</time>
      </trkpt>
      <trkpt lat="45.39397" lon="5.80347">
        <ele>1241</ele>
        <time>2012-07-21T04:34:42.1Z</time>
      </trkpt>
      <trkpt lat="45.39395" lon="5.80347">
        <ele>1241</ele>
        <time>2012-07-21T04:34:44.1Z</time>
      </trkpt>
      <trkpt lat="45.39393" lon="5.80346">
        <ele>1242</ele>
        <time>2012-07-21T04:34:46.1Z</time>
      </trkpt>
      <trkpt lat="45.39391" lon="5.80345">
        <ele>1242</ele>
        <time>2012-07-21T04:34:48.1Z</time>
      </trkpt>
      <trkpt lat="45.39389" lon="5.80344">
        <ele>1243</ele>
        <time>2012-07-21T04:34:50.1Z</time>
      </trkpt>
      <trkpt lat="45.39387" lon="5.80343">
        <ele>1244</ele>
        <time>2012-07-21T04:34:52.1Z</time>
      </trkpt>
      <trkpt lat="45.39386" lon="5.80344">
        <ele>1244</ele>
        <time>2012-07-21T04:34:54.1Z</time>
      </trkpt>
      <trkpt lat="45.39383" lon="5.80345">
        <ele>1245</ele>
        <time>2012-07-21T04:34:56.1Z</time>
      </trkpt>
      <trkpt lat="45.39383" lon="5.80345">
        <ele>1246</ele>
        <time>2012-07-21T04:34:58.1Z</time>
      </trkpt>
      <trkpt lat="45.39381" lon="5.80344">
        <ele>1246</ele>
        <time>2012-07-21T04:35:00.1Z</time>
      </trkpt>
      <trkpt lat="45.39379" lon="5.80344">
        <ele>1247</ele>
        <time>2012-07-21T04:35:02.1Z</time>
      </trkpt>
      <trkpt lat="45.39377" lon="5.80345">
        <ele>1248</ele>
        <time>2012-07-21T04:35:04.1Z</time>
      </trkpt>
      <trkpt lat="45.39376" lon="5.80344">
        <ele>1248</ele>
        <time>2012-07-21T04:35:06.1Z</time>
      </trkpt>
      <trkpt lat="45.39374" lon="5.80344">
        <ele>1249</ele>
        <time>2012-07-21T04:35:09.1Z</time>
      </trkpt>
      <trkpt lat="45.39373" lon="5.80344">
        <ele>1249</ele>
        <time>2012-07-21T04:35:11.1Z</time>
      </trkpt>
      <trkpt lat="45.39371" lon="5.80343">
        <ele>1250</ele>
        <time>2012-07-21T04:35:13.1Z</time>
      </trkpt>
      <trkpt lat="45.39369" lon="5.80343">
        <ele>1251</ele>
        <time>2012-07-21T04:35:15.1Z</time>
      </trkpt>
      <trkpt lat="45.39368" lon="5.80344">
        <ele>1252</ele>
        <time>2012-07-21T04:35:17.1Z</time>
      </trkpt>
      <trkpt lat="45.39367" lon="5.80346">
        <ele>1253</ele>
        <time>2012-07-21T04:35:19.1Z</time>
      </trkpt>
      <trkpt lat="45.39365" lon="5.80347">
        <ele>1253</ele>
        <time>2012-07-21T04:35:21.1Z</time>
      </trkpt>
      <trkpt lat="45.39365" lon="5.80348">
        <ele>1254</ele>
        <time>2012-07-21T04:35:23.1Z</time>
      </trkpt>
      <trkpt lat="45.39363" lon="5.80351">
        <ele>1254</ele>
        <time>2012-07-21T04:35:25.1Z</time>
      </trkpt>
      <trkpt lat="45.39362" lon="5.80353">
        <ele>1255</ele>
        <time>2012-07-21T04:35:27.1Z</time>
      </trkpt>
      <trkpt lat="45.39362" lon="5.80356">
        <ele>1256</ele>
        <time>2012-07-21T04:35:29.1Z</time>
      </trkpt>
      <trkpt lat="45.39362" lon="5.80357">
        <ele>1256</ele>
        <time>2012-07-21T04:35:31.1Z</time>
      </trkpt>
      <trkpt lat="45.39362" lon="5.8036">
        <ele>1257</ele>
        <time>2012-07-21T04:35:33.1Z</time>
      </trkpt>
      <trkpt lat="45.39362" lon="5.80363">
        <ele>1258</ele>
        <time>2012-07-21T04:35:35.1Z</time>
      </trkpt>
      <trkpt lat="45.39362" lon="5.80366">
        <ele>1258</ele>
        <time>2012-07-21T04:35:37.1Z</time>
      </trkpt>
      <trkpt lat="45.39362" lon="5.80367">
        <ele>1258</ele>
        <time>2012-07-21T04:35:39.1Z</time>
      </trkpt>
      <trkpt lat="45.39363" lon="5.8037">
        <ele>1259</ele>
        <time>2012-07-21T04:35:42.1Z</time>
      </trkpt>
      <trkpt lat="45.39363" lon="5.80371">
        <ele>1260</ele>
        <time>2012-07-21T04:35:44.1Z</time>
      </trkpt>
      <trkpt lat="45.39362" lon="5.80374">
        <ele>1260</ele>
        <time>2012-07-21T04:35:46.1Z</time>
      </trkpt>
      <trkpt lat="45.39363" lon="5.80377">
        <ele>1261</ele>
        <time>2012-07-21T04:35:48.1Z</time>
      </trkpt>
      <trkpt lat="45.39363" lon="5.80379">
        <ele>1262</ele>
        <time>2012-07-21T04:35:50.1Z</time>
      </trkpt>
      <trkpt lat="45.39363" lon="5.80381">
        <ele>1262</ele>
        <time>2012-07-21T04:35:52.1Z</time>
      </trkpt>
      <trkpt lat="45.39363" lon="5.80384">
        <ele>1263</ele>
        <time>2012-07-21T04:35:54.1Z</time>
      </trkpt>
      <trkpt lat="45.39364" lon="5.80388">
        <ele>1263</ele>
        <time>2012-07-21T04:35:56.1Z</time>
      </trkpt>
      <trkpt lat="45.39365" lon="5.80392">
        <ele>1264</ele>
        <time>2012-07-21T04:35:58.1Z</time>
      </trkpt>
      <trkpt lat="45.39366" lon="5.80393">
        <ele>1265</ele>
        <time>2012-07-21T04:36:00.1Z</time>
      </trkpt>
      <trkpt lat="45.39368" lon="5.80397">
        <ele>1265</ele>
        <time>2012-07-21T04:36:02.1Z</time>
      </trkpt>
      <trkpt lat="45.3937" lon="5.80399">
        <ele>1266</ele>
        <time>2012-07-21T04:36:05.1Z</time>
      </trkpt>
      <trkpt lat="45.39371" lon="5.80402">
        <ele>1267</ele>
        <time>2012-07-21T04:36:07.1Z</time>
      </trkpt>
      <trkpt lat="45.39373" lon="5.80403">
        <ele>1267</ele>
        <time>2012-07-21T04:36:09.1Z</time>
      </trkpt>
      <trkpt lat="45.39376" lon="5.80408">
        <ele>1268</ele>
        <time>2012-07-21T04:36:11.1Z</time>
      </trkpt>
      <trkpt lat="45.39378" lon="5.8041">
        <ele>1268</ele>
        <time>2012-07-21T04:36:13.1Z</time>
      </trkpt>
      <trkpt lat="45.3938" lon="5.80414">
        <ele>1269</ele>
        <time>2012-07-21T04:36:15.1Z</time>
      </trkpt>
      <trkpt lat="45.39381" lon="5.80417">
        <ele>1270</ele>
        <time>2012-07-21T04:36:17.1Z</time>
      </trkpt>
      <trkpt lat="45.39381" lon="5.8042">
        <ele>1270</ele>
        <time>2012-07-21T04:36:20.1Z</time>
      </trkpt>
      <trkpt lat="45.39381" lon="5.80424">
        <ele>1271</ele>
        <time>2012-07-21T04:36:22.1Z</time>
      </trkpt>
      <trkpt lat="45.39381" lon="5.80429">
        <ele>1271</ele>
        <time>2012-07-21T04:36:24.1Z</time>
      </trkpt>
      <trkpt lat="45.3938" lon="5.80433">
        <ele>1271</ele>
        <time>2012-07-21T04:36:26.1Z</time>
      </trkpt>
      <trkpt lat="45.3938" lon="5.80436">
        <ele>1272</ele>
        <time>2012-07-21T04:36:28.1Z</time>
      </trkpt>
      <trkpt lat="45.39381" lon="5.8044">
        <ele>1273</ele>
        <time>2012-07-21T04:36:30.1Z</time>
      </trkpt>
      <trkpt lat="45.39381" lon="5.80444">
        <ele>1273</ele>
        <time>2012-07-21T04:36:33.1Z</time>
      </trkpt>
      <trkpt lat="45.3938" lon="5.80447">
        <ele>1274</ele>
        <time>2012-07-21T04:36:35.1Z</time>
      </trkpt>
      <trkpt lat="45.3938" lon="5.80451">
        <ele>1274</ele>
        <time>2012-07-21T04:36:37.1Z</time>
      </trkpt>
      <trkpt lat="45.39381" lon="5.80457">
        <ele>1275</ele>
        <time>2012-07-21T04:36:39.1Z</time>
      </trkpt>
      <trkpt lat="45.39381" lon="5.80459">
        <ele>1275</ele>
        <time>2012-07-21T04:36:41.1Z</time>
      </trkpt>
      <trkpt lat="45.39382" lon="5.80461">
        <ele>1276</ele>
        <time>2012-07-21T04:36:43.1Z</time>
      </trkpt>
      <trkpt lat="45.39384" lon="5.80466">
        <ele>1276</ele>
        <time>2012-07-21T04:36:46.1Z</time>
      </trkpt>
      <trkpt lat="45.39385" lon="5.8047">
        <ele>1277</ele>
        <time>2012-07-21T04:36:48.1Z</time>
      </trkpt>
      <trkpt lat="45.39387" lon="5.80472">
        <ele>1278</ele>
        <time>2012-07-21T04:36:50.1Z</time>
      </trkpt>
      <trkpt lat="45.39388" lon="5.80476">
        <ele>1278</ele>
        <time>2012-07-21T04:36:52.1Z</time>
      </trkpt>
      <trkpt lat="45.3939" lon="5.8048">
        <ele>1278</ele>
        <time>2012-07-21T04:36:54.1Z</time>
      </trkpt>
      <trkpt lat="45.3939" lon="5.80482">
        <ele>1279</ele>
        <time>2012-07-21T04:36:56.1Z</time>
      </trkpt>
      <trkpt lat="45.39391" lon="5.80485">
        <ele>1279</ele>
        <time>2012-07-21T04:36:59.1Z</time>
      </trkpt>
      <trkpt lat="45.39391" lon="5.80488">
        <ele>1280</ele>
        <time>2012-07-21T04:37:01.1Z</time>
      </trkpt>
      <trkpt lat="45.39392" lon="5.8049">
        <ele>1280</ele>
        <time>2012-07-21T04:37:03.1Z</time>
      </trkpt>
      <trkpt lat="45.39394" lon="5.80494">
        <ele>1281</ele>
        <time>2012-07-21T04:37:05.1Z</time>
      </trkpt>
      <trkpt lat="45.39396" lon="5.80496">
        <ele>1282</ele>
        <time>2012-07-21T04:37:07.1Z</time>
      </trkpt>
      <trkpt lat="45.39397" lon="5.80499">
        <ele>1283</ele>
        <time>2012-07-21T04:37:09.1Z</time>
      </trkpt>
      <trkpt lat="45.39399" lon="5.80502">
        <ele>1283</ele>
        <time>2012-07-21T04:37:11.1Z</time>
      </trkpt>
      <trkpt lat="45.39401" lon="5.80504">
        <ele>1284</ele>
        <time>2012-07-21T04:37:13.1Z</time>
      </trkpt>
      <trkpt lat="45.39402" lon="5.80506">
        <ele>1284</ele>
        <time>2012-07-21T04:37:16.1Z</time>
      </trkpt>
      <trkpt lat="45.39404" lon="5.80508">
        <ele>1284</ele>
        <time>2012-07-21T04:37:18.1Z</time>
      </trkpt>
      <trkpt lat="45.39405" lon="5.80511">
        <ele>1285</ele>
        <time>2012-07-21T04:37:20.1Z</time>
      </trkpt>
      <trkpt lat="45.39407" lon="5.80516">
        <ele>1285</ele>
        <time>2012-07-21T04:37:22.1Z</time>
      </trkpt>
      <trkpt lat="45.39407" lon="5.80519">
        <ele>1286</ele>
        <time>2012-07-21T04:37:24.1Z</time>
      </trkpt>
      <trkpt lat="45.39408" lon="5.80521">
        <ele>1287</ele>
        <time>2012-07-21T04:37:26.1Z</time>
      </trkpt>
      <trkpt lat="45.39409" lon="5.80524">
        <ele>1288</ele>
        <time>2012-07-21T04:37:28.1Z</time>
      </trkpt>
      <trkpt lat="45.3941" lon="5.80525">
        <ele>1288</ele>
        <time>2012-07-21T04:37:30.1Z</time>
      </trkpt>
      <trkpt lat="45.39412" lon="5.80528">
        <ele>1288</ele>
        <time>2012-07-21T04:37:33.1Z</time>
      </trkpt>
      <trkpt lat="45.39413" lon="5.80531">
        <ele>1289</ele>
        <time>2012-07-21T04:37:35.1Z</time>
      </trkpt>
      <trkpt lat="45.39414" lon="5.80535">
        <ele>1289</ele>
        <time>2012-07-21T04:37:37.1Z</time>
      </trkpt>
      <trkpt lat="45.39415" lon="5.80539">
        <ele>1290</ele>
        <time>2012-07-21T04:37:39.1Z</time>
      </trkpt>
      <trkpt lat="45.39417" lon="5.80542">
        <ele>1290</ele>
        <time>2012-07-21T04:37:41.1Z</time>
      </trkpt>
      <trkpt lat="45.39419" lon="5.80545">
        <ele>1291</ele>
        <time>2012-07-21T04:37:43.1Z</time>
      </trkpt>
      <trkpt lat="45.39421" lon="5.80548">
        <ele>1291</ele>
        <time>2012-07-21T04:37:45.1Z</time>
      </trkpt>
      <trkpt lat="45.39423" lon="5.80551">
        <ele>1292</ele>
        <time>2012-07-21T04:37:47.1Z</time>
      </trkpt>
      <trkpt lat="45.39424" lon="5.80554">
        <ele>1292</ele>
        <time>2012-07-21T04:37:49.1Z</time>
      </trkpt>
      <trkpt lat="45.39425" lon="5.80557">
        <ele>1293</ele>
        <time>2012-07-21T04:37:51.1Z</time>
      </trkpt>
      <trkpt lat="45.39426" lon="5.8056">
        <ele>1293</ele>
        <time>2012-07-21T04:37:53.1Z</time>
      </trkpt>
      <trkpt lat="45.39428" lon="5.80562">
        <ele>1294</ele>
        <time>2012-07-21T04:37:55.1Z</time>
      </trkpt>
      <trkpt lat="45.39429" lon="5.80564">
        <ele>1295</ele>
        <time>2012-07-21T04:37:57.1Z</time>
      </trkpt>
      <trkpt lat="45.39431" lon="5.80567">
        <ele>1296</ele>
        <time>2012-07-21T04:38:00.1Z</time>
      </trkpt>
      <trkpt lat="45.39432" lon="5.80569">
        <ele>1296</ele>
        <time>2012-07-21T04:38:02.1Z</time>
      </trkpt>
      <trkpt lat="45.39434" lon="5.8057">
        <ele>1297</ele>
        <time>2012-07-21T04:38:04.1Z</time>
      </trkpt>
      <trkpt lat="45.39436" lon="5.80571">
        <ele>1297</ele>
        <time>2012-07-21T04:38:06.1Z</time>
      </trkpt>
      <trkpt lat="45.39437" lon="5.80573">
        <ele>1298</ele>
        <time>2012-07-21T04:38:08.1Z</time>
      </trkpt>
      <trkpt lat="45.39439" lon="5.80575">
        <ele>1299</ele>
        <time>2012-07-21T04:38:10.1Z</time>
      </trkpt>
      <trkpt lat="45.39441" lon="5.80577">
        <ele>1300</ele>
        <time>2012-07-21T04:38:13.1Z</time>
      </trkpt>
      <trkpt lat="45.39444" lon="5.80579">
        <ele>1300</ele>
        <time>2012-07-21T04:38:15.1Z</time>
      </trkpt>
      <trkpt lat="45.39446" lon="5.80581">
        <ele>1301</ele>
        <time>2012-07-21T04:38:17.1Z</time>
      </trkpt>
      <trkpt lat="45.39447" lon="5.80583">
        <ele>1301</ele>
        <time>2012-07-21T04:38:19.1Z</time>
      </trkpt>
      <trkpt lat="45.3945" lon="5.80586">
        <ele>1302</ele>
        <time>2012-07-21T04:38:21.1Z</time>
      </trkpt>
      <trkpt lat="45.39452" lon="5.80588">
        <ele>1302</ele>
        <time>2012-07-21T04:38:23.1Z</time>
      </trkpt>
      <trkpt lat="45.39453" lon="5.80589">
        <ele>1303</ele>
        <time>2012-07-21T04:38:25.1Z</time>
      </trkpt>
      <trkpt lat="45.39455" lon="5.8059">
        <ele>1303</ele>
        <time>2012-07-21T04:38:27.1Z</time>
      </trkpt>
      <trkpt lat="45.39457" lon="5.80592">
        <ele>1304</ele>
        <time>2012-07-21T04:38:30.1Z</time>
      </trkpt>
      <trkpt lat="45.39458" lon="5.80593">
        <ele>1304</ele>
        <time>2012-07-21T04:38:32.1Z</time>
      </trkpt>
      <trkpt lat="45.3946" lon="5.80595">
        <ele>1305</ele>
        <time>2012-07-21T04:38:34.1Z</time>
      </trkpt>
      <trkpt lat="45.39462" lon="5.80597">
        <ele>1305</ele>
        <time>2012-07-21T04:38:36.1Z</time>
      </trkpt>
      <trkpt lat="45.39463" lon="5.80598">
        <ele>1306</ele>
        <time>2012-07-21T04:38:38.1Z</time>
      </trkpt>
      <trkpt lat="45.39465" lon="5.806">
        <ele>1307</ele>
        <time>2012-07-21T04:38:40.1Z</time>
      </trkpt>
      <trkpt lat="45.39466" lon="5.80601">
        <ele>1308</ele>
        <time>2012-07-21T04:38:42.1Z</time>
      </trkpt>
      <trkpt lat="45.39466" lon="5.80603">
        <ele>1308</ele>
        <time>2012-07-21T04:38:44.1Z</time>
      </trkpt>
      <trkpt lat="45.39468" lon="5.80604">
        <ele>1309</ele>
        <time>2012-07-21T04:38:47.1Z</time>
      </trkpt>
      <trkpt lat="45.39469" lon="5.80606">
        <ele>1309</ele>
        <time>2012-07-21T04:38:49.1Z</time>
      </trkpt>
      <trkpt lat="45.39471" lon="5.80608">
        <ele>1310</ele>
        <time>2012-07-21T04:38:51.1Z</time>
      </trkpt>
      <trkpt lat="45.39473" lon="5.80611">
        <ele>1310</ele>
        <time>2012-07-21T04:38:53.1Z</time>
      </trkpt>
      <trkpt lat="45.39473" lon="5.80611">
        <ele>1311</ele>
        <time>2012-07-21T04:38:55.1Z</time>
      </trkpt>
      <trkpt lat="45.39475" lon="5.80612">
        <ele>1311</ele>
        <time>2012-07-21T04:38:57.1Z</time>
      </trkpt>
      <trkpt lat="45.39476" lon="5.80614">
        <ele>1312</ele>
        <time>2012-07-21T04:39:00.1Z</time>
      </trkpt>
      <trkpt lat="45.39477" lon="5.80617">
        <ele>1313</ele>
        <time>2012-07-21T04:39:02.1Z</time>
      </trkpt>
      <trkpt lat="45.39478" lon="5.80619">
        <ele>1314</ele>
        <time>2012-07-21T04:39:04.1Z</time>
      </trkpt>
      <trkpt lat="45.39479" lon="5.80619">
        <ele>1314</ele>
        <time>2012-07-21T04:39:06.1Z</time>
      </trkpt>
      <trkpt lat="45.39481" lon="5.80621">
        <ele>1315</ele>
        <time>2012-07-21T04:39:08.1Z</time>
      </trkpt>
      <trkpt lat="45.39482" lon="5.80623">
        <ele>1315</ele>
        <time>2012-07-21T04:39:10.1Z</time>
      </trkpt>
      <trkpt lat="45.39483" lon="5.80625">
        <ele>1316</ele>
        <time>2012-07-21T04:39:12.1Z</time>
      </trkpt>
      <trkpt lat="45.39483" lon="5.80626">
        <ele>1317</ele>
        <time>2012-07-21T04:39:15.1Z</time>
      </trkpt>
      <trkpt lat="45.39484" lon="5.80627">
        <ele>1317</ele>
        <time>2012-07-21T04:39:17.1Z</time>
      </trkpt>
      <trkpt lat="45.39486" lon="5.8063">
        <ele>1317</ele>
        <time>2012-07-21T04:39:19.1Z</time>
      </trkpt>
      <trkpt lat="45.39487" lon="5.80632">
        <ele>1318</ele>
        <time>2012-07-21T04:39:21.1Z</time>
      </trkpt>
      <trkpt lat="45.39487" lon="5.80635">
        <ele>1319</ele>
        <time>2012-07-21T04:39:23.1Z</time>
      </trkpt>
      <trkpt lat="45.39489" lon="5.80636">
        <ele>1319</ele>
        <time>2012-07-21T04:39:25.1Z</time>
      </trkpt>
      <trkpt lat="45.39489" lon="5.80639">
        <ele>1320</ele>
        <time>2012-07-21T04:39:27.1Z</time>
      </trkpt>
      <trkpt lat="45.39491" lon="5.80642">
        <ele>1320</ele>
        <time>2012-07-21T04:39:30.1Z</time>
      </trkpt>
      <trkpt lat="45.39491" lon="5.80643">
        <ele>1321</ele>
        <time>2012-07-21T04:39:32.1Z</time>
      </trkpt>
      <trkpt lat="45.39492" lon="5.80645">
        <ele>1321</ele>
        <time>2012-07-21T04:39:34.1Z</time>
      </trkpt>
      <trkpt lat="45.39492" lon="5.80647">
        <ele>1322</ele>
        <time>2012-07-21T04:39:36.1Z</time>
      </trkpt>
      <trkpt lat="45.39493" lon="5.8065">
        <ele>1322</ele>
        <time>2012-07-21T04:39:38.1Z</time>
      </trkpt>
      <trkpt lat="45.39494" lon="5.80652">
        <ele>1323</ele>
        <time>2012-07-21T04:39:40.1Z</time>
      </trkpt>
      <trkpt lat="45.39495" lon="5.80654">
        <ele>1323</ele>
        <time>2012-07-21T04:39:42.1Z</time>
      </trkpt>
      <trkpt lat="45.39496" lon="5.80655">
        <ele>1324</ele>
        <time>2012-07-21T04:39:44.1Z</time>
      </trkpt>
      <trkpt lat="45.39497" lon="5.80657">
        <ele>1324</ele>
        <time>2012-07-21T04:39:46.1Z</time>
      </trkpt>
      <trkpt lat="45.39498" lon="5.80659">
        <ele>1325</ele>
        <time>2012-07-21T04:39:48.1Z</time>
      </trkpt>
      <trkpt lat="45.395" lon="5.80662">
        <ele>1326</ele>
        <time>2012-07-21T04:39:50.1Z</time>
      </trkpt>
      <trkpt lat="45.395" lon="5.80663">
        <ele>1326</ele>
        <time>2012-07-21T04:39:52.1Z</time>
      </trkpt>
      <trkpt lat="45.39502" lon="5.80665">
        <ele>1327</ele>
        <time>2012-07-21T04:39:55.1Z</time>
      </trkpt>
      <trkpt lat="45.39503" lon="5.80667">
        <ele>1328</ele>
        <time>2012-07-21T04:39:57.1Z</time>
      </trkpt>
      <trkpt lat="45.39505" lon="5.80668">
        <ele>1328</ele>
        <time>2012-07-21T04:39:59.1Z</time>
      </trkpt>
      <trkpt lat="45.39506" lon="5.8067">
        <ele>1329</ele>
        <time>2012-07-21T04:40:01.1Z</time>
      </trkpt>
      <trkpt lat="45.39508" lon="5.80673">
        <ele>1329</ele>
        <time>2012-07-21T04:40:03.1Z</time>
      </trkpt>
      <trkpt lat="45.39508" lon="5.80675">
        <ele>1329</ele>
        <time>2012-07-21T04:40:05.1Z</time>
      </trkpt>
      <trkpt lat="45.39509" lon="5.80676">
        <ele>1330</ele>
        <time>2012-07-21T04:40:07.1Z</time>
      </trkpt>
      <trkpt lat="45.3951" lon="5.80678">
        <ele>1330</ele>
        <time>2012-07-21T04:40:09.1Z</time>
      </trkpt>
      <trkpt lat="45.39512" lon="5.80679">
        <ele>1331</ele>
        <time>2012-07-21T04:40:11.1Z</time>
      </trkpt>
      <trkpt lat="45.39513" lon="5.80681">
        <ele>1332</ele>
        <time>2012-07-21T04:40:13.1Z</time>
      </trkpt>
      <trkpt lat="45.39514" lon="5.80682">
        <ele>1332</ele>
        <time>2012-07-21T04:40:15.1Z</time>
      </trkpt>
      <trkpt lat="45.39516" lon="5.80684">
        <ele>1333</ele>
        <time>2012-07-21T04:40:17.1Z</time>
      </trkpt>
      <trkpt lat="45.39516" lon="5.80686">
        <ele>1333</ele>
        <time>2012-07-21T04:40:19.1Z</time>
      </trkpt>
      <trkpt lat="45.39518" lon="5.80688">
        <ele>1334</ele>
        <time>2012-07-21T04:40:22.1Z</time>
      </trkpt>
      <trkpt lat="45.39519" lon="5.8069">
        <ele>1334</ele>
        <time>2012-07-21T04:40:24.1Z</time>
      </trkpt>
      <trkpt lat="45.39521" lon="5.80691">
        <ele>1335</ele>
        <time>2012-07-21T04:40:26.1Z</time>
      </trkpt>
      <trkpt lat="45.39522" lon="5.80693">
        <ele>1336</ele>
        <time>2012-07-21T04:40:28.1Z</time>
      </trkpt>
      <trkpt lat="45.39523" lon="5.80694">
        <ele>1336</ele>
        <time>2012-07-21T04:40:30.1Z</time>
      </trkpt>
      <trkpt lat="45.39525" lon="5.80695">
        <ele>1337</ele>
        <time>2012-07-21T04:40:32.1Z</time>
      </trkpt>
      <trkpt lat="45.39526" lon="5.80697">
        <ele>1337</ele>
        <time>2012-07-21T04:40:34.1Z</time>
      </trkpt>
      <trkpt lat="45.39527" lon="5.80699">
        <ele>1338</ele>
        <time>2012-07-21T04:40:36.1Z</time>
      </trkpt>
      <trkpt lat="45.39527" lon="5.80702">
        <ele>1338</ele>
        <time>2012-07-21T04:40:38.1Z</time>
      </trkpt>
      <trkpt lat="45.39526" lon="5.80704">
        <ele>1339</ele>
        <time>2012-07-21T04:40:41.1Z</time>
      </trkpt>
      <trkpt lat="45.39526" lon="5.80707">
        <ele>1340</ele>
        <time>2012-07-21T04:40:43.1Z</time>
      </trkpt>
      <trkpt lat="45.39525" lon="5.8071">
        <ele>1340</ele>
        <time>2012-07-21T04:40:45.1Z</time>
      </trkpt>
      <trkpt lat="45.39524" lon="5.80712">
        <ele>1340</ele>
        <time>2012-07-21T04:40:47.1Z</time>
      </trkpt>
      <trkpt lat="45.39523" lon="5.80716">
        <ele>1341</ele>
        <time>2012-07-21T04:40:49.1Z</time>
      </trkpt>
      <trkpt lat="45.39521" lon="5.80719">
        <ele>1341</ele>
        <time>2012-07-21T04:40:51.1Z</time>
      </trkpt>
      <trkpt lat="45.39521" lon="5.80721">
        <ele>1341</ele>
        <time>2012-07-21T04:40:53.1Z</time>
      </trkpt>
      <trkpt lat="45.3952" lon="5.80724">
        <ele>1342</ele>
        <time>2012-07-21T04:40:55.1Z</time>
      </trkpt>
      <trkpt lat="45.39519" lon="5.80726">
        <ele>1342</ele>
        <time>2012-07-21T04:40:57.1Z</time>
      </trkpt>
      <trkpt lat="45.39518" lon="5.80728">
        <ele>1342</ele>
        <time>2012-07-21T04:40:59.1Z</time>
      </trkpt>
      <trkpt lat="45.39516" lon="5.80729">
        <ele>1343</ele>
        <time>2012-07-21T04:41:01.1Z</time>
      </trkpt>
      <trkpt lat="45.39516" lon="5.80732">
        <ele>1344</ele>
        <time>2012-07-21T04:41:03.1Z</time>
      </trkpt>
      <trkpt lat="45.39515" lon="5.80734">
        <ele>1344</ele>
        <time>2012-07-21T04:41:05.1Z</time>
      </trkpt>
      <trkpt lat="45.39513" lon="5.80737">
        <ele>1344</ele>
        <time>2012-07-21T04:41:07.1Z</time>
      </trkpt>
      <trkpt lat="45.39512" lon="5.80739">
        <ele>1345</ele>
        <time>2012-07-21T04:41:09.1Z</time>
      </trkpt>
      <trkpt lat="45.39512" lon="5.80742">
        <ele>1345</ele>
        <time>2012-07-21T04:41:11.1Z</time>
      </trkpt>
      <trkpt lat="45.39511" lon="5.80745">
        <ele>1346</ele>
        <time>2012-07-21T04:41:13.1Z</time>
      </trkpt>
      <trkpt lat="45.39512" lon="5.80747">
        <ele>1346</ele>
        <time>2012-07-21T04:41:16.1Z</time>
      </trkpt>
      <trkpt lat="45.39511" lon="5.80751">
        <ele>1347</ele>
        <time>2012-07-21T04:41:18.1Z</time>
      </trkpt>
      <trkpt lat="45.3951" lon="5.80752">
        <ele>1347</ele>
        <time>2012-07-21T04:41:20.1Z</time>
      </trkpt>
      <trkpt lat="45.3951" lon="5.80754">
        <ele>1347</ele>
        <time>2012-07-21T04:41:22.1Z</time>
      </trkpt>
      <trkpt lat="45.3951" lon="5.80757">
        <ele>1348</ele>
        <time>2012-07-21T04:41:24.1Z</time>
      </trkpt>
      <trkpt lat="45.39509" lon="5.80759">
        <ele>1348</ele>
        <time>2012-07-21T04:41:26.1Z</time>
      </trkpt>
      <trkpt lat="45.39508" lon="5.80761">
        <ele>1349</ele>
        <time>2012-07-21T04:41:28.1Z</time>
      </trkpt>
      <trkpt lat="45.39507" lon="5.80764">
        <ele>1349</ele>
        <time>2012-07-21T04:41:30.1Z</time>
      </trkpt>
      <trkpt lat="45.39506" lon="5.80765">
        <ele>1349</ele>
        <time>2012-07-21T04:41:32.1Z</time>
      </trkpt>
      <trkpt lat="45.39505" lon="5.80767">
        <ele>1350</ele>
        <time>2012-07-21T04:41:34.1Z</time>
      </trkpt>
      <trkpt lat="45.39504" lon="5.80768">
        <ele>1350</ele>
        <time>2012-07-21T04:41:36.1Z</time>
      </trkpt>
      <trkpt lat="45.39504" lon="5.8077">
        <ele>1350</ele>
        <time>2012-07-21T04:41:38.1Z</time>
      </trkpt>
      <trkpt lat="45.39504" lon="5.80772">
        <ele>1351</ele>
        <time>2012-07-21T04:41:40.1Z</time>
      </trkpt>
      <trkpt lat="45.39504" lon="5.80773">
        <ele>1351</ele>
        <time>2012-07-21T04:41:42.1Z</time>
      </trkpt>
      <trkpt lat="45.39504" lon="5.80776">
        <ele>1351</ele>
        <time>2012-07-21T04:41:44.1Z</time>
      </trkpt>
      <trkpt lat="45.39504" lon="5.80778">
        <ele>1351</ele>
        <time>2012-07-21T04:41:46.1Z</time>
      </trkpt>
      <trkpt lat="45.39503" lon="5.8078">
        <ele>1351</ele>
        <time>2012-07-21T04:41:49.1Z</time>
      </trkpt>
      <trkpt lat="45.39501" lon="5.80782">
        <ele>1351</ele>
        <time>2012-07-21T04:41:51.1Z</time>
      </trkpt>
      <trkpt lat="45.395" lon="5.80783">
        <ele>1352</ele>
        <time>2012-07-21T04:41:53.1Z</time>
      </trkpt>
      <trkpt lat="45.395" lon="5.80786">
        <ele>1352</ele>
        <time>2012-07-21T04:41:55.1Z</time>
      </trkpt>
      <trkpt lat="45.395" lon="5.80787">
        <ele>1353</ele>
        <time>2012-07-21T04:41:57.1Z</time>
      </trkpt>
      <trkpt lat="45.395" lon="5.80789">
        <ele>1353</ele>
        <time>2012-07-21T04:41:59.1Z</time>
      </trkpt>
      <trkpt lat="45.395" lon="5.80791">
        <ele>1354</ele>
        <time>2012-07-21T04:42:01.1Z</time>
      </trkpt>
      <trkpt lat="45.395" lon="5.80794">
        <ele>1354</ele>
        <time>2012-07-21T04:42:03.1Z</time>
      </trkpt>
      <trkpt lat="45.39499" lon="5.80797">
        <ele>1355</ele>
        <time>2012-07-21T04:42:05.1Z</time>
      </trkpt>
      <trkpt lat="45.39499" lon="5.80798">
        <ele>1355</ele>
        <time>2012-07-21T04:42:07.1Z</time>
      </trkpt>
      <trkpt lat="45.39499" lon="5.808">
        <ele>1356</ele>
        <time>2012-07-21T04:42:09.1Z</time>
      </trkpt>
      <trkpt lat="45.39499" lon="5.80802">
        <ele>1356</ele>
        <time>2012-07-21T04:42:11.1Z</time>
      </trkpt>
      <trkpt lat="45.39499" lon="5.80805">
        <ele>1356</ele>
        <time>2012-07-21T04:42:13.1Z</time>
      </trkpt>
      <trkpt lat="45.39499" lon="5.80809">
        <ele>1356</ele>
        <time>2012-07-21T04:42:15.1Z</time>
      </trkpt>
      <trkpt lat="45.395" lon="5.80812">
        <ele>1357</ele>
        <time>2012-07-21T04:42:17.1Z</time>
      </trkpt>
      <trkpt lat="45.39499" lon="5.80814">
        <ele>1357</ele>
        <time>2012-07-21T04:42:19.1Z</time>
      </trkpt>
      <trkpt lat="45.39499" lon="5.80817">
        <ele>1357</ele>
        <time>2012-07-21T04:42:21.1Z</time>
      </trkpt>
      <trkpt lat="45.39498" lon="5.80819">
        <ele>1358</ele>
        <time>2012-07-21T04:42:24.1Z</time>
      </trkpt>
      <trkpt lat="45.39496" lon="5.80823">
        <ele>1358</ele>
        <time>2012-07-21T04:42:26.1Z</time>
      </trkpt>
      <trkpt lat="45.39495" lon="5.80828">
        <ele>1358</ele>
        <time>2012-07-21T04:42:28.1Z</time>
      </trkpt>
      <trkpt lat="45.39493" lon="5.80831">
        <ele>1358</ele>
        <time>2012-07-21T04:42:30.1Z</time>
      </trkpt>
      <trkpt lat="45.39492" lon="5.80833">
        <ele>1358</ele>
        <time>2012-07-21T04:42:32.1Z</time>
      </trkpt>
      <trkpt lat="45.39492" lon="5.80835">
        <ele>1358</ele>
        <time>2012-07-21T04:42:35.1Z</time>
      </trkpt>
      <trkpt lat="45.39491" lon="5.80835">
        <ele>1358</ele>
        <time>2012-07-21T04:42:37.1Z</time>
      </trkpt>
      <trkpt lat="45.39489" lon="5.80833">
        <ele>1359</ele>
        <time>2012-07-21T04:42:39.1Z</time>
      </trkpt>
      <trkpt lat="45.39488" lon="5.80831">
        <ele>1359</ele>
        <time>2012-07-21T04:42:41.1Z</time>
      </trkpt>
      <trkpt lat="45.39485" lon="5.8083">
        <ele>1359</ele>
        <time>2012-07-21T04:42:43.1Z</time>
      </trkpt>
      <trkpt lat="45.39482" lon="5.8083">
        <ele>1359</ele>
        <time>2012-07-21T04:42:45.1Z</time>
      </trkpt>
      <trkpt lat="45.3948" lon="5.8083">
        <ele>1359</ele>
        <time>2012-07-21T04:42:47.1Z</time>
      </trkpt>
      <trkpt lat="45.39479" lon="5.8083">
        <ele>1359</ele>
        <time>2012-07-21T04:42:49.1Z</time>
      </trkpt>
      <trkpt lat="45.39476" lon="5.8083">
        <ele>1359</ele>
        <time>2012-07-21T04:42:52.1Z</time>
      </trkpt>
      <trkpt lat="45.39473" lon="5.80831">
        <ele>1360</ele>
        <time>2012-07-21T04:42:54.1Z</time>
      </trkpt>
      <trkpt lat="45.3947" lon="5.80831">
        <ele>1360</ele>
        <time>2012-07-21T04:42:56.1Z</time>
      </trkpt>
      <trkpt lat="45.39468" lon="5.80832">
        <ele>1360</ele>
        <time>2012-07-21T04:42:58.1Z</time>
      </trkpt>
      <trkpt lat="45.39466" lon="5.80833">
        <ele>1360</ele>
        <time>2012-07-21T04:43:00.1Z</time>
      </trkpt>
      <trkpt lat="45.39465" lon="5.80834">
        <ele>1360</ele>
        <time>2012-07-21T04:43:02.1Z</time>
      </trkpt>
      <trkpt lat="45.39463" lon="5.80835">
        <ele>1361</ele>
        <time>2012-07-21T04:43:04.1Z</time>
      </trkpt>
      <trkpt lat="45.39458" lon="5.80837">
        <ele>1361</ele>
        <time>2012-07-21T04:43:06.1Z</time>
      </trkpt>
      <trkpt lat="45.39456" lon="5.80838">
        <ele>1361</ele>
        <time>2012-07-21T04:43:08.1Z</time>
      </trkpt>
      <trkpt lat="45.39454" lon="5.8084">
        <ele>1361</ele>
        <time>2012-07-21T04:43:10.1Z</time>
      </trkpt>
      <trkpt lat="45.39452" lon="5.80841">
        <ele>1362</ele>
        <time>2012-07-21T04:43:12.1Z</time>
      </trkpt>
      <trkpt lat="45.39449" lon="5.80843">
        <ele>1362</ele>
        <time>2012-07-21T04:43:14.1Z</time>
      </trkpt>
      <trkpt lat="45.39447" lon="5.80844">
        <ele>1362</ele>
        <time>2012-07-21T04:43:16.1Z</time>
      </trkpt>
      <trkpt lat="45.39444" lon="5.80846">
        <ele>1363</ele>
        <time>2012-07-21T04:43:19.1Z</time>
      </trkpt>
      <trkpt lat="45.39441" lon="5.80848">
        <ele>1363</ele>
        <time>2012-07-21T04:43:21.1Z</time>
      </trkpt>
      <trkpt lat="45.39437" lon="5.80852">
        <ele>1364</ele>
        <time>2012-07-21T04:43:23.1Z</time>
      </trkpt>
      <trkpt lat="45.39434" lon="5.80856">
        <ele>1364</ele>
        <time>2012-07-21T04:43:25.1Z</time>
      </trkpt>
      <trkpt lat="45.39431" lon="5.80862">
        <ele>1364</ele>
        <time>2012-07-21T04:43:27.1Z</time>
      </trkpt>
      <trkpt lat="45.39429" lon="5.80868">
        <ele>1364</ele>
        <time>2012-07-21T04:43:29.1Z</time>
      </trkpt>
      <trkpt lat="45.39426" lon="5.80872">
        <ele>1364</ele>
        <time>2012-07-21T04:43:31.1Z</time>
      </trkpt>
      <trkpt lat="45.39423" lon="5.80875">
        <ele>1365</ele>
        <time>2012-07-21T04:43:33.1Z</time>
      </trkpt>
      <trkpt lat="45.3942" lon="5.80877">
        <ele>1365</ele>
        <time>2012-07-21T04:43:36.1Z</time>
      </trkpt>
      <trkpt lat="45.39417" lon="5.80878">
        <ele>1366</ele>
        <time>2012-07-21T04:43:38.1Z</time>
      </trkpt>
      <trkpt lat="45.39415" lon="5.8088">
        <ele>1366</ele>
        <time>2012-07-21T04:43:40.1Z</time>
      </trkpt>
      <trkpt lat="45.39413" lon="5.80882">
        <ele>1367</ele>
        <time>2012-07-21T04:43:42.1Z</time>
      </trkpt>
      <trkpt lat="45.3941" lon="5.80882">
        <ele>1368</ele>
        <time>2012-07-21T04:43:44.1Z</time>
      </trkpt>
      <trkpt lat="45.39407" lon="5.80883">
        <ele>1368</ele>
        <time>2012-07-21T04:43:46.1Z</time>
      </trkpt>
      <trkpt lat="45.39404" lon="5.80884">
        <ele>1369</ele>
        <time>2012-07-21T04:43:48.1Z</time>
      </trkpt>
      <trkpt lat="45.39401" lon="5.80887">
        <ele>1369</ele>
        <time>2012-07-21T04:43:50.1Z</time>
      </trkpt>
      <trkpt lat="45.39398" lon="5.80888">
        <ele>1370</ele>
        <time>2012-07-21T04:43:52.1Z</time>
      </trkpt>
      <trkpt lat="45.39396" lon="5.80888">
        <ele>1371</ele>
        <time>2012-07-21T04:43:54.1Z</time>
      </trkpt>
      <trkpt lat="45.39394" lon="5.80889">
        <ele>1371</ele>
        <time>2012-07-21T04:43:57.1Z</time>
      </trkpt>
      <trkpt lat="45.39393" lon="5.80891">
        <ele>1372</ele>
        <time>2012-07-21T04:43:59.1Z</time>
      </trkpt>
      <trkpt lat="45.3939" lon="5.80893">
        <ele>1372</ele>
        <time>2012-07-21T04:44:01.1Z</time>
      </trkpt>
      <trkpt lat="45.39387" lon="5.80894">
        <ele>1372</ele>
        <time>2012-07-21T04:44:03.1Z</time>
      </trkpt>
      <trkpt lat="45.39384" lon="5.80894">
        <ele>1373</ele>
        <time>2012-07-21T04:44:05.1Z</time>
      </trkpt>
      <trkpt lat="45.39381" lon="5.80894">
        <ele>1373</ele>
        <time>2012-07-21T04:44:07.1Z</time>
      </trkpt>
      <trkpt lat="45.39378" lon="5.80893">
        <ele>1374</ele>
        <time>2012-07-21T04:44:10.1Z</time>
      </trkpt>
      <trkpt lat="45.39376" lon="5.80893">
        <ele>1374</ele>
        <time>2012-07-21T04:44:12.1Z</time>
      </trkpt>
      <trkpt lat="45.39373" lon="5.80892">
        <ele>1374</ele>
        <time>2012-07-21T04:44:14.1Z</time>
      </trkpt>
      <trkpt lat="45.39371" lon="5.80893">
        <ele>1375</ele>
        <time>2012-07-21T04:44:16.1Z</time>
      </trkpt>
      <trkpt lat="45.39368" lon="5.80893">
        <ele>1375</ele>
        <time>2012-07-21T04:44:18.1Z</time>
      </trkpt>
      <trkpt lat="45.39365" lon="5.80894">
        <ele>1376</ele>
        <time>2012-07-21T04:44:20.1Z</time>
      </trkpt>
      <trkpt lat="45.39363" lon="5.80894">
        <ele>1377</ele>
        <time>2012-07-21T04:44:22.1Z</time>
      </trkpt>
      <trkpt lat="45.3936" lon="5.80893">
        <ele>1378</ele>
        <time>2012-07-21T04:44:24.1Z</time>
      </trkpt>
      <trkpt lat="45.39357" lon="5.80893">
        <ele>1378</ele>
        <time>2012-07-21T04:44:26.1Z</time>
      </trkpt>
      <trkpt lat="45.39355" lon="5.80893">
        <ele>1378</ele>
        <time>2012-07-21T04:44:28.1Z</time>
      </trkpt>
      <trkpt lat="45.39353" lon="5.80892">
        <ele>1379</ele>
        <time>2012-07-21T04:44:30.1Z</time>
      </trkpt>
      <trkpt lat="45.39351" lon="5.80891">
        <ele>1380</ele>
        <time>2012-07-21T04:44:32.1Z</time>
      </trkpt>
      <trkpt lat="45.3935" lon="5.80891">
        <ele>1380</ele>
        <time>2012-07-21T04:44:34.1Z</time>
      </trkpt>
      <trkpt lat="45.39349" lon="5.80891">
        <ele>1381</ele>
        <time>2012-07-21T04:44:37.1Z</time>
      </trkpt>
      <trkpt lat="45.39346" lon="5.8089">
        <ele>1382</ele>
        <time>2012-07-21T04:44:39.1Z</time>
      </trkpt>
      <trkpt lat="45.39344" lon="5.8089">
        <ele>1382</ele>
        <time>2012-07-21T04:44:41.1Z</time>
      </trkpt>
      <trkpt lat="45.39344" lon="5.8089">
        <ele>1383</ele>
        <time>2012-07-21T04:44:43.1Z</time>
      </trkpt>
      <trkpt lat="45.39342" lon="5.8089">
        <ele>1383</ele>
        <time>2012-07-21T04:44:45.1Z</time>
      </trkpt>
      <trkpt lat="45.39339" lon="5.80889">
        <ele>1384</ele>
        <time>2012-07-21T04:44:47.1Z</time>
      </trkpt>
      <trkpt lat="45.39337" lon="5.80889">
        <ele>1384</ele>
        <time>2012-07-21T04:44:49.1Z</time>
      </trkpt>
      <trkpt lat="45.39336" lon="5.80888">
        <ele>1384</ele>
        <time>2012-07-21T04:44:51.1Z</time>
      </trkpt>
      <trkpt lat="45.39334" lon="5.80888">
        <ele>1385</ele>
        <time>2012-07-21T04:44:53.1Z</time>
      </trkpt>
      <trkpt lat="45.39332" lon="5.80888">
        <ele>1386</ele>
        <time>2012-07-21T04:44:55.1Z</time>
      </trkpt>
      <trkpt lat="45.3933" lon="5.80888">
        <ele>1386</ele>
        <time>2012-07-21T04:44:57.1Z</time>
      </trkpt>
      <trkpt lat="45.39326" lon="5.80887">
        <ele>1387</ele>
        <time>2012-07-21T04:44:59.1Z</time>
      </trkpt>
      <trkpt lat="45.39324" lon="5.80887">
        <ele>1388</ele>
        <time>2012-07-21T04:45:01.1Z</time>
      </trkpt>
      <trkpt lat="45.39323" lon="5.80888">
        <ele>1388</ele>
        <time>2012-07-21T04:45:03.1Z</time>
      </trkpt>
      <trkpt lat="45.39321" lon="5.80889">
        <ele>1388</ele>
        <time>2012-07-21T04:45:05.1Z</time>
      </trkpt>
      <trkpt lat="45.39319" lon="5.8089">
        <ele>1388</ele>
        <time>2012-07-21T04:45:08.1Z</time>
      </trkpt>
      <trkpt lat="45.39316" lon="5.80892">
        <ele>1388</ele>
        <time>2012-07-21T04:45:10.1Z</time>
      </trkpt>
      <trkpt lat="45.39313" lon="5.80895">
        <ele>1389</ele>
        <time>2012-07-21T04:45:12.1Z</time>
      </trkpt>
      <trkpt lat="45.39309" lon="5.80896">
        <ele>1389</ele>
        <time>2012-07-21T04:45:14.1Z</time>
      </trkpt>
      <trkpt lat="45.39308" lon="5.80897">
        <ele>1389</ele>
        <time>2012-07-21T04:45:16.1Z</time>
      </trkpt>
      <trkpt lat="45.39306" lon="5.80898">
        <ele>1390</ele>
        <time>2012-07-21T04:45:18.1Z</time>
      </trkpt>
      <trkpt lat="45.39303" lon="5.80898">
        <ele>1390</ele>
        <time>2012-07-21T04:45:20.1Z</time>
      </trkpt>
      <trkpt lat="45.39302" lon="5.809">
        <ele>1391</ele>
        <time>2012-07-21T04:45:22.1Z</time>
      </trkpt>
      <trkpt lat="45.393" lon="5.80902">
        <ele>1391</ele>
        <time>2012-07-21T04:45:25.1Z</time>
      </trkpt>
      <trkpt lat="45.39298" lon="5.80904">
        <ele>1391</ele>
        <time>2012-07-21T04:45:27.1Z</time>
      </trkpt>
      <trkpt lat="45.39297" lon="5.80903">
        <ele>1392</ele>
        <time>2012-07-21T04:45:29.1Z</time>
      </trkpt>
      <trkpt lat="45.39296" lon="5.80902">
        <ele>1392</ele>
        <time>2012-07-21T04:45:31.1Z</time>
      </trkpt>
      <trkpt lat="45.39295" lon="5.809">
        <ele>1393</ele>
        <time>2012-07-21T04:45:33.1Z</time>
      </trkpt>
      <trkpt lat="45.39295" lon="5.80899">
        <ele>1393</ele>
        <time>2012-07-21T04:45:35.1Z</time>
      </trkpt>
      <trkpt lat="45.39294" lon="5.80897">
        <ele>1394</ele>
        <time>2012-07-21T04:45:37.1Z</time>
      </trkpt>
      <trkpt lat="45.39292" lon="5.80894">
        <ele>1394</ele>
        <time>2012-07-21T04:45:39.1Z</time>
      </trkpt>
      <trkpt lat="45.39291" lon="5.80892">
        <ele>1395</ele>
        <time>2012-07-21T04:45:41.1Z</time>
      </trkpt>
      <trkpt lat="45.3929" lon="5.80889">
        <ele>1395</ele>
        <time>2012-07-21T04:45:43.1Z</time>
      </trkpt>
      <trkpt lat="45.39287" lon="5.80888">
        <ele>1395</ele>
        <time>2012-07-21T04:45:45.1Z</time>
      </trkpt>
      <trkpt lat="45.39287" lon="5.80886">
        <ele>1396</ele>
        <time>2012-07-21T04:45:47.1Z</time>
      </trkpt>
      <trkpt lat="45.39286" lon="5.80882">
        <ele>1396</ele>
        <time>2012-07-21T04:45:49.1Z</time>
      </trkpt>
      <trkpt lat="45.39286" lon="5.80879">
        <ele>1397</ele>
        <time>2012-07-21T04:45:52.1Z</time>
      </trkpt>
      <trkpt lat="45.39287" lon="5.80876">
        <ele>1398</ele>
        <time>2012-07-21T04:45:54.1Z</time>
      </trkpt>
      <trkpt lat="45.39286" lon="5.80871">
        <ele>1398</ele>
        <time>2012-07-21T04:45:56.1Z</time>
      </trkpt>
      <trkpt lat="45.39285" lon="5.80869">
        <ele>1399</ele>
        <time>2012-07-21T04:45:58.1Z</time>
      </trkpt>
      <trkpt lat="45.39283" lon="5.80867">
        <ele>1400</ele>
        <time>2012-07-21T04:46:00.1Z</time>
      </trkpt>
      <trkpt lat="45.39283" lon="5.80867">
        <ele>1400</ele>
        <time>2012-07-21T04:46:02.1Z</time>
      </trkpt>
      <trkpt lat="45.3928" lon="5.80868">
        <ele>1401</ele>
        <time>2012-07-21T04:46:05.1Z</time>
      </trkpt>
      <trkpt lat="45.39278" lon="5.80869">
        <ele>1401</ele>
        <time>2012-07-21T04:46:07.1Z</time>
      </trkpt>
      <trkpt lat="45.39277" lon="5.8087">
        <ele>1402</ele>
        <time>2012-07-21T04:46:09.1Z</time>
      </trkpt>
      <trkpt lat="45.39274" lon="5.80873">
        <ele>1402</ele>
        <time>2012-07-21T04:46:11.1Z</time>
      </trkpt>
      <trkpt lat="45.39273" lon="5.80874">
        <ele>1402</ele>
        <time>2012-07-21T04:46:13.1Z</time>
      </trkpt>
      <trkpt lat="45.39272" lon="5.80877">
        <ele>1403</ele>
        <time>2012-07-21T04:46:15.1Z</time>
      </trkpt>
      <trkpt lat="45.39272" lon="5.80879">
        <ele>1403</ele>
        <time>2012-07-21T04:46:17.1Z</time>
      </trkpt>
      <trkpt lat="45.39271" lon="5.80882">
        <ele>1403</ele>
        <time>2012-07-21T04:46:19.1Z</time>
      </trkpt>
      <trkpt lat="45.39271" lon="5.80883">
        <ele>1404</ele>
        <time>2012-07-21T04:46:21.1Z</time>
      </trkpt>
      <trkpt lat="45.39269" lon="5.80887">
        <ele>1404</ele>
        <time>2012-07-21T04:46:23.1Z</time>
      </trkpt>
      <trkpt lat="45.39268" lon="5.8089">
        <ele>1404</ele>
        <time>2012-07-21T04:46:25.1Z</time>
      </trkpt>
      <trkpt lat="45.39267" lon="5.80896">
        <ele>1405</ele>
        <time>2012-07-21T04:46:27.1Z</time>
      </trkpt>
      <trkpt lat="45.39266" lon="5.80899">
        <ele>1405</ele>
        <time>2012-07-21T04:46:29.1Z</time>
      </trkpt>
      <trkpt lat="45.39265" lon="5.80902">
        <ele>1405</ele>
        <time>2012-07-21T04:46:31.1Z</time>
      </trkpt>
      <trkpt lat="45.39261" lon="5.80901">
        <ele>1406</ele>
        <time>2012-07-21T04:46:33.1Z</time>
      </trkpt>
      <trkpt lat="45.39257" lon="5.809">
        <ele>1406</ele>
        <time>2012-07-21T04:46:36.1Z</time>
      </trkpt>
      <trkpt lat="45.39255" lon="5.80902">
        <ele>1407</ele>
        <time>2012-07-21T04:46:38.1Z</time>
      </trkpt>
      <trkpt lat="45.39254" lon="5.80905">
        <ele>1407</ele>
        <time>2012-07-21T04:46:40.1Z</time>
      </trkpt>
      <trkpt lat="45.39254" lon="5.80908">
        <ele>1407</ele>
        <time>2012-07-21T04:46:42.1Z</time>
      </trkpt>
      <trkpt lat="45.39252" lon="5.80912">
        <ele>1407</ele>
        <time>2012-07-21T04:46:44.1Z</time>
      </trkpt>
      <trkpt lat="45.3925" lon="5.80914">
        <ele>1407</ele>
        <time>2012-07-21T04:46:46.1Z</time>
      </trkpt>
      <trkpt lat="45.39249" lon="5.80917">
        <ele>1408</ele>
        <time>2012-07-21T04:46:48.1Z</time>
      </trkpt>
      <trkpt lat="45.39248" lon="5.8092">
        <ele>1408</ele>
        <time>2012-07-21T04:46:50.1Z</time>
      </trkpt>
      <trkpt lat="45.39248" lon="5.80922">
        <ele>1409</ele>
        <time>2012-07-21T04:46:53.1Z</time>
      </trkpt>
      <trkpt lat="45.39247" lon="5.80924">
        <ele>1409</ele>
        <time>2012-07-21T04:46:55.1Z</time>
      </trkpt>
      <trkpt lat="45.39246" lon="5.80927">
        <ele>1410</ele>
        <time>2012-07-21T04:46:57.1Z</time>
      </trkpt>
      <trkpt lat="45.39244" lon="5.8093">
        <ele>1410</ele>
        <time>2012-07-21T04:46:59.1Z</time>
      </trkpt>
      <trkpt lat="45.39243" lon="5.80931">
        <ele>1410</ele>
        <time>2012-07-21T04:47:01.1Z</time>
      </trkpt>
      <trkpt lat="45.39242" lon="5.80934">
        <ele>1410</ele>
        <time>2012-07-21T04:47:03.1Z</time>
      </trkpt>
      <trkpt lat="45.39241" lon="5.80937">
        <ele>1410</ele>
        <time>2012-07-21T04:47:05.1Z</time>
      </trkpt>
      <trkpt lat="45.39239" lon="5.80939">
        <ele>1411</ele>
        <time>2012-07-21T04:47:07.1Z</time>
      </trkpt>
      <trkpt lat="45.39237" lon="5.80943">
        <ele>1411</ele>
        <time>2012-07-21T04:47:10.1Z</time>
      </trkpt>
      <trkpt lat="45.39236" lon="5.80945">
        <ele>1412</ele>
        <time>2012-07-21T04:47:12.1Z</time>
      </trkpt>
      <trkpt lat="45.39234" lon="5.80948">
        <ele>1412</ele>
        <time>2012-07-21T04:47:14.1Z</time>
      </trkpt>
      <trkpt lat="45.39233" lon="5.80947">
        <ele>1412</ele>
        <time>2012-07-21T04:47:16.1Z</time>
      </trkpt>
      <trkpt lat="45.39233" lon="5.80944">
        <ele>1413</ele>
        <time>2012-07-21T04:47:18.1Z</time>
      </trkpt>
      <trkpt lat="45.39232" lon="5.8094">
        <ele>1413</ele>
        <time>2012-07-21T04:47:20.1Z</time>
      </trkpt>
      <trkpt lat="45.39231" lon="5.80937">
        <ele>1413</ele>
        <time>2012-07-21T04:47:22.1Z</time>
      </trkpt>
      <trkpt lat="45.39231" lon="5.80934">
        <ele>1414</ele>
        <time>2012-07-21T04:47:24.1Z</time>
      </trkpt>
      <trkpt lat="45.3923" lon="5.80931">
        <ele>1414</ele>
        <time>2012-07-21T04:47:26.1Z</time>
      </trkpt>
      <trkpt lat="45.3923" lon="5.80928">
        <ele>1415</ele>
        <time>2012-07-21T04:47:28.1Z</time>
      </trkpt>
      <trkpt lat="45.3923" lon="5.80925">
        <ele>1415</ele>
        <time>2012-07-21T04:47:30.1Z</time>
      </trkpt>
      <trkpt lat="45.39229" lon="5.80922">
        <ele>1416</ele>
        <time>2012-07-21T04:47:32.1Z</time>
      </trkpt>
      <trkpt lat="45.39229" lon="5.80919">
        <ele>1416</ele>
        <time>2012-07-21T04:47:35.1Z</time>
      </trkpt>
      <trkpt lat="45.39228" lon="5.80915">
        <ele>1417</ele>
        <time>2012-07-21T04:47:37.1Z</time>
      </trkpt>
      <trkpt lat="45.39228" lon="5.80912">
        <ele>1417</ele>
        <time>2012-07-21T04:47:39.1Z</time>
      </trkpt>
      <trkpt lat="45.39228" lon="5.80909">
        <ele>1417</ele>
        <time>2012-07-21T04:47:41.1Z</time>
      </trkpt>
      <trkpt lat="45.39228" lon="5.80905">
        <ele>1418</ele>
        <time>2012-07-21T04:47:43.1Z</time>
      </trkpt>
      <trkpt lat="45.39228" lon="5.80901">
        <ele>1418</ele>
        <time>2012-07-21T04:47:45.1Z</time>
      </trkpt>
      <trkpt lat="45.39228" lon="5.80898">
        <ele>1418</ele>
        <time>2012-07-21T04:47:47.1Z</time>
      </trkpt>
      <trkpt lat="45.3923" lon="5.80896">
        <ele>1418</ele>
        <time>2012-07-21T04:47:49.1Z</time>
      </trkpt>
      <trkpt lat="45.3923" lon="5.80893">
        <ele>1419</ele>
        <time>2012-07-21T04:47:51.1Z</time>
      </trkpt>
      <trkpt lat="45.39232" lon="5.8089">
        <ele>1419</ele>
        <time>2012-07-21T04:47:53.1Z</time>
      </trkpt>
      <trkpt lat="45.39233" lon="5.80887">
        <ele>1420</ele>
        <time>2012-07-21T04:47:55.1Z</time>
      </trkpt>
      <trkpt lat="45.39234" lon="5.80882">
        <ele>1420</ele>
        <time>2012-07-21T04:47:57.1Z</time>
      </trkpt>
      <trkpt lat="45.39236" lon="5.80878">
        <ele>1421</ele>
        <time>2012-07-21T04:47:59.1Z</time>
      </trkpt>
      <trkpt lat="45.39237" lon="5.80875">
        <ele>1422</ele>
        <time>2012-07-21T04:48:02.1Z</time>
      </trkpt>
      <trkpt lat="45.39238" lon="5.80872">
        <ele>1422</ele>
        <time>2012-07-21T04:48:04.1Z</time>
      </trkpt>
      <trkpt lat="45.39239" lon="5.8087">
        <ele>1423</ele>
        <time>2012-07-21T04:48:06.1Z</time>
      </trkpt>
      <trkpt lat="45.39238" lon="5.80865">
        <ele>1423</ele>
        <time>2012-07-21T04:48:08.1Z</time>
      </trkpt>
      <trkpt lat="45.39238" lon="5.80863">
        <ele>1423</ele>
        <time>2012-07-21T04:48:10.1Z</time>
      </trkpt>
      <trkpt lat="45.39237" lon="5.8086">
        <ele>1423</ele>
        <time>2012-07-21T04:48:12.1Z</time>
      </trkpt>
      <trkpt lat="45.39236" lon="5.80857">
        <ele>1424</ele>
        <time>2012-07-21T04:48:14.1Z</time>
      </trkpt>
      <trkpt lat="45.39235" lon="5.80854">
        <ele>1424</ele>
        <time>2012-07-21T04:48:16.1Z</time>
      </trkpt>
      <trkpt lat="45.39235" lon="5.80851">
        <ele>1424</ele>
        <time>2012-07-21T04:48:19.1Z</time>
      </trkpt>
      <trkpt lat="45.39235" lon="5.80848">
        <ele>1425</ele>
        <time>2012-07-21T04:48:21.1Z</time>
      </trkpt>
      <trkpt lat="45.39234" lon="5.80844">
        <ele>1425</ele>
        <time>2012-07-21T04:48:23.1Z</time>
      </trkpt>
      <trkpt lat="45.39233" lon="5.80841">
        <ele>1425</ele>
        <time>2012-07-21T04:48:25.1Z</time>
      </trkpt>
      <trkpt lat="45.39231" lon="5.80838">
        <ele>1426</ele>
        <time>2012-07-21T04:48:27.1Z</time>
      </trkpt>
      <trkpt lat="45.39231" lon="5.80835">
        <ele>1426</ele>
        <time>2012-07-21T04:48:30.1Z</time>
      </trkpt>
      <trkpt lat="45.3923" lon="5.80833">
        <ele>1426</ele>
        <time>2012-07-21T04:48:32.1Z</time>
      </trkpt>
      <trkpt lat="45.39228" lon="5.80832">
        <ele>1427</ele>
        <time>2012-07-21T04:48:34.1Z</time>
      </trkpt>
      <trkpt lat="45.39228" lon="5.80834">
        <ele>1427</ele>
        <time>2012-07-21T04:48:36.1Z</time>
      </trkpt>
      <trkpt lat="45.3923" lon="5.80837">
        <ele>1428</ele>
        <time>2012-07-21T04:48:38.1Z</time>
      </trkpt>
      <trkpt lat="45.39231" lon="5.80839">
        <ele>1428</ele>
        <time>2012-07-21T04:48:40.1Z</time>
      </trkpt>
      <trkpt lat="45.39231" lon="5.80842">
        <ele>1429</ele>
        <time>2012-07-21T04:48:42.1Z</time>
      </trkpt>
      <trkpt lat="45.3923" lon="5.80845">
        <ele>1429</ele>
        <time>2012-07-21T04:48:44.1Z</time>
      </trkpt>
      <trkpt lat="45.3923" lon="5.80848">
        <ele>1429</ele>
        <time>2012-07-21T04:48:46.1Z</time>
      </trkpt>
      <trkpt lat="45.39229" lon="5.8085">
        <ele>1430</ele>
        <time>2012-07-21T04:48:48.1Z</time>
      </trkpt>
      <trkpt lat="45.39228" lon="5.80852">
        <ele>1430</ele>
        <time>2012-07-21T04:48:50.1Z</time>
      </trkpt>
      <trkpt lat="45.39227" lon="5.80854">
        <ele>1431</ele>
        <time>2012-07-21T04:48:52.1Z</time>
      </trkpt>
      <trkpt lat="45.39226" lon="5.80856">
        <ele>1431</ele>
        <time>2012-07-21T04:48:54.1Z</time>
      </trkpt>
      <trkpt lat="45.39226" lon="5.8086">
        <ele>1431</ele>
        <time>2012-07-21T04:48:56.1Z</time>
      </trkpt>
      <trkpt lat="45.39226" lon="5.80863">
        <ele>1432</ele>
        <time>2012-07-21T04:48:59.1Z</time>
      </trkpt>
      <trkpt lat="45.39223" lon="5.80867">
        <ele>1432</ele>
        <time>2012-07-21T04:49:01.1Z</time>
      </trkpt>
      <trkpt lat="45.39221" lon="5.8087">
        <ele>1432</ele>
        <time>2012-07-21T04:49:03.1Z</time>
      </trkpt>
      <trkpt lat="45.39219" lon="5.80874">
        <ele>1433</ele>
        <time>2012-07-21T04:49:05.1Z</time>
      </trkpt>
      <trkpt lat="45.39217" lon="5.80876">
        <ele>1433</ele>
        <time>2012-07-21T04:49:07.1Z</time>
      </trkpt>
      <trkpt lat="45.39217" lon="5.80879">
        <ele>1433</ele>
        <time>2012-07-21T04:49:09.1Z</time>
      </trkpt>
      <trkpt lat="45.39216" lon="5.80882">
        <ele>1434</ele>
        <time>2012-07-21T04:49:12.1Z</time>
      </trkpt>
      <trkpt lat="45.39215" lon="5.80886">
        <ele>1434</ele>
        <time>2012-07-21T04:49:14.1Z</time>
      </trkpt>
      <trkpt lat="45.39214" lon="5.8089">
        <ele>1434</ele>
        <time>2012-07-21T04:49:16.1Z</time>
      </trkpt>
      <trkpt lat="45.39213" lon="5.80895">
        <ele>1435</ele>
        <time>2012-07-21T04:49:18.1Z</time>
      </trkpt>
      <trkpt lat="45.39212" lon="5.80898">
        <ele>1435</ele>
        <time>2012-07-21T04:49:20.1Z</time>
      </trkpt>
      <trkpt lat="45.39211" lon="5.80902">
        <ele>1435</ele>
        <time>2012-07-21T04:49:22.1Z</time>
      </trkpt>
      <trkpt lat="45.39211" lon="5.80905">
        <ele>1436</ele>
        <time>2012-07-21T04:49:24.1Z</time>
      </trkpt>
      <trkpt lat="45.3921" lon="5.8091">
        <ele>1436</ele>
        <time>2012-07-21T04:49:26.1Z</time>
      </trkpt>
      <trkpt lat="45.39209" lon="5.80913">
        <ele>1436</ele>
        <time>2012-07-21T04:49:28.1Z</time>
      </trkpt>
      <trkpt lat="45.39209" lon="5.80915">
        <ele>1437</ele>
        <time>2012-07-21T04:49:31.1Z</time>
      </trkpt>
      <trkpt lat="45.39207" lon="5.80918">
        <ele>1437</ele>
        <time>2012-07-21T04:49:33.1Z</time>
      </trkpt>
      <trkpt lat="45.39206" lon="5.80921">
        <ele>1438</ele>
        <time>2012-07-21T04:49:35.1Z</time>
      </trkpt>
      <trkpt lat="45.39204" lon="5.80922">
        <ele>1439</ele>
        <time>2012-07-21T04:49:37.1Z</time>
      </trkpt>
      <trkpt lat="45.39201" lon="5.80927">
        <ele>1439</ele>
        <time>2012-07-21T04:49:39.1Z</time>
      </trkpt>
      <trkpt lat="45.392" lon="5.8093">
        <ele>1440</ele>
        <time>2012-07-21T04:49:41.1Z</time>
      </trkpt>
      <trkpt lat="45.39198" lon="5.80933">
        <ele>1440</ele>
        <time>2012-07-21T04:49:43.1Z</time>
      </trkpt>
      <trkpt lat="45.39195" lon="5.80935">
        <ele>1440</ele>
        <time>2012-07-21T04:49:45.1Z</time>
      </trkpt>
      <trkpt lat="45.39193" lon="5.80936">
        <ele>1440</ele>
        <time>2012-07-21T04:49:47.1Z</time>
      </trkpt>
      <trkpt lat="45.39191" lon="5.80936">
        <ele>1441</ele>
        <time>2012-07-21T04:49:49.1Z</time>
      </trkpt>
      <trkpt lat="45.39189" lon="5.80937">
        <ele>1441</ele>
        <time>2012-07-21T04:49:51.1Z</time>
      </trkpt>
      <trkpt lat="45.39187" lon="5.80938">
        <ele>1442</ele>
        <time>2012-07-21T04:49:53.1Z</time>
      </trkpt>
      <trkpt lat="45.39185" lon="5.80937">
        <ele>1442</ele>
        <time>2012-07-21T04:49:55.1Z</time>
      </trkpt>
      <trkpt lat="45.39185" lon="5.80935">
        <ele>1442</ele>
        <time>2012-07-21T04:49:57.1Z</time>
      </trkpt>
      <trkpt lat="45.39183" lon="5.80932">
        <ele>1443</ele>
        <time>2012-07-21T04:49:59.1Z</time>
      </trkpt>
      <trkpt lat="45.39182" lon="5.80929">
        <ele>1443</ele>
        <time>2012-07-21T04:50:01.1Z</time>
      </trkpt>
      <trkpt lat="45.3918" lon="5.80924">
        <ele>1444</ele>
        <time>2012-07-21T04:50:03.1Z</time>
      </trkpt>
      <trkpt lat="45.39178" lon="5.8092">
        <ele>1444</ele>
        <time>2012-07-21T04:50:05.1Z</time>
      </trkpt>
      <trkpt lat="45.39177" lon="5.80917">
        <ele>1445</ele>
        <time>2012-07-21T04:50:08.1Z</time>
      </trkpt>
      <trkpt lat="45.39176" lon="5.80914">
        <ele>1445</ele>
        <time>2012-07-21T04:50:10.1Z</time>
      </trkpt>
      <trkpt lat="45.39175" lon="5.80912">
        <ele>1446</ele>
        <time>2012-07-21T04:50:12.1Z</time>
      </trkpt>
      <trkpt lat="45.39175" lon="5.80909">
        <ele>1447</ele>
        <time>2012-07-21T04:50:14.1Z</time>
      </trkpt>
      <trkpt lat="45.39175" lon="5.80905">
        <ele>1447</ele>
        <time>2012-07-21T04:50:16.1Z</time>
      </trkpt>
      <trkpt lat="45.39172" lon="5.80899">
        <ele>1448</ele>
        <time>2012-07-21T04:50:18.1Z</time>
      </trkpt>
      <trkpt lat="45.3917" lon="5.80897">
        <ele>1448</ele>
        <time>2012-07-21T04:50:20.1Z</time>
      </trkpt>
      <trkpt lat="45.39168" lon="5.80895">
        <ele>1448</ele>
        <time>2012-07-21T04:50:22.1Z</time>
      </trkpt>
      <trkpt lat="45.39166" lon="5.80892">
        <ele>1449</ele>
        <time>2012-07-21T04:50:24.1Z</time>
      </trkpt>
      <trkpt lat="45.39164" lon="5.80889">
        <ele>1450</ele>
        <time>2012-07-21T04:50:26.1Z</time>
      </trkpt>
      <trkpt lat="45.39162" lon="5.80887">
        <ele>1450</ele>
        <time>2012-07-21T04:50:28.1Z</time>
      </trkpt>
      <trkpt lat="45.3916" lon="5.80884">
        <ele>1450</ele>
        <time>2012-07-21T04:50:30.1Z</time>
      </trkpt>
      <trkpt lat="45.39159" lon="5.80882">
        <ele>1451</ele>
        <time>2012-07-21T04:50:32.1Z</time>
      </trkpt>
      <trkpt lat="45.39159" lon="5.8088">
        <ele>1451</ele>
        <time>2012-07-21T04:50:34.1Z</time>
      </trkpt>
      <trkpt lat="45.39157" lon="5.80877">
        <ele>1452</ele>
        <time>2012-07-21T04:50:37.1Z</time>
      </trkpt>
      <trkpt lat="45.39155" lon="5.80874">
        <ele>1453</ele>
        <time>2012-07-21T04:50:39.1Z</time>
      </trkpt>
      <trkpt lat="45.39153" lon="5.80873">
        <ele>1454</ele>
        <time>2012-07-21T04:50:41.1Z</time>
      </trkpt>
      <trkpt lat="45.39152" lon="5.80871">
        <ele>1454</ele>
        <time>2012-07-21T04:50:43.1Z</time>
      </trkpt>
      <trkpt lat="45.3915" lon="5.8087">
        <ele>1454</ele>
        <time>2012-07-21T04:50:45.1Z</time>
      </trkpt>
      <trkpt lat="45.39148" lon="5.80869">
        <ele>1454</ele>
        <time>2012-07-21T04:50:47.1Z</time>
      </trkpt>
      <trkpt lat="45.39147" lon="5.80868">
        <ele>1455</ele>
        <time>2012-07-21T04:50:49.1Z</time>
      </trkpt>
      <trkpt lat="45.39145" lon="5.80867">
        <ele>1455</ele>
        <time>2012-07-21T04:50:51.1Z</time>
      </trkpt>
      <trkpt lat="45.39141" lon="5.80865">
        <ele>1456</ele>
        <time>2012-07-21T04:50:53.1Z</time>
      </trkpt>
      <trkpt lat="45.39138" lon="5.80863">
        <ele>1457</ele>
        <time>2012-07-21T04:50:55.1Z</time>
      </trkpt>
      <trkpt lat="45.39136" lon="5.8086">
        <ele>1457</ele>
        <time>2012-07-21T04:50:57.1Z</time>
      </trkpt>
      <trkpt lat="45.39134" lon="5.80857">
        <ele>1457</ele>
        <time>2012-07-21T04:50:59.1Z</time>
      </trkpt>
      <trkpt lat="45.39133" lon="5.80854">
        <ele>1457</ele>
        <time>2012-07-21T04:51:01.1Z</time>
      </trkpt>
      <trkpt lat="45.39133" lon="5.80852">
        <ele>1457</ele>
        <time>2012-07-21T04:51:04.1Z</time>
      </trkpt>
      <trkpt lat="45.3913" lon="5.8085">
        <ele>1457</ele>
        <time>2012-07-21T04:51:06.1Z</time>
      </trkpt>
      <trkpt lat="45.39127" lon="5.80846">
        <ele>1458</ele>
        <time>2012-07-21T04:51:08.1Z</time>
      </trkpt>
      <trkpt lat="45.39126" lon="5.80843">
        <ele>1458</ele>
        <time>2012-07-21T04:51:10.1Z</time>
      </trkpt>
      <trkpt lat="45.39124" lon="5.80841">
        <ele>1454</ele>
        <time>2012-07-21T04:51:12.1Z</time>
      </trkpt>
      <trkpt lat="45.39122" lon="5.80838">
        <ele>1452</ele>
        <time>2012-07-21T04:51:14.1Z</time>
      </trkpt>
      <trkpt lat="45.3912" lon="5.80835">
        <ele>1453</ele>
        <time>2012-07-21T04:51:16.1Z</time>
      </trkpt>
      <trkpt lat="45.39118" lon="5.80833">
        <ele>1453</ele>
        <time>2012-07-21T04:51:19.1Z</time>
      </trkpt>
      <trkpt lat="45.39116" lon="5.80832">
        <ele>1458</ele>
        <time>2012-07-21T04:51:21.1Z</time>
      </trkpt>
      <trkpt lat="45.39113" lon="5.80829">
        <ele>1461</ele>
        <time>2012-07-21T04:51:23.1Z</time>
      </trkpt>
      <trkpt lat="45.39112" lon="5.80827">
        <ele>1461</ele>
        <time>2012-07-21T04:51:25.1Z</time>
      </trkpt>
      <trkpt lat="45.39112" lon="5.80825">
        <ele>1462</ele>
        <time>2012-07-21T04:51:27.1Z</time>
      </trkpt>
      <trkpt lat="45.39112" lon="5.80822">
        <ele>1462</ele>
        <time>2012-07-21T04:51:29.1Z</time>
      </trkpt>
      <trkpt lat="45.3911" lon="5.8082">
        <ele>1462</ele>
        <time>2012-07-21T04:51:32.1Z</time>
      </trkpt>
      <trkpt lat="45.39107" lon="5.8082">
        <ele>1462</ele>
        <time>2012-07-21T04:51:34.1Z</time>
      </trkpt>
      <trkpt lat="45.39105" lon="5.80821">
        <ele>1463</ele>
        <time>2012-07-21T04:51:36.1Z</time>
      </trkpt>
      <trkpt lat="45.39103" lon="5.80823">
        <ele>1464</ele>
        <time>2012-07-21T04:51:38.1Z</time>
      </trkpt>
      <trkpt lat="45.39103" lon="5.80824">
        <ele>1465</ele>
        <time>2012-07-21T04:51:40.1Z</time>
      </trkpt>
      <trkpt lat="45.39101" lon="5.80828">
        <ele>1465</ele>
        <time>2012-07-21T04:51:42.1Z</time>
      </trkpt>
      <trkpt lat="45.39099" lon="5.80829">
        <ele>1466</ele>
        <time>2012-07-21T04:51:44.1Z</time>
      </trkpt>
      <trkpt lat="45.39098" lon="5.8083">
        <ele>1466</ele>
        <time>2012-07-21T04:51:46.1Z</time>
      </trkpt>
      <trkpt lat="45.39096" lon="5.80831">
        <ele>1467</ele>
        <time>2012-07-21T04:51:48.1Z</time>
      </trkpt>
      <trkpt lat="45.39095" lon="5.80833">
        <ele>1467</ele>
        <time>2012-07-21T04:51:50.1Z</time>
      </trkpt>
      <trkpt lat="45.39093" lon="5.80835">
        <ele>1467</ele>
        <time>2012-07-21T04:51:52.1Z</time>
      </trkpt>
      <trkpt lat="45.39093" lon="5.80838">
        <ele>1467</ele>
        <time>2012-07-21T04:51:54.1Z</time>
      </trkpt>
      <trkpt lat="45.39092" lon="5.8084">
        <ele>1468</ele>
        <time>2012-07-21T04:51:57.1Z</time>
      </trkpt>
      <trkpt lat="45.39091" lon="5.80841">
        <ele>1468</ele>
        <time>2012-07-21T04:51:59.1Z</time>
      </trkpt>
      <trkpt lat="45.3909" lon="5.80842">
        <ele>1469</ele>
        <time>2012-07-21T04:52:01.1Z</time>
      </trkpt>
      <trkpt lat="45.3909" lon="5.80844">
        <ele>1469</ele>
        <time>2012-07-21T04:52:03.1Z</time>
      </trkpt>
      <trkpt lat="45.3909" lon="5.80845">
        <ele>1469</ele>
        <time>2012-07-21T04:52:05.1Z</time>
      </trkpt>
      <trkpt lat="45.39089" lon="5.80848">
        <ele>1470</ele>
        <time>2012-07-21T04:52:07.1Z</time>
      </trkpt>
      <trkpt lat="45.39088" lon="5.80851">
        <ele>1470</ele>
        <time>2012-07-21T04:52:09.1Z</time>
      </trkpt>
      <trkpt lat="45.39088" lon="5.80855">
        <ele>1470</ele>
        <time>2012-07-21T04:52:11.1Z</time>
      </trkpt>
      <trkpt lat="45.39086" lon="5.80859">
        <ele>1471</ele>
        <time>2012-07-21T04:52:13.1Z</time>
      </trkpt>
      <trkpt lat="45.39084" lon="5.80862">
        <ele>1471</ele>
        <time>2012-07-21T04:52:15.1Z</time>
      </trkpt>
      <trkpt lat="45.39083" lon="5.80864">
        <ele>1471</ele>
        <time>2012-07-21T04:52:17.1Z</time>
      </trkpt>
      <trkpt lat="45.39081" lon="5.80867">
        <ele>1471</ele>
        <time>2012-07-21T04:52:19.1Z</time>
      </trkpt>
      <trkpt lat="45.39079" lon="5.8087">
        <ele>1472</ele>
        <time>2012-07-21T04:52:21.1Z</time>
      </trkpt>
      <trkpt lat="45.39077" lon="5.80873">
        <ele>1472</ele>
        <time>2012-07-21T04:52:24.1Z</time>
      </trkpt>
      <trkpt lat="45.39075" lon="5.80874">
        <ele>1473</ele>
        <time>2012-07-21T04:52:26.1Z</time>
      </trkpt>
      <trkpt lat="45.39072" lon="5.80877">
        <ele>1474</ele>
        <time>2012-07-21T04:52:28.1Z</time>
      </trkpt>
      <trkpt lat="45.3907" lon="5.80879">
        <ele>1474</ele>
        <time>2012-07-21T04:52:30.1Z</time>
      </trkpt>
      <trkpt lat="45.39068" lon="5.80882">
        <ele>1474</ele>
        <time>2012-07-21T04:52:32.1Z</time>
      </trkpt>
      <trkpt lat="45.39066" lon="5.80883">
        <ele>1475</ele>
        <time>2012-07-21T04:52:34.1Z</time>
      </trkpt>
      <trkpt lat="45.39064" lon="5.80886">
        <ele>1475</ele>
        <time>2012-07-21T04:52:36.1Z</time>
      </trkpt>
      <trkpt lat="45.39061" lon="5.80887">
        <ele>1475</ele>
        <time>2012-07-21T04:52:38.1Z</time>
      </trkpt>
      <trkpt lat="45.39058" lon="5.80889">
        <ele>1476</ele>
        <time>2012-07-21T04:52:40.1Z</time>
      </trkpt>
      <trkpt lat="45.39056" lon="5.80892">
        <ele>1476</ele>
        <time>2012-07-21T04:52:42.1Z</time>
      </trkpt>
      <trkpt lat="45.39054" lon="5.80896">
        <ele>1476</ele>
        <time>2012-07-21T04:52:44.1Z</time>
      </trkpt>
      <trkpt lat="45.39053" lon="5.809">
        <ele>1477</ele>
        <time>2012-07-21T04:52:47.1Z</time>
      </trkpt>
      <trkpt lat="45.39052" lon="5.80902">
        <ele>1477</ele>
        <time>2012-07-21T04:52:49.1Z</time>
      </trkpt>
      <trkpt lat="45.39051" lon="5.80906">
        <ele>1477</ele>
        <time>2012-07-21T04:52:51.1Z</time>
      </trkpt>
      <trkpt lat="45.39051" lon="5.80912">
        <ele>1478</ele>
        <time>2012-07-21T04:52:53.1Z</time>
      </trkpt>
      <trkpt lat="45.39051" lon="5.80915">
        <ele>1478</ele>
        <time>2012-07-21T04:52:55.1Z</time>
      </trkpt>
      <trkpt lat="45.3905" lon="5.8092">
        <ele>1478</ele>
        <time>2012-07-21T04:52:57.1Z</time>
      </trkpt>
      <trkpt lat="45.39049" lon="5.80922">
        <ele>1479</ele>
        <time>2012-07-21T04:52:59.1Z</time>
      </trkpt>
      <trkpt lat="45.39049" lon="5.80926">
        <ele>1479</ele>
        <time>2012-07-21T04:53:01.1Z</time>
      </trkpt>
      <trkpt lat="45.39048" lon="5.80929">
        <ele>1480</ele>
        <time>2012-07-21T04:53:03.1Z</time>
      </trkpt>
      <trkpt lat="45.39048" lon="5.80933">
        <ele>1480</ele>
        <time>2012-07-21T04:53:05.1Z</time>
      </trkpt>
      <trkpt lat="45.39049" lon="5.80937">
        <ele>1480</ele>
        <time>2012-07-21T04:53:07.1Z</time>
      </trkpt>
      <trkpt lat="45.39049" lon="5.80941">
        <ele>1480</ele>
        <time>2012-07-21T04:53:09.1Z</time>
      </trkpt>
      <trkpt lat="45.39049" lon="5.80944">
        <ele>1480</ele>
        <time>2012-07-21T04:53:11.1Z</time>
      </trkpt>
      <trkpt lat="45.39049" lon="5.80948">
        <ele>1481</ele>
        <time>2012-07-21T04:53:13.1Z</time>
      </trkpt>
      <trkpt lat="45.39049" lon="5.80951">
        <ele>1482</ele>
        <time>2012-07-21T04:53:15.1Z</time>
      </trkpt>
      <trkpt lat="45.39049" lon="5.80956">
        <ele>1482</ele>
        <time>2012-07-21T04:53:17.1Z</time>
      </trkpt>
      <trkpt lat="45.39049" lon="5.80957">
        <ele>1483</ele>
        <time>2012-07-21T04:53:19.1Z</time>
      </trkpt>
      <trkpt lat="45.39049" lon="5.8096">
        <ele>1483</ele>
        <time>2012-07-21T04:53:21.1Z</time>
      </trkpt>
      <trkpt lat="45.39048" lon="5.80962">
        <ele>1483</ele>
        <time>2012-07-21T04:53:24.1Z</time>
      </trkpt>
      <trkpt lat="45.39048" lon="5.80966">
        <ele>1484</ele>
        <time>2012-07-21T04:53:26.1Z</time>
      </trkpt>
      <trkpt lat="45.39048" lon="5.8097">
        <ele>1484</ele>
        <time>2012-07-21T04:53:28.1Z</time>
      </trkpt>
      <trkpt lat="45.39048" lon="5.80974">
        <ele>1484</ele>
        <time>2012-07-21T04:53:30.1Z</time>
      </trkpt>
      <trkpt lat="45.39048" lon="5.80976">
        <ele>1484</ele>
        <time>2012-07-21T04:53:32.1Z</time>
      </trkpt>
      <trkpt lat="45.39048" lon="5.8098">
        <ele>1485</ele>
        <time>2012-07-21T04:53:34.1Z</time>
      </trkpt>
      <trkpt lat="45.39048" lon="5.80984">
        <ele>1485</ele>
        <time>2012-07-21T04:53:36.1Z</time>
      </trkpt>
      <trkpt lat="45.39048" lon="5.80987">
        <ele>1485</ele>
        <time>2012-07-21T04:53:38.1Z</time>
      </trkpt>
      <trkpt lat="45.39048" lon="5.8099">
        <ele>1485</ele>
        <time>2012-07-21T04:53:41.1Z</time>
      </trkpt>
      <trkpt lat="45.39048" lon="5.80993">
        <ele>1486</ele>
        <time>2012-07-21T04:53:43.1Z</time>
      </trkpt>
      <trkpt lat="45.39051" lon="5.80994">
        <ele>1486</ele>
        <time>2012-07-21T04:53:45.1Z</time>
      </trkpt>
      <trkpt lat="45.39053" lon="5.80995">
        <ele>1486</ele>
        <time>2012-07-21T04:53:47.1Z</time>
      </trkpt>
      <trkpt lat="45.39054" lon="5.80996">
        <ele>1487</ele>
        <time>2012-07-21T04:53:49.1Z</time>
      </trkpt>
      <trkpt lat="45.39056" lon="5.80997">
        <ele>1487</ele>
        <time>2012-07-21T04:53:51.1Z</time>
      </trkpt>
      <trkpt lat="45.39057" lon="5.81">
        <ele>1488</ele>
        <time>2012-07-21T04:53:53.1Z</time>
      </trkpt>
      <trkpt lat="45.39058" lon="5.81001">
        <ele>1488</ele>
        <time>2012-07-21T04:53:55.1Z</time>
      </trkpt>
      <trkpt lat="45.3906" lon="5.81003">
        <ele>1489</ele>
        <time>2012-07-21T04:53:57.1Z</time>
      </trkpt>
      <trkpt lat="45.39061" lon="5.81004">
        <ele>1489</ele>
        <time>2012-07-21T04:53:59.1Z</time>
      </trkpt>
      <trkpt lat="45.39062" lon="5.81007">
        <ele>1489</ele>
        <time>2012-07-21T04:54:01.1Z</time>
      </trkpt>
      <trkpt lat="45.39063" lon="5.81009">
        <ele>1489</ele>
        <time>2012-07-21T04:54:03.1Z</time>
      </trkpt>
      <trkpt lat="45.39063" lon="5.81012">
        <ele>1490</ele>
        <time>2012-07-21T04:54:05.1Z</time>
      </trkpt>
      <trkpt lat="45.39064" lon="5.81014">
        <ele>1490</ele>
        <time>2012-07-21T04:54:08.1Z</time>
      </trkpt>
      <trkpt lat="45.39066" lon="5.81016">
        <ele>1490</ele>
        <time>2012-07-21T04:54:10.1Z</time>
      </trkpt>
      <trkpt lat="45.39068" lon="5.8102">
        <ele>1490</ele>
        <time>2012-07-21T04:54:12.1Z</time>
      </trkpt>
      <trkpt lat="45.39069" lon="5.81024">
        <ele>1490</ele>
        <time>2012-07-21T04:54:14.1Z</time>
      </trkpt>
      <trkpt lat="45.3907" lon="5.81028">
        <ele>1491</ele>
        <time>2012-07-21T04:54:16.1Z</time>
      </trkpt>
      <trkpt lat="45.39071" lon="5.8103">
        <ele>1491</ele>
        <time>2012-07-21T04:54:18.1Z</time>
      </trkpt>
      <trkpt lat="45.39073" lon="5.81033">
        <ele>1492</ele>
        <time>2012-07-21T04:54:20.1Z</time>
      </trkpt>
      <trkpt lat="45.39072" lon="5.81036">
        <ele>1492</ele>
        <time>2012-07-21T04:54:23.1Z</time>
      </trkpt>
      <trkpt lat="45.39073" lon="5.81041">
        <ele>1493</ele>
        <time>2012-07-21T04:54:25.1Z</time>
      </trkpt>
      <trkpt lat="45.39074" lon="5.81043">
        <ele>1493</ele>
        <time>2012-07-21T04:54:27.1Z</time>
      </trkpt>
      <trkpt lat="45.39074" lon="5.81046">
        <ele>1494</ele>
        <time>2012-07-21T04:54:29.1Z</time>
      </trkpt>
      <trkpt lat="45.39075" lon="5.81048">
        <ele>1494</ele>
        <time>2012-07-21T04:54:31.1Z</time>
      </trkpt>
      <trkpt lat="45.39075" lon="5.81053">
        <ele>1494</ele>
        <time>2012-07-21T04:54:33.1Z</time>
      </trkpt>
      <trkpt lat="45.39076" lon="5.81056">
        <ele>1495</ele>
        <time>2012-07-21T04:54:36.1Z</time>
      </trkpt>
      <trkpt lat="45.39076" lon="5.81061">
        <ele>1495</ele>
        <time>2012-07-21T04:54:38.1Z</time>
      </trkpt>
      <trkpt lat="45.39075" lon="5.81064">
        <ele>1495</ele>
        <time>2012-07-21T04:54:40.1Z</time>
      </trkpt>
      <trkpt lat="45.39075" lon="5.81069">
        <ele>1496</ele>
        <time>2012-07-21T04:54:42.1Z</time>
      </trkpt>
      <trkpt lat="45.39075" lon="5.81073">
        <ele>1496</ele>
        <time>2012-07-21T04:54:44.1Z</time>
      </trkpt>
      <trkpt lat="45.39074" lon="5.81076">
        <ele>1496</ele>
        <time>2012-07-21T04:54:46.1Z</time>
      </trkpt>
      <trkpt lat="45.39074" lon="5.81079">
        <ele>1496</ele>
        <time>2012-07-21T04:54:48.1Z</time>
      </trkpt>
      <trkpt lat="45.39074" lon="5.81082">
        <ele>1497</ele>
        <time>2012-07-21T04:54:50.1Z</time>
      </trkpt>
      <trkpt lat="45.39074" lon="5.81086">
        <ele>1497</ele>
        <time>2012-07-21T04:54:52.1Z</time>
      </trkpt>
      <trkpt lat="45.39074" lon="5.8109">
        <ele>1497</ele>
        <time>2012-07-21T04:54:54.1Z</time>
      </trkpt>
      <trkpt lat="45.39074" lon="5.81093">
        <ele>1498</ele>
        <time>2012-07-21T04:54:56.1Z</time>
      </trkpt>
      <trkpt lat="45.39074" lon="5.81096">
        <ele>1499</ele>
        <time>2012-07-21T04:54:59.1Z</time>
      </trkpt>
      <trkpt lat="45.39072" lon="5.81095">
        <ele>1499</ele>
        <time>2012-07-21T04:55:01.1Z</time>
      </trkpt>
      <trkpt lat="45.39072" lon="5.81091">
        <ele>1500</ele>
        <time>2012-07-21T04:55:03.1Z</time>
      </trkpt>
      <trkpt lat="45.39069" lon="5.81089">
        <ele>1500</ele>
        <time>2012-07-21T04:55:05.1Z</time>
      </trkpt>
      <trkpt lat="45.39069" lon="5.81086">
        <ele>1500</ele>
        <time>2012-07-21T04:55:07.1Z</time>
      </trkpt>
      <trkpt lat="45.39068" lon="5.81083">
        <ele>1500</ele>
        <time>2012-07-21T04:55:09.1Z</time>
      </trkpt>
      <trkpt lat="45.39067" lon="5.81079">
        <ele>1501</ele>
        <time>2012-07-21T04:55:11.1Z</time>
      </trkpt>
      <trkpt lat="45.39067" lon="5.81077">
        <ele>1501</ele>
        <time>2012-07-21T04:55:13.1Z</time>
      </trkpt>
      <trkpt lat="45.39066" lon="5.81073">
        <ele>1502</ele>
        <time>2012-07-21T04:55:15.1Z</time>
      </trkpt>
      <trkpt lat="45.39064" lon="5.8107">
        <ele>1502</ele>
        <time>2012-07-21T04:55:17.1Z</time>
      </trkpt>
      <trkpt lat="45.39062" lon="5.81068">
        <ele>1503</ele>
        <time>2012-07-21T04:55:19.1Z</time>
      </trkpt>
      <trkpt lat="45.39061" lon="5.81066">
        <ele>1503</ele>
        <time>2012-07-21T04:55:22.1Z</time>
      </trkpt>
      <trkpt lat="45.39059" lon="5.81062">
        <ele>1503</ele>
        <time>2012-07-21T04:55:24.1Z</time>
      </trkpt>
      <trkpt lat="45.39057" lon="5.81057">
        <ele>1504</ele>
        <time>2012-07-21T04:55:26.1Z</time>
      </trkpt>
      <trkpt lat="45.39054" lon="5.81055">
        <ele>1504</ele>
        <time>2012-07-21T04:55:28.1Z</time>
      </trkpt>
      <trkpt lat="45.39051" lon="5.81054">
        <ele>1504</ele>
        <time>2012-07-21T04:55:30.1Z</time>
      </trkpt>
      <trkpt lat="45.39051" lon="5.81054">
        <ele>1505</ele>
        <time>2012-07-21T04:55:32.1Z</time>
      </trkpt>
      <trkpt lat="45.3905" lon="5.81053">
        <ele>1506</ele>
        <time>2012-07-21T04:55:34.1Z</time>
      </trkpt>
      <trkpt lat="45.39047" lon="5.81054">
        <ele>1506</ele>
        <time>2012-07-21T04:55:36.1Z</time>
      </trkpt>
      <trkpt lat="45.39045" lon="5.81055">
        <ele>1506</ele>
        <time>2012-07-21T04:55:38.1Z</time>
      </trkpt>
      <trkpt lat="45.39042" lon="5.81056">
        <ele>1507</ele>
        <time>2012-07-21T04:55:40.1Z</time>
      </trkpt>
      <trkpt lat="45.3904" lon="5.81058">
        <ele>1507</ele>
        <time>2012-07-21T04:55:43.1Z</time>
      </trkpt>
      <trkpt lat="45.39037" lon="5.8106">
        <ele>1507</ele>
        <time>2012-07-21T04:55:45.1Z</time>
      </trkpt>
      <trkpt lat="45.39035" lon="5.81062">
        <ele>1507</ele>
        <time>2012-07-21T04:55:47.1Z</time>
      </trkpt>
      <trkpt lat="45.39031" lon="5.81062">
        <ele>1507</ele>
        <time>2012-07-21T04:55:49.1Z</time>
      </trkpt>
      <trkpt lat="45.39029" lon="5.81061">
        <ele>1508</ele>
        <time>2012-07-21T04:55:51.1Z</time>
      </trkpt>
      <trkpt lat="45.39027" lon="5.81061">
        <ele>1508</ele>
        <time>2012-07-21T04:55:53.1Z</time>
      </trkpt>
      <trkpt lat="45.39026" lon="5.81062">
        <ele>1508</ele>
        <time>2012-07-21T04:55:55.1Z</time>
      </trkpt>
      <trkpt lat="45.39024" lon="5.81061">
        <ele>1509</ele>
        <time>2012-07-21T04:55:57.1Z</time>
      </trkpt>
      <trkpt lat="45.39022" lon="5.81061">
        <ele>1510</ele>
        <time>2012-07-21T04:55:59.1Z</time>
      </trkpt>
      <trkpt lat="45.39021" lon="5.81061">
        <ele>1510</ele>
        <time>2012-07-21T04:56:01.1Z</time>
      </trkpt>
      <trkpt lat="45.39019" lon="5.81061">
        <ele>1510</ele>
        <time>2012-07-21T04:56:03.1Z</time>
      </trkpt>
      <trkpt lat="45.39017" lon="5.8106">
        <ele>1511</ele>
        <time>2012-07-21T04:56:05.1Z</time>
      </trkpt>
      <trkpt lat="45.39015" lon="5.81061">
        <ele>1511</ele>
        <time>2012-07-21T04:56:07.1Z</time>
      </trkpt>
      <trkpt lat="45.39012" lon="5.8106">
        <ele>1512</ele>
        <time>2012-07-21T04:56:09.1Z</time>
      </trkpt>
      <trkpt lat="45.3901" lon="5.81059">
        <ele>1512</ele>
        <time>2012-07-21T04:56:12.1Z</time>
      </trkpt>
      <trkpt lat="45.39008" lon="5.81058">
        <ele>1513</ele>
        <time>2012-07-21T04:56:14.1Z</time>
      </trkpt>
      <trkpt lat="45.39004" lon="5.81055">
        <ele>1514</ele>
        <time>2012-07-21T04:56:16.1Z</time>
      </trkpt>
      <trkpt lat="45.39" lon="5.81054">
        <ele>1514</ele>
        <time>2012-07-21T04:56:18.1Z</time>
      </trkpt>
      <trkpt lat="45.38998" lon="5.81052">
        <ele>1514</ele>
        <time>2012-07-21T04:56:20.1Z</time>
      </trkpt>
      <trkpt lat="45.38995" lon="5.8105">
        <ele>1514</ele>
        <time>2012-07-21T04:56:22.1Z</time>
      </trkpt>
      <trkpt lat="45.38994" lon="5.8105">
        <ele>1514</ele>
        <time>2012-07-21T04:56:24.1Z</time>
      </trkpt>
      <trkpt lat="45.38991" lon="5.81048">
        <ele>1515</ele>
        <time>2012-07-21T04:56:26.1Z</time>
      </trkpt>
      <trkpt lat="45.38988" lon="5.81046">
        <ele>1515</ele>
        <time>2012-07-21T04:56:28.1Z</time>
      </trkpt>
      <trkpt lat="45.38985" lon="5.81044">
        <ele>1515</ele>
        <time>2012-07-21T04:56:30.1Z</time>
      </trkpt>
      <trkpt lat="45.38984" lon="5.81044">
        <ele>1516</ele>
        <time>2012-07-21T04:56:32.1Z</time>
      </trkpt>
      <trkpt lat="45.38982" lon="5.81042">
        <ele>1517</ele>
        <time>2012-07-21T04:56:35.1Z</time>
      </trkpt>
      <trkpt lat="45.38979" lon="5.81039">
        <ele>1517</ele>
        <time>2012-07-21T04:56:37.1Z</time>
      </trkpt>
      <trkpt lat="45.38977" lon="5.81036">
        <ele>1518</ele>
        <time>2012-07-21T04:56:39.1Z</time>
      </trkpt>
      <trkpt lat="45.38974" lon="5.81035">
        <ele>1518</ele>
        <time>2012-07-21T04:56:41.1Z</time>
      </trkpt>
      <trkpt lat="45.38973" lon="5.81033">
        <ele>1518</ele>
        <time>2012-07-21T04:56:43.1Z</time>
      </trkpt>
      <trkpt lat="45.38971" lon="5.8103">
        <ele>1519</ele>
        <time>2012-07-21T04:56:45.1Z</time>
      </trkpt>
      <trkpt lat="45.38969" lon="5.81027">
        <ele>1519</ele>
        <time>2012-07-21T04:56:47.1Z</time>
      </trkpt>
      <trkpt lat="45.38967" lon="5.81025">
        <ele>1520</ele>
        <time>2012-07-21T04:56:49.1Z</time>
      </trkpt>
      <trkpt lat="45.38965" lon="5.81022">
        <ele>1520</ele>
        <time>2012-07-21T04:56:52.1Z</time>
      </trkpt>
      <trkpt lat="45.38963" lon="5.81019">
        <ele>1521</ele>
        <time>2012-07-21T04:56:54.1Z</time>
      </trkpt>
      <trkpt lat="45.38961" lon="5.81015">
        <ele>1521</ele>
        <time>2012-07-21T04:56:56.1Z</time>
      </trkpt>
      <trkpt lat="45.38961" lon="5.81012">
        <ele>1522</ele>
        <time>2012-07-21T04:56:58.1Z</time>
      </trkpt>
      <trkpt lat="45.38962" lon="5.81007">
        <ele>1522</ele>
        <time>2012-07-21T04:57:00.1Z</time>
      </trkpt>
      <trkpt lat="45.38963" lon="5.81002">
        <ele>1522</ele>
        <time>2012-07-21T04:57:02.1Z</time>
      </trkpt>
      <trkpt lat="45.38964" lon="5.80998">
        <ele>1522</ele>
        <time>2012-07-21T04:57:04.1Z</time>
      </trkpt>
      <trkpt lat="45.38964" lon="5.80994">
        <ele>1522</ele>
        <time>2012-07-21T04:57:06.1Z</time>
      </trkpt>
      <trkpt lat="45.38964" lon="5.8099">
        <ele>1523</ele>
        <time>2012-07-21T04:57:08.1Z</time>
      </trkpt>
      <trkpt lat="45.38963" lon="5.80985">
        <ele>1523</ele>
        <time>2012-07-21T04:57:10.1Z</time>
      </trkpt>
      <trkpt lat="45.38962" lon="5.80983">
        <ele>1524</ele>
        <time>2012-07-21T04:57:12.1Z</time>
      </trkpt>
      <trkpt lat="45.38961" lon="5.80979">
        <ele>1524</ele>
        <time>2012-07-21T04:57:14.1Z</time>
      </trkpt>
      <trkpt lat="45.3896" lon="5.80975">
        <ele>1524</ele>
        <time>2012-07-21T04:57:16.1Z</time>
      </trkpt>
      <trkpt lat="45.38958" lon="5.80972">
        <ele>1525</ele>
        <time>2012-07-21T04:57:18.1Z</time>
      </trkpt>
      <trkpt lat="45.38958" lon="5.8097">
        <ele>1525</ele>
        <time>2012-07-21T04:57:20.1Z</time>
      </trkpt>
      <trkpt lat="45.38956" lon="5.80967">
        <ele>1525</ele>
        <time>2012-07-21T04:57:22.1Z</time>
      </trkpt>
      <trkpt lat="45.38954" lon="5.80964">
        <ele>1526</ele>
        <time>2012-07-21T04:57:25.1Z</time>
      </trkpt>
      <trkpt lat="45.38952" lon="5.8096">
        <ele>1526</ele>
        <time>2012-07-21T04:57:27.1Z</time>
      </trkpt>
      <trkpt lat="45.3895" lon="5.80957">
        <ele>1526</ele>
        <time>2012-07-21T04:57:29.1Z</time>
      </trkpt>
      <trkpt lat="45.38948" lon="5.80954">
        <ele>1526</ele>
        <time>2012-07-21T04:57:31.1Z</time>
      </trkpt>
      <trkpt lat="45.38946" lon="5.80949">
        <ele>1525</ele>
        <time>2012-07-21T04:57:33.1Z</time>
      </trkpt>
      <trkpt lat="45.38944" lon="5.80946">
        <ele>1524</ele>
        <time>2012-07-21T04:57:35.1Z</time>
      </trkpt>
      <trkpt lat="45.38943" lon="5.80943">
        <ele>1524</ele>
        <time>2012-07-21T04:57:37.1Z</time>
      </trkpt>
      <trkpt lat="45.38942" lon="5.80939">
        <ele>1523</ele>
        <time>2012-07-21T04:57:40.1Z</time>
      </trkpt>
      <trkpt lat="45.3894" lon="5.80933">
        <ele>1523</ele>
        <time>2012-07-21T04:57:42.1Z</time>
      </trkpt>
      <trkpt lat="45.38938" lon="5.8093">
        <ele>1523</ele>
        <time>2012-07-21T04:57:44.1Z</time>
      </trkpt>
      <trkpt lat="45.38936" lon="5.80926">
        <ele>1523</ele>
        <time>2012-07-21T04:57:46.1Z</time>
      </trkpt>
      <trkpt lat="45.38934" lon="5.80923">
        <ele>1523</ele>
        <time>2012-07-21T04:57:48.1Z</time>
      </trkpt>
      <trkpt lat="45.38932" lon="5.80921">
        <ele>1524</ele>
        <time>2012-07-21T04:57:50.1Z</time>
      </trkpt>
      <trkpt lat="45.38929" lon="5.80921">
        <ele>1524</ele>
        <time>2012-07-21T04:57:52.1Z</time>
      </trkpt>
      <trkpt lat="45.38927" lon="5.80922">
        <ele>1524</ele>
        <time>2012-07-21T04:57:54.1Z</time>
      </trkpt>
      <trkpt lat="45.38925" lon="5.80924">
        <ele>1524</ele>
        <time>2012-07-21T04:57:57.1Z</time>
      </trkpt>
      <trkpt lat="45.38924" lon="5.80928">
        <ele>1525</ele>
        <time>2012-07-21T04:57:59.1Z</time>
      </trkpt>
      <trkpt lat="45.38921" lon="5.8093">
        <ele>1525</ele>
        <time>2012-07-21T04:58:01.1Z</time>
      </trkpt>
      <trkpt lat="45.38919" lon="5.80933">
        <ele>1525</ele>
        <time>2012-07-21T04:58:03.1Z</time>
      </trkpt>
      <trkpt lat="45.38917" lon="5.80935">
        <ele>1526</ele>
        <time>2012-07-21T04:58:05.1Z</time>
      </trkpt>
      <trkpt lat="45.38915" lon="5.80937">
        <ele>1526</ele>
        <time>2012-07-21T04:58:07.1Z</time>
      </trkpt>
      <trkpt lat="45.38912" lon="5.80935">
        <ele>1527</ele>
        <time>2012-07-21T04:58:09.1Z</time>
      </trkpt>
      <trkpt lat="45.38911" lon="5.80931">
        <ele>1527</ele>
        <time>2012-07-21T04:58:12.1Z</time>
      </trkpt>
      <trkpt lat="45.3891" lon="5.80927">
        <ele>1527</ele>
        <time>2012-07-21T04:58:14.1Z</time>
      </trkpt>
      <trkpt lat="45.3891" lon="5.80923">
        <ele>1526</ele>
        <time>2012-07-21T04:58:16.1Z</time>
      </trkpt>
      <trkpt lat="45.3891" lon="5.80917">
        <ele>1526</ele>
        <time>2012-07-21T04:58:18.1Z</time>
      </trkpt>
      <trkpt lat="45.38908" lon="5.8091">
        <ele>1526</ele>
        <time>2012-07-21T04:58:20.1Z</time>
      </trkpt>
      <trkpt lat="45.38905" lon="5.80906">
        <ele>1526</ele>
        <time>2012-07-21T04:58:22.1Z</time>
      </trkpt>
      <trkpt lat="45.38903" lon="5.80903">
        <ele>1526</ele>
        <time>2012-07-21T04:58:24.1Z</time>
      </trkpt>
      <trkpt lat="45.38901" lon="5.80901">
        <ele>1527</ele>
        <time>2012-07-21T04:58:26.1Z</time>
      </trkpt>
      <trkpt lat="45.38899" lon="5.80898">
        <ele>1527</ele>
        <time>2012-07-21T04:58:28.1Z</time>
      </trkpt>
      <trkpt lat="45.38896" lon="5.80896">
        <ele>1528</ele>
        <time>2012-07-21T04:58:30.1Z</time>
      </trkpt>
      <trkpt lat="45.38894" lon="5.80893">
        <ele>1528</ele>
        <time>2012-07-21T04:58:32.1Z</time>
      </trkpt>
      <trkpt lat="45.3889" lon="5.80891">
        <ele>1529</ele>
        <time>2012-07-21T04:58:34.1Z</time>
      </trkpt>
      <trkpt lat="45.38887" lon="5.80888">
        <ele>1529</ele>
        <time>2012-07-21T04:58:36.1Z</time>
      </trkpt>
      <trkpt lat="45.38884" lon="5.80886">
        <ele>1529</ele>
        <time>2012-07-21T04:58:38.1Z</time>
      </trkpt>
      <trkpt lat="45.38881" lon="5.80884">
        <ele>1530</ele>
        <time>2012-07-21T04:58:40.1Z</time>
      </trkpt>
      <trkpt lat="45.38879" lon="5.80881">
        <ele>1530</ele>
        <time>2012-07-21T04:58:42.1Z</time>
      </trkpt>
      <trkpt lat="45.38875" lon="5.80878">
        <ele>1530</ele>
        <time>2012-07-21T04:58:45.1Z</time>
      </trkpt>
      <trkpt lat="45.38873" lon="5.80873">
        <ele>1531</ele>
        <time>2012-07-21T04:58:47.1Z</time>
      </trkpt>
      <trkpt lat="45.38874" lon="5.80865">
        <ele>1531</ele>
        <time>2012-07-21T04:58:49.1Z</time>
      </trkpt>
      <trkpt lat="45.38874" lon="5.80861">
        <ele>1531</ele>
        <time>2012-07-21T04:58:51.1Z</time>
      </trkpt>
      <trkpt lat="45.38874" lon="5.80857">
        <ele>1532</ele>
        <time>2012-07-21T04:58:53.1Z</time>
      </trkpt>
      <trkpt lat="45.38875" lon="5.80852">
        <ele>1532</ele>
        <time>2012-07-21T04:58:55.1Z</time>
      </trkpt>
      <trkpt lat="45.38877" lon="5.80848">
        <ele>1533</ele>
        <time>2012-07-21T04:58:57.1Z</time>
      </trkpt>
      <trkpt lat="45.38879" lon="5.80846">
        <ele>1533</ele>
        <time>2012-07-21T04:58:59.1Z</time>
      </trkpt>
      <trkpt lat="45.38881" lon="5.80844">
        <ele>1533</ele>
        <time>2012-07-21T04:59:01.1Z</time>
      </trkpt>
      <trkpt lat="45.38881" lon="5.80841">
        <ele>1533</ele>
        <time>2012-07-21T04:59:03.1Z</time>
      </trkpt>
      <trkpt lat="45.3888" lon="5.80837">
        <ele>1533</ele>
        <time>2012-07-21T04:59:05.1Z</time>
      </trkpt>
      <trkpt lat="45.38879" lon="5.80836">
        <ele>1533</ele>
        <time>2012-07-21T04:59:07.1Z</time>
      </trkpt>
      <trkpt lat="45.38877" lon="5.80833">
        <ele>1534</ele>
        <time>2012-07-21T04:59:09.1Z</time>
      </trkpt>
      <trkpt lat="45.38876" lon="5.80831">
        <ele>1535</ele>
        <time>2012-07-21T04:59:12.1Z</time>
      </trkpt>
      <trkpt lat="45.38874" lon="5.80824">
        <ele>1535</ele>
        <time>2012-07-21T04:59:14.1Z</time>
      </trkpt>
      <trkpt lat="45.38873" lon="5.80821">
        <ele>1536</ele>
        <time>2012-07-21T04:59:16.1Z</time>
      </trkpt>
      <trkpt lat="45.38874" lon="5.80818">
        <ele>1536</ele>
        <time>2012-07-21T04:59:18.1Z</time>
      </trkpt>
      <trkpt lat="45.38876" lon="5.80815">
        <ele>1537</ele>
        <time>2012-07-21T04:59:20.1Z</time>
      </trkpt>
      <trkpt lat="45.38877" lon="5.80812">
        <ele>1537</ele>
        <time>2012-07-21T04:59:22.1Z</time>
      </trkpt>
      <trkpt lat="45.38878" lon="5.80808">
        <ele>1538</ele>
        <time>2012-07-21T04:59:24.1Z</time>
      </trkpt>
      <trkpt lat="45.38879" lon="5.80805">
        <ele>1538</ele>
        <time>2012-07-21T04:59:26.1Z</time>
      </trkpt>
      <trkpt lat="45.38881" lon="5.80801">
        <ele>1538</ele>
        <time>2012-07-21T04:59:28.1Z</time>
      </trkpt>
      <trkpt lat="45.38882" lon="5.80798">
        <ele>1538</ele>
        <time>2012-07-21T04:59:30.1Z</time>
      </trkpt>
      <trkpt lat="45.38884" lon="5.80794">
        <ele>1538</ele>
        <time>2012-07-21T04:59:32.1Z</time>
      </trkpt>
      <trkpt lat="45.38885" lon="5.80791">
        <ele>1539</ele>
        <time>2012-07-21T04:59:35.1Z</time>
      </trkpt>
      <trkpt lat="45.38886" lon="5.80786">
        <ele>1539</ele>
        <time>2012-07-21T04:59:37.1Z</time>
      </trkpt>
      <trkpt lat="45.38887" lon="5.80783">
        <ele>1540</ele>
        <time>2012-07-21T04:59:39.1Z</time>
      </trkpt>
      <trkpt lat="45.38888" lon="5.80781">
        <ele>1540</ele>
        <time>2012-07-21T04:59:41.1Z</time>
      </trkpt>
      <trkpt lat="45.38889" lon="5.80778">
        <ele>1540</ele>
        <time>2012-07-21T04:59:43.1Z</time>
      </trkpt>
      <trkpt lat="45.38892" lon="5.80775">
        <ele>1540</ele>
        <time>2012-07-21T04:59:45.1Z</time>
      </trkpt>
      <trkpt lat="45.38893" lon="5.80773">
        <ele>1541</ele>
        <time>2012-07-21T04:59:47.1Z</time>
      </trkpt>
      <trkpt lat="45.38893" lon="5.80771">
        <ele>1541</ele>
        <time>2012-07-21T04:59:50.1Z</time>
      </trkpt>
      <trkpt lat="45.38895" lon="5.80769">
        <ele>1542</ele>
        <time>2012-07-21T04:59:52.1Z</time>
      </trkpt>
      <trkpt lat="45.38897" lon="5.80767">
        <ele>1543</ele>
        <time>2012-07-21T04:59:54.1Z</time>
      </trkpt>
      <trkpt lat="45.38898" lon="5.80764">
        <ele>1542</ele>
        <time>2012-07-21T04:59:56.1Z</time>
      </trkpt>
      <trkpt lat="45.38899" lon="5.80763">
        <ele>1542</ele>
        <time>2012-07-21T04:59:58.1Z</time>
      </trkpt>
      <trkpt lat="45.38901" lon="5.8076">
        <ele>1543</ele>
        <time>2012-07-21T05:00:00.1Z</time>
      </trkpt>
      <trkpt lat="45.38903" lon="5.80757">
        <ele>1544</ele>
        <time>2012-07-21T05:00:02.1Z</time>
      </trkpt>
      <trkpt lat="45.38905" lon="5.80754">
        <ele>1545</ele>
        <time>2012-07-21T05:00:04.1Z</time>
      </trkpt>
      <trkpt lat="45.38907" lon="5.80752">
        <ele>1546</ele>
        <time>2012-07-21T05:00:06.1Z</time>
      </trkpt>
      <trkpt lat="45.38908" lon="5.80749">
        <ele>1546</ele>
        <time>2012-07-21T05:00:08.1Z</time>
      </trkpt>
      <trkpt lat="45.3891" lon="5.80747">
        <ele>1546</ele>
        <time>2012-07-21T05:00:10.1Z</time>
      </trkpt>
      <trkpt lat="45.38912" lon="5.80744">
        <ele>1547</ele>
        <time>2012-07-21T05:00:12.1Z</time>
      </trkpt>
      <trkpt lat="45.38913" lon="5.80741">
        <ele>1547</ele>
        <time>2012-07-21T05:00:14.1Z</time>
      </trkpt>
      <trkpt lat="45.38915" lon="5.80739">
        <ele>1548</ele>
        <time>2012-07-21T05:00:16.1Z</time>
      </trkpt>
      <trkpt lat="45.38916" lon="5.80738">
        <ele>1548</ele>
        <time>2012-07-21T05:00:19.1Z</time>
      </trkpt>
      <trkpt lat="45.38915" lon="5.80735">
        <ele>1548</ele>
        <time>2012-07-21T05:00:21.1Z</time>
      </trkpt>
      <trkpt lat="45.38915" lon="5.80735">
        <ele>1548</ele>
        <time>2012-07-21T05:00:23.1Z</time>
      </trkpt>
      <trkpt lat="45.38913" lon="5.80737">
        <ele>1549</ele>
        <time>2012-07-21T05:00:25.1Z</time>
      </trkpt>
      <trkpt lat="45.38912" lon="5.80737">
        <ele>1550</ele>
        <time>2012-07-21T05:00:27.1Z</time>
      </trkpt>
      <trkpt lat="45.3891" lon="5.80739">
        <ele>1551</ele>
        <time>2012-07-21T05:00:29.1Z</time>
      </trkpt>
      <trkpt lat="45.38909" lon="5.80741">
        <ele>1552</ele>
        <time>2012-07-21T05:00:31.1Z</time>
      </trkpt>
      <trkpt lat="45.38908" lon="5.80742">
        <ele>1552</ele>
        <time>2012-07-21T05:00:33.1Z</time>
      </trkpt>
      <trkpt lat="45.38906" lon="5.80742">
        <ele>1553</ele>
        <time>2012-07-21T05:00:35.1Z</time>
      </trkpt>
      <trkpt lat="45.38906" lon="5.80743">
        <ele>1553</ele>
        <time>2012-07-21T05:00:37.1Z</time>
      </trkpt>
      <trkpt lat="45.38904" lon="5.80744">
        <ele>1553</ele>
        <time>2012-07-21T05:00:39.1Z</time>
      </trkpt>
      <trkpt lat="45.38902" lon="5.80744">
        <ele>1554</ele>
        <time>2012-07-21T05:00:41.1Z</time>
      </trkpt>
      <trkpt lat="45.38898" lon="5.80745">
        <ele>1554</ele>
        <time>2012-07-21T05:00:43.1Z</time>
      </trkpt>
      <trkpt lat="45.38895" lon="5.80745">
        <ele>1555</ele>
        <time>2012-07-21T05:00:45.1Z</time>
      </trkpt>
      <trkpt lat="45.38892" lon="5.80744">
        <ele>1554</ele>
        <time>2012-07-21T05:00:47.1Z</time>
      </trkpt>
      <trkpt lat="45.3889" lon="5.80744">
        <ele>1554</ele>
        <time>2012-07-21T05:00:49.1Z</time>
      </trkpt>
      <trkpt lat="45.38888" lon="5.80747">
        <ele>1554</ele>
        <time>2012-07-21T05:00:51.1Z</time>
      </trkpt>
      <trkpt lat="45.38886" lon="5.80751">
        <ele>1554</ele>
        <time>2012-07-21T05:00:53.1Z</time>
      </trkpt>
      <trkpt lat="45.38883" lon="5.80755">
        <ele>1555</ele>
        <time>2012-07-21T05:00:55.1Z</time>
      </trkpt>
      <trkpt lat="45.3888" lon="5.80757">
        <ele>1556</ele>
        <time>2012-07-21T05:00:58.1Z</time>
      </trkpt>
      <trkpt lat="45.38876" lon="5.8076">
        <ele>1556</ele>
        <time>2012-07-21T05:01:00.1Z</time>
      </trkpt>
      <trkpt lat="45.38874" lon="5.80762">
        <ele>1556</ele>
        <time>2012-07-21T05:01:02.1Z</time>
      </trkpt>
      <trkpt lat="45.38871" lon="5.80764">
        <ele>1557</ele>
        <time>2012-07-21T05:01:04.1Z</time>
      </trkpt>
      <trkpt lat="45.38869" lon="5.80768">
        <ele>1557</ele>
        <time>2012-07-21T05:01:06.1Z</time>
      </trkpt>
      <trkpt lat="45.38866" lon="5.80772">
        <ele>1557</ele>
        <time>2012-07-21T05:01:08.1Z</time>
      </trkpt>
      <trkpt lat="45.38864" lon="5.80775">
        <ele>1557</ele>
        <time>2012-07-21T05:01:10.1Z</time>
      </trkpt>
      <trkpt lat="45.38863" lon="5.80778">
        <ele>1558</ele>
        <time>2012-07-21T05:01:12.1Z</time>
      </trkpt>
      <trkpt lat="45.38861" lon="5.80781">
        <ele>1557</ele>
        <time>2012-07-21T05:01:15.1Z</time>
      </trkpt>
      <trkpt lat="45.38858" lon="5.80787">
        <ele>1557</ele>
        <time>2012-07-21T05:01:17.1Z</time>
      </trkpt>
      <trkpt lat="45.38857" lon="5.8079">
        <ele>1556</ele>
        <time>2012-07-21T05:01:19.1Z</time>
      </trkpt>
      <trkpt lat="45.38856" lon="5.80795">
        <ele>1556</ele>
        <time>2012-07-21T05:01:21.1Z</time>
      </trkpt>
      <trkpt lat="45.38855" lon="5.80798">
        <ele>1557</ele>
        <time>2012-07-21T05:01:23.1Z</time>
      </trkpt>
      <trkpt lat="45.38854" lon="5.80801">
        <ele>1557</ele>
        <time>2012-07-21T05:01:25.1Z</time>
      </trkpt>
      <trkpt lat="45.38853" lon="5.80803">
        <ele>1557</ele>
        <time>2012-07-21T05:01:28.1Z</time>
      </trkpt>
      <trkpt lat="45.3885" lon="5.80804">
        <ele>1557</ele>
        <time>2012-07-21T05:01:30.1Z</time>
      </trkpt>
      <trkpt lat="45.38848" lon="5.80805">
        <ele>1557</ele>
        <time>2012-07-21T05:01:32.1Z</time>
      </trkpt>
      <trkpt lat="45.38846" lon="5.80807">
        <ele>1557</ele>
        <time>2012-07-21T05:01:34.1Z</time>
      </trkpt>
      <trkpt lat="45.38843" lon="5.80808">
        <ele>1556</ele>
        <time>2012-07-21T05:01:36.1Z</time>
      </trkpt>
      <trkpt lat="45.38839" lon="5.8081">
        <ele>1556</ele>
        <time>2012-07-21T05:01:38.1Z</time>
      </trkpt>
      <trkpt lat="45.38837" lon="5.80811">
        <ele>1555</ele>
        <time>2012-07-21T05:01:40.1Z</time>
      </trkpt>
      <trkpt lat="45.38834" lon="5.80812">
        <ele>1555</ele>
        <time>2012-07-21T05:01:42.1Z</time>
      </trkpt>
      <trkpt lat="45.38831" lon="5.80813">
        <ele>1554</ele>
        <time>2012-07-21T05:01:44.1Z</time>
      </trkpt>
      <trkpt lat="45.38828" lon="5.80814">
        <ele>1554</ele>
        <time>2012-07-21T05:01:46.1Z</time>
      </trkpt>
      <trkpt lat="45.38826" lon="5.80817">
        <ele>1554</ele>
        <time>2012-07-21T05:01:48.1Z</time>
      </trkpt>
      <trkpt lat="45.38821" lon="5.80818">
        <ele>1554</ele>
        <time>2012-07-21T05:01:51.1Z</time>
      </trkpt>
      <trkpt lat="45.38818" lon="5.80818">
        <ele>1554</ele>
        <time>2012-07-21T05:01:53.1Z</time>
      </trkpt>
      <trkpt lat="45.38815" lon="5.80819">
        <ele>1554</ele>
        <time>2012-07-21T05:01:55.1Z</time>
      </trkpt>
      <trkpt lat="45.38812" lon="5.80821">
        <ele>1554</ele>
        <time>2012-07-21T05:01:57.1Z</time>
      </trkpt>
      <trkpt lat="45.3881" lon="5.80823">
        <ele>1554</ele>
        <time>2012-07-21T05:01:59.1Z</time>
      </trkpt>
      <trkpt lat="45.3881" lon="5.80827">
        <ele>1555</ele>
        <time>2012-07-21T05:02:01.1Z</time>
      </trkpt>
      <trkpt lat="45.38809" lon="5.80833">
        <ele>1555</ele>
        <time>2012-07-21T05:02:04.1Z</time>
      </trkpt>
      <trkpt lat="45.38807" lon="5.80837">
        <ele>1555</ele>
        <time>2012-07-21T05:02:06.1Z</time>
      </trkpt>
      <trkpt lat="45.38806" lon="5.8084">
        <ele>1555</ele>
        <time>2012-07-21T05:02:08.1Z</time>
      </trkpt>
      <trkpt lat="45.38804" lon="5.80842">
        <ele>1556</ele>
        <time>2012-07-21T05:02:10.1Z</time>
      </trkpt>
      <trkpt lat="45.38802" lon="5.80844">
        <ele>1556</ele>
        <time>2012-07-21T05:02:12.1Z</time>
      </trkpt>
      <trkpt lat="45.38802" lon="5.80847">
        <ele>1556</ele>
        <time>2012-07-21T05:02:14.1Z</time>
      </trkpt>
      <trkpt lat="45.38803" lon="5.80851">
        <ele>1556</ele>
        <time>2012-07-21T05:02:16.1Z</time>
      </trkpt>
      <trkpt lat="45.38803" lon="5.80855">
        <ele>1556</ele>
        <time>2012-07-21T05:02:18.1Z</time>
      </trkpt>
      <trkpt lat="45.38802" lon="5.80859">
        <ele>1557</ele>
        <time>2012-07-21T05:02:20.1Z</time>
      </trkpt>
      <trkpt lat="45.388" lon="5.80862">
        <ele>1556</ele>
        <time>2012-07-21T05:02:22.1Z</time>
      </trkpt>
      <trkpt lat="45.38798" lon="5.80864">
        <ele>1557</ele>
        <time>2012-07-21T05:02:24.1Z</time>
      </trkpt>
      <trkpt lat="45.38796" lon="5.80867">
        <ele>1557</ele>
        <time>2012-07-21T05:02:27.1Z</time>
      </trkpt>
      <trkpt lat="45.38795" lon="5.80869">
        <ele>1557</ele>
        <time>2012-07-21T05:02:29.1Z</time>
      </trkpt>
      <trkpt lat="45.38793" lon="5.80869">
        <ele>1557</ele>
        <time>2012-07-21T05:02:31.1Z</time>
      </trkpt>
      <trkpt lat="45.38794" lon="5.80866">
        <ele>1557</ele>
        <time>2012-07-21T05:02:33.1Z</time>
      </trkpt>
      <trkpt lat="45.38793" lon="5.80865">
        <ele>1558</ele>
        <time>2012-07-21T05:02:35.1Z</time>
      </trkpt>
      <trkpt lat="45.38792" lon="5.80863">
        <ele>1559</ele>
        <time>2012-07-21T05:02:37.1Z</time>
      </trkpt>
      <trkpt lat="45.38791" lon="5.8086">
        <ele>1559</ele>
        <time>2012-07-21T05:02:39.1Z</time>
      </trkpt>
      <trkpt lat="45.3879" lon="5.80857">
        <ele>1560</ele>
        <time>2012-07-21T05:02:41.1Z</time>
      </trkpt>
      <trkpt lat="45.38789" lon="5.80855">
        <ele>1568</ele>
        <time>2012-07-21T05:02:43.1Z</time>
      </trkpt>
      <trkpt lat="45.38788" lon="5.80856">
        <ele>1577</ele>
        <time>2012-07-21T05:02:45.1Z</time>
      </trkpt>
      <trkpt lat="45.38786" lon="5.80858">
        <ele>1586</ele>
        <time>2012-07-21T05:02:47.1Z</time>
      </trkpt>
      <trkpt lat="45.38784" lon="5.8086">
        <ele>1594</ele>
        <time>2012-07-21T05:02:49.1Z</time>
      </trkpt>
      <trkpt lat="45.38782" lon="5.80861">
        <ele>1595</ele>
        <time>2012-07-21T05:02:52.1Z</time>
      </trkpt>
      <trkpt lat="45.38781" lon="5.80863">
        <ele>1596</ele>
        <time>2012-07-21T05:02:54.1Z</time>
      </trkpt>
      <trkpt lat="45.38779" lon="5.80865">
        <ele>1596</ele>
        <time>2012-07-21T05:02:56.1Z</time>
      </trkpt>
      <trkpt lat="45.38777" lon="5.80864">
        <ele>1596</ele>
        <time>2012-07-21T05:02:58.1Z</time>
      </trkpt>
      <trkpt lat="45.38777" lon="5.80861">
        <ele>1597</ele>
        <time>2012-07-21T05:03:00.1Z</time>
      </trkpt>
      <trkpt lat="45.38776" lon="5.80859">
        <ele>1597</ele>
        <time>2012-07-21T05:03:02.1Z</time>
      </trkpt>
      <trkpt lat="45.38776" lon="5.80858">
        <ele>1598</ele>
        <time>2012-07-21T05:03:04.1Z</time>
      </trkpt>
      <trkpt lat="45.38775" lon="5.80855">
        <ele>1599</ele>
        <time>2012-07-21T05:03:06.1Z</time>
      </trkpt>
      <trkpt lat="45.38774" lon="5.80853">
        <ele>1600</ele>
        <time>2012-07-21T05:03:08.1Z</time>
      </trkpt>
      <trkpt lat="45.38773" lon="5.8085">
        <ele>1600</ele>
        <time>2012-07-21T05:03:11.1Z</time>
      </trkpt>
      <trkpt lat="45.38773" lon="5.80852">
        <ele>1601</ele>
        <time>2012-07-21T05:03:13.1Z</time>
      </trkpt>
      <trkpt lat="45.38771" lon="5.80854">
        <ele>1602</ele>
        <time>2012-07-21T05:03:15.1Z</time>
      </trkpt>
      <trkpt lat="45.3877" lon="5.80855">
        <ele>1603</ele>
        <time>2012-07-21T05:03:17.1Z</time>
      </trkpt>
      <trkpt lat="45.38769" lon="5.80857">
        <ele>1604</ele>
        <time>2012-07-21T05:03:19.1Z</time>
      </trkpt>
      <trkpt lat="45.38767" lon="5.80858">
        <ele>1605</ele>
        <time>2012-07-21T05:03:21.1Z</time>
      </trkpt>
      <trkpt lat="45.38766" lon="5.80857">
        <ele>1606</ele>
        <time>2012-07-21T05:03:23.1Z</time>
      </trkpt>
      <trkpt lat="45.38765" lon="5.80858">
        <ele>1606</ele>
        <time>2012-07-21T05:03:25.1Z</time>
      </trkpt>
      <trkpt lat="45.38763" lon="5.80859">
        <ele>1607</ele>
        <time>2012-07-21T05:03:28.1Z</time>
      </trkpt>
      <trkpt lat="45.38762" lon="5.80859">
        <ele>1608</ele>
        <time>2012-07-21T05:03:30.1Z</time>
      </trkpt>
      <trkpt lat="45.3876" lon="5.8086">
        <ele>1608</ele>
        <time>2012-07-21T05:03:32.1Z</time>
      </trkpt>
      <trkpt lat="45.38758" lon="5.8086">
        <ele>1609</ele>
        <time>2012-07-21T05:03:34.1Z</time>
      </trkpt>
      <trkpt lat="45.38757" lon="5.80862">
        <ele>1610</ele>
        <time>2012-07-21T05:03:36.1Z</time>
      </trkpt>
      <trkpt lat="45.38756" lon="5.80864">
        <ele>1610</ele>
        <time>2012-07-21T05:03:38.1Z</time>
      </trkpt>
      <trkpt lat="45.38754" lon="5.80866">
        <ele>1610</ele>
        <time>2012-07-21T05:03:40.1Z</time>
      </trkpt>
      <trkpt lat="45.38752" lon="5.80868">
        <ele>1611</ele>
        <time>2012-07-21T05:03:42.1Z</time>
      </trkpt>
      <trkpt lat="45.38749" lon="5.8087">
        <ele>1611</ele>
        <time>2012-07-21T05:03:44.1Z</time>
      </trkpt>
      <trkpt lat="45.38747" lon="5.8087">
        <ele>1612</ele>
        <time>2012-07-21T05:03:46.1Z</time>
      </trkpt>
      <trkpt lat="45.38745" lon="5.8087">
        <ele>1612</ele>
        <time>2012-07-21T05:03:49.1Z</time>
      </trkpt>
      <trkpt lat="45.38743" lon="5.80871">
        <ele>1613</ele>
        <time>2012-07-21T05:03:51.1Z</time>
      </trkpt>
      <trkpt lat="45.3874" lon="5.80871">
        <ele>1614</ele>
        <time>2012-07-21T05:03:53.1Z</time>
      </trkpt>
      <trkpt lat="45.38737" lon="5.80871">
        <ele>1614</ele>
        <time>2012-07-21T05:03:55.1Z</time>
      </trkpt>
      <trkpt lat="45.38734" lon="5.80872">
        <ele>1615</ele>
        <time>2012-07-21T05:03:57.1Z</time>
      </trkpt>
      <trkpt lat="45.38732" lon="5.80872">
        <ele>1615</ele>
        <time>2012-07-21T05:03:59.1Z</time>
      </trkpt>
      <trkpt lat="45.3873" lon="5.80873">
        <ele>1615</ele>
        <time>2012-07-21T05:04:01.1Z</time>
      </trkpt>
      <trkpt lat="45.38727" lon="5.80874">
        <ele>1616</ele>
        <time>2012-07-21T05:04:03.1Z</time>
      </trkpt>
      <trkpt lat="45.38725" lon="5.80875">
        <ele>1616</ele>
        <time>2012-07-21T05:04:05.1Z</time>
      </trkpt>
      <trkpt lat="45.38723" lon="5.80876">
        <ele>1616</ele>
        <time>2012-07-21T05:04:07.1Z</time>
      </trkpt>
      <trkpt lat="45.3872" lon="5.80874">
        <ele>1616</ele>
        <time>2012-07-21T05:04:09.1Z</time>
      </trkpt>
      <trkpt lat="45.3872" lon="5.80872">
        <ele>1617</ele>
        <time>2012-07-21T05:04:11.1Z</time>
      </trkpt>
      <trkpt lat="45.38719" lon="5.8087">
        <ele>1617</ele>
        <time>2012-07-21T05:04:13.1Z</time>
      </trkpt>
      <trkpt lat="45.38719" lon="5.80869">
        <ele>1617</ele>
        <time>2012-07-21T05:04:16.1Z</time>
      </trkpt>
      <trkpt lat="45.38719" lon="5.80868">
        <ele>1617</ele>
        <time>2012-07-21T05:04:18.1Z</time>
      </trkpt>
      <trkpt lat="45.38719" lon="5.80868">
        <ele>1617</ele>
        <time>2012-07-21T05:04:20.1Z</time>
      </trkpt>
      <trkpt lat="45.38719" lon="5.80868">
        <ele>1617</ele>
        <time>2012-07-21T05:04:22.1Z</time>
      </trkpt>
      <trkpt lat="45.38718" lon="5.80868">
        <ele>1617</ele>
        <time>2012-07-21T05:04:24.1Z</time>
      </trkpt>
      <trkpt lat="45.38718" lon="5.80868">
        <ele>1617</ele>
        <time>2012-07-21T05:04:26.1Z</time>
      </trkpt>
      <trkpt lat="45.38718" lon="5.80868">
        <ele>1617</ele>
        <time>2012-07-21T05:04:28.1Z</time>
      </trkpt>
      <trkpt lat="45.38719" lon="5.80868">
        <ele>1617</ele>
        <time>2012-07-21T05:04:30.1Z</time>
      </trkpt>
      <trkpt lat="45.38718" lon="5.80867">
        <ele>1618</ele>
        <time>2012-07-21T05:04:33.1Z</time>
      </trkpt>
      <trkpt lat="45.38718" lon="5.80865">
        <ele>1618</ele>
        <time>2012-07-21T05:04:35.1Z</time>
      </trkpt>
      <trkpt lat="45.38718" lon="5.80864">
        <ele>1618</ele>
        <time>2012-07-21T05:04:37.1Z</time>
      </trkpt>
      <trkpt lat="45.38717" lon="5.80861">
        <ele>1618</ele>
        <time>2012-07-21T05:04:39.1Z</time>
      </trkpt>
      <trkpt lat="45.38717" lon="5.80859">
        <ele>1618</ele>
        <time>2012-07-21T05:04:41.1Z</time>
      </trkpt>
      <trkpt lat="45.38716" lon="5.80856">
        <ele>1618</ele>
        <time>2012-07-21T05:04:43.1Z</time>
      </trkpt>
      <trkpt lat="45.38716" lon="5.80854">
        <ele>1618</ele>
        <time>2012-07-21T05:04:45.1Z</time>
      </trkpt>
      <trkpt lat="45.38716" lon="5.80851">
        <ele>1618</ele>
        <time>2012-07-21T05:04:47.1Z</time>
      </trkpt>
      <trkpt lat="45.38716" lon="5.80848">
        <ele>1618</ele>
        <time>2012-07-21T05:04:49.1Z</time>
      </trkpt>
      <trkpt lat="45.38716" lon="5.80845">
        <ele>1618</ele>
        <time>2012-07-21T05:04:51.1Z</time>
      </trkpt>
      <trkpt lat="45.38716" lon="5.80844">
        <ele>1618</ele>
        <time>2012-07-21T05:04:53.1Z</time>
      </trkpt>
      <trkpt lat="45.38716" lon="5.80842">
        <ele>1619</ele>
        <time>2012-07-21T05:04:55.1Z</time>
      </trkpt>
      <trkpt lat="45.38716" lon="5.8084">
        <ele>1619</ele>
        <time>2012-07-21T05:04:57.1Z</time>
      </trkpt>
      <trkpt lat="45.38716" lon="5.8084">
        <ele>1619</ele>
        <time>2012-07-21T05:04:59.1Z</time>
      </trkpt>
      <trkpt lat="45.38716" lon="5.8084">
        <ele>1619</ele>
        <time>2012-07-21T05:05:02.1Z</time>
      </trkpt>
      <trkpt lat="45.38716" lon="5.80837">
        <ele>1619</ele>
        <time>2012-07-21T05:05:04.1Z</time>
      </trkpt>
      <trkpt lat="45.38715" lon="5.80834">
        <ele>1620</ele>
        <time>2012-07-21T05:05:06.1Z</time>
      </trkpt>
      <trkpt lat="45.38714" lon="5.80832">
        <ele>1620</ele>
        <time>2012-07-21T05:05:08.1Z</time>
      </trkpt>
      <trkpt lat="45.38714" lon="5.80829">
        <ele>1620</ele>
        <time>2012-07-21T05:05:10.1Z</time>
      </trkpt>
      <trkpt lat="45.38713" lon="5.80826">
        <ele>1621</ele>
        <time>2012-07-21T05:05:12.1Z</time>
      </trkpt>
      <trkpt lat="45.38712" lon="5.80822">
        <ele>1621</ele>
        <time>2012-07-21T05:05:15.1Z</time>
      </trkpt>
      <trkpt lat="45.38711" lon="5.80819">
        <ele>1622</ele>
        <time>2012-07-21T05:05:17.1Z</time>
      </trkpt>
      <trkpt lat="45.3871" lon="5.80815">
        <ele>1622</ele>
        <time>2012-07-21T05:05:19.1Z</time>
      </trkpt>
      <trkpt lat="45.3871" lon="5.80813">
        <ele>1623</ele>
        <time>2012-07-21T05:05:21.1Z</time>
      </trkpt>
      <trkpt lat="45.38709" lon="5.80809">
        <ele>1623</ele>
        <time>2012-07-21T05:05:23.1Z</time>
      </trkpt>
      <trkpt lat="45.38708" lon="5.80807">
        <ele>1623</ele>
        <time>2012-07-21T05:05:25.1Z</time>
      </trkpt>
      <trkpt lat="45.38708" lon="5.80804">
        <ele>1623</ele>
        <time>2012-07-21T05:05:27.1Z</time>
      </trkpt>
      <trkpt lat="45.38707" lon="5.808">
        <ele>1624</ele>
        <time>2012-07-21T05:05:30.1Z</time>
      </trkpt>
      <trkpt lat="45.38707" lon="5.80796">
        <ele>1624</ele>
        <time>2012-07-21T05:05:32.1Z</time>
      </trkpt>
      <trkpt lat="45.38707" lon="5.80793">
        <ele>1625</ele>
        <time>2012-07-21T05:05:34.1Z</time>
      </trkpt>
      <trkpt lat="45.38706" lon="5.8079">
        <ele>1625</ele>
        <time>2012-07-21T05:05:36.1Z</time>
      </trkpt>
      <trkpt lat="45.38706" lon="5.80787">
        <ele>1625</ele>
        <time>2012-07-21T05:05:38.1Z</time>
      </trkpt>
      <trkpt lat="45.38706" lon="5.80784">
        <ele>1626</ele>
        <time>2012-07-21T05:05:40.1Z</time>
      </trkpt>
      <trkpt lat="45.38706" lon="5.80781">
        <ele>1626</ele>
        <time>2012-07-21T05:05:42.1Z</time>
      </trkpt>
      <trkpt lat="45.38706" lon="5.80778">
        <ele>1626</ele>
        <time>2012-07-21T05:05:44.1Z</time>
      </trkpt>
      <trkpt lat="45.38706" lon="5.80774">
        <ele>1627</ele>
        <time>2012-07-21T05:05:47.1Z</time>
      </trkpt>
      <trkpt lat="45.38705" lon="5.80771">
        <ele>1628</ele>
        <time>2012-07-21T05:05:49.1Z</time>
      </trkpt>
      <trkpt lat="45.38705" lon="5.80769">
        <ele>1628</ele>
        <time>2012-07-21T05:05:51.1Z</time>
      </trkpt>
      <trkpt lat="45.38705" lon="5.80766">
        <ele>1629</ele>
        <time>2012-07-21T05:05:53.1Z</time>
      </trkpt>
      <trkpt lat="45.38705" lon="5.80764">
        <ele>1629</ele>
        <time>2012-07-21T05:05:55.1Z</time>
      </trkpt>
      <trkpt lat="45.38705" lon="5.8076">
        <ele>1629</ele>
        <time>2012-07-21T05:05:57.1Z</time>
      </trkpt>
      <trkpt lat="45.38705" lon="5.80758">
        <ele>1630</ele>
        <time>2012-07-21T05:06:00.1Z</time>
      </trkpt>
      <trkpt lat="45.38705" lon="5.80754">
        <ele>1630</ele>
        <time>2012-07-21T05:06:02.1Z</time>
      </trkpt>
      <trkpt lat="45.38704" lon="5.8075">
        <ele>1631</ele>
        <time>2012-07-21T05:06:04.1Z</time>
      </trkpt>
      <trkpt lat="45.38704" lon="5.80748">
        <ele>1631</ele>
        <time>2012-07-21T05:06:06.1Z</time>
      </trkpt>
      <trkpt lat="45.38703" lon="5.80746">
        <ele>1632</ele>
        <time>2012-07-21T05:06:08.1Z</time>
      </trkpt>
      <trkpt lat="45.38703" lon="5.80744">
        <ele>1632</ele>
        <time>2012-07-21T05:06:10.1Z</time>
      </trkpt>
      <trkpt lat="45.38702" lon="5.80742">
        <ele>1633</ele>
        <time>2012-07-21T05:06:12.1Z</time>
      </trkpt>
      <trkpt lat="45.38702" lon="5.8074">
        <ele>1633</ele>
        <time>2012-07-21T05:06:14.1Z</time>
      </trkpt>
      <trkpt lat="45.38702" lon="5.80738">
        <ele>1634</ele>
        <time>2012-07-21T05:06:16.1Z</time>
      </trkpt>
      <trkpt lat="45.38703" lon="5.80736">
        <ele>1634</ele>
        <time>2012-07-21T05:06:18.1Z</time>
      </trkpt>
      <trkpt lat="45.38703" lon="5.80734">
        <ele>1635</ele>
        <time>2012-07-21T05:06:20.1Z</time>
      </trkpt>
      <trkpt lat="45.38703" lon="5.80731">
        <ele>1635</ele>
        <time>2012-07-21T05:06:22.1Z</time>
      </trkpt>
      <trkpt lat="45.38703" lon="5.80729">
        <ele>1636</ele>
        <time>2012-07-21T05:06:24.1Z</time>
      </trkpt>
      <trkpt lat="45.38703" lon="5.80727">
        <ele>1636</ele>
        <time>2012-07-21T05:06:27.1Z</time>
      </trkpt>
      <trkpt lat="45.38704" lon="5.80724">
        <ele>1637</ele>
        <time>2012-07-21T05:06:29.1Z</time>
      </trkpt>
      <trkpt lat="45.38704" lon="5.80723">
        <ele>1637</ele>
        <time>2012-07-21T05:06:31.1Z</time>
      </trkpt>
      <trkpt lat="45.38704" lon="5.80721">
        <ele>1638</ele>
        <time>2012-07-21T05:06:33.1Z</time>
      </trkpt>
      <trkpt lat="45.38704" lon="5.80719">
        <ele>1639</ele>
        <time>2012-07-21T05:06:35.1Z</time>
      </trkpt>
      <trkpt lat="45.38704" lon="5.80719">
        <ele>1639</ele>
        <time>2012-07-21T05:06:37.1Z</time>
      </trkpt>
      <trkpt lat="45.38703" lon="5.80717">
        <ele>1640</ele>
        <time>2012-07-21T05:06:39.1Z</time>
      </trkpt>
      <trkpt lat="45.38703" lon="5.80715">
        <ele>1641</ele>
        <time>2012-07-21T05:06:41.1Z</time>
      </trkpt>
      <trkpt lat="45.38704" lon="5.80714">
        <ele>1642</ele>
        <time>2012-07-21T05:06:43.1Z</time>
      </trkpt>
      <trkpt lat="45.38704" lon="5.80711">
        <ele>1642</ele>
        <time>2012-07-21T05:06:45.1Z</time>
      </trkpt>
      <trkpt lat="45.38705" lon="5.80708">
        <ele>1643</ele>
        <time>2012-07-21T05:06:48.1Z</time>
      </trkpt>
      <trkpt lat="45.38705" lon="5.80707">
        <ele>1643</ele>
        <time>2012-07-21T05:06:50.1Z</time>
      </trkpt>
      <trkpt lat="45.38706" lon="5.80705">
        <ele>1644</ele>
        <time>2012-07-21T05:06:52.1Z</time>
      </trkpt>
      <trkpt lat="45.38706" lon="5.80703">
        <ele>1644</ele>
        <time>2012-07-21T05:06:54.1Z</time>
      </trkpt>
      <trkpt lat="45.38706" lon="5.80701">
        <ele>1645</ele>
        <time>2012-07-21T05:06:56.1Z</time>
      </trkpt>
      <trkpt lat="45.38707" lon="5.80699">
        <ele>1646</ele>
        <time>2012-07-21T05:06:58.1Z</time>
      </trkpt>
      <trkpt lat="45.38707" lon="5.80698">
        <ele>1646</ele>
        <time>2012-07-21T05:07:00.1Z</time>
      </trkpt>
      <trkpt lat="45.38707" lon="5.80695">
        <ele>1647</ele>
        <time>2012-07-21T05:07:03.1Z</time>
      </trkpt>
      <trkpt lat="45.38708" lon="5.80692">
        <ele>1648</ele>
        <time>2012-07-21T05:07:05.1Z</time>
      </trkpt>
      <trkpt lat="45.38708" lon="5.8069">
        <ele>1648</ele>
        <time>2012-07-21T05:07:07.1Z</time>
      </trkpt>
      <trkpt lat="45.3871" lon="5.80688">
        <ele>1649</ele>
        <time>2012-07-21T05:07:09.1Z</time>
      </trkpt>
      <trkpt lat="45.38711" lon="5.80687">
        <ele>1649</ele>
        <time>2012-07-21T05:07:11.1Z</time>
      </trkpt>
      <trkpt lat="45.38711" lon="5.80686">
        <ele>1649</ele>
        <time>2012-07-21T05:07:13.1Z</time>
      </trkpt>
      <trkpt lat="45.38712" lon="5.80685">
        <ele>1650</ele>
        <time>2012-07-21T05:07:15.1Z</time>
      </trkpt>
      <trkpt lat="45.38712" lon="5.80684">
        <ele>1650</ele>
        <time>2012-07-21T05:07:17.1Z</time>
      </trkpt>
      <trkpt lat="45.38713" lon="5.80682">
        <ele>1651</ele>
        <time>2012-07-21T05:07:19.1Z</time>
      </trkpt>
      <trkpt lat="45.38714" lon="5.80681">
        <ele>1651</ele>
        <time>2012-07-21T05:07:21.1Z</time>
      </trkpt>
      <trkpt lat="45.38716" lon="5.8068">
        <ele>1652</ele>
        <time>2012-07-21T05:07:23.1Z</time>
      </trkpt>
      <trkpt lat="45.38717" lon="5.80679">
        <ele>1652</ele>
        <time>2012-07-21T05:07:26.1Z</time>
      </trkpt>
      <trkpt lat="45.38717" lon="5.80677">
        <ele>1653</ele>
        <time>2012-07-21T05:07:28.1Z</time>
      </trkpt>
      <trkpt lat="45.38718" lon="5.80676">
        <ele>1653</ele>
        <time>2012-07-21T05:07:30.1Z</time>
      </trkpt>
      <trkpt lat="45.3872" lon="5.80674">
        <ele>1654</ele>
        <time>2012-07-21T05:07:32.1Z</time>
      </trkpt>
      <trkpt lat="45.38721" lon="5.80672">
        <ele>1654</ele>
        <time>2012-07-21T05:07:34.1Z</time>
      </trkpt>
      <trkpt lat="45.38721" lon="5.8067">
        <ele>1655</ele>
        <time>2012-07-21T05:07:36.1Z</time>
      </trkpt>
      <trkpt lat="45.38723" lon="5.80669">
        <ele>1656</ele>
        <time>2012-07-21T05:07:38.1Z</time>
      </trkpt>
      <trkpt lat="45.38725" lon="5.80667">
        <ele>1656</ele>
        <time>2012-07-21T05:07:40.1Z</time>
      </trkpt>
      <trkpt lat="45.38726" lon="5.80665">
        <ele>1657</ele>
        <time>2012-07-21T05:07:42.1Z</time>
      </trkpt>
      <trkpt lat="45.38728" lon="5.80663">
        <ele>1658</ele>
        <time>2012-07-21T05:07:44.1Z</time>
      </trkpt>
      <trkpt lat="45.3873" lon="5.80661">
        <ele>1658</ele>
        <time>2012-07-21T05:07:47.1Z</time>
      </trkpt>
      <trkpt lat="45.38732" lon="5.80659">
        <ele>1659</ele>
        <time>2012-07-21T05:07:49.1Z</time>
      </trkpt>
      <trkpt lat="45.38734" lon="5.80657">
        <ele>1660</ele>
        <time>2012-07-21T05:07:51.1Z</time>
      </trkpt>
      <trkpt lat="45.38735" lon="5.80655">
        <ele>1660</ele>
        <time>2012-07-21T05:07:53.1Z</time>
      </trkpt>
      <trkpt lat="45.38737" lon="5.80653">
        <ele>1661</ele>
        <time>2012-07-21T05:07:55.1Z</time>
      </trkpt>
      <trkpt lat="45.38737" lon="5.80651">
        <ele>1661</ele>
        <time>2012-07-21T05:07:57.1Z</time>
      </trkpt>
      <trkpt lat="45.38738" lon="5.80648">
        <ele>1662</ele>
        <time>2012-07-21T05:07:59.1Z</time>
      </trkpt>
      <trkpt lat="45.3874" lon="5.80646">
        <ele>1662</ele>
        <time>2012-07-21T05:08:01.1Z</time>
      </trkpt>
      <trkpt lat="45.38741" lon="5.80643">
        <ele>1663</ele>
        <time>2012-07-21T05:08:03.1Z</time>
      </trkpt>
      <trkpt lat="45.38742" lon="5.80641">
        <ele>1664</ele>
        <time>2012-07-21T05:08:05.1Z</time>
      </trkpt>
      <trkpt lat="45.38743" lon="5.80638">
        <ele>1665</ele>
        <time>2012-07-21T05:08:07.1Z</time>
      </trkpt>
      <trkpt lat="45.38744" lon="5.80636">
        <ele>1666</ele>
        <time>2012-07-21T05:08:09.1Z</time>
      </trkpt>
      <trkpt lat="45.38747" lon="5.8063">
        <ele>1666</ele>
        <time>2012-07-21T05:08:12.1Z</time>
      </trkpt>
      <trkpt lat="45.38748" lon="5.80625">
        <ele>1666</ele>
        <time>2012-07-21T05:08:14.1Z</time>
      </trkpt>
      <trkpt lat="45.38749" lon="5.8062">
        <ele>1666</ele>
        <time>2012-07-21T05:08:16.1Z</time>
      </trkpt>
      <trkpt lat="45.3875" lon="5.80616">
        <ele>1666</ele>
        <time>2012-07-21T05:08:18.1Z</time>
      </trkpt>
      <trkpt lat="45.38751" lon="5.8061">
        <ele>1667</ele>
        <time>2012-07-21T05:08:20.1Z</time>
      </trkpt>
      <trkpt lat="45.38752" lon="5.80606">
        <ele>1668</ele>
        <time>2012-07-21T05:08:22.1Z</time>
      </trkpt>
      <trkpt lat="45.38754" lon="5.80601">
        <ele>1668</ele>
        <time>2012-07-21T05:08:24.1Z</time>
      </trkpt>
      <trkpt lat="45.38756" lon="5.80596">
        <ele>1669</ele>
        <time>2012-07-21T05:08:26.1Z</time>
      </trkpt>
      <trkpt lat="45.38759" lon="5.80592">
        <ele>1669</ele>
        <time>2012-07-21T05:08:28.1Z</time>
      </trkpt>
      <trkpt lat="45.38762" lon="5.80588">
        <ele>1669</ele>
        <time>2012-07-21T05:08:30.1Z</time>
      </trkpt>
      <trkpt lat="45.38766" lon="5.80582">
        <ele>1669</ele>
        <time>2012-07-21T05:08:33.1Z</time>
      </trkpt>
      <trkpt lat="45.38768" lon="5.80578">
        <ele>1669</ele>
        <time>2012-07-21T05:08:35.1Z</time>
      </trkpt>
      <trkpt lat="45.3877" lon="5.80574">
        <ele>1669</ele>
        <time>2012-07-21T05:08:37.1Z</time>
      </trkpt>
      <trkpt lat="45.38772" lon="5.8057">
        <ele>1669</ele>
        <time>2012-07-21T05:08:39.1Z</time>
      </trkpt>
      <trkpt lat="45.38774" lon="5.80567">
        <ele>1670</ele>
        <time>2012-07-21T05:08:41.1Z</time>
      </trkpt>
      <trkpt lat="45.38776" lon="5.80563">
        <ele>1671</ele>
        <time>2012-07-21T05:08:43.1Z</time>
      </trkpt>
      <trkpt lat="45.38778" lon="5.80559">
        <ele>1671</ele>
        <time>2012-07-21T05:08:45.1Z</time>
      </trkpt>
      <trkpt lat="45.38779" lon="5.80556">
        <ele>1672</ele>
        <time>2012-07-21T05:08:47.1Z</time>
      </trkpt>
      <trkpt lat="45.3878" lon="5.80553">
        <ele>1672</ele>
        <time>2012-07-21T05:08:49.1Z</time>
      </trkpt>
      <trkpt lat="45.38782" lon="5.80549">
        <ele>1673</ele>
        <time>2012-07-21T05:08:51.1Z</time>
      </trkpt>
      <trkpt lat="45.38784" lon="5.80547">
        <ele>1674</ele>
        <time>2012-07-21T05:08:53.1Z</time>
      </trkpt>
      <trkpt lat="45.38785" lon="5.80544">
        <ele>1674</ele>
        <time>2012-07-21T05:08:55.1Z</time>
      </trkpt>
      <trkpt lat="45.38786" lon="5.80541">
        <ele>1675</ele>
        <time>2012-07-21T05:08:57.1Z</time>
      </trkpt>
      <trkpt lat="45.38787" lon="5.80538">
        <ele>1676</ele>
        <time>2012-07-21T05:08:59.1Z</time>
      </trkpt>
      <trkpt lat="45.38786" lon="5.80535">
        <ele>1677</ele>
        <time>2012-07-21T05:09:01.1Z</time>
      </trkpt>
      <trkpt lat="45.38784" lon="5.80534">
        <ele>1678</ele>
        <time>2012-07-21T05:09:03.1Z</time>
      </trkpt>
      <trkpt lat="45.38782" lon="5.80531">
        <ele>1679</ele>
        <time>2012-07-21T05:09:06.1Z</time>
      </trkpt>
      <trkpt lat="45.38783" lon="5.80528">
        <ele>1679</ele>
        <time>2012-07-21T05:09:08.1Z</time>
      </trkpt>
      <trkpt lat="45.38784" lon="5.80527">
        <ele>1679</ele>
        <time>2012-07-21T05:09:10.1Z</time>
      </trkpt>
      <trkpt lat="45.38785" lon="5.80525">
        <ele>1680</ele>
        <time>2012-07-21T05:09:12.1Z</time>
      </trkpt>
      <trkpt lat="45.38786" lon="5.80524">
        <ele>1681</ele>
        <time>2012-07-21T05:09:14.1Z</time>
      </trkpt>
      <trkpt lat="45.38787" lon="5.80523">
        <ele>1682</ele>
        <time>2012-07-21T05:09:16.1Z</time>
      </trkpt>
      <trkpt lat="45.38788" lon="5.80521">
        <ele>1683</ele>
        <time>2012-07-21T05:09:18.1Z</time>
      </trkpt>
      <trkpt lat="45.38789" lon="5.8052">
        <ele>1683</ele>
        <time>2012-07-21T05:09:20.1Z</time>
      </trkpt>
      <trkpt lat="45.38789" lon="5.80521">
        <ele>1683</ele>
        <time>2012-07-21T05:09:22.1Z</time>
      </trkpt>
      <trkpt lat="45.38789" lon="5.8052">
        <ele>1683</ele>
        <time>2012-07-21T05:09:24.1Z</time>
      </trkpt>
      <trkpt lat="45.38789" lon="5.8052">
        <ele>1683</ele>
        <time>2012-07-21T05:09:26.1Z</time>
      </trkpt>
      <trkpt lat="45.38789" lon="5.8052">
        <ele>1683</ele>
        <time>2012-07-21T05:09:28.1Z</time>
      </trkpt>
      <trkpt lat="45.38789" lon="5.80521">
        <ele>1683</ele>
        <time>2012-07-21T05:09:31.1Z</time>
      </trkpt>
      <trkpt lat="45.38789" lon="5.80521">
        <ele>1683</ele>
        <time>2012-07-21T05:09:33.1Z</time>
      </trkpt>
      <trkpt lat="45.38789" lon="5.80521">
        <ele>1683</ele>
        <time>2012-07-21T05:09:35.1Z</time>
      </trkpt>
      <trkpt lat="45.38789" lon="5.80521">
        <ele>1683</ele>
        <time>2012-07-21T05:09:37.1Z</time>
      </trkpt>
      <trkpt lat="45.38789" lon="5.80521">
        <ele>1683</ele>
        <time>2012-07-21T05:09:39.1Z</time>
      </trkpt>
      <trkpt lat="45.38789" lon="5.80521">
        <ele>1684</ele>
        <time>2012-07-21T05:09:41.1Z</time>
      </trkpt>
      <trkpt lat="45.38788" lon="5.8052">
        <ele>1684</ele>
        <time>2012-07-21T05:09:43.1Z</time>
      </trkpt>
      <trkpt lat="45.38788" lon="5.8052">
        <ele>1684</ele>
        <time>2012-07-21T05:09:46.1Z</time>
      </trkpt>
      <trkpt lat="45.38788" lon="5.80521">
        <ele>1684</ele>
        <time>2012-07-21T05:09:48.1Z</time>
      </trkpt>
      <trkpt lat="45.38788" lon="5.80521">
        <ele>1683</ele>
        <time>2012-07-21T05:09:50.1Z</time>
      </trkpt>
      <trkpt lat="45.38788" lon="5.8052">
        <ele>1683</ele>
        <time>2012-07-21T05:09:52.1Z</time>
      </trkpt>
      <trkpt lat="45.38788" lon="5.8052">
        <ele>1682</ele>
        <time>2012-07-21T05:09:54.1Z</time>
      </trkpt>
      <trkpt lat="45.38789" lon="5.80521">
        <ele>1682</ele>
        <time>2012-07-21T05:09:56.1Z</time>
      </trkpt>
      <trkpt lat="45.3879" lon="5.80521">
        <ele>1683</ele>
        <time>2012-07-21T05:09:58.1Z</time>
      </trkpt>
      <trkpt lat="45.3879" lon="5.80521">
        <ele>1683</ele>
        <time>2012-07-21T05:10:01.1Z</time>
      </trkpt>
      <trkpt lat="45.38791" lon="5.80521">
        <ele>1683</ele>
        <time>2012-07-21T05:10:03.1Z</time>
      </trkpt>
      <trkpt lat="45.38791" lon="5.80521">
        <ele>1682</ele>
        <time>2012-07-21T05:10:05.1Z</time>
      </trkpt>
      <trkpt lat="45.38791" lon="5.8052">
        <ele>1682</ele>
        <time>2012-07-21T05:10:07.1Z</time>
      </trkpt>
      <trkpt lat="45.38791" lon="5.80521">
        <ele>1682</ele>
        <time>2012-07-21T05:10:09.1Z</time>
      </trkpt>
      <trkpt lat="45.38791" lon="5.80521">
        <ele>1682</ele>
        <time>2012-07-21T05:10:12.1Z</time>
      </trkpt>
      <trkpt lat="45.38791" lon="5.80521">
        <ele>1682</ele>
        <time>2012-07-21T05:10:14.1Z</time>
      </trkpt>
      <trkpt lat="45.38791" lon="5.80522">
        <ele>1682</ele>
        <time>2012-07-21T05:10:16.1Z</time>
      </trkpt>
      <trkpt lat="45.38791" lon="5.80522">
        <ele>1682</ele>
        <time>2012-07-21T05:10:18.1Z</time>
      </trkpt>
      <trkpt lat="45.38791" lon="5.80522">
        <ele>1683</ele>
        <time>2012-07-21T05:10:20.1Z</time>
      </trkpt>
      <trkpt lat="45.38791" lon="5.80522">
        <ele>1683</ele>
        <time>2012-07-21T05:10:22.1Z</time>
      </trkpt>
      <trkpt lat="45.3879" lon="5.80522">
        <ele>1683</ele>
        <time>2012-07-21T05:10:24.1Z</time>
      </trkpt>
      <trkpt lat="45.3879" lon="5.80522">
        <ele>1683</ele>
        <time>2012-07-21T05:10:26.1Z</time>
      </trkpt>
      <trkpt lat="45.38789" lon="5.80523">
        <ele>1682</ele>
        <time>2012-07-21T05:10:29.1Z</time>
      </trkpt>
      <trkpt lat="45.38788" lon="5.80524">
        <ele>1682</ele>
        <time>2012-07-21T05:10:31.1Z</time>
      </trkpt>
      <trkpt lat="45.38787" lon="5.80526">
        <ele>1681</ele>
        <time>2012-07-21T05:10:33.1Z</time>
      </trkpt>
      <trkpt lat="45.38786" lon="5.80528">
        <ele>1681</ele>
        <time>2012-07-21T05:10:35.1Z</time>
      </trkpt>
      <trkpt lat="45.38786" lon="5.80528">
        <ele>1680</ele>
        <time>2012-07-21T05:10:37.1Z</time>
      </trkpt>
      <trkpt lat="45.38786" lon="5.80528">
        <ele>1680</ele>
        <time>2012-07-21T05:10:39.1Z</time>
      </trkpt>
      <trkpt lat="45.38786" lon="5.80528">
        <ele>1681</ele>
        <time>2012-07-21T05:10:41.1Z</time>
      </trkpt>
      <trkpt lat="45.38786" lon="5.80528">
        <ele>1681</ele>
        <time>2012-07-21T05:10:43.1Z</time>
      </trkpt>
      <trkpt lat="45.38785" lon="5.80528">
        <ele>1682</ele>
        <time>2012-07-21T05:10:45.1Z</time>
      </trkpt>
      <trkpt lat="45.38785" lon="5.80528">
        <ele>1682</ele>
        <time>2012-07-21T05:10:47.1Z</time>
      </trkpt>
      <trkpt lat="45.38785" lon="5.80528">
        <ele>1681</ele>
        <time>2012-07-21T05:10:49.1Z</time>
      </trkpt>
      <trkpt lat="45.38785" lon="5.8053">
        <ele>1681</ele>
        <time>2012-07-21T05:10:51.1Z</time>
      </trkpt>
      <trkpt lat="45.38785" lon="5.80535">
        <ele>1680</ele>
        <time>2012-07-21T05:10:53.1Z</time>
      </trkpt>
      <trkpt lat="45.38782" lon="5.80536">
        <ele>1679</ele>
        <time>2012-07-21T05:10:55.1Z</time>
      </trkpt>
      <trkpt lat="45.38781" lon="5.80539">
        <ele>1679</ele>
        <time>2012-07-21T05:10:57.1Z</time>
      </trkpt>
      <trkpt lat="45.3878" lon="5.80541">
        <ele>1678</ele>
        <time>2012-07-21T05:11:00.1Z</time>
      </trkpt>
      <trkpt lat="45.38779" lon="5.80543">
        <ele>1678</ele>
        <time>2012-07-21T05:11:02.1Z</time>
      </trkpt>
      <trkpt lat="45.38776" lon="5.80546">
        <ele>1677</ele>
        <time>2012-07-21T05:11:04.1Z</time>
      </trkpt>
      <trkpt lat="45.38774" lon="5.80549">
        <ele>1677</ele>
        <time>2012-07-21T05:11:06.1Z</time>
      </trkpt>
      <trkpt lat="45.38772" lon="5.80553">
        <ele>1676</ele>
        <time>2012-07-21T05:11:08.1Z</time>
      </trkpt>
      <trkpt lat="45.38769" lon="5.80557">
        <ele>1674</ele>
        <time>2012-07-21T05:11:10.1Z</time>
      </trkpt>
      <trkpt lat="45.38764" lon="5.80559">
        <ele>1674</ele>
        <time>2012-07-21T05:11:12.1Z</time>
      </trkpt>
      <trkpt lat="45.3876" lon="5.80562">
        <ele>1673</ele>
        <time>2012-07-21T05:11:14.1Z</time>
      </trkpt>
      <trkpt lat="45.38757" lon="5.80565">
        <ele>1672</ele>
        <time>2012-07-21T05:11:16.1Z</time>
      </trkpt>
      <trkpt lat="45.38755" lon="5.80571">
        <ele>1673</ele>
        <time>2012-07-21T05:11:18.1Z</time>
      </trkpt>
      <trkpt lat="45.38755" lon="5.80578">
        <ele>1673</ele>
        <time>2012-07-21T05:11:20.1Z</time>
      </trkpt>
      <trkpt lat="45.38754" lon="5.80583">
        <ele>1673</ele>
        <time>2012-07-21T05:11:22.1Z</time>
      </trkpt>
      <trkpt lat="45.38748" lon="5.8059">
        <ele>1673</ele>
        <time>2012-07-21T05:11:25.1Z</time>
      </trkpt>
      <trkpt lat="45.38745" lon="5.80595">
        <ele>1672</ele>
        <time>2012-07-21T05:11:27.1Z</time>
      </trkpt>
      <trkpt lat="45.38744" lon="5.806">
        <ele>1673</ele>
        <time>2012-07-21T05:11:29.1Z</time>
      </trkpt>
      <trkpt lat="45.38742" lon="5.80605">
        <ele>1673</ele>
        <time>2012-07-21T05:11:31.1Z</time>
      </trkpt>
      <trkpt lat="45.38741" lon="5.80608">
        <ele>1673</ele>
        <time>2012-07-21T05:11:33.1Z</time>
      </trkpt>
      <trkpt lat="45.3874" lon="5.80612">
        <ele>1674</ele>
        <time>2012-07-21T05:11:35.1Z</time>
      </trkpt>
      <trkpt lat="45.38739" lon="5.80616">
        <ele>1675</ele>
        <time>2012-07-21T05:11:37.1Z</time>
      </trkpt>
      <trkpt lat="45.38737" lon="5.80618">
        <ele>1676</ele>
        <time>2012-07-21T05:11:39.1Z</time>
      </trkpt>
      <trkpt lat="45.38731" lon="5.80623">
        <ele>1675</ele>
        <time>2012-07-21T05:11:42.1Z</time>
      </trkpt>
      <trkpt lat="45.38727" lon="5.80626">
        <ele>1675</ele>
        <time>2012-07-21T05:11:44.1Z</time>
      </trkpt>
      <trkpt lat="45.38725" lon="5.80628">
        <ele>1675</ele>
        <time>2012-07-21T05:11:46.1Z</time>
      </trkpt>
      <trkpt lat="45.38723" lon="5.80629">
        <ele>1675</ele>
        <time>2012-07-21T05:11:48.1Z</time>
      </trkpt>
      <trkpt lat="45.3872" lon="5.80631">
        <ele>1675</ele>
        <time>2012-07-21T05:11:50.1Z</time>
      </trkpt>
      <trkpt lat="45.38718" lon="5.80632">
        <ele>1675</ele>
        <time>2012-07-21T05:11:52.1Z</time>
      </trkpt>
      <trkpt lat="45.38716" lon="5.80633">
        <ele>1674</ele>
        <time>2012-07-21T05:11:54.1Z</time>
      </trkpt>
      <trkpt lat="45.38713" lon="5.80633">
        <ele>1674</ele>
        <time>2012-07-21T05:11:56.1Z</time>
      </trkpt>
      <trkpt lat="45.3871" lon="5.80633">
        <ele>1673</ele>
        <time>2012-07-21T05:11:58.1Z</time>
      </trkpt>
      <trkpt lat="45.38707" lon="5.80633">
        <ele>1673</ele>
        <time>2012-07-21T05:12:00.1Z</time>
      </trkpt>
      <trkpt lat="45.38703" lon="5.80633">
        <ele>1672</ele>
        <time>2012-07-21T05:12:02.1Z</time>
      </trkpt>
      <trkpt lat="45.387" lon="5.80633">
        <ele>1671</ele>
        <time>2012-07-21T05:12:04.1Z</time>
      </trkpt>
      <trkpt lat="45.38698" lon="5.80634">
        <ele>1670</ele>
        <time>2012-07-21T05:12:06.1Z</time>
      </trkpt>
      <trkpt lat="45.38696" lon="5.80634">
        <ele>1669</ele>
        <time>2012-07-21T05:12:08.1Z</time>
      </trkpt>
      <trkpt lat="45.38693" lon="5.80633">
        <ele>1669</ele>
        <time>2012-07-21T05:12:10.1Z</time>
      </trkpt>
      <trkpt lat="45.3869" lon="5.80632">
        <ele>1668</ele>
        <time>2012-07-21T05:12:12.1Z</time>
      </trkpt>
      <trkpt lat="45.38688" lon="5.80632">
        <ele>1667</ele>
        <time>2012-07-21T05:12:14.1Z</time>
      </trkpt>
      <trkpt lat="45.38685" lon="5.80632">
        <ele>1666</ele>
        <time>2012-07-21T05:12:16.1Z</time>
      </trkpt>
      <trkpt lat="45.38683" lon="5.80631">
        <ele>1665</ele>
        <time>2012-07-21T05:12:18.1Z</time>
      </trkpt>
      <trkpt lat="45.38681" lon="5.80629">
        <ele>1664</ele>
        <time>2012-07-21T05:12:20.1Z</time>
      </trkpt>
      <trkpt lat="45.38678" lon="5.80627">
        <ele>1664</ele>
        <time>2012-07-21T05:12:23.1Z</time>
      </trkpt>
      <trkpt lat="45.38675" lon="5.80628">
        <ele>1663</ele>
        <time>2012-07-21T05:12:25.1Z</time>
      </trkpt>
      <trkpt lat="45.38673" lon="5.80627">
        <ele>1662</ele>
        <time>2012-07-21T05:12:27.1Z</time>
      </trkpt>
      <trkpt lat="45.3867" lon="5.80625">
        <ele>1662</ele>
        <time>2012-07-21T05:12:29.1Z</time>
      </trkpt>
      <trkpt lat="45.38668" lon="5.80626">
        <ele>1661</ele>
        <time>2012-07-21T05:12:31.1Z</time>
      </trkpt>
      <trkpt lat="45.38668" lon="5.8063">
        <ele>1660</ele>
        <time>2012-07-21T05:12:33.1Z</time>
      </trkpt>
      <trkpt lat="45.3867" lon="5.80635">
        <ele>1659</ele>
        <time>2012-07-21T05:12:35.1Z</time>
      </trkpt>
      <trkpt lat="45.38671" lon="5.80638">
        <ele>1659</ele>
        <time>2012-07-21T05:12:37.1Z</time>
      </trkpt>
      <trkpt lat="45.38672" lon="5.8064">
        <ele>1659</ele>
        <time>2012-07-21T05:12:39.1Z</time>
      </trkpt>
      <trkpt lat="45.38675" lon="5.80644">
        <ele>1658</ele>
        <time>2012-07-21T05:12:41.1Z</time>
      </trkpt>
      <trkpt lat="45.38679" lon="5.80651">
        <ele>1658</ele>
        <time>2012-07-21T05:12:44.1Z</time>
      </trkpt>
      <trkpt lat="45.38682" lon="5.80654">
        <ele>1658</ele>
        <time>2012-07-21T05:12:46.1Z</time>
      </trkpt>
      <trkpt lat="45.38685" lon="5.80658">
        <ele>1657</ele>
        <time>2012-07-21T05:12:48.1Z</time>
      </trkpt>
      <trkpt lat="45.38687" lon="5.80662">
        <ele>1656</ele>
        <time>2012-07-21T05:12:50.1Z</time>
      </trkpt>
      <trkpt lat="45.3869" lon="5.80667">
        <ele>1655</ele>
        <time>2012-07-21T05:12:52.1Z</time>
      </trkpt>
      <trkpt lat="45.38692" lon="5.80671">
        <ele>1654</ele>
        <time>2012-07-21T05:12:54.1Z</time>
      </trkpt>
      <trkpt lat="45.38694" lon="5.80675">
        <ele>1654</ele>
        <time>2012-07-21T05:12:56.1Z</time>
      </trkpt>
      <trkpt lat="45.38695" lon="5.80678">
        <ele>1653</ele>
        <time>2012-07-21T05:12:58.1Z</time>
      </trkpt>
      <trkpt lat="45.38697" lon="5.80682">
        <ele>1652</ele>
        <time>2012-07-21T05:13:00.1Z</time>
      </trkpt>
      <trkpt lat="45.38699" lon="5.80686">
        <ele>1651</ele>
        <time>2012-07-21T05:13:02.1Z</time>
      </trkpt>
      <trkpt lat="45.38701" lon="5.80691">
        <ele>1650</ele>
        <time>2012-07-21T05:13:04.1Z</time>
      </trkpt>
      <trkpt lat="45.38702" lon="5.80695">
        <ele>1649</ele>
        <time>2012-07-21T05:13:06.1Z</time>
      </trkpt>
      <trkpt lat="45.38703" lon="5.80699">
        <ele>1648</ele>
        <time>2012-07-21T05:13:08.1Z</time>
      </trkpt>
      <trkpt lat="45.38703" lon="5.80701">
        <ele>1647</ele>
        <time>2012-07-21T05:13:10.1Z</time>
      </trkpt>
      <trkpt lat="45.38702" lon="5.80703">
        <ele>1647</ele>
        <time>2012-07-21T05:13:12.1Z</time>
      </trkpt>
      <trkpt lat="45.38702" lon="5.80707">
        <ele>1645</ele>
        <time>2012-07-21T05:13:14.1Z</time>
      </trkpt>
      <trkpt lat="45.38701" lon="5.8071">
        <ele>1645</ele>
        <time>2012-07-21T05:13:16.1Z</time>
      </trkpt>
      <trkpt lat="45.38701" lon="5.80714">
        <ele>1644</ele>
        <time>2012-07-21T05:13:18.1Z</time>
      </trkpt>
      <trkpt lat="45.38701" lon="5.80715">
        <ele>1643</ele>
        <time>2012-07-21T05:13:21.1Z</time>
      </trkpt>
      <trkpt lat="45.38701" lon="5.80718">
        <ele>1642</ele>
        <time>2012-07-21T05:13:23.1Z</time>
      </trkpt>
      <trkpt lat="45.38701" lon="5.80724">
        <ele>1641</ele>
        <time>2012-07-21T05:13:25.1Z</time>
      </trkpt>
      <trkpt lat="45.38703" lon="5.80729">
        <ele>1640</ele>
        <time>2012-07-21T05:13:27.1Z</time>
      </trkpt>
      <trkpt lat="45.38704" lon="5.80734">
        <ele>1638</ele>
        <time>2012-07-21T05:13:29.1Z</time>
      </trkpt>
      <trkpt lat="45.38706" lon="5.80741">
        <ele>1637</ele>
        <time>2012-07-21T05:13:31.1Z</time>
      </trkpt>
      <trkpt lat="45.38706" lon="5.80747">
        <ele>1635</ele>
        <time>2012-07-21T05:13:33.1Z</time>
      </trkpt>
      <trkpt lat="45.38708" lon="5.80758">
        <ele>1633</ele>
        <time>2012-07-21T05:13:36.1Z</time>
      </trkpt>
      <trkpt lat="45.38709" lon="5.80764">
        <ele>1632</ele>
        <time>2012-07-21T05:13:38.1Z</time>
      </trkpt>
      <trkpt lat="45.38711" lon="5.80771">
        <ele>1630</ele>
        <time>2012-07-21T05:13:40.1Z</time>
      </trkpt>
      <trkpt lat="45.38712" lon="5.80777">
        <ele>1629</ele>
        <time>2012-07-21T05:13:42.1Z</time>
      </trkpt>
      <trkpt lat="45.38712" lon="5.80784">
        <ele>1628</ele>
        <time>2012-07-21T05:13:44.1Z</time>
      </trkpt>
      <trkpt lat="45.38713" lon="5.80791">
        <ele>1628</ele>
        <time>2012-07-21T05:13:46.1Z</time>
      </trkpt>
      <trkpt lat="45.38713" lon="5.80797">
        <ele>1626</ele>
        <time>2012-07-21T05:13:48.1Z</time>
      </trkpt>
      <trkpt lat="45.38715" lon="5.80805">
        <ele>1625</ele>
        <time>2012-07-21T05:13:50.1Z</time>
      </trkpt>
      <trkpt lat="45.38717" lon="5.80816">
        <ele>1623</ele>
        <time>2012-07-21T05:13:53.1Z</time>
      </trkpt>
      <trkpt lat="45.38719" lon="5.80823">
        <ele>1623</ele>
        <time>2012-07-21T05:13:55.1Z</time>
      </trkpt>
      <trkpt lat="45.38721" lon="5.80831">
        <ele>1622</ele>
        <time>2012-07-21T05:13:57.1Z</time>
      </trkpt>
      <trkpt lat="45.38721" lon="5.80838">
        <ele>1621</ele>
        <time>2012-07-21T05:13:59.1Z</time>
      </trkpt>
      <trkpt lat="45.38722" lon="5.80846">
        <ele>1621</ele>
        <time>2012-07-21T05:14:01.1Z</time>
      </trkpt>
      <trkpt lat="45.38723" lon="5.80853">
        <ele>1619</ele>
        <time>2012-07-21T05:14:03.1Z</time>
      </trkpt>
      <trkpt lat="45.38724" lon="5.80861">
        <ele>1618</ele>
        <time>2012-07-21T05:14:05.1Z</time>
      </trkpt>
      <trkpt lat="45.38725" lon="5.80866">
        <ele>1618</ele>
        <time>2012-07-21T05:14:07.1Z</time>
      </trkpt>
      <trkpt lat="45.38725" lon="5.8087">
        <ele>1617</ele>
        <time>2012-07-21T05:14:09.1Z</time>
      </trkpt>
      <trkpt lat="45.38724" lon="5.80871">
        <ele>1618</ele>
        <time>2012-07-21T05:14:11.1Z</time>
      </trkpt>
      <trkpt lat="45.38724" lon="5.80871">
        <ele>1617</ele>
        <time>2012-07-21T05:14:13.1Z</time>
      </trkpt>
      <trkpt lat="45.38723" lon="5.80872">
        <ele>1617</ele>
        <time>2012-07-21T05:14:15.1Z</time>
      </trkpt>
      <trkpt lat="45.38722" lon="5.80873">
        <ele>1618</ele>
        <time>2012-07-21T05:14:17.1Z</time>
      </trkpt>
      <trkpt lat="45.38721" lon="5.80874">
        <ele>1617</ele>
        <time>2012-07-21T05:14:19.1Z</time>
      </trkpt>
      <trkpt lat="45.38718" lon="5.80873">
        <ele>1618</ele>
        <time>2012-07-21T05:14:21.1Z</time>
      </trkpt>
      <trkpt lat="45.38709" lon="5.80872">
        <ele>1617</ele>
        <time>2012-07-21T05:14:24.1Z</time>
      </trkpt>
      <trkpt lat="45.38705" lon="5.80872">
        <ele>1617</ele>
        <time>2012-07-21T05:14:26.1Z</time>
      </trkpt>
      <trkpt lat="45.387" lon="5.80871">
        <ele>1616</ele>
        <time>2012-07-21T05:14:28.1Z</time>
      </trkpt>
      <trkpt lat="45.38694" lon="5.80871">
        <ele>1616</ele>
        <time>2012-07-21T05:14:30.1Z</time>
      </trkpt>
      <trkpt lat="45.38689" lon="5.80871">
        <ele>1615</ele>
        <time>2012-07-21T05:14:32.1Z</time>
      </trkpt>
      <trkpt lat="45.38684" lon="5.80871">
        <ele>1614</ele>
        <time>2012-07-21T05:14:34.1Z</time>
      </trkpt>
      <trkpt lat="45.3868" lon="5.80872">
        <ele>1613</ele>
        <time>2012-07-21T05:14:36.1Z</time>
      </trkpt>
      <trkpt lat="45.38677" lon="5.80873">
        <ele>1612</ele>
        <time>2012-07-21T05:14:38.1Z</time>
      </trkpt>
      <trkpt lat="45.38674" lon="5.80874">
        <ele>1611</ele>
        <time>2012-07-21T05:14:40.1Z</time>
      </trkpt>
      <trkpt lat="45.38671" lon="5.80876">
        <ele>1610</ele>
        <time>2012-07-21T05:14:42.1Z</time>
      </trkpt>
      <trkpt lat="45.3867" lon="5.80876">
        <ele>1610</ele>
        <time>2012-07-21T05:14:45.1Z</time>
      </trkpt>
      <trkpt lat="45.38669" lon="5.80876">
        <ele>1610</ele>
        <time>2012-07-21T05:14:47.1Z</time>
      </trkpt>
      <trkpt lat="45.38667" lon="5.80875">
        <ele>1609</ele>
        <time>2012-07-21T05:14:49.1Z</time>
      </trkpt>
      <trkpt lat="45.38664" lon="5.80876">
        <ele>1609</ele>
        <time>2012-07-21T05:14:51.1Z</time>
      </trkpt>
      <trkpt lat="45.38662" lon="5.80876">
        <ele>1608</ele>
        <time>2012-07-21T05:14:53.1Z</time>
      </trkpt>
      <trkpt lat="45.38659" lon="5.80877">
        <ele>1607</ele>
        <time>2012-07-21T05:14:55.1Z</time>
      </trkpt>
      <trkpt lat="45.38656" lon="5.80877">
        <ele>1606</ele>
        <time>2012-07-21T05:14:57.1Z</time>
      </trkpt>
      <trkpt lat="45.38654" lon="5.80876">
        <ele>1605</ele>
        <time>2012-07-21T05:14:59.1Z</time>
      </trkpt>
      <trkpt lat="45.38651" lon="5.80877">
        <ele>1604</ele>
        <time>2012-07-21T05:15:01.1Z</time>
      </trkpt>
      <trkpt lat="45.38645" lon="5.80877">
        <ele>1602</ele>
        <time>2012-07-21T05:15:03.1Z</time>
      </trkpt>
      <trkpt lat="45.38641" lon="5.80878">
        <ele>1601</ele>
        <time>2012-07-21T05:15:05.1Z</time>
      </trkpt>
      <trkpt lat="45.38638" lon="5.8088">
        <ele>1600</ele>
        <time>2012-07-21T05:15:07.1Z</time>
      </trkpt>
      <trkpt lat="45.38634" lon="5.80883">
        <ele>1598</ele>
        <time>2012-07-21T05:15:09.1Z</time>
      </trkpt>
      <trkpt lat="45.38631" lon="5.80884">
        <ele>1597</ele>
        <time>2012-07-21T05:15:11.1Z</time>
      </trkpt>
      <trkpt lat="45.38625" lon="5.80885">
        <ele>1596</ele>
        <time>2012-07-21T05:15:13.1Z</time>
      </trkpt>
      <trkpt lat="45.38621" lon="5.80887">
        <ele>1596</ele>
        <time>2012-07-21T05:15:16.1Z</time>
      </trkpt>
      <trkpt lat="45.38618" lon="5.80891">
        <ele>1596</ele>
        <time>2012-07-21T05:15:18.1Z</time>
      </trkpt>
      <trkpt lat="45.38615" lon="5.80895">
        <ele>1595</ele>
        <time>2012-07-21T05:15:20.1Z</time>
      </trkpt>
      <trkpt lat="45.3861" lon="5.80897">
        <ele>1594</ele>
        <time>2012-07-21T05:15:22.1Z</time>
      </trkpt>
      <trkpt lat="45.38607" lon="5.80897">
        <ele>1593</ele>
        <time>2012-07-21T05:15:24.1Z</time>
      </trkpt>
      <trkpt lat="45.38604" lon="5.80896">
        <ele>1592</ele>
        <time>2012-07-21T05:15:26.1Z</time>
      </trkpt>
      <trkpt lat="45.386" lon="5.80895">
        <ele>1590</ele>
        <time>2012-07-21T05:15:28.1Z</time>
      </trkpt>
      <trkpt lat="45.38597" lon="5.80895">
        <ele>1589</ele>
        <time>2012-07-21T05:15:30.1Z</time>
      </trkpt>
      <trkpt lat="45.38593" lon="5.80895">
        <ele>1589</ele>
        <time>2012-07-21T05:15:32.1Z</time>
      </trkpt>
      <trkpt lat="45.3859" lon="5.80895">
        <ele>1588</ele>
        <time>2012-07-21T05:15:34.1Z</time>
      </trkpt>
      <trkpt lat="45.38586" lon="5.80895">
        <ele>1587</ele>
        <time>2012-07-21T05:15:36.1Z</time>
      </trkpt>
      <trkpt lat="45.38583" lon="5.80893">
        <ele>1586</ele>
        <time>2012-07-21T05:15:38.1Z</time>
      </trkpt>
      <trkpt lat="45.3858" lon="5.80892">
        <ele>1585</ele>
        <time>2012-07-21T05:15:40.1Z</time>
      </trkpt>
      <trkpt lat="45.38577" lon="5.80892">
        <ele>1584</ele>
        <time>2012-07-21T05:15:42.1Z</time>
      </trkpt>
      <trkpt lat="45.38572" lon="5.8089">
        <ele>1583</ele>
        <time>2012-07-21T05:15:44.1Z</time>
      </trkpt>
      <trkpt lat="45.38566" lon="5.80892">
        <ele>1582</ele>
        <time>2012-07-21T05:15:47.1Z</time>
      </trkpt>
      <trkpt lat="45.38561" lon="5.80893">
        <ele>1582</ele>
        <time>2012-07-21T05:15:49.1Z</time>
      </trkpt>
      <trkpt lat="45.38558" lon="5.80889">
        <ele>1581</ele>
        <time>2012-07-21T05:15:51.1Z</time>
      </trkpt>
      <trkpt lat="45.38556" lon="5.80886">
        <ele>1580</ele>
        <time>2012-07-21T05:15:53.1Z</time>
      </trkpt>
      <trkpt lat="45.38552" lon="5.80883">
        <ele>1579</ele>
        <time>2012-07-21T05:15:55.1Z</time>
      </trkpt>
      <trkpt lat="45.38548" lon="5.80882">
        <ele>1578</ele>
        <time>2012-07-21T05:15:57.1Z</time>
      </trkpt>
      <trkpt lat="45.38544" lon="5.80883">
        <ele>1577</ele>
        <time>2012-07-21T05:15:59.1Z</time>
      </trkpt>
      <trkpt lat="45.38541" lon="5.80883">
        <ele>1577</ele>
        <time>2012-07-21T05:16:01.1Z</time>
      </trkpt>
      <trkpt lat="45.38538" lon="5.80882">
        <ele>1576</ele>
        <time>2012-07-21T05:16:03.1Z</time>
      </trkpt>
      <trkpt lat="45.38536" lon="5.80881">
        <ele>1576</ele>
        <time>2012-07-21T05:16:05.1Z</time>
      </trkpt>
      <trkpt lat="45.38533" lon="5.8088">
        <ele>1575</ele>
        <time>2012-07-21T05:16:07.1Z</time>
      </trkpt>
      <trkpt lat="45.38532" lon="5.80877">
        <ele>1574</ele>
        <time>2012-07-21T05:16:09.1Z</time>
      </trkpt>
      <trkpt lat="45.38532" lon="5.80875">
        <ele>1573</ele>
        <time>2012-07-21T05:16:11.1Z</time>
      </trkpt>
      <trkpt lat="45.38532" lon="5.80874">
        <ele>1572</ele>
        <time>2012-07-21T05:16:13.1Z</time>
      </trkpt>
      <trkpt lat="45.38531" lon="5.80872">
        <ele>1571</ele>
        <time>2012-07-21T05:16:16.1Z</time>
      </trkpt>
      <trkpt lat="45.38532" lon="5.80871">
        <ele>1570</ele>
        <time>2012-07-21T05:16:18.1Z</time>
      </trkpt>
      <trkpt lat="45.38531" lon="5.8087">
        <ele>1570</ele>
        <time>2012-07-21T05:16:20.1Z</time>
      </trkpt>
      <trkpt lat="45.38531" lon="5.80867">
        <ele>1569</ele>
        <time>2012-07-21T05:16:22.1Z</time>
      </trkpt>
      <trkpt lat="45.3853" lon="5.80865">
        <ele>1568</ele>
        <time>2012-07-21T05:16:24.1Z</time>
      </trkpt>
      <trkpt lat="45.38531" lon="5.80862">
        <ele>1567</ele>
        <time>2012-07-21T05:16:26.1Z</time>
      </trkpt>
      <trkpt lat="45.38532" lon="5.8086">
        <ele>1567</ele>
        <time>2012-07-21T05:16:28.1Z</time>
      </trkpt>
      <trkpt lat="45.38535" lon="5.80857">
        <ele>1566</ele>
        <time>2012-07-21T05:16:30.1Z</time>
      </trkpt>
      <trkpt lat="45.38536" lon="5.80855">
        <ele>1565</ele>
        <time>2012-07-21T05:16:33.1Z</time>
      </trkpt>
      <trkpt lat="45.38536" lon="5.80852">
        <ele>1565</ele>
        <time>2012-07-21T05:16:35.1Z</time>
      </trkpt>
      <trkpt lat="45.38535" lon="5.8085">
        <ele>1563</ele>
        <time>2012-07-21T05:16:37.1Z</time>
      </trkpt>
      <trkpt lat="45.38534" lon="5.80847">
        <ele>1562</ele>
        <time>2012-07-21T05:16:39.1Z</time>
      </trkpt>
      <trkpt lat="45.38532" lon="5.80847">
        <ele>1561</ele>
        <time>2012-07-21T05:16:41.1Z</time>
      </trkpt>
      <trkpt lat="45.38531" lon="5.80845">
        <ele>1560</ele>
        <time>2012-07-21T05:16:43.1Z</time>
      </trkpt>
      <trkpt lat="45.38531" lon="5.80843">
        <ele>1559</ele>
        <time>2012-07-21T05:16:45.1Z</time>
      </trkpt>
      <trkpt lat="45.38531" lon="5.8084">
        <ele>1558</ele>
        <time>2012-07-21T05:16:47.1Z</time>
      </trkpt>
      <trkpt lat="45.38532" lon="5.80838">
        <ele>1558</ele>
        <time>2012-07-21T05:16:49.1Z</time>
      </trkpt>
      <trkpt lat="45.3853" lon="5.80835">
        <ele>1557</ele>
        <time>2012-07-21T05:16:51.1Z</time>
      </trkpt>
      <trkpt lat="45.38527" lon="5.80836">
        <ele>1556</ele>
        <time>2012-07-21T05:16:54.1Z</time>
      </trkpt>
      <trkpt lat="45.38523" lon="5.80838">
        <ele>1555</ele>
        <time>2012-07-21T05:16:56.1Z</time>
      </trkpt>
      <trkpt lat="45.38522" lon="5.80836">
        <ele>1555</ele>
        <time>2012-07-21T05:16:58.1Z</time>
      </trkpt>
      <trkpt lat="45.3852" lon="5.80836">
        <ele>1554</ele>
        <time>2012-07-21T05:17:00.1Z</time>
      </trkpt>
      <trkpt lat="45.38519" lon="5.80835">
        <ele>1553</ele>
        <time>2012-07-21T05:17:02.1Z</time>
      </trkpt>
      <trkpt lat="45.38517" lon="5.80835">
        <ele>1552</ele>
        <time>2012-07-21T05:17:04.1Z</time>
      </trkpt>
      <trkpt lat="45.38512" lon="5.80833">
        <ele>1551</ele>
        <time>2012-07-21T05:17:07.1Z</time>
      </trkpt>
      <trkpt lat="45.3851" lon="5.80832">
        <ele>1550</ele>
        <time>2012-07-21T05:17:09.1Z</time>
      </trkpt>
      <trkpt lat="45.38508" lon="5.8083">
        <ele>1550</ele>
        <time>2012-07-21T05:17:11.1Z</time>
      </trkpt>
      <trkpt lat="45.38506" lon="5.80829">
        <ele>1548</ele>
        <time>2012-07-21T05:17:13.1Z</time>
      </trkpt>
      <trkpt lat="45.38504" lon="5.80827">
        <ele>1547</ele>
        <time>2012-07-21T05:17:15.1Z</time>
      </trkpt>
      <trkpt lat="45.38503" lon="5.80825">
        <ele>1546</ele>
        <time>2012-07-21T05:17:17.1Z</time>
      </trkpt>
      <trkpt lat="45.38503" lon="5.80822">
        <ele>1545</ele>
        <time>2012-07-21T05:17:19.1Z</time>
      </trkpt>
      <trkpt lat="45.38502" lon="5.8082">
        <ele>1545</ele>
        <time>2012-07-21T05:17:21.1Z</time>
      </trkpt>
      <trkpt lat="45.38501" lon="5.80818">
        <ele>1543</ele>
        <time>2012-07-21T05:17:23.1Z</time>
      </trkpt>
      <trkpt lat="45.38499" lon="5.80815">
        <ele>1542</ele>
        <time>2012-07-21T05:17:25.1Z</time>
      </trkpt>
      <trkpt lat="45.38498" lon="5.80814">
        <ele>1542</ele>
        <time>2012-07-21T05:17:27.1Z</time>
      </trkpt>
      <trkpt lat="45.38496" lon="5.80813">
        <ele>1540</ele>
        <time>2012-07-21T05:17:29.1Z</time>
      </trkpt>
      <trkpt lat="45.38496" lon="5.8081">
        <ele>1540</ele>
        <time>2012-07-21T05:17:31.1Z</time>
      </trkpt>
      <trkpt lat="45.38494" lon="5.8081">
        <ele>1539</ele>
        <time>2012-07-21T05:17:33.1Z</time>
      </trkpt>
      <trkpt lat="45.38494" lon="5.80808">
        <ele>1537</ele>
        <time>2012-07-21T05:17:35.1Z</time>
      </trkpt>
      <trkpt lat="45.38492" lon="5.80805">
        <ele>1537</ele>
        <time>2012-07-21T05:17:38.1Z</time>
      </trkpt>
      <trkpt lat="45.38491" lon="5.80803">
        <ele>1536</ele>
        <time>2012-07-21T05:17:40.1Z</time>
      </trkpt>
      <trkpt lat="45.3849" lon="5.808">
        <ele>1535</ele>
        <time>2012-07-21T05:17:42.1Z</time>
      </trkpt>
      <trkpt lat="45.38489" lon="5.80797">
        <ele>1534</ele>
        <time>2012-07-21T05:17:44.1Z</time>
      </trkpt>
      <trkpt lat="45.38488" lon="5.80795">
        <ele>1533</ele>
        <time>2012-07-21T05:17:46.1Z</time>
      </trkpt>
      <trkpt lat="45.38485" lon="5.80793">
        <ele>1532</ele>
        <time>2012-07-21T05:17:48.1Z</time>
      </trkpt>
      <trkpt lat="45.38483" lon="5.80792">
        <ele>1530</ele>
        <time>2012-07-21T05:17:50.1Z</time>
      </trkpt>
      <trkpt lat="45.3848" lon="5.80792">
        <ele>1529</ele>
        <time>2012-07-21T05:17:52.1Z</time>
      </trkpt>
      <trkpt lat="45.38475" lon="5.80792">
        <ele>1527</ele>
        <time>2012-07-21T05:17:54.1Z</time>
      </trkpt>
      <trkpt lat="45.38471" lon="5.80794">
        <ele>1526</ele>
        <time>2012-07-21T05:17:56.1Z</time>
      </trkpt>
      <trkpt lat="45.38468" lon="5.80794">
        <ele>1525</ele>
        <time>2012-07-21T05:17:58.1Z</time>
      </trkpt>
      <trkpt lat="45.38465" lon="5.80795">
        <ele>1524</ele>
        <time>2012-07-21T05:18:00.1Z</time>
      </trkpt>
      <trkpt lat="45.38461" lon="5.80793">
        <ele>1522</ele>
        <time>2012-07-21T05:18:02.1Z</time>
      </trkpt>
      <trkpt lat="45.38459" lon="5.80793">
        <ele>1521</ele>
        <time>2012-07-21T05:18:05.1Z</time>
      </trkpt>
      <trkpt lat="45.38456" lon="5.80794">
        <ele>1520</ele>
        <time>2012-07-21T05:18:07.1Z</time>
      </trkpt>
      <trkpt lat="45.38453" lon="5.80796">
        <ele>1519</ele>
        <time>2012-07-21T05:18:09.1Z</time>
      </trkpt>
      <trkpt lat="45.38449" lon="5.80797">
        <ele>1518</ele>
        <time>2012-07-21T05:18:11.1Z</time>
      </trkpt>
      <trkpt lat="45.38445" lon="5.808">
        <ele>1516</ele>
        <time>2012-07-21T05:18:13.1Z</time>
      </trkpt>
      <trkpt lat="45.38441" lon="5.80802">
        <ele>1514</ele>
        <time>2012-07-21T05:18:15.1Z</time>
      </trkpt>
      <trkpt lat="45.38437" lon="5.80802">
        <ele>1511</ele>
        <time>2012-07-21T05:18:17.1Z</time>
      </trkpt>
      <trkpt lat="45.38431" lon="5.80802">
        <ele>1509</ele>
        <time>2012-07-21T05:18:19.1Z</time>
      </trkpt>
      <trkpt lat="45.38426" lon="5.80803">
        <ele>1508</ele>
        <time>2012-07-21T05:18:22.1Z</time>
      </trkpt>
      <trkpt lat="45.38422" lon="5.80805">
        <ele>1506</ele>
        <time>2012-07-21T05:18:24.1Z</time>
      </trkpt>
      <trkpt lat="45.38418" lon="5.80805">
        <ele>1504</ele>
        <time>2012-07-21T05:18:26.1Z</time>
      </trkpt>
      <trkpt lat="45.38414" lon="5.80806">
        <ele>1502</ele>
        <time>2012-07-21T05:18:28.1Z</time>
      </trkpt>
      <trkpt lat="45.38411" lon="5.80807">
        <ele>1500</ele>
        <time>2012-07-21T05:18:30.1Z</time>
      </trkpt>
      <trkpt lat="45.38408" lon="5.80808">
        <ele>1499</ele>
        <time>2012-07-21T05:18:32.1Z</time>
      </trkpt>
      <trkpt lat="45.38404" lon="5.80807">
        <ele>1498</ele>
        <time>2012-07-21T05:18:35.1Z</time>
      </trkpt>
      <trkpt lat="45.38401" lon="5.80805">
        <ele>1498</ele>
        <time>2012-07-21T05:18:37.1Z</time>
      </trkpt>
      <trkpt lat="45.38398" lon="5.80805">
        <ele>1496</ele>
        <time>2012-07-21T05:18:39.1Z</time>
      </trkpt>
      <trkpt lat="45.38395" lon="5.80805">
        <ele>1495</ele>
        <time>2012-07-21T05:18:41.1Z</time>
      </trkpt>
      <trkpt lat="45.38393" lon="5.80806">
        <ele>1493</ele>
        <time>2012-07-21T05:18:43.1Z</time>
      </trkpt>
      <trkpt lat="45.3839" lon="5.80806">
        <ele>1492</ele>
        <time>2012-07-21T05:18:45.1Z</time>
      </trkpt>
      <trkpt lat="45.38387" lon="5.80806">
        <ele>1490</ele>
        <time>2012-07-21T05:18:47.1Z</time>
      </trkpt>
      <trkpt lat="45.38384" lon="5.80806">
        <ele>1489</ele>
        <time>2012-07-21T05:18:49.1Z</time>
      </trkpt>
      <trkpt lat="45.38384" lon="5.80807">
        <ele>1489</ele>
        <time>2012-07-21T05:18:52.1Z</time>
      </trkpt>
      <trkpt lat="45.38382" lon="5.80808">
        <ele>1488</ele>
        <time>2012-07-21T05:18:54.1Z</time>
      </trkpt>
      <trkpt lat="45.38381" lon="5.80809">
        <ele>1487</ele>
        <time>2012-07-21T05:18:56.1Z</time>
      </trkpt>
      <trkpt lat="45.38379" lon="5.80807">
        <ele>1486</ele>
        <time>2012-07-21T05:18:58.1Z</time>
      </trkpt>
      <trkpt lat="45.38377" lon="5.80805">
        <ele>1485</ele>
        <time>2012-07-21T05:19:00.1Z</time>
      </trkpt>
      <trkpt lat="45.38376" lon="5.80803">
        <ele>1484</ele>
        <time>2012-07-21T05:19:02.1Z</time>
      </trkpt>
      <trkpt lat="45.38374" lon="5.80801">
        <ele>1483</ele>
        <time>2012-07-21T05:19:04.1Z</time>
      </trkpt>
      <trkpt lat="45.38372" lon="5.80799">
        <ele>1482</ele>
        <time>2012-07-21T05:19:06.1Z</time>
      </trkpt>
      <trkpt lat="45.38369" lon="5.808">
        <ele>1481</ele>
        <time>2012-07-21T05:19:08.1Z</time>
      </trkpt>
      <trkpt lat="45.38366" lon="5.80799">
        <ele>1480</ele>
        <time>2012-07-21T05:19:11.1Z</time>
      </trkpt>
      <trkpt lat="45.38365" lon="5.80797">
        <ele>1478</ele>
        <time>2012-07-21T05:19:13.1Z</time>
      </trkpt>
      <trkpt lat="45.38364" lon="5.80794">
        <ele>1477</ele>
        <time>2012-07-21T05:19:15.1Z</time>
      </trkpt>
      <trkpt lat="45.38364" lon="5.80791">
        <ele>1474</ele>
        <time>2012-07-21T05:19:17.1Z</time>
      </trkpt>
      <trkpt lat="45.38363" lon="5.80788">
        <ele>1473</ele>
        <time>2012-07-21T05:19:19.1Z</time>
      </trkpt>
      <trkpt lat="45.38363" lon="5.80784">
        <ele>1473</ele>
        <time>2012-07-21T05:19:21.1Z</time>
      </trkpt>
      <trkpt lat="45.38364" lon="5.8078">
        <ele>1471</ele>
        <time>2012-07-21T05:19:23.1Z</time>
      </trkpt>
      <trkpt lat="45.38363" lon="5.80778">
        <ele>1471</ele>
        <time>2012-07-21T05:19:25.1Z</time>
      </trkpt>
      <trkpt lat="45.38363" lon="5.80777">
        <ele>1470</ele>
        <time>2012-07-21T05:19:27.1Z</time>
      </trkpt>
      <trkpt lat="45.38362" lon="5.80775">
        <ele>1470</ele>
        <time>2012-07-21T05:19:29.1Z</time>
      </trkpt>
      <trkpt lat="45.38362" lon="5.80775">
        <ele>1469</ele>
        <time>2012-07-21T05:19:31.1Z</time>
      </trkpt>
      <trkpt lat="45.38361" lon="5.80775">
        <ele>1469</ele>
        <time>2012-07-21T05:19:33.1Z</time>
      </trkpt>
      <trkpt lat="45.38361" lon="5.80775">
        <ele>1469</ele>
        <time>2012-07-21T05:19:35.1Z</time>
      </trkpt>
      <trkpt lat="45.38361" lon="5.80775">
        <ele>1469</ele>
        <time>2012-07-21T05:19:37.1Z</time>
      </trkpt>
      <trkpt lat="45.3836" lon="5.80775">
        <ele>1469</ele>
        <time>2012-07-21T05:19:39.1Z</time>
      </trkpt>
      <trkpt lat="45.3836" lon="5.80775">
        <ele>1468</ele>
        <time>2012-07-21T05:19:41.1Z</time>
      </trkpt>
      <trkpt lat="45.3836" lon="5.80774">
        <ele>1468</ele>
        <time>2012-07-21T05:19:44.1Z</time>
      </trkpt>
      <trkpt lat="45.38359" lon="5.80774">
        <ele>1468</ele>
        <time>2012-07-21T05:19:46.1Z</time>
      </trkpt>
      <trkpt lat="45.38359" lon="5.80774">
        <ele>1467</ele>
        <time>2012-07-21T05:19:48.1Z</time>
      </trkpt>
      <trkpt lat="45.38359" lon="5.80774">
        <ele>1467</ele>
        <time>2012-07-21T05:19:50.1Z</time>
      </trkpt>
      <trkpt lat="45.38358" lon="5.80774">
        <ele>1467</ele>
        <time>2012-07-21T05:19:52.1Z</time>
      </trkpt>
      <trkpt lat="45.38357" lon="5.80775">
        <ele>1468</ele>
        <time>2012-07-21T05:19:54.1Z</time>
      </trkpt>
      <trkpt lat="45.38357" lon="5.80775">
        <ele>1468</ele>
        <time>2012-07-21T05:19:56.1Z</time>
      </trkpt>
      <trkpt lat="45.38357" lon="5.80775">
        <ele>1469</ele>
        <time>2012-07-21T05:19:58.1Z</time>
      </trkpt>
      <trkpt lat="45.38357" lon="5.80775">
        <ele>1468</ele>
        <time>2012-07-21T05:20:00.1Z</time>
      </trkpt>
      <trkpt lat="45.38357" lon="5.80775">
        <ele>1467</ele>
        <time>2012-07-21T05:20:02.1Z</time>
      </trkpt>
      <trkpt lat="45.38357" lon="5.80774">
        <ele>1467</ele>
        <time>2012-07-21T05:20:04.1Z</time>
      </trkpt>
      <trkpt lat="45.38357" lon="5.80774">
        <ele>1467</ele>
        <time>2012-07-21T05:20:06.1Z</time>
      </trkpt>
      <trkpt lat="45.38357" lon="5.80774">
        <ele>1466</ele>
        <time>2012-07-21T05:20:08.1Z</time>
      </trkpt>
      <trkpt lat="45.38357" lon="5.80775">
        <ele>1466</ele>
        <time>2012-07-21T05:20:10.1Z</time>
      </trkpt>
      <trkpt lat="45.38356" lon="5.80777">
        <ele>1466</ele>
        <time>2012-07-21T05:20:13.1Z</time>
      </trkpt>
      <trkpt lat="45.38354" lon="5.80778">
        <ele>1465</ele>
        <time>2012-07-21T05:20:15.1Z</time>
      </trkpt>
      <trkpt lat="45.38353" lon="5.8078">
        <ele>1464</ele>
        <time>2012-07-21T05:20:17.1Z</time>
      </trkpt>
      <trkpt lat="45.38352" lon="5.80783">
        <ele>1464</ele>
        <time>2012-07-21T05:20:19.1Z</time>
      </trkpt>
      <trkpt lat="45.3835" lon="5.80787">
        <ele>1464</ele>
        <time>2012-07-21T05:20:21.1Z</time>
      </trkpt>
      <trkpt lat="45.38348" lon="5.8079">
        <ele>1463</ele>
        <time>2012-07-21T05:20:23.1Z</time>
      </trkpt>
      <trkpt lat="45.38347" lon="5.80794">
        <ele>1463</ele>
        <time>2012-07-21T05:20:25.1Z</time>
      </trkpt>
      <trkpt lat="45.38346" lon="5.80797">
        <ele>1463</ele>
        <time>2012-07-21T05:20:27.1Z</time>
      </trkpt>
      <trkpt lat="45.38346" lon="5.80801">
        <ele>1462</ele>
        <time>2012-07-21T05:20:29.1Z</time>
      </trkpt>
      <trkpt lat="45.38346" lon="5.80803">
        <ele>1461</ele>
        <time>2012-07-21T05:20:31.1Z</time>
      </trkpt>
      <trkpt lat="45.38346" lon="5.80804">
        <ele>1460</ele>
        <time>2012-07-21T05:20:33.1Z</time>
      </trkpt>
      <trkpt lat="45.38346" lon="5.80804">
        <ele>1459</ele>
        <time>2012-07-21T05:20:35.1Z</time>
      </trkpt>
      <trkpt lat="45.38347" lon="5.80804">
        <ele>1458</ele>
        <time>2012-07-21T05:20:37.1Z</time>
      </trkpt>
      <trkpt lat="45.38347" lon="5.80806">
        <ele>1458</ele>
        <time>2012-07-21T05:20:39.1Z</time>
      </trkpt>
      <trkpt lat="45.38348" lon="5.8081">
        <ele>1457</ele>
        <time>2012-07-21T05:20:41.1Z</time>
      </trkpt>
      <trkpt lat="45.38351" lon="5.80816">
        <ele>1456</ele>
        <time>2012-07-21T05:20:43.1Z</time>
      </trkpt>
      <trkpt lat="45.38352" lon="5.80821">
        <ele>1456</ele>
        <time>2012-07-21T05:20:46.1Z</time>
      </trkpt>
      <trkpt lat="45.3835" lon="5.80822">
        <ele>1455</ele>
        <time>2012-07-21T05:20:48.1Z</time>
      </trkpt>
      <trkpt lat="45.38348" lon="5.80825">
        <ele>1454</ele>
        <time>2012-07-21T05:20:50.1Z</time>
      </trkpt>
      <trkpt lat="45.38346" lon="5.8083">
        <ele>1453</ele>
        <time>2012-07-21T05:20:52.1Z</time>
      </trkpt>
      <trkpt lat="45.38346" lon="5.80837">
        <ele>1452</ele>
        <time>2012-07-21T05:20:54.1Z</time>
      </trkpt>
      <trkpt lat="45.38345" lon="5.80843">
        <ele>1451</ele>
        <time>2012-07-21T05:20:56.1Z</time>
      </trkpt>
      <trkpt lat="45.38344" lon="5.80849">
        <ele>1450</ele>
        <time>2012-07-21T05:20:58.1Z</time>
      </trkpt>
      <trkpt lat="45.38343" lon="5.80856">
        <ele>1449</ele>
        <time>2012-07-21T05:21:00.1Z</time>
      </trkpt>
      <trkpt lat="45.38342" lon="5.8086">
        <ele>1448</ele>
        <time>2012-07-21T05:21:02.1Z</time>
      </trkpt>
      <trkpt lat="45.38342" lon="5.80864">
        <ele>1447</ele>
        <time>2012-07-21T05:21:04.1Z</time>
      </trkpt>
      <trkpt lat="45.38342" lon="5.80866">
        <ele>1447</ele>
        <time>2012-07-21T05:21:06.1Z</time>
      </trkpt>
      <trkpt lat="45.38341" lon="5.80868">
        <ele>1446</ele>
        <time>2012-07-21T05:21:08.1Z</time>
      </trkpt>
      <trkpt lat="45.38339" lon="5.80869">
        <ele>1446</ele>
        <time>2012-07-21T05:21:10.1Z</time>
      </trkpt>
      <trkpt lat="45.38337" lon="5.8087">
        <ele>1446</ele>
        <time>2012-07-21T05:21:12.1Z</time>
      </trkpt>
      <trkpt lat="45.38336" lon="5.80871">
        <ele>1445</ele>
        <time>2012-07-21T05:21:14.1Z</time>
      </trkpt>
      <trkpt lat="45.38333" lon="5.80874">
        <ele>1444</ele>
        <time>2012-07-21T05:21:16.1Z</time>
      </trkpt>
      <trkpt lat="45.38332" lon="5.80875">
        <ele>1444</ele>
        <time>2012-07-21T05:21:19.1Z</time>
      </trkpt>
      <trkpt lat="45.38331" lon="5.80879">
        <ele>1444</ele>
        <time>2012-07-21T05:21:21.1Z</time>
      </trkpt>
      <trkpt lat="45.38329" lon="5.80883">
        <ele>1444</ele>
        <time>2012-07-21T05:21:23.1Z</time>
      </trkpt>
      <trkpt lat="45.38328" lon="5.80889">
        <ele>1444</ele>
        <time>2012-07-21T05:21:25.1Z</time>
      </trkpt>
      <trkpt lat="45.38327" lon="5.80894">
        <ele>1444</ele>
        <time>2012-07-21T05:21:27.1Z</time>
      </trkpt>
      <trkpt lat="45.38325" lon="5.80899">
        <ele>1444</ele>
        <time>2012-07-21T05:21:29.1Z</time>
      </trkpt>
      <trkpt lat="45.38324" lon="5.80903">
        <ele>1443</ele>
        <time>2012-07-21T05:21:31.1Z</time>
      </trkpt>
      <trkpt lat="45.38324" lon="5.80909">
        <ele>1443</ele>
        <time>2012-07-21T05:21:33.1Z</time>
      </trkpt>
      <trkpt lat="45.38324" lon="5.80911">
        <ele>1443</ele>
        <time>2012-07-21T05:21:35.1Z</time>
      </trkpt>
      <trkpt lat="45.38324" lon="5.80914">
        <ele>1443</ele>
        <time>2012-07-21T05:21:38.1Z</time>
      </trkpt>
      <trkpt lat="45.38321" lon="5.80919">
        <ele>1443</ele>
        <time>2012-07-21T05:21:40.1Z</time>
      </trkpt>
      <trkpt lat="45.38321" lon="5.80924">
        <ele>1443</ele>
        <time>2012-07-21T05:21:42.1Z</time>
      </trkpt>
      <trkpt lat="45.3832" lon="5.80927">
        <ele>1444</ele>
        <time>2012-07-21T05:21:44.1Z</time>
      </trkpt>
      <trkpt lat="45.38319" lon="5.8093">
        <ele>1444</ele>
        <time>2012-07-21T05:21:46.1Z</time>
      </trkpt>
      <trkpt lat="45.38315" lon="5.80934">
        <ele>1444</ele>
        <time>2012-07-21T05:21:48.1Z</time>
      </trkpt>
      <trkpt lat="45.38312" lon="5.80938">
        <ele>1444</ele>
        <time>2012-07-21T05:21:50.1Z</time>
      </trkpt>
      <trkpt lat="45.38307" lon="5.80945">
        <ele>1443</ele>
        <time>2012-07-21T05:21:52.1Z</time>
      </trkpt>
      <trkpt lat="45.38306" lon="5.80949">
        <ele>1443</ele>
        <time>2012-07-21T05:21:55.1Z</time>
      </trkpt>
      <trkpt lat="45.38304" lon="5.80952">
        <ele>1443</ele>
        <time>2012-07-21T05:21:57.1Z</time>
      </trkpt>
      <trkpt lat="45.38302" lon="5.80954">
        <ele>1442</ele>
        <time>2012-07-21T05:21:59.1Z</time>
      </trkpt>
      <trkpt lat="45.38302" lon="5.80957">
        <ele>1448</ele>
        <time>2012-07-21T05:22:01.1Z</time>
      </trkpt>
      <trkpt lat="45.38301" lon="5.80961">
        <ele>1455</ele>
        <time>2012-07-21T05:22:03.1Z</time>
      </trkpt>
      <trkpt lat="45.38299" lon="5.80964">
        <ele>1462</ele>
        <time>2012-07-21T05:22:05.1Z</time>
      </trkpt>
      <trkpt lat="45.38297" lon="5.80967">
        <ele>1469</ele>
        <time>2012-07-21T05:22:07.1Z</time>
      </trkpt>
      <trkpt lat="45.38294" lon="5.80971">
        <ele>1468</ele>
        <time>2012-07-21T05:22:09.1Z</time>
      </trkpt>
      <trkpt lat="45.38291" lon="5.80976">
        <ele>1467</ele>
        <time>2012-07-21T05:22:12.1Z</time>
      </trkpt>
      <trkpt lat="45.38289" lon="5.80977">
        <ele>1466</ele>
        <time>2012-07-21T05:22:14.1Z</time>
      </trkpt>
      <trkpt lat="45.38287" lon="5.80982">
        <ele>1465</ele>
        <time>2012-07-21T05:22:16.1Z</time>
      </trkpt>
      <trkpt lat="45.38284" lon="5.80986">
        <ele>1465</ele>
        <time>2012-07-21T05:22:18.1Z</time>
      </trkpt>
      <trkpt lat="45.38282" lon="5.80991">
        <ele>1464</ele>
        <time>2012-07-21T05:22:20.1Z</time>
      </trkpt>
      <trkpt lat="45.38279" lon="5.80993">
        <ele>1463</ele>
        <time>2012-07-21T05:22:23.1Z</time>
      </trkpt>
      <trkpt lat="45.38277" lon="5.80994">
        <ele>1462</ele>
        <time>2012-07-21T05:22:25.1Z</time>
      </trkpt>
      <trkpt lat="45.38274" lon="5.80994">
        <ele>1460</ele>
        <time>2012-07-21T05:22:27.1Z</time>
      </trkpt>
      <trkpt lat="45.38271" lon="5.80995">
        <ele>1460</ele>
        <time>2012-07-21T05:22:29.1Z</time>
      </trkpt>
      <trkpt lat="45.38269" lon="5.80995">
        <ele>1459</ele>
        <time>2012-07-21T05:22:31.1Z</time>
      </trkpt>
      <trkpt lat="45.38266" lon="5.80995">
        <ele>1458</ele>
        <time>2012-07-21T05:22:33.1Z</time>
      </trkpt>
      <trkpt lat="45.38261" lon="5.80997">
        <ele>1458</ele>
        <time>2012-07-21T05:22:35.1Z</time>
      </trkpt>
      <trkpt lat="45.38258" lon="5.80998">
        <ele>1457</ele>
        <time>2012-07-21T05:22:37.1Z</time>
      </trkpt>
      <trkpt lat="45.38256" lon="5.80998">
        <ele>1456</ele>
        <time>2012-07-21T05:22:39.1Z</time>
      </trkpt>
      <trkpt lat="45.38251" lon="5.80999">
        <ele>1455</ele>
        <time>2012-07-21T05:22:41.1Z</time>
      </trkpt>
      <trkpt lat="45.38247" lon="5.81002">
        <ele>1454</ele>
        <time>2012-07-21T05:22:43.1Z</time>
      </trkpt>
      <trkpt lat="45.38244" lon="5.81004">
        <ele>1454</ele>
        <time>2012-07-21T05:22:46.1Z</time>
      </trkpt>
      <trkpt lat="45.38242" lon="5.81006">
        <ele>1454</ele>
        <time>2012-07-21T05:22:48.1Z</time>
      </trkpt>
      <trkpt lat="45.38239" lon="5.81008">
        <ele>1453</ele>
        <time>2012-07-21T05:22:50.1Z</time>
      </trkpt>
      <trkpt lat="45.38235" lon="5.81011">
        <ele>1454</ele>
        <time>2012-07-21T05:22:52.1Z</time>
      </trkpt>
      <trkpt lat="45.38233" lon="5.81015">
        <ele>1454</ele>
        <time>2012-07-21T05:22:54.1Z</time>
      </trkpt>
      <trkpt lat="45.38232" lon="5.81018">
        <ele>1454</ele>
        <time>2012-07-21T05:22:56.1Z</time>
      </trkpt>
      <trkpt lat="45.38229" lon="5.81019">
        <ele>1455</ele>
        <time>2012-07-21T05:22:58.1Z</time>
      </trkpt>
      <trkpt lat="45.38225" lon="5.81021">
        <ele>1456</ele>
        <time>2012-07-21T05:23:00.1Z</time>
      </trkpt>
      <trkpt lat="45.3822" lon="5.81022">
        <ele>1456</ele>
        <time>2012-07-21T05:23:02.1Z</time>
      </trkpt>
      <trkpt lat="45.38216" lon="5.81023">
        <ele>1457</ele>
        <time>2012-07-21T05:23:04.1Z</time>
      </trkpt>
      <trkpt lat="45.38213" lon="5.81026">
        <ele>1457</ele>
        <time>2012-07-21T05:23:06.1Z</time>
      </trkpt>
      <trkpt lat="45.3821" lon="5.81029">
        <ele>1457</ele>
        <time>2012-07-21T05:23:08.1Z</time>
      </trkpt>
      <trkpt lat="45.38208" lon="5.81033">
        <ele>1457</ele>
        <time>2012-07-21T05:23:11.1Z</time>
      </trkpt>
      <trkpt lat="45.38205" lon="5.81035">
        <ele>1458</ele>
        <time>2012-07-21T05:23:13.1Z</time>
      </trkpt>
      <trkpt lat="45.38204" lon="5.81038">
        <ele>1458</ele>
        <time>2012-07-21T05:23:15.1Z</time>
      </trkpt>
      <trkpt lat="45.38202" lon="5.8104">
        <ele>1459</ele>
        <time>2012-07-21T05:23:17.1Z</time>
      </trkpt>
      <trkpt lat="45.38201" lon="5.81042">
        <ele>1460</ele>
        <time>2012-07-21T05:23:19.1Z</time>
      </trkpt>
      <trkpt lat="45.38199" lon="5.81045">
        <ele>1460</ele>
        <time>2012-07-21T05:23:21.1Z</time>
      </trkpt>
      <trkpt lat="45.38198" lon="5.81046">
        <ele>1461</ele>
        <time>2012-07-21T05:23:23.1Z</time>
      </trkpt>
      <trkpt lat="45.38196" lon="5.81048">
        <ele>1462</ele>
        <time>2012-07-21T05:23:25.1Z</time>
      </trkpt>
      <trkpt lat="45.38193" lon="5.81049">
        <ele>1462</ele>
        <time>2012-07-21T05:23:27.1Z</time>
      </trkpt>
      <trkpt lat="45.38189" lon="5.81051">
        <ele>1463</ele>
        <time>2012-07-21T05:23:29.1Z</time>
      </trkpt>
      <trkpt lat="45.38186" lon="5.81053">
        <ele>1463</ele>
        <time>2012-07-21T05:23:32.1Z</time>
      </trkpt>
      <trkpt lat="45.38184" lon="5.81053">
        <ele>1464</ele>
        <time>2012-07-21T05:23:34.1Z</time>
      </trkpt>
      <trkpt lat="45.38181" lon="5.81053">
        <ele>1464</ele>
        <time>2012-07-21T05:23:36.1Z</time>
      </trkpt>
      <trkpt lat="45.3818" lon="5.81056">
        <ele>1465</ele>
        <time>2012-07-21T05:23:38.1Z</time>
      </trkpt>
      <trkpt lat="45.38179" lon="5.81058">
        <ele>1466</ele>
        <time>2012-07-21T05:23:40.1Z</time>
      </trkpt>
      <trkpt lat="45.38178" lon="5.81059">
        <ele>1466</ele>
        <time>2012-07-21T05:23:42.1Z</time>
      </trkpt>
      <trkpt lat="45.38176" lon="5.81061">
        <ele>1467</ele>
        <time>2012-07-21T05:23:44.1Z</time>
      </trkpt>
      <trkpt lat="45.38174" lon="5.81062">
        <ele>1468</ele>
        <time>2012-07-21T05:23:46.1Z</time>
      </trkpt>
      <trkpt lat="45.38174" lon="5.81063">
        <ele>1468</ele>
        <time>2012-07-21T05:23:48.1Z</time>
      </trkpt>
      <trkpt lat="45.38173" lon="5.81065">
        <ele>1468</ele>
        <time>2012-07-21T05:23:50.1Z</time>
      </trkpt>
      <trkpt lat="45.38172" lon="5.81066">
        <ele>1469</ele>
        <time>2012-07-21T05:23:52.1Z</time>
      </trkpt>
      <trkpt lat="45.38171" lon="5.8107">
        <ele>1470</ele>
        <time>2012-07-21T05:23:54.1Z</time>
      </trkpt>
      <trkpt lat="45.38171" lon="5.81073">
        <ele>1470</ele>
        <time>2012-07-21T05:23:57.1Z</time>
      </trkpt>
      <trkpt lat="45.38171" lon="5.81076">
        <ele>1471</ele>
        <time>2012-07-21T05:23:59.1Z</time>
      </trkpt>
      <trkpt lat="45.3817" lon="5.81078">
        <ele>1471</ele>
        <time>2012-07-21T05:24:01.1Z</time>
      </trkpt>
      <trkpt lat="45.38167" lon="5.8108">
        <ele>1472</ele>
        <time>2012-07-21T05:24:03.1Z</time>
      </trkpt>
      <trkpt lat="45.38165" lon="5.81081">
        <ele>1472</ele>
        <time>2012-07-21T05:24:05.1Z</time>
      </trkpt>
      <trkpt lat="45.38163" lon="5.81082">
        <ele>1472</ele>
        <time>2012-07-21T05:24:07.1Z</time>
      </trkpt>
      <trkpt lat="45.38162" lon="5.81084">
        <ele>1473</ele>
        <time>2012-07-21T05:24:09.1Z</time>
      </trkpt>
      <trkpt lat="45.3816" lon="5.81086">
        <ele>1473</ele>
        <time>2012-07-21T05:24:11.1Z</time>
      </trkpt>
      <trkpt lat="45.38158" lon="5.81088">
        <ele>1473</ele>
        <time>2012-07-21T05:24:14.1Z</time>
      </trkpt>
      <trkpt lat="45.38156" lon="5.8109">
        <ele>1474</ele>
        <time>2012-07-21T05:24:16.1Z</time>
      </trkpt>
      <trkpt lat="45.38155" lon="5.81091">
        <ele>1475</ele>
        <time>2012-07-21T05:24:18.1Z</time>
      </trkpt>
      <trkpt lat="45.38155" lon="5.81092">
        <ele>1475</ele>
        <time>2012-07-21T05:24:20.1Z</time>
      </trkpt>
      <trkpt lat="45.38154" lon="5.81093">
        <ele>1476</ele>
        <time>2012-07-21T05:24:22.1Z</time>
      </trkpt>
      <trkpt lat="45.38152" lon="5.81095">
        <ele>1477</ele>
        <time>2012-07-21T05:24:24.1Z</time>
      </trkpt>
      <trkpt lat="45.38151" lon="5.81096">
        <ele>1477</ele>
        <time>2012-07-21T05:24:27.1Z</time>
      </trkpt>
      <trkpt lat="45.3815" lon="5.81097">
        <ele>1477</ele>
        <time>2012-07-21T05:24:29.1Z</time>
      </trkpt>
      <trkpt lat="45.38148" lon="5.81098">
        <ele>1478</ele>
        <time>2012-07-21T05:24:31.1Z</time>
      </trkpt>
      <trkpt lat="45.38145" lon="5.81099">
        <ele>1478</ele>
        <time>2012-07-21T05:24:33.1Z</time>
      </trkpt>
      <trkpt lat="45.38144" lon="5.811">
        <ele>1478</ele>
        <time>2012-07-21T05:24:35.1Z</time>
      </trkpt>
      <trkpt lat="45.38142" lon="5.81101">
        <ele>1479</ele>
        <time>2012-07-21T05:24:37.1Z</time>
      </trkpt>
      <trkpt lat="45.38142" lon="5.81103">
        <ele>1479</ele>
        <time>2012-07-21T05:24:39.1Z</time>
      </trkpt>
      <trkpt lat="45.38142" lon="5.81103">
        <ele>1480</ele>
        <time>2012-07-21T05:24:41.1Z</time>
      </trkpt>
      <trkpt lat="45.38141" lon="5.81104">
        <ele>1480</ele>
        <time>2012-07-21T05:24:43.1Z</time>
      </trkpt>
      <trkpt lat="45.3814" lon="5.81105">
        <ele>1480</ele>
        <time>2012-07-21T05:24:45.1Z</time>
      </trkpt>
      <trkpt lat="45.3814" lon="5.81106">
        <ele>1481</ele>
        <time>2012-07-21T05:24:47.1Z</time>
      </trkpt>
      <trkpt lat="45.38139" lon="5.81106">
        <ele>1480</ele>
        <time>2012-07-21T05:24:49.1Z</time>
      </trkpt>
      <trkpt lat="45.38138" lon="5.81107">
        <ele>1480</ele>
        <time>2012-07-21T05:24:51.1Z</time>
      </trkpt>
      <trkpt lat="45.38137" lon="5.81107">
        <ele>1481</ele>
        <time>2012-07-21T05:24:54.1Z</time>
      </trkpt>
      <trkpt lat="45.38137" lon="5.81109">
        <ele>1481</ele>
        <time>2012-07-21T05:24:56.1Z</time>
      </trkpt>
      <trkpt lat="45.38137" lon="5.8111">
        <ele>1481</ele>
        <time>2012-07-21T05:24:58.1Z</time>
      </trkpt>
      <trkpt lat="45.38136" lon="5.81109">
        <ele>1482</ele>
        <time>2012-07-21T05:25:00.1Z</time>
      </trkpt>
      <trkpt lat="45.38136" lon="5.8111">
        <ele>1483</ele>
        <time>2012-07-21T05:25:02.1Z</time>
      </trkpt>
      <trkpt lat="45.38136" lon="5.8111">
        <ele>1484</ele>
        <time>2012-07-21T05:25:04.1Z</time>
      </trkpt>
      <trkpt lat="45.38138" lon="5.8111">
        <ele>1484</ele>
        <time>2012-07-21T05:25:06.1Z</time>
      </trkpt>
      <trkpt lat="45.3814" lon="5.8111">
        <ele>1485</ele>
        <time>2012-07-21T05:25:09.1Z</time>
      </trkpt>
      <trkpt lat="45.3814" lon="5.8111">
        <ele>1485</ele>
        <time>2012-07-21T05:25:11.1Z</time>
      </trkpt>
      <trkpt lat="45.38142" lon="5.81108">
        <ele>1485</ele>
        <time>2012-07-21T05:25:13.1Z</time>
      </trkpt>
      <trkpt lat="45.38144" lon="5.81107">
        <ele>1486</ele>
        <time>2012-07-21T05:25:15.1Z</time>
      </trkpt>
      <trkpt lat="45.38145" lon="5.81107">
        <ele>1486</ele>
        <time>2012-07-21T05:25:17.1Z</time>
      </trkpt>
      <trkpt lat="45.38147" lon="5.81106">
        <ele>1487</ele>
        <time>2012-07-21T05:25:19.1Z</time>
      </trkpt>
      <trkpt lat="45.38149" lon="5.81105">
        <ele>1488</ele>
        <time>2012-07-21T05:25:22.1Z</time>
      </trkpt>
      <trkpt lat="45.38152" lon="5.81104">
        <ele>1488</ele>
        <time>2012-07-21T05:25:24.1Z</time>
      </trkpt>
      <trkpt lat="45.38153" lon="5.81104">
        <ele>1489</ele>
        <time>2012-07-21T05:25:26.1Z</time>
      </trkpt>
      <trkpt lat="45.38155" lon="5.81104">
        <ele>1489</ele>
        <time>2012-07-21T05:25:28.1Z</time>
      </trkpt>
      <trkpt lat="45.38157" lon="5.81105">
        <ele>1489</ele>
        <time>2012-07-21T05:25:30.1Z</time>
      </trkpt>
      <trkpt lat="45.38159" lon="5.81105">
        <ele>1490</ele>
        <time>2012-07-21T05:25:32.1Z</time>
      </trkpt>
      <trkpt lat="45.38161" lon="5.81106">
        <ele>1490</ele>
        <time>2012-07-21T05:25:34.1Z</time>
      </trkpt>
      <trkpt lat="45.38163" lon="5.81106">
        <ele>1491</ele>
        <time>2012-07-21T05:25:36.1Z</time>
      </trkpt>
      <trkpt lat="45.38164" lon="5.81105">
        <ele>1492</ele>
        <time>2012-07-21T05:25:38.1Z</time>
      </trkpt>
      <trkpt lat="45.38167" lon="5.81102">
        <ele>1492</ele>
        <time>2012-07-21T05:25:40.1Z</time>
      </trkpt>
      <trkpt lat="45.38168" lon="5.81102">
        <ele>1492</ele>
        <time>2012-07-21T05:25:42.1Z</time>
      </trkpt>
      <trkpt lat="45.3817" lon="5.81101">
        <ele>1493</ele>
        <time>2012-07-21T05:25:45.1Z</time>
      </trkpt>
      <trkpt lat="45.38171" lon="5.81101">
        <ele>1493</ele>
        <time>2012-07-21T05:25:47.1Z</time>
      </trkpt>
      <trkpt lat="45.38173" lon="5.811">
        <ele>1494</ele>
        <time>2012-07-21T05:25:49.1Z</time>
      </trkpt>
      <trkpt lat="45.38174" lon="5.811">
        <ele>1494</ele>
        <time>2012-07-21T05:25:51.1Z</time>
      </trkpt>
      <trkpt lat="45.38176" lon="5.81099">
        <ele>1495</ele>
        <time>2012-07-21T05:25:53.1Z</time>
      </trkpt>
      <trkpt lat="45.38178" lon="5.81099">
        <ele>1495</ele>
        <time>2012-07-21T05:25:55.1Z</time>
      </trkpt>
      <trkpt lat="45.38181" lon="5.811">
        <ele>1496</ele>
        <time>2012-07-21T05:25:57.1Z</time>
      </trkpt>
      <trkpt lat="45.38182" lon="5.811">
        <ele>1497</ele>
        <time>2012-07-21T05:25:59.1Z</time>
      </trkpt>
      <trkpt lat="45.38184" lon="5.81099">
        <ele>1497</ele>
        <time>2012-07-21T05:26:01.1Z</time>
      </trkpt>
      <trkpt lat="45.38186" lon="5.81099">
        <ele>1498</ele>
        <time>2012-07-21T05:26:03.1Z</time>
      </trkpt>
      <trkpt lat="45.38187" lon="5.81098">
        <ele>1498</ele>
        <time>2012-07-21T05:26:05.1Z</time>
      </trkpt>
      <trkpt lat="45.3819" lon="5.81098">
        <ele>1499</ele>
        <time>2012-07-21T05:26:07.1Z</time>
      </trkpt>
      <trkpt lat="45.38192" lon="5.81098">
        <ele>1500</ele>
        <time>2012-07-21T05:26:09.1Z</time>
      </trkpt>
      <trkpt lat="45.38195" lon="5.81096">
        <ele>1500</ele>
        <time>2012-07-21T05:26:11.1Z</time>
      </trkpt>
      <trkpt lat="45.38197" lon="5.81096">
        <ele>1501</ele>
        <time>2012-07-21T05:26:13.1Z</time>
      </trkpt>
      <trkpt lat="45.38198" lon="5.81097">
        <ele>1502</ele>
        <time>2012-07-21T05:26:15.1Z</time>
      </trkpt>
      <trkpt lat="45.38199" lon="5.81098">
        <ele>1503</ele>
        <time>2012-07-21T05:26:18.1Z</time>
      </trkpt>
      <trkpt lat="45.38199" lon="5.81101">
        <ele>1503</ele>
        <time>2012-07-21T05:26:20.1Z</time>
      </trkpt>
      <trkpt lat="45.38199" lon="5.81104">
        <ele>1503</ele>
        <time>2012-07-21T05:26:22.1Z</time>
      </trkpt>
      <trkpt lat="45.382" lon="5.81107">
        <ele>1504</ele>
        <time>2012-07-21T05:26:24.1Z</time>
      </trkpt>
      <trkpt lat="45.38199" lon="5.8111">
        <ele>1504</ele>
        <time>2012-07-21T05:26:26.1Z</time>
      </trkpt>
      <trkpt lat="45.38199" lon="5.81113">
        <ele>1505</ele>
        <time>2012-07-21T05:26:28.1Z</time>
      </trkpt>
      <trkpt lat="45.38199" lon="5.81115">
        <ele>1506</ele>
        <time>2012-07-21T05:26:30.1Z</time>
      </trkpt>
      <trkpt lat="45.38199" lon="5.81119">
        <ele>1506</ele>
        <time>2012-07-21T05:26:32.1Z</time>
      </trkpt>
      <trkpt lat="45.38198" lon="5.81122">
        <ele>1507</ele>
        <time>2012-07-21T05:26:34.1Z</time>
      </trkpt>
      <trkpt lat="45.38196" lon="5.81124">
        <ele>1508</ele>
        <time>2012-07-21T05:26:36.1Z</time>
      </trkpt>
      <trkpt lat="45.38195" lon="5.81126">
        <ele>1508</ele>
        <time>2012-07-21T05:26:38.1Z</time>
      </trkpt>
      <trkpt lat="45.38194" lon="5.8113">
        <ele>1509</ele>
        <time>2012-07-21T05:26:40.1Z</time>
      </trkpt>
      <trkpt lat="45.38192" lon="5.81133">
        <ele>1509</ele>
        <time>2012-07-21T05:26:42.1Z</time>
      </trkpt>
      <trkpt lat="45.38191" lon="5.81136">
        <ele>1510</ele>
        <time>2012-07-21T05:26:44.1Z</time>
      </trkpt>
      <trkpt lat="45.38189" lon="5.81138">
        <ele>1510</ele>
        <time>2012-07-21T05:26:46.1Z</time>
      </trkpt>
      <trkpt lat="45.38186" lon="5.8114">
        <ele>1511</ele>
        <time>2012-07-21T05:26:48.1Z</time>
      </trkpt>
      <trkpt lat="45.38184" lon="5.81141">
        <ele>1511</ele>
        <time>2012-07-21T05:26:50.1Z</time>
      </trkpt>
      <trkpt lat="45.38181" lon="5.81144">
        <ele>1512</ele>
        <time>2012-07-21T05:26:52.1Z</time>
      </trkpt>
      <trkpt lat="45.3818" lon="5.81146">
        <ele>1513</ele>
        <time>2012-07-21T05:26:54.1Z</time>
      </trkpt>
      <trkpt lat="45.38178" lon="5.81147">
        <ele>1513</ele>
        <time>2012-07-21T05:26:57.1Z</time>
      </trkpt>
      <trkpt lat="45.38176" lon="5.81149">
        <ele>1514</ele>
        <time>2012-07-21T05:26:59.1Z</time>
      </trkpt>
      <trkpt lat="45.38176" lon="5.81152">
        <ele>1515</ele>
        <time>2012-07-21T05:27:01.1Z</time>
      </trkpt>
      <trkpt lat="45.38176" lon="5.81155">
        <ele>1515</ele>
        <time>2012-07-21T05:27:03.1Z</time>
      </trkpt>
      <trkpt lat="45.38175" lon="5.81158">
        <ele>1516</ele>
        <time>2012-07-21T05:27:05.1Z</time>
      </trkpt>
      <trkpt lat="45.38175" lon="5.8116">
        <ele>1517</ele>
        <time>2012-07-21T05:27:07.1Z</time>
      </trkpt>
      <trkpt lat="45.38175" lon="5.81164">
        <ele>1518</ele>
        <time>2012-07-21T05:27:09.1Z</time>
      </trkpt>
      <trkpt lat="45.38174" lon="5.81166">
        <ele>1518</ele>
        <time>2012-07-21T05:27:12.1Z</time>
      </trkpt>
      <trkpt lat="45.38174" lon="5.81167">
        <ele>1519</ele>
        <time>2012-07-21T05:27:14.1Z</time>
      </trkpt>
      <trkpt lat="45.38174" lon="5.81169">
        <ele>1520</ele>
        <time>2012-07-21T05:27:16.1Z</time>
      </trkpt>
      <trkpt lat="45.38174" lon="5.8117">
        <ele>1520</ele>
        <time>2012-07-21T05:27:18.1Z</time>
      </trkpt>
      <trkpt lat="45.38174" lon="5.8117">
        <ele>1520</ele>
        <time>2012-07-21T05:27:20.1Z</time>
      </trkpt>
      <trkpt lat="45.38174" lon="5.81169">
        <ele>1520</ele>
        <time>2012-07-21T05:27:22.1Z</time>
      </trkpt>
      <trkpt lat="45.38175" lon="5.81169">
        <ele>1520</ele>
        <time>2012-07-21T05:27:24.1Z</time>
      </trkpt>
      <trkpt lat="45.38174" lon="5.81169">
        <ele>1521</ele>
        <time>2012-07-21T05:27:27.1Z</time>
      </trkpt>
      <trkpt lat="45.38175" lon="5.81169">
        <ele>1520</ele>
        <time>2012-07-21T05:27:29.1Z</time>
      </trkpt>
      <trkpt lat="45.38176" lon="5.81168">
        <ele>1520</ele>
        <time>2012-07-21T05:27:31.1Z</time>
      </trkpt>
      <trkpt lat="45.38177" lon="5.81167">
        <ele>1520</ele>
        <time>2012-07-21T05:27:33.1Z</time>
      </trkpt>
      <trkpt lat="45.38178" lon="5.81166">
        <ele>1521</ele>
        <time>2012-07-21T05:27:35.1Z</time>
      </trkpt>
      <trkpt lat="45.38179" lon="5.81166">
        <ele>1521</ele>
        <time>2012-07-21T05:27:37.1Z</time>
      </trkpt>
      <trkpt lat="45.38182" lon="5.81168">
        <ele>1522</ele>
        <time>2012-07-21T05:27:39.1Z</time>
      </trkpt>
      <trkpt lat="45.38183" lon="5.81168">
        <ele>1523</ele>
        <time>2012-07-21T05:27:41.1Z</time>
      </trkpt>
      <trkpt lat="45.38182" lon="5.81168">
        <ele>1523</ele>
        <time>2012-07-21T05:27:43.1Z</time>
      </trkpt>
      <trkpt lat="45.38182" lon="5.81168">
        <ele>1523</ele>
        <time>2012-07-21T05:27:46.1Z</time>
      </trkpt>
      <trkpt lat="45.38182" lon="5.81168">
        <ele>1523</ele>
        <time>2012-07-21T05:27:48.1Z</time>
      </trkpt>
      <trkpt lat="45.38182" lon="5.81168">
        <ele>1523</ele>
        <time>2012-07-21T05:27:50.1Z</time>
      </trkpt>
      <trkpt lat="45.38182" lon="5.81168">
        <ele>1523</ele>
        <time>2012-07-21T05:27:52.1Z</time>
      </trkpt>
      <trkpt lat="45.38182" lon="5.81168">
        <ele>1524</ele>
        <time>2012-07-21T05:27:54.1Z</time>
      </trkpt>
      <trkpt lat="45.38182" lon="5.81167">
        <ele>1524</ele>
        <time>2012-07-21T05:27:56.1Z</time>
      </trkpt>
      <trkpt lat="45.38183" lon="5.81166">
        <ele>1524</ele>
        <time>2012-07-21T05:27:58.1Z</time>
      </trkpt>
      <trkpt lat="45.38184" lon="5.81165">
        <ele>1524</ele>
        <time>2012-07-21T05:28:00.1Z</time>
      </trkpt>
      <trkpt lat="45.38186" lon="5.81164">
        <ele>1523</ele>
        <time>2012-07-21T05:28:02.1Z</time>
      </trkpt>
      <trkpt lat="45.38187" lon="5.81165">
        <ele>1524</ele>
        <time>2012-07-21T05:28:05.1Z</time>
      </trkpt>
      <trkpt lat="45.38187" lon="5.81168">
        <ele>1525</ele>
        <time>2012-07-21T05:28:07.1Z</time>
      </trkpt>
      <trkpt lat="45.38188" lon="5.81173">
        <ele>1526</ele>
        <time>2012-07-21T05:28:09.1Z</time>
      </trkpt>
      <trkpt lat="45.38187" lon="5.81176">
        <ele>1526</ele>
        <time>2012-07-21T05:28:11.1Z</time>
      </trkpt>
      <trkpt lat="45.38188" lon="5.81179">
        <ele>1527</ele>
        <time>2012-07-21T05:28:13.1Z</time>
      </trkpt>
      <trkpt lat="45.38188" lon="5.81182">
        <ele>1528</ele>
        <time>2012-07-21T05:28:15.1Z</time>
      </trkpt>
      <trkpt lat="45.38188" lon="5.81186">
        <ele>1528</ele>
        <time>2012-07-21T05:28:17.1Z</time>
      </trkpt>
      <trkpt lat="45.38189" lon="5.8119">
        <ele>1528</ele>
        <time>2012-07-21T05:28:19.1Z</time>
      </trkpt>
      <trkpt lat="45.38189" lon="5.81192">
        <ele>1529</ele>
        <time>2012-07-21T05:28:21.1Z</time>
      </trkpt>
      <trkpt lat="45.3819" lon="5.81194">
        <ele>1529</ele>
        <time>2012-07-21T05:28:23.1Z</time>
      </trkpt>
      <trkpt lat="45.38191" lon="5.81197">
        <ele>1530</ele>
        <time>2012-07-21T05:28:25.1Z</time>
      </trkpt>
      <trkpt lat="45.38193" lon="5.81199">
        <ele>1531</ele>
        <time>2012-07-21T05:28:27.1Z</time>
      </trkpt>
      <trkpt lat="45.38195" lon="5.81201">
        <ele>1531</ele>
        <time>2012-07-21T05:28:29.1Z</time>
      </trkpt>
      <trkpt lat="45.38196" lon="5.81203">
        <ele>1531</ele>
        <time>2012-07-21T05:28:31.1Z</time>
      </trkpt>
      <trkpt lat="45.38198" lon="5.81206">
        <ele>1532</ele>
        <time>2012-07-21T05:28:33.1Z</time>
      </trkpt>
      <trkpt lat="45.382" lon="5.8121">
        <ele>1532</ele>
        <time>2012-07-21T05:28:35.1Z</time>
      </trkpt>
      <trkpt lat="45.38202" lon="5.81213">
        <ele>1532</ele>
        <time>2012-07-21T05:28:37.1Z</time>
      </trkpt>
      <trkpt lat="45.38203" lon="5.81214">
        <ele>1533</ele>
        <time>2012-07-21T05:28:39.1Z</time>
      </trkpt>
      <trkpt lat="45.38205" lon="5.81216">
        <ele>1533</ele>
        <time>2012-07-21T05:28:41.1Z</time>
      </trkpt>
      <trkpt lat="45.38206" lon="5.81219">
        <ele>1533</ele>
        <time>2012-07-21T05:28:44.1Z</time>
      </trkpt>
      <trkpt lat="45.38208" lon="5.81222">
        <ele>1534</ele>
        <time>2012-07-21T05:28:46.1Z</time>
      </trkpt>
      <trkpt lat="45.38209" lon="5.81226">
        <ele>1535</ele>
        <time>2012-07-21T05:28:48.1Z</time>
      </trkpt>
      <trkpt lat="45.38211" lon="5.81229">
        <ele>1535</ele>
        <time>2012-07-21T05:28:50.1Z</time>
      </trkpt>
      <trkpt lat="45.38212" lon="5.81233">
        <ele>1536</ele>
        <time>2012-07-21T05:28:52.1Z</time>
      </trkpt>
      <trkpt lat="45.38213" lon="5.81236">
        <ele>1537</ele>
        <time>2012-07-21T05:28:54.1Z</time>
      </trkpt>
      <trkpt lat="45.38214" lon="5.8124">
        <ele>1537</ele>
        <time>2012-07-21T05:28:56.1Z</time>
      </trkpt>
      <trkpt lat="45.38215" lon="5.81243">
        <ele>1537</ele>
        <time>2012-07-21T05:28:58.1Z</time>
      </trkpt>
      <trkpt lat="45.38216" lon="5.81245">
        <ele>1538</ele>
        <time>2012-07-21T05:29:00.1Z</time>
      </trkpt>
      <trkpt lat="45.38217" lon="5.81246">
        <ele>1539</ele>
        <time>2012-07-21T05:29:02.1Z</time>
      </trkpt>
      <trkpt lat="45.38219" lon="5.81247">
        <ele>1539</ele>
        <time>2012-07-21T05:29:04.1Z</time>
      </trkpt>
      <trkpt lat="45.38221" lon="5.81248">
        <ele>1540</ele>
        <time>2012-07-21T05:29:06.1Z</time>
      </trkpt>
      <trkpt lat="45.38223" lon="5.8125">
        <ele>1541</ele>
        <time>2012-07-21T05:29:08.1Z</time>
      </trkpt>
      <trkpt lat="45.38226" lon="5.81253">
        <ele>1542</ele>
        <time>2012-07-21T05:29:10.1Z</time>
      </trkpt>
      <trkpt lat="45.38227" lon="5.81256">
        <ele>1542</ele>
        <time>2012-07-21T05:29:12.1Z</time>
      </trkpt>
      <trkpt lat="45.38229" lon="5.81258">
        <ele>1543</ele>
        <time>2012-07-21T05:29:15.1Z</time>
      </trkpt>
      <trkpt lat="45.38229" lon="5.8126">
        <ele>1544</ele>
        <time>2012-07-21T05:29:17.1Z</time>
      </trkpt>
      <trkpt lat="45.3823" lon="5.81262">
        <ele>1544</ele>
        <time>2012-07-21T05:29:19.1Z</time>
      </trkpt>
      <trkpt lat="45.38232" lon="5.81264">
        <ele>1545</ele>
        <time>2012-07-21T05:29:21.1Z</time>
      </trkpt>
      <trkpt lat="45.38234" lon="5.81266">
        <ele>1545</ele>
        <time>2012-07-21T05:29:23.1Z</time>
      </trkpt>
      <trkpt lat="45.38237" lon="5.81267">
        <ele>1546</ele>
        <time>2012-07-21T05:29:25.1Z</time>
      </trkpt>
      <trkpt lat="45.38239" lon="5.81268">
        <ele>1546</ele>
        <time>2012-07-21T05:29:27.1Z</time>
      </trkpt>
      <trkpt lat="45.3824" lon="5.81269">
        <ele>1547</ele>
        <time>2012-07-21T05:29:29.1Z</time>
      </trkpt>
      <trkpt lat="45.3824" lon="5.81269">
        <ele>1547</ele>
        <time>2012-07-21T05:29:32.1Z</time>
      </trkpt>
      <trkpt lat="45.38241" lon="5.81269">
        <ele>1547</ele>
        <time>2012-07-21T05:29:34.1Z</time>
      </trkpt>
      <trkpt lat="45.38241" lon="5.8127">
        <ele>1547</ele>
        <time>2012-07-21T05:29:36.1Z</time>
      </trkpt>
      <trkpt lat="45.38241" lon="5.8127">
        <ele>1547</ele>
        <time>2012-07-21T05:29:38.1Z</time>
      </trkpt>
      <trkpt lat="45.38241" lon="5.8127">
        <ele>1547</ele>
        <time>2012-07-21T05:29:40.1Z</time>
      </trkpt>
      <trkpt lat="45.38242" lon="5.81271">
        <ele>1547</ele>
        <time>2012-07-21T05:29:42.1Z</time>
      </trkpt>
      <trkpt lat="45.38243" lon="5.81271">
        <ele>1547</ele>
        <time>2012-07-21T05:29:44.1Z</time>
      </trkpt>
      <trkpt lat="45.38243" lon="5.81272">
        <ele>1547</ele>
        <time>2012-07-21T05:29:46.1Z</time>
      </trkpt>
      <trkpt lat="45.38243" lon="5.81272">
        <ele>1547</ele>
        <time>2012-07-21T05:29:48.1Z</time>
      </trkpt>
      <trkpt lat="45.38243" lon="5.81272">
        <ele>1547</ele>
        <time>2012-07-21T05:29:50.1Z</time>
      </trkpt>
      <trkpt lat="45.38243" lon="5.81273">
        <ele>1547</ele>
        <time>2012-07-21T05:29:52.1Z</time>
      </trkpt>
      <trkpt lat="45.38244" lon="5.81273">
        <ele>1546</ele>
        <time>2012-07-21T05:29:55.1Z</time>
      </trkpt>
      <trkpt lat="45.38244" lon="5.81273">
        <ele>1546</ele>
        <time>2012-07-21T05:29:57.1Z</time>
      </trkpt>
      <trkpt lat="45.38244" lon="5.81274">
        <ele>1546</ele>
        <time>2012-07-21T05:29:59.1Z</time>
      </trkpt>
      <trkpt lat="45.38245" lon="5.81274">
        <ele>1547</ele>
        <time>2012-07-21T05:30:01.1Z</time>
      </trkpt>
      <trkpt lat="45.38246" lon="5.81275">
        <ele>1547</ele>
        <time>2012-07-21T05:30:03.1Z</time>
      </trkpt>
      <trkpt lat="45.38246" lon="5.81275">
        <ele>1547</ele>
        <time>2012-07-21T05:30:05.1Z</time>
      </trkpt>
      <trkpt lat="45.38247" lon="5.81275">
        <ele>1547</ele>
        <time>2012-07-21T05:30:07.1Z</time>
      </trkpt>
      <trkpt lat="45.3825" lon="5.81276">
        <ele>1548</ele>
        <time>2012-07-21T05:30:09.1Z</time>
      </trkpt>
      <trkpt lat="45.38254" lon="5.81278">
        <ele>1548</ele>
        <time>2012-07-21T05:30:11.1Z</time>
      </trkpt>
      <trkpt lat="45.38258" lon="5.81281">
        <ele>1548</ele>
        <time>2012-07-21T05:30:13.1Z</time>
      </trkpt>
      <trkpt lat="45.38263" lon="5.81284">
        <ele>1548</ele>
        <time>2012-07-21T05:30:16.1Z</time>
      </trkpt>
      <trkpt lat="45.38267" lon="5.81287">
        <ele>1548</ele>
        <time>2012-07-21T05:30:18.1Z</time>
      </trkpt>
      <trkpt lat="45.38271" lon="5.81289">
        <ele>1548</ele>
        <time>2012-07-21T05:30:20.1Z</time>
      </trkpt>
      <trkpt lat="45.38276" lon="5.81292">
        <ele>1548</ele>
        <time>2012-07-21T05:30:22.1Z</time>
      </trkpt>
      <trkpt lat="45.38281" lon="5.81296">
        <ele>1548</ele>
        <time>2012-07-21T05:30:24.1Z</time>
      </trkpt>
      <trkpt lat="45.38285" lon="5.81299">
        <ele>1548</ele>
        <time>2012-07-21T05:30:26.1Z</time>
      </trkpt>
      <trkpt lat="45.3829" lon="5.81301">
        <ele>1548</ele>
        <time>2012-07-21T05:30:28.1Z</time>
      </trkpt>
      <trkpt lat="45.38295" lon="5.81304">
        <ele>1548</ele>
        <time>2012-07-21T05:30:30.1Z</time>
      </trkpt>
      <trkpt lat="45.383" lon="5.81306">
        <ele>1548</ele>
        <time>2012-07-21T05:30:32.1Z</time>
      </trkpt>
      <trkpt lat="45.38305" lon="5.81309">
        <ele>1549</ele>
        <time>2012-07-21T05:30:34.1Z</time>
      </trkpt>
      <trkpt lat="45.38308" lon="5.81313">
        <ele>1549</ele>
        <time>2012-07-21T05:30:36.1Z</time>
      </trkpt>
      <trkpt lat="45.38314" lon="5.81318">
        <ele>1549</ele>
        <time>2012-07-21T05:30:38.1Z</time>
      </trkpt>
      <trkpt lat="45.38317" lon="5.81321">
        <ele>1549</ele>
        <time>2012-07-21T05:30:40.1Z</time>
      </trkpt>
      <trkpt lat="45.3832" lon="5.81324">
        <ele>1549</ele>
        <time>2012-07-21T05:30:42.1Z</time>
      </trkpt>
      <trkpt lat="45.38324" lon="5.81327">
        <ele>1550</ele>
        <time>2012-07-21T05:30:45.1Z</time>
      </trkpt>
      <trkpt lat="45.38327" lon="5.8133">
        <ele>1550</ele>
        <time>2012-07-21T05:30:47.1Z</time>
      </trkpt>
      <trkpt lat="45.38329" lon="5.81334">
        <ele>1551</ele>
        <time>2012-07-21T05:30:49.1Z</time>
      </trkpt>
      <trkpt lat="45.38332" lon="5.81338">
        <ele>1551</ele>
        <time>2012-07-21T05:30:51.1Z</time>
      </trkpt>
      <trkpt lat="45.38335" lon="5.81342">
        <ele>1551</ele>
        <time>2012-07-21T05:30:53.1Z</time>
      </trkpt>
      <trkpt lat="45.3834" lon="5.81344">
        <ele>1551</ele>
        <time>2012-07-21T05:30:55.1Z</time>
      </trkpt>
      <trkpt lat="45.38343" lon="5.81346">
        <ele>1552</ele>
        <time>2012-07-21T05:30:57.1Z</time>
      </trkpt>
      <trkpt lat="45.38347" lon="5.81351">
        <ele>1552</ele>
        <time>2012-07-21T05:30:59.1Z</time>
      </trkpt>
      <trkpt lat="45.38351" lon="5.81356">
        <ele>1552</ele>
        <time>2012-07-21T05:31:01.1Z</time>
      </trkpt>
      <trkpt lat="45.38353" lon="5.8136">
        <ele>1553</ele>
        <time>2012-07-21T05:31:03.1Z</time>
      </trkpt>
      <trkpt lat="45.38356" lon="5.81363">
        <ele>1553</ele>
        <time>2012-07-21T05:31:05.1Z</time>
      </trkpt>
      <trkpt lat="45.3836" lon="5.81366">
        <ele>1553</ele>
        <time>2012-07-21T05:31:07.1Z</time>
      </trkpt>
      <trkpt lat="45.38365" lon="5.8137">
        <ele>1554</ele>
        <time>2012-07-21T05:31:09.1Z</time>
      </trkpt>
      <trkpt lat="45.38369" lon="5.81373">
        <ele>1554</ele>
        <time>2012-07-21T05:31:11.1Z</time>
      </trkpt>
      <trkpt lat="45.38371" lon="5.81375">
        <ele>1554</ele>
        <time>2012-07-21T05:31:14.1Z</time>
      </trkpt>
      <trkpt lat="45.38376" lon="5.81376">
        <ele>1555</ele>
        <time>2012-07-21T05:31:16.1Z</time>
      </trkpt>
      <trkpt lat="45.3838" lon="5.81378">
        <ele>1555</ele>
        <time>2012-07-21T05:31:18.1Z</time>
      </trkpt>
      <trkpt lat="45.38385" lon="5.81379">
        <ele>1555</ele>
        <time>2012-07-21T05:31:20.1Z</time>
      </trkpt>
      <trkpt lat="45.38389" lon="5.81381">
        <ele>1555</ele>
        <time>2012-07-21T05:31:22.1Z</time>
      </trkpt>
      <trkpt lat="45.38393" lon="5.81382">
        <ele>1555</ele>
        <time>2012-07-21T05:31:24.1Z</time>
      </trkpt>
      <trkpt lat="45.38396" lon="5.81384">
        <ele>1556</ele>
        <time>2012-07-21T05:31:26.1Z</time>
      </trkpt>
      <trkpt lat="45.384" lon="5.81386">
        <ele>1556</ele>
        <time>2012-07-21T05:31:28.1Z</time>
      </trkpt>
      <trkpt lat="45.38403" lon="5.81388">
        <ele>1556</ele>
        <time>2012-07-21T05:31:30.1Z</time>
      </trkpt>
      <trkpt lat="45.3841" lon="5.81392">
        <ele>1556</ele>
        <time>2012-07-21T05:31:32.1Z</time>
      </trkpt>
      <trkpt lat="45.38414" lon="5.81394">
        <ele>1557</ele>
        <time>2012-07-21T05:31:34.1Z</time>
      </trkpt>
      <trkpt lat="45.38419" lon="5.81396">
        <ele>1557</ele>
        <time>2012-07-21T05:31:36.1Z</time>
      </trkpt>
      <trkpt lat="45.38424" lon="5.814">
        <ele>1557</ele>
        <time>2012-07-21T05:31:39.1Z</time>
      </trkpt>
      <trkpt lat="45.38428" lon="5.81403">
        <ele>1557</ele>
        <time>2012-07-21T05:31:41.1Z</time>
      </trkpt>
      <trkpt lat="45.38433" lon="5.81405">
        <ele>1557</ele>
        <time>2012-07-21T05:31:43.1Z</time>
      </trkpt>
      <trkpt lat="45.38439" lon="5.81407">
        <ele>1557</ele>
        <time>2012-07-21T05:31:45.1Z</time>
      </trkpt>
      <trkpt lat="45.38443" lon="5.81411">
        <ele>1557</ele>
        <time>2012-07-21T05:31:47.1Z</time>
      </trkpt>
      <trkpt lat="45.38447" lon="5.81414">
        <ele>1557</ele>
        <time>2012-07-21T05:31:49.1Z</time>
      </trkpt>
      <trkpt lat="45.38451" lon="5.81416">
        <ele>1557</ele>
        <time>2012-07-21T05:31:51.1Z</time>
      </trkpt>
      <trkpt lat="45.38453" lon="5.8142">
        <ele>1557</ele>
        <time>2012-07-21T05:31:54.1Z</time>
      </trkpt>
      <trkpt lat="45.3845" lon="5.81425">
        <ele>1557</ele>
        <time>2012-07-21T05:31:56.1Z</time>
      </trkpt>
      <trkpt lat="45.38448" lon="5.81428">
        <ele>1557</ele>
        <time>2012-07-21T05:31:58.1Z</time>
      </trkpt>
      <trkpt lat="45.38447" lon="5.81429">
        <ele>1558</ele>
        <time>2012-07-21T05:32:00.1Z</time>
      </trkpt>
      <trkpt lat="45.38447" lon="5.81429">
        <ele>1559</ele>
        <time>2012-07-21T05:32:02.1Z</time>
      </trkpt>
      <trkpt lat="45.38446" lon="5.81431">
        <ele>1559</ele>
        <time>2012-07-21T05:32:04.1Z</time>
      </trkpt>
      <trkpt lat="45.38443" lon="5.81432">
        <ele>1559</ele>
        <time>2012-07-21T05:32:06.1Z</time>
      </trkpt>
      <trkpt lat="45.38441" lon="5.81433">
        <ele>1559</ele>
        <time>2012-07-21T05:32:08.1Z</time>
      </trkpt>
      <trkpt lat="45.3844" lon="5.81435">
        <ele>1559</ele>
        <time>2012-07-21T05:32:10.1Z</time>
      </trkpt>
      <trkpt lat="45.38438" lon="5.81437">
        <ele>1560</ele>
        <time>2012-07-21T05:32:12.1Z</time>
      </trkpt>
      <trkpt lat="45.38437" lon="5.81442">
        <ele>1561</ele>
        <time>2012-07-21T05:32:14.1Z</time>
      </trkpt>
      <trkpt lat="45.38436" lon="5.81444">
        <ele>1561</ele>
        <time>2012-07-21T05:32:16.1Z</time>
      </trkpt>
      <trkpt lat="45.38435" lon="5.81446">
        <ele>1562</ele>
        <time>2012-07-21T05:32:19.1Z</time>
      </trkpt>
      <trkpt lat="45.38433" lon="5.81448">
        <ele>1563</ele>
        <time>2012-07-21T05:32:21.1Z</time>
      </trkpt>
      <trkpt lat="45.38433" lon="5.81449">
        <ele>1564</ele>
        <time>2012-07-21T05:32:23.1Z</time>
      </trkpt>
      <trkpt lat="45.38432" lon="5.81451">
        <ele>1564</ele>
        <time>2012-07-21T05:32:25.1Z</time>
      </trkpt>
      <trkpt lat="45.3843" lon="5.81452">
        <ele>1565</ele>
        <time>2012-07-21T05:32:27.1Z</time>
      </trkpt>
      <trkpt lat="45.38429" lon="5.81454">
        <ele>1567</ele>
        <time>2012-07-21T05:32:29.1Z</time>
      </trkpt>
      <trkpt lat="45.38428" lon="5.81457">
        <ele>1567</ele>
        <time>2012-07-21T05:32:31.1Z</time>
      </trkpt>
      <trkpt lat="45.38427" lon="5.81459">
        <ele>1568</ele>
        <time>2012-07-21T05:32:33.1Z</time>
      </trkpt>
      <trkpt lat="45.38426" lon="5.81462">
        <ele>1569</ele>
        <time>2012-07-21T05:32:35.1Z</time>
      </trkpt>
      <trkpt lat="45.38425" lon="5.81464">
        <ele>1569</ele>
        <time>2012-07-21T05:32:37.1Z</time>
      </trkpt>
      <trkpt lat="45.38423" lon="5.81467">
        <ele>1570</ele>
        <time>2012-07-21T05:32:39.1Z</time>
      </trkpt>
      <trkpt lat="45.38421" lon="5.81469">
        <ele>1570</ele>
        <time>2012-07-21T05:32:42.1Z</time>
      </trkpt>
      <trkpt lat="45.38419" lon="5.8147">
        <ele>1571</ele>
        <time>2012-07-21T05:32:44.1Z</time>
      </trkpt>
      <trkpt lat="45.38417" lon="5.81471">
        <ele>1571</ele>
        <time>2012-07-21T05:32:46.1Z</time>
      </trkpt>
      <trkpt lat="45.38415" lon="5.81472">
        <ele>1572</ele>
        <time>2012-07-21T05:32:48.1Z</time>
      </trkpt>
      <trkpt lat="45.38413" lon="5.81473">
        <ele>1572</ele>
        <time>2012-07-21T05:32:50.1Z</time>
      </trkpt>
      <trkpt lat="45.38411" lon="5.81474">
        <ele>1573</ele>
        <time>2012-07-21T05:32:52.1Z</time>
      </trkpt>
      <trkpt lat="45.38409" lon="5.81474">
        <ele>1573</ele>
        <time>2012-07-21T05:32:54.1Z</time>
      </trkpt>
      <trkpt lat="45.38408" lon="5.81473">
        <ele>1574</ele>
        <time>2012-07-21T05:32:56.1Z</time>
      </trkpt>
      <trkpt lat="45.38405" lon="5.81474">
        <ele>1575</ele>
        <time>2012-07-21T05:32:58.1Z</time>
      </trkpt>
      <trkpt lat="45.38403" lon="5.81475">
        <ele>1575</ele>
        <time>2012-07-21T05:33:00.1Z</time>
      </trkpt>
      <trkpt lat="45.38401" lon="5.81476">
        <ele>1576</ele>
        <time>2012-07-21T05:33:02.1Z</time>
      </trkpt>
      <trkpt lat="45.38398" lon="5.81476">
        <ele>1577</ele>
        <time>2012-07-21T05:33:05.1Z</time>
      </trkpt>
      <trkpt lat="45.38396" lon="5.81475">
        <ele>1577</ele>
        <time>2012-07-21T05:33:07.1Z</time>
      </trkpt>
      <trkpt lat="45.38395" lon="5.81475">
        <ele>1578</ele>
        <time>2012-07-21T05:33:09.1Z</time>
      </trkpt>
      <trkpt lat="45.38393" lon="5.81475">
        <ele>1579</ele>
        <time>2012-07-21T05:33:11.1Z</time>
      </trkpt>
      <trkpt lat="45.3839" lon="5.81475">
        <ele>1579</ele>
        <time>2012-07-21T05:33:13.1Z</time>
      </trkpt>
      <trkpt lat="45.38388" lon="5.81475">
        <ele>1580</ele>
        <time>2012-07-21T05:33:15.1Z</time>
      </trkpt>
      <trkpt lat="45.38386" lon="5.81475">
        <ele>1581</ele>
        <time>2012-07-21T05:33:17.1Z</time>
      </trkpt>
      <trkpt lat="45.38384" lon="5.81474">
        <ele>1581</ele>
        <time>2012-07-21T05:33:19.1Z</time>
      </trkpt>
      <trkpt lat="45.38381" lon="5.81473">
        <ele>1582</ele>
        <time>2012-07-21T05:33:21.1Z</time>
      </trkpt>
      <trkpt lat="45.3838" lon="5.81472">
        <ele>1583</ele>
        <time>2012-07-21T05:33:23.1Z</time>
      </trkpt>
      <trkpt lat="45.38379" lon="5.81471">
        <ele>1583</ele>
        <time>2012-07-21T05:33:25.1Z</time>
      </trkpt>
      <trkpt lat="45.38377" lon="5.8147">
        <ele>1584</ele>
        <time>2012-07-21T05:33:27.1Z</time>
      </trkpt>
      <trkpt lat="45.38375" lon="5.8147">
        <ele>1585</ele>
        <time>2012-07-21T05:33:30.1Z</time>
      </trkpt>
      <trkpt lat="45.38373" lon="5.81469">
        <ele>1585</ele>
        <time>2012-07-21T05:33:32.1Z</time>
      </trkpt>
      <trkpt lat="45.38371" lon="5.81467">
        <ele>1586</ele>
        <time>2012-07-21T05:33:34.1Z</time>
      </trkpt>
      <trkpt lat="45.38368" lon="5.81465">
        <ele>1587</ele>
        <time>2012-07-21T05:33:36.1Z</time>
      </trkpt>
      <trkpt lat="45.38366" lon="5.81464">
        <ele>1587</ele>
        <time>2012-07-21T05:33:38.1Z</time>
      </trkpt>
      <trkpt lat="45.38364" lon="5.81462">
        <ele>1588</ele>
        <time>2012-07-21T05:33:40.1Z</time>
      </trkpt>
      <trkpt lat="45.38363" lon="5.81462">
        <ele>1588</ele>
        <time>2012-07-21T05:33:42.1Z</time>
      </trkpt>
      <trkpt lat="45.38361" lon="5.81461">
        <ele>1588</ele>
        <time>2012-07-21T05:33:44.1Z</time>
      </trkpt>
      <trkpt lat="45.3836" lon="5.8146">
        <ele>1589</ele>
        <time>2012-07-21T05:33:46.1Z</time>
      </trkpt>
      <trkpt lat="45.3836" lon="5.8146">
        <ele>1589</ele>
        <time>2012-07-21T05:33:48.1Z</time>
      </trkpt>
      <trkpt lat="45.38359" lon="5.81459">
        <ele>1589</ele>
        <time>2012-07-21T05:33:50.1Z</time>
      </trkpt>
      <trkpt lat="45.38359" lon="5.81459">
        <ele>1589</ele>
        <time>2012-07-21T05:33:52.1Z</time>
      </trkpt>
      <trkpt lat="45.38359" lon="5.81458">
        <ele>1589</ele>
        <time>2012-07-21T05:33:54.1Z</time>
      </trkpt>
      <trkpt lat="45.38359" lon="5.81458">
        <ele>1589</ele>
        <time>2012-07-21T05:33:56.1Z</time>
      </trkpt>
      <trkpt lat="45.38359" lon="5.81458">
        <ele>1589</ele>
        <time>2012-07-21T05:33:58.1Z</time>
      </trkpt>
      <trkpt lat="45.38359" lon="5.81458">
        <ele>1589</ele>
        <time>2012-07-21T05:34:01.1Z</time>
      </trkpt>
      <trkpt lat="45.38359" lon="5.81457">
        <ele>1589</ele>
        <time>2012-07-21T05:34:03.1Z</time>
      </trkpt>
      <trkpt lat="45.38359" lon="5.81457">
        <ele>1589</ele>
        <time>2012-07-21T05:34:05.1Z</time>
      </trkpt>
      <trkpt lat="45.38359" lon="5.81457">
        <ele>1589</ele>
        <time>2012-07-21T05:34:07.1Z</time>
      </trkpt>
      <trkpt lat="45.38359" lon="5.81457">
        <ele>1589</ele>
        <time>2012-07-21T05:34:09.1Z</time>
      </trkpt>
      <trkpt lat="45.3836" lon="5.81457">
        <ele>1589</ele>
        <time>2012-07-21T05:34:11.1Z</time>
      </trkpt>
      <trkpt lat="45.3836" lon="5.81457">
        <ele>1589</ele>
        <time>2012-07-21T05:34:13.1Z</time>
      </trkpt>
      <trkpt lat="45.3836" lon="5.81457">
        <ele>1589</ele>
        <time>2012-07-21T05:34:15.1Z</time>
      </trkpt>
      <trkpt lat="45.3836" lon="5.81457">
        <ele>1589</ele>
        <time>2012-07-21T05:34:17.1Z</time>
      </trkpt>
      <trkpt lat="45.38362" lon="5.81459">
        <ele>1589</ele>
        <time>2012-07-21T05:34:19.1Z</time>
      </trkpt>
      <trkpt lat="45.38365" lon="5.81466">
        <ele>1589</ele>
        <time>2012-07-21T05:34:21.1Z</time>
      </trkpt>
      <trkpt lat="45.38365" lon="5.81466">
        <ele>1589</ele>
        <time>2012-07-21T05:34:23.1Z</time>
      </trkpt>
      <trkpt lat="45.38365" lon="5.81466">
        <ele>1588</ele>
        <time>2012-07-21T05:34:26.1Z</time>
      </trkpt>
      <trkpt lat="45.38365" lon="5.81466">
        <ele>1588</ele>
        <time>2012-07-21T05:34:28.1Z</time>
      </trkpt>
      <trkpt lat="45.38365" lon="5.81467">
        <ele>1588</ele>
        <time>2012-07-21T05:34:30.1Z</time>
      </trkpt>
      <trkpt lat="45.38365" lon="5.81467">
        <ele>1588</ele>
        <time>2012-07-21T05:34:32.1Z</time>
      </trkpt>
      <trkpt lat="45.38365" lon="5.81466">
        <ele>1588</ele>
        <time>2012-07-21T05:34:34.1Z</time>
      </trkpt>
      <trkpt lat="45.38365" lon="5.81465">
        <ele>1588</ele>
        <time>2012-07-21T05:34:36.1Z</time>
      </trkpt>
      <trkpt lat="45.38365" lon="5.81464">
        <ele>1588</ele>
        <time>2012-07-21T05:34:39.1Z</time>
      </trkpt>
      <trkpt lat="45.38364" lon="5.81463">
        <ele>1587</ele>
        <time>2012-07-21T05:34:41.1Z</time>
      </trkpt>
      <trkpt lat="45.38362" lon="5.81461">
        <ele>1588</ele>
        <time>2012-07-21T05:34:43.1Z</time>
      </trkpt>
      <trkpt lat="45.38361" lon="5.81458">
        <ele>1588</ele>
        <time>2012-07-21T05:34:45.1Z</time>
      </trkpt>
      <trkpt lat="45.38359" lon="5.81457">
        <ele>1588</ele>
        <time>2012-07-21T05:34:47.1Z</time>
      </trkpt>
      <trkpt lat="45.38359" lon="5.81457">
        <ele>1589</ele>
        <time>2012-07-21T05:34:49.1Z</time>
      </trkpt>
      <trkpt lat="45.38358" lon="5.81457">
        <ele>1589</ele>
        <time>2012-07-21T05:34:51.1Z</time>
      </trkpt>
      <trkpt lat="45.38358" lon="5.81457">
        <ele>1589</ele>
        <time>2012-07-21T05:34:53.1Z</time>
      </trkpt>
      <trkpt lat="45.38357" lon="5.81456">
        <ele>1589</ele>
        <time>2012-07-21T05:34:55.1Z</time>
      </trkpt>
      <trkpt lat="45.38356" lon="5.81455">
        <ele>1589</ele>
        <time>2012-07-21T05:34:58.1Z</time>
      </trkpt>
      <trkpt lat="45.38355" lon="5.81455">
        <ele>1590</ele>
        <time>2012-07-21T05:35:00.1Z</time>
      </trkpt>
      <trkpt lat="45.38353" lon="5.81455">
        <ele>1589</ele>
        <time>2012-07-21T05:35:02.1Z</time>
      </trkpt>
      <trkpt lat="45.38351" lon="5.81454">
        <ele>1590</ele>
        <time>2012-07-21T05:35:04.1Z</time>
      </trkpt>
      <trkpt lat="45.38348" lon="5.81453">
        <ele>1590</ele>
        <time>2012-07-21T05:35:06.1Z</time>
      </trkpt>
      <trkpt lat="45.38344" lon="5.81453">
        <ele>1591</ele>
        <time>2012-07-21T05:35:08.1Z</time>
      </trkpt>
      <trkpt lat="45.38339" lon="5.81452">
        <ele>1591</ele>
        <time>2012-07-21T05:35:10.1Z</time>
      </trkpt>
      <trkpt lat="45.38335" lon="5.8145">
        <ele>1591</ele>
        <time>2012-07-21T05:35:12.1Z</time>
      </trkpt>
      <trkpt lat="45.3833" lon="5.81447">
        <ele>1590</ele>
        <time>2012-07-21T05:35:15.1Z</time>
      </trkpt>
      <trkpt lat="45.38325" lon="5.81445">
        <ele>1590</ele>
        <time>2012-07-21T05:35:17.1Z</time>
      </trkpt>
      <trkpt lat="45.38321" lon="5.81443">
        <ele>1590</ele>
        <time>2012-07-21T05:35:19.1Z</time>
      </trkpt>
      <trkpt lat="45.38317" lon="5.81442">
        <ele>1590</ele>
        <time>2012-07-21T05:35:21.1Z</time>
      </trkpt>
      <trkpt lat="45.38314" lon="5.81441">
        <ele>1591</ele>
        <time>2012-07-21T05:35:23.1Z</time>
      </trkpt>
      <trkpt lat="45.3831" lon="5.8144">
        <ele>1591</ele>
        <time>2012-07-21T05:35:25.1Z</time>
      </trkpt>
      <trkpt lat="45.38306" lon="5.81439">
        <ele>1592</ele>
        <time>2012-07-21T05:35:27.1Z</time>
      </trkpt>
      <trkpt lat="45.38302" lon="5.8144">
        <ele>1593</ele>
        <time>2012-07-21T05:35:29.1Z</time>
      </trkpt>
      <trkpt lat="45.38299" lon="5.81439">
        <ele>1593</ele>
        <time>2012-07-21T05:35:31.1Z</time>
      </trkpt>
      <trkpt lat="45.38295" lon="5.81438">
        <ele>1594</ele>
        <time>2012-07-21T05:35:33.1Z</time>
      </trkpt>
      <trkpt lat="45.38288" lon="5.81434">
        <ele>1595</ele>
        <time>2012-07-21T05:35:35.1Z</time>
      </trkpt>
      <trkpt lat="45.38283" lon="5.81431">
        <ele>1595</ele>
        <time>2012-07-21T05:35:37.1Z</time>
      </trkpt>
      <trkpt lat="45.38279" lon="5.81428">
        <ele>1596</ele>
        <time>2012-07-21T05:35:40.1Z</time>
      </trkpt>
      <trkpt lat="45.38274" lon="5.81426">
        <ele>1596</ele>
        <time>2012-07-21T05:35:42.1Z</time>
      </trkpt>
      <trkpt lat="45.38271" lon="5.81425">
        <ele>1597</ele>
        <time>2012-07-21T05:35:44.1Z</time>
      </trkpt>
      <trkpt lat="45.38267" lon="5.81424">
        <ele>1597</ele>
        <time>2012-07-21T05:35:46.1Z</time>
      </trkpt>
      <trkpt lat="45.38262" lon="5.81421">
        <ele>1598</ele>
        <time>2012-07-21T05:35:48.1Z</time>
      </trkpt>
      <trkpt lat="45.38259" lon="5.81419">
        <ele>1598</ele>
        <time>2012-07-21T05:35:50.1Z</time>
      </trkpt>
      <trkpt lat="45.38256" lon="5.81416">
        <ele>1599</ele>
        <time>2012-07-21T05:35:52.1Z</time>
      </trkpt>
      <trkpt lat="45.38253" lon="5.81414">
        <ele>1600</ele>
        <time>2012-07-21T05:35:54.1Z</time>
      </trkpt>
      <trkpt lat="45.3825" lon="5.81412">
        <ele>1601</ele>
        <time>2012-07-21T05:35:57.1Z</time>
      </trkpt>
      <trkpt lat="45.38248" lon="5.81409">
        <ele>1601</ele>
        <time>2012-07-21T05:35:59.1Z</time>
      </trkpt>
      <trkpt lat="45.38245" lon="5.81406">
        <ele>1602</ele>
        <time>2012-07-21T05:36:01.1Z</time>
      </trkpt>
      <trkpt lat="45.38242" lon="5.81405">
        <ele>1603</ele>
        <time>2012-07-21T05:36:03.1Z</time>
      </trkpt>
      <trkpt lat="45.3824" lon="5.81404">
        <ele>1604</ele>
        <time>2012-07-21T05:36:05.1Z</time>
      </trkpt>
      <trkpt lat="45.38236" lon="5.81402">
        <ele>1605</ele>
        <time>2012-07-21T05:36:07.1Z</time>
      </trkpt>
      <trkpt lat="45.38235" lon="5.814">
        <ele>1605</ele>
        <time>2012-07-21T05:36:09.1Z</time>
      </trkpt>
      <trkpt lat="45.38232" lon="5.81398">
        <ele>1605</ele>
        <time>2012-07-21T05:36:11.1Z</time>
      </trkpt>
      <trkpt lat="45.38229" lon="5.81398">
        <ele>1605</ele>
        <time>2012-07-21T05:36:13.1Z</time>
      </trkpt>
      <trkpt lat="45.38226" lon="5.81397">
        <ele>1605</ele>
        <time>2012-07-21T05:36:15.1Z</time>
      </trkpt>
      <trkpt lat="45.38223" lon="5.81398">
        <ele>1606</ele>
        <time>2012-07-21T05:36:17.1Z</time>
      </trkpt>
      <trkpt lat="45.38222" lon="5.81399">
        <ele>1606</ele>
        <time>2012-07-21T05:36:19.1Z</time>
      </trkpt>
      <trkpt lat="45.3822" lon="5.814">
        <ele>1607</ele>
        <time>2012-07-21T05:36:21.1Z</time>
      </trkpt>
      <trkpt lat="45.38218" lon="5.814">
        <ele>1608</ele>
        <time>2012-07-21T05:36:23.1Z</time>
      </trkpt>
      <trkpt lat="45.38216" lon="5.81399">
        <ele>1608</ele>
        <time>2012-07-21T05:36:25.1Z</time>
      </trkpt>
      <trkpt lat="45.38215" lon="5.814">
        <ele>1609</ele>
        <time>2012-07-21T05:36:28.1Z</time>
      </trkpt>
      <trkpt lat="45.38214" lon="5.81403">
        <ele>1610</ele>
        <time>2012-07-21T05:36:30.1Z</time>
      </trkpt>
      <trkpt lat="45.38213" lon="5.81404">
        <ele>1611</ele>
        <time>2012-07-21T05:36:32.1Z</time>
      </trkpt>
      <trkpt lat="45.38211" lon="5.81405">
        <ele>1611</ele>
        <time>2012-07-21T05:36:34.1Z</time>
      </trkpt>
      <trkpt lat="45.3821" lon="5.81405">
        <ele>1612</ele>
        <time>2012-07-21T05:36:36.1Z</time>
      </trkpt>
      <trkpt lat="45.38208" lon="5.81404">
        <ele>1612</ele>
        <time>2012-07-21T05:36:38.1Z</time>
      </trkpt>
      <trkpt lat="45.38207" lon="5.81404">
        <ele>1614</ele>
        <time>2012-07-21T05:36:40.1Z</time>
      </trkpt>
      <trkpt lat="45.38206" lon="5.81405">
        <ele>1614</ele>
        <time>2012-07-21T05:36:42.1Z</time>
      </trkpt>
      <trkpt lat="45.38205" lon="5.81407">
        <ele>1615</ele>
        <time>2012-07-21T05:36:44.1Z</time>
      </trkpt>
      <trkpt lat="45.38203" lon="5.81406">
        <ele>1616</ele>
        <time>2012-07-21T05:36:46.1Z</time>
      </trkpt>
      <trkpt lat="45.38202" lon="5.81405">
        <ele>1616</ele>
        <time>2012-07-21T05:36:48.1Z</time>
      </trkpt>
      <trkpt lat="45.382" lon="5.81405">
        <ele>1616</ele>
        <time>2012-07-21T05:36:50.1Z</time>
      </trkpt>
      <trkpt lat="45.38199" lon="5.81404">
        <ele>1617</ele>
        <time>2012-07-21T05:36:52.1Z</time>
      </trkpt>
      <trkpt lat="45.38197" lon="5.81403">
        <ele>1617</ele>
        <time>2012-07-21T05:36:54.1Z</time>
      </trkpt>
      <trkpt lat="45.38196" lon="5.81402">
        <ele>1618</ele>
        <time>2012-07-21T05:36:57.1Z</time>
      </trkpt>
      <trkpt lat="45.38195" lon="5.814">
        <ele>1618</ele>
        <time>2012-07-21T05:36:59.1Z</time>
      </trkpt>
      <trkpt lat="45.38194" lon="5.81399">
        <ele>1619</ele>
        <time>2012-07-21T05:37:01.1Z</time>
      </trkpt>
      <trkpt lat="45.38192" lon="5.81398">
        <ele>1620</ele>
        <time>2012-07-21T05:37:03.1Z</time>
      </trkpt>
      <trkpt lat="45.38192" lon="5.81399">
        <ele>1620</ele>
        <time>2012-07-21T05:37:05.1Z</time>
      </trkpt>
      <trkpt lat="45.38189" lon="5.814">
        <ele>1621</ele>
        <time>2012-07-21T05:37:07.1Z</time>
      </trkpt>
      <trkpt lat="45.38188" lon="5.81399">
        <ele>1622</ele>
        <time>2012-07-21T05:37:09.1Z</time>
      </trkpt>
      <trkpt lat="45.38185" lon="5.81398">
        <ele>1622</ele>
        <time>2012-07-21T05:37:12.1Z</time>
      </trkpt>
      <trkpt lat="45.38184" lon="5.81398">
        <ele>1623</ele>
        <time>2012-07-21T05:37:14.1Z</time>
      </trkpt>
      <trkpt lat="45.38182" lon="5.81399">
        <ele>1624</ele>
        <time>2012-07-21T05:37:16.1Z</time>
      </trkpt>
      <trkpt lat="45.38182" lon="5.81399">
        <ele>1624</ele>
        <time>2012-07-21T05:37:18.1Z</time>
      </trkpt>
      <trkpt lat="45.38181" lon="5.81399">
        <ele>1625</ele>
        <time>2012-07-21T05:37:20.1Z</time>
      </trkpt>
      <trkpt lat="45.3818" lon="5.814">
        <ele>1625</ele>
        <time>2012-07-21T05:37:22.1Z</time>
      </trkpt>
      <trkpt lat="45.3818" lon="5.81401">
        <ele>1626</ele>
        <time>2012-07-21T05:37:24.1Z</time>
      </trkpt>
      <trkpt lat="45.3818" lon="5.81401">
        <ele>1626</ele>
        <time>2012-07-21T05:37:27.1Z</time>
      </trkpt>
      <trkpt lat="45.3818" lon="5.81401">
        <ele>1626</ele>
        <time>2012-07-21T05:37:29.1Z</time>
      </trkpt>
      <trkpt lat="45.38179" lon="5.814">
        <ele>1627</ele>
        <time>2012-07-21T05:37:31.1Z</time>
      </trkpt>
      <trkpt lat="45.38179" lon="5.81399">
        <ele>1627</ele>
        <time>2012-07-21T05:37:33.1Z</time>
      </trkpt>
      <trkpt lat="45.38178" lon="5.81399">
        <ele>1627</ele>
        <time>2012-07-21T05:37:35.1Z</time>
      </trkpt>
      <trkpt lat="45.38176" lon="5.81399">
        <ele>1628</ele>
        <time>2012-07-21T05:37:37.1Z</time>
      </trkpt>
      <trkpt lat="45.38175" lon="5.81399">
        <ele>1628</ele>
        <time>2012-07-21T05:37:39.1Z</time>
      </trkpt>
      <trkpt lat="45.38174" lon="5.814">
        <ele>1629</ele>
        <time>2012-07-21T05:37:41.1Z</time>
      </trkpt>
      <trkpt lat="45.38174" lon="5.81402">
        <ele>1630</ele>
        <time>2012-07-21T05:37:43.1Z</time>
      </trkpt>
      <trkpt lat="45.38175" lon="5.81405">
        <ele>1630</ele>
        <time>2012-07-21T05:37:45.1Z</time>
      </trkpt>
      <trkpt lat="45.38175" lon="5.81407">
        <ele>1630</ele>
        <time>2012-07-21T05:37:47.1Z</time>
      </trkpt>
      <trkpt lat="45.38175" lon="5.8141">
        <ele>1631</ele>
        <time>2012-07-21T05:37:49.1Z</time>
      </trkpt>
      <trkpt lat="45.38174" lon="5.81411">
        <ele>1631</ele>
        <time>2012-07-21T05:37:51.1Z</time>
      </trkpt>
      <trkpt lat="45.38173" lon="5.81413">
        <ele>1632</ele>
        <time>2012-07-21T05:37:53.1Z</time>
      </trkpt>
      <trkpt lat="45.38172" lon="5.81414">
        <ele>1632</ele>
        <time>2012-07-21T05:37:55.1Z</time>
      </trkpt>
      <trkpt lat="45.38172" lon="5.81415">
        <ele>1633</ele>
        <time>2012-07-21T05:37:57.1Z</time>
      </trkpt>
      <trkpt lat="45.38174" lon="5.81415">
        <ele>1634</ele>
        <time>2012-07-21T05:37:59.1Z</time>
      </trkpt>
      <trkpt lat="45.38174" lon="5.81417">
        <ele>1635</ele>
        <time>2012-07-21T05:38:02.1Z</time>
      </trkpt>
      <trkpt lat="45.38174" lon="5.81419">
        <ele>1635</ele>
        <time>2012-07-21T05:38:04.1Z</time>
      </trkpt>
      <trkpt lat="45.38175" lon="5.81421">
        <ele>1636</ele>
        <time>2012-07-21T05:38:06.1Z</time>
      </trkpt>
      <trkpt lat="45.38176" lon="5.81423">
        <ele>1636</ele>
        <time>2012-07-21T05:38:08.1Z</time>
      </trkpt>
      <trkpt lat="45.38176" lon="5.81425">
        <ele>1637</ele>
        <time>2012-07-21T05:38:10.1Z</time>
      </trkpt>
      <trkpt lat="45.38175" lon="5.81425">
        <ele>1637</ele>
        <time>2012-07-21T05:38:12.1Z</time>
      </trkpt>
      <trkpt lat="45.38174" lon="5.81423">
        <ele>1638</ele>
        <time>2012-07-21T05:38:14.1Z</time>
      </trkpt>
      <trkpt lat="45.38174" lon="5.81423">
        <ele>1638</ele>
        <time>2012-07-21T05:38:16.1Z</time>
      </trkpt>
      <trkpt lat="45.38173" lon="5.81425">
        <ele>1638</ele>
        <time>2012-07-21T05:38:18.1Z</time>
      </trkpt>
      <trkpt lat="45.38172" lon="5.81426">
        <ele>1639</ele>
        <time>2012-07-21T05:38:20.1Z</time>
      </trkpt>
      <trkpt lat="45.38172" lon="5.81426">
        <ele>1640</ele>
        <time>2012-07-21T05:38:22.1Z</time>
      </trkpt>
      <trkpt lat="45.38172" lon="5.81428">
        <ele>1640</ele>
        <time>2012-07-21T05:38:24.1Z</time>
      </trkpt>
      <trkpt lat="45.38172" lon="5.81427">
        <ele>1641</ele>
        <time>2012-07-21T05:38:26.1Z</time>
      </trkpt>
      <trkpt lat="45.38172" lon="5.81428">
        <ele>1642</ele>
        <time>2012-07-21T05:38:28.1Z</time>
      </trkpt>
      <trkpt lat="45.38174" lon="5.8143">
        <ele>1642</ele>
        <time>2012-07-21T05:38:30.1Z</time>
      </trkpt>
      <trkpt lat="45.38173" lon="5.81432">
        <ele>1643</ele>
        <time>2012-07-21T05:38:32.1Z</time>
      </trkpt>
      <trkpt lat="45.38172" lon="5.81433">
        <ele>1644</ele>
        <time>2012-07-21T05:38:34.1Z</time>
      </trkpt>
      <trkpt lat="45.38171" lon="5.81434">
        <ele>1644</ele>
        <time>2012-07-21T05:38:37.1Z</time>
      </trkpt>
      <trkpt lat="45.38169" lon="5.81434">
        <ele>1644</ele>
        <time>2012-07-21T05:38:39.1Z</time>
      </trkpt>
      <trkpt lat="45.38168" lon="5.81433">
        <ele>1645</ele>
        <time>2012-07-21T05:38:41.1Z</time>
      </trkpt>
      <trkpt lat="45.38167" lon="5.81434">
        <ele>1646</ele>
        <time>2012-07-21T05:38:43.1Z</time>
      </trkpt>
      <trkpt lat="45.38165" lon="5.81435">
        <ele>1647</ele>
        <time>2012-07-21T05:38:45.1Z</time>
      </trkpt>
      <trkpt lat="45.38164" lon="5.81437">
        <ele>1647</ele>
        <time>2012-07-21T05:38:47.1Z</time>
      </trkpt>
      <trkpt lat="45.38163" lon="5.81439">
        <ele>1647</ele>
        <time>2012-07-21T05:38:49.1Z</time>
      </trkpt>
      <trkpt lat="45.38163" lon="5.8144">
        <ele>1647</ele>
        <time>2012-07-21T05:38:51.1Z</time>
      </trkpt>
      <trkpt lat="45.38164" lon="5.81441">
        <ele>1648</ele>
        <time>2012-07-21T05:38:54.1Z</time>
      </trkpt>
      <trkpt lat="45.38164" lon="5.81441">
        <ele>1648</ele>
        <time>2012-07-21T05:38:56.1Z</time>
      </trkpt>
      <trkpt lat="45.38164" lon="5.81441">
        <ele>1649</ele>
        <time>2012-07-21T05:38:58.1Z</time>
      </trkpt>
      <trkpt lat="45.38165" lon="5.81439">
        <ele>1650</ele>
        <time>2012-07-21T05:39:00.1Z</time>
      </trkpt>
      <trkpt lat="45.38166" lon="5.81438">
        <ele>1650</ele>
        <time>2012-07-21T05:39:02.1Z</time>
      </trkpt>
      <trkpt lat="45.38166" lon="5.81437">
        <ele>1651</ele>
        <time>2012-07-21T05:39:04.1Z</time>
      </trkpt>
      <trkpt lat="45.38167" lon="5.81438">
        <ele>1651</ele>
        <time>2012-07-21T05:39:06.1Z</time>
      </trkpt>
      <trkpt lat="45.38168" lon="5.81438">
        <ele>1653</ele>
        <time>2012-07-21T05:39:08.1Z</time>
      </trkpt>
      <trkpt lat="45.38169" lon="5.81439">
        <ele>1653</ele>
        <time>2012-07-21T05:39:10.1Z</time>
      </trkpt>
      <trkpt lat="45.38169" lon="5.81438">
        <ele>1654</ele>
        <time>2012-07-21T05:39:13.1Z</time>
      </trkpt>
      <trkpt lat="45.38171" lon="5.81439">
        <ele>1655</ele>
        <time>2012-07-21T05:39:15.1Z</time>
      </trkpt>
      <trkpt lat="45.38171" lon="5.8144">
        <ele>1655</ele>
        <time>2012-07-21T05:39:17.1Z</time>
      </trkpt>
      <trkpt lat="45.38171" lon="5.8144">
        <ele>1656</ele>
        <time>2012-07-21T05:39:19.1Z</time>
      </trkpt>
      <trkpt lat="45.38174" lon="5.81441">
        <ele>1656</ele>
        <time>2012-07-21T05:39:21.1Z</time>
      </trkpt>
      <trkpt lat="45.38174" lon="5.81444">
        <ele>1657</ele>
        <time>2012-07-21T05:39:23.1Z</time>
      </trkpt>
      <trkpt lat="45.38174" lon="5.81446">
        <ele>1657</ele>
        <time>2012-07-21T05:39:26.1Z</time>
      </trkpt>
      <trkpt lat="45.38173" lon="5.81448">
        <ele>1657</ele>
        <time>2012-07-21T05:39:28.1Z</time>
      </trkpt>
      <trkpt lat="45.38172" lon="5.81448">
        <ele>1658</ele>
        <time>2012-07-21T05:39:30.1Z</time>
      </trkpt>
      <trkpt lat="45.38171" lon="5.81448">
        <ele>1658</ele>
        <time>2012-07-21T05:39:32.1Z</time>
      </trkpt>
      <trkpt lat="45.38169" lon="5.81449">
        <ele>1659</ele>
        <time>2012-07-21T05:39:34.1Z</time>
      </trkpt>
      <trkpt lat="45.38168" lon="5.8145">
        <ele>1659</ele>
        <time>2012-07-21T05:39:36.1Z</time>
      </trkpt>
      <trkpt lat="45.38167" lon="5.81451">
        <ele>1660</ele>
        <time>2012-07-21T05:39:38.1Z</time>
      </trkpt>
      <trkpt lat="45.38167" lon="5.81452">
        <ele>1661</ele>
        <time>2012-07-21T05:39:40.1Z</time>
      </trkpt>
      <trkpt lat="45.38165" lon="5.81452">
        <ele>1661</ele>
        <time>2012-07-21T05:39:43.1Z</time>
      </trkpt>
      <trkpt lat="45.38164" lon="5.81453">
        <ele>1662</ele>
        <time>2012-07-21T05:39:45.1Z</time>
      </trkpt>
      <trkpt lat="45.38163" lon="5.81454">
        <ele>1662</ele>
        <time>2012-07-21T05:39:47.1Z</time>
      </trkpt>
      <trkpt lat="45.38163" lon="5.81455">
        <ele>1662</ele>
        <time>2012-07-21T05:39:49.1Z</time>
      </trkpt>
      <trkpt lat="45.38162" lon="5.81455">
        <ele>1663</ele>
        <time>2012-07-21T05:39:51.1Z</time>
      </trkpt>
      <trkpt lat="45.38162" lon="5.81457">
        <ele>1664</ele>
        <time>2012-07-21T05:39:53.1Z</time>
      </trkpt>
      <trkpt lat="45.3816" lon="5.81456">
        <ele>1665</ele>
        <time>2012-07-21T05:39:55.1Z</time>
      </trkpt>
      <trkpt lat="45.38158" lon="5.81456">
        <ele>1665</ele>
        <time>2012-07-21T05:39:57.1Z</time>
      </trkpt>
      <trkpt lat="45.38156" lon="5.81455">
        <ele>1666</ele>
        <time>2012-07-21T05:39:59.1Z</time>
      </trkpt>
      <trkpt lat="45.38154" lon="5.81455">
        <ele>1665</ele>
        <time>2012-07-21T05:40:02.1Z</time>
      </trkpt>
      <trkpt lat="45.38152" lon="5.81454">
        <ele>1665</ele>
        <time>2012-07-21T05:40:04.1Z</time>
      </trkpt>
      <trkpt lat="45.38151" lon="5.81454">
        <ele>1664</ele>
        <time>2012-07-21T05:40:06.1Z</time>
      </trkpt>
      <trkpt lat="45.3815" lon="5.81454">
        <ele>1663</ele>
        <time>2012-07-21T05:40:08.1Z</time>
      </trkpt>
      <trkpt lat="45.38149" lon="5.81455">
        <ele>1662</ele>
        <time>2012-07-21T05:40:10.1Z</time>
      </trkpt>
      <trkpt lat="45.3815" lon="5.81457">
        <ele>1661</ele>
        <time>2012-07-21T05:40:12.1Z</time>
      </trkpt>
      <trkpt lat="45.38149" lon="5.81458">
        <ele>1660</ele>
        <time>2012-07-21T05:40:14.1Z</time>
      </trkpt>
      <trkpt lat="45.38147" lon="5.81457">
        <ele>1659</ele>
        <time>2012-07-21T05:40:16.1Z</time>
      </trkpt>
      <trkpt lat="45.38146" lon="5.81457">
        <ele>1658</ele>
        <time>2012-07-21T05:40:19.1Z</time>
      </trkpt>
      <trkpt lat="45.38145" lon="5.81457">
        <ele>1658</ele>
        <time>2012-07-21T05:40:21.1Z</time>
      </trkpt>
      <trkpt lat="45.38145" lon="5.81458">
        <ele>1657</ele>
        <time>2012-07-21T05:40:23.1Z</time>
      </trkpt>
      <trkpt lat="45.38143" lon="5.81458">
        <ele>1657</ele>
        <time>2012-07-21T05:40:25.1Z</time>
      </trkpt>
      <trkpt lat="45.38141" lon="5.81457">
        <ele>1657</ele>
        <time>2012-07-21T05:40:27.1Z</time>
      </trkpt>
      <trkpt lat="45.38139" lon="5.81457">
        <ele>1657</ele>
        <time>2012-07-21T05:40:29.1Z</time>
      </trkpt>
      <trkpt lat="45.38137" lon="5.81456">
        <ele>1657</ele>
        <time>2012-07-21T05:40:31.1Z</time>
      </trkpt>
      <trkpt lat="45.38136" lon="5.81456">
        <ele>1657</ele>
        <time>2012-07-21T05:40:33.1Z</time>
      </trkpt>
      <trkpt lat="45.38135" lon="5.81455">
        <ele>1658</ele>
        <time>2012-07-21T05:40:35.1Z</time>
      </trkpt>
      <trkpt lat="45.38132" lon="5.81454">
        <ele>1658</ele>
        <time>2012-07-21T05:40:37.1Z</time>
      </trkpt>
      <trkpt lat="45.38131" lon="5.81453">
        <ele>1658</ele>
        <time>2012-07-21T05:40:39.1Z</time>
      </trkpt>
      <trkpt lat="45.38129" lon="5.81452">
        <ele>1659</ele>
        <time>2012-07-21T05:40:41.1Z</time>
      </trkpt>
      <trkpt lat="45.38127" lon="5.81452">
        <ele>1659</ele>
        <time>2012-07-21T05:40:43.1Z</time>
      </trkpt>
      <trkpt lat="45.38124" lon="5.81451">
        <ele>1660</ele>
        <time>2012-07-21T05:40:45.1Z</time>
      </trkpt>
      <trkpt lat="45.38123" lon="5.81451">
        <ele>1661</ele>
        <time>2012-07-21T05:40:48.1Z</time>
      </trkpt>
      <trkpt lat="45.38122" lon="5.81451">
        <ele>1661</ele>
        <time>2012-07-21T05:40:50.1Z</time>
      </trkpt>
      <trkpt lat="45.38121" lon="5.81453">
        <ele>1662</ele>
        <time>2012-07-21T05:40:52.1Z</time>
      </trkpt>
      <trkpt lat="45.3812" lon="5.81452">
        <ele>1662</ele>
        <time>2012-07-21T05:40:54.1Z</time>
      </trkpt>
      <trkpt lat="45.38117" lon="5.81452">
        <ele>1662</ele>
        <time>2012-07-21T05:40:56.1Z</time>
      </trkpt>
      <trkpt lat="45.38115" lon="5.81452">
        <ele>1663</ele>
        <time>2012-07-21T05:40:58.1Z</time>
      </trkpt>
      <trkpt lat="45.38113" lon="5.81452">
        <ele>1663</ele>
        <time>2012-07-21T05:41:00.1Z</time>
      </trkpt>
      <trkpt lat="45.38111" lon="5.81451">
        <ele>1663</ele>
        <time>2012-07-21T05:41:02.1Z</time>
      </trkpt>
      <trkpt lat="45.38109" lon="5.81451">
        <ele>1664</ele>
        <time>2012-07-21T05:41:04.1Z</time>
      </trkpt>
      <trkpt lat="45.38107" lon="5.8145">
        <ele>1665</ele>
        <time>2012-07-21T05:41:06.1Z</time>
      </trkpt>
      <trkpt lat="45.38107" lon="5.81449">
        <ele>1666</ele>
        <time>2012-07-21T05:41:09.1Z</time>
      </trkpt>
      <trkpt lat="45.38105" lon="5.81449">
        <ele>1666</ele>
        <time>2012-07-21T05:41:11.1Z</time>
      </trkpt>
      <trkpt lat="45.38104" lon="5.81449">
        <ele>1667</ele>
        <time>2012-07-21T05:41:13.1Z</time>
      </trkpt>
      <trkpt lat="45.38102" lon="5.81449">
        <ele>1667</ele>
        <time>2012-07-21T05:41:15.1Z</time>
      </trkpt>
      <trkpt lat="45.38102" lon="5.81448">
        <ele>1668</ele>
        <time>2012-07-21T05:41:18.1Z</time>
      </trkpt>
      <trkpt lat="45.38101" lon="5.81448">
        <ele>1669</ele>
        <time>2012-07-21T05:41:20.1Z</time>
      </trkpt>
      <trkpt lat="45.38099" lon="5.81448">
        <ele>1670</ele>
        <time>2012-07-21T05:41:22.1Z</time>
      </trkpt>
      <trkpt lat="45.38099" lon="5.81449">
        <ele>1671</ele>
        <time>2012-07-21T05:41:25.1Z</time>
      </trkpt>
      <trkpt lat="45.38097" lon="5.8145">
        <ele>1671</ele>
        <time>2012-07-21T05:41:27.1Z</time>
      </trkpt>
      <trkpt lat="45.38096" lon="5.81452">
        <ele>1672</ele>
        <time>2012-07-21T05:41:29.1Z</time>
      </trkpt>
      <trkpt lat="45.38095" lon="5.81452">
        <ele>1672</ele>
        <time>2012-07-21T05:41:31.1Z</time>
      </trkpt>
      <trkpt lat="45.38095" lon="5.81452">
        <ele>1673</ele>
        <time>2012-07-21T05:41:33.1Z</time>
      </trkpt>
      <trkpt lat="45.38094" lon="5.81453">
        <ele>1673</ele>
        <time>2012-07-21T05:41:35.1Z</time>
      </trkpt>
      <trkpt lat="45.38093" lon="5.81452">
        <ele>1674</ele>
        <time>2012-07-21T05:41:38.1Z</time>
      </trkpt>
      <trkpt lat="45.38092" lon="5.81452">
        <ele>1674</ele>
        <time>2012-07-21T05:41:40.1Z</time>
      </trkpt>
      <trkpt lat="45.3809" lon="5.81451">
        <ele>1675</ele>
        <time>2012-07-21T05:41:42.1Z</time>
      </trkpt>
      <trkpt lat="45.3809" lon="5.81451">
        <ele>1675</ele>
        <time>2012-07-21T05:41:44.1Z</time>
      </trkpt>
      <trkpt lat="45.38087" lon="5.8145">
        <ele>1676</ele>
        <time>2012-07-21T05:41:46.1Z</time>
      </trkpt>
      <trkpt lat="45.38086" lon="5.8145">
        <ele>1677</ele>
        <time>2012-07-21T05:41:48.1Z</time>
      </trkpt>
      <trkpt lat="45.38084" lon="5.8145">
        <ele>1678</ele>
        <time>2012-07-21T05:41:50.1Z</time>
      </trkpt>
      <trkpt lat="45.38083" lon="5.81451">
        <ele>1678</ele>
        <time>2012-07-21T05:41:53.1Z</time>
      </trkpt>
      <trkpt lat="45.38082" lon="5.8145">
        <ele>1679</ele>
        <time>2012-07-21T05:41:55.1Z</time>
      </trkpt>
      <trkpt lat="45.38081" lon="5.81449">
        <ele>1679</ele>
        <time>2012-07-21T05:41:57.1Z</time>
      </trkpt>
      <trkpt lat="45.3808" lon="5.81448">
        <ele>1679</ele>
        <time>2012-07-21T05:41:59.1Z</time>
      </trkpt>
      <trkpt lat="45.38078" lon="5.81448">
        <ele>1680</ele>
        <time>2012-07-21T05:42:01.1Z</time>
      </trkpt>
      <trkpt lat="45.38077" lon="5.81449">
        <ele>1681</ele>
        <time>2012-07-21T05:42:03.1Z</time>
      </trkpt>
      <trkpt lat="45.38076" lon="5.81448">
        <ele>1682</ele>
        <time>2012-07-21T05:42:06.1Z</time>
      </trkpt>
      <trkpt lat="45.38074" lon="5.81447">
        <ele>1683</ele>
        <time>2012-07-21T05:42:08.1Z</time>
      </trkpt>
      <trkpt lat="45.38073" lon="5.81447">
        <ele>1684</ele>
        <time>2012-07-21T05:42:10.1Z</time>
      </trkpt>
      <trkpt lat="45.38071" lon="5.81449">
        <ele>1685</ele>
        <time>2012-07-21T05:42:12.1Z</time>
      </trkpt>
      <trkpt lat="45.3807" lon="5.8145">
        <ele>1685</ele>
        <time>2012-07-21T05:42:14.1Z</time>
      </trkpt>
      <trkpt lat="45.38068" lon="5.8145">
        <ele>1686</ele>
        <time>2012-07-21T05:42:17.1Z</time>
      </trkpt>
      <trkpt lat="45.38067" lon="5.81451">
        <ele>1687</ele>
        <time>2012-07-21T05:42:19.1Z</time>
      </trkpt>
      <trkpt lat="45.38066" lon="5.8145">
        <ele>1687</ele>
        <time>2012-07-21T05:42:21.1Z</time>
      </trkpt>
      <trkpt lat="45.38065" lon="5.8145">
        <ele>1688</ele>
        <time>2012-07-21T05:42:24.1Z</time>
      </trkpt>
      <trkpt lat="45.38063" lon="5.8145">
        <ele>1688</ele>
        <time>2012-07-21T05:42:26.1Z</time>
      </trkpt>
      <trkpt lat="45.38062" lon="5.81449">
        <ele>1689</ele>
        <time>2012-07-21T05:42:28.1Z</time>
      </trkpt>
      <trkpt lat="45.3806" lon="5.81449">
        <ele>1690</ele>
        <time>2012-07-21T05:42:31.1Z</time>
      </trkpt>
      <trkpt lat="45.38058" lon="5.81449">
        <ele>1691</ele>
        <time>2012-07-21T05:42:33.1Z</time>
      </trkpt>
      <trkpt lat="45.38057" lon="5.81448">
        <ele>1691</ele>
        <time>2012-07-21T05:42:35.1Z</time>
      </trkpt>
      <trkpt lat="45.38056" lon="5.81448">
        <ele>1691</ele>
        <time>2012-07-21T05:42:37.1Z</time>
      </trkpt>
      <trkpt lat="45.38055" lon="5.81447">
        <ele>1691</ele>
        <time>2012-07-21T05:42:39.1Z</time>
      </trkpt>
      <trkpt lat="45.38052" lon="5.81445">
        <ele>1692</ele>
        <time>2012-07-21T05:42:41.1Z</time>
      </trkpt>
      <trkpt lat="45.38052" lon="5.81445">
        <ele>1692</ele>
        <time>2012-07-21T05:42:44.1Z</time>
      </trkpt>
      <trkpt lat="45.38051" lon="5.81447">
        <ele>1693</ele>
        <time>2012-07-21T05:42:46.1Z</time>
      </trkpt>
      <trkpt lat="45.3805" lon="5.81448">
        <ele>1693</ele>
        <time>2012-07-21T05:42:48.1Z</time>
      </trkpt>
      <trkpt lat="45.38049" lon="5.81448">
        <ele>1694</ele>
        <time>2012-07-21T05:42:50.1Z</time>
      </trkpt>
      <trkpt lat="45.3805" lon="5.81449">
        <ele>1694</ele>
        <time>2012-07-21T05:42:52.1Z</time>
      </trkpt>
      <trkpt lat="45.3805" lon="5.81449">
        <ele>1694</ele>
        <time>2012-07-21T05:42:55.1Z</time>
      </trkpt>
      <trkpt lat="45.38053" lon="5.81451">
        <ele>1694</ele>
        <time>2012-07-21T05:42:57.1Z</time>
      </trkpt>
      <trkpt lat="45.38055" lon="5.81453">
        <ele>1694</ele>
        <time>2012-07-21T05:42:59.1Z</time>
      </trkpt>
      <trkpt lat="45.38056" lon="5.81453">
        <ele>1695</ele>
        <time>2012-07-21T05:43:01.1Z</time>
      </trkpt>
      <trkpt lat="45.38058" lon="5.81453">
        <ele>1695</ele>
        <time>2012-07-21T05:43:03.1Z</time>
      </trkpt>
      <trkpt lat="45.38059" lon="5.81455">
        <ele>1695</ele>
        <time>2012-07-21T05:43:05.1Z</time>
      </trkpt>
      <trkpt lat="45.38059" lon="5.81456">
        <ele>1695</ele>
        <time>2012-07-21T05:43:07.1Z</time>
      </trkpt>
      <trkpt lat="45.38059" lon="5.81457">
        <ele>1695</ele>
        <time>2012-07-21T05:43:09.1Z</time>
      </trkpt>
      <trkpt lat="45.38058" lon="5.81458">
        <ele>1694</ele>
        <time>2012-07-21T05:43:11.1Z</time>
      </trkpt>
      <trkpt lat="45.38059" lon="5.81459">
        <ele>1694</ele>
        <time>2012-07-21T05:43:13.1Z</time>
      </trkpt>
      <trkpt lat="45.38058" lon="5.81461">
        <ele>1694</ele>
        <time>2012-07-21T05:43:15.1Z</time>
      </trkpt>
      <trkpt lat="45.38057" lon="5.81461">
        <ele>1695</ele>
        <time>2012-07-21T05:43:17.1Z</time>
      </trkpt>
      <trkpt lat="45.38058" lon="5.81462">
        <ele>1695</ele>
        <time>2012-07-21T05:43:20.1Z</time>
      </trkpt>
      <trkpt lat="45.38058" lon="5.81464">
        <ele>1694</ele>
        <time>2012-07-21T05:43:22.1Z</time>
      </trkpt>
      <trkpt lat="45.38059" lon="5.81465">
        <ele>1694</ele>
        <time>2012-07-21T05:43:24.1Z</time>
      </trkpt>
      <trkpt lat="45.38058" lon="5.81466">
        <ele>1693</ele>
        <time>2012-07-21T05:43:26.1Z</time>
      </trkpt>
      <trkpt lat="45.38058" lon="5.81467">
        <ele>1692</ele>
        <time>2012-07-21T05:43:28.1Z</time>
      </trkpt>
      <trkpt lat="45.38058" lon="5.81468">
        <ele>1692</ele>
        <time>2012-07-21T05:43:30.1Z</time>
      </trkpt>
      <trkpt lat="45.38059" lon="5.81469">
        <ele>1692</ele>
        <time>2012-07-21T05:43:32.1Z</time>
      </trkpt>
      <trkpt lat="45.38059" lon="5.81469">
        <ele>1692</ele>
        <time>2012-07-21T05:43:34.1Z</time>
      </trkpt>
      <trkpt lat="45.3806" lon="5.8147">
        <ele>1692</ele>
        <time>2012-07-21T05:43:37.1Z</time>
      </trkpt>
      <trkpt lat="45.3806" lon="5.81472">
        <ele>1692</ele>
        <time>2012-07-21T05:43:39.1Z</time>
      </trkpt>
      <trkpt lat="45.3806" lon="5.81472">
        <ele>1692</ele>
        <time>2012-07-21T05:43:41.1Z</time>
      </trkpt>
      <trkpt lat="45.3806" lon="5.81473">
        <ele>1692</ele>
        <time>2012-07-21T05:43:43.1Z</time>
      </trkpt>
      <trkpt lat="45.38061" lon="5.81474">
        <ele>1692</ele>
        <time>2012-07-21T05:43:45.1Z</time>
      </trkpt>
      <trkpt lat="45.38062" lon="5.81477">
        <ele>1693</ele>
        <time>2012-07-21T05:43:47.1Z</time>
      </trkpt>
      <trkpt lat="45.38063" lon="5.81477">
        <ele>1694</ele>
        <time>2012-07-21T05:43:49.1Z</time>
      </trkpt>
      <trkpt lat="45.38063" lon="5.81479">
        <ele>1693</ele>
        <time>2012-07-21T05:43:51.1Z</time>
      </trkpt>
      <trkpt lat="45.38063" lon="5.8148">
        <ele>1694</ele>
        <time>2012-07-21T05:43:53.1Z</time>
      </trkpt>
      <trkpt lat="45.38063" lon="5.81481">
        <ele>1694</ele>
        <time>2012-07-21T05:43:55.1Z</time>
      </trkpt>
      <trkpt lat="45.38064" lon="5.81482">
        <ele>1694</ele>
        <time>2012-07-21T05:43:58.1Z</time>
      </trkpt>
      <trkpt lat="45.38065" lon="5.81483">
        <ele>1696</ele>
        <time>2012-07-21T05:44:00.1Z</time>
      </trkpt>
      <trkpt lat="45.38066" lon="5.81484">
        <ele>1696</ele>
        <time>2012-07-21T05:44:02.1Z</time>
      </trkpt>
      <trkpt lat="45.38067" lon="5.81486">
        <ele>1698</ele>
        <time>2012-07-21T05:44:04.1Z</time>
      </trkpt>
      <trkpt lat="45.38068" lon="5.81488">
        <ele>1699</ele>
        <time>2012-07-21T05:44:06.1Z</time>
      </trkpt>
      <trkpt lat="45.38068" lon="5.8149">
        <ele>1699</ele>
        <time>2012-07-21T05:44:08.1Z</time>
      </trkpt>
      <trkpt lat="45.38068" lon="5.81492">
        <ele>1700</ele>
        <time>2012-07-21T05:44:10.1Z</time>
      </trkpt>
      <trkpt lat="45.38068" lon="5.81493">
        <ele>1701</ele>
        <time>2012-07-21T05:44:12.1Z</time>
      </trkpt>
      <trkpt lat="45.38068" lon="5.81494">
        <ele>1701</ele>
        <time>2012-07-21T05:44:14.1Z</time>
      </trkpt>
      <trkpt lat="45.38068" lon="5.81496">
        <ele>1701</ele>
        <time>2012-07-21T05:44:16.1Z</time>
      </trkpt>
      <trkpt lat="45.38068" lon="5.81497">
        <ele>1701</ele>
        <time>2012-07-21T05:44:18.1Z</time>
      </trkpt>
      <trkpt lat="45.38069" lon="5.81498">
        <ele>1702</ele>
        <time>2012-07-21T05:44:20.1Z</time>
      </trkpt>
      <trkpt lat="45.38069" lon="5.81499">
        <ele>1702</ele>
        <time>2012-07-21T05:44:22.1Z</time>
      </trkpt>
      <trkpt lat="45.3807" lon="5.81499">
        <ele>1702</ele>
        <time>2012-07-21T05:44:24.1Z</time>
      </trkpt>
      <trkpt lat="45.3807" lon="5.815">
        <ele>1702</ele>
        <time>2012-07-21T05:44:26.1Z</time>
      </trkpt>
      <trkpt lat="45.3807" lon="5.81501">
        <ele>1702</ele>
        <time>2012-07-21T05:44:29.1Z</time>
      </trkpt>
      <trkpt lat="45.3807" lon="5.81502">
        <ele>1702</ele>
        <time>2012-07-21T05:44:31.1Z</time>
      </trkpt>
      <trkpt lat="45.3807" lon="5.81503">
        <ele>1711</ele>
        <time>2012-07-21T05:44:33.1Z</time>
      </trkpt>
      <trkpt lat="45.38069" lon="5.81505">
        <ele>1719</ele>
        <time>2012-07-21T05:44:35.1Z</time>
      </trkpt>
      <trkpt lat="45.38069" lon="5.81507">
        <ele>1728</ele>
        <time>2012-07-21T05:44:37.1Z</time>
      </trkpt>
      <trkpt lat="45.38069" lon="5.81509">
        <ele>1736</ele>
        <time>2012-07-21T05:44:39.1Z</time>
      </trkpt>
      <trkpt lat="45.3807" lon="5.8151">
        <ele>1736</ele>
        <time>2012-07-21T05:44:42.1Z</time>
      </trkpt>
      <trkpt lat="45.3807" lon="5.81511">
        <ele>1737</ele>
        <time>2012-07-21T05:44:44.1Z</time>
      </trkpt>
      <trkpt lat="45.3807" lon="5.81512">
        <ele>1737</ele>
        <time>2012-07-21T05:44:46.1Z</time>
      </trkpt>
      <trkpt lat="45.38068" lon="5.81513">
        <ele>1738</ele>
        <time>2012-07-21T05:44:48.1Z</time>
      </trkpt>
      <trkpt lat="45.38067" lon="5.81514">
        <ele>1739</ele>
        <time>2012-07-21T05:44:50.1Z</time>
      </trkpt>
      <trkpt lat="45.38065" lon="5.81514">
        <ele>1739</ele>
        <time>2012-07-21T05:44:52.1Z</time>
      </trkpt>
      <trkpt lat="45.38063" lon="5.81513">
        <ele>1740</ele>
        <time>2012-07-21T05:44:54.1Z</time>
      </trkpt>
      <trkpt lat="45.38062" lon="5.81512">
        <ele>1740</ele>
        <time>2012-07-21T05:44:56.1Z</time>
      </trkpt>
      <trkpt lat="45.38061" lon="5.81512">
        <ele>1740</ele>
        <time>2012-07-21T05:44:58.1Z</time>
      </trkpt>
      <trkpt lat="45.38059" lon="5.81513">
        <ele>1741</ele>
        <time>2012-07-21T05:45:00.1Z</time>
      </trkpt>
      <trkpt lat="45.38058" lon="5.81513">
        <ele>1741</ele>
        <time>2012-07-21T05:45:03.1Z</time>
      </trkpt>
      <trkpt lat="45.38058" lon="5.81514">
        <ele>1741</ele>
        <time>2012-07-21T05:45:05.1Z</time>
      </trkpt>
      <trkpt lat="45.38056" lon="5.81513">
        <ele>1742</ele>
        <time>2012-07-21T05:45:07.1Z</time>
      </trkpt>
      <trkpt lat="45.38054" lon="5.81513">
        <ele>1743</ele>
        <time>2012-07-21T05:45:09.1Z</time>
      </trkpt>
      <trkpt lat="45.38051" lon="5.81512">
        <ele>1744</ele>
        <time>2012-07-21T05:45:11.1Z</time>
      </trkpt>
      <trkpt lat="45.3805" lon="5.81511">
        <ele>1745</ele>
        <time>2012-07-21T05:45:13.1Z</time>
      </trkpt>
      <trkpt lat="45.38048" lon="5.81509">
        <ele>1745</ele>
        <time>2012-07-21T05:45:15.1Z</time>
      </trkpt>
      <trkpt lat="45.38047" lon="5.81508">
        <ele>1746</ele>
        <time>2012-07-21T05:45:17.1Z</time>
      </trkpt>
      <trkpt lat="45.38045" lon="5.81507">
        <ele>1746</ele>
        <time>2012-07-21T05:45:19.1Z</time>
      </trkpt>
      <trkpt lat="45.38043" lon="5.81505">
        <ele>1747</ele>
        <time>2012-07-21T05:45:21.1Z</time>
      </trkpt>
      <trkpt lat="45.38041" lon="5.81503">
        <ele>1747</ele>
        <time>2012-07-21T05:45:23.1Z</time>
      </trkpt>
      <trkpt lat="45.38039" lon="5.81502">
        <ele>1748</ele>
        <time>2012-07-21T05:45:25.1Z</time>
      </trkpt>
      <trkpt lat="45.38036" lon="5.815">
        <ele>1748</ele>
        <time>2012-07-21T05:45:28.1Z</time>
      </trkpt>
      <trkpt lat="45.38034" lon="5.815">
        <ele>1748</ele>
        <time>2012-07-21T05:45:30.1Z</time>
      </trkpt>
      <trkpt lat="45.38033" lon="5.815">
        <ele>1749</ele>
        <time>2012-07-21T05:45:32.1Z</time>
      </trkpt>
      <trkpt lat="45.38031" lon="5.815">
        <ele>1749</ele>
        <time>2012-07-21T05:45:34.1Z</time>
      </trkpt>
      <trkpt lat="45.38029" lon="5.815">
        <ele>1750</ele>
        <time>2012-07-21T05:45:36.1Z</time>
      </trkpt>
      <trkpt lat="45.38028" lon="5.81498">
        <ele>1751</ele>
        <time>2012-07-21T05:45:38.1Z</time>
      </trkpt>
      <trkpt lat="45.38026" lon="5.81498">
        <ele>1751</ele>
        <time>2012-07-21T05:45:40.1Z</time>
      </trkpt>
      <trkpt lat="45.38024" lon="5.81498">
        <ele>1752</ele>
        <time>2012-07-21T05:45:42.1Z</time>
      </trkpt>
      <trkpt lat="45.38023" lon="5.81496">
        <ele>1752</ele>
        <time>2012-07-21T05:45:45.1Z</time>
      </trkpt>
      <trkpt lat="45.38023" lon="5.81496">
        <ele>1752</ele>
        <time>2012-07-21T05:45:47.1Z</time>
      </trkpt>
      <trkpt lat="45.38023" lon="5.81496">
        <ele>1752</ele>
        <time>2012-07-21T05:45:49.1Z</time>
      </trkpt>
      <trkpt lat="45.38023" lon="5.81496">
        <ele>1752</ele>
        <time>2012-07-21T05:45:51.1Z</time>
      </trkpt>
      <trkpt lat="45.38023" lon="5.81495">
        <ele>1752</ele>
        <time>2012-07-21T05:45:53.1Z</time>
      </trkpt>
      <trkpt lat="45.38023" lon="5.81495">
        <ele>1751</ele>
        <time>2012-07-21T05:45:55.1Z</time>
      </trkpt>
      <trkpt lat="45.38023" lon="5.81495">
        <ele>1749</ele>
        <time>2012-07-21T05:45:57.1Z</time>
      </trkpt>
      <trkpt lat="45.38023" lon="5.81494">
        <ele>1747</ele>
        <time>2012-07-21T05:45:59.1Z</time>
      </trkpt>
      <trkpt lat="45.38023" lon="5.81494">
        <ele>1746</ele>
        <time>2012-07-21T05:46:01.1Z</time>
      </trkpt>
      <trkpt lat="45.38023" lon="5.81494">
        <ele>1745</ele>
        <time>2012-07-21T05:46:03.1Z</time>
      </trkpt>
      <trkpt lat="45.38023" lon="5.81494">
        <ele>1745</ele>
        <time>2012-07-21T05:46:05.1Z</time>
      </trkpt>
      <trkpt lat="45.38023" lon="5.81493">
        <ele>1744</ele>
        <time>2012-07-21T05:46:07.1Z</time>
      </trkpt>
      <trkpt lat="45.38023" lon="5.81493">
        <ele>1743</ele>
        <time>2012-07-21T05:46:09.1Z</time>
      </trkpt>
      <trkpt lat="45.38023" lon="5.81492">
        <ele>1742</ele>
        <time>2012-07-21T05:46:11.1Z</time>
      </trkpt>
      <trkpt lat="45.38023" lon="5.81492">
        <ele>1741</ele>
        <time>2012-07-21T05:46:14.1Z</time>
      </trkpt>
      <trkpt lat="45.38023" lon="5.81492">
        <ele>1740</ele>
        <time>2012-07-21T05:46:16.1Z</time>
      </trkpt>
      <trkpt lat="45.38023" lon="5.81492">
        <ele>1740</ele>
        <time>2012-07-21T05:46:18.1Z</time>
      </trkpt>
      <trkpt lat="45.38023" lon="5.81492">
        <ele>1739</ele>
        <time>2012-07-21T05:46:20.1Z</time>
      </trkpt>
      <trkpt lat="45.38023" lon="5.81492">
        <ele>1739</ele>
        <time>2012-07-21T05:46:22.1Z</time>
      </trkpt>
      <trkpt lat="45.38023" lon="5.81492">
        <ele>1738</ele>
        <time>2012-07-21T05:46:24.1Z</time>
      </trkpt>
      <trkpt lat="45.38023" lon="5.81492">
        <ele>1738</ele>
        <time>2012-07-21T05:46:26.1Z</time>
      </trkpt>
      <trkpt lat="45.38023" lon="5.81492">
        <ele>1738</ele>
        <time>2012-07-21T05:46:28.1Z</time>
      </trkpt>
      <trkpt lat="45.38024" lon="5.81492">
        <ele>1738</ele>
        <time>2012-07-21T05:46:30.1Z</time>
      </trkpt>
      <trkpt lat="45.38024" lon="5.81492">
        <ele>1737</ele>
        <time>2012-07-21T05:46:32.1Z</time>
      </trkpt>
      <trkpt lat="45.38024" lon="5.81492">
        <ele>1737</ele>
        <time>2012-07-21T05:46:34.1Z</time>
      </trkpt>
      <trkpt lat="45.38024" lon="5.81492">
        <ele>1737</ele>
        <time>2012-07-21T05:46:36.1Z</time>
      </trkpt>
      <trkpt lat="45.38024" lon="5.81492">
        <ele>1737</ele>
        <time>2012-07-21T05:46:38.1Z</time>
      </trkpt>
      <trkpt lat="45.38025" lon="5.81493">
        <ele>1737</ele>
        <time>2012-07-21T05:46:41.1Z</time>
      </trkpt>
      <trkpt lat="45.38025" lon="5.81493">
        <ele>1736</ele>
        <time>2012-07-21T05:46:43.1Z</time>
      </trkpt>
      <trkpt lat="45.38025" lon="5.81493">
        <ele>1736</ele>
        <time>2012-07-21T05:46:45.1Z</time>
      </trkpt>
      <trkpt lat="45.38025" lon="5.81493">
        <ele>1736</ele>
        <time>2012-07-21T05:46:47.1Z</time>
      </trkpt>
      <trkpt lat="45.38025" lon="5.81493">
        <ele>1736</ele>
        <time>2012-07-21T05:46:49.1Z</time>
      </trkpt>
      <trkpt lat="45.38025" lon="5.81494">
        <ele>1736</ele>
        <time>2012-07-21T05:46:51.1Z</time>
      </trkpt>
      <trkpt lat="45.38025" lon="5.81494">
        <ele>1735</ele>
        <time>2012-07-21T05:46:53.1Z</time>
      </trkpt>
      <trkpt lat="45.38025" lon="5.81495">
        <ele>1735</ele>
        <time>2012-07-21T05:46:56.1Z</time>
      </trkpt>
      <trkpt lat="45.38025" lon="5.81495">
        <ele>1735</ele>
        <time>2012-07-21T05:46:58.1Z</time>
      </trkpt>
      <trkpt lat="45.38025" lon="5.81495">
        <ele>1734</ele>
        <time>2012-07-21T05:47:00.1Z</time>
      </trkpt>
      <trkpt lat="45.38025" lon="5.81496">
        <ele>1734</ele>
        <time>2012-07-21T05:47:02.1Z</time>
      </trkpt>
      <trkpt lat="45.38025" lon="5.81496">
        <ele>1734</ele>
        <time>2012-07-21T05:47:04.1Z</time>
      </trkpt>
      <trkpt lat="45.38025" lon="5.81496">
        <ele>1734</ele>
        <time>2012-07-21T05:47:07.1Z</time>
      </trkpt>
      <trkpt lat="45.38025" lon="5.81496">
        <ele>1735</ele>
        <time>2012-07-21T05:47:09.1Z</time>
      </trkpt>
      <trkpt lat="45.38025" lon="5.81495">
        <ele>1735</ele>
        <time>2012-07-21T05:47:11.1Z</time>
      </trkpt>
      <trkpt lat="45.38025" lon="5.81495">
        <ele>1735</ele>
        <time>2012-07-21T05:47:13.1Z</time>
      </trkpt>
      <trkpt lat="45.38025" lon="5.81495">
        <ele>1735</ele>
        <time>2012-07-21T05:47:15.1Z</time>
      </trkpt>
      <trkpt lat="45.38025" lon="5.81495">
        <ele>1734</ele>
        <time>2012-07-21T05:47:17.1Z</time>
      </trkpt>
      <trkpt lat="45.38025" lon="5.81495">
        <ele>1734</ele>
        <time>2012-07-21T05:47:19.1Z</time>
      </trkpt>
      <trkpt lat="45.38025" lon="5.81495">
        <ele>1734</ele>
        <time>2012-07-21T05:47:21.1Z</time>
      </trkpt>
      <trkpt lat="45.38025" lon="5.81495">
        <ele>1734</ele>
        <time>2012-07-21T05:47:24.1Z</time>
      </trkpt>
      <trkpt lat="45.38025" lon="5.81495">
        <ele>1734</ele>
        <time>2012-07-21T05:47:26.1Z</time>
      </trkpt>
      <trkpt lat="45.38025" lon="5.81495">
        <ele>1734</ele>
        <time>2012-07-21T05:47:28.1Z</time>
      </trkpt>
      <trkpt lat="45.38025" lon="5.81495">
        <ele>1734</ele>
        <time>2012-07-21T05:47:30.1Z</time>
      </trkpt>
      <trkpt lat="45.38025" lon="5.81495">
        <ele>1734</ele>
        <time>2012-07-21T05:47:32.1Z</time>
      </trkpt>
      <trkpt lat="45.38025" lon="5.81495">
        <ele>1734</ele>
        <time>2012-07-21T05:47:34.1Z</time>
      </trkpt>
      <trkpt lat="45.38025" lon="5.81495">
        <ele>1734</ele>
        <time>2012-07-21T05:47:36.1Z</time>
      </trkpt>
      <trkpt lat="45.38024" lon="5.81495">
        <ele>1734</ele>
        <time>2012-07-21T05:47:38.1Z</time>
      </trkpt>
      <trkpt lat="45.38025" lon="5.81495">
        <ele>1734</ele>
        <time>2012-07-21T05:47:40.1Z</time>
      </trkpt>
      <trkpt lat="45.38024" lon="5.81495">
        <ele>1735</ele>
        <time>2012-07-21T05:47:42.1Z</time>
      </trkpt>
      <trkpt lat="45.38025" lon="5.81495">
        <ele>1734</ele>
        <time>2012-07-21T05:47:44.1Z</time>
      </trkpt>
      <trkpt lat="45.38025" lon="5.81495">
        <ele>1734</ele>
        <time>2012-07-21T05:47:46.1Z</time>
      </trkpt>
      <trkpt lat="45.38025" lon="5.81496">
        <ele>1734</ele>
        <time>2012-07-21T05:47:48.1Z</time>
      </trkpt>
      <trkpt lat="45.38024" lon="5.81496">
        <ele>1734</ele>
        <time>2012-07-21T05:47:50.1Z</time>
      </trkpt>
      <trkpt lat="45.38025" lon="5.81495">
        <ele>1735</ele>
        <time>2012-07-21T05:47:52.1Z</time>
      </trkpt>
      <trkpt lat="45.38025" lon="5.81495">
        <ele>1736</ele>
        <time>2012-07-21T05:47:55.1Z</time>
      </trkpt>
      <trkpt lat="45.38025" lon="5.81495">
        <ele>1737</ele>
        <time>2012-07-21T05:47:57.1Z</time>
      </trkpt>
      <trkpt lat="45.38025" lon="5.81496">
        <ele>1738</ele>
        <time>2012-07-21T05:47:59.1Z</time>
      </trkpt>
      <trkpt lat="45.38024" lon="5.81498">
        <ele>1738</ele>
        <time>2012-07-21T05:48:01.1Z</time>
      </trkpt>
      <trkpt lat="45.38021" lon="5.815">
        <ele>1738</ele>
        <time>2012-07-21T05:48:03.1Z</time>
      </trkpt>
      <trkpt lat="45.3802" lon="5.81501">
        <ele>1738</ele>
        <time>2012-07-21T05:48:05.1Z</time>
      </trkpt>
      <trkpt lat="45.3802" lon="5.81501">
        <ele>1738</ele>
        <time>2012-07-21T05:48:07.1Z</time>
      </trkpt>
      <trkpt lat="45.3802" lon="5.81501">
        <ele>1738</ele>
        <time>2012-07-21T05:48:09.1Z</time>
      </trkpt>
      <trkpt lat="45.3802" lon="5.81501">
        <ele>1738</ele>
        <time>2012-07-21T05:48:11.1Z</time>
      </trkpt>
      <trkpt lat="45.38019" lon="5.81503">
        <ele>1738</ele>
        <time>2012-07-21T05:48:14.1Z</time>
      </trkpt>
      <trkpt lat="45.38019" lon="5.81503">
        <ele>1738</ele>
        <time>2012-07-21T05:48:16.1Z</time>
      </trkpt>
      <trkpt lat="45.38019" lon="5.81503">
        <ele>1739</ele>
        <time>2012-07-21T05:48:18.1Z</time>
      </trkpt>
      <trkpt lat="45.38018" lon="5.81505">
        <ele>1738</ele>
        <time>2012-07-21T05:48:20.1Z</time>
      </trkpt>
      <trkpt lat="45.38017" lon="5.81505">
        <ele>1738</ele>
        <time>2012-07-21T05:48:22.1Z</time>
      </trkpt>
      <trkpt lat="45.38016" lon="5.81507">
        <ele>1739</ele>
        <time>2012-07-21T05:48:24.1Z</time>
      </trkpt>
      <trkpt lat="45.38015" lon="5.81508">
        <ele>1739</ele>
        <time>2012-07-21T05:48:26.1Z</time>
      </trkpt>
      <trkpt lat="45.38013" lon="5.81507">
        <ele>1739</ele>
        <time>2012-07-21T05:48:28.1Z</time>
      </trkpt>
      <trkpt lat="45.38012" lon="5.81506">
        <ele>1739</ele>
        <time>2012-07-21T05:48:30.1Z</time>
      </trkpt>
      <trkpt lat="45.3801" lon="5.81505">
        <ele>1738</ele>
        <time>2012-07-21T05:48:32.1Z</time>
      </trkpt>
      <trkpt lat="45.38006" lon="5.81505">
        <ele>1737</ele>
        <time>2012-07-21T05:48:34.1Z</time>
      </trkpt>
      <trkpt lat="45.38003" lon="5.81505">
        <ele>1737</ele>
        <time>2012-07-21T05:48:36.1Z</time>
      </trkpt>
      <trkpt lat="45.38001" lon="5.81505">
        <ele>1737</ele>
        <time>2012-07-21T05:48:38.1Z</time>
      </trkpt>
      <trkpt lat="45.37999" lon="5.81504">
        <ele>1737</ele>
        <time>2012-07-21T05:48:40.1Z</time>
      </trkpt>
      <trkpt lat="45.37996" lon="5.81502">
        <ele>1737</ele>
        <time>2012-07-21T05:48:42.1Z</time>
      </trkpt>
      <trkpt lat="45.37993" lon="5.81501">
        <ele>1737</ele>
        <time>2012-07-21T05:48:45.1Z</time>
      </trkpt>
      <trkpt lat="45.37991" lon="5.815">
        <ele>1737</ele>
        <time>2012-07-21T05:48:47.1Z</time>
      </trkpt>
      <trkpt lat="45.37989" lon="5.815">
        <ele>1737</ele>
        <time>2012-07-21T05:48:49.1Z</time>
      </trkpt>
      <trkpt lat="45.37986" lon="5.815">
        <ele>1737</ele>
        <time>2012-07-21T05:48:51.1Z</time>
      </trkpt>
      <trkpt lat="45.37984" lon="5.81502">
        <ele>1737</ele>
        <time>2012-07-21T05:48:53.1Z</time>
      </trkpt>
      <trkpt lat="45.37981" lon="5.81503">
        <ele>1736</ele>
        <time>2012-07-21T05:48:55.1Z</time>
      </trkpt>
      <trkpt lat="45.37979" lon="5.81505">
        <ele>1736</ele>
        <time>2012-07-21T05:48:57.1Z</time>
      </trkpt>
      <trkpt lat="45.37977" lon="5.81507">
        <ele>1737</ele>
        <time>2012-07-21T05:48:59.1Z</time>
      </trkpt>
      <trkpt lat="45.37975" lon="5.81509">
        <ele>1737</ele>
        <time>2012-07-21T05:49:01.1Z</time>
      </trkpt>
      <trkpt lat="45.37974" lon="5.81514">
        <ele>1737</ele>
        <time>2012-07-21T05:49:03.1Z</time>
      </trkpt>
      <trkpt lat="45.37974" lon="5.81517">
        <ele>1737</ele>
        <time>2012-07-21T05:49:05.1Z</time>
      </trkpt>
      <trkpt lat="45.37974" lon="5.8152">
        <ele>1737</ele>
        <time>2012-07-21T05:49:07.1Z</time>
      </trkpt>
      <trkpt lat="45.37972" lon="5.8152">
        <ele>1737</ele>
        <time>2012-07-21T05:49:09.1Z</time>
      </trkpt>
      <trkpt lat="45.37971" lon="5.81519">
        <ele>1738</ele>
        <time>2012-07-21T05:49:11.1Z</time>
      </trkpt>
      <trkpt lat="45.37971" lon="5.8152">
        <ele>1738</ele>
        <time>2012-07-21T05:49:13.1Z</time>
      </trkpt>
      <trkpt lat="45.37968" lon="5.81521">
        <ele>1739</ele>
        <time>2012-07-21T05:49:16.1Z</time>
      </trkpt>
      <trkpt lat="45.37967" lon="5.81522">
        <ele>1739</ele>
        <time>2012-07-21T05:49:18.1Z</time>
      </trkpt>
      <trkpt lat="45.37964" lon="5.81522">
        <ele>1739</ele>
        <time>2012-07-21T05:49:20.1Z</time>
      </trkpt>
      <trkpt lat="45.37962" lon="5.81521">
        <ele>1738</ele>
        <time>2012-07-21T05:49:22.1Z</time>
      </trkpt>
      <trkpt lat="45.3796" lon="5.81522">
        <ele>1739</ele>
        <time>2012-07-21T05:49:24.1Z</time>
      </trkpt>
      <trkpt lat="45.37957" lon="5.8152">
        <ele>1739</ele>
        <time>2012-07-21T05:49:26.1Z</time>
      </trkpt>
      <trkpt lat="45.37954" lon="5.81521">
        <ele>1740</ele>
        <time>2012-07-21T05:49:28.1Z</time>
      </trkpt>
      <trkpt lat="45.37953" lon="5.81521">
        <ele>1740</ele>
        <time>2012-07-21T05:49:30.1Z</time>
      </trkpt>
      <trkpt lat="45.37952" lon="5.8152">
        <ele>1741</ele>
        <time>2012-07-21T05:49:32.1Z</time>
      </trkpt>
      <trkpt lat="45.37949" lon="5.8152">
        <ele>1741</ele>
        <time>2012-07-21T05:49:34.1Z</time>
      </trkpt>
      <trkpt lat="45.37948" lon="5.8152">
        <ele>1745</ele>
        <time>2012-07-21T05:49:36.1Z</time>
      </trkpt>
      <trkpt lat="45.37946" lon="5.81518">
        <ele>1752</ele>
        <time>2012-07-21T05:49:38.1Z</time>
      </trkpt>
      <trkpt lat="45.37945" lon="5.81519">
        <ele>1759</ele>
        <time>2012-07-21T05:49:40.1Z</time>
      </trkpt>
      <trkpt lat="45.37943" lon="5.81518">
        <ele>1766</ele>
        <time>2012-07-21T05:49:42.1Z</time>
      </trkpt>
      <trkpt lat="45.37941" lon="5.81519">
        <ele>1770</ele>
        <time>2012-07-21T05:49:45.1Z</time>
      </trkpt>
      <trkpt lat="45.37939" lon="5.81518">
        <ele>1770</ele>
        <time>2012-07-21T05:49:47.1Z</time>
      </trkpt>
      <trkpt lat="45.37938" lon="5.81518">
        <ele>1770</ele>
        <time>2012-07-21T05:49:49.1Z</time>
      </trkpt>
      <trkpt lat="45.37936" lon="5.81517">
        <ele>1770</ele>
        <time>2012-07-21T05:49:51.1Z</time>
      </trkpt>
      <trkpt lat="45.37936" lon="5.81516">
        <ele>1770</ele>
        <time>2012-07-21T05:49:53.1Z</time>
      </trkpt>
      <trkpt lat="45.37933" lon="5.81515">
        <ele>1770</ele>
        <time>2012-07-21T05:49:56.1Z</time>
      </trkpt>
      <trkpt lat="45.37931" lon="5.81515">
        <ele>1769</ele>
        <time>2012-07-21T05:49:58.1Z</time>
      </trkpt>
      <trkpt lat="45.37928" lon="5.81514">
        <ele>1769</ele>
        <time>2012-07-21T05:50:00.1Z</time>
      </trkpt>
      <trkpt lat="45.37925" lon="5.81514">
        <ele>1769</ele>
        <time>2012-07-21T05:50:02.1Z</time>
      </trkpt>
      <trkpt lat="45.37923" lon="5.81512">
        <ele>1769</ele>
        <time>2012-07-21T05:50:04.1Z</time>
      </trkpt>
      <trkpt lat="45.3792" lon="5.81512">
        <ele>1769</ele>
        <time>2012-07-21T05:50:07.1Z</time>
      </trkpt>
      <trkpt lat="45.37919" lon="5.81509">
        <ele>1769</ele>
        <time>2012-07-21T05:50:09.1Z</time>
      </trkpt>
      <trkpt lat="45.37917" lon="5.81507">
        <ele>1769</ele>
        <time>2012-07-21T05:50:11.1Z</time>
      </trkpt>
      <trkpt lat="45.37916" lon="5.81505">
        <ele>1769</ele>
        <time>2012-07-21T05:50:14.1Z</time>
      </trkpt>
      <trkpt lat="45.37913" lon="5.81506">
        <ele>1768</ele>
        <time>2012-07-21T05:50:16.1Z</time>
      </trkpt>
      <trkpt lat="45.37912" lon="5.81503">
        <ele>1768</ele>
        <time>2012-07-21T05:50:18.1Z</time>
      </trkpt>
      <trkpt lat="45.37911" lon="5.81501">
        <ele>1768</ele>
        <time>2012-07-21T05:50:21.1Z</time>
      </trkpt>
      <trkpt lat="45.37907" lon="5.81498">
        <ele>1768</ele>
        <time>2012-07-21T05:50:23.1Z</time>
      </trkpt>
      <trkpt lat="45.37906" lon="5.81497">
        <ele>1768</ele>
        <time>2012-07-21T05:50:25.1Z</time>
      </trkpt>
      <trkpt lat="45.37904" lon="5.81496">
        <ele>1768</ele>
        <time>2012-07-21T05:50:28.1Z</time>
      </trkpt>
      <trkpt lat="45.37901" lon="5.81498">
        <ele>1768</ele>
        <time>2012-07-21T05:50:30.1Z</time>
      </trkpt>
      <trkpt lat="45.37899" lon="5.81502">
        <ele>1768</ele>
        <time>2012-07-21T05:50:32.1Z</time>
      </trkpt>
      <trkpt lat="45.37895" lon="5.81501">
        <ele>1768</ele>
        <time>2012-07-21T05:50:34.1Z</time>
      </trkpt>
      <trkpt lat="45.37894" lon="5.81498">
        <ele>1768</ele>
        <time>2012-07-21T05:50:36.1Z</time>
      </trkpt>
      <trkpt lat="45.37891" lon="5.81497">
        <ele>1768</ele>
        <time>2012-07-21T05:50:38.1Z</time>
      </trkpt>
      <trkpt lat="45.37889" lon="5.81496">
        <ele>1768</ele>
        <time>2012-07-21T05:50:40.1Z</time>
      </trkpt>
      <trkpt lat="45.37886" lon="5.81494">
        <ele>1768</ele>
        <time>2012-07-21T05:50:42.1Z</time>
      </trkpt>
      <trkpt lat="45.37883" lon="5.81494">
        <ele>1768</ele>
        <time>2012-07-21T05:50:45.1Z</time>
      </trkpt>
      <trkpt lat="45.37881" lon="5.81493">
        <ele>1768</ele>
        <time>2012-07-21T05:50:47.1Z</time>
      </trkpt>
      <trkpt lat="45.37878" lon="5.81493">
        <ele>1768</ele>
        <time>2012-07-21T05:50:49.1Z</time>
      </trkpt>
      <trkpt lat="45.37875" lon="5.81492">
        <ele>1768</ele>
        <time>2012-07-21T05:50:51.1Z</time>
      </trkpt>
      <trkpt lat="45.37872" lon="5.81491">
        <ele>1768</ele>
        <time>2012-07-21T05:50:53.1Z</time>
      </trkpt>
      <trkpt lat="45.37867" lon="5.8149">
        <ele>1769</ele>
        <time>2012-07-21T05:50:55.1Z</time>
      </trkpt>
      <trkpt lat="45.37865" lon="5.81488">
        <ele>1769</ele>
        <time>2012-07-21T05:50:58.1Z</time>
      </trkpt>
      <trkpt lat="45.37863" lon="5.81486">
        <ele>1770</ele>
        <time>2012-07-21T05:51:00.1Z</time>
      </trkpt>
      <trkpt lat="45.3786" lon="5.81486">
        <ele>1770</ele>
        <time>2012-07-21T05:51:02.1Z</time>
      </trkpt>
      <trkpt lat="45.37855" lon="5.81486">
        <ele>1770</ele>
        <time>2012-07-21T05:51:04.1Z</time>
      </trkpt>
      <trkpt lat="45.37851" lon="5.81487">
        <ele>1770</ele>
        <time>2012-07-21T05:51:06.1Z</time>
      </trkpt>
      <trkpt lat="45.37848" lon="5.81486">
        <ele>1770</ele>
        <time>2012-07-21T05:51:08.1Z</time>
      </trkpt>
      <trkpt lat="45.37845" lon="5.81486">
        <ele>1771</ele>
        <time>2012-07-21T05:51:10.1Z</time>
      </trkpt>
      <trkpt lat="45.37841" lon="5.81485">
        <ele>1771</ele>
        <time>2012-07-21T05:51:12.1Z</time>
      </trkpt>
      <trkpt lat="45.37838" lon="5.81485">
        <ele>1772</ele>
        <time>2012-07-21T05:51:14.1Z</time>
      </trkpt>
      <trkpt lat="45.37835" lon="5.81483">
        <ele>1773</ele>
        <time>2012-07-21T05:51:16.1Z</time>
      </trkpt>
      <trkpt lat="45.37833" lon="5.81481">
        <ele>1774</ele>
        <time>2012-07-21T05:51:19.1Z</time>
      </trkpt>
      <trkpt lat="45.3783" lon="5.81482">
        <ele>1774</ele>
        <time>2012-07-21T05:51:21.1Z</time>
      </trkpt>
      <trkpt lat="45.37828" lon="5.81482">
        <ele>1775</ele>
        <time>2012-07-21T05:51:23.1Z</time>
      </trkpt>
      <trkpt lat="45.37825" lon="5.81483">
        <ele>1775</ele>
        <time>2012-07-21T05:51:25.1Z</time>
      </trkpt>
      <trkpt lat="45.37821" lon="5.81485">
        <ele>1776</ele>
        <time>2012-07-21T05:51:27.1Z</time>
      </trkpt>
      <trkpt lat="45.3782" lon="5.81486">
        <ele>1776</ele>
        <time>2012-07-21T05:51:29.1Z</time>
      </trkpt>
      <trkpt lat="45.37819" lon="5.81486">
        <ele>1777</ele>
        <time>2012-07-21T05:51:31.1Z</time>
      </trkpt>
      <trkpt lat="45.37818" lon="5.81485">
        <ele>1777</ele>
        <time>2012-07-21T05:51:34.1Z</time>
      </trkpt>
      <trkpt lat="45.37817" lon="5.81485">
        <ele>1777</ele>
        <time>2012-07-21T05:51:36.1Z</time>
      </trkpt>
      <trkpt lat="45.37816" lon="5.81486">
        <ele>1778</ele>
        <time>2012-07-21T05:51:38.1Z</time>
      </trkpt>
      <trkpt lat="45.37814" lon="5.81486">
        <ele>1778</ele>
        <time>2012-07-21T05:51:40.1Z</time>
      </trkpt>
      <trkpt lat="45.37813" lon="5.81487">
        <ele>1778</ele>
        <time>2012-07-21T05:51:42.1Z</time>
      </trkpt>
      <trkpt lat="45.37812" lon="5.81488">
        <ele>1778</ele>
        <time>2012-07-21T05:51:45.1Z</time>
      </trkpt>
      <trkpt lat="45.3781" lon="5.81489">
        <ele>1778</ele>
        <time>2012-07-21T05:51:47.1Z</time>
      </trkpt>
      <trkpt lat="45.37809" lon="5.81489">
        <ele>1778</ele>
        <time>2012-07-21T05:51:49.1Z</time>
      </trkpt>
      <trkpt lat="45.37807" lon="5.8149">
        <ele>1778</ele>
        <time>2012-07-21T05:51:51.1Z</time>
      </trkpt>
      <trkpt lat="45.37806" lon="5.8149">
        <ele>1778</ele>
        <time>2012-07-21T05:51:53.1Z</time>
      </trkpt>
      <trkpt lat="45.37804" lon="5.81489">
        <ele>1779</ele>
        <time>2012-07-21T05:51:55.1Z</time>
      </trkpt>
      <trkpt lat="45.37803" lon="5.81491">
        <ele>1779</ele>
        <time>2012-07-21T05:51:57.1Z</time>
      </trkpt>
      <trkpt lat="45.37801" lon="5.81491">
        <ele>1778</ele>
        <time>2012-07-21T05:52:00.1Z</time>
      </trkpt>
      <trkpt lat="45.37799" lon="5.8149">
        <ele>1778</ele>
        <time>2012-07-21T05:52:02.1Z</time>
      </trkpt>
      <trkpt lat="45.37796" lon="5.8149">
        <ele>1778</ele>
        <time>2012-07-21T05:52:04.1Z</time>
      </trkpt>
      <trkpt lat="45.37792" lon="5.81491">
        <ele>1779</ele>
        <time>2012-07-21T05:52:06.1Z</time>
      </trkpt>
      <trkpt lat="45.37788" lon="5.81492">
        <ele>1780</ele>
        <time>2012-07-21T05:52:08.1Z</time>
      </trkpt>
      <trkpt lat="45.37785" lon="5.81492">
        <ele>1781</ele>
        <time>2012-07-21T05:52:10.1Z</time>
      </trkpt>
      <trkpt lat="45.37781" lon="5.81492">
        <ele>1781</ele>
        <time>2012-07-21T05:52:13.1Z</time>
      </trkpt>
      <trkpt lat="45.37778" lon="5.8149">
        <ele>1782</ele>
        <time>2012-07-21T05:52:15.1Z</time>
      </trkpt>
      <trkpt lat="45.37777" lon="5.81488">
        <ele>1783</ele>
        <time>2012-07-21T05:52:17.1Z</time>
      </trkpt>
      <trkpt lat="45.37776" lon="5.81488">
        <ele>1784</ele>
        <time>2012-07-21T05:52:19.1Z</time>
      </trkpt>
      <trkpt lat="45.37774" lon="5.81488">
        <ele>1785</ele>
        <time>2012-07-21T05:52:21.1Z</time>
      </trkpt>
      <trkpt lat="45.37773" lon="5.81489">
        <ele>1786</ele>
        <time>2012-07-21T05:52:23.1Z</time>
      </trkpt>
      <trkpt lat="45.37773" lon="5.81489">
        <ele>1786</ele>
        <time>2012-07-21T05:52:25.1Z</time>
      </trkpt>
      <trkpt lat="45.37772" lon="5.81487">
        <ele>1786</ele>
        <time>2012-07-21T05:52:27.1Z</time>
      </trkpt>
      <trkpt lat="45.37771" lon="5.81486">
        <ele>1786</ele>
        <time>2012-07-21T05:52:29.1Z</time>
      </trkpt>
      <trkpt lat="45.37769" lon="5.81485">
        <ele>1787</ele>
        <time>2012-07-21T05:52:31.1Z</time>
      </trkpt>
      <trkpt lat="45.37769" lon="5.81483">
        <ele>1787</ele>
        <time>2012-07-21T05:52:34.1Z</time>
      </trkpt>
      <trkpt lat="45.37767" lon="5.81484">
        <ele>1789</ele>
        <time>2012-07-21T05:52:36.1Z</time>
      </trkpt>
      <trkpt lat="45.37766" lon="5.81484">
        <ele>1789</ele>
        <time>2012-07-21T05:52:38.1Z</time>
      </trkpt>
      <trkpt lat="45.37764" lon="5.81483">
        <ele>1789</ele>
        <time>2012-07-21T05:52:40.1Z</time>
      </trkpt>
      <trkpt lat="45.37762" lon="5.81482">
        <ele>1790</ele>
        <time>2012-07-21T05:52:42.1Z</time>
      </trkpt>
      <trkpt lat="45.37761" lon="5.81482">
        <ele>1791</ele>
        <time>2012-07-21T05:52:44.1Z</time>
      </trkpt>
      <trkpt lat="45.3776" lon="5.81482">
        <ele>1791</ele>
        <time>2012-07-21T05:52:46.1Z</time>
      </trkpt>
      <trkpt lat="45.37758" lon="5.81484">
        <ele>1791</ele>
        <time>2012-07-21T05:52:48.1Z</time>
      </trkpt>
      <trkpt lat="45.37754" lon="5.81486">
        <ele>1792</ele>
        <time>2012-07-21T05:52:50.1Z</time>
      </trkpt>
      <trkpt lat="45.37751" lon="5.81485">
        <ele>1792</ele>
        <time>2012-07-21T05:52:52.1Z</time>
      </trkpt>
      <trkpt lat="45.37749" lon="5.81485">
        <ele>1793</ele>
        <time>2012-07-21T05:52:54.1Z</time>
      </trkpt>
      <trkpt lat="45.37746" lon="5.81486">
        <ele>1793</ele>
        <time>2012-07-21T05:52:57.1Z</time>
      </trkpt>
      <trkpt lat="45.37744" lon="5.81486">
        <ele>1793</ele>
        <time>2012-07-21T05:52:59.1Z</time>
      </trkpt>
      <trkpt lat="45.37743" lon="5.81486">
        <ele>1794</ele>
        <time>2012-07-21T05:53:01.1Z</time>
      </trkpt>
      <trkpt lat="45.37741" lon="5.81487">
        <ele>1794</ele>
        <time>2012-07-21T05:53:03.1Z</time>
      </trkpt>
      <trkpt lat="45.37738" lon="5.81488">
        <ele>1795</ele>
        <time>2012-07-21T05:53:05.1Z</time>
      </trkpt>
      <trkpt lat="45.37737" lon="5.81489">
        <ele>1796</ele>
        <time>2012-07-21T05:53:07.1Z</time>
      </trkpt>
      <trkpt lat="45.37735" lon="5.81489">
        <ele>1796</ele>
        <time>2012-07-21T05:53:09.1Z</time>
      </trkpt>
      <trkpt lat="45.37733" lon="5.8149">
        <ele>1796</ele>
        <time>2012-07-21T05:53:11.1Z</time>
      </trkpt>
      <trkpt lat="45.37731" lon="5.81491">
        <ele>1796</ele>
        <time>2012-07-21T05:53:13.1Z</time>
      </trkpt>
      <trkpt lat="45.37729" lon="5.81492">
        <ele>1797</ele>
        <time>2012-07-21T05:53:15.1Z</time>
      </trkpt>
      <trkpt lat="45.37727" lon="5.81492">
        <ele>1797</ele>
        <time>2012-07-21T05:53:17.1Z</time>
      </trkpt>
      <trkpt lat="45.37727" lon="5.81491">
        <ele>1797</ele>
        <time>2012-07-21T05:53:19.1Z</time>
      </trkpt>
      <trkpt lat="45.37725" lon="5.81491">
        <ele>1797</ele>
        <time>2012-07-21T05:53:21.1Z</time>
      </trkpt>
      <trkpt lat="45.37723" lon="5.81492">
        <ele>1798</ele>
        <time>2012-07-21T05:53:23.1Z</time>
      </trkpt>
      <trkpt lat="45.37722" lon="5.81492">
        <ele>1798</ele>
        <time>2012-07-21T05:53:26.1Z</time>
      </trkpt>
      <trkpt lat="45.37721" lon="5.81492">
        <ele>1799</ele>
        <time>2012-07-21T05:53:28.1Z</time>
      </trkpt>
      <trkpt lat="45.37719" lon="5.81492">
        <ele>1800</ele>
        <time>2012-07-21T05:53:30.1Z</time>
      </trkpt>
      <trkpt lat="45.37718" lon="5.81491">
        <ele>1800</ele>
        <time>2012-07-21T05:53:32.1Z</time>
      </trkpt>
      <trkpt lat="45.37717" lon="5.81489">
        <ele>1800</ele>
        <time>2012-07-21T05:53:34.1Z</time>
      </trkpt>
      <trkpt lat="45.37716" lon="5.81488">
        <ele>1801</ele>
        <time>2012-07-21T05:53:36.1Z</time>
      </trkpt>
      <trkpt lat="45.37715" lon="5.81486">
        <ele>1801</ele>
        <time>2012-07-21T05:53:38.1Z</time>
      </trkpt>
      <trkpt lat="45.37714" lon="5.81485">
        <ele>1801</ele>
        <time>2012-07-21T05:53:40.1Z</time>
      </trkpt>
      <trkpt lat="45.37714" lon="5.81484">
        <ele>1802</ele>
        <time>2012-07-21T05:53:42.1Z</time>
      </trkpt>
      <trkpt lat="45.37714" lon="5.81483">
        <ele>1803</ele>
        <time>2012-07-21T05:53:44.1Z</time>
      </trkpt>
      <trkpt lat="45.37713" lon="5.81481">
        <ele>1803</ele>
        <time>2012-07-21T05:53:46.1Z</time>
      </trkpt>
      <trkpt lat="45.37712" lon="5.81478">
        <ele>1804</ele>
        <time>2012-07-21T05:53:48.1Z</time>
      </trkpt>
      <trkpt lat="45.37712" lon="5.81476">
        <ele>1804</ele>
        <time>2012-07-21T05:53:51.1Z</time>
      </trkpt>
      <trkpt lat="45.37711" lon="5.81473">
        <ele>1805</ele>
        <time>2012-07-21T05:53:53.1Z</time>
      </trkpt>
      <trkpt lat="45.37711" lon="5.81472">
        <ele>1805</ele>
        <time>2012-07-21T05:53:55.1Z</time>
      </trkpt>
      <trkpt lat="45.3771" lon="5.8147">
        <ele>1806</ele>
        <time>2012-07-21T05:53:57.1Z</time>
      </trkpt>
      <trkpt lat="45.37709" lon="5.81468">
        <ele>1807</ele>
        <time>2012-07-21T05:53:59.1Z</time>
      </trkpt>
      <trkpt lat="45.37708" lon="5.81465">
        <ele>1807</ele>
        <time>2012-07-21T05:54:01.1Z</time>
      </trkpt>
      <trkpt lat="45.37706" lon="5.81463">
        <ele>1808</ele>
        <time>2012-07-21T05:54:03.1Z</time>
      </trkpt>
      <trkpt lat="45.37706" lon="5.81464">
        <ele>1808</ele>
        <time>2012-07-21T05:54:05.1Z</time>
      </trkpt>
      <trkpt lat="45.37704" lon="5.81463">
        <ele>1808</ele>
        <time>2012-07-21T05:54:07.1Z</time>
      </trkpt>
      <trkpt lat="45.37703" lon="5.81463">
        <ele>1808</ele>
        <time>2012-07-21T05:54:09.1Z</time>
      </trkpt>
      <trkpt lat="45.37702" lon="5.81461">
        <ele>1808</ele>
        <time>2012-07-21T05:54:11.1Z</time>
      </trkpt>
      <trkpt lat="45.37701" lon="5.81461">
        <ele>1808</ele>
        <time>2012-07-21T05:54:13.1Z</time>
      </trkpt>
      <trkpt lat="45.37702" lon="5.81461">
        <ele>1808</ele>
        <time>2012-07-21T05:54:16.1Z</time>
      </trkpt>
      <trkpt lat="45.37701" lon="5.81461">
        <ele>1808</ele>
        <time>2012-07-21T05:54:18.1Z</time>
      </trkpt>
      <trkpt lat="45.377" lon="5.8146">
        <ele>1808</ele>
        <time>2012-07-21T05:54:20.1Z</time>
      </trkpt>
      <trkpt lat="45.37698" lon="5.81458">
        <ele>1808</ele>
        <time>2012-07-21T05:54:22.1Z</time>
      </trkpt>
      <trkpt lat="45.37695" lon="5.81457">
        <ele>1808</ele>
        <time>2012-07-21T05:54:24.1Z</time>
      </trkpt>
      <trkpt lat="45.37693" lon="5.81455">
        <ele>1808</ele>
        <time>2012-07-21T05:54:26.1Z</time>
      </trkpt>
      <trkpt lat="45.37691" lon="5.81453">
        <ele>1807</ele>
        <time>2012-07-21T05:54:28.1Z</time>
      </trkpt>
      <trkpt lat="45.3769" lon="5.8145">
        <ele>1808</ele>
        <time>2012-07-21T05:54:30.1Z</time>
      </trkpt>
      <trkpt lat="45.37688" lon="5.81449">
        <ele>1808</ele>
        <time>2012-07-21T05:54:32.1Z</time>
      </trkpt>
      <trkpt lat="45.37686" lon="5.81448">
        <ele>1808</ele>
        <time>2012-07-21T05:54:34.1Z</time>
      </trkpt>
      <trkpt lat="45.37683" lon="5.81446">
        <ele>1809</ele>
        <time>2012-07-21T05:54:36.1Z</time>
      </trkpt>
      <trkpt lat="45.37682" lon="5.81442">
        <ele>1809</ele>
        <time>2012-07-21T05:54:38.1Z</time>
      </trkpt>
      <trkpt lat="45.37682" lon="5.81441">
        <ele>1809</ele>
        <time>2012-07-21T05:54:40.1Z</time>
      </trkpt>
      <trkpt lat="45.37681" lon="5.81438">
        <ele>1809</ele>
        <time>2012-07-21T05:54:42.1Z</time>
      </trkpt>
      <trkpt lat="45.37681" lon="5.81437">
        <ele>1810</ele>
        <time>2012-07-21T05:54:45.1Z</time>
      </trkpt>
      <trkpt lat="45.37679" lon="5.81435">
        <ele>1810</ele>
        <time>2012-07-21T05:54:47.1Z</time>
      </trkpt>
      <trkpt lat="45.37678" lon="5.81433">
        <ele>1811</ele>
        <time>2012-07-21T05:54:49.1Z</time>
      </trkpt>
      <trkpt lat="45.37677" lon="5.81433">
        <ele>1812</ele>
        <time>2012-07-21T05:54:51.1Z</time>
      </trkpt>
      <trkpt lat="45.37675" lon="5.81431">
        <ele>1813</ele>
        <time>2012-07-21T05:54:53.1Z</time>
      </trkpt>
      <trkpt lat="45.37674" lon="5.81429">
        <ele>1813</ele>
        <time>2012-07-21T05:54:55.1Z</time>
      </trkpt>
      <trkpt lat="45.37674" lon="5.81428">
        <ele>1813</ele>
        <time>2012-07-21T05:54:57.1Z</time>
      </trkpt>
      <trkpt lat="45.37673" lon="5.81428">
        <ele>1814</ele>
        <time>2012-07-21T05:54:59.1Z</time>
      </trkpt>
      <trkpt lat="45.37671" lon="5.81425">
        <ele>1814</ele>
        <time>2012-07-21T05:55:01.1Z</time>
      </trkpt>
      <trkpt lat="45.3767" lon="5.81423">
        <ele>1814</ele>
        <time>2012-07-21T05:55:03.1Z</time>
      </trkpt>
      <trkpt lat="45.37668" lon="5.81421">
        <ele>1815</ele>
        <time>2012-07-21T05:55:05.1Z</time>
      </trkpt>
      <trkpt lat="45.37667" lon="5.8142">
        <ele>1816</ele>
        <time>2012-07-21T05:55:07.1Z</time>
      </trkpt>
      <trkpt lat="45.37665" lon="5.8142">
        <ele>1816</ele>
        <time>2012-07-21T05:55:09.1Z</time>
      </trkpt>
      <trkpt lat="45.37663" lon="5.81418">
        <ele>1816</ele>
        <time>2012-07-21T05:55:11.1Z</time>
      </trkpt>
      <trkpt lat="45.37661" lon="5.81417">
        <ele>1817</ele>
        <time>2012-07-21T05:55:13.1Z</time>
      </trkpt>
      <trkpt lat="45.3766" lon="5.81415">
        <ele>1817</ele>
        <time>2012-07-21T05:55:16.1Z</time>
      </trkpt>
      <trkpt lat="45.3766" lon="5.81414">
        <ele>1818</ele>
        <time>2012-07-21T05:55:18.1Z</time>
      </trkpt>
      <trkpt lat="45.37659" lon="5.81412">
        <ele>1818</ele>
        <time>2012-07-21T05:55:20.1Z</time>
      </trkpt>
      <trkpt lat="45.37658" lon="5.81411">
        <ele>1819</ele>
        <time>2012-07-21T05:55:22.1Z</time>
      </trkpt>
      <trkpt lat="45.37658" lon="5.81409">
        <ele>1820</ele>
        <time>2012-07-21T05:55:24.1Z</time>
      </trkpt>
      <trkpt lat="45.37656" lon="5.81409">
        <ele>1821</ele>
        <time>2012-07-21T05:55:26.1Z</time>
      </trkpt>
      <trkpt lat="45.37655" lon="5.81407">
        <ele>1821</ele>
        <time>2012-07-21T05:55:28.1Z</time>
      </trkpt>
      <trkpt lat="45.37654" lon="5.81406">
        <ele>1822</ele>
        <time>2012-07-21T05:55:30.1Z</time>
      </trkpt>
      <trkpt lat="45.37654" lon="5.81406">
        <ele>1823</ele>
        <time>2012-07-21T05:55:32.1Z</time>
      </trkpt>
      <trkpt lat="45.37655" lon="5.81404">
        <ele>1823</ele>
        <time>2012-07-21T05:55:35.1Z</time>
      </trkpt>
      <trkpt lat="45.37654" lon="5.81403">
        <ele>1824</ele>
        <time>2012-07-21T05:55:37.1Z</time>
      </trkpt>
      <trkpt lat="45.37654" lon="5.81402">
        <ele>1824</ele>
        <time>2012-07-21T05:55:39.1Z</time>
      </trkpt>
      <trkpt lat="45.37654" lon="5.81401">
        <ele>1825</ele>
        <time>2012-07-21T05:55:41.1Z</time>
      </trkpt>
      <trkpt lat="45.37653" lon="5.81399">
        <ele>1826</ele>
        <time>2012-07-21T05:55:43.1Z</time>
      </trkpt>
      <trkpt lat="45.37653" lon="5.81397">
        <ele>1826</ele>
        <time>2012-07-21T05:55:45.1Z</time>
      </trkpt>
      <trkpt lat="45.37652" lon="5.81396">
        <ele>1827</ele>
        <time>2012-07-21T05:55:47.1Z</time>
      </trkpt>
      <trkpt lat="45.37651" lon="5.81394">
        <ele>1828</ele>
        <time>2012-07-21T05:55:50.1Z</time>
      </trkpt>
      <trkpt lat="45.37651" lon="5.81393">
        <ele>1829</ele>
        <time>2012-07-21T05:55:52.1Z</time>
      </trkpt>
      <trkpt lat="45.37651" lon="5.81392">
        <ele>1829</ele>
        <time>2012-07-21T05:55:54.1Z</time>
      </trkpt>
      <trkpt lat="45.37651" lon="5.81391">
        <ele>1830</ele>
        <time>2012-07-21T05:55:56.1Z</time>
      </trkpt>
      <trkpt lat="45.37649" lon="5.8139">
        <ele>1831</ele>
        <time>2012-07-21T05:55:58.1Z</time>
      </trkpt>
      <trkpt lat="45.37648" lon="5.81389">
        <ele>1831</ele>
        <time>2012-07-21T05:56:00.1Z</time>
      </trkpt>
      <trkpt lat="45.37648" lon="5.81387">
        <ele>1831</ele>
        <time>2012-07-21T05:56:02.1Z</time>
      </trkpt>
      <trkpt lat="45.37648" lon="5.81386">
        <ele>1832</ele>
        <time>2012-07-21T05:56:04.1Z</time>
      </trkpt>
      <trkpt lat="45.37648" lon="5.81385">
        <ele>1832</ele>
        <time>2012-07-21T05:56:06.1Z</time>
      </trkpt>
      <trkpt lat="45.37648" lon="5.81384">
        <ele>1833</ele>
        <time>2012-07-21T05:56:08.1Z</time>
      </trkpt>
      <trkpt lat="45.37647" lon="5.81383">
        <ele>1833</ele>
        <time>2012-07-21T05:56:10.1Z</time>
      </trkpt>
      <trkpt lat="45.37646" lon="5.81383">
        <ele>1834</ele>
        <time>2012-07-21T05:56:12.1Z</time>
      </trkpt>
      <trkpt lat="45.37645" lon="5.81382">
        <ele>1834</ele>
        <time>2012-07-21T05:56:14.1Z</time>
      </trkpt>
      <trkpt lat="45.37643" lon="5.81381">
        <ele>1835</ele>
        <time>2012-07-21T05:56:17.1Z</time>
      </trkpt>
      <trkpt lat="45.37643" lon="5.81381">
        <ele>1836</ele>
        <time>2012-07-21T05:56:19.1Z</time>
      </trkpt>
      <trkpt lat="45.37642" lon="5.8138">
        <ele>1836</ele>
        <time>2012-07-21T05:56:21.1Z</time>
      </trkpt>
      <trkpt lat="45.37641" lon="5.8138">
        <ele>1836</ele>
        <time>2012-07-21T05:56:23.1Z</time>
      </trkpt>
      <trkpt lat="45.3764" lon="5.81378">
        <ele>1837</ele>
        <time>2012-07-21T05:56:25.1Z</time>
      </trkpt>
      <trkpt lat="45.3764" lon="5.81378">
        <ele>1837</ele>
        <time>2012-07-21T05:56:27.1Z</time>
      </trkpt>
      <trkpt lat="45.3764" lon="5.81376">
        <ele>1837</ele>
        <time>2012-07-21T05:56:29.1Z</time>
      </trkpt>
      <trkpt lat="45.3764" lon="5.81375">
        <ele>1837</ele>
        <time>2012-07-21T05:56:31.1Z</time>
      </trkpt>
      <trkpt lat="45.37638" lon="5.81375">
        <ele>1838</ele>
        <time>2012-07-21T05:56:33.1Z</time>
      </trkpt>
      <trkpt lat="45.37637" lon="5.81374">
        <ele>1839</ele>
        <time>2012-07-21T05:56:35.1Z</time>
      </trkpt>
      <trkpt lat="45.37637" lon="5.81373">
        <ele>1839</ele>
        <time>2012-07-21T05:56:37.1Z</time>
      </trkpt>
      <trkpt lat="45.37636" lon="5.81371">
        <ele>1839</ele>
        <time>2012-07-21T05:56:39.1Z</time>
      </trkpt>
      <trkpt lat="45.37635" lon="5.8137">
        <ele>1840</ele>
        <time>2012-07-21T05:56:41.1Z</time>
      </trkpt>
      <trkpt lat="45.37634" lon="5.81369">
        <ele>1840</ele>
        <time>2012-07-21T05:56:44.1Z</time>
      </trkpt>
      <trkpt lat="45.37633" lon="5.81369">
        <ele>1841</ele>
        <time>2012-07-21T05:56:46.1Z</time>
      </trkpt>
      <trkpt lat="45.37632" lon="5.81368">
        <ele>1841</ele>
        <time>2012-07-21T05:56:48.1Z</time>
      </trkpt>
      <trkpt lat="45.37631" lon="5.81368">
        <ele>1842</ele>
        <time>2012-07-21T05:56:50.1Z</time>
      </trkpt>
      <trkpt lat="45.37629" lon="5.81366">
        <ele>1843</ele>
        <time>2012-07-21T05:56:52.1Z</time>
      </trkpt>
      <trkpt lat="45.37629" lon="5.81364">
        <ele>1843</ele>
        <time>2012-07-21T05:56:54.1Z</time>
      </trkpt>
      <trkpt lat="45.37629" lon="5.81364">
        <ele>1843</ele>
        <time>2012-07-21T05:56:57.1Z</time>
      </trkpt>
      <trkpt lat="45.37629" lon="5.81363">
        <ele>1844</ele>
        <time>2012-07-21T05:56:59.1Z</time>
      </trkpt>
      <trkpt lat="45.37629" lon="5.81362">
        <ele>1844</ele>
        <time>2012-07-21T05:57:01.1Z</time>
      </trkpt>
      <trkpt lat="45.37628" lon="5.81361">
        <ele>1844</ele>
        <time>2012-07-21T05:57:03.1Z</time>
      </trkpt>
      <trkpt lat="45.37627" lon="5.81359">
        <ele>1844</ele>
        <time>2012-07-21T05:57:05.1Z</time>
      </trkpt>
      <trkpt lat="45.37626" lon="5.81358">
        <ele>1844</ele>
        <time>2012-07-21T05:57:07.1Z</time>
      </trkpt>
      <trkpt lat="45.37625" lon="5.81358">
        <ele>1844</ele>
        <time>2012-07-21T05:57:10.1Z</time>
      </trkpt>
      <trkpt lat="45.37623" lon="5.81357">
        <ele>1844</ele>
        <time>2012-07-21T05:57:12.1Z</time>
      </trkpt>
      <trkpt lat="45.37622" lon="5.81357">
        <ele>1844</ele>
        <time>2012-07-21T05:57:14.1Z</time>
      </trkpt>
      <trkpt lat="45.37621" lon="5.81357">
        <ele>1845</ele>
        <time>2012-07-21T05:57:16.1Z</time>
      </trkpt>
      <trkpt lat="45.37619" lon="5.81357">
        <ele>1845</ele>
        <time>2012-07-21T05:57:18.1Z</time>
      </trkpt>
      <trkpt lat="45.37618" lon="5.81356">
        <ele>1846</ele>
        <time>2012-07-21T05:57:20.1Z</time>
      </trkpt>
      <trkpt lat="45.37617" lon="5.81356">
        <ele>1846</ele>
        <time>2012-07-21T05:57:22.1Z</time>
      </trkpt>
      <trkpt lat="45.37617" lon="5.81356">
        <ele>1846</ele>
        <time>2012-07-21T05:57:24.1Z</time>
      </trkpt>
      <trkpt lat="45.37616" lon="5.81358">
        <ele>1846</ele>
        <time>2012-07-21T05:57:26.1Z</time>
      </trkpt>
      <trkpt lat="45.37615" lon="5.81357">
        <ele>1846</ele>
        <time>2012-07-21T05:57:28.1Z</time>
      </trkpt>
      <trkpt lat="45.37614" lon="5.81357">
        <ele>1846</ele>
        <time>2012-07-21T05:57:30.1Z</time>
      </trkpt>
      <trkpt lat="45.37613" lon="5.81355">
        <ele>1846</ele>
        <time>2012-07-21T05:57:33.1Z</time>
      </trkpt>
      <trkpt lat="45.37613" lon="5.81355">
        <ele>1846</ele>
        <time>2012-07-21T05:57:35.1Z</time>
      </trkpt>
      <trkpt lat="45.37612" lon="5.81354">
        <ele>1846</ele>
        <time>2012-07-21T05:57:37.1Z</time>
      </trkpt>
      <trkpt lat="45.37611" lon="5.81354">
        <ele>1846</ele>
        <time>2012-07-21T05:57:39.1Z</time>
      </trkpt>
      <trkpt lat="45.37609" lon="5.81354">
        <ele>1847</ele>
        <time>2012-07-21T05:57:41.1Z</time>
      </trkpt>
      <trkpt lat="45.37608" lon="5.81353">
        <ele>1847</ele>
        <time>2012-07-21T05:57:43.1Z</time>
      </trkpt>
      <trkpt lat="45.37606" lon="5.81351">
        <ele>1847</ele>
        <time>2012-07-21T05:57:45.1Z</time>
      </trkpt>
      <trkpt lat="45.37604" lon="5.81348">
        <ele>1848</ele>
        <time>2012-07-21T05:57:47.1Z</time>
      </trkpt>
      <trkpt lat="45.37603" lon="5.81347">
        <ele>1848</ele>
        <time>2012-07-21T05:57:49.1Z</time>
      </trkpt>
      <trkpt lat="45.37603" lon="5.81347">
        <ele>1849</ele>
        <time>2012-07-21T05:57:51.1Z</time>
      </trkpt>
      <trkpt lat="45.37603" lon="5.81347">
        <ele>1849</ele>
        <time>2012-07-21T05:57:53.1Z</time>
      </trkpt>
      <trkpt lat="45.37603" lon="5.81347">
        <ele>1849</ele>
        <time>2012-07-21T05:57:55.1Z</time>
      </trkpt>
      <trkpt lat="45.37603" lon="5.81347">
        <ele>1849</ele>
        <time>2012-07-21T05:57:57.1Z</time>
      </trkpt>
      <trkpt lat="45.37603" lon="5.81347">
        <ele>1849</ele>
        <time>2012-07-21T05:57:59.1Z</time>
      </trkpt>
      <trkpt lat="45.37603" lon="5.81347">
        <ele>1849</ele>
        <time>2012-07-21T05:58:01.1Z</time>
      </trkpt>
      <trkpt lat="45.37603" lon="5.81347">
        <ele>1849</ele>
        <time>2012-07-21T05:58:04.1Z</time>
      </trkpt>
      <trkpt lat="45.37603" lon="5.81347">
        <ele>1849</ele>
        <time>2012-07-21T05:58:06.1Z</time>
      </trkpt>
      <trkpt lat="45.37603" lon="5.81347">
        <ele>1850</ele>
        <time>2012-07-21T05:58:08.1Z</time>
      </trkpt>
      <trkpt lat="45.37603" lon="5.81347">
        <ele>1850</ele>
        <time>2012-07-21T05:58:10.1Z</time>
      </trkpt>
      <trkpt lat="45.37603" lon="5.81347">
        <ele>1850</ele>
        <time>2012-07-21T05:58:12.1Z</time>
      </trkpt>
      <trkpt lat="45.37603" lon="5.81347">
        <ele>1850</ele>
        <time>2012-07-21T05:58:14.1Z</time>
      </trkpt>
      <trkpt lat="45.37603" lon="5.81347">
        <ele>1850</ele>
        <time>2012-07-21T05:58:16.1Z</time>
      </trkpt>
      <trkpt lat="45.37603" lon="5.81347">
        <ele>1850</ele>
        <time>2012-07-21T05:58:18.1Z</time>
      </trkpt>
      <trkpt lat="45.37603" lon="5.81347">
        <ele>1850</ele>
        <time>2012-07-21T05:58:20.1Z</time>
      </trkpt>
      <trkpt lat="45.37603" lon="5.81347">
        <ele>1850</ele>
        <time>2012-07-21T05:58:22.1Z</time>
      </trkpt>
      <trkpt lat="45.37603" lon="5.81347">
        <ele>1850</ele>
        <time>2012-07-21T05:58:24.1Z</time>
      </trkpt>
      <trkpt lat="45.37603" lon="5.81348">
        <ele>1850</ele>
        <time>2012-07-21T05:58:26.1Z</time>
      </trkpt>
      <trkpt lat="45.37604" lon="5.81349">
        <ele>1850</ele>
        <time>2012-07-21T05:58:28.1Z</time>
      </trkpt>
      <trkpt lat="45.37602" lon="5.81349">
        <ele>1850</ele>
        <time>2012-07-21T05:58:30.1Z</time>
      </trkpt>
      <trkpt lat="45.376" lon="5.81349">
        <ele>1849</ele>
        <time>2012-07-21T05:58:32.1Z</time>
      </trkpt>
      <trkpt lat="45.376" lon="5.81348">
        <ele>1849</ele>
        <time>2012-07-21T05:58:35.1Z</time>
      </trkpt>
      <trkpt lat="45.376" lon="5.81348">
        <ele>1849</ele>
        <time>2012-07-21T05:58:37.1Z</time>
      </trkpt>
      <trkpt lat="45.376" lon="5.81349">
        <ele>1848</ele>
        <time>2012-07-21T05:58:39.1Z</time>
      </trkpt>
      <trkpt lat="45.376" lon="5.81348">
        <ele>1849</ele>
        <time>2012-07-21T05:58:41.1Z</time>
      </trkpt>
      <trkpt lat="45.37599" lon="5.81348">
        <ele>1849</ele>
        <time>2012-07-21T05:58:43.1Z</time>
      </trkpt>
      <trkpt lat="45.37598" lon="5.81348">
        <ele>1849</ele>
        <time>2012-07-21T05:58:45.1Z</time>
      </trkpt>
      <trkpt lat="45.37598" lon="5.81349">
        <ele>1849</ele>
        <time>2012-07-21T05:58:47.1Z</time>
      </trkpt>
      <trkpt lat="45.37597" lon="5.8135">
        <ele>1849</ele>
        <time>2012-07-21T05:58:49.1Z</time>
      </trkpt>
      <trkpt lat="45.37595" lon="5.81349">
        <ele>1849</ele>
        <time>2012-07-21T05:58:51.1Z</time>
      </trkpt>
      <trkpt lat="45.37594" lon="5.81349">
        <ele>1850</ele>
        <time>2012-07-21T05:58:53.1Z</time>
      </trkpt>
      <trkpt lat="45.37593" lon="5.81349">
        <ele>1850</ele>
        <time>2012-07-21T05:58:55.1Z</time>
      </trkpt>
      <trkpt lat="45.37592" lon="5.81349">
        <ele>1850</ele>
        <time>2012-07-21T05:58:57.1Z</time>
      </trkpt>
      <trkpt lat="45.37591" lon="5.81349">
        <ele>1850</ele>
        <time>2012-07-21T05:58:59.1Z</time>
      </trkpt>
      <trkpt lat="45.3759" lon="5.81349">
        <ele>1850</ele>
        <time>2012-07-21T05:59:01.1Z</time>
      </trkpt>
      <trkpt lat="45.37587" lon="5.81348">
        <ele>1850</ele>
        <time>2012-07-21T05:59:03.1Z</time>
      </trkpt>
      <trkpt lat="45.37586" lon="5.81349">
        <ele>1851</ele>
        <time>2012-07-21T05:59:05.1Z</time>
      </trkpt>
      <trkpt lat="45.37584" lon="5.81348">
        <ele>1851</ele>
        <time>2012-07-21T05:59:07.1Z</time>
      </trkpt>
      <trkpt lat="45.37582" lon="5.81348">
        <ele>1852</ele>
        <time>2012-07-21T05:59:10.1Z</time>
      </trkpt>
      <trkpt lat="45.37582" lon="5.81349">
        <ele>1852</ele>
        <time>2012-07-21T05:59:12.1Z</time>
      </trkpt>
      <trkpt lat="45.37581" lon="5.81351">
        <ele>1851</ele>
        <time>2012-07-21T05:59:14.1Z</time>
      </trkpt>
      <trkpt lat="45.37579" lon="5.81352">
        <ele>1851</ele>
        <time>2012-07-21T05:59:16.1Z</time>
      </trkpt>
      <trkpt lat="45.37578" lon="5.81351">
        <ele>1851</ele>
        <time>2012-07-21T05:59:18.1Z</time>
      </trkpt>
      <trkpt lat="45.37577" lon="5.8135">
        <ele>1852</ele>
        <time>2012-07-21T05:59:20.1Z</time>
      </trkpt>
      <trkpt lat="45.37574" lon="5.8135">
        <ele>1852</ele>
        <time>2012-07-21T05:59:22.1Z</time>
      </trkpt>
      <trkpt lat="45.37573" lon="5.81351">
        <ele>1853</ele>
        <time>2012-07-21T05:59:24.1Z</time>
      </trkpt>
      <trkpt lat="45.3757" lon="5.81352">
        <ele>1853</ele>
        <time>2012-07-21T05:59:26.1Z</time>
      </trkpt>
      <trkpt lat="45.37569" lon="5.81351">
        <ele>1853</ele>
        <time>2012-07-21T05:59:28.1Z</time>
      </trkpt>
      <trkpt lat="45.37568" lon="5.8135">
        <ele>1854</ele>
        <time>2012-07-21T05:59:30.1Z</time>
      </trkpt>
      <trkpt lat="45.37566" lon="5.81349">
        <ele>1854</ele>
        <time>2012-07-21T05:59:32.1Z</time>
      </trkpt>
      <trkpt lat="45.37565" lon="5.81348">
        <ele>1855</ele>
        <time>2012-07-21T05:59:34.1Z</time>
      </trkpt>
      <trkpt lat="45.37563" lon="5.81346">
        <ele>1855</ele>
        <time>2012-07-21T05:59:37.1Z</time>
      </trkpt>
      <trkpt lat="45.37561" lon="5.81345">
        <ele>1855</ele>
        <time>2012-07-21T05:59:39.1Z</time>
      </trkpt>
      <trkpt lat="45.37559" lon="5.81343">
        <ele>1855</ele>
        <time>2012-07-21T05:59:41.1Z</time>
      </trkpt>
      <trkpt lat="45.37555" lon="5.81341">
        <ele>1855</ele>
        <time>2012-07-21T05:59:43.1Z</time>
      </trkpt>
      <trkpt lat="45.37553" lon="5.8134">
        <ele>1855</ele>
        <time>2012-07-21T05:59:45.1Z</time>
      </trkpt>
      <trkpt lat="45.3755" lon="5.81338">
        <ele>1856</ele>
        <time>2012-07-21T05:59:47.1Z</time>
      </trkpt>
      <trkpt lat="45.37548" lon="5.81338">
        <ele>1855</ele>
        <time>2012-07-21T05:59:49.1Z</time>
      </trkpt>
      <trkpt lat="45.37546" lon="5.81337">
        <ele>1856</ele>
        <time>2012-07-21T05:59:51.1Z</time>
      </trkpt>
      <trkpt lat="45.37543" lon="5.81337">
        <ele>1856</ele>
        <time>2012-07-21T05:59:53.1Z</time>
      </trkpt>
      <trkpt lat="45.37541" lon="5.81335">
        <ele>1857</ele>
        <time>2012-07-21T05:59:55.1Z</time>
      </trkpt>
      <trkpt lat="45.37539" lon="5.81333">
        <ele>1857</ele>
        <time>2012-07-21T05:59:57.1Z</time>
      </trkpt>
      <trkpt lat="45.37537" lon="5.81331">
        <ele>1858</ele>
        <time>2012-07-21T05:59:59.1Z</time>
      </trkpt>
      <trkpt lat="45.37534" lon="5.8133">
        <ele>1858</ele>
        <time>2012-07-21T06:00:01.1Z</time>
      </trkpt>
      <trkpt lat="45.37532" lon="5.8133">
        <ele>1858</ele>
        <time>2012-07-21T06:00:04.1Z</time>
      </trkpt>
      <trkpt lat="45.3753" lon="5.8133">
        <ele>1859</ele>
        <time>2012-07-21T06:00:06.1Z</time>
      </trkpt>
      <trkpt lat="45.37526" lon="5.81329">
        <ele>1859</ele>
        <time>2012-07-21T06:00:08.1Z</time>
      </trkpt>
      <trkpt lat="45.37523" lon="5.81328">
        <ele>1859</ele>
        <time>2012-07-21T06:00:10.1Z</time>
      </trkpt>
      <trkpt lat="45.37519" lon="5.81329">
        <ele>1859</ele>
        <time>2012-07-21T06:00:12.1Z</time>
      </trkpt>
      <trkpt lat="45.37518" lon="5.81328">
        <ele>1859</ele>
        <time>2012-07-21T06:00:14.1Z</time>
      </trkpt>
      <trkpt lat="45.37514" lon="5.81328">
        <ele>1860</ele>
        <time>2012-07-21T06:00:16.1Z</time>
      </trkpt>
      <trkpt lat="45.37511" lon="5.81327">
        <ele>1861</ele>
        <time>2012-07-21T06:00:18.1Z</time>
      </trkpt>
      <trkpt lat="45.37506" lon="5.81326">
        <ele>1862</ele>
        <time>2012-07-21T06:00:20.1Z</time>
      </trkpt>
      <trkpt lat="45.37503" lon="5.81327">
        <ele>1863</ele>
        <time>2012-07-21T06:00:22.1Z</time>
      </trkpt>
      <trkpt lat="45.37501" lon="5.81327">
        <ele>1863</ele>
        <time>2012-07-21T06:00:24.1Z</time>
      </trkpt>
      <trkpt lat="45.37497" lon="5.81326">
        <ele>1864</ele>
        <time>2012-07-21T06:00:26.1Z</time>
      </trkpt>
      <trkpt lat="45.37494" lon="5.81325">
        <ele>1864</ele>
        <time>2012-07-21T06:00:28.1Z</time>
      </trkpt>
      <trkpt lat="45.3749" lon="5.81325">
        <ele>1865</ele>
        <time>2012-07-21T06:00:30.1Z</time>
      </trkpt>
      <trkpt lat="45.37487" lon="5.81325">
        <ele>1865</ele>
        <time>2012-07-21T06:00:32.1Z</time>
      </trkpt>
      <trkpt lat="45.37484" lon="5.81325">
        <ele>1865</ele>
        <time>2012-07-21T06:00:34.1Z</time>
      </trkpt>
      <trkpt lat="45.37479" lon="5.81325">
        <ele>1865</ele>
        <time>2012-07-21T06:00:36.1Z</time>
      </trkpt>
      <trkpt lat="45.37475" lon="5.81325">
        <ele>1865</ele>
        <time>2012-07-21T06:00:38.1Z</time>
      </trkpt>
      <trkpt lat="45.37471" lon="5.81325">
        <ele>1866</ele>
        <time>2012-07-21T06:00:40.1Z</time>
      </trkpt>
      <trkpt lat="45.37468" lon="5.81325">
        <ele>1866</ele>
        <time>2012-07-21T06:00:43.1Z</time>
      </trkpt>
      <trkpt lat="45.37464" lon="5.81326">
        <ele>1866</ele>
        <time>2012-07-21T06:00:45.1Z</time>
      </trkpt>
      <trkpt lat="45.3746" lon="5.81325">
        <ele>1867</ele>
        <time>2012-07-21T06:00:47.1Z</time>
      </trkpt>
      <trkpt lat="45.37457" lon="5.81325">
        <ele>1867</ele>
        <time>2012-07-21T06:00:49.1Z</time>
      </trkpt>
      <trkpt lat="45.37454" lon="5.81324">
        <ele>1868</ele>
        <time>2012-07-21T06:00:51.1Z</time>
      </trkpt>
      <trkpt lat="45.3745" lon="5.81324">
        <ele>1868</ele>
        <time>2012-07-21T06:00:53.1Z</time>
      </trkpt>
      <trkpt lat="45.37445" lon="5.81322">
        <ele>1868</ele>
        <time>2012-07-21T06:00:55.1Z</time>
      </trkpt>
      <trkpt lat="45.37442" lon="5.81323">
        <ele>1868</ele>
        <time>2012-07-21T06:00:57.1Z</time>
      </trkpt>
      <trkpt lat="45.37439" lon="5.81325">
        <ele>1867</ele>
        <time>2012-07-21T06:00:59.1Z</time>
      </trkpt>
      <trkpt lat="45.37436" lon="5.81326">
        <ele>1868</ele>
        <time>2012-07-21T06:01:01.1Z</time>
      </trkpt>
      <trkpt lat="45.37432" lon="5.81328">
        <ele>1868</ele>
        <time>2012-07-21T06:01:03.1Z</time>
      </trkpt>
      <trkpt lat="45.37429" lon="5.81328">
        <ele>1869</ele>
        <time>2012-07-21T06:01:05.1Z</time>
      </trkpt>
      <trkpt lat="45.37425" lon="5.81329">
        <ele>1869</ele>
        <time>2012-07-21T06:01:07.1Z</time>
      </trkpt>
      <trkpt lat="45.37421" lon="5.8133">
        <ele>1869</ele>
        <time>2012-07-21T06:01:09.1Z</time>
      </trkpt>
      <trkpt lat="45.37418" lon="5.8133">
        <ele>1869</ele>
        <time>2012-07-21T06:01:11.1Z</time>
      </trkpt>
      <trkpt lat="45.37414" lon="5.8133">
        <ele>1869</ele>
        <time>2012-07-21T06:01:13.1Z</time>
      </trkpt>
      <trkpt lat="45.37411" lon="5.8133">
        <ele>1869</ele>
        <time>2012-07-21T06:01:15.1Z</time>
      </trkpt>
      <trkpt lat="45.37407" lon="5.81331">
        <ele>1869</ele>
        <time>2012-07-21T06:01:17.1Z</time>
      </trkpt>
      <trkpt lat="45.37403" lon="5.81331">
        <ele>1870</ele>
        <time>2012-07-21T06:01:20.1Z</time>
      </trkpt>
      <trkpt lat="45.374" lon="5.81331">
        <ele>1870</ele>
        <time>2012-07-21T06:01:22.1Z</time>
      </trkpt>
      <trkpt lat="45.37396" lon="5.81331">
        <ele>1870</ele>
        <time>2012-07-21T06:01:24.1Z</time>
      </trkpt>
      <trkpt lat="45.37392" lon="5.81331">
        <ele>1870</ele>
        <time>2012-07-21T06:01:26.1Z</time>
      </trkpt>
      <trkpt lat="45.37387" lon="5.8133">
        <ele>1870</ele>
        <time>2012-07-21T06:01:28.1Z</time>
      </trkpt>
      <trkpt lat="45.37383" lon="5.81331">
        <ele>1871</ele>
        <time>2012-07-21T06:01:30.1Z</time>
      </trkpt>
      <trkpt lat="45.37379" lon="5.81332">
        <ele>1871</ele>
        <time>2012-07-21T06:01:32.1Z</time>
      </trkpt>
      <trkpt lat="45.37376" lon="5.81332">
        <ele>1871</ele>
        <time>2012-07-21T06:01:34.1Z</time>
      </trkpt>
      <trkpt lat="45.37371" lon="5.81332">
        <ele>1871</ele>
        <time>2012-07-21T06:01:36.1Z</time>
      </trkpt>
      <trkpt lat="45.37368" lon="5.81333">
        <ele>1872</ele>
        <time>2012-07-21T06:01:38.1Z</time>
      </trkpt>
      <trkpt lat="45.37364" lon="5.81333">
        <ele>1872</ele>
        <time>2012-07-21T06:01:41.1Z</time>
      </trkpt>
      <trkpt lat="45.3736" lon="5.81334">
        <ele>1872</ele>
        <time>2012-07-21T06:01:43.1Z</time>
      </trkpt>
      <trkpt lat="45.37357" lon="5.81334">
        <ele>1872</ele>
        <time>2012-07-21T06:01:45.1Z</time>
      </trkpt>
      <trkpt lat="45.37352" lon="5.81333">
        <ele>1873</ele>
        <time>2012-07-21T06:01:47.1Z</time>
      </trkpt>
      <trkpt lat="45.37347" lon="5.81332">
        <ele>1873</ele>
        <time>2012-07-21T06:01:49.1Z</time>
      </trkpt>
      <trkpt lat="45.37343" lon="5.81331">
        <ele>1873</ele>
        <time>2012-07-21T06:01:51.1Z</time>
      </trkpt>
      <trkpt lat="45.37339" lon="5.8133">
        <ele>1873</ele>
        <time>2012-07-21T06:01:53.1Z</time>
      </trkpt>
      <trkpt lat="45.37336" lon="5.81331">
        <ele>1873</ele>
        <time>2012-07-21T06:01:55.1Z</time>
      </trkpt>
      <trkpt lat="45.37332" lon="5.81333">
        <ele>1873</ele>
        <time>2012-07-21T06:01:57.1Z</time>
      </trkpt>
      <trkpt lat="45.37327" lon="5.81333">
        <ele>1873</ele>
        <time>2012-07-21T06:01:59.1Z</time>
      </trkpt>
      <trkpt lat="45.37324" lon="5.81334">
        <ele>1873</ele>
        <time>2012-07-21T06:02:01.1Z</time>
      </trkpt>
      <trkpt lat="45.37321" lon="5.81335">
        <ele>1873</ele>
        <time>2012-07-21T06:02:04.1Z</time>
      </trkpt>
      <trkpt lat="45.37318" lon="5.81337">
        <ele>1873</ele>
        <time>2012-07-21T06:02:06.1Z</time>
      </trkpt>
      <trkpt lat="45.37314" lon="5.8134">
        <ele>1873</ele>
        <time>2012-07-21T06:02:08.1Z</time>
      </trkpt>
      <trkpt lat="45.3731" lon="5.81341">
        <ele>1873</ele>
        <time>2012-07-21T06:02:10.1Z</time>
      </trkpt>
      <trkpt lat="45.37306" lon="5.81342">
        <ele>1873</ele>
        <time>2012-07-21T06:02:12.1Z</time>
      </trkpt>
      <trkpt lat="45.37304" lon="5.81341">
        <ele>1874</ele>
        <time>2012-07-21T06:02:14.1Z</time>
      </trkpt>
      <trkpt lat="45.37302" lon="5.8134">
        <ele>1874</ele>
        <time>2012-07-21T06:02:16.1Z</time>
      </trkpt>
      <trkpt lat="45.37299" lon="5.8134">
        <ele>1875</ele>
        <time>2012-07-21T06:02:18.1Z</time>
      </trkpt>
      <trkpt lat="45.37297" lon="5.81339">
        <ele>1876</ele>
        <time>2012-07-21T06:02:20.1Z</time>
      </trkpt>
      <trkpt lat="45.37294" lon="5.81339">
        <ele>1876</ele>
        <time>2012-07-21T06:02:22.1Z</time>
      </trkpt>
      <trkpt lat="45.37289" lon="5.81338">
        <ele>1877</ele>
        <time>2012-07-21T06:02:24.1Z</time>
      </trkpt>
      <trkpt lat="45.37286" lon="5.81338">
        <ele>1877</ele>
        <time>2012-07-21T06:02:26.1Z</time>
      </trkpt>
      <trkpt lat="45.37283" lon="5.81337">
        <ele>1878</ele>
        <time>2012-07-21T06:02:28.1Z</time>
      </trkpt>
      <trkpt lat="45.37281" lon="5.81335">
        <ele>1879</ele>
        <time>2012-07-21T06:02:30.1Z</time>
      </trkpt>
      <trkpt lat="45.37278" lon="5.81335">
        <ele>1880</ele>
        <time>2012-07-21T06:02:33.1Z</time>
      </trkpt>
      <trkpt lat="45.37275" lon="5.81335">
        <ele>1880</ele>
        <time>2012-07-21T06:02:35.1Z</time>
      </trkpt>
      <trkpt lat="45.37271" lon="5.81334">
        <ele>1881</ele>
        <time>2012-07-21T06:02:37.1Z</time>
      </trkpt>
      <trkpt lat="45.37269" lon="5.81333">
        <ele>1882</ele>
        <time>2012-07-21T06:02:39.1Z</time>
      </trkpt>
      <trkpt lat="45.37266" lon="5.81332">
        <ele>1882</ele>
        <time>2012-07-21T06:02:41.1Z</time>
      </trkpt>
      <trkpt lat="45.37263" lon="5.81331">
        <ele>1883</ele>
        <time>2012-07-21T06:02:43.1Z</time>
      </trkpt>
      <trkpt lat="45.37262" lon="5.8133">
        <ele>1883</ele>
        <time>2012-07-21T06:02:46.1Z</time>
      </trkpt>
      <trkpt lat="45.37261" lon="5.81329">
        <ele>1884</ele>
        <time>2012-07-21T06:02:48.1Z</time>
      </trkpt>
      <trkpt lat="45.3726" lon="5.81327">
        <ele>1885</ele>
        <time>2012-07-21T06:02:50.1Z</time>
      </trkpt>
      <trkpt lat="45.37257" lon="5.81326">
        <ele>1886</ele>
        <time>2012-07-21T06:02:52.1Z</time>
      </trkpt>
      <trkpt lat="45.37255" lon="5.81325">
        <ele>1886</ele>
        <time>2012-07-21T06:02:54.1Z</time>
      </trkpt>
      <trkpt lat="45.37254" lon="5.81325">
        <ele>1887</ele>
        <time>2012-07-21T06:02:56.1Z</time>
      </trkpt>
      <trkpt lat="45.37252" lon="5.81324">
        <ele>1888</ele>
        <time>2012-07-21T06:02:58.1Z</time>
      </trkpt>
      <trkpt lat="45.3725" lon="5.81324">
        <ele>1889</ele>
        <time>2012-07-21T06:03:00.1Z</time>
      </trkpt>
      <trkpt lat="45.37248" lon="5.81323">
        <ele>1889</ele>
        <time>2012-07-21T06:03:03.1Z</time>
      </trkpt>
      <trkpt lat="45.37247" lon="5.81322">
        <ele>1890</ele>
        <time>2012-07-21T06:03:05.1Z</time>
      </trkpt>
      <trkpt lat="45.37246" lon="5.8132">
        <ele>1890</ele>
        <time>2012-07-21T06:03:07.1Z</time>
      </trkpt>
      <trkpt lat="45.37244" lon="5.81318">
        <ele>1891</ele>
        <time>2012-07-21T06:03:09.1Z</time>
      </trkpt>
      <trkpt lat="45.37243" lon="5.81316">
        <ele>1892</ele>
        <time>2012-07-21T06:03:11.1Z</time>
      </trkpt>
      <trkpt lat="45.37243" lon="5.81313">
        <ele>1892</ele>
        <time>2012-07-21T06:03:13.1Z</time>
      </trkpt>
      <trkpt lat="45.37243" lon="5.81311">
        <ele>1893</ele>
        <time>2012-07-21T06:03:15.1Z</time>
      </trkpt>
      <trkpt lat="45.37242" lon="5.81308">
        <ele>1893</ele>
        <time>2012-07-21T06:03:18.1Z</time>
      </trkpt>
      <trkpt lat="45.37241" lon="5.81306">
        <ele>1893</ele>
        <time>2012-07-21T06:03:20.1Z</time>
      </trkpt>
      <trkpt lat="45.3724" lon="5.81305">
        <ele>1894</ele>
        <time>2012-07-21T06:03:22.1Z</time>
      </trkpt>
      <trkpt lat="45.37239" lon="5.81304">
        <ele>1894</ele>
        <time>2012-07-21T06:03:24.1Z</time>
      </trkpt>
      <trkpt lat="45.37237" lon="5.81303">
        <ele>1895</ele>
        <time>2012-07-21T06:03:26.1Z</time>
      </trkpt>
      <trkpt lat="45.37236" lon="5.81302">
        <ele>1896</ele>
        <time>2012-07-21T06:03:28.1Z</time>
      </trkpt>
      <trkpt lat="45.37235" lon="5.81302">
        <ele>1897</ele>
        <time>2012-07-21T06:03:30.1Z</time>
      </trkpt>
      <trkpt lat="45.37233" lon="5.81301">
        <ele>1898</ele>
        <time>2012-07-21T06:03:32.1Z</time>
      </trkpt>
      <trkpt lat="45.37231" lon="5.81301">
        <ele>1899</ele>
        <time>2012-07-21T06:03:34.1Z</time>
      </trkpt>
      <trkpt lat="45.37231" lon="5.81301">
        <ele>1899</ele>
        <time>2012-07-21T06:03:36.1Z</time>
      </trkpt>
      <trkpt lat="45.37229" lon="5.81302">
        <ele>1900</ele>
        <time>2012-07-21T06:03:38.1Z</time>
      </trkpt>
      <trkpt lat="45.37227" lon="5.81301">
        <ele>1901</ele>
        <time>2012-07-21T06:03:40.1Z</time>
      </trkpt>
      <trkpt lat="45.37226" lon="5.81299">
        <ele>1901</ele>
        <time>2012-07-21T06:03:42.1Z</time>
      </trkpt>
      <trkpt lat="45.37225" lon="5.81296">
        <ele>1901</ele>
        <time>2012-07-21T06:03:44.1Z</time>
      </trkpt>
      <trkpt lat="45.37223" lon="5.81296">
        <ele>1901</ele>
        <time>2012-07-21T06:03:46.1Z</time>
      </trkpt>
      <trkpt lat="45.37222" lon="5.81296">
        <ele>1901</ele>
        <time>2012-07-21T06:03:49.1Z</time>
      </trkpt>
      <trkpt lat="45.3722" lon="5.81296">
        <ele>1902</ele>
        <time>2012-07-21T06:03:51.1Z</time>
      </trkpt>
      <trkpt lat="45.37218" lon="5.81296">
        <ele>1903</ele>
        <time>2012-07-21T06:03:53.1Z</time>
      </trkpt>
      <trkpt lat="45.37216" lon="5.81294">
        <ele>1903</ele>
        <time>2012-07-21T06:03:55.1Z</time>
      </trkpt>
      <trkpt lat="45.37215" lon="5.81293">
        <ele>1904</ele>
        <time>2012-07-21T06:03:57.1Z</time>
      </trkpt>
      <trkpt lat="45.37212" lon="5.81291">
        <ele>1904</ele>
        <time>2012-07-21T06:03:59.1Z</time>
      </trkpt>
      <trkpt lat="45.3721" lon="5.81291">
        <ele>1905</ele>
        <time>2012-07-21T06:04:01.1Z</time>
      </trkpt>
      <trkpt lat="45.37208" lon="5.8129">
        <ele>1906</ele>
        <time>2012-07-21T06:04:03.1Z</time>
      </trkpt>
      <trkpt lat="45.37206" lon="5.81289">
        <ele>1906</ele>
        <time>2012-07-21T06:04:05.1Z</time>
      </trkpt>
      <trkpt lat="45.37204" lon="5.81288">
        <ele>1907</ele>
        <time>2012-07-21T06:04:07.1Z</time>
      </trkpt>
      <trkpt lat="45.37202" lon="5.81287">
        <ele>1908</ele>
        <time>2012-07-21T06:04:09.1Z</time>
      </trkpt>
      <trkpt lat="45.37201" lon="5.81287">
        <ele>1908</ele>
        <time>2012-07-21T06:04:11.1Z</time>
      </trkpt>
      <trkpt lat="45.37199" lon="5.81286">
        <ele>1909</ele>
        <time>2012-07-21T06:04:13.1Z</time>
      </trkpt>
      <trkpt lat="45.37197" lon="5.81285">
        <ele>1910</ele>
        <time>2012-07-21T06:04:15.1Z</time>
      </trkpt>
      <trkpt lat="45.37195" lon="5.81283">
        <ele>1910</ele>
        <time>2012-07-21T06:04:17.1Z</time>
      </trkpt>
      <trkpt lat="45.37193" lon="5.81283">
        <ele>1910</ele>
        <time>2012-07-21T06:04:20.1Z</time>
      </trkpt>
      <trkpt lat="45.37192" lon="5.8128">
        <ele>1910</ele>
        <time>2012-07-21T06:04:22.1Z</time>
      </trkpt>
      <trkpt lat="45.37192" lon="5.81279">
        <ele>1911</ele>
        <time>2012-07-21T06:04:24.1Z</time>
      </trkpt>
      <trkpt lat="45.37191" lon="5.81274">
        <ele>1911</ele>
        <time>2012-07-21T06:04:26.1Z</time>
      </trkpt>
      <trkpt lat="45.3719" lon="5.81273">
        <ele>1912</ele>
        <time>2012-07-21T06:04:28.1Z</time>
      </trkpt>
      <trkpt lat="45.37188" lon="5.81272">
        <ele>1913</ele>
        <time>2012-07-21T06:04:30.1Z</time>
      </trkpt>
      <trkpt lat="45.37187" lon="5.81271">
        <ele>1913</ele>
        <time>2012-07-21T06:04:32.1Z</time>
      </trkpt>
      <trkpt lat="45.37186" lon="5.81269">
        <ele>1914</ele>
        <time>2012-07-21T06:04:34.1Z</time>
      </trkpt>
      <trkpt lat="45.37184" lon="5.81267">
        <ele>1914</ele>
        <time>2012-07-21T06:04:36.1Z</time>
      </trkpt>
      <trkpt lat="45.37182" lon="5.81266">
        <ele>1915</ele>
        <time>2012-07-21T06:04:38.1Z</time>
      </trkpt>
      <trkpt lat="45.3718" lon="5.81266">
        <ele>1915</ele>
        <time>2012-07-21T06:04:40.1Z</time>
      </trkpt>
      <trkpt lat="45.37178" lon="5.81265">
        <ele>1916</ele>
        <time>2012-07-21T06:04:42.1Z</time>
      </trkpt>
      <trkpt lat="45.37178" lon="5.81262">
        <ele>1916</ele>
        <time>2012-07-21T06:04:45.1Z</time>
      </trkpt>
      <trkpt lat="45.37177" lon="5.81259">
        <ele>1917</ele>
        <time>2012-07-21T06:04:47.1Z</time>
      </trkpt>
      <trkpt lat="45.37175" lon="5.81257">
        <ele>1917</ele>
        <time>2012-07-21T06:04:49.1Z</time>
      </trkpt>
      <trkpt lat="45.37173" lon="5.81255">
        <ele>1917</ele>
        <time>2012-07-21T06:04:51.1Z</time>
      </trkpt>
      <trkpt lat="45.37171" lon="5.81253">
        <ele>1918</ele>
        <time>2012-07-21T06:04:53.1Z</time>
      </trkpt>
      <trkpt lat="45.3717" lon="5.81253">
        <ele>1918</ele>
        <time>2012-07-21T06:04:55.1Z</time>
      </trkpt>
      <trkpt lat="45.37168" lon="5.81252">
        <ele>1919</ele>
        <time>2012-07-21T06:04:58.1Z</time>
      </trkpt>
      <trkpt lat="45.37166" lon="5.81251">
        <ele>1920</ele>
        <time>2012-07-21T06:05:00.1Z</time>
      </trkpt>
      <trkpt lat="45.37164" lon="5.81249">
        <ele>1920</ele>
        <time>2012-07-21T06:05:02.1Z</time>
      </trkpt>
      <trkpt lat="45.3716" lon="5.81247">
        <ele>1921</ele>
        <time>2012-07-21T06:05:04.1Z</time>
      </trkpt>
      <trkpt lat="45.37157" lon="5.81245">
        <ele>1921</ele>
        <time>2012-07-21T06:05:06.1Z</time>
      </trkpt>
      <trkpt lat="45.37153" lon="5.81244">
        <ele>1921</ele>
        <time>2012-07-21T06:05:08.1Z</time>
      </trkpt>
      <trkpt lat="45.37149" lon="5.81244">
        <ele>1922</ele>
        <time>2012-07-21T06:05:10.1Z</time>
      </trkpt>
      <trkpt lat="45.37145" lon="5.81243">
        <ele>1923</ele>
        <time>2012-07-21T06:05:12.1Z</time>
      </trkpt>
      <trkpt lat="45.37141" lon="5.81242">
        <ele>1923</ele>
        <time>2012-07-21T06:05:14.1Z</time>
      </trkpt>
      <trkpt lat="45.37137" lon="5.81242">
        <ele>1924</ele>
        <time>2012-07-21T06:05:17.1Z</time>
      </trkpt>
      <trkpt lat="45.37132" lon="5.81239">
        <ele>1924</ele>
        <time>2012-07-21T06:05:19.1Z</time>
      </trkpt>
      <trkpt lat="45.3713" lon="5.81235">
        <ele>1925</ele>
        <time>2012-07-21T06:05:21.1Z</time>
      </trkpt>
      <trkpt lat="45.37128" lon="5.81229">
        <ele>1925</ele>
        <time>2012-07-21T06:05:23.1Z</time>
      </trkpt>
      <trkpt lat="45.37125" lon="5.81222">
        <ele>1925</ele>
        <time>2012-07-21T06:05:25.1Z</time>
      </trkpt>
      <trkpt lat="45.37124" lon="5.81217">
        <ele>1925</ele>
        <time>2012-07-21T06:05:27.1Z</time>
      </trkpt>
      <trkpt lat="45.37122" lon="5.81213">
        <ele>1926</ele>
        <time>2012-07-21T06:05:29.1Z</time>
      </trkpt>
      <trkpt lat="45.37119" lon="5.8121">
        <ele>1926</ele>
        <time>2012-07-21T06:05:31.1Z</time>
      </trkpt>
      <trkpt lat="45.37115" lon="5.81209">
        <ele>1926</ele>
        <time>2012-07-21T06:05:33.1Z</time>
      </trkpt>
      <trkpt lat="45.37113" lon="5.81208">
        <ele>1926</ele>
        <time>2012-07-21T06:05:35.1Z</time>
      </trkpt>
      <trkpt lat="45.3711" lon="5.81208">
        <ele>1927</ele>
        <time>2012-07-21T06:05:37.1Z</time>
      </trkpt>
      <trkpt lat="45.37108" lon="5.81207">
        <ele>1928</ele>
        <time>2012-07-21T06:05:39.1Z</time>
      </trkpt>
      <trkpt lat="45.37105" lon="5.81207">
        <ele>1928</ele>
        <time>2012-07-21T06:05:41.1Z</time>
      </trkpt>
      <trkpt lat="45.37101" lon="5.81207">
        <ele>1928</ele>
        <time>2012-07-21T06:05:43.1Z</time>
      </trkpt>
      <trkpt lat="45.37098" lon="5.81207">
        <ele>1929</ele>
        <time>2012-07-21T06:05:46.1Z</time>
      </trkpt>
      <trkpt lat="45.37094" lon="5.81206">
        <ele>1929</ele>
        <time>2012-07-21T06:05:48.1Z</time>
      </trkpt>
      <trkpt lat="45.37092" lon="5.81206">
        <ele>1930</ele>
        <time>2012-07-21T06:05:50.1Z</time>
      </trkpt>
      <trkpt lat="45.37088" lon="5.81206">
        <ele>1931</ele>
        <time>2012-07-21T06:05:52.1Z</time>
      </trkpt>
      <trkpt lat="45.37083" lon="5.81207">
        <ele>1931</ele>
        <time>2012-07-21T06:05:54.1Z</time>
      </trkpt>
      <trkpt lat="45.3708" lon="5.81208">
        <ele>1932</ele>
        <time>2012-07-21T06:05:56.1Z</time>
      </trkpt>
      <trkpt lat="45.37076" lon="5.81209">
        <ele>1932</ele>
        <time>2012-07-21T06:05:58.1Z</time>
      </trkpt>
      <trkpt lat="45.37073" lon="5.81208">
        <ele>1933</ele>
        <time>2012-07-21T06:06:00.1Z</time>
      </trkpt>
      <trkpt lat="45.37069" lon="5.81208">
        <ele>1933</ele>
        <time>2012-07-21T06:06:02.1Z</time>
      </trkpt>
      <trkpt lat="45.37065" lon="5.81207">
        <ele>1933</ele>
        <time>2012-07-21T06:06:05.1Z</time>
      </trkpt>
      <trkpt lat="45.37061" lon="5.81207">
        <ele>1933</ele>
        <time>2012-07-21T06:06:07.1Z</time>
      </trkpt>
      <trkpt lat="45.37058" lon="5.81208">
        <ele>1933</ele>
        <time>2012-07-21T06:06:09.1Z</time>
      </trkpt>
      <trkpt lat="45.37057" lon="5.81207">
        <ele>1933</ele>
        <time>2012-07-21T06:06:11.1Z</time>
      </trkpt>
      <trkpt lat="45.37054" lon="5.81206">
        <ele>1934</ele>
        <time>2012-07-21T06:06:13.1Z</time>
      </trkpt>
      <trkpt lat="45.37052" lon="5.81206">
        <ele>1934</ele>
        <time>2012-07-21T06:06:15.1Z</time>
      </trkpt>
      <trkpt lat="45.37051" lon="5.81206">
        <ele>1935</ele>
        <time>2012-07-21T06:06:17.1Z</time>
      </trkpt>
      <trkpt lat="45.3705" lon="5.81205">
        <ele>1936</ele>
        <time>2012-07-21T06:06:20.1Z</time>
      </trkpt>
      <trkpt lat="45.37048" lon="5.81205">
        <ele>1937</ele>
        <time>2012-07-21T06:06:22.1Z</time>
      </trkpt>
      <trkpt lat="45.37047" lon="5.81206">
        <ele>1938</ele>
        <time>2012-07-21T06:06:24.1Z</time>
      </trkpt>
      <trkpt lat="45.37045" lon="5.81206">
        <ele>1938</ele>
        <time>2012-07-21T06:06:26.1Z</time>
      </trkpt>
      <trkpt lat="45.37045" lon="5.81206">
        <ele>1938</ele>
        <time>2012-07-21T06:06:28.1Z</time>
      </trkpt>
      <trkpt lat="45.37043" lon="5.81205">
        <ele>1938</ele>
        <time>2012-07-21T06:06:30.1Z</time>
      </trkpt>
      <trkpt lat="45.37043" lon="5.81204">
        <ele>1938</ele>
        <time>2012-07-21T06:06:33.1Z</time>
      </trkpt>
      <trkpt lat="45.37043" lon="5.81204">
        <ele>1938</ele>
        <time>2012-07-21T06:06:35.1Z</time>
      </trkpt>
      <trkpt lat="45.37043" lon="5.81204">
        <ele>1938</ele>
        <time>2012-07-21T06:06:37.1Z</time>
      </trkpt>
      <trkpt lat="45.37043" lon="5.81204">
        <ele>1938</ele>
        <time>2012-07-21T06:06:39.1Z</time>
      </trkpt>
      <trkpt lat="45.37043" lon="5.81205">
        <ele>1938</ele>
        <time>2012-07-21T06:06:41.1Z</time>
      </trkpt>
      <trkpt lat="45.37043" lon="5.81205">
        <ele>1938</ele>
        <time>2012-07-21T06:06:43.1Z</time>
      </trkpt>
      <trkpt lat="45.37043" lon="5.81205">
        <ele>1938</ele>
        <time>2012-07-21T06:06:46.1Z</time>
      </trkpt>
      <trkpt lat="45.37043" lon="5.81205">
        <ele>1938</ele>
        <time>2012-07-21T06:06:48.1Z</time>
      </trkpt>
      <trkpt lat="45.37043" lon="5.81205">
        <ele>1938</ele>
        <time>2012-07-21T06:06:50.1Z</time>
      </trkpt>
      <trkpt lat="45.37043" lon="5.81207">
        <ele>1938</ele>
        <time>2012-07-21T06:06:52.1Z</time>
      </trkpt>
      <trkpt lat="45.37043" lon="5.81207">
        <ele>1938</ele>
        <time>2012-07-21T06:06:54.1Z</time>
      </trkpt>
      <trkpt lat="45.37044" lon="5.81207">
        <ele>1937</ele>
        <time>2012-07-21T06:06:56.1Z</time>
      </trkpt>
      <trkpt lat="45.37044" lon="5.81207">
        <ele>1937</ele>
        <time>2012-07-21T06:06:59.1Z</time>
      </trkpt>
      <trkpt lat="45.37044" lon="5.81207">
        <ele>1937</ele>
        <time>2012-07-21T06:07:01.1Z</time>
      </trkpt>
      <trkpt lat="45.37044" lon="5.81207">
        <ele>1937</ele>
        <time>2012-07-21T06:07:03.1Z</time>
      </trkpt>
      <trkpt lat="45.37044" lon="5.81207">
        <ele>1937</ele>
        <time>2012-07-21T06:07:05.1Z</time>
      </trkpt>
      <trkpt lat="45.37044" lon="5.81206">
        <ele>1937</ele>
        <time>2012-07-21T06:07:07.1Z</time>
      </trkpt>
      <trkpt lat="45.37044" lon="5.81207">
        <ele>1937</ele>
        <time>2012-07-21T06:07:09.1Z</time>
      </trkpt>
      <trkpt lat="45.37044" lon="5.81206">
        <ele>1938</ele>
        <time>2012-07-21T06:07:12.1Z</time>
      </trkpt>
      <trkpt lat="45.37044" lon="5.81206">
        <ele>1938</ele>
        <time>2012-07-21T06:07:14.1Z</time>
      </trkpt>
      <trkpt lat="45.37044" lon="5.81206">
        <ele>1938</ele>
        <time>2012-07-21T06:07:16.1Z</time>
      </trkpt>
      <trkpt lat="45.37044" lon="5.81206">
        <ele>1937</ele>
        <time>2012-07-21T06:07:18.1Z</time>
      </trkpt>
      <trkpt lat="45.37044" lon="5.81206">
        <ele>1938</ele>
        <time>2012-07-21T06:07:20.1Z</time>
      </trkpt>
      <trkpt lat="45.37044" lon="5.81205">
        <ele>1938</ele>
        <time>2012-07-21T06:07:23.1Z</time>
      </trkpt>
      <trkpt lat="45.37044" lon="5.81205">
        <ele>1938</ele>
        <time>2012-07-21T06:07:25.1Z</time>
      </trkpt>
      <trkpt lat="45.37044" lon="5.81205">
        <ele>1938</ele>
        <time>2012-07-21T06:07:27.1Z</time>
      </trkpt>
      <trkpt lat="45.37044" lon="5.81205">
        <ele>1939</ele>
        <time>2012-07-21T06:07:29.1Z</time>
      </trkpt>
      <trkpt lat="45.37044" lon="5.81205">
        <ele>1939</ele>
        <time>2012-07-21T06:07:31.1Z</time>
      </trkpt>
      <trkpt lat="45.37044" lon="5.81205">
        <ele>1939</ele>
        <time>2012-07-21T06:07:33.1Z</time>
      </trkpt>
      <trkpt lat="45.37044" lon="5.81204">
        <ele>1938</ele>
        <time>2012-07-21T06:07:36.1Z</time>
      </trkpt>
      <trkpt lat="45.37044" lon="5.81204">
        <ele>1937</ele>
        <time>2012-07-21T06:07:38.1Z</time>
      </trkpt>
      <trkpt lat="45.37044" lon="5.81204">
        <ele>1937</ele>
        <time>2012-07-21T06:07:40.1Z</time>
      </trkpt>
      <trkpt lat="45.37044" lon="5.81204">
        <ele>1938</ele>
        <time>2012-07-21T06:07:42.1Z</time>
      </trkpt>
      <trkpt lat="45.37044" lon="5.81204">
        <ele>1938</ele>
        <time>2012-07-21T06:07:44.1Z</time>
      </trkpt>
      <trkpt lat="45.37044" lon="5.81204">
        <ele>1938</ele>
        <time>2012-07-21T06:07:47.1Z</time>
      </trkpt>
      <trkpt lat="45.37044" lon="5.81204">
        <ele>1938</ele>
        <time>2012-07-21T06:07:49.1Z</time>
      </trkpt>
      <trkpt lat="45.37044" lon="5.81206">
        <ele>1938</ele>
        <time>2012-07-21T06:07:51.1Z</time>
      </trkpt>
      <trkpt lat="45.37046" lon="5.81209">
        <ele>1939</ele>
        <time>2012-07-21T06:07:53.1Z</time>
      </trkpt>
      <trkpt lat="45.37048" lon="5.81209">
        <ele>1938</ele>
        <time>2012-07-21T06:07:55.1Z</time>
      </trkpt>
      <trkpt lat="45.3705" lon="5.8121">
        <ele>1938</ele>
        <time>2012-07-21T06:07:57.1Z</time>
      </trkpt>
      <trkpt lat="45.37051" lon="5.8121">
        <ele>1938</ele>
        <time>2012-07-21T06:07:59.1Z</time>
      </trkpt>
      <trkpt lat="45.37051" lon="5.81211">
        <ele>1937</ele>
        <time>2012-07-21T06:08:01.1Z</time>
      </trkpt>
      <trkpt lat="45.3705" lon="5.8121">
        <ele>1936</ele>
        <time>2012-07-21T06:08:03.1Z</time>
      </trkpt>
      <trkpt lat="45.3705" lon="5.8121">
        <ele>1936</ele>
        <time>2012-07-21T06:08:05.1Z</time>
      </trkpt>
      <trkpt lat="45.37049" lon="5.8121">
        <ele>1936</ele>
        <time>2012-07-21T06:08:07.1Z</time>
      </trkpt>
      <trkpt lat="45.37049" lon="5.8121">
        <ele>1936</ele>
        <time>2012-07-21T06:08:09.1Z</time>
      </trkpt>
      <trkpt lat="45.37049" lon="5.8121">
        <ele>1936</ele>
        <time>2012-07-21T06:08:11.1Z</time>
      </trkpt>
      <trkpt lat="45.37049" lon="5.8121">
        <ele>1936</ele>
        <time>2012-07-21T06:08:13.1Z</time>
      </trkpt>
      <trkpt lat="45.37049" lon="5.8121">
        <ele>1936</ele>
        <time>2012-07-21T06:08:15.1Z</time>
      </trkpt>
      <trkpt lat="45.37049" lon="5.8121">
        <ele>1936</ele>
        <time>2012-07-21T06:08:17.1Z</time>
      </trkpt>
      <trkpt lat="45.37049" lon="5.81209">
        <ele>1936</ele>
        <time>2012-07-21T06:08:20.1Z</time>
      </trkpt>
      <trkpt lat="45.37049" lon="5.81209">
        <ele>1936</ele>
        <time>2012-07-21T06:08:22.1Z</time>
      </trkpt>
      <trkpt lat="45.37049" lon="5.81209">
        <ele>1936</ele>
        <time>2012-07-21T06:08:24.1Z</time>
      </trkpt>
      <trkpt lat="45.3705" lon="5.8121">
        <ele>1936</ele>
        <time>2012-07-21T06:08:26.1Z</time>
      </trkpt>
      <trkpt lat="45.3705" lon="5.8121">
        <ele>1936</ele>
        <time>2012-07-21T06:08:28.1Z</time>
      </trkpt>
      <trkpt lat="45.3705" lon="5.8121">
        <ele>1935</ele>
        <time>2012-07-21T06:08:30.1Z</time>
      </trkpt>
      <trkpt lat="45.3705" lon="5.8121">
        <ele>1935</ele>
        <time>2012-07-21T06:08:32.1Z</time>
      </trkpt>
      <trkpt lat="45.3705" lon="5.81211">
        <ele>1936</ele>
        <time>2012-07-21T06:08:34.1Z</time>
      </trkpt>
      <trkpt lat="45.3705" lon="5.8121">
        <ele>1936</ele>
        <time>2012-07-21T06:08:36.1Z</time>
      </trkpt>
      <trkpt lat="45.3705" lon="5.8121">
        <ele>1936</ele>
        <time>2012-07-21T06:08:38.1Z</time>
      </trkpt>
      <trkpt lat="45.3705" lon="5.81211">
        <ele>1936</ele>
        <time>2012-07-21T06:08:40.1Z</time>
      </trkpt>
      <trkpt lat="45.3705" lon="5.8121">
        <ele>1936</ele>
        <time>2012-07-21T06:08:42.1Z</time>
      </trkpt>
      <trkpt lat="45.3705" lon="5.8121">
        <ele>1936</ele>
        <time>2012-07-21T06:08:45.1Z</time>
      </trkpt>
      <trkpt lat="45.3705" lon="5.8121">
        <ele>1936</ele>
        <time>2012-07-21T06:08:47.1Z</time>
      </trkpt>
      <trkpt lat="45.3705" lon="5.8121">
        <ele>1936</ele>
        <time>2012-07-21T06:08:49.1Z</time>
      </trkpt>
      <trkpt lat="45.37051" lon="5.8121">
        <ele>1936</ele>
        <time>2012-07-21T06:08:51.1Z</time>
      </trkpt>
      <trkpt lat="45.3705" lon="5.81211">
        <ele>1936</ele>
        <time>2012-07-21T06:08:53.1Z</time>
      </trkpt>
      <trkpt lat="45.3705" lon="5.81212">
        <ele>1936</ele>
        <time>2012-07-21T06:08:55.1Z</time>
      </trkpt>
      <trkpt lat="45.3705" lon="5.81212">
        <ele>1935</ele>
        <time>2012-07-21T06:08:57.1Z</time>
      </trkpt>
      <trkpt lat="45.3705" lon="5.81212">
        <ele>1935</ele>
        <time>2012-07-21T06:08:59.1Z</time>
      </trkpt>
      <trkpt lat="45.3705" lon="5.81212">
        <ele>1935</ele>
        <time>2012-07-21T06:09:01.1Z</time>
      </trkpt>
      <trkpt lat="45.37049" lon="5.81211">
        <ele>1935</ele>
        <time>2012-07-21T06:09:03.1Z</time>
      </trkpt>
      <trkpt lat="45.37049" lon="5.81209">
        <ele>1936</ele>
        <time>2012-07-21T06:09:06.1Z</time>
      </trkpt>
      <trkpt lat="45.37048" lon="5.81209">
        <ele>1936</ele>
        <time>2012-07-21T06:09:08.1Z</time>
      </trkpt>
      <trkpt lat="45.37046" lon="5.81208">
        <ele>1937</ele>
        <time>2012-07-21T06:09:10.1Z</time>
      </trkpt>
      <trkpt lat="45.37045" lon="5.81208">
        <ele>1937</ele>
        <time>2012-07-21T06:09:12.1Z</time>
      </trkpt>
      <trkpt lat="45.37044" lon="5.81206">
        <ele>1937</ele>
        <time>2012-07-21T06:09:14.1Z</time>
      </trkpt>
      <trkpt lat="45.37043" lon="5.81205">
        <ele>1938</ele>
        <time>2012-07-21T06:09:16.1Z</time>
      </trkpt>
      <trkpt lat="45.37043" lon="5.81204">
        <ele>1938</ele>
        <time>2012-07-21T06:09:19.1Z</time>
      </trkpt>
      <trkpt lat="45.37043" lon="5.81204">
        <ele>1937</ele>
        <time>2012-07-21T06:09:21.1Z</time>
      </trkpt>
      <trkpt lat="45.37043" lon="5.81204">
        <ele>1937</ele>
        <time>2012-07-21T06:09:23.1Z</time>
      </trkpt>
      <trkpt lat="45.37043" lon="5.81204">
        <ele>1937</ele>
        <time>2012-07-21T06:09:25.1Z</time>
      </trkpt>
      <trkpt lat="45.37043" lon="5.81204">
        <ele>1937</ele>
        <time>2012-07-21T06:09:27.1Z</time>
      </trkpt>
      <trkpt lat="45.37043" lon="5.81205">
        <ele>1937</ele>
        <time>2012-07-21T06:09:29.1Z</time>
      </trkpt>
      <trkpt lat="45.37043" lon="5.81205">
        <ele>1938</ele>
        <time>2012-07-21T06:09:32.1Z</time>
      </trkpt>
      <trkpt lat="45.37044" lon="5.81205">
        <ele>1938</ele>
        <time>2012-07-21T06:09:34.1Z</time>
      </trkpt>
      <trkpt lat="45.37044" lon="5.81205">
        <ele>1938</ele>
        <time>2012-07-21T06:09:36.1Z</time>
      </trkpt>
      <trkpt lat="45.37043" lon="5.81202">
        <ele>1938</ele>
        <time>2012-07-21T06:09:38.1Z</time>
      </trkpt>
      <trkpt lat="45.37043" lon="5.81203">
        <ele>1938</ele>
        <time>2012-07-21T06:09:40.1Z</time>
      </trkpt>
      <trkpt lat="45.37044" lon="5.81204">
        <ele>1937</ele>
        <time>2012-07-21T06:09:42.1Z</time>
      </trkpt>
      <trkpt lat="45.37044" lon="5.81204">
        <ele>1937</ele>
        <time>2012-07-21T06:09:44.1Z</time>
      </trkpt>
      <trkpt lat="45.37043" lon="5.81204">
        <ele>1937</ele>
        <time>2012-07-21T06:09:47.1Z</time>
      </trkpt>
      <trkpt lat="45.37043" lon="5.81204">
        <ele>1937</ele>
        <time>2012-07-21T06:09:49.1Z</time>
      </trkpt>
      <trkpt lat="45.37044" lon="5.81205">
        <ele>1937</ele>
        <time>2012-07-21T06:09:51.1Z</time>
      </trkpt>
      <trkpt lat="45.37044" lon="5.81205">
        <ele>1937</ele>
        <time>2012-07-21T06:09:53.1Z</time>
      </trkpt>
      <trkpt lat="45.37044" lon="5.81205">
        <ele>1938</ele>
        <time>2012-07-21T06:09:55.1Z</time>
      </trkpt>
      <trkpt lat="45.37044" lon="5.81205">
        <ele>1938</ele>
        <time>2012-07-21T06:09:57.1Z</time>
      </trkpt>
      <trkpt lat="45.37044" lon="5.81205">
        <ele>1938</ele>
        <time>2012-07-21T06:10:00.1Z</time>
      </trkpt>
      <trkpt lat="45.37044" lon="5.81205">
        <ele>1938</ele>
        <time>2012-07-21T06:10:02.1Z</time>
      </trkpt>
      <trkpt lat="45.37044" lon="5.81206">
        <ele>1937</ele>
        <time>2012-07-21T06:10:04.1Z</time>
      </trkpt>
      <trkpt lat="45.37044" lon="5.81206">
        <ele>1937</ele>
        <time>2012-07-21T06:10:06.1Z</time>
      </trkpt>
      <trkpt lat="45.37046" lon="5.81208">
        <ele>1937</ele>
        <time>2012-07-21T06:10:08.1Z</time>
      </trkpt>
      <trkpt lat="45.37047" lon="5.81209">
        <ele>1938</ele>
        <time>2012-07-21T06:10:10.1Z</time>
      </trkpt>
      <trkpt lat="45.37049" lon="5.81208">
        <ele>1938</ele>
        <time>2012-07-21T06:10:13.1Z</time>
      </trkpt>
      <trkpt lat="45.3705" lon="5.81209">
        <ele>1938</ele>
        <time>2012-07-21T06:10:15.1Z</time>
      </trkpt>
      <trkpt lat="45.37051" lon="5.81209">
        <ele>1937</ele>
        <time>2012-07-21T06:10:17.1Z</time>
      </trkpt>
      <trkpt lat="45.37051" lon="5.81208">
        <ele>1936</ele>
        <time>2012-07-21T06:10:19.1Z</time>
      </trkpt>
      <trkpt lat="45.37053" lon="5.81208">
        <ele>1936</ele>
        <time>2012-07-21T06:10:21.1Z</time>
      </trkpt>
      <trkpt lat="45.37054" lon="5.81209">
        <ele>1936</ele>
        <time>2012-07-21T06:10:23.1Z</time>
      </trkpt>
      <trkpt lat="45.37054" lon="5.8121">
        <ele>1936</ele>
        <time>2012-07-21T06:10:26.1Z</time>
      </trkpt>
      <trkpt lat="45.37055" lon="5.81211">
        <ele>1935</ele>
        <time>2012-07-21T06:10:28.1Z</time>
      </trkpt>
      <trkpt lat="45.37055" lon="5.81212">
        <ele>1935</ele>
        <time>2012-07-21T06:10:30.1Z</time>
      </trkpt>
      <trkpt lat="45.37055" lon="5.81212">
        <ele>1935</ele>
        <time>2012-07-21T06:10:32.1Z</time>
      </trkpt>
      <trkpt lat="45.37055" lon="5.81212">
        <ele>1935</ele>
        <time>2012-07-21T06:10:34.1Z</time>
      </trkpt>
      <trkpt lat="45.37055" lon="5.81212">
        <ele>1935</ele>
        <time>2012-07-21T06:10:36.1Z</time>
      </trkpt>
      <trkpt lat="45.37055" lon="5.81212">
        <ele>1935</ele>
        <time>2012-07-21T06:10:38.1Z</time>
      </trkpt>
      <trkpt lat="45.37055" lon="5.81212">
        <ele>1935</ele>
        <time>2012-07-21T06:10:40.1Z</time>
      </trkpt>
      <trkpt lat="45.37055" lon="5.81212">
        <ele>1934</ele>
        <time>2012-07-21T06:10:42.1Z</time>
      </trkpt>
      <trkpt lat="45.37055" lon="5.81212">
        <ele>1934</ele>
        <time>2012-07-21T06:10:44.1Z</time>
      </trkpt>
      <trkpt lat="45.37055" lon="5.81212">
        <ele>1934</ele>
        <time>2012-07-21T06:10:46.1Z</time>
      </trkpt>
      <trkpt lat="45.37056" lon="5.81211">
        <ele>1934</ele>
        <time>2012-07-21T06:10:48.1Z</time>
      </trkpt>
      <trkpt lat="45.37056" lon="5.81212">
        <ele>1934</ele>
        <time>2012-07-21T06:10:50.1Z</time>
      </trkpt>
      <trkpt lat="45.37056" lon="5.81212">
        <ele>1934</ele>
        <time>2012-07-21T06:10:53.1Z</time>
      </trkpt>
      <trkpt lat="45.37057" lon="5.81212">
        <ele>1934</ele>
        <time>2012-07-21T06:10:55.1Z</time>
      </trkpt>
      <trkpt lat="45.37056" lon="5.81212">
        <ele>1934</ele>
        <time>2012-07-21T06:10:57.1Z</time>
      </trkpt>
      <trkpt lat="45.37057" lon="5.81214">
        <ele>1934</ele>
        <time>2012-07-21T06:10:59.1Z</time>
      </trkpt>
      <trkpt lat="45.37057" lon="5.81213">
        <ele>1934</ele>
        <time>2012-07-21T06:11:01.1Z</time>
      </trkpt>
      <trkpt lat="45.37057" lon="5.81213">
        <ele>1935</ele>
        <time>2012-07-21T06:11:03.1Z</time>
      </trkpt>
      <trkpt lat="45.37057" lon="5.81213">
        <ele>1935</ele>
        <time>2012-07-21T06:11:05.1Z</time>
      </trkpt>
      <trkpt lat="45.37057" lon="5.81213">
        <ele>1935</ele>
        <time>2012-07-21T06:11:07.1Z</time>
      </trkpt>
      <trkpt lat="45.37057" lon="5.81213">
        <ele>1935</ele>
        <time>2012-07-21T06:11:09.1Z</time>
      </trkpt>
      <trkpt lat="45.37057" lon="5.81213">
        <ele>1935</ele>
        <time>2012-07-21T06:11:11.1Z</time>
      </trkpt>
      <trkpt lat="45.37057" lon="5.81212">
        <ele>1935</ele>
        <time>2012-07-21T06:11:14.1Z</time>
      </trkpt>
      <trkpt lat="45.37057" lon="5.81212">
        <ele>1935</ele>
        <time>2012-07-21T06:11:16.1Z</time>
      </trkpt>
      <trkpt lat="45.37058" lon="5.81212">
        <ele>1934</ele>
        <time>2012-07-21T06:11:18.1Z</time>
      </trkpt>
      <trkpt lat="45.37059" lon="5.8121">
        <ele>1934</ele>
        <time>2012-07-21T06:11:20.1Z</time>
      </trkpt>
      <trkpt lat="45.3706" lon="5.81209">
        <ele>1934</ele>
        <time>2012-07-21T06:11:22.1Z</time>
      </trkpt>
      <trkpt lat="45.37061" lon="5.81208">
        <ele>1934</ele>
        <time>2012-07-21T06:11:24.1Z</time>
      </trkpt>
      <trkpt lat="45.37063" lon="5.81207">
        <ele>1933</ele>
        <time>2012-07-21T06:11:26.1Z</time>
      </trkpt>
      <trkpt lat="45.37064" lon="5.81207">
        <ele>1933</ele>
        <time>2012-07-21T06:11:28.1Z</time>
      </trkpt>
      <trkpt lat="45.37067" lon="5.81206">
        <ele>1933</ele>
        <time>2012-07-21T06:11:30.1Z</time>
      </trkpt>
      <trkpt lat="45.37069" lon="5.81206">
        <ele>1933</ele>
        <time>2012-07-21T06:11:32.1Z</time>
      </trkpt>
      <trkpt lat="45.3707" lon="5.81207">
        <ele>1933</ele>
        <time>2012-07-21T06:11:34.1Z</time>
      </trkpt>
      <trkpt lat="45.37073" lon="5.81207">
        <ele>1933</ele>
        <time>2012-07-21T06:11:36.1Z</time>
      </trkpt>
      <trkpt lat="45.37075" lon="5.81207">
        <ele>1933</ele>
        <time>2012-07-21T06:11:39.1Z</time>
      </trkpt>
      <trkpt lat="45.37077" lon="5.81207">
        <ele>1933</ele>
        <time>2012-07-21T06:11:41.1Z</time>
      </trkpt>
      <trkpt lat="45.37079" lon="5.81207">
        <ele>1933</ele>
        <time>2012-07-21T06:11:43.1Z</time>
      </trkpt>
      <trkpt lat="45.3708" lon="5.81207">
        <ele>1933</ele>
        <time>2012-07-21T06:11:45.1Z</time>
      </trkpt>
      <trkpt lat="45.3708" lon="5.81207">
        <ele>1933</ele>
        <time>2012-07-21T06:11:47.1Z</time>
      </trkpt>
      <trkpt lat="45.37082" lon="5.81207">
        <ele>1933</ele>
        <time>2012-07-21T06:11:49.1Z</time>
      </trkpt>
      <trkpt lat="45.37084" lon="5.81206">
        <ele>1933</ele>
        <time>2012-07-21T06:11:51.1Z</time>
      </trkpt>
      <trkpt lat="45.37086" lon="5.81204">
        <ele>1932</ele>
        <time>2012-07-21T06:11:53.1Z</time>
      </trkpt>
      <trkpt lat="45.37088" lon="5.81204">
        <ele>1932</ele>
        <time>2012-07-21T06:11:55.1Z</time>
      </trkpt>
      <trkpt lat="45.3709" lon="5.81204">
        <ele>1931</ele>
        <time>2012-07-21T06:11:57.1Z</time>
      </trkpt>
      <trkpt lat="45.37092" lon="5.81204">
        <ele>1931</ele>
        <time>2012-07-21T06:11:59.1Z</time>
      </trkpt>
      <trkpt lat="45.37094" lon="5.81204">
        <ele>1931</ele>
        <time>2012-07-21T06:12:01.1Z</time>
      </trkpt>
      <trkpt lat="45.37096" lon="5.81203">
        <ele>1931</ele>
        <time>2012-07-21T06:12:03.1Z</time>
      </trkpt>
      <trkpt lat="45.37099" lon="5.81203">
        <ele>1931</ele>
        <time>2012-07-21T06:12:05.1Z</time>
      </trkpt>
      <trkpt lat="45.37102" lon="5.81202">
        <ele>1930</ele>
        <time>2012-07-21T06:12:08.1Z</time>
      </trkpt>
      <trkpt lat="45.37105" lon="5.81201">
        <ele>1929</ele>
        <time>2012-07-21T06:12:10.1Z</time>
      </trkpt>
      <trkpt lat="45.37109" lon="5.81201">
        <ele>1929</ele>
        <time>2012-07-21T06:12:12.1Z</time>
      </trkpt>
      <trkpt lat="45.37112" lon="5.81202">
        <ele>1928</ele>
        <time>2012-07-21T06:12:14.1Z</time>
      </trkpt>
      <trkpt lat="45.37116" lon="5.812">
        <ele>1928</ele>
        <time>2012-07-21T06:12:16.1Z</time>
      </trkpt>
      <trkpt lat="45.37121" lon="5.81199">
        <ele>1927</ele>
        <time>2012-07-21T06:12:18.1Z</time>
      </trkpt>
      <trkpt lat="45.37125" lon="5.81204">
        <ele>1927</ele>
        <time>2012-07-21T06:12:20.1Z</time>
      </trkpt>
      <trkpt lat="45.37125" lon="5.81208">
        <ele>1927</ele>
        <time>2012-07-21T06:12:22.1Z</time>
      </trkpt>
      <trkpt lat="45.37128" lon="5.81213">
        <ele>1926</ele>
        <time>2012-07-21T06:12:24.1Z</time>
      </trkpt>
      <trkpt lat="45.3713" lon="5.8122">
        <ele>1926</ele>
        <time>2012-07-21T06:12:27.1Z</time>
      </trkpt>
      <trkpt lat="45.37132" lon="5.81226">
        <ele>1925</ele>
        <time>2012-07-21T06:12:29.1Z</time>
      </trkpt>
      <trkpt lat="45.37138" lon="5.81229">
        <ele>1925</ele>
        <time>2012-07-21T06:12:31.1Z</time>
      </trkpt>
      <trkpt lat="45.37147" lon="5.81229">
        <ele>1926</ele>
        <time>2012-07-21T06:12:33.1Z</time>
      </trkpt>
      <trkpt lat="45.37153" lon="5.8123">
        <ele>1925</ele>
        <time>2012-07-21T06:12:35.1Z</time>
      </trkpt>
      <trkpt lat="45.37159" lon="5.81233">
        <ele>1924</ele>
        <time>2012-07-21T06:12:37.1Z</time>
      </trkpt>
      <trkpt lat="45.37165" lon="5.81235">
        <ele>1923</ele>
        <time>2012-07-21T06:12:39.1Z</time>
      </trkpt>
      <trkpt lat="45.3717" lon="5.81239">
        <ele>1922</ele>
        <time>2012-07-21T06:12:41.1Z</time>
      </trkpt>
      <trkpt lat="45.37175" lon="5.81243">
        <ele>1921</ele>
        <time>2012-07-21T06:12:43.1Z</time>
      </trkpt>
      <trkpt lat="45.37179" lon="5.81246">
        <ele>1920</ele>
        <time>2012-07-21T06:12:46.1Z</time>
      </trkpt>
      <trkpt lat="45.37182" lon="5.81251">
        <ele>1919</ele>
        <time>2012-07-21T06:12:48.1Z</time>
      </trkpt>
      <trkpt lat="45.37188" lon="5.81255">
        <ele>1918</ele>
        <time>2012-07-21T06:12:50.1Z</time>
      </trkpt>
      <trkpt lat="45.37193" lon="5.81258">
        <ele>1917</ele>
        <time>2012-07-21T06:12:52.1Z</time>
      </trkpt>
      <trkpt lat="45.37196" lon="5.81262">
        <ele>1916</ele>
        <time>2012-07-21T06:12:54.1Z</time>
      </trkpt>
      <trkpt lat="45.37198" lon="5.81266">
        <ele>1914</ele>
        <time>2012-07-21T06:12:56.1Z</time>
      </trkpt>
      <trkpt lat="45.37199" lon="5.81271">
        <ele>1913</ele>
        <time>2012-07-21T06:12:58.1Z</time>
      </trkpt>
      <trkpt lat="45.37201" lon="5.81274">
        <ele>1912</ele>
        <time>2012-07-21T06:13:00.1Z</time>
      </trkpt>
      <trkpt lat="45.37204" lon="5.81276">
        <ele>1910</ele>
        <time>2012-07-21T06:13:03.1Z</time>
      </trkpt>
      <trkpt lat="45.37208" lon="5.81278">
        <ele>1909</ele>
        <time>2012-07-21T06:13:05.1Z</time>
      </trkpt>
      <trkpt lat="45.37213" lon="5.81281">
        <ele>1908</ele>
        <time>2012-07-21T06:13:07.1Z</time>
      </trkpt>
      <trkpt lat="45.3722" lon="5.81284">
        <ele>1907</ele>
        <time>2012-07-21T06:13:09.1Z</time>
      </trkpt>
      <trkpt lat="45.37224" lon="5.81286">
        <ele>1906</ele>
        <time>2012-07-21T06:13:11.1Z</time>
      </trkpt>
      <trkpt lat="45.37228" lon="5.81289">
        <ele>1905</ele>
        <time>2012-07-21T06:13:13.1Z</time>
      </trkpt>
      <trkpt lat="45.37233" lon="5.8129">
        <ele>1904</ele>
        <time>2012-07-21T06:13:15.1Z</time>
      </trkpt>
      <trkpt lat="45.37236" lon="5.81295">
        <ele>1903</ele>
        <time>2012-07-21T06:13:17.1Z</time>
      </trkpt>
      <trkpt lat="45.37239" lon="5.81299">
        <ele>1902</ele>
        <time>2012-07-21T06:13:19.1Z</time>
      </trkpt>
      <trkpt lat="45.37243" lon="5.81301">
        <ele>1901</ele>
        <time>2012-07-21T06:13:21.1Z</time>
      </trkpt>
      <trkpt lat="45.37245" lon="5.81305">
        <ele>1900</ele>
        <time>2012-07-21T06:13:23.1Z</time>
      </trkpt>
      <trkpt lat="45.37248" lon="5.81308">
        <ele>1899</ele>
        <time>2012-07-21T06:13:25.1Z</time>
      </trkpt>
      <trkpt lat="45.37252" lon="5.8131">
        <ele>1898</ele>
        <time>2012-07-21T06:13:27.1Z</time>
      </trkpt>
      <trkpt lat="45.37256" lon="5.81313">
        <ele>1897</ele>
        <time>2012-07-21T06:13:29.1Z</time>
      </trkpt>
      <trkpt lat="45.3726" lon="5.81316">
        <ele>1896</ele>
        <time>2012-07-21T06:13:32.1Z</time>
      </trkpt>
      <trkpt lat="45.37265" lon="5.81318">
        <ele>1894</ele>
        <time>2012-07-21T06:13:34.1Z</time>
      </trkpt>
      <trkpt lat="45.37268" lon="5.81321">
        <ele>1892</ele>
        <time>2012-07-21T06:13:36.1Z</time>
      </trkpt>
      <trkpt lat="45.3727" lon="5.81325">
        <ele>1891</ele>
        <time>2012-07-21T06:13:38.1Z</time>
      </trkpt>
      <trkpt lat="45.37271" lon="5.81327">
        <ele>1888</ele>
        <time>2012-07-21T06:13:40.1Z</time>
      </trkpt>
      <trkpt lat="45.37275" lon="5.81331">
        <ele>1887</ele>
        <time>2012-07-21T06:13:42.1Z</time>
      </trkpt>
      <trkpt lat="45.37275" lon="5.81332">
        <ele>1885</ele>
        <time>2012-07-21T06:13:44.1Z</time>
      </trkpt>
      <trkpt lat="45.37278" lon="5.81333">
        <ele>1884</ele>
        <time>2012-07-21T06:13:46.1Z</time>
      </trkpt>
      <trkpt lat="45.37282" lon="5.81334">
        <ele>1884</ele>
        <time>2012-07-21T06:13:48.1Z</time>
      </trkpt>
      <trkpt lat="45.37284" lon="5.81333">
        <ele>1883</ele>
        <time>2012-07-21T06:13:50.1Z</time>
      </trkpt>
      <trkpt lat="45.37287" lon="5.81332">
        <ele>1882</ele>
        <time>2012-07-21T06:13:52.1Z</time>
      </trkpt>
      <trkpt lat="45.37289" lon="5.81332">
        <ele>1881</ele>
        <time>2012-07-21T06:13:54.1Z</time>
      </trkpt>
      <trkpt lat="45.37292" lon="5.81333">
        <ele>1880</ele>
        <time>2012-07-21T06:13:57.1Z</time>
      </trkpt>
      <trkpt lat="45.37296" lon="5.81334">
        <ele>1880</ele>
        <time>2012-07-21T06:13:59.1Z</time>
      </trkpt>
      <trkpt lat="45.37299" lon="5.81335">
        <ele>1879</ele>
        <time>2012-07-21T06:14:01.1Z</time>
      </trkpt>
      <trkpt lat="45.37302" lon="5.81339">
        <ele>1878</ele>
        <time>2012-07-21T06:14:03.1Z</time>
      </trkpt>
      <trkpt lat="45.37303" lon="5.81339">
        <ele>1877</ele>
        <time>2012-07-21T06:14:05.1Z</time>
      </trkpt>
      <trkpt lat="45.37307" lon="5.81339">
        <ele>1876</ele>
        <time>2012-07-21T06:14:07.1Z</time>
      </trkpt>
      <trkpt lat="45.37312" lon="5.81337">
        <ele>1875</ele>
        <time>2012-07-21T06:14:09.1Z</time>
      </trkpt>
      <trkpt lat="45.37317" lon="5.81335">
        <ele>1874</ele>
        <time>2012-07-21T06:14:11.1Z</time>
      </trkpt>
      <trkpt lat="45.37321" lon="5.81332">
        <ele>1874</ele>
        <time>2012-07-21T06:14:13.1Z</time>
      </trkpt>
      <trkpt lat="45.37325" lon="5.81331">
        <ele>1874</ele>
        <time>2012-07-21T06:14:16.1Z</time>
      </trkpt>
      <trkpt lat="45.37331" lon="5.81331">
        <ele>1874</ele>
        <time>2012-07-21T06:14:18.1Z</time>
      </trkpt>
      <trkpt lat="45.37336" lon="5.8133">
        <ele>1874</ele>
        <time>2012-07-21T06:14:20.1Z</time>
      </trkpt>
      <trkpt lat="45.37343" lon="5.81327">
        <ele>1873</ele>
        <time>2012-07-21T06:14:22.1Z</time>
      </trkpt>
      <trkpt lat="45.37348" lon="5.81328">
        <ele>1873</ele>
        <time>2012-07-21T06:14:24.1Z</time>
      </trkpt>
      <trkpt lat="45.37353" lon="5.81329">
        <ele>1873</ele>
        <time>2012-07-21T06:14:26.1Z</time>
      </trkpt>
      <trkpt lat="45.37358" lon="5.8133">
        <ele>1873</ele>
        <time>2012-07-21T06:14:28.1Z</time>
      </trkpt>
      <trkpt lat="45.37363" lon="5.81329">
        <ele>1873</ele>
        <time>2012-07-21T06:14:30.1Z</time>
      </trkpt>
      <trkpt lat="45.37368" lon="5.81329">
        <ele>1873</ele>
        <time>2012-07-21T06:14:32.1Z</time>
      </trkpt>
      <trkpt lat="45.37373" lon="5.81328">
        <ele>1873</ele>
        <time>2012-07-21T06:14:35.1Z</time>
      </trkpt>
      <trkpt lat="45.37378" lon="5.81328">
        <ele>1873</ele>
        <time>2012-07-21T06:14:37.1Z</time>
      </trkpt>
      <trkpt lat="45.37386" lon="5.81327">
        <ele>1872</ele>
        <time>2012-07-21T06:14:39.1Z</time>
      </trkpt>
      <trkpt lat="45.37391" lon="5.81327">
        <ele>1872</ele>
        <time>2012-07-21T06:14:41.1Z</time>
      </trkpt>
      <trkpt lat="45.37397" lon="5.81328">
        <ele>1872</ele>
        <time>2012-07-21T06:14:43.1Z</time>
      </trkpt>
      <trkpt lat="45.37402" lon="5.81328">
        <ele>1871</ele>
        <time>2012-07-21T06:14:45.1Z</time>
      </trkpt>
      <trkpt lat="45.37407" lon="5.81327">
        <ele>1871</ele>
        <time>2012-07-21T06:14:47.1Z</time>
      </trkpt>
      <trkpt lat="45.37412" lon="5.81326">
        <ele>1871</ele>
        <time>2012-07-21T06:14:49.1Z</time>
      </trkpt>
      <trkpt lat="45.37417" lon="5.81325">
        <ele>1870</ele>
        <time>2012-07-21T06:14:51.1Z</time>
      </trkpt>
      <trkpt lat="45.37423" lon="5.81325">
        <ele>1870</ele>
        <time>2012-07-21T06:14:53.1Z</time>
      </trkpt>
      <trkpt lat="45.37428" lon="5.81324">
        <ele>1870</ele>
        <time>2012-07-21T06:14:56.1Z</time>
      </trkpt>
      <trkpt lat="45.37433" lon="5.81324">
        <ele>1869</ele>
        <time>2012-07-21T06:14:58.1Z</time>
      </trkpt>
      <trkpt lat="45.37439" lon="5.81323">
        <ele>1869</ele>
        <time>2012-07-21T06:15:00.1Z</time>
      </trkpt>
      <trkpt lat="45.37445" lon="5.81321">
        <ele>1869</ele>
        <time>2012-07-21T06:15:02.1Z</time>
      </trkpt>
      <trkpt lat="45.37449" lon="5.81319">
        <ele>1869</ele>
        <time>2012-07-21T06:15:04.1Z</time>
      </trkpt>
      <trkpt lat="45.37454" lon="5.8132">
        <ele>1869</ele>
        <time>2012-07-21T06:15:06.1Z</time>
      </trkpt>
      <trkpt lat="45.37458" lon="5.8132">
        <ele>1868</ele>
        <time>2012-07-21T06:15:08.1Z</time>
      </trkpt>
      <trkpt lat="45.3746" lon="5.8132">
        <ele>1868</ele>
        <time>2012-07-21T06:15:11.1Z</time>
      </trkpt>
      <trkpt lat="45.37462" lon="5.8132">
        <ele>1868</ele>
        <time>2012-07-21T06:15:13.1Z</time>
      </trkpt>
      <trkpt lat="45.37463" lon="5.8132">
        <ele>1868</ele>
        <time>2012-07-21T06:15:15.1Z</time>
      </trkpt>
      <trkpt lat="45.37462" lon="5.8132">
        <ele>1868</ele>
        <time>2012-07-21T06:15:17.1Z</time>
      </trkpt>
      <trkpt lat="45.37462" lon="5.81319">
        <ele>1868</ele>
        <time>2012-07-21T06:15:19.1Z</time>
      </trkpt>
      <trkpt lat="45.37464" lon="5.81319">
        <ele>1868</ele>
        <time>2012-07-21T06:15:21.1Z</time>
      </trkpt>
      <trkpt lat="45.37465" lon="5.81319">
        <ele>1867</ele>
        <time>2012-07-21T06:15:23.1Z</time>
      </trkpt>
      <trkpt lat="45.37466" lon="5.81319">
        <ele>1867</ele>
        <time>2012-07-21T06:15:25.1Z</time>
      </trkpt>
      <trkpt lat="45.37468" lon="5.8132">
        <ele>1866</ele>
        <time>2012-07-21T06:15:27.1Z</time>
      </trkpt>
      <trkpt lat="45.37467" lon="5.81321">
        <ele>1866</ele>
        <time>2012-07-21T06:15:29.1Z</time>
      </trkpt>
      <trkpt lat="45.37465" lon="5.81321">
        <ele>1866</ele>
        <time>2012-07-21T06:15:32.1Z</time>
      </trkpt>
      <trkpt lat="45.37463" lon="5.8132">
        <ele>1866</ele>
        <time>2012-07-21T06:15:34.1Z</time>
      </trkpt>
      <trkpt lat="45.37461" lon="5.81318">
        <ele>1866</ele>
        <time>2012-07-21T06:15:36.1Z</time>
      </trkpt>
      <trkpt lat="45.37459" lon="5.81319">
        <ele>1866</ele>
        <time>2012-07-21T06:15:38.1Z</time>
      </trkpt>
      <trkpt lat="45.37458" lon="5.81319">
        <ele>1866</ele>
        <time>2012-07-21T06:15:40.1Z</time>
      </trkpt>
      <trkpt lat="45.37456" lon="5.81319">
        <ele>1866</ele>
        <time>2012-07-21T06:15:42.1Z</time>
      </trkpt>
      <trkpt lat="45.37455" lon="5.8132">
        <ele>1867</ele>
        <time>2012-07-21T06:15:44.1Z</time>
      </trkpt>
      <trkpt lat="45.37453" lon="5.8132">
        <ele>1867</ele>
        <time>2012-07-21T06:15:46.1Z</time>
      </trkpt>
      <trkpt lat="45.37452" lon="5.8132">
        <ele>1867</ele>
        <time>2012-07-21T06:15:48.1Z</time>
      </trkpt>
      <trkpt lat="45.3745" lon="5.8132">
        <ele>1868</ele>
        <time>2012-07-21T06:15:50.1Z</time>
      </trkpt>
      <trkpt lat="45.37449" lon="5.8132">
        <ele>1868</ele>
        <time>2012-07-21T06:15:53.1Z</time>
      </trkpt>
      <trkpt lat="45.37448" lon="5.8132">
        <ele>1867</ele>
        <time>2012-07-21T06:15:55.1Z</time>
      </trkpt>
      <trkpt lat="45.37445" lon="5.81319">
        <ele>1867</ele>
        <time>2012-07-21T06:15:57.1Z</time>
      </trkpt>
      <trkpt lat="45.37444" lon="5.81319">
        <ele>1867</ele>
        <time>2012-07-21T06:15:59.1Z</time>
      </trkpt>
      <trkpt lat="45.37442" lon="5.81319">
        <ele>1868</ele>
        <time>2012-07-21T06:16:01.1Z</time>
      </trkpt>
      <trkpt lat="45.37441" lon="5.8132">
        <ele>1868</ele>
        <time>2012-07-21T06:16:03.1Z</time>
      </trkpt>
      <trkpt lat="45.3744" lon="5.81321">
        <ele>1867</ele>
        <time>2012-07-21T06:16:05.1Z</time>
      </trkpt>
      <trkpt lat="45.37439" lon="5.81321">
        <ele>1868</ele>
        <time>2012-07-21T06:16:07.1Z</time>
      </trkpt>
      <trkpt lat="45.37438" lon="5.81321">
        <ele>1868</ele>
        <time>2012-07-21T06:16:09.1Z</time>
      </trkpt>
      <trkpt lat="45.37437" lon="5.81321">
        <ele>1868</ele>
        <time>2012-07-21T06:16:12.1Z</time>
      </trkpt>
      <trkpt lat="45.37437" lon="5.81322">
        <ele>1868</ele>
        <time>2012-07-21T06:16:14.1Z</time>
      </trkpt>
      <trkpt lat="45.37436" lon="5.81323">
        <ele>1868</ele>
        <time>2012-07-21T06:16:16.1Z</time>
      </trkpt>
      <trkpt lat="45.37434" lon="5.81323">
        <ele>1868</ele>
        <time>2012-07-21T06:16:18.1Z</time>
      </trkpt>
      <trkpt lat="45.37433" lon="5.81323">
        <ele>1868</ele>
        <time>2012-07-21T06:16:20.1Z</time>
      </trkpt>
      <trkpt lat="45.37432" lon="5.81323">
        <ele>1869</ele>
        <time>2012-07-21T06:16:22.1Z</time>
      </trkpt>
      <trkpt lat="45.37432" lon="5.81323">
        <ele>1869</ele>
        <time>2012-07-21T06:16:24.1Z</time>
      </trkpt>
      <trkpt lat="45.37432" lon="5.81322">
        <ele>1869</ele>
        <time>2012-07-21T06:16:26.1Z</time>
      </trkpt>
      <trkpt lat="45.37433" lon="5.81323">
        <ele>1869</ele>
        <time>2012-07-21T06:16:29.1Z</time>
      </trkpt>
      <trkpt lat="45.37434" lon="5.81324">
        <ele>1869</ele>
        <time>2012-07-21T06:16:31.1Z</time>
      </trkpt>
      <trkpt lat="45.37435" lon="5.81324">
        <ele>1869</ele>
        <time>2012-07-21T06:16:33.1Z</time>
      </trkpt>
      <trkpt lat="45.37435" lon="5.81324">
        <ele>1869</ele>
        <time>2012-07-21T06:16:35.1Z</time>
      </trkpt>
      <trkpt lat="45.37435" lon="5.81323">
        <ele>1869</ele>
        <time>2012-07-21T06:16:37.1Z</time>
      </trkpt>
      <trkpt lat="45.37436" lon="5.81323">
        <ele>1869</ele>
        <time>2012-07-21T06:16:39.1Z</time>
      </trkpt>
      <trkpt lat="45.37438" lon="5.81322">
        <ele>1869</ele>
        <time>2012-07-21T06:16:41.1Z</time>
      </trkpt>
      <trkpt lat="45.37439" lon="5.81321">
        <ele>1869</ele>
        <time>2012-07-21T06:16:43.1Z</time>
      </trkpt>
      <trkpt lat="45.3744" lon="5.8132">
        <ele>1869</ele>
        <time>2012-07-21T06:16:46.1Z</time>
      </trkpt>
      <trkpt lat="45.3744" lon="5.8132">
        <ele>1869</ele>
        <time>2012-07-21T06:16:48.1Z</time>
      </trkpt>
      <trkpt lat="45.37441" lon="5.81319">
        <ele>1869</ele>
        <time>2012-07-21T06:16:50.1Z</time>
      </trkpt>
      <trkpt lat="45.37443" lon="5.81319">
        <ele>1868</ele>
        <time>2012-07-21T06:16:52.1Z</time>
      </trkpt>
      <trkpt lat="45.37445" lon="5.81319">
        <ele>1868</ele>
        <time>2012-07-21T06:16:54.1Z</time>
      </trkpt>
      <trkpt lat="45.37445" lon="5.81319">
        <ele>1868</ele>
        <time>2012-07-21T06:16:56.1Z</time>
      </trkpt>
      <trkpt lat="45.37447" lon="5.81319">
        <ele>1867</ele>
        <time>2012-07-21T06:16:58.1Z</time>
      </trkpt>
      <trkpt lat="45.37448" lon="5.81319">
        <ele>1867</ele>
        <time>2012-07-21T06:17:00.1Z</time>
      </trkpt>
      <trkpt lat="45.3745" lon="5.81319">
        <ele>1867</ele>
        <time>2012-07-21T06:17:02.1Z</time>
      </trkpt>
      <trkpt lat="45.37451" lon="5.8132">
        <ele>1867</ele>
        <time>2012-07-21T06:17:05.1Z</time>
      </trkpt>
      <trkpt lat="45.37452" lon="5.8132">
        <ele>1868</ele>
        <time>2012-07-21T06:17:07.1Z</time>
      </trkpt>
      <trkpt lat="45.37453" lon="5.8132">
        <ele>1867</ele>
        <time>2012-07-21T06:17:09.1Z</time>
      </trkpt>
      <trkpt lat="45.37455" lon="5.8132">
        <ele>1867</ele>
        <time>2012-07-21T06:17:11.1Z</time>
      </trkpt>
      <trkpt lat="45.37455" lon="5.81321">
        <ele>1867</ele>
        <time>2012-07-21T06:17:13.1Z</time>
      </trkpt>
      <trkpt lat="45.37455" lon="5.81321">
        <ele>1867</ele>
        <time>2012-07-21T06:17:15.1Z</time>
      </trkpt>
      <trkpt lat="45.37455" lon="5.81321">
        <ele>1867</ele>
        <time>2012-07-21T06:17:17.1Z</time>
      </trkpt>
      <trkpt lat="45.37455" lon="5.81321">
        <ele>1867</ele>
        <time>2012-07-21T06:17:19.1Z</time>
      </trkpt>
      <trkpt lat="45.37454" lon="5.81321">
        <ele>1867</ele>
        <time>2012-07-21T06:17:21.1Z</time>
      </trkpt>
      <trkpt lat="45.37453" lon="5.81321">
        <ele>1868</ele>
        <time>2012-07-21T06:17:23.1Z</time>
      </trkpt>
      <trkpt lat="45.37452" lon="5.81322">
        <ele>1867</ele>
        <time>2012-07-21T06:17:25.1Z</time>
      </trkpt>
      <trkpt lat="45.3745" lon="5.81323">
        <ele>1867</ele>
        <time>2012-07-21T06:17:27.1Z</time>
      </trkpt>
      <trkpt lat="45.37448" lon="5.81323">
        <ele>1868</ele>
        <time>2012-07-21T06:17:29.1Z</time>
      </trkpt>
      <trkpt lat="45.37447" lon="5.81323">
        <ele>1868</ele>
        <time>2012-07-21T06:17:32.1Z</time>
      </trkpt>
      <trkpt lat="45.37444" lon="5.81322">
        <ele>1868</ele>
        <time>2012-07-21T06:17:34.1Z</time>
      </trkpt>
      <trkpt lat="45.37442" lon="5.81322">
        <ele>1869</ele>
        <time>2012-07-21T06:17:36.1Z</time>
      </trkpt>
      <trkpt lat="45.3744" lon="5.81323">
        <ele>1869</ele>
        <time>2012-07-21T06:17:38.1Z</time>
      </trkpt>
      <trkpt lat="45.37438" lon="5.81323">
        <ele>1869</ele>
        <time>2012-07-21T06:17:40.1Z</time>
      </trkpt>
      <trkpt lat="45.37437" lon="5.81324">
        <ele>1869</ele>
        <time>2012-07-21T06:17:42.1Z</time>
      </trkpt>
      <trkpt lat="45.37436" lon="5.81325">
        <ele>1868</ele>
        <time>2012-07-21T06:17:44.1Z</time>
      </trkpt>
      <trkpt lat="45.37434" lon="5.81325">
        <ele>1868</ele>
        <time>2012-07-21T06:17:46.1Z</time>
      </trkpt>
      <trkpt lat="45.37433" lon="5.81325">
        <ele>1869</ele>
        <time>2012-07-21T06:17:48.1Z</time>
      </trkpt>
      <trkpt lat="45.37431" lon="5.81325">
        <ele>1869</ele>
        <time>2012-07-21T06:17:50.1Z</time>
      </trkpt>
      <trkpt lat="45.37429" lon="5.81325">
        <ele>1869</ele>
        <time>2012-07-21T06:17:52.1Z</time>
      </trkpt>
      <trkpt lat="45.37429" lon="5.81325">
        <ele>1870</ele>
        <time>2012-07-21T06:17:55.1Z</time>
      </trkpt>
      <trkpt lat="45.37428" lon="5.81325">
        <ele>1870</ele>
        <time>2012-07-21T06:17:57.1Z</time>
      </trkpt>
      <trkpt lat="45.37427" lon="5.81326">
        <ele>1869</ele>
        <time>2012-07-21T06:17:59.1Z</time>
      </trkpt>
      <trkpt lat="45.37425" lon="5.81326">
        <ele>1870</ele>
        <time>2012-07-21T06:18:01.1Z</time>
      </trkpt>
      <trkpt lat="45.37423" lon="5.81326">
        <ele>1870</ele>
        <time>2012-07-21T06:18:03.1Z</time>
      </trkpt>
      <trkpt lat="45.37421" lon="5.81327">
        <ele>1870</ele>
        <time>2012-07-21T06:18:05.1Z</time>
      </trkpt>
      <trkpt lat="45.3742" lon="5.81328">
        <ele>1870</ele>
        <time>2012-07-21T06:18:07.1Z</time>
      </trkpt>
      <trkpt lat="45.37418" lon="5.81327">
        <ele>1871</ele>
        <time>2012-07-21T06:18:09.1Z</time>
      </trkpt>
      <trkpt lat="45.37417" lon="5.81327">
        <ele>1870</ele>
        <time>2012-07-21T06:18:11.1Z</time>
      </trkpt>
      <trkpt lat="45.37417" lon="5.81327">
        <ele>1871</ele>
        <time>2012-07-21T06:18:13.1Z</time>
      </trkpt>
      <trkpt lat="45.37416" lon="5.81326">
        <ele>1870</ele>
        <time>2012-07-21T06:18:15.1Z</time>
      </trkpt>
      <trkpt lat="45.37415" lon="5.81326">
        <ele>1870</ele>
        <time>2012-07-21T06:18:17.1Z</time>
      </trkpt>
      <trkpt lat="45.37415" lon="5.81326">
        <ele>1870</ele>
        <time>2012-07-21T06:18:19.1Z</time>
      </trkpt>
      <trkpt lat="45.37413" lon="5.81326">
        <ele>1870</ele>
        <time>2012-07-21T06:18:21.1Z</time>
      </trkpt>
      <trkpt lat="45.37413" lon="5.81326">
        <ele>1870</ele>
        <time>2012-07-21T06:18:24.1Z</time>
      </trkpt>
      <trkpt lat="45.37412" lon="5.81327">
        <ele>1870</ele>
        <time>2012-07-21T06:18:26.1Z</time>
      </trkpt>
      <trkpt lat="45.37411" lon="5.81327">
        <ele>1870</ele>
        <time>2012-07-21T06:18:28.1Z</time>
      </trkpt>
      <trkpt lat="45.3741" lon="5.81327">
        <ele>1870</ele>
        <time>2012-07-21T06:18:30.1Z</time>
      </trkpt>
      <trkpt lat="45.37409" lon="5.81327">
        <ele>1870</ele>
        <time>2012-07-21T06:18:32.1Z</time>
      </trkpt>
      <trkpt lat="45.37408" lon="5.81326">
        <ele>1870</ele>
        <time>2012-07-21T06:18:34.1Z</time>
      </trkpt>
      <trkpt lat="45.37407" lon="5.81326">
        <ele>1870</ele>
        <time>2012-07-21T06:18:36.1Z</time>
      </trkpt>
      <trkpt lat="45.37406" lon="5.81326">
        <ele>1870</ele>
        <time>2012-07-21T06:18:38.1Z</time>
      </trkpt>
      <trkpt lat="45.37406" lon="5.81327">
        <ele>1870</ele>
        <time>2012-07-21T06:18:40.1Z</time>
      </trkpt>
      <trkpt lat="45.37405" lon="5.81327">
        <ele>1870</ele>
        <time>2012-07-21T06:18:42.1Z</time>
      </trkpt>
      <trkpt lat="45.37404" lon="5.81327">
        <ele>1870</ele>
        <time>2012-07-21T06:18:44.1Z</time>
      </trkpt>
      <trkpt lat="45.37403" lon="5.81327">
        <ele>1870</ele>
        <time>2012-07-21T06:18:46.1Z</time>
      </trkpt>
      <trkpt lat="45.37402" lon="5.81327">
        <ele>1871</ele>
        <time>2012-07-21T06:18:48.1Z</time>
      </trkpt>
      <trkpt lat="45.37402" lon="5.81326">
        <ele>1871</ele>
        <time>2012-07-21T06:18:51.1Z</time>
      </trkpt>
      <trkpt lat="45.37401" lon="5.81327">
        <ele>1870</ele>
        <time>2012-07-21T06:18:53.1Z</time>
      </trkpt>
      <trkpt lat="45.374" lon="5.81328">
        <ele>1871</ele>
        <time>2012-07-21T06:18:55.1Z</time>
      </trkpt>
      <trkpt lat="45.37398" lon="5.81327">
        <ele>1871</ele>
        <time>2012-07-21T06:18:57.1Z</time>
      </trkpt>
      <trkpt lat="45.37398" lon="5.81327">
        <ele>1871</ele>
        <time>2012-07-21T06:18:59.1Z</time>
      </trkpt>
      <trkpt lat="45.37397" lon="5.81328">
        <ele>1871</ele>
        <time>2012-07-21T06:19:01.1Z</time>
      </trkpt>
      <trkpt lat="45.37395" lon="5.81328">
        <ele>1871</ele>
        <time>2012-07-21T06:19:03.1Z</time>
      </trkpt>
      <trkpt lat="45.37394" lon="5.81328">
        <ele>1871</ele>
        <time>2012-07-21T06:19:05.1Z</time>
      </trkpt>
      <trkpt lat="45.37394" lon="5.81328">
        <ele>1871</ele>
        <time>2012-07-21T06:19:07.1Z</time>
      </trkpt>
      <trkpt lat="45.37393" lon="5.81329">
        <ele>1871</ele>
        <time>2012-07-21T06:19:09.1Z</time>
      </trkpt>
      <trkpt lat="45.37392" lon="5.81329">
        <ele>1871</ele>
        <time>2012-07-21T06:19:11.1Z</time>
      </trkpt>
      <trkpt lat="45.37391" lon="5.81329">
        <ele>1871</ele>
        <time>2012-07-21T06:19:13.1Z</time>
      </trkpt>
      <trkpt lat="45.3739" lon="5.81329">
        <ele>1871</ele>
        <time>2012-07-21T06:19:15.1Z</time>
      </trkpt>
      <trkpt lat="45.37389" lon="5.81329">
        <ele>1871</ele>
        <time>2012-07-21T06:19:17.1Z</time>
      </trkpt>
      <trkpt lat="45.37387" lon="5.81328">
        <ele>1871</ele>
        <time>2012-07-21T06:19:20.1Z</time>
      </trkpt>
      <trkpt lat="45.37387" lon="5.81328">
        <ele>1871</ele>
        <time>2012-07-21T06:19:22.1Z</time>
      </trkpt>
      <trkpt lat="45.37386" lon="5.81328">
        <ele>1871</ele>
        <time>2012-07-21T06:19:24.1Z</time>
      </trkpt>
      <trkpt lat="45.37385" lon="5.81328">
        <ele>1871</ele>
        <time>2012-07-21T06:19:26.1Z</time>
      </trkpt>
      <trkpt lat="45.37384" lon="5.81328">
        <ele>1871</ele>
        <time>2012-07-21T06:19:28.1Z</time>
      </trkpt>
      <trkpt lat="45.37384" lon="5.81328">
        <ele>1872</ele>
        <time>2012-07-21T06:19:30.1Z</time>
      </trkpt>
      <trkpt lat="45.37384" lon="5.81328">
        <ele>1872</ele>
        <time>2012-07-21T06:19:32.1Z</time>
      </trkpt>
      <trkpt lat="45.37383" lon="5.81328">
        <ele>1872</ele>
        <time>2012-07-21T06:19:34.1Z</time>
      </trkpt>
      <trkpt lat="45.37382" lon="5.81329">
        <ele>1872</ele>
        <time>2012-07-21T06:19:36.1Z</time>
      </trkpt>
      <trkpt lat="45.37381" lon="5.81329">
        <ele>1872</ele>
        <time>2012-07-21T06:19:38.1Z</time>
      </trkpt>
      <trkpt lat="45.3738" lon="5.81329">
        <ele>1872</ele>
        <time>2012-07-21T06:19:41.1Z</time>
      </trkpt>
      <trkpt lat="45.37379" lon="5.81329">
        <ele>1872</ele>
        <time>2012-07-21T06:19:43.1Z</time>
      </trkpt>
      <trkpt lat="45.37378" lon="5.81329">
        <ele>1872</ele>
        <time>2012-07-21T06:19:45.1Z</time>
      </trkpt>
      <trkpt lat="45.37377" lon="5.8133">
        <ele>1872</ele>
        <time>2012-07-21T06:19:47.1Z</time>
      </trkpt>
      <trkpt lat="45.37376" lon="5.8133">
        <ele>1872</ele>
        <time>2012-07-21T06:19:49.1Z</time>
      </trkpt>
      <trkpt lat="45.37375" lon="5.8133">
        <ele>1872</ele>
        <time>2012-07-21T06:19:51.1Z</time>
      </trkpt>
      <trkpt lat="45.37374" lon="5.8133">
        <ele>1872</ele>
        <time>2012-07-21T06:19:53.1Z</time>
      </trkpt>
      <trkpt lat="45.37373" lon="5.8133">
        <ele>1872</ele>
        <time>2012-07-21T06:19:55.1Z</time>
      </trkpt>
      <trkpt lat="45.37372" lon="5.8133">
        <ele>1872</ele>
        <time>2012-07-21T06:19:57.1Z</time>
      </trkpt>
      <trkpt lat="45.37371" lon="5.8133">
        <ele>1872</ele>
        <time>2012-07-21T06:20:00.1Z</time>
      </trkpt>
      <trkpt lat="45.3737" lon="5.8133">
        <ele>1873</ele>
        <time>2012-07-21T06:20:02.1Z</time>
      </trkpt>
      <trkpt lat="45.3737" lon="5.81331">
        <ele>1872</ele>
        <time>2012-07-21T06:20:04.1Z</time>
      </trkpt>
      <trkpt lat="45.37368" lon="5.81331">
        <ele>1872</ele>
        <time>2012-07-21T06:20:06.1Z</time>
      </trkpt>
      <trkpt lat="45.37367" lon="5.81331">
        <ele>1873</ele>
        <time>2012-07-21T06:20:08.1Z</time>
      </trkpt>
      <trkpt lat="45.37367" lon="5.81331">
        <ele>1873</ele>
        <time>2012-07-21T06:20:10.1Z</time>
      </trkpt>
      <trkpt lat="45.37366" lon="5.81331">
        <ele>1873</ele>
        <time>2012-07-21T06:20:12.1Z</time>
      </trkpt>
      <trkpt lat="45.37365" lon="5.81331">
        <ele>1873</ele>
        <time>2012-07-21T06:20:14.1Z</time>
      </trkpt>
      <trkpt lat="45.37364" lon="5.81331">
        <ele>1873</ele>
        <time>2012-07-21T06:20:16.1Z</time>
      </trkpt>
      <trkpt lat="45.37363" lon="5.81331">
        <ele>1873</ele>
        <time>2012-07-21T06:20:19.1Z</time>
      </trkpt>
      <trkpt lat="45.37362" lon="5.81331">
        <ele>1873</ele>
        <time>2012-07-21T06:20:21.1Z</time>
      </trkpt>
      <trkpt lat="45.37361" lon="5.81331">
        <ele>1873</ele>
        <time>2012-07-21T06:20:23.1Z</time>
      </trkpt>
      <trkpt lat="45.3736" lon="5.81332">
        <ele>1873</ele>
        <time>2012-07-21T06:20:25.1Z</time>
      </trkpt>
      <trkpt lat="45.37359" lon="5.81331">
        <ele>1873</ele>
        <time>2012-07-21T06:20:27.1Z</time>
      </trkpt>
      <trkpt lat="45.37359" lon="5.81332">
        <ele>1873</ele>
        <time>2012-07-21T06:20:29.1Z</time>
      </trkpt>
      <trkpt lat="45.37359" lon="5.81331">
        <ele>1873</ele>
        <time>2012-07-21T06:20:31.1Z</time>
      </trkpt>
      <trkpt lat="45.37359" lon="5.81332">
        <ele>1873</ele>
        <time>2012-07-21T06:20:33.1Z</time>
      </trkpt>
      <trkpt lat="45.37358" lon="5.81331">
        <ele>1873</ele>
        <time>2012-07-21T06:20:35.1Z</time>
      </trkpt>
      <trkpt lat="45.37358" lon="5.81331">
        <ele>1873</ele>
        <time>2012-07-21T06:20:37.1Z</time>
      </trkpt>
      <trkpt lat="45.37357" lon="5.81331">
        <ele>1874</ele>
        <time>2012-07-21T06:20:40.1Z</time>
      </trkpt>
      <trkpt lat="45.37355" lon="5.81332">
        <ele>1874</ele>
        <time>2012-07-21T06:20:42.1Z</time>
      </trkpt>
      <trkpt lat="45.37353" lon="5.81331">
        <ele>1873</ele>
        <time>2012-07-21T06:20:44.1Z</time>
      </trkpt>
      <trkpt lat="45.37352" lon="5.81331">
        <ele>1874</ele>
        <time>2012-07-21T06:20:46.1Z</time>
      </trkpt>
      <trkpt lat="45.37351" lon="5.8133">
        <ele>1874</ele>
        <time>2012-07-21T06:20:48.1Z</time>
      </trkpt>
      <trkpt lat="45.37351" lon="5.8133">
        <ele>1874</ele>
        <time>2012-07-21T06:20:50.1Z</time>
      </trkpt>
      <trkpt lat="45.3735" lon="5.8133">
        <ele>1874</ele>
        <time>2012-07-21T06:20:52.1Z</time>
      </trkpt>
      <trkpt lat="45.37349" lon="5.81329">
        <ele>1873</ele>
        <time>2012-07-21T06:20:54.1Z</time>
      </trkpt>
      <trkpt lat="45.37348" lon="5.81329">
        <ele>1873</ele>
        <time>2012-07-21T06:20:57.1Z</time>
      </trkpt>
      <trkpt lat="45.37346" lon="5.81329">
        <ele>1873</ele>
        <time>2012-07-21T06:20:59.1Z</time>
      </trkpt>
      <trkpt lat="45.37344" lon="5.81329">
        <ele>1874</ele>
        <time>2012-07-21T06:21:01.1Z</time>
      </trkpt>
      <trkpt lat="45.37342" lon="5.81328">
        <ele>1873</ele>
        <time>2012-07-21T06:21:03.1Z</time>
      </trkpt>
      <trkpt lat="45.37341" lon="5.81328">
        <ele>1874</ele>
        <time>2012-07-21T06:21:05.1Z</time>
      </trkpt>
      <trkpt lat="45.37339" lon="5.81328">
        <ele>1873</ele>
        <time>2012-07-21T06:21:07.1Z</time>
      </trkpt>
      <trkpt lat="45.37337" lon="5.81328">
        <ele>1873</ele>
        <time>2012-07-21T06:21:09.1Z</time>
      </trkpt>
      <trkpt lat="45.37336" lon="5.81328">
        <ele>1873</ele>
        <time>2012-07-21T06:21:11.1Z</time>
      </trkpt>
      <trkpt lat="45.37334" lon="5.81328">
        <ele>1873</ele>
        <time>2012-07-21T06:21:13.1Z</time>
      </trkpt>
      <trkpt lat="45.37332" lon="5.81328">
        <ele>1873</ele>
        <time>2012-07-21T06:21:15.1Z</time>
      </trkpt>
      <trkpt lat="45.37331" lon="5.81329">
        <ele>1873</ele>
        <time>2012-07-21T06:21:17.1Z</time>
      </trkpt>
      <trkpt lat="45.3733" lon="5.81328">
        <ele>1873</ele>
        <time>2012-07-21T06:21:20.1Z</time>
      </trkpt>
      <trkpt lat="45.3733" lon="5.81329">
        <ele>1873</ele>
        <time>2012-07-21T06:21:22.1Z</time>
      </trkpt>
      <trkpt lat="45.3733" lon="5.81329">
        <ele>1873</ele>
        <time>2012-07-21T06:21:24.1Z</time>
      </trkpt>
      <trkpt lat="45.3733" lon="5.81329">
        <ele>1873</ele>
        <time>2012-07-21T06:21:26.1Z</time>
      </trkpt>
      <trkpt lat="45.3733" lon="5.81329">
        <ele>1872</ele>
        <time>2012-07-21T06:21:28.1Z</time>
      </trkpt>
      <trkpt lat="45.37331" lon="5.81328">
        <ele>1872</ele>
        <time>2012-07-21T06:21:30.1Z</time>
      </trkpt>
      <trkpt lat="45.37333" lon="5.81328">
        <ele>1872</ele>
        <time>2012-07-21T06:21:32.1Z</time>
      </trkpt>
      <trkpt lat="45.37335" lon="5.81328">
        <ele>1873</ele>
        <time>2012-07-21T06:21:34.1Z</time>
      </trkpt>
      <trkpt lat="45.37337" lon="5.81328">
        <ele>1873</ele>
        <time>2012-07-21T06:21:36.1Z</time>
      </trkpt>
      <trkpt lat="45.37338" lon="5.81328">
        <ele>1873</ele>
        <time>2012-07-21T06:21:39.1Z</time>
      </trkpt>
      <trkpt lat="45.3734" lon="5.81329">
        <ele>1873</ele>
        <time>2012-07-21T06:21:41.1Z</time>
      </trkpt>
      <trkpt lat="45.37342" lon="5.81328">
        <ele>1873</ele>
        <time>2012-07-21T06:21:43.1Z</time>
      </trkpt>
      <trkpt lat="45.37344" lon="5.81329">
        <ele>1873</ele>
        <time>2012-07-21T06:21:45.1Z</time>
      </trkpt>
      <trkpt lat="45.37346" lon="5.8133">
        <ele>1873</ele>
        <time>2012-07-21T06:21:47.1Z</time>
      </trkpt>
      <trkpt lat="45.37347" lon="5.8133">
        <ele>1873</ele>
        <time>2012-07-21T06:21:49.1Z</time>
      </trkpt>
      <trkpt lat="45.37349" lon="5.8133">
        <ele>1873</ele>
        <time>2012-07-21T06:21:51.1Z</time>
      </trkpt>
      <trkpt lat="45.37351" lon="5.8133">
        <ele>1873</ele>
        <time>2012-07-21T06:21:53.1Z</time>
      </trkpt>
      <trkpt lat="45.37352" lon="5.81331">
        <ele>1873</ele>
        <time>2012-07-21T06:21:55.1Z</time>
      </trkpt>
      <trkpt lat="45.37354" lon="5.81331">
        <ele>1873</ele>
        <time>2012-07-21T06:21:57.1Z</time>
      </trkpt>
      <trkpt lat="45.37356" lon="5.81331">
        <ele>1873</ele>
        <time>2012-07-21T06:22:00.1Z</time>
      </trkpt>
      <trkpt lat="45.37357" lon="5.8133">
        <ele>1873</ele>
        <time>2012-07-21T06:22:02.1Z</time>
      </trkpt>
      <trkpt lat="45.3736" lon="5.81331">
        <ele>1873</ele>
        <time>2012-07-21T06:22:04.1Z</time>
      </trkpt>
      <trkpt lat="45.37361" lon="5.8133">
        <ele>1873</ele>
        <time>2012-07-21T06:22:06.1Z</time>
      </trkpt>
      <trkpt lat="45.37361" lon="5.8133">
        <ele>1873</ele>
        <time>2012-07-21T06:22:08.1Z</time>
      </trkpt>
      <trkpt lat="45.37361" lon="5.81329">
        <ele>1873</ele>
        <time>2012-07-21T06:22:10.1Z</time>
      </trkpt>
      <trkpt lat="45.37363" lon="5.81329">
        <ele>1872</ele>
        <time>2012-07-21T06:22:12.1Z</time>
      </trkpt>
      <trkpt lat="45.37364" lon="5.81328">
        <ele>1872</ele>
        <time>2012-07-21T06:22:14.1Z</time>
      </trkpt>
      <trkpt lat="45.37365" lon="5.81328">
        <ele>1872</ele>
        <time>2012-07-21T06:22:17.1Z</time>
      </trkpt>
      <trkpt lat="45.37366" lon="5.81329">
        <ele>1872</ele>
        <time>2012-07-21T06:22:19.1Z</time>
      </trkpt>
      <trkpt lat="45.37366" lon="5.81329">
        <ele>1872</ele>
        <time>2012-07-21T06:22:21.1Z</time>
      </trkpt>
      <trkpt lat="45.37369" lon="5.81329">
        <ele>1872</ele>
        <time>2012-07-21T06:22:23.1Z</time>
      </trkpt>
      <trkpt lat="45.3737" lon="5.8133">
        <ele>1872</ele>
        <time>2012-07-21T06:22:25.1Z</time>
      </trkpt>
      <trkpt lat="45.37371" lon="5.8133">
        <ele>1872</ele>
        <time>2012-07-21T06:22:27.1Z</time>
      </trkpt>
      <trkpt lat="45.37371" lon="5.8133">
        <ele>1872</ele>
        <time>2012-07-21T06:22:29.1Z</time>
      </trkpt>
      <trkpt lat="45.37372" lon="5.81329">
        <ele>1872</ele>
        <time>2012-07-21T06:22:31.1Z</time>
      </trkpt>
      <trkpt lat="45.37373" lon="5.8133">
        <ele>1872</ele>
        <time>2012-07-21T06:22:33.1Z</time>
      </trkpt>
      <trkpt lat="45.37373" lon="5.8133">
        <ele>1872</ele>
        <time>2012-07-21T06:22:35.1Z</time>
      </trkpt>
      <trkpt lat="45.37375" lon="5.8133">
        <ele>1872</ele>
        <time>2012-07-21T06:22:37.1Z</time>
      </trkpt>
      <trkpt lat="45.37376" lon="5.8133">
        <ele>1872</ele>
        <time>2012-07-21T06:22:40.1Z</time>
      </trkpt>
      <trkpt lat="45.37377" lon="5.81329">
        <ele>1871</ele>
        <time>2012-07-21T06:22:42.1Z</time>
      </trkpt>
      <trkpt lat="45.37379" lon="5.81328">
        <ele>1871</ele>
        <time>2012-07-21T06:22:44.1Z</time>
      </trkpt>
      <trkpt lat="45.37381" lon="5.81328">
        <ele>1871</ele>
        <time>2012-07-21T06:22:46.1Z</time>
      </trkpt>
      <trkpt lat="45.37383" lon="5.81328">
        <ele>1871</ele>
        <time>2012-07-21T06:22:48.1Z</time>
      </trkpt>
      <trkpt lat="45.37384" lon="5.81328">
        <ele>1871</ele>
        <time>2012-07-21T06:22:50.1Z</time>
      </trkpt>
      <trkpt lat="45.37385" lon="5.81328">
        <ele>1871</ele>
        <time>2012-07-21T06:22:52.1Z</time>
      </trkpt>
      <trkpt lat="45.37385" lon="5.81327">
        <ele>1871</ele>
        <time>2012-07-21T06:22:54.1Z</time>
      </trkpt>
      <trkpt lat="45.37386" lon="5.81326">
        <ele>1871</ele>
        <time>2012-07-21T06:22:57.1Z</time>
      </trkpt>
      <trkpt lat="45.37387" lon="5.81325">
        <ele>1871</ele>
        <time>2012-07-21T06:22:59.1Z</time>
      </trkpt>
      <trkpt lat="45.37389" lon="5.81325">
        <ele>1870</ele>
        <time>2012-07-21T06:23:01.1Z</time>
      </trkpt>
      <trkpt lat="45.37391" lon="5.81325">
        <ele>1870</ele>
        <time>2012-07-21T06:23:03.1Z</time>
      </trkpt>
      <trkpt lat="45.37391" lon="5.81326">
        <ele>1870</ele>
        <time>2012-07-21T06:23:05.1Z</time>
      </trkpt>
      <trkpt lat="45.37392" lon="5.81326">
        <ele>1870</ele>
        <time>2012-07-21T06:23:07.1Z</time>
      </trkpt>
      <trkpt lat="45.37393" lon="5.81325">
        <ele>1870</ele>
        <time>2012-07-21T06:23:09.1Z</time>
      </trkpt>
      <trkpt lat="45.37394" lon="5.81325">
        <ele>1871</ele>
        <time>2012-07-21T06:23:11.1Z</time>
      </trkpt>
      <trkpt lat="45.37396" lon="5.81325">
        <ele>1871</ele>
        <time>2012-07-21T06:23:13.1Z</time>
      </trkpt>
      <trkpt lat="45.37398" lon="5.81325">
        <ele>1871</ele>
        <time>2012-07-21T06:23:15.1Z</time>
      </trkpt>
      <trkpt lat="45.37399" lon="5.81325">
        <ele>1871</ele>
        <time>2012-07-21T06:23:18.1Z</time>
      </trkpt>
      <trkpt lat="45.374" lon="5.81326">
        <ele>1871</ele>
        <time>2012-07-21T06:23:20.1Z</time>
      </trkpt>
      <trkpt lat="45.37402" lon="5.81326">
        <ele>1870</ele>
        <time>2012-07-21T06:23:22.1Z</time>
      </trkpt>
      <trkpt lat="45.37402" lon="5.81326">
        <ele>1870</ele>
        <time>2012-07-21T06:23:24.1Z</time>
      </trkpt>
      <trkpt lat="45.37403" lon="5.81326">
        <ele>1870</ele>
        <time>2012-07-21T06:23:26.1Z</time>
      </trkpt>
      <trkpt lat="45.37403" lon="5.81326">
        <ele>1870</ele>
        <time>2012-07-21T06:23:28.1Z</time>
      </trkpt>
      <trkpt lat="45.37404" lon="5.81326">
        <ele>1870</ele>
        <time>2012-07-21T06:23:30.1Z</time>
      </trkpt>
      <trkpt lat="45.37405" lon="5.81326">
        <ele>1870</ele>
        <time>2012-07-21T06:23:32.1Z</time>
      </trkpt>
      <trkpt lat="45.37406" lon="5.81326">
        <ele>1870</ele>
        <time>2012-07-21T06:23:34.1Z</time>
      </trkpt>
      <trkpt lat="45.37407" lon="5.81326">
        <ele>1870</ele>
        <time>2012-07-21T06:23:37.1Z</time>
      </trkpt>
      <trkpt lat="45.37408" lon="5.81326">
        <ele>1870</ele>
        <time>2012-07-21T06:23:39.1Z</time>
      </trkpt>
      <trkpt lat="45.37409" lon="5.81326">
        <ele>1869</ele>
        <time>2012-07-21T06:23:41.1Z</time>
      </trkpt>
      <trkpt lat="45.3741" lon="5.81326">
        <ele>1869</ele>
        <time>2012-07-21T06:23:43.1Z</time>
      </trkpt>
      <trkpt lat="45.37411" lon="5.81326">
        <ele>1869</ele>
        <time>2012-07-21T06:23:45.1Z</time>
      </trkpt>
      <trkpt lat="45.37412" lon="5.81326">
        <ele>1869</ele>
        <time>2012-07-21T06:23:47.1Z</time>
      </trkpt>
      <trkpt lat="45.37414" lon="5.81325">
        <ele>1869</ele>
        <time>2012-07-21T06:23:49.1Z</time>
      </trkpt>
      <trkpt lat="45.37415" lon="5.81325">
        <ele>1869</ele>
        <time>2012-07-21T06:23:51.1Z</time>
      </trkpt>
      <trkpt lat="45.37417" lon="5.81325">
        <ele>1869</ele>
        <time>2012-07-21T06:23:53.1Z</time>
      </trkpt>
      <trkpt lat="45.37419" lon="5.81325">
        <ele>1869</ele>
        <time>2012-07-21T06:23:55.1Z</time>
      </trkpt>
      <trkpt lat="45.37421" lon="5.81325">
        <ele>1869</ele>
        <time>2012-07-21T06:23:57.1Z</time>
      </trkpt>
      <trkpt lat="45.37424" lon="5.81324">
        <ele>1869</ele>
        <time>2012-07-21T06:23:59.1Z</time>
      </trkpt>
      <trkpt lat="45.37426" lon="5.81324">
        <ele>1869</ele>
        <time>2012-07-21T06:24:01.1Z</time>
      </trkpt>
      <trkpt lat="45.37428" lon="5.81324">
        <ele>1869</ele>
        <time>2012-07-21T06:24:03.1Z</time>
      </trkpt>
      <trkpt lat="45.37431" lon="5.81324">
        <ele>1869</ele>
        <time>2012-07-21T06:24:05.1Z</time>
      </trkpt>
      <trkpt lat="45.37432" lon="5.81324">
        <ele>1868</ele>
        <time>2012-07-21T06:24:08.1Z</time>
      </trkpt>
      <trkpt lat="45.37434" lon="5.81323">
        <ele>1868</ele>
        <time>2012-07-21T06:24:10.1Z</time>
      </trkpt>
      <trkpt lat="45.37437" lon="5.81323">
        <ele>1868</ele>
        <time>2012-07-21T06:24:12.1Z</time>
      </trkpt>
      <trkpt lat="45.3744" lon="5.81321">
        <ele>1868</ele>
        <time>2012-07-21T06:24:14.1Z</time>
      </trkpt>
      <trkpt lat="45.37442" lon="5.8132">
        <ele>1867</ele>
        <time>2012-07-21T06:24:16.1Z</time>
      </trkpt>
      <trkpt lat="45.37444" lon="5.8132">
        <ele>1867</ele>
        <time>2012-07-21T06:24:18.1Z</time>
      </trkpt>
      <trkpt lat="45.37446" lon="5.8132">
        <ele>1867</ele>
        <time>2012-07-21T06:24:20.1Z</time>
      </trkpt>
      <trkpt lat="45.37449" lon="5.8132">
        <ele>1867</ele>
        <time>2012-07-21T06:24:22.1Z</time>
      </trkpt>
      <trkpt lat="45.37451" lon="5.8132">
        <ele>1867</ele>
        <time>2012-07-21T06:24:24.1Z</time>
      </trkpt>
      <trkpt lat="45.37453" lon="5.8132">
        <ele>1867</ele>
        <time>2012-07-21T06:24:26.1Z</time>
      </trkpt>
      <trkpt lat="45.37456" lon="5.8132">
        <ele>1867</ele>
        <time>2012-07-21T06:24:28.1Z</time>
      </trkpt>
      <trkpt lat="45.37459" lon="5.8132">
        <ele>1867</ele>
        <time>2012-07-21T06:24:30.1Z</time>
      </trkpt>
      <trkpt lat="45.37461" lon="5.8132">
        <ele>1867</ele>
        <time>2012-07-21T06:24:32.1Z</time>
      </trkpt>
      <trkpt lat="45.37463" lon="5.8132">
        <ele>1866</ele>
        <time>2012-07-21T06:24:34.1Z</time>
      </trkpt>
      <trkpt lat="45.37465" lon="5.8132">
        <ele>1866</ele>
        <time>2012-07-21T06:24:36.1Z</time>
      </trkpt>
      <trkpt lat="45.37467" lon="5.81321">
        <ele>1865</ele>
        <time>2012-07-21T06:24:39.1Z</time>
      </trkpt>
      <trkpt lat="45.37468" lon="5.8132">
        <ele>1865</ele>
        <time>2012-07-21T06:24:41.1Z</time>
      </trkpt>
      <trkpt lat="45.37471" lon="5.8132">
        <ele>1865</ele>
        <time>2012-07-21T06:24:43.1Z</time>
      </trkpt>
      <trkpt lat="45.37472" lon="5.8132">
        <ele>1865</ele>
        <time>2012-07-21T06:24:45.1Z</time>
      </trkpt>
      <trkpt lat="45.37473" lon="5.81321">
        <ele>1865</ele>
        <time>2012-07-21T06:24:47.1Z</time>
      </trkpt>
      <trkpt lat="45.37474" lon="5.81321">
        <ele>1865</ele>
        <time>2012-07-21T06:24:49.1Z</time>
      </trkpt>
      <trkpt lat="45.37476" lon="5.81321">
        <ele>1865</ele>
        <time>2012-07-21T06:24:51.1Z</time>
      </trkpt>
      <trkpt lat="45.37477" lon="5.81321">
        <ele>1865</ele>
        <time>2012-07-21T06:24:53.1Z</time>
      </trkpt>
      <trkpt lat="45.37479" lon="5.81321">
        <ele>1864</ele>
        <time>2012-07-21T06:24:55.1Z</time>
      </trkpt>
      <trkpt lat="45.3748" lon="5.81322">
        <ele>1864</ele>
        <time>2012-07-21T06:24:57.1Z</time>
      </trkpt>
      <trkpt lat="45.37481" lon="5.81322">
        <ele>1864</ele>
        <time>2012-07-21T06:24:59.1Z</time>
      </trkpt>
      <trkpt lat="45.37481" lon="5.81322">
        <ele>1864</ele>
        <time>2012-07-21T06:25:02.1Z</time>
      </trkpt>
      <trkpt lat="45.37481" lon="5.81322">
        <ele>1864</ele>
        <time>2012-07-21T06:25:04.1Z</time>
      </trkpt>
      <trkpt lat="45.37481" lon="5.81323">
        <ele>1864</ele>
        <time>2012-07-21T06:25:06.1Z</time>
      </trkpt>
      <trkpt lat="45.37481" lon="5.81323">
        <ele>1864</ele>
        <time>2012-07-21T06:25:08.1Z</time>
      </trkpt>
      <trkpt lat="45.37481" lon="5.81323">
        <ele>1864</ele>
        <time>2012-07-21T06:25:10.1Z</time>
      </trkpt>
      <trkpt lat="45.37481" lon="5.81324">
        <ele>1864</ele>
        <time>2012-07-21T06:25:12.1Z</time>
      </trkpt>
      <trkpt lat="45.37482" lon="5.81323">
        <ele>1864</ele>
        <time>2012-07-21T06:25:14.1Z</time>
      </trkpt>
      <trkpt lat="45.37482" lon="5.81324">
        <ele>1864</ele>
        <time>2012-07-21T06:25:16.1Z</time>
      </trkpt>
      <trkpt lat="45.37483" lon="5.81324">
        <ele>1863</ele>
        <time>2012-07-21T06:25:19.1Z</time>
      </trkpt>
      <trkpt lat="45.37485" lon="5.81324">
        <ele>1863</ele>
        <time>2012-07-21T06:25:21.1Z</time>
      </trkpt>
      <trkpt lat="45.3749" lon="5.81323">
        <ele>1863</ele>
        <time>2012-07-21T06:25:23.1Z</time>
      </trkpt>
      <trkpt lat="45.37494" lon="5.81323">
        <ele>1863</ele>
        <time>2012-07-21T06:25:25.1Z</time>
      </trkpt>
      <trkpt lat="45.37498" lon="5.81323">
        <ele>1863</ele>
        <time>2012-07-21T06:25:27.1Z</time>
      </trkpt>
      <trkpt lat="45.37502" lon="5.81324">
        <ele>1863</ele>
        <time>2012-07-21T06:25:29.1Z</time>
      </trkpt>
      <trkpt lat="45.37506" lon="5.81324">
        <ele>1863</ele>
        <time>2012-07-21T06:25:31.1Z</time>
      </trkpt>
      <trkpt lat="45.37511" lon="5.81323">
        <ele>1862</ele>
        <time>2012-07-21T06:25:33.1Z</time>
      </trkpt>
      <trkpt lat="45.37515" lon="5.81323">
        <ele>1862</ele>
        <time>2012-07-21T06:25:35.1Z</time>
      </trkpt>
      <trkpt lat="45.37519" lon="5.81323">
        <ele>1861</ele>
        <time>2012-07-21T06:25:37.1Z</time>
      </trkpt>
      <trkpt lat="45.37523" lon="5.81322">
        <ele>1860</ele>
        <time>2012-07-21T06:25:39.1Z</time>
      </trkpt>
      <trkpt lat="45.37527" lon="5.81322">
        <ele>1859</ele>
        <time>2012-07-21T06:25:42.1Z</time>
      </trkpt>
      <trkpt lat="45.37531" lon="5.81324">
        <ele>1858</ele>
        <time>2012-07-21T06:25:44.1Z</time>
      </trkpt>
      <trkpt lat="45.37537" lon="5.81323">
        <ele>1858</ele>
        <time>2012-07-21T06:25:46.1Z</time>
      </trkpt>
      <trkpt lat="45.37544" lon="5.81326">
        <ele>1857</ele>
        <time>2012-07-21T06:25:48.1Z</time>
      </trkpt>
      <trkpt lat="45.37549" lon="5.81329">
        <ele>1857</ele>
        <time>2012-07-21T06:25:50.1Z</time>
      </trkpt>
      <trkpt lat="45.37554" lon="5.81332">
        <ele>1857</ele>
        <time>2012-07-21T06:25:52.1Z</time>
      </trkpt>
      <trkpt lat="45.37559" lon="5.81332">
        <ele>1856</ele>
        <time>2012-07-21T06:25:54.1Z</time>
      </trkpt>
      <trkpt lat="45.37563" lon="5.81334">
        <ele>1856</ele>
        <time>2012-07-21T06:25:56.1Z</time>
      </trkpt>
      <trkpt lat="45.37567" lon="5.81337">
        <ele>1856</ele>
        <time>2012-07-21T06:25:58.1Z</time>
      </trkpt>
      <trkpt lat="45.37571" lon="5.8134">
        <ele>1855</ele>
        <time>2012-07-21T06:26:01.1Z</time>
      </trkpt>
      <trkpt lat="45.37573" lon="5.81343">
        <ele>1854</ele>
        <time>2012-07-21T06:26:03.1Z</time>
      </trkpt>
      <trkpt lat="45.37576" lon="5.81346">
        <ele>1854</ele>
        <time>2012-07-21T06:26:05.1Z</time>
      </trkpt>
      <trkpt lat="45.37578" lon="5.81347">
        <ele>1854</ele>
        <time>2012-07-21T06:26:07.1Z</time>
      </trkpt>
      <trkpt lat="45.37582" lon="5.81346">
        <ele>1853</ele>
        <time>2012-07-21T06:26:09.1Z</time>
      </trkpt>
      <trkpt lat="45.37585" lon="5.81347">
        <ele>1852</ele>
        <time>2012-07-21T06:26:11.1Z</time>
      </trkpt>
      <trkpt lat="45.37587" lon="5.81349">
        <ele>1851</ele>
        <time>2012-07-21T06:26:13.1Z</time>
      </trkpt>
      <trkpt lat="45.37589" lon="5.81348">
        <ele>1851</ele>
        <time>2012-07-21T06:26:15.1Z</time>
      </trkpt>
      <trkpt lat="45.37591" lon="5.81348">
        <ele>1851</ele>
        <time>2012-07-21T06:26:18.1Z</time>
      </trkpt>
      <trkpt lat="45.37592" lon="5.81347">
        <ele>1850</ele>
        <time>2012-07-21T06:26:20.1Z</time>
      </trkpt>
      <trkpt lat="45.37596" lon="5.81346">
        <ele>1850</ele>
        <time>2012-07-21T06:26:22.1Z</time>
      </trkpt>
      <trkpt lat="45.37598" lon="5.81347">
        <ele>1850</ele>
        <time>2012-07-21T06:26:24.1Z</time>
      </trkpt>
      <trkpt lat="45.376" lon="5.81349">
        <ele>1850</ele>
        <time>2012-07-21T06:26:26.1Z</time>
      </trkpt>
      <trkpt lat="45.37603" lon="5.81348">
        <ele>1850</ele>
        <time>2012-07-21T06:26:28.1Z</time>
      </trkpt>
      <trkpt lat="45.37605" lon="5.81347">
        <ele>1850</ele>
        <time>2012-07-21T06:26:30.1Z</time>
      </trkpt>
      <trkpt lat="45.37607" lon="5.81347">
        <ele>1850</ele>
        <time>2012-07-21T06:26:32.1Z</time>
      </trkpt>
      <trkpt lat="45.3761" lon="5.81347">
        <ele>1850</ele>
        <time>2012-07-21T06:26:34.1Z</time>
      </trkpt>
      <trkpt lat="45.37611" lon="5.81349">
        <ele>1849</ele>
        <time>2012-07-21T06:26:37.1Z</time>
      </trkpt>
      <trkpt lat="45.37615" lon="5.81351">
        <ele>1849</ele>
        <time>2012-07-21T06:26:39.1Z</time>
      </trkpt>
      <trkpt lat="45.37616" lon="5.8135">
        <ele>1848</ele>
        <time>2012-07-21T06:26:41.1Z</time>
      </trkpt>
      <trkpt lat="45.37618" lon="5.8135">
        <ele>1847</ele>
        <time>2012-07-21T06:26:43.1Z</time>
      </trkpt>
      <trkpt lat="45.3762" lon="5.8135">
        <ele>1847</ele>
        <time>2012-07-21T06:26:45.1Z</time>
      </trkpt>
      <trkpt lat="45.37622" lon="5.81351">
        <ele>1847</ele>
        <time>2012-07-21T06:26:47.1Z</time>
      </trkpt>
      <trkpt lat="45.37623" lon="5.81351">
        <ele>1847</ele>
        <time>2012-07-21T06:26:49.1Z</time>
      </trkpt>
      <trkpt lat="45.37624" lon="5.81353">
        <ele>1847</ele>
        <time>2012-07-21T06:26:51.1Z</time>
      </trkpt>
      <trkpt lat="45.37626" lon="5.81353">
        <ele>1847</ele>
        <time>2012-07-21T06:26:53.1Z</time>
      </trkpt>
      <trkpt lat="45.37627" lon="5.81354">
        <ele>1846</ele>
        <time>2012-07-21T06:26:55.1Z</time>
      </trkpt>
      <trkpt lat="45.37627" lon="5.81354">
        <ele>1846</ele>
        <time>2012-07-21T06:26:57.1Z</time>
      </trkpt>
      <trkpt lat="45.37627" lon="5.81354">
        <ele>1845</ele>
        <time>2012-07-21T06:27:00.1Z</time>
      </trkpt>
      <trkpt lat="45.37627" lon="5.81354">
        <ele>1845</ele>
        <time>2012-07-21T06:27:02.1Z</time>
      </trkpt>
      <trkpt lat="45.37626" lon="5.81355">
        <ele>1845</ele>
        <time>2012-07-21T06:27:04.1Z</time>
      </trkpt>
      <trkpt lat="45.37627" lon="5.81355">
        <ele>1845</ele>
        <time>2012-07-21T06:27:06.1Z</time>
      </trkpt>
      <trkpt lat="45.37627" lon="5.81355">
        <ele>1845</ele>
        <time>2012-07-21T06:27:08.1Z</time>
      </trkpt>
      <trkpt lat="45.37627" lon="5.81356">
        <ele>1845</ele>
        <time>2012-07-21T06:27:10.1Z</time>
      </trkpt>
      <trkpt lat="45.37628" lon="5.81356">
        <ele>1844</ele>
        <time>2012-07-21T06:27:12.1Z</time>
      </trkpt>
      <trkpt lat="45.37629" lon="5.81355">
        <ele>1844</ele>
        <time>2012-07-21T06:27:14.1Z</time>
      </trkpt>
      <trkpt lat="45.3763" lon="5.81355">
        <ele>1845</ele>
        <time>2012-07-21T06:27:16.1Z</time>
      </trkpt>
      <trkpt lat="45.37632" lon="5.81357">
        <ele>1844</ele>
        <time>2012-07-21T06:27:19.1Z</time>
      </trkpt>
      <trkpt lat="45.37634" lon="5.81357">
        <ele>1844</ele>
        <time>2012-07-21T06:27:21.1Z</time>
      </trkpt>
      <trkpt lat="45.37637" lon="5.81359">
        <ele>1844</ele>
        <time>2012-07-21T06:27:23.1Z</time>
      </trkpt>
      <trkpt lat="45.37638" lon="5.8136">
        <ele>1843</ele>
        <time>2012-07-21T06:27:25.1Z</time>
      </trkpt>
      <trkpt lat="45.37638" lon="5.8136">
        <ele>1843</ele>
        <time>2012-07-21T06:27:27.1Z</time>
      </trkpt>
      <trkpt lat="45.3764" lon="5.81362">
        <ele>1843</ele>
        <time>2012-07-21T06:27:29.1Z</time>
      </trkpt>
      <trkpt lat="45.37639" lon="5.81364">
        <ele>1842</ele>
        <time>2012-07-21T06:27:31.1Z</time>
      </trkpt>
      <trkpt lat="45.37639" lon="5.81365">
        <ele>1843</ele>
        <time>2012-07-21T06:27:33.1Z</time>
      </trkpt>
      <trkpt lat="45.3764" lon="5.81367">
        <ele>1843</ele>
        <time>2012-07-21T06:27:35.1Z</time>
      </trkpt>
      <trkpt lat="45.3764" lon="5.81369">
        <ele>1843</ele>
        <time>2012-07-21T06:27:37.1Z</time>
      </trkpt>
      <trkpt lat="45.3764" lon="5.8137">
        <ele>1842</ele>
        <time>2012-07-21T06:27:40.1Z</time>
      </trkpt>
      <trkpt lat="45.37642" lon="5.81371">
        <ele>1841</ele>
        <time>2012-07-21T06:27:42.1Z</time>
      </trkpt>
      <trkpt lat="45.37643" lon="5.81372">
        <ele>1841</ele>
        <time>2012-07-21T06:27:44.1Z</time>
      </trkpt>
      <trkpt lat="45.37644" lon="5.81373">
        <ele>1841</ele>
        <time>2012-07-21T06:27:46.1Z</time>
      </trkpt>
      <trkpt lat="45.37644" lon="5.81374">
        <ele>1841</ele>
        <time>2012-07-21T06:27:48.1Z</time>
      </trkpt>
      <trkpt lat="45.37645" lon="5.81375">
        <ele>1840</ele>
        <time>2012-07-21T06:27:50.1Z</time>
      </trkpt>
      <trkpt lat="45.37646" lon="5.81378">
        <ele>1839</ele>
        <time>2012-07-21T06:27:52.1Z</time>
      </trkpt>
      <trkpt lat="45.37648" lon="5.81379">
        <ele>1838</ele>
        <time>2012-07-21T06:27:54.1Z</time>
      </trkpt>
      <trkpt lat="45.37648" lon="5.81381">
        <ele>1837</ele>
        <time>2012-07-21T06:27:56.1Z</time>
      </trkpt>
      <trkpt lat="45.3765" lon="5.8138">
        <ele>1837</ele>
        <time>2012-07-21T06:27:59.1Z</time>
      </trkpt>
      <trkpt lat="45.3765" lon="5.81382">
        <ele>1836</ele>
        <time>2012-07-21T06:28:01.1Z</time>
      </trkpt>
      <trkpt lat="45.37651" lon="5.81383">
        <ele>1835</ele>
        <time>2012-07-21T06:28:03.1Z</time>
      </trkpt>
      <trkpt lat="45.37651" lon="5.81386">
        <ele>1834</ele>
        <time>2012-07-21T06:28:05.1Z</time>
      </trkpt>
      <trkpt lat="45.37651" lon="5.81388">
        <ele>1833</ele>
        <time>2012-07-21T06:28:07.1Z</time>
      </trkpt>
      <trkpt lat="45.37651" lon="5.81388">
        <ele>1833</ele>
        <time>2012-07-21T06:28:09.1Z</time>
      </trkpt>
      <trkpt lat="45.37651" lon="5.81389">
        <ele>1833</ele>
        <time>2012-07-21T06:28:11.1Z</time>
      </trkpt>
      <trkpt lat="45.37652" lon="5.8139">
        <ele>1832</ele>
        <time>2012-07-21T06:28:13.1Z</time>
      </trkpt>
      <trkpt lat="45.37653" lon="5.8139">
        <ele>1831</ele>
        <time>2012-07-21T06:28:15.1Z</time>
      </trkpt>
      <trkpt lat="45.37654" lon="5.81392">
        <ele>1831</ele>
        <time>2012-07-21T06:28:17.1Z</time>
      </trkpt>
      <trkpt lat="45.37654" lon="5.81393">
        <ele>1830</ele>
        <time>2012-07-21T06:28:20.1Z</time>
      </trkpt>
      <trkpt lat="45.37653" lon="5.81394">
        <ele>1829</ele>
        <time>2012-07-21T06:28:22.1Z</time>
      </trkpt>
      <trkpt lat="45.37653" lon="5.81396">
        <ele>1829</ele>
        <time>2012-07-21T06:28:24.1Z</time>
      </trkpt>
      <trkpt lat="45.37654" lon="5.81398">
        <ele>1828</ele>
        <time>2012-07-21T06:28:26.1Z</time>
      </trkpt>
      <trkpt lat="45.37654" lon="5.814">
        <ele>1827</ele>
        <time>2012-07-21T06:28:28.1Z</time>
      </trkpt>
      <trkpt lat="45.37654" lon="5.81401">
        <ele>1826</ele>
        <time>2012-07-21T06:28:30.1Z</time>
      </trkpt>
      <trkpt lat="45.37656" lon="5.81401">
        <ele>1826</ele>
        <time>2012-07-21T06:28:32.1Z</time>
      </trkpt>
      <trkpt lat="45.37657" lon="5.81401">
        <ele>1825</ele>
        <time>2012-07-21T06:28:34.1Z</time>
      </trkpt>
      <trkpt lat="45.37658" lon="5.81403">
        <ele>1825</ele>
        <time>2012-07-21T06:28:36.1Z</time>
      </trkpt>
      <trkpt lat="45.3766" lon="5.81404">
        <ele>1825</ele>
        <time>2012-07-21T06:28:38.1Z</time>
      </trkpt>
      <trkpt lat="45.3766" lon="5.81405">
        <ele>1824</ele>
        <time>2012-07-21T06:28:40.1Z</time>
      </trkpt>
      <trkpt lat="45.3766" lon="5.81406">
        <ele>1824</ele>
        <time>2012-07-21T06:28:42.1Z</time>
      </trkpt>
      <trkpt lat="45.37661" lon="5.81407">
        <ele>1823</ele>
        <time>2012-07-21T06:28:44.1Z</time>
      </trkpt>
      <trkpt lat="45.37662" lon="5.81409">
        <ele>1823</ele>
        <time>2012-07-21T06:28:46.1Z</time>
      </trkpt>
      <trkpt lat="45.37661" lon="5.81409">
        <ele>1822</ele>
        <time>2012-07-21T06:28:48.1Z</time>
      </trkpt>
      <trkpt lat="45.37663" lon="5.81412">
        <ele>1822</ele>
        <time>2012-07-21T06:28:50.1Z</time>
      </trkpt>
      <trkpt lat="45.37664" lon="5.81414">
        <ele>1821</ele>
        <time>2012-07-21T06:28:53.1Z</time>
      </trkpt>
      <trkpt lat="45.37665" lon="5.81416">
        <ele>1820</ele>
        <time>2012-07-21T06:28:55.1Z</time>
      </trkpt>
      <trkpt lat="45.37666" lon="5.81417">
        <ele>1819</ele>
        <time>2012-07-21T06:28:57.1Z</time>
      </trkpt>
      <trkpt lat="45.37667" lon="5.81419">
        <ele>1818</ele>
        <time>2012-07-21T06:28:59.1Z</time>
      </trkpt>
      <trkpt lat="45.37667" lon="5.8142">
        <ele>1818</ele>
        <time>2012-07-21T06:29:01.1Z</time>
      </trkpt>
      <trkpt lat="45.37669" lon="5.81421">
        <ele>1818</ele>
        <time>2012-07-21T06:29:03.1Z</time>
      </trkpt>
      <trkpt lat="45.37669" lon="5.81421">
        <ele>1817</ele>
        <time>2012-07-21T06:29:05.1Z</time>
      </trkpt>
      <trkpt lat="45.3767" lon="5.81421">
        <ele>1817</ele>
        <time>2012-07-21T06:29:07.1Z</time>
      </trkpt>
      <trkpt lat="45.3767" lon="5.81421">
        <ele>1817</ele>
        <time>2012-07-21T06:29:09.1Z</time>
      </trkpt>
      <trkpt lat="45.37671" lon="5.81421">
        <ele>1817</ele>
        <time>2012-07-21T06:29:11.1Z</time>
      </trkpt>
      <trkpt lat="45.37672" lon="5.81421">
        <ele>1817</ele>
        <time>2012-07-21T06:29:13.1Z</time>
      </trkpt>
      <trkpt lat="45.37673" lon="5.81422">
        <ele>1816</ele>
        <time>2012-07-21T06:29:16.1Z</time>
      </trkpt>
      <trkpt lat="45.37673" lon="5.81423">
        <ele>1816</ele>
        <time>2012-07-21T06:29:18.1Z</time>
      </trkpt>
      <trkpt lat="45.37677" lon="5.81425">
        <ele>1816</ele>
        <time>2012-07-21T06:29:20.1Z</time>
      </trkpt>
      <trkpt lat="45.37678" lon="5.81426">
        <ele>1815</ele>
        <time>2012-07-21T06:29:22.1Z</time>
      </trkpt>
      <trkpt lat="45.37679" lon="5.81428">
        <ele>1814</ele>
        <time>2012-07-21T06:29:24.1Z</time>
      </trkpt>
      <trkpt lat="45.3768" lon="5.8143">
        <ele>1814</ele>
        <time>2012-07-21T06:29:26.1Z</time>
      </trkpt>
      <trkpt lat="45.37682" lon="5.81431">
        <ele>1813</ele>
        <time>2012-07-21T06:29:28.1Z</time>
      </trkpt>
      <trkpt lat="45.37682" lon="5.81432">
        <ele>1813</ele>
        <time>2012-07-21T06:29:31.1Z</time>
      </trkpt>
      <trkpt lat="45.37684" lon="5.81435">
        <ele>1812</ele>
        <time>2012-07-21T06:29:33.1Z</time>
      </trkpt>
      <trkpt lat="45.37686" lon="5.81435">
        <ele>1812</ele>
        <time>2012-07-21T06:29:35.1Z</time>
      </trkpt>
      <trkpt lat="45.37686" lon="5.81438">
        <ele>1812</ele>
        <time>2012-07-21T06:29:37.1Z</time>
      </trkpt>
      <trkpt lat="45.37687" lon="5.8144">
        <ele>1812</ele>
        <time>2012-07-21T06:29:39.1Z</time>
      </trkpt>
      <trkpt lat="45.37688" lon="5.81444">
        <ele>1811</ele>
        <time>2012-07-21T06:29:41.1Z</time>
      </trkpt>
      <trkpt lat="45.37689" lon="5.81447">
        <ele>1810</ele>
        <time>2012-07-21T06:29:43.1Z</time>
      </trkpt>
      <trkpt lat="45.37692" lon="5.81448">
        <ele>1809</ele>
        <time>2012-07-21T06:29:45.1Z</time>
      </trkpt>
      <trkpt lat="45.37695" lon="5.8145">
        <ele>1809</ele>
        <time>2012-07-21T06:29:47.1Z</time>
      </trkpt>
      <trkpt lat="45.37697" lon="5.81451">
        <ele>1808</ele>
        <time>2012-07-21T06:29:49.1Z</time>
      </trkpt>
      <trkpt lat="45.37698" lon="5.81454">
        <ele>1808</ele>
        <time>2012-07-21T06:29:51.1Z</time>
      </trkpt>
      <trkpt lat="45.377" lon="5.81454">
        <ele>1808</ele>
        <time>2012-07-21T06:29:53.1Z</time>
      </trkpt>
      <trkpt lat="45.37702" lon="5.81457">
        <ele>1808</ele>
        <time>2012-07-21T06:29:55.1Z</time>
      </trkpt>
      <trkpt lat="45.37703" lon="5.81457">
        <ele>1808</ele>
        <time>2012-07-21T06:29:57.1Z</time>
      </trkpt>
      <trkpt lat="45.37705" lon="5.81459">
        <ele>1808</ele>
        <time>2012-07-21T06:29:59.1Z</time>
      </trkpt>
      <trkpt lat="45.37706" lon="5.81459">
        <ele>1808</ele>
        <time>2012-07-21T06:30:02.1Z</time>
      </trkpt>
      <trkpt lat="45.37707" lon="5.8146">
        <ele>1808</ele>
        <time>2012-07-21T06:30:04.1Z</time>
      </trkpt>
      <trkpt lat="45.37708" lon="5.81461">
        <ele>1808</ele>
        <time>2012-07-21T06:30:06.1Z</time>
      </trkpt>
      <trkpt lat="45.37709" lon="5.81462">
        <ele>1808</ele>
        <time>2012-07-21T06:30:08.1Z</time>
      </trkpt>
      <trkpt lat="45.3771" lon="5.81464">
        <ele>1808</ele>
        <time>2012-07-21T06:30:10.1Z</time>
      </trkpt>
      <trkpt lat="45.37711" lon="5.81465">
        <ele>1807</ele>
        <time>2012-07-21T06:30:12.1Z</time>
      </trkpt>
      <trkpt lat="45.37711" lon="5.81466">
        <ele>1807</ele>
        <time>2012-07-21T06:30:14.1Z</time>
      </trkpt>
      <trkpt lat="45.37711" lon="5.81467">
        <ele>1807</ele>
        <time>2012-07-21T06:30:16.1Z</time>
      </trkpt>
      <trkpt lat="45.37712" lon="5.81469">
        <ele>1806</ele>
        <time>2012-07-21T06:30:18.1Z</time>
      </trkpt>
      <trkpt lat="45.37714" lon="5.81471">
        <ele>1806</ele>
        <time>2012-07-21T06:30:20.1Z</time>
      </trkpt>
      <trkpt lat="45.37715" lon="5.81472">
        <ele>1806</ele>
        <time>2012-07-21T06:30:22.1Z</time>
      </trkpt>
      <trkpt lat="45.37717" lon="5.81472">
        <ele>1806</ele>
        <time>2012-07-21T06:30:24.1Z</time>
      </trkpt>
      <trkpt lat="45.37718" lon="5.81471">
        <ele>1806</ele>
        <time>2012-07-21T06:30:26.1Z</time>
      </trkpt>
      <trkpt lat="45.3772" lon="5.81472">
        <ele>1805</ele>
        <time>2012-07-21T06:30:29.1Z</time>
      </trkpt>
      <trkpt lat="45.37721" lon="5.81473">
        <ele>1805</ele>
        <time>2012-07-21T06:30:31.1Z</time>
      </trkpt>
      <trkpt lat="45.37722" lon="5.81473">
        <ele>1805</ele>
        <time>2012-07-21T06:30:33.1Z</time>
      </trkpt>
      <trkpt lat="45.37723" lon="5.81473">
        <ele>1804</ele>
        <time>2012-07-21T06:30:35.1Z</time>
      </trkpt>
      <trkpt lat="45.37724" lon="5.81473">
        <ele>1804</ele>
        <time>2012-07-21T06:30:37.1Z</time>
      </trkpt>
      <trkpt lat="45.37726" lon="5.81473">
        <ele>1804</ele>
        <time>2012-07-21T06:30:39.1Z</time>
      </trkpt>
      <trkpt lat="45.37727" lon="5.81472">
        <ele>1803</ele>
        <time>2012-07-21T06:30:41.1Z</time>
      </trkpt>
      <trkpt lat="45.37729" lon="5.81473">
        <ele>1803</ele>
        <time>2012-07-21T06:30:43.1Z</time>
      </trkpt>
      <trkpt lat="45.3773" lon="5.81475">
        <ele>1802</ele>
        <time>2012-07-21T06:30:45.1Z</time>
      </trkpt>
      <trkpt lat="45.37731" lon="5.81477">
        <ele>1801</ele>
        <time>2012-07-21T06:30:48.1Z</time>
      </trkpt>
      <trkpt lat="45.37733" lon="5.81478">
        <ele>1800</ele>
        <time>2012-07-21T06:30:50.1Z</time>
      </trkpt>
      <trkpt lat="45.37734" lon="5.81479">
        <ele>1800</ele>
        <time>2012-07-21T06:30:52.1Z</time>
      </trkpt>
      <trkpt lat="45.37735" lon="5.81479">
        <ele>1800</ele>
        <time>2012-07-21T06:30:54.1Z</time>
      </trkpt>
      <trkpt lat="45.37736" lon="5.8148">
        <ele>1799</ele>
        <time>2012-07-21T06:30:56.1Z</time>
      </trkpt>
      <trkpt lat="45.37737" lon="5.8148">
        <ele>1798</ele>
        <time>2012-07-21T06:30:58.1Z</time>
      </trkpt>
      <trkpt lat="45.37738" lon="5.81482">
        <ele>1798</ele>
        <time>2012-07-21T06:31:00.1Z</time>
      </trkpt>
      <trkpt lat="45.3774" lon="5.81483">
        <ele>1797</ele>
        <time>2012-07-21T06:31:02.1Z</time>
      </trkpt>
      <trkpt lat="45.37742" lon="5.81484">
        <ele>1797</ele>
        <time>2012-07-21T06:31:04.1Z</time>
      </trkpt>
      <trkpt lat="45.37746" lon="5.81482">
        <ele>1796</ele>
        <time>2012-07-21T06:31:07.1Z</time>
      </trkpt>
      <trkpt lat="45.37751" lon="5.81482">
        <ele>1795</ele>
        <time>2012-07-21T06:31:09.1Z</time>
      </trkpt>
      <trkpt lat="45.37755" lon="5.81482">
        <ele>1794</ele>
        <time>2012-07-21T06:31:11.1Z</time>
      </trkpt>
      <trkpt lat="45.37759" lon="5.81482">
        <ele>1793</ele>
        <time>2012-07-21T06:31:13.1Z</time>
      </trkpt>
      <trkpt lat="45.37762" lon="5.81481">
        <ele>1793</ele>
        <time>2012-07-21T06:31:15.1Z</time>
      </trkpt>
      <trkpt lat="45.37763" lon="5.8148">
        <ele>1793</ele>
        <time>2012-07-21T06:31:17.1Z</time>
      </trkpt>
      <trkpt lat="45.37765" lon="5.8148">
        <ele>1792</ele>
        <time>2012-07-21T06:31:19.1Z</time>
      </trkpt>
      <trkpt lat="45.37767" lon="5.81481">
        <ele>1792</ele>
        <time>2012-07-21T06:31:22.1Z</time>
      </trkpt>
      <trkpt lat="45.37769" lon="5.81482">
        <ele>1791</ele>
        <time>2012-07-21T06:31:24.1Z</time>
      </trkpt>
      <trkpt lat="45.37769" lon="5.81482">
        <ele>1790</ele>
        <time>2012-07-21T06:31:26.1Z</time>
      </trkpt>
      <trkpt lat="45.3777" lon="5.81482">
        <ele>1790</ele>
        <time>2012-07-21T06:31:28.1Z</time>
      </trkpt>
      <trkpt lat="45.37772" lon="5.81483">
        <ele>1789</ele>
        <time>2012-07-21T06:31:30.1Z</time>
      </trkpt>
      <trkpt lat="45.37772" lon="5.81484">
        <ele>1789</ele>
        <time>2012-07-21T06:31:32.1Z</time>
      </trkpt>
      <trkpt lat="45.37773" lon="5.81485">
        <ele>1788</ele>
        <time>2012-07-21T06:31:34.1Z</time>
      </trkpt>
      <trkpt lat="45.37774" lon="5.81486">
        <ele>1787</ele>
        <time>2012-07-21T06:31:36.1Z</time>
      </trkpt>
      <trkpt lat="45.37776" lon="5.81486">
        <ele>1787</ele>
        <time>2012-07-21T06:31:38.1Z</time>
      </trkpt>
      <trkpt lat="45.37777" lon="5.81488">
        <ele>1786</ele>
        <time>2012-07-21T06:31:41.1Z</time>
      </trkpt>
      <trkpt lat="45.3778" lon="5.81491">
        <ele>1786</ele>
        <time>2012-07-21T06:31:43.1Z</time>
      </trkpt>
      <trkpt lat="45.37783" lon="5.81491">
        <ele>1785</ele>
        <time>2012-07-21T06:31:45.1Z</time>
      </trkpt>
      <trkpt lat="45.37786" lon="5.8149">
        <ele>1784</ele>
        <time>2012-07-21T06:31:47.1Z</time>
      </trkpt>
      <trkpt lat="45.37788" lon="5.8149">
        <ele>1783</ele>
        <time>2012-07-21T06:31:49.1Z</time>
      </trkpt>
      <trkpt lat="45.37792" lon="5.81488">
        <ele>1782</ele>
        <time>2012-07-21T06:31:51.1Z</time>
      </trkpt>
      <trkpt lat="45.37796" lon="5.81488">
        <ele>1781</ele>
        <time>2012-07-21T06:31:53.1Z</time>
      </trkpt>
      <trkpt lat="45.378" lon="5.81488">
        <ele>1781</ele>
        <time>2012-07-21T06:31:55.1Z</time>
      </trkpt>
      <trkpt lat="45.37802" lon="5.81487">
        <ele>1779</ele>
        <time>2012-07-21T06:31:58.1Z</time>
      </trkpt>
      <trkpt lat="45.37805" lon="5.81485">
        <ele>1779</ele>
        <time>2012-07-21T06:32:00.1Z</time>
      </trkpt>
      <trkpt lat="45.37809" lon="5.81485">
        <ele>1779</ele>
        <time>2012-07-21T06:32:02.1Z</time>
      </trkpt>
      <trkpt lat="45.37812" lon="5.81485">
        <ele>1779</ele>
        <time>2012-07-21T06:32:04.1Z</time>
      </trkpt>
      <trkpt lat="45.37814" lon="5.81485">
        <ele>1779</ele>
        <time>2012-07-21T06:32:06.1Z</time>
      </trkpt>
      <trkpt lat="45.37816" lon="5.81483">
        <ele>1779</ele>
        <time>2012-07-21T06:32:08.1Z</time>
      </trkpt>
      <trkpt lat="45.37818" lon="5.81483">
        <ele>1779</ele>
        <time>2012-07-21T06:32:10.1Z</time>
      </trkpt>
      <trkpt lat="45.3782" lon="5.81483">
        <ele>1778</ele>
        <time>2012-07-21T06:32:12.1Z</time>
      </trkpt>
      <trkpt lat="45.37822" lon="5.81482">
        <ele>1778</ele>
        <time>2012-07-21T06:32:15.1Z</time>
      </trkpt>
      <trkpt lat="45.37824" lon="5.81481">
        <ele>1778</ele>
        <time>2012-07-21T06:32:17.1Z</time>
      </trkpt>
      <trkpt lat="45.37826" lon="5.8148">
        <ele>1777</ele>
        <time>2012-07-21T06:32:19.1Z</time>
      </trkpt>
      <trkpt lat="45.37828" lon="5.81478">
        <ele>1777</ele>
        <time>2012-07-21T06:32:21.1Z</time>
      </trkpt>
      <trkpt lat="45.3783" lon="5.81477">
        <ele>1777</ele>
        <time>2012-07-21T06:32:23.1Z</time>
      </trkpt>
      <trkpt lat="45.37832" lon="5.81477">
        <ele>1777</ele>
        <time>2012-07-21T06:32:25.1Z</time>
      </trkpt>
      <trkpt lat="45.37834" lon="5.81477">
        <ele>1776</ele>
        <time>2012-07-21T06:32:27.1Z</time>
      </trkpt>
      <trkpt lat="45.37837" lon="5.81477">
        <ele>1775</ele>
        <time>2012-07-21T06:32:29.1Z</time>
      </trkpt>
      <trkpt lat="45.3784" lon="5.81477">
        <ele>1775</ele>
        <time>2012-07-21T06:32:32.1Z</time>
      </trkpt>
      <trkpt lat="45.37846" lon="5.81475">
        <ele>1775</ele>
        <time>2012-07-21T06:32:34.1Z</time>
      </trkpt>
      <trkpt lat="45.37851" lon="5.81473">
        <ele>1775</ele>
        <time>2012-07-21T06:32:36.1Z</time>
      </trkpt>
      <trkpt lat="45.37854" lon="5.81472">
        <ele>1775</ele>
        <time>2012-07-21T06:32:38.1Z</time>
      </trkpt>
      <trkpt lat="45.37858" lon="5.81469">
        <ele>1775</ele>
        <time>2012-07-21T06:32:40.1Z</time>
      </trkpt>
      <trkpt lat="45.37862" lon="5.81466">
        <ele>1775</ele>
        <time>2012-07-21T06:32:42.1Z</time>
      </trkpt>
      <trkpt lat="45.37865" lon="5.81465">
        <ele>1775</ele>
        <time>2012-07-21T06:32:44.1Z</time>
      </trkpt>
      <trkpt lat="45.37867" lon="5.81464">
        <ele>1775</ele>
        <time>2012-07-21T06:32:47.1Z</time>
      </trkpt>
      <trkpt lat="45.37867" lon="5.81464">
        <ele>1775</ele>
        <time>2012-07-21T06:32:49.1Z</time>
      </trkpt>
      <trkpt lat="45.37867" lon="5.81464">
        <ele>1775</ele>
        <time>2012-07-21T06:32:51.1Z</time>
      </trkpt>
      <trkpt lat="45.37867" lon="5.81464">
        <ele>1775</ele>
        <time>2012-07-21T06:32:53.1Z</time>
      </trkpt>
      <trkpt lat="45.37866" lon="5.81465">
        <ele>1775</ele>
        <time>2012-07-21T06:32:55.1Z</time>
      </trkpt>
      <trkpt lat="45.37866" lon="5.81465">
        <ele>1775</ele>
        <time>2012-07-21T06:32:57.1Z</time>
      </trkpt>
      <trkpt lat="45.37866" lon="5.81465">
        <ele>1775</ele>
        <time>2012-07-21T06:32:59.1Z</time>
      </trkpt>
      <trkpt lat="45.37866" lon="5.81465">
        <ele>1775</ele>
        <time>2012-07-21T06:33:01.1Z</time>
      </trkpt>
      <trkpt lat="45.37866" lon="5.81465">
        <ele>1775</ele>
        <time>2012-07-21T06:33:03.1Z</time>
      </trkpt>
      <trkpt lat="45.37866" lon="5.81465">
        <ele>1775</ele>
        <time>2012-07-21T06:33:06.1Z</time>
      </trkpt>
      <trkpt lat="45.37866" lon="5.81465">
        <ele>1775</ele>
        <time>2012-07-21T06:33:08.1Z</time>
      </trkpt>
      <trkpt lat="45.37867" lon="5.81465">
        <ele>1775</ele>
        <time>2012-07-21T06:33:10.1Z</time>
      </trkpt>
      <trkpt lat="45.37867" lon="5.81464">
        <ele>1775</ele>
        <time>2012-07-21T06:33:12.1Z</time>
      </trkpt>
      <trkpt lat="45.37868" lon="5.81462">
        <ele>1775</ele>
        <time>2012-07-21T06:33:14.1Z</time>
      </trkpt>
      <trkpt lat="45.37871" lon="5.81461">
        <ele>1775</ele>
        <time>2012-07-21T06:33:16.1Z</time>
      </trkpt>
      <trkpt lat="45.37874" lon="5.81461">
        <ele>1775</ele>
        <time>2012-07-21T06:33:18.1Z</time>
      </trkpt>
      <trkpt lat="45.37877" lon="5.81461">
        <ele>1775</ele>
        <time>2012-07-21T06:33:20.1Z</time>
      </trkpt>
      <trkpt lat="45.37879" lon="5.81461">
        <ele>1775</ele>
        <time>2012-07-21T06:33:22.1Z</time>
      </trkpt>
      <trkpt lat="45.3788" lon="5.81462">
        <ele>1774</ele>
        <time>2012-07-21T06:33:24.1Z</time>
      </trkpt>
      <trkpt lat="45.37882" lon="5.81463">
        <ele>1774</ele>
        <time>2012-07-21T06:33:26.1Z</time>
      </trkpt>
      <trkpt lat="45.37886" lon="5.81465">
        <ele>1773</ele>
        <time>2012-07-21T06:33:28.1Z</time>
      </trkpt>
      <trkpt lat="45.37891" lon="5.81466">
        <ele>1773</ele>
        <time>2012-07-21T06:33:30.1Z</time>
      </trkpt>
      <trkpt lat="45.37896" lon="5.81465">
        <ele>1773</ele>
        <time>2012-07-21T06:33:32.1Z</time>
      </trkpt>
      <trkpt lat="45.37901" lon="5.81464">
        <ele>1773</ele>
        <time>2012-07-21T06:33:35.1Z</time>
      </trkpt>
      <trkpt lat="45.37904" lon="5.81466">
        <ele>1773</ele>
        <time>2012-07-21T06:33:37.1Z</time>
      </trkpt>
      <trkpt lat="45.37907" lon="5.81469">
        <ele>1773</ele>
        <time>2012-07-21T06:33:39.1Z</time>
      </trkpt>
      <trkpt lat="45.37908" lon="5.81473">
        <ele>1773</ele>
        <time>2012-07-21T06:33:41.1Z</time>
      </trkpt>
      <trkpt lat="45.37911" lon="5.81476">
        <ele>1773</ele>
        <time>2012-07-21T06:33:43.1Z</time>
      </trkpt>
      <trkpt lat="45.37915" lon="5.81478">
        <ele>1774</ele>
        <time>2012-07-21T06:33:45.1Z</time>
      </trkpt>
      <trkpt lat="45.37917" lon="5.81479">
        <ele>1774</ele>
        <time>2012-07-21T06:33:47.1Z</time>
      </trkpt>
      <trkpt lat="45.37919" lon="5.8148">
        <ele>1775</ele>
        <time>2012-07-21T06:33:49.1Z</time>
      </trkpt>
      <trkpt lat="45.37922" lon="5.81481">
        <ele>1775</ele>
        <time>2012-07-21T06:33:51.1Z</time>
      </trkpt>
      <trkpt lat="45.37925" lon="5.81482">
        <ele>1776</ele>
        <time>2012-07-21T06:33:53.1Z</time>
      </trkpt>
      <trkpt lat="45.37928" lon="5.81482">
        <ele>1776</ele>
        <time>2012-07-21T06:33:55.1Z</time>
      </trkpt>
      <trkpt lat="45.37932" lon="5.81484">
        <ele>1775</ele>
        <time>2012-07-21T06:33:57.1Z</time>
      </trkpt>
      <trkpt lat="45.37934" lon="5.81488">
        <ele>1775</ele>
        <time>2012-07-21T06:33:59.1Z</time>
      </trkpt>
      <trkpt lat="45.37937" lon="5.8149">
        <ele>1774</ele>
        <time>2012-07-21T06:34:01.1Z</time>
      </trkpt>
      <trkpt lat="45.37941" lon="5.81491">
        <ele>1774</ele>
        <time>2012-07-21T06:34:04.1Z</time>
      </trkpt>
      <trkpt lat="45.37944" lon="5.81491">
        <ele>1774</ele>
        <time>2012-07-21T06:34:06.1Z</time>
      </trkpt>
      <trkpt lat="45.37946" lon="5.81492">
        <ele>1774</ele>
        <time>2012-07-21T06:34:08.1Z</time>
      </trkpt>
      <trkpt lat="45.37949" lon="5.81492">
        <ele>1774</ele>
        <time>2012-07-21T06:34:10.1Z</time>
      </trkpt>
      <trkpt lat="45.37951" lon="5.81494">
        <ele>1773</ele>
        <time>2012-07-21T06:34:12.1Z</time>
      </trkpt>
      <trkpt lat="45.37953" lon="5.81494">
        <ele>1773</ele>
        <time>2012-07-21T06:34:14.1Z</time>
      </trkpt>
      <trkpt lat="45.37955" lon="5.81495">
        <ele>1773</ele>
        <time>2012-07-21T06:34:16.1Z</time>
      </trkpt>
      <trkpt lat="45.37957" lon="5.81496">
        <ele>1773</ele>
        <time>2012-07-21T06:34:18.1Z</time>
      </trkpt>
      <trkpt lat="45.37958" lon="5.81498">
        <ele>1772</ele>
        <time>2012-07-21T06:34:20.1Z</time>
      </trkpt>
      <trkpt lat="45.37959" lon="5.81502">
        <ele>1772</ele>
        <time>2012-07-21T06:34:23.1Z</time>
      </trkpt>
      <trkpt lat="45.3796" lon="5.81505">
        <ele>1771</ele>
        <time>2012-07-21T06:34:25.1Z</time>
      </trkpt>
      <trkpt lat="45.37961" lon="5.81506">
        <ele>1771</ele>
        <time>2012-07-21T06:34:27.1Z</time>
      </trkpt>
      <trkpt lat="45.37961" lon="5.81507">
        <ele>1770</ele>
        <time>2012-07-21T06:34:29.1Z</time>
      </trkpt>
      <trkpt lat="45.37964" lon="5.81509">
        <ele>1770</ele>
        <time>2012-07-21T06:34:31.1Z</time>
      </trkpt>
      <trkpt lat="45.37965" lon="5.81509">
        <ele>1769</ele>
        <time>2012-07-21T06:34:33.1Z</time>
      </trkpt>
      <trkpt lat="45.37966" lon="5.8151">
        <ele>1769</ele>
        <time>2012-07-21T06:34:35.1Z</time>
      </trkpt>
      <trkpt lat="45.37968" lon="5.81512">
        <ele>1768</ele>
        <time>2012-07-21T06:34:37.1Z</time>
      </trkpt>
      <trkpt lat="45.37969" lon="5.81513">
        <ele>1768</ele>
        <time>2012-07-21T06:34:39.1Z</time>
      </trkpt>
      <trkpt lat="45.37972" lon="5.81513">
        <ele>1768</ele>
        <time>2012-07-21T06:34:41.1Z</time>
      </trkpt>
      <trkpt lat="45.37973" lon="5.81512">
        <ele>1767</ele>
        <time>2012-07-21T06:34:44.1Z</time>
      </trkpt>
      <trkpt lat="45.37975" lon="5.81512">
        <ele>1767</ele>
        <time>2012-07-21T06:34:46.1Z</time>
      </trkpt>
      <trkpt lat="45.37977" lon="5.81511">
        <ele>1767</ele>
        <time>2012-07-21T06:34:48.1Z</time>
      </trkpt>
      <trkpt lat="45.37976" lon="5.81512">
        <ele>1766</ele>
        <time>2012-07-21T06:34:50.1Z</time>
      </trkpt>
      <trkpt lat="45.37977" lon="5.81512">
        <ele>1766</ele>
        <time>2012-07-21T06:34:52.1Z</time>
      </trkpt>
      <trkpt lat="45.37977" lon="5.81509">
        <ele>1765</ele>
        <time>2012-07-21T06:34:54.1Z</time>
      </trkpt>
      <trkpt lat="45.37977" lon="5.81507">
        <ele>1764</ele>
        <time>2012-07-21T06:34:56.1Z</time>
      </trkpt>
      <trkpt lat="45.37977" lon="5.81503">
        <ele>1764</ele>
        <time>2012-07-21T06:34:58.1Z</time>
      </trkpt>
      <trkpt lat="45.3798" lon="5.81498">
        <ele>1763</ele>
        <time>2012-07-21T06:35:01.1Z</time>
      </trkpt>
      <trkpt lat="45.37984" lon="5.81496">
        <ele>1763</ele>
        <time>2012-07-21T06:35:03.1Z</time>
      </trkpt>
      <trkpt lat="45.37986" lon="5.81493">
        <ele>1762</ele>
        <time>2012-07-21T06:35:05.1Z</time>
      </trkpt>
      <trkpt lat="45.37989" lon="5.81492">
        <ele>1761</ele>
        <time>2012-07-21T06:35:07.1Z</time>
      </trkpt>
      <trkpt lat="45.37991" lon="5.81494">
        <ele>1761</ele>
        <time>2012-07-21T06:35:09.1Z</time>
      </trkpt>
      <trkpt lat="45.37994" lon="5.81495">
        <ele>1760</ele>
        <time>2012-07-21T06:35:11.1Z</time>
      </trkpt>
      <trkpt lat="45.37998" lon="5.81496">
        <ele>1759</ele>
        <time>2012-07-21T06:35:13.1Z</time>
      </trkpt>
      <trkpt lat="45.38002" lon="5.81497">
        <ele>1759</ele>
        <time>2012-07-21T06:35:15.1Z</time>
      </trkpt>
      <trkpt lat="45.38005" lon="5.81498">
        <ele>1758</ele>
        <time>2012-07-21T06:35:17.1Z</time>
      </trkpt>
      <trkpt lat="45.3801" lon="5.81498">
        <ele>1757</ele>
        <time>2012-07-21T06:35:19.1Z</time>
      </trkpt>
      <trkpt lat="45.38014" lon="5.81499">
        <ele>1756</ele>
        <time>2012-07-21T06:35:21.1Z</time>
      </trkpt>
      <trkpt lat="45.38017" lon="5.815">
        <ele>1756</ele>
        <time>2012-07-21T06:35:23.1Z</time>
      </trkpt>
      <trkpt lat="45.38019" lon="5.81497">
        <ele>1756</ele>
        <time>2012-07-21T06:35:25.1Z</time>
      </trkpt>
      <trkpt lat="45.3802" lon="5.81489">
        <ele>1755</ele>
        <time>2012-07-21T06:35:27.1Z</time>
      </trkpt>
      <trkpt lat="45.38023" lon="5.81485">
        <ele>1754</ele>
        <time>2012-07-21T06:35:29.1Z</time>
      </trkpt>
      <trkpt lat="45.38026" lon="5.81486">
        <ele>1753</ele>
        <time>2012-07-21T06:35:32.1Z</time>
      </trkpt>
      <trkpt lat="45.38028" lon="5.81489">
        <ele>1752</ele>
        <time>2012-07-21T06:35:34.1Z</time>
      </trkpt>
      <trkpt lat="45.38034" lon="5.8149">
        <ele>1751</ele>
        <time>2012-07-21T06:35:36.1Z</time>
      </trkpt>
      <trkpt lat="45.3804" lon="5.81491">
        <ele>1750</ele>
        <time>2012-07-21T06:35:38.1Z</time>
      </trkpt>
      <trkpt lat="45.38044" lon="5.81495">
        <ele>1749</ele>
        <time>2012-07-21T06:35:40.1Z</time>
      </trkpt>
      <trkpt lat="45.38047" lon="5.81498">
        <ele>1748</ele>
        <time>2012-07-21T06:35:42.1Z</time>
      </trkpt>
      <trkpt lat="45.3805" lon="5.815">
        <ele>1746</ele>
        <time>2012-07-21T06:35:44.1Z</time>
      </trkpt>
      <trkpt lat="45.38052" lon="5.81502">
        <ele>1746</ele>
        <time>2012-07-21T06:35:46.1Z</time>
      </trkpt>
      <trkpt lat="45.38054" lon="5.81505">
        <ele>1744</ele>
        <time>2012-07-21T06:35:48.1Z</time>
      </trkpt>
      <trkpt lat="45.38057" lon="5.81507">
        <ele>1744</ele>
        <time>2012-07-21T06:35:51.1Z</time>
      </trkpt>
      <trkpt lat="45.38063" lon="5.8151">
        <ele>1743</ele>
        <time>2012-07-21T06:35:53.1Z</time>
      </trkpt>
      <trkpt lat="45.38066" lon="5.81509">
        <ele>1742</ele>
        <time>2012-07-21T06:35:55.1Z</time>
      </trkpt>
      <trkpt lat="45.38069" lon="5.8151">
        <ele>1742</ele>
        <time>2012-07-21T06:35:57.1Z</time>
      </trkpt>
      <trkpt lat="45.3807" lon="5.81509">
        <ele>1741</ele>
        <time>2012-07-21T06:35:59.1Z</time>
      </trkpt>
      <trkpt lat="45.38072" lon="5.81508">
        <ele>1740</ele>
        <time>2012-07-21T06:36:01.1Z</time>
      </trkpt>
      <trkpt lat="45.38071" lon="5.81507">
        <ele>1740</ele>
        <time>2012-07-21T06:36:03.1Z</time>
      </trkpt>
      <trkpt lat="45.38071" lon="5.81507">
        <ele>1739</ele>
        <time>2012-07-21T06:36:05.1Z</time>
      </trkpt>
      <trkpt lat="45.38071" lon="5.81507">
        <ele>1739</ele>
        <time>2012-07-21T06:36:07.1Z</time>
      </trkpt>
      <trkpt lat="45.38071" lon="5.81508">
        <ele>1739</ele>
        <time>2012-07-21T06:36:09.1Z</time>
      </trkpt>
      <trkpt lat="45.38071" lon="5.81508">
        <ele>1738</ele>
        <time>2012-07-21T06:36:11.1Z</time>
      </trkpt>
      <trkpt lat="45.38072" lon="5.81509">
        <ele>1738</ele>
        <time>2012-07-21T06:36:13.1Z</time>
      </trkpt>
      <trkpt lat="45.38073" lon="5.8151">
        <ele>1739</ele>
        <time>2012-07-21T06:36:15.1Z</time>
      </trkpt>
      <trkpt lat="45.38073" lon="5.81511">
        <ele>1739</ele>
        <time>2012-07-21T06:36:17.1Z</time>
      </trkpt>
      <trkpt lat="45.38072" lon="5.81513">
        <ele>1739</ele>
        <time>2012-07-21T06:36:19.1Z</time>
      </trkpt>
      <trkpt lat="45.38071" lon="5.81514">
        <ele>1739</ele>
        <time>2012-07-21T06:36:21.1Z</time>
      </trkpt>
      <trkpt lat="45.38071" lon="5.81514">
        <ele>1740</ele>
        <time>2012-07-21T06:36:23.1Z</time>
      </trkpt>
      <trkpt lat="45.3807" lon="5.81514">
        <ele>1740</ele>
        <time>2012-07-21T06:36:26.1Z</time>
      </trkpt>
      <trkpt lat="45.3807" lon="5.81514">
        <ele>1740</ele>
        <time>2012-07-21T06:36:28.1Z</time>
      </trkpt>
      <trkpt lat="45.3807" lon="5.81516">
        <ele>1740</ele>
        <time>2012-07-21T06:36:30.1Z</time>
      </trkpt>
      <trkpt lat="45.38069" lon="5.81518">
        <ele>1740</ele>
        <time>2012-07-21T06:36:32.1Z</time>
      </trkpt>
      <trkpt lat="45.3807" lon="5.81521">
        <ele>1741</ele>
        <time>2012-07-21T06:36:34.1Z</time>
      </trkpt>
      <trkpt lat="45.38072" lon="5.81523">
        <ele>1741</ele>
        <time>2012-07-21T06:36:36.1Z</time>
      </trkpt>
      <trkpt lat="45.38075" lon="5.81527">
        <ele>1742</ele>
        <time>2012-07-21T06:36:38.1Z</time>
      </trkpt>
      <trkpt lat="45.38077" lon="5.81529">
        <ele>1743</ele>
        <time>2012-07-21T06:36:40.1Z</time>
      </trkpt>
      <trkpt lat="45.38078" lon="5.8153">
        <ele>1743</ele>
        <time>2012-07-21T06:36:42.1Z</time>
      </trkpt>
      <trkpt lat="45.38079" lon="5.81531">
        <ele>1744</ele>
        <time>2012-07-21T06:36:45.1Z</time>
      </trkpt>
      <trkpt lat="45.38079" lon="5.81532">
        <ele>1744</ele>
        <time>2012-07-21T06:36:47.1Z</time>
      </trkpt>
      <trkpt lat="45.3808" lon="5.81534">
        <ele>1744</ele>
        <time>2012-07-21T06:36:49.1Z</time>
      </trkpt>
      <trkpt lat="45.38082" lon="5.81536">
        <ele>1744</ele>
        <time>2012-07-21T06:36:51.1Z</time>
      </trkpt>
      <trkpt lat="45.38084" lon="5.81537">
        <ele>1744</ele>
        <time>2012-07-21T06:36:53.1Z</time>
      </trkpt>
      <trkpt lat="45.38087" lon="5.81538">
        <ele>1744</ele>
        <time>2012-07-21T06:36:55.1Z</time>
      </trkpt>
      <trkpt lat="45.3809" lon="5.8154">
        <ele>1745</ele>
        <time>2012-07-21T06:36:57.1Z</time>
      </trkpt>
      <trkpt lat="45.38093" lon="5.8154">
        <ele>1745</ele>
        <time>2012-07-21T06:36:59.1Z</time>
      </trkpt>
      <trkpt lat="45.38096" lon="5.8154">
        <ele>1745</ele>
        <time>2012-07-21T06:37:01.1Z</time>
      </trkpt>
      <trkpt lat="45.38102" lon="5.8154">
        <ele>1745</ele>
        <time>2012-07-21T06:37:04.1Z</time>
      </trkpt>
      <trkpt lat="45.38108" lon="5.81539">
        <ele>1745</ele>
        <time>2012-07-21T06:37:06.1Z</time>
      </trkpt>
      <trkpt lat="45.38112" lon="5.81538">
        <ele>1745</ele>
        <time>2012-07-21T06:37:08.1Z</time>
      </trkpt>
      <trkpt lat="45.38116" lon="5.81536">
        <ele>1745</ele>
        <time>2012-07-21T06:37:10.1Z</time>
      </trkpt>
      <trkpt lat="45.3812" lon="5.81537">
        <ele>1745</ele>
        <time>2012-07-21T06:37:12.1Z</time>
      </trkpt>
      <trkpt lat="45.38124" lon="5.81538">
        <ele>1745</ele>
        <time>2012-07-21T06:37:14.1Z</time>
      </trkpt>
      <trkpt lat="45.38126" lon="5.8154">
        <ele>1745</ele>
        <time>2012-07-21T06:37:16.1Z</time>
      </trkpt>
      <trkpt lat="45.38126" lon="5.81542">
        <ele>1745</ele>
        <time>2012-07-21T06:37:18.1Z</time>
      </trkpt>
      <trkpt lat="45.38127" lon="5.81545">
        <ele>1745</ele>
        <time>2012-07-21T06:37:20.1Z</time>
      </trkpt>
      <trkpt lat="45.38129" lon="5.81546">
        <ele>1745</ele>
        <time>2012-07-21T06:37:22.1Z</time>
      </trkpt>
      <trkpt lat="45.38129" lon="5.81548">
        <ele>1746</ele>
        <time>2012-07-21T06:37:24.1Z</time>
      </trkpt>
      <trkpt lat="45.38131" lon="5.81549">
        <ele>1746</ele>
        <time>2012-07-21T06:37:26.1Z</time>
      </trkpt>
      <trkpt lat="45.38132" lon="5.81551">
        <ele>1746</ele>
        <time>2012-07-21T06:37:28.1Z</time>
      </trkpt>
      <trkpt lat="45.38134" lon="5.81552">
        <ele>1746</ele>
        <time>2012-07-21T06:37:30.1Z</time>
      </trkpt>
      <trkpt lat="45.38137" lon="5.81554">
        <ele>1746</ele>
        <time>2012-07-21T06:37:32.1Z</time>
      </trkpt>
      <trkpt lat="45.3814" lon="5.81555">
        <ele>1746</ele>
        <time>2012-07-21T06:37:34.1Z</time>
      </trkpt>
      <trkpt lat="45.38142" lon="5.81556">
        <ele>1745</ele>
        <time>2012-07-21T06:37:36.1Z</time>
      </trkpt>
      <trkpt lat="45.38142" lon="5.81554">
        <ele>1745</ele>
        <time>2012-07-21T06:37:38.1Z</time>
      </trkpt>
      <trkpt lat="45.38142" lon="5.8155">
        <ele>1745</ele>
        <time>2012-07-21T06:37:41.1Z</time>
      </trkpt>
      <trkpt lat="45.38142" lon="5.81547">
        <ele>1743</ele>
        <time>2012-07-21T06:37:43.1Z</time>
      </trkpt>
      <trkpt lat="45.38144" lon="5.81545">
        <ele>1742</ele>
        <time>2012-07-21T06:37:45.1Z</time>
      </trkpt>
      <trkpt lat="45.38147" lon="5.81546">
        <ele>1741</ele>
        <time>2012-07-21T06:37:47.1Z</time>
      </trkpt>
      <trkpt lat="45.38149" lon="5.81548">
        <ele>1740</ele>
        <time>2012-07-21T06:37:49.1Z</time>
      </trkpt>
      <trkpt lat="45.38152" lon="5.81551">
        <ele>1739</ele>
        <time>2012-07-21T06:37:51.1Z</time>
      </trkpt>
      <trkpt lat="45.38154" lon="5.81553">
        <ele>1738</ele>
        <time>2012-07-21T06:37:53.1Z</time>
      </trkpt>
      <trkpt lat="45.38156" lon="5.81556">
        <ele>1738</ele>
        <time>2012-07-21T06:37:56.1Z</time>
      </trkpt>
      <trkpt lat="45.38158" lon="5.81559">
        <ele>1738</ele>
        <time>2012-07-21T06:37:58.1Z</time>
      </trkpt>
      <trkpt lat="45.3816" lon="5.8156">
        <ele>1737</ele>
        <time>2012-07-21T06:38:00.1Z</time>
      </trkpt>
      <trkpt lat="45.38161" lon="5.81561">
        <ele>1736</ele>
        <time>2012-07-21T06:38:02.1Z</time>
      </trkpt>
      <trkpt lat="45.38163" lon="5.81562">
        <ele>1735</ele>
        <time>2012-07-21T06:38:04.1Z</time>
      </trkpt>
      <trkpt lat="45.38163" lon="5.81562">
        <ele>1733</ele>
        <time>2012-07-21T06:38:06.1Z</time>
      </trkpt>
      <trkpt lat="45.38165" lon="5.81562">
        <ele>1733</ele>
        <time>2012-07-21T06:38:08.1Z</time>
      </trkpt>
      <trkpt lat="45.38165" lon="5.81563">
        <ele>1732</ele>
        <time>2012-07-21T06:38:10.1Z</time>
      </trkpt>
      <trkpt lat="45.38168" lon="5.81565">
        <ele>1731</ele>
        <time>2012-07-21T06:38:12.1Z</time>
      </trkpt>
      <trkpt lat="45.38169" lon="5.81565">
        <ele>1730</ele>
        <time>2012-07-21T06:38:14.1Z</time>
      </trkpt>
      <trkpt lat="45.38172" lon="5.81567">
        <ele>1729</ele>
        <time>2012-07-21T06:38:17.1Z</time>
      </trkpt>
      <trkpt lat="45.38173" lon="5.81569">
        <ele>1728</ele>
        <time>2012-07-21T06:38:19.1Z</time>
      </trkpt>
      <trkpt lat="45.38176" lon="5.81569">
        <ele>1727</ele>
        <time>2012-07-21T06:38:21.1Z</time>
      </trkpt>
      <trkpt lat="45.38177" lon="5.81569">
        <ele>1726</ele>
        <time>2012-07-21T06:38:23.1Z</time>
      </trkpt>
      <trkpt lat="45.38179" lon="5.8157">
        <ele>1725</ele>
        <time>2012-07-21T06:38:25.1Z</time>
      </trkpt>
      <trkpt lat="45.3818" lon="5.8157">
        <ele>1724</ele>
        <time>2012-07-21T06:38:27.1Z</time>
      </trkpt>
      <trkpt lat="45.38182" lon="5.81571">
        <ele>1724</ele>
        <time>2012-07-21T06:38:29.1Z</time>
      </trkpt>
      <trkpt lat="45.38186" lon="5.81571">
        <ele>1723</ele>
        <time>2012-07-21T06:38:31.1Z</time>
      </trkpt>
      <trkpt lat="45.38188" lon="5.81571">
        <ele>1722</ele>
        <time>2012-07-21T06:38:33.1Z</time>
      </trkpt>
      <trkpt lat="45.38191" lon="5.81572">
        <ele>1721</ele>
        <time>2012-07-21T06:38:35.1Z</time>
      </trkpt>
      <trkpt lat="45.38193" lon="5.81573">
        <ele>1720</ele>
        <time>2012-07-21T06:38:37.1Z</time>
      </trkpt>
      <trkpt lat="45.38198" lon="5.81574">
        <ele>1719</ele>
        <time>2012-07-21T06:38:40.1Z</time>
      </trkpt>
      <trkpt lat="45.38201" lon="5.81573">
        <ele>1718</ele>
        <time>2012-07-21T06:38:42.1Z</time>
      </trkpt>
      <trkpt lat="45.38204" lon="5.81574">
        <ele>1717</ele>
        <time>2012-07-21T06:38:44.1Z</time>
      </trkpt>
      <trkpt lat="45.38207" lon="5.81576">
        <ele>1716</ele>
        <time>2012-07-21T06:38:46.1Z</time>
      </trkpt>
      <trkpt lat="45.38212" lon="5.81578">
        <ele>1716</ele>
        <time>2012-07-21T06:38:48.1Z</time>
      </trkpt>
      <trkpt lat="45.38215" lon="5.8158">
        <ele>1715</ele>
        <time>2012-07-21T06:38:50.1Z</time>
      </trkpt>
      <trkpt lat="45.38217" lon="5.81581">
        <ele>1714</ele>
        <time>2012-07-21T06:38:52.1Z</time>
      </trkpt>
      <trkpt lat="45.38221" lon="5.81581">
        <ele>1712</ele>
        <time>2012-07-21T06:38:54.1Z</time>
      </trkpt>
      <trkpt lat="45.38224" lon="5.81583">
        <ele>1711</ele>
        <time>2012-07-21T06:38:56.1Z</time>
      </trkpt>
      <trkpt lat="45.38227" lon="5.81585">
        <ele>1710</ele>
        <time>2012-07-21T06:38:58.1Z</time>
      </trkpt>
      <trkpt lat="45.38229" lon="5.81587">
        <ele>1710</ele>
        <time>2012-07-21T06:39:01.1Z</time>
      </trkpt>
      <trkpt lat="45.38232" lon="5.81587">
        <ele>1709</ele>
        <time>2012-07-21T06:39:03.1Z</time>
      </trkpt>
      <trkpt lat="45.38236" lon="5.81589">
        <ele>1708</ele>
        <time>2012-07-21T06:39:05.1Z</time>
      </trkpt>
      <trkpt lat="45.38238" lon="5.81591">
        <ele>1707</ele>
        <time>2012-07-21T06:39:07.1Z</time>
      </trkpt>
      <trkpt lat="45.38241" lon="5.81593">
        <ele>1706</ele>
        <time>2012-07-21T06:39:09.1Z</time>
      </trkpt>
      <trkpt lat="45.38243" lon="5.81594">
        <ele>1705</ele>
        <time>2012-07-21T06:39:11.1Z</time>
      </trkpt>
      <trkpt lat="45.38245" lon="5.81595">
        <ele>1704</ele>
        <time>2012-07-21T06:39:13.1Z</time>
      </trkpt>
      <trkpt lat="45.38247" lon="5.81595">
        <ele>1703</ele>
        <time>2012-07-21T06:39:15.1Z</time>
      </trkpt>
      <trkpt lat="45.38249" lon="5.81595">
        <ele>1702</ele>
        <time>2012-07-21T06:39:17.1Z</time>
      </trkpt>
      <trkpt lat="45.38252" lon="5.81594">
        <ele>1701</ele>
        <time>2012-07-21T06:39:19.1Z</time>
      </trkpt>
      <trkpt lat="45.38254" lon="5.81594">
        <ele>1700</ele>
        <time>2012-07-21T06:39:22.1Z</time>
      </trkpt>
      <trkpt lat="45.38255" lon="5.81598">
        <ele>1699</ele>
        <time>2012-07-21T06:39:24.1Z</time>
      </trkpt>
      <trkpt lat="45.38255" lon="5.81599">
        <ele>1698</ele>
        <time>2012-07-21T06:39:26.1Z</time>
      </trkpt>
      <trkpt lat="45.38256" lon="5.81598">
        <ele>1698</ele>
        <time>2012-07-21T06:39:28.1Z</time>
      </trkpt>
      <trkpt lat="45.38258" lon="5.81597">
        <ele>1697</ele>
        <time>2012-07-21T06:39:30.1Z</time>
      </trkpt>
      <trkpt lat="45.38259" lon="5.81597">
        <ele>1697</ele>
        <time>2012-07-21T06:39:32.1Z</time>
      </trkpt>
      <trkpt lat="45.38261" lon="5.81597">
        <ele>1696</ele>
        <time>2012-07-21T06:39:34.1Z</time>
      </trkpt>
      <trkpt lat="45.38263" lon="5.81597">
        <ele>1695</ele>
        <time>2012-07-21T06:39:36.1Z</time>
      </trkpt>
      <trkpt lat="45.38266" lon="5.81598">
        <ele>1694</ele>
        <time>2012-07-21T06:39:38.1Z</time>
      </trkpt>
      <trkpt lat="45.38267" lon="5.816">
        <ele>1693</ele>
        <time>2012-07-21T06:39:41.1Z</time>
      </trkpt>
      <trkpt lat="45.38269" lon="5.816">
        <ele>1692</ele>
        <time>2012-07-21T06:39:43.1Z</time>
      </trkpt>
      <trkpt lat="45.38271" lon="5.81601">
        <ele>1691</ele>
        <time>2012-07-21T06:39:45.1Z</time>
      </trkpt>
      <trkpt lat="45.38272" lon="5.81601">
        <ele>1691</ele>
        <time>2012-07-21T06:39:47.1Z</time>
      </trkpt>
      <trkpt lat="45.38272" lon="5.81603">
        <ele>1690</ele>
        <time>2012-07-21T06:39:49.1Z</time>
      </trkpt>
      <trkpt lat="45.38274" lon="5.81605">
        <ele>1689</ele>
        <time>2012-07-21T06:39:51.1Z</time>
      </trkpt>
      <trkpt lat="45.38276" lon="5.81606">
        <ele>1688</ele>
        <time>2012-07-21T06:39:53.1Z</time>
      </trkpt>
      <trkpt lat="45.38278" lon="5.81607">
        <ele>1688</ele>
        <time>2012-07-21T06:39:55.1Z</time>
      </trkpt>
      <trkpt lat="45.38281" lon="5.81609">
        <ele>1688</ele>
        <time>2012-07-21T06:39:57.1Z</time>
      </trkpt>
      <trkpt lat="45.38284" lon="5.81611">
        <ele>1687</ele>
        <time>2012-07-21T06:40:00.1Z</time>
      </trkpt>
      <trkpt lat="45.38287" lon="5.81613">
        <ele>1686</ele>
        <time>2012-07-21T06:40:02.1Z</time>
      </trkpt>
      <trkpt lat="45.38288" lon="5.81615">
        <ele>1686</ele>
        <time>2012-07-21T06:40:04.1Z</time>
      </trkpt>
      <trkpt lat="45.3829" lon="5.81617">
        <ele>1684</ele>
        <time>2012-07-21T06:40:06.1Z</time>
      </trkpt>
      <trkpt lat="45.38291" lon="5.81617">
        <ele>1683</ele>
        <time>2012-07-21T06:40:08.1Z</time>
      </trkpt>
      <trkpt lat="45.38291" lon="5.81615">
        <ele>1682</ele>
        <time>2012-07-21T06:40:10.1Z</time>
      </trkpt>
      <trkpt lat="45.38292" lon="5.81612">
        <ele>1681</ele>
        <time>2012-07-21T06:40:12.1Z</time>
      </trkpt>
      <trkpt lat="45.38294" lon="5.81613">
        <ele>1680</ele>
        <time>2012-07-21T06:40:14.1Z</time>
      </trkpt>
      <trkpt lat="45.38295" lon="5.81614">
        <ele>1679</ele>
        <time>2012-07-21T06:40:16.1Z</time>
      </trkpt>
      <trkpt lat="45.38298" lon="5.81615">
        <ele>1679</ele>
        <time>2012-07-21T06:40:18.1Z</time>
      </trkpt>
      <trkpt lat="45.383" lon="5.81616">
        <ele>1678</ele>
        <time>2012-07-21T06:40:20.1Z</time>
      </trkpt>
      <trkpt lat="45.38302" lon="5.81619">
        <ele>1678</ele>
        <time>2012-07-21T06:40:23.1Z</time>
      </trkpt>
      <trkpt lat="45.38303" lon="5.81621">
        <ele>1677</ele>
        <time>2012-07-21T06:40:25.1Z</time>
      </trkpt>
      <trkpt lat="45.38306" lon="5.81623">
        <ele>1676</ele>
        <time>2012-07-21T06:40:27.1Z</time>
      </trkpt>
      <trkpt lat="45.38307" lon="5.81624">
        <ele>1676</ele>
        <time>2012-07-21T06:40:29.1Z</time>
      </trkpt>
      <trkpt lat="45.38308" lon="5.81625">
        <ele>1675</ele>
        <time>2012-07-21T06:40:31.1Z</time>
      </trkpt>
      <trkpt lat="45.38306" lon="5.81622">
        <ele>1675</ele>
        <time>2012-07-21T06:40:33.1Z</time>
      </trkpt>
      <trkpt lat="45.38306" lon="5.81618">
        <ele>1674</ele>
        <time>2012-07-21T06:40:35.1Z</time>
      </trkpt>
      <trkpt lat="45.38305" lon="5.81615">
        <ele>1673</ele>
        <time>2012-07-21T06:40:37.1Z</time>
      </trkpt>
      <trkpt lat="45.38305" lon="5.81617">
        <ele>1672</ele>
        <time>2012-07-21T06:40:40.1Z</time>
      </trkpt>
      <trkpt lat="45.38306" lon="5.81619">
        <ele>1672</ele>
        <time>2012-07-21T06:40:42.1Z</time>
      </trkpt>
      <trkpt lat="45.38307" lon="5.8162">
        <ele>1671</ele>
        <time>2012-07-21T06:40:44.1Z</time>
      </trkpt>
      <trkpt lat="45.38308" lon="5.81621">
        <ele>1670</ele>
        <time>2012-07-21T06:40:46.1Z</time>
      </trkpt>
      <trkpt lat="45.38309" lon="5.81621">
        <ele>1670</ele>
        <time>2012-07-21T06:40:48.1Z</time>
      </trkpt>
      <trkpt lat="45.38309" lon="5.81618">
        <ele>1669</ele>
        <time>2012-07-21T06:40:50.1Z</time>
      </trkpt>
      <trkpt lat="45.3831" lon="5.81615">
        <ele>1669</ele>
        <time>2012-07-21T06:40:52.1Z</time>
      </trkpt>
      <trkpt lat="45.3831" lon="5.81613">
        <ele>1668</ele>
        <time>2012-07-21T06:40:54.1Z</time>
      </trkpt>
      <trkpt lat="45.3831" lon="5.81609">
        <ele>1668</ele>
        <time>2012-07-21T06:40:56.1Z</time>
      </trkpt>
      <trkpt lat="45.38311" lon="5.8161">
        <ele>1667</ele>
        <time>2012-07-21T06:40:59.1Z</time>
      </trkpt>
      <trkpt lat="45.38312" lon="5.81611">
        <ele>1666</ele>
        <time>2012-07-21T06:41:01.1Z</time>
      </trkpt>
      <trkpt lat="45.38313" lon="5.81612">
        <ele>1666</ele>
        <time>2012-07-21T06:41:03.1Z</time>
      </trkpt>
      <trkpt lat="45.38313" lon="5.81614">
        <ele>1665</ele>
        <time>2012-07-21T06:41:05.1Z</time>
      </trkpt>
      <trkpt lat="45.38315" lon="5.81615">
        <ele>1664</ele>
        <time>2012-07-21T06:41:07.1Z</time>
      </trkpt>
      <trkpt lat="45.38315" lon="5.81615">
        <ele>1664</ele>
        <time>2012-07-21T06:41:09.1Z</time>
      </trkpt>
      <trkpt lat="45.38315" lon="5.81616">
        <ele>1664</ele>
        <time>2012-07-21T06:41:11.1Z</time>
      </trkpt>
      <trkpt lat="45.38318" lon="5.81615">
        <ele>1663</ele>
        <time>2012-07-21T06:41:13.1Z</time>
      </trkpt>
      <trkpt lat="45.38319" lon="5.81615">
        <ele>1663</ele>
        <time>2012-07-21T06:41:15.1Z</time>
      </trkpt>
      <trkpt lat="45.3832" lon="5.81612">
        <ele>1662</ele>
        <time>2012-07-21T06:41:17.1Z</time>
      </trkpt>
      <trkpt lat="45.38322" lon="5.81612">
        <ele>1661</ele>
        <time>2012-07-21T06:41:20.1Z</time>
      </trkpt>
      <trkpt lat="45.38323" lon="5.81613">
        <ele>1660</ele>
        <time>2012-07-21T06:41:22.1Z</time>
      </trkpt>
      <trkpt lat="45.38324" lon="5.81614">
        <ele>1659</ele>
        <time>2012-07-21T06:41:24.1Z</time>
      </trkpt>
      <trkpt lat="45.38326" lon="5.81616">
        <ele>1658</ele>
        <time>2012-07-21T06:41:26.1Z</time>
      </trkpt>
      <trkpt lat="45.38328" lon="5.81617">
        <ele>1657</ele>
        <time>2012-07-21T06:41:28.1Z</time>
      </trkpt>
      <trkpt lat="45.3833" lon="5.81617">
        <ele>1657</ele>
        <time>2012-07-21T06:41:30.1Z</time>
      </trkpt>
      <trkpt lat="45.38331" lon="5.81618">
        <ele>1656</ele>
        <time>2012-07-21T06:41:32.1Z</time>
      </trkpt>
      <trkpt lat="45.38332" lon="5.81617">
        <ele>1655</ele>
        <time>2012-07-21T06:41:34.1Z</time>
      </trkpt>
      <trkpt lat="45.38335" lon="5.81616">
        <ele>1654</ele>
        <time>2012-07-21T06:41:36.1Z</time>
      </trkpt>
      <trkpt lat="45.38337" lon="5.81616">
        <ele>1653</ele>
        <time>2012-07-21T06:41:38.1Z</time>
      </trkpt>
      <trkpt lat="45.3834" lon="5.8162">
        <ele>1652</ele>
        <time>2012-07-21T06:41:41.1Z</time>
      </trkpt>
      <trkpt lat="45.38342" lon="5.81623">
        <ele>1651</ele>
        <time>2012-07-21T06:41:43.1Z</time>
      </trkpt>
      <trkpt lat="45.38343" lon="5.81625">
        <ele>1651</ele>
        <time>2012-07-21T06:41:45.1Z</time>
      </trkpt>
      <trkpt lat="45.38344" lon="5.81627">
        <ele>1650</ele>
        <time>2012-07-21T06:41:47.1Z</time>
      </trkpt>
      <trkpt lat="45.38347" lon="5.81627">
        <ele>1649</ele>
        <time>2012-07-21T06:41:49.1Z</time>
      </trkpt>
      <trkpt lat="45.3835" lon="5.81628">
        <ele>1648</ele>
        <time>2012-07-21T06:41:51.1Z</time>
      </trkpt>
      <trkpt lat="45.38353" lon="5.8163">
        <ele>1647</ele>
        <time>2012-07-21T06:41:53.1Z</time>
      </trkpt>
      <trkpt lat="45.38354" lon="5.81631">
        <ele>1647</ele>
        <time>2012-07-21T06:41:55.1Z</time>
      </trkpt>
      <trkpt lat="45.38355" lon="5.81632">
        <ele>1646</ele>
        <time>2012-07-21T06:41:58.1Z</time>
      </trkpt>
      <trkpt lat="45.38356" lon="5.8163">
        <ele>1646</ele>
        <time>2012-07-21T06:42:00.1Z</time>
      </trkpt>
      <trkpt lat="45.38356" lon="5.81628">
        <ele>1645</ele>
        <time>2012-07-21T06:42:02.1Z</time>
      </trkpt>
      <trkpt lat="45.38356" lon="5.81625">
        <ele>1644</ele>
        <time>2012-07-21T06:42:04.1Z</time>
      </trkpt>
      <trkpt lat="45.38358" lon="5.81623">
        <ele>1643</ele>
        <time>2012-07-21T06:42:06.1Z</time>
      </trkpt>
      <trkpt lat="45.38357" lon="5.81624">
        <ele>1642</ele>
        <time>2012-07-21T06:42:08.1Z</time>
      </trkpt>
      <trkpt lat="45.38359" lon="5.81623">
        <ele>1641</ele>
        <time>2012-07-21T06:42:10.1Z</time>
      </trkpt>
      <trkpt lat="45.38361" lon="5.81622">
        <ele>1640</ele>
        <time>2012-07-21T06:42:12.1Z</time>
      </trkpt>
      <trkpt lat="45.38361" lon="5.81623">
        <ele>1639</ele>
        <time>2012-07-21T06:42:14.1Z</time>
      </trkpt>
      <trkpt lat="45.38362" lon="5.81627">
        <ele>1639</ele>
        <time>2012-07-21T06:42:17.1Z</time>
      </trkpt>
      <trkpt lat="45.38363" lon="5.81626">
        <ele>1638</ele>
        <time>2012-07-21T06:42:19.1Z</time>
      </trkpt>
      <trkpt lat="45.38364" lon="5.81625">
        <ele>1637</ele>
        <time>2012-07-21T06:42:21.1Z</time>
      </trkpt>
      <trkpt lat="45.38367" lon="5.81623">
        <ele>1636</ele>
        <time>2012-07-21T06:42:23.1Z</time>
      </trkpt>
      <trkpt lat="45.38369" lon="5.81622">
        <ele>1635</ele>
        <time>2012-07-21T06:42:25.1Z</time>
      </trkpt>
      <trkpt lat="45.38369" lon="5.8162">
        <ele>1634</ele>
        <time>2012-07-21T06:42:27.1Z</time>
      </trkpt>
      <trkpt lat="45.38369" lon="5.81618">
        <ele>1633</ele>
        <time>2012-07-21T06:42:29.1Z</time>
      </trkpt>
      <trkpt lat="45.38369" lon="5.81616">
        <ele>1633</ele>
        <time>2012-07-21T06:42:31.1Z</time>
      </trkpt>
      <trkpt lat="45.38369" lon="5.81614">
        <ele>1632</ele>
        <time>2012-07-21T06:42:34.1Z</time>
      </trkpt>
      <trkpt lat="45.38369" lon="5.81612">
        <ele>1632</ele>
        <time>2012-07-21T06:42:36.1Z</time>
      </trkpt>
      <trkpt lat="45.3837" lon="5.81609">
        <ele>1631</ele>
        <time>2012-07-21T06:42:38.1Z</time>
      </trkpt>
      <trkpt lat="45.38371" lon="5.81607">
        <ele>1630</ele>
        <time>2012-07-21T06:42:40.1Z</time>
      </trkpt>
      <trkpt lat="45.38371" lon="5.81605">
        <ele>1630</ele>
        <time>2012-07-21T06:42:42.1Z</time>
      </trkpt>
      <trkpt lat="45.38369" lon="5.81602">
        <ele>1630</ele>
        <time>2012-07-21T06:42:44.1Z</time>
      </trkpt>
      <trkpt lat="45.38369" lon="5.816">
        <ele>1629</ele>
        <time>2012-07-21T06:42:46.1Z</time>
      </trkpt>
      <trkpt lat="45.38369" lon="5.81599">
        <ele>1629</ele>
        <time>2012-07-21T06:42:49.1Z</time>
      </trkpt>
      <trkpt lat="45.38371" lon="5.81598">
        <ele>1628</ele>
        <time>2012-07-21T06:42:51.1Z</time>
      </trkpt>
      <trkpt lat="45.38372" lon="5.81598">
        <ele>1628</ele>
        <time>2012-07-21T06:42:53.1Z</time>
      </trkpt>
      <trkpt lat="45.38372" lon="5.81597">
        <ele>1627</ele>
        <time>2012-07-21T06:42:55.1Z</time>
      </trkpt>
      <trkpt lat="45.38372" lon="5.81597">
        <ele>1627</ele>
        <time>2012-07-21T06:42:57.1Z</time>
      </trkpt>
      <trkpt lat="45.3837" lon="5.81596">
        <ele>1626</ele>
        <time>2012-07-21T06:42:59.1Z</time>
      </trkpt>
      <trkpt lat="45.38371" lon="5.81593">
        <ele>1626</ele>
        <time>2012-07-21T06:43:01.1Z</time>
      </trkpt>
      <trkpt lat="45.38371" lon="5.81592">
        <ele>1625</ele>
        <time>2012-07-21T06:43:03.1Z</time>
      </trkpt>
      <trkpt lat="45.38371" lon="5.8159">
        <ele>1624</ele>
        <time>2012-07-21T06:43:05.1Z</time>
      </trkpt>
      <trkpt lat="45.38372" lon="5.81588">
        <ele>1623</ele>
        <time>2012-07-21T06:43:08.1Z</time>
      </trkpt>
      <trkpt lat="45.38371" lon="5.81586">
        <ele>1623</ele>
        <time>2012-07-21T06:43:10.1Z</time>
      </trkpt>
      <trkpt lat="45.38369" lon="5.81584">
        <ele>1622</ele>
        <time>2012-07-21T06:43:12.1Z</time>
      </trkpt>
      <trkpt lat="45.38369" lon="5.81583">
        <ele>1621</ele>
        <time>2012-07-21T06:43:14.1Z</time>
      </trkpt>
      <trkpt lat="45.38368" lon="5.81582">
        <ele>1620</ele>
        <time>2012-07-21T06:43:16.1Z</time>
      </trkpt>
      <trkpt lat="45.38365" lon="5.81579">
        <ele>1620</ele>
        <time>2012-07-21T06:43:18.1Z</time>
      </trkpt>
      <trkpt lat="45.38364" lon="5.81576">
        <ele>1619</ele>
        <time>2012-07-21T06:43:20.1Z</time>
      </trkpt>
      <trkpt lat="45.38364" lon="5.81576">
        <ele>1619</ele>
        <time>2012-07-21T06:43:22.1Z</time>
      </trkpt>
      <trkpt lat="45.38363" lon="5.81576">
        <ele>1619</ele>
        <time>2012-07-21T06:43:24.1Z</time>
      </trkpt>
      <trkpt lat="45.38362" lon="5.81573">
        <ele>1618</ele>
        <time>2012-07-21T06:43:27.1Z</time>
      </trkpt>
      <trkpt lat="45.38363" lon="5.81572">
        <ele>1618</ele>
        <time>2012-07-21T06:43:29.1Z</time>
      </trkpt>
      <trkpt lat="45.38364" lon="5.81572">
        <ele>1617</ele>
        <time>2012-07-21T06:43:31.1Z</time>
      </trkpt>
      <trkpt lat="45.38366" lon="5.81573">
        <ele>1616</ele>
        <time>2012-07-21T06:43:33.1Z</time>
      </trkpt>
      <trkpt lat="45.38363" lon="5.81572">
        <ele>1616</ele>
        <time>2012-07-21T06:43:35.1Z</time>
      </trkpt>
      <trkpt lat="45.38364" lon="5.81572">
        <ele>1616</ele>
        <time>2012-07-21T06:43:37.1Z</time>
      </trkpt>
      <trkpt lat="45.38364" lon="5.81572">
        <ele>1615</ele>
        <time>2012-07-21T06:43:39.1Z</time>
      </trkpt>
      <trkpt lat="45.38364" lon="5.81571">
        <ele>1615</ele>
        <time>2012-07-21T06:43:41.1Z</time>
      </trkpt>
      <trkpt lat="45.38364" lon="5.8157">
        <ele>1614</ele>
        <time>2012-07-21T06:43:43.1Z</time>
      </trkpt>
      <trkpt lat="45.38366" lon="5.81568">
        <ele>1614</ele>
        <time>2012-07-21T06:43:45.1Z</time>
      </trkpt>
      <trkpt lat="45.38368" lon="5.81567">
        <ele>1613</ele>
        <time>2012-07-21T06:43:48.1Z</time>
      </trkpt>
      <trkpt lat="45.38371" lon="5.81567">
        <ele>1613</ele>
        <time>2012-07-21T06:43:50.1Z</time>
      </trkpt>
      <trkpt lat="45.38372" lon="5.81567">
        <ele>1612</ele>
        <time>2012-07-21T06:43:52.1Z</time>
      </trkpt>
      <trkpt lat="45.38373" lon="5.81567">
        <ele>1612</ele>
        <time>2012-07-21T06:43:54.1Z</time>
      </trkpt>
      <trkpt lat="45.38375" lon="5.81567">
        <ele>1611</ele>
        <time>2012-07-21T06:43:56.1Z</time>
      </trkpt>
      <trkpt lat="45.38377" lon="5.81567">
        <ele>1610</ele>
        <time>2012-07-21T06:43:58.1Z</time>
      </trkpt>
      <trkpt lat="45.38378" lon="5.81565">
        <ele>1609</ele>
        <time>2012-07-21T06:44:00.1Z</time>
      </trkpt>
      <trkpt lat="45.38378" lon="5.81565">
        <ele>1608</ele>
        <time>2012-07-21T06:44:02.1Z</time>
      </trkpt>
      <trkpt lat="45.38379" lon="5.81564">
        <ele>1608</ele>
        <time>2012-07-21T06:44:04.1Z</time>
      </trkpt>
      <trkpt lat="45.38379" lon="5.81563">
        <ele>1607</ele>
        <time>2012-07-21T06:44:06.1Z</time>
      </trkpt>
      <trkpt lat="45.3838" lon="5.81562">
        <ele>1606</ele>
        <time>2012-07-21T06:44:08.1Z</time>
      </trkpt>
      <trkpt lat="45.38379" lon="5.81559">
        <ele>1607</ele>
        <time>2012-07-21T06:44:10.1Z</time>
      </trkpt>
      <trkpt lat="45.38379" lon="5.81558">
        <ele>1606</ele>
        <time>2012-07-21T06:44:12.1Z</time>
      </trkpt>
      <trkpt lat="45.38379" lon="5.81557">
        <ele>1606</ele>
        <time>2012-07-21T06:44:15.1Z</time>
      </trkpt>
      <trkpt lat="45.38377" lon="5.81555">
        <ele>1605</ele>
        <time>2012-07-21T06:44:17.1Z</time>
      </trkpt>
      <trkpt lat="45.38375" lon="5.81553">
        <ele>1603</ele>
        <time>2012-07-21T06:44:19.1Z</time>
      </trkpt>
      <trkpt lat="45.38372" lon="5.81552">
        <ele>1603</ele>
        <time>2012-07-21T06:44:21.1Z</time>
      </trkpt>
      <trkpt lat="45.38371" lon="5.81552">
        <ele>1602</ele>
        <time>2012-07-21T06:44:23.1Z</time>
      </trkpt>
      <trkpt lat="45.38368" lon="5.81547">
        <ele>1602</ele>
        <time>2012-07-21T06:44:25.1Z</time>
      </trkpt>
      <trkpt lat="45.38367" lon="5.81544">
        <ele>1601</ele>
        <time>2012-07-21T06:44:27.1Z</time>
      </trkpt>
      <trkpt lat="45.38366" lon="5.81541">
        <ele>1601</ele>
        <time>2012-07-21T06:44:29.1Z</time>
      </trkpt>
      <trkpt lat="45.38365" lon="5.81537">
        <ele>1600</ele>
        <time>2012-07-21T06:44:31.1Z</time>
      </trkpt>
      <trkpt lat="45.38365" lon="5.81534">
        <ele>1599</ele>
        <time>2012-07-21T06:44:33.1Z</time>
      </trkpt>
      <trkpt lat="45.38366" lon="5.81531">
        <ele>1597</ele>
        <time>2012-07-21T06:44:35.1Z</time>
      </trkpt>
      <trkpt lat="45.38365" lon="5.81527">
        <ele>1596</ele>
        <time>2012-07-21T06:44:37.1Z</time>
      </trkpt>
      <trkpt lat="45.38366" lon="5.81523">
        <ele>1595</ele>
        <time>2012-07-21T06:44:39.1Z</time>
      </trkpt>
      <trkpt lat="45.38368" lon="5.81523">
        <ele>1594</ele>
        <time>2012-07-21T06:44:41.1Z</time>
      </trkpt>
      <trkpt lat="45.38369" lon="5.81519">
        <ele>1594</ele>
        <time>2012-07-21T06:44:44.1Z</time>
      </trkpt>
      <trkpt lat="45.38372" lon="5.81518">
        <ele>1594</ele>
        <time>2012-07-21T06:44:46.1Z</time>
      </trkpt>
      <trkpt lat="45.38374" lon="5.81516">
        <ele>1593</ele>
        <time>2012-07-21T06:44:48.1Z</time>
      </trkpt>
      <trkpt lat="45.38376" lon="5.81513">
        <ele>1591</ele>
        <time>2012-07-21T06:44:50.1Z</time>
      </trkpt>
      <trkpt lat="45.38377" lon="5.81508">
        <ele>1589</ele>
        <time>2012-07-21T06:44:52.1Z</time>
      </trkpt>
      <trkpt lat="45.38379" lon="5.81505">
        <ele>1588</ele>
        <time>2012-07-21T06:44:54.1Z</time>
      </trkpt>
      <trkpt lat="45.38383" lon="5.81502">
        <ele>1587</ele>
        <time>2012-07-21T06:44:56.1Z</time>
      </trkpt>
      <trkpt lat="45.38387" lon="5.81497">
        <ele>1585</ele>
        <time>2012-07-21T06:44:58.1Z</time>
      </trkpt>
      <trkpt lat="45.3839" lon="5.81493">
        <ele>1584</ele>
        <time>2012-07-21T06:45:01.1Z</time>
      </trkpt>
      <trkpt lat="45.38392" lon="5.81491">
        <ele>1583</ele>
        <time>2012-07-21T06:45:03.1Z</time>
      </trkpt>
      <trkpt lat="45.38393" lon="5.81488">
        <ele>1582</ele>
        <time>2012-07-21T06:45:05.1Z</time>
      </trkpt>
      <trkpt lat="45.38396" lon="5.81486">
        <ele>1581</ele>
        <time>2012-07-21T06:45:07.1Z</time>
      </trkpt>
      <trkpt lat="45.38399" lon="5.81484">
        <ele>1580</ele>
        <time>2012-07-21T06:45:09.1Z</time>
      </trkpt>
      <trkpt lat="45.38402" lon="5.81482">
        <ele>1578</ele>
        <time>2012-07-21T06:45:11.1Z</time>
      </trkpt>
      <trkpt lat="45.38406" lon="5.8148">
        <ele>1577</ele>
        <time>2012-07-21T06:45:13.1Z</time>
      </trkpt>
      <trkpt lat="45.3841" lon="5.81479">
        <ele>1576</ele>
        <time>2012-07-21T06:45:15.1Z</time>
      </trkpt>
      <trkpt lat="45.38415" lon="5.81476">
        <ele>1576</ele>
        <time>2012-07-21T06:45:18.1Z</time>
      </trkpt>
      <trkpt lat="45.38418" lon="5.81472">
        <ele>1575</ele>
        <time>2012-07-21T06:45:20.1Z</time>
      </trkpt>
      <trkpt lat="45.38421" lon="5.81471">
        <ele>1574</ele>
        <time>2012-07-21T06:45:22.1Z</time>
      </trkpt>
      <trkpt lat="45.38423" lon="5.81468">
        <ele>1572</ele>
        <time>2012-07-21T06:45:24.1Z</time>
      </trkpt>
      <trkpt lat="45.38424" lon="5.81465">
        <ele>1571</ele>
        <time>2012-07-21T06:45:26.1Z</time>
      </trkpt>
      <trkpt lat="45.38425" lon="5.81463">
        <ele>1570</ele>
        <time>2012-07-21T06:45:28.1Z</time>
      </trkpt>
      <trkpt lat="45.38427" lon="5.81462">
        <ele>1569</ele>
        <time>2012-07-21T06:45:30.1Z</time>
      </trkpt>
      <trkpt lat="45.38428" lon="5.81459">
        <ele>1569</ele>
        <time>2012-07-21T06:45:32.1Z</time>
      </trkpt>
      <trkpt lat="45.38428" lon="5.81457">
        <ele>1568</ele>
        <time>2012-07-21T06:45:34.1Z</time>
      </trkpt>
      <trkpt lat="45.38429" lon="5.81455">
        <ele>1567</ele>
        <time>2012-07-21T06:45:36.1Z</time>
      </trkpt>
      <trkpt lat="45.38432" lon="5.81454">
        <ele>1567</ele>
        <time>2012-07-21T06:45:38.1Z</time>
      </trkpt>
      <trkpt lat="45.38434" lon="5.81453">
        <ele>1566</ele>
        <time>2012-07-21T06:45:40.1Z</time>
      </trkpt>
      <trkpt lat="45.38435" lon="5.81452">
        <ele>1565</ele>
        <time>2012-07-21T06:45:42.1Z</time>
      </trkpt>
      <trkpt lat="45.38435" lon="5.81449">
        <ele>1564</ele>
        <time>2012-07-21T06:45:44.1Z</time>
      </trkpt>
      <trkpt lat="45.38436" lon="5.81446">
        <ele>1563</ele>
        <time>2012-07-21T06:45:46.1Z</time>
      </trkpt>
      <trkpt lat="45.38438" lon="5.81441">
        <ele>1562</ele>
        <time>2012-07-21T06:45:48.1Z</time>
      </trkpt>
      <trkpt lat="45.38442" lon="5.81435">
        <ele>1561</ele>
        <time>2012-07-21T06:45:50.1Z</time>
      </trkpt>
      <trkpt lat="45.38446" lon="5.81431">
        <ele>1560</ele>
        <time>2012-07-21T06:45:52.1Z</time>
      </trkpt>
      <trkpt lat="45.3845" lon="5.81427">
        <ele>1559</ele>
        <time>2012-07-21T06:45:55.1Z</time>
      </trkpt>
      <trkpt lat="45.38452" lon="5.81425">
        <ele>1558</ele>
        <time>2012-07-21T06:45:57.1Z</time>
      </trkpt>
      <trkpt lat="45.38452" lon="5.81425">
        <ele>1558</ele>
        <time>2012-07-21T06:45:59.1Z</time>
      </trkpt>
      <trkpt lat="45.38452" lon="5.81425">
        <ele>1557</ele>
        <time>2012-07-21T06:46:01.1Z</time>
      </trkpt>
      <trkpt lat="45.38453" lon="5.81425">
        <ele>1557</ele>
        <time>2012-07-21T06:46:03.1Z</time>
      </trkpt>
      <trkpt lat="45.38453" lon="5.81424">
        <ele>1557</ele>
        <time>2012-07-21T06:46:05.1Z</time>
      </trkpt>
      <trkpt lat="45.38453" lon="5.81424">
        <ele>1557</ele>
        <time>2012-07-21T06:46:07.1Z</time>
      </trkpt>
      <trkpt lat="45.38453" lon="5.81424">
        <ele>1557</ele>
        <time>2012-07-21T06:46:10.1Z</time>
      </trkpt>
      <trkpt lat="45.38453" lon="5.81423">
        <ele>1557</ele>
        <time>2012-07-21T06:46:12.1Z</time>
      </trkpt>
      <trkpt lat="45.38453" lon="5.81423">
        <ele>1557</ele>
        <time>2012-07-21T06:46:14.1Z</time>
      </trkpt>
      <trkpt lat="45.38453" lon="5.81423">
        <ele>1557</ele>
        <time>2012-07-21T06:46:16.1Z</time>
      </trkpt>
      <trkpt lat="45.38452" lon="5.81423">
        <ele>1557</ele>
        <time>2012-07-21T06:46:18.1Z</time>
      </trkpt>
      <trkpt lat="45.38453" lon="5.81423">
        <ele>1557</ele>
        <time>2012-07-21T06:46:20.1Z</time>
      </trkpt>
      <trkpt lat="45.38452" lon="5.81423">
        <ele>1557</ele>
        <time>2012-07-21T06:46:22.1Z</time>
      </trkpt>
      <trkpt lat="45.38452" lon="5.81423">
        <ele>1557</ele>
        <time>2012-07-21T06:46:24.1Z</time>
      </trkpt>
      <trkpt lat="45.38452" lon="5.81423">
        <ele>1556</ele>
        <time>2012-07-21T06:46:26.1Z</time>
      </trkpt>
      <trkpt lat="45.38453" lon="5.81422">
        <ele>1557</ele>
        <time>2012-07-21T06:46:29.1Z</time>
      </trkpt>
      <trkpt lat="45.38453" lon="5.81422">
        <ele>1557</ele>
        <time>2012-07-21T06:46:31.1Z</time>
      </trkpt>
      <trkpt lat="45.38453" lon="5.81422">
        <ele>1557</ele>
        <time>2012-07-21T06:46:33.1Z</time>
      </trkpt>
      <trkpt lat="45.38453" lon="5.81422">
        <ele>1557</ele>
        <time>2012-07-21T06:46:35.1Z</time>
      </trkpt>
      <trkpt lat="45.38453" lon="5.81421">
        <ele>1557</ele>
        <time>2012-07-21T06:46:37.1Z</time>
      </trkpt>
      <trkpt lat="45.38454" lon="5.81421">
        <ele>1557</ele>
        <time>2012-07-21T06:46:39.1Z</time>
      </trkpt>
      <trkpt lat="45.38454" lon="5.81421">
        <ele>1557</ele>
        <time>2012-07-21T06:46:41.1Z</time>
      </trkpt>
      <trkpt lat="45.38454" lon="5.81422">
        <ele>1556</ele>
        <time>2012-07-21T06:46:43.1Z</time>
      </trkpt>
      <trkpt lat="45.38454" lon="5.81422">
        <ele>1556</ele>
        <time>2012-07-21T06:46:45.1Z</time>
      </trkpt>
      <trkpt lat="45.38454" lon="5.81422">
        <ele>1556</ele>
        <time>2012-07-21T06:46:47.1Z</time>
      </trkpt>
      <trkpt lat="45.38454" lon="5.81422">
        <ele>1556</ele>
        <time>2012-07-21T06:46:50.1Z</time>
      </trkpt>
      <trkpt lat="45.38454" lon="5.81422">
        <ele>1556</ele>
        <time>2012-07-21T06:46:52.1Z</time>
      </trkpt>
      <trkpt lat="45.38454" lon="5.81421">
        <ele>1556</ele>
        <time>2012-07-21T06:46:54.1Z</time>
      </trkpt>
      <trkpt lat="45.38454" lon="5.81421">
        <ele>1556</ele>
        <time>2012-07-21T06:46:56.1Z</time>
      </trkpt>
      <trkpt lat="45.38454" lon="5.81421">
        <ele>1556</ele>
        <time>2012-07-21T06:46:58.1Z</time>
      </trkpt>
      <trkpt lat="45.38454" lon="5.81422">
        <ele>1556</ele>
        <time>2012-07-21T06:47:00.1Z</time>
      </trkpt>
      <trkpt lat="45.38453" lon="5.81422">
        <ele>1556</ele>
        <time>2012-07-21T06:47:02.1Z</time>
      </trkpt>
      <trkpt lat="45.38454" lon="5.81422">
        <ele>1556</ele>
        <time>2012-07-21T06:47:04.1Z</time>
      </trkpt>
      <trkpt lat="45.38454" lon="5.81421">
        <ele>1556</ele>
        <time>2012-07-21T06:47:06.1Z</time>
      </trkpt>
      <trkpt lat="45.38455" lon="5.8142">
        <ele>1557</ele>
        <time>2012-07-21T06:47:09.1Z</time>
      </trkpt>
      <trkpt lat="45.38455" lon="5.8142">
        <ele>1557</ele>
        <time>2012-07-21T06:47:11.1Z</time>
      </trkpt>
      <trkpt lat="45.38455" lon="5.8142">
        <ele>1557</ele>
        <time>2012-07-21T06:47:13.1Z</time>
      </trkpt>
      <trkpt lat="45.38455" lon="5.8142">
        <ele>1557</ele>
        <time>2012-07-21T06:47:15.1Z</time>
      </trkpt>
      <trkpt lat="45.38455" lon="5.81419">
        <ele>1557</ele>
        <time>2012-07-21T06:47:17.1Z</time>
      </trkpt>
      <trkpt lat="45.38455" lon="5.81419">
        <ele>1556</ele>
        <time>2012-07-21T06:47:19.1Z</time>
      </trkpt>
      <trkpt lat="45.38455" lon="5.81419">
        <ele>1556</ele>
        <time>2012-07-21T06:47:21.1Z</time>
      </trkpt>
      <trkpt lat="45.38454" lon="5.81419">
        <ele>1556</ele>
        <time>2012-07-21T06:47:23.1Z</time>
      </trkpt>
      <trkpt lat="45.38455" lon="5.81417">
        <ele>1556</ele>
        <time>2012-07-21T06:47:25.1Z</time>
      </trkpt>
      <trkpt lat="45.38454" lon="5.81415">
        <ele>1556</ele>
        <time>2012-07-21T06:47:27.1Z</time>
      </trkpt>
      <trkpt lat="45.38454" lon="5.81411">
        <ele>1557</ele>
        <time>2012-07-21T06:47:30.1Z</time>
      </trkpt>
      <trkpt lat="45.38454" lon="5.81408">
        <ele>1557</ele>
        <time>2012-07-21T06:47:32.1Z</time>
      </trkpt>
      <trkpt lat="45.38454" lon="5.81405">
        <ele>1557</ele>
        <time>2012-07-21T06:47:34.1Z</time>
      </trkpt>
      <trkpt lat="45.38453" lon="5.81401">
        <ele>1557</ele>
        <time>2012-07-21T06:47:36.1Z</time>
      </trkpt>
      <trkpt lat="45.38452" lon="5.81398">
        <ele>1557</ele>
        <time>2012-07-21T06:47:38.1Z</time>
      </trkpt>
      <trkpt lat="45.3845" lon="5.81394">
        <ele>1558</ele>
        <time>2012-07-21T06:47:40.1Z</time>
      </trkpt>
      <trkpt lat="45.38447" lon="5.81389">
        <ele>1558</ele>
        <time>2012-07-21T06:47:42.1Z</time>
      </trkpt>
      <trkpt lat="45.38446" lon="5.81386">
        <ele>1558</ele>
        <time>2012-07-21T06:47:45.1Z</time>
      </trkpt>
      <trkpt lat="45.38445" lon="5.81382">
        <ele>1558</ele>
        <time>2012-07-21T06:47:47.1Z</time>
      </trkpt>
      <trkpt lat="45.38444" lon="5.81377">
        <ele>1558</ele>
        <time>2012-07-21T06:47:49.1Z</time>
      </trkpt>
      <trkpt lat="45.38443" lon="5.81374">
        <ele>1558</ele>
        <time>2012-07-21T06:47:51.1Z</time>
      </trkpt>
      <trkpt lat="45.38441" lon="5.8137">
        <ele>1559</ele>
        <time>2012-07-21T06:47:53.1Z</time>
      </trkpt>
      <trkpt lat="45.3844" lon="5.81367">
        <ele>1559</ele>
        <time>2012-07-21T06:47:55.1Z</time>
      </trkpt>
      <trkpt lat="45.38439" lon="5.81363">
        <ele>1559</ele>
        <time>2012-07-21T06:47:57.1Z</time>
      </trkpt>
      <trkpt lat="45.38439" lon="5.81359">
        <ele>1560</ele>
        <time>2012-07-21T06:48:00.1Z</time>
      </trkpt>
      <trkpt lat="45.38438" lon="5.81356">
        <ele>1560</ele>
        <time>2012-07-21T06:48:02.1Z</time>
      </trkpt>
      <trkpt lat="45.38438" lon="5.81353">
        <ele>1561</ele>
        <time>2012-07-21T06:48:04.1Z</time>
      </trkpt>
      <trkpt lat="45.38437" lon="5.8135">
        <ele>1562</ele>
        <time>2012-07-21T06:48:06.1Z</time>
      </trkpt>
      <trkpt lat="45.38438" lon="5.81346">
        <ele>1563</ele>
        <time>2012-07-21T06:48:08.1Z</time>
      </trkpt>
      <trkpt lat="45.38436" lon="5.81343">
        <ele>1563</ele>
        <time>2012-07-21T06:48:10.1Z</time>
      </trkpt>
      <trkpt lat="45.38435" lon="5.81339">
        <ele>1564</ele>
        <time>2012-07-21T06:48:12.1Z</time>
      </trkpt>
      <trkpt lat="45.38434" lon="5.81335">
        <ele>1565</ele>
        <time>2012-07-21T06:48:15.1Z</time>
      </trkpt>
      <trkpt lat="45.38432" lon="5.81332">
        <ele>1565</ele>
        <time>2012-07-21T06:48:17.1Z</time>
      </trkpt>
      <trkpt lat="45.3843" lon="5.81329">
        <ele>1566</ele>
        <time>2012-07-21T06:48:19.1Z</time>
      </trkpt>
      <trkpt lat="45.38429" lon="5.81326">
        <ele>1567</ele>
        <time>2012-07-21T06:48:21.1Z</time>
      </trkpt>
      <trkpt lat="45.38428" lon="5.81323">
        <ele>1568</ele>
        <time>2012-07-21T06:48:23.1Z</time>
      </trkpt>
      <trkpt lat="45.38427" lon="5.8132">
        <ele>1569</ele>
        <time>2012-07-21T06:48:25.1Z</time>
      </trkpt>
      <trkpt lat="45.38425" lon="5.81315">
        <ele>1569</ele>
        <time>2012-07-21T06:48:27.1Z</time>
      </trkpt>
      <trkpt lat="45.38425" lon="5.81313">
        <ele>1570</ele>
        <time>2012-07-21T06:48:30.1Z</time>
      </trkpt>
      <trkpt lat="45.38423" lon="5.81309">
        <ele>1571</ele>
        <time>2012-07-21T06:48:32.1Z</time>
      </trkpt>
      <trkpt lat="45.38422" lon="5.81305">
        <ele>1571</ele>
        <time>2012-07-21T06:48:34.1Z</time>
      </trkpt>
      <trkpt lat="45.38422" lon="5.81301">
        <ele>1571</ele>
        <time>2012-07-21T06:48:36.1Z</time>
      </trkpt>
      <trkpt lat="45.38422" lon="5.81298">
        <ele>1572</ele>
        <time>2012-07-21T06:48:38.1Z</time>
      </trkpt>
      <trkpt lat="45.38422" lon="5.81295">
        <ele>1573</ele>
        <time>2012-07-21T06:48:40.1Z</time>
      </trkpt>
      <trkpt lat="45.3842" lon="5.81292">
        <ele>1573</ele>
        <time>2012-07-21T06:48:42.1Z</time>
      </trkpt>
      <trkpt lat="45.3842" lon="5.81289">
        <ele>1574</ele>
        <time>2012-07-21T06:48:45.1Z</time>
      </trkpt>
      <trkpt lat="45.3842" lon="5.81286">
        <ele>1574</ele>
        <time>2012-07-21T06:48:47.1Z</time>
      </trkpt>
      <trkpt lat="45.3842" lon="5.81283">
        <ele>1575</ele>
        <time>2012-07-21T06:48:49.1Z</time>
      </trkpt>
      <trkpt lat="45.38419" lon="5.81281">
        <ele>1576</ele>
        <time>2012-07-21T06:48:51.1Z</time>
      </trkpt>
      <trkpt lat="45.38418" lon="5.81279">
        <ele>1576</ele>
        <time>2012-07-21T06:48:53.1Z</time>
      </trkpt>
      <trkpt lat="45.38417" lon="5.81277">
        <ele>1577</ele>
        <time>2012-07-21T06:48:55.1Z</time>
      </trkpt>
      <trkpt lat="45.38416" lon="5.81272">
        <ele>1578</ele>
        <time>2012-07-21T06:48:57.1Z</time>
      </trkpt>
      <trkpt lat="45.38414" lon="5.8127">
        <ele>1578</ele>
        <time>2012-07-21T06:49:00.1Z</time>
      </trkpt>
      <trkpt lat="45.38413" lon="5.81268">
        <ele>1579</ele>
        <time>2012-07-21T06:49:02.1Z</time>
      </trkpt>
      <trkpt lat="45.38412" lon="5.81264">
        <ele>1580</ele>
        <time>2012-07-21T06:49:04.1Z</time>
      </trkpt>
      <trkpt lat="45.38414" lon="5.81263">
        <ele>1580</ele>
        <time>2012-07-21T06:49:06.1Z</time>
      </trkpt>
      <trkpt lat="45.38416" lon="5.81263">
        <ele>1581</ele>
        <time>2012-07-21T06:49:08.1Z</time>
      </trkpt>
      <trkpt lat="45.38418" lon="5.81262">
        <ele>1581</ele>
        <time>2012-07-21T06:49:10.1Z</time>
      </trkpt>
      <trkpt lat="45.3842" lon="5.81261">
        <ele>1582</ele>
        <time>2012-07-21T06:49:12.1Z</time>
      </trkpt>
      <trkpt lat="45.38422" lon="5.81259">
        <ele>1582</ele>
        <time>2012-07-21T06:49:14.1Z</time>
      </trkpt>
      <trkpt lat="45.38425" lon="5.81258">
        <ele>1583</ele>
        <time>2012-07-21T06:49:16.1Z</time>
      </trkpt>
      <trkpt lat="45.38427" lon="5.81257">
        <ele>1584</ele>
        <time>2012-07-21T06:49:19.1Z</time>
      </trkpt>
      <trkpt lat="45.38429" lon="5.81257">
        <ele>1584</ele>
        <time>2012-07-21T06:49:21.1Z</time>
      </trkpt>
      <trkpt lat="45.38431" lon="5.81256">
        <ele>1584</ele>
        <time>2012-07-21T06:49:23.1Z</time>
      </trkpt>
      <trkpt lat="45.38433" lon="5.81256">
        <ele>1585</ele>
        <time>2012-07-21T06:49:25.1Z</time>
      </trkpt>
      <trkpt lat="45.38435" lon="5.81256">
        <ele>1585</ele>
        <time>2012-07-21T06:49:27.1Z</time>
      </trkpt>
      <trkpt lat="45.38437" lon="5.81256">
        <ele>1586</ele>
        <time>2012-07-21T06:49:29.1Z</time>
      </trkpt>
      <trkpt lat="45.38439" lon="5.81256">
        <ele>1586</ele>
        <time>2012-07-21T06:49:31.1Z</time>
      </trkpt>
      <trkpt lat="45.3844" lon="5.81255">
        <ele>1586</ele>
        <time>2012-07-21T06:49:33.1Z</time>
      </trkpt>
      <trkpt lat="45.38441" lon="5.81254">
        <ele>1587</ele>
        <time>2012-07-21T06:49:35.1Z</time>
      </trkpt>
      <trkpt lat="45.38442" lon="5.81254">
        <ele>1587</ele>
        <time>2012-07-21T06:49:37.1Z</time>
      </trkpt>
      <trkpt lat="45.38445" lon="5.81253">
        <ele>1588</ele>
        <time>2012-07-21T06:49:39.1Z</time>
      </trkpt>
      <trkpt lat="45.38446" lon="5.81252">
        <ele>1588</ele>
        <time>2012-07-21T06:49:41.1Z</time>
      </trkpt>
      <trkpt lat="45.38448" lon="5.8125">
        <ele>1589</ele>
        <time>2012-07-21T06:49:43.1Z</time>
      </trkpt>
      <trkpt lat="45.38449" lon="5.8125">
        <ele>1589</ele>
        <time>2012-07-21T06:49:45.1Z</time>
      </trkpt>
      <trkpt lat="45.3845" lon="5.81248">
        <ele>1590</ele>
        <time>2012-07-21T06:49:47.1Z</time>
      </trkpt>
      <trkpt lat="45.38451" lon="5.81247">
        <ele>1590</ele>
        <time>2012-07-21T06:49:49.1Z</time>
      </trkpt>
      <trkpt lat="45.38453" lon="5.81245">
        <ele>1591</ele>
        <time>2012-07-21T06:49:51.1Z</time>
      </trkpt>
      <trkpt lat="45.38454" lon="5.81244">
        <ele>1591</ele>
        <time>2012-07-21T06:49:53.1Z</time>
      </trkpt>
      <trkpt lat="45.38456" lon="5.81244">
        <ele>1592</ele>
        <time>2012-07-21T06:49:56.1Z</time>
      </trkpt>
      <trkpt lat="45.38458" lon="5.81245">
        <ele>1592</ele>
        <time>2012-07-21T06:49:58.1Z</time>
      </trkpt>
      <trkpt lat="45.3846" lon="5.81244">
        <ele>1593</ele>
        <time>2012-07-21T06:50:00.1Z</time>
      </trkpt>
      <trkpt lat="45.38462" lon="5.81243">
        <ele>1593</ele>
        <time>2012-07-21T06:50:02.1Z</time>
      </trkpt>
      <trkpt lat="45.38464" lon="5.81243">
        <ele>1594</ele>
        <time>2012-07-21T06:50:04.1Z</time>
      </trkpt>
      <trkpt lat="45.38465" lon="5.81245">
        <ele>1594</ele>
        <time>2012-07-21T06:50:06.1Z</time>
      </trkpt>
      <trkpt lat="45.38467" lon="5.81246">
        <ele>1594</ele>
        <time>2012-07-21T06:50:08.1Z</time>
      </trkpt>
      <trkpt lat="45.38468" lon="5.81248">
        <ele>1595</ele>
        <time>2012-07-21T06:50:10.1Z</time>
      </trkpt>
      <trkpt lat="45.38469" lon="5.81249">
        <ele>1595</ele>
        <time>2012-07-21T06:50:12.1Z</time>
      </trkpt>
      <trkpt lat="45.38471" lon="5.8125">
        <ele>1595</ele>
        <time>2012-07-21T06:50:14.1Z</time>
      </trkpt>
      <trkpt lat="45.38471" lon="5.81248">
        <ele>1596</ele>
        <time>2012-07-21T06:50:17.1Z</time>
      </trkpt>
      <trkpt lat="45.38471" lon="5.81247">
        <ele>1596</ele>
        <time>2012-07-21T06:50:19.1Z</time>
      </trkpt>
      <trkpt lat="45.3847" lon="5.81246">
        <ele>1597</ele>
        <time>2012-07-21T06:50:21.1Z</time>
      </trkpt>
      <trkpt lat="45.38471" lon="5.81244">
        <ele>1597</ele>
        <time>2012-07-21T06:50:23.1Z</time>
      </trkpt>
      <trkpt lat="45.3847" lon="5.81243">
        <ele>1598</ele>
        <time>2012-07-21T06:50:25.1Z</time>
      </trkpt>
      <trkpt lat="45.3847" lon="5.8124">
        <ele>1598</ele>
        <time>2012-07-21T06:50:27.1Z</time>
      </trkpt>
      <trkpt lat="45.38469" lon="5.81238">
        <ele>1599</ele>
        <time>2012-07-21T06:50:29.1Z</time>
      </trkpt>
      <trkpt lat="45.3847" lon="5.81236">
        <ele>1599</ele>
        <time>2012-07-21T06:50:31.1Z</time>
      </trkpt>
      <trkpt lat="45.38471" lon="5.81234">
        <ele>1599</ele>
        <time>2012-07-21T06:50:33.1Z</time>
      </trkpt>
      <trkpt lat="45.38472" lon="5.81233">
        <ele>1599</ele>
        <time>2012-07-21T06:50:36.1Z</time>
      </trkpt>
      <trkpt lat="45.38473" lon="5.81231">
        <ele>1600</ele>
        <time>2012-07-21T06:50:38.1Z</time>
      </trkpt>
      <trkpt lat="45.38474" lon="5.8123">
        <ele>1600</ele>
        <time>2012-07-21T06:50:40.1Z</time>
      </trkpt>
      <trkpt lat="45.38475" lon="5.81228">
        <ele>1601</ele>
        <time>2012-07-21T06:50:42.1Z</time>
      </trkpt>
      <trkpt lat="45.38477" lon="5.81227">
        <ele>1602</ele>
        <time>2012-07-21T06:50:44.1Z</time>
      </trkpt>
      <trkpt lat="45.38479" lon="5.81225">
        <ele>1602</ele>
        <time>2012-07-21T06:50:46.1Z</time>
      </trkpt>
      <trkpt lat="45.38481" lon="5.81224">
        <ele>1603</ele>
        <time>2012-07-21T06:50:48.1Z</time>
      </trkpt>
      <trkpt lat="45.38483" lon="5.81226">
        <ele>1603</ele>
        <time>2012-07-21T06:50:50.1Z</time>
      </trkpt>
      <trkpt lat="45.38485" lon="5.81228">
        <ele>1603</ele>
        <time>2012-07-21T06:50:53.1Z</time>
      </trkpt>
      <trkpt lat="45.38486" lon="5.81228">
        <ele>1604</ele>
        <time>2012-07-21T06:50:55.1Z</time>
      </trkpt>
      <trkpt lat="45.38487" lon="5.8123">
        <ele>1604</ele>
        <time>2012-07-21T06:50:57.1Z</time>
      </trkpt>
      <trkpt lat="45.38488" lon="5.81229">
        <ele>1604</ele>
        <time>2012-07-21T06:50:59.1Z</time>
      </trkpt>
      <trkpt lat="45.3849" lon="5.81228">
        <ele>1604</ele>
        <time>2012-07-21T06:51:01.1Z</time>
      </trkpt>
      <trkpt lat="45.38491" lon="5.81226">
        <ele>1604</ele>
        <time>2012-07-21T06:51:03.1Z</time>
      </trkpt>
      <trkpt lat="45.38491" lon="5.81224">
        <ele>1604</ele>
        <time>2012-07-21T06:51:05.1Z</time>
      </trkpt>
      <trkpt lat="45.38492" lon="5.8122">
        <ele>1605</ele>
        <time>2012-07-21T06:51:07.1Z</time>
      </trkpt>
      <trkpt lat="45.38493" lon="5.81219">
        <ele>1605</ele>
        <time>2012-07-21T06:51:09.1Z</time>
      </trkpt>
      <trkpt lat="45.38495" lon="5.81218">
        <ele>1605</ele>
        <time>2012-07-21T06:51:12.1Z</time>
      </trkpt>
      <trkpt lat="45.38496" lon="5.81218">
        <ele>1606</ele>
        <time>2012-07-21T06:51:14.1Z</time>
      </trkpt>
      <trkpt lat="45.38498" lon="5.81218">
        <ele>1607</ele>
        <time>2012-07-21T06:51:16.1Z</time>
      </trkpt>
      <trkpt lat="45.38499" lon="5.81218">
        <ele>1607</ele>
        <time>2012-07-21T06:51:18.1Z</time>
      </trkpt>
      <trkpt lat="45.38501" lon="5.81218">
        <ele>1608</ele>
        <time>2012-07-21T06:51:20.1Z</time>
      </trkpt>
      <trkpt lat="45.38502" lon="5.81219">
        <ele>1608</ele>
        <time>2012-07-21T06:51:22.1Z</time>
      </trkpt>
      <trkpt lat="45.38504" lon="5.81219">
        <ele>1608</ele>
        <time>2012-07-21T06:51:24.1Z</time>
      </trkpt>
      <trkpt lat="45.38507" lon="5.81219">
        <ele>1608</ele>
        <time>2012-07-21T06:51:26.1Z</time>
      </trkpt>
      <trkpt lat="45.38512" lon="5.81219">
        <ele>1608</ele>
        <time>2012-07-21T06:51:28.1Z</time>
      </trkpt>
      <trkpt lat="45.38513" lon="5.81217">
        <ele>1608</ele>
        <time>2012-07-21T06:51:31.1Z</time>
      </trkpt>
      <trkpt lat="45.38515" lon="5.81215">
        <ele>1608</ele>
        <time>2012-07-21T06:51:33.1Z</time>
      </trkpt>
      <trkpt lat="45.38517" lon="5.81214">
        <ele>1608</ele>
        <time>2012-07-21T06:51:35.1Z</time>
      </trkpt>
      <trkpt lat="45.38519" lon="5.81212">
        <ele>1609</ele>
        <time>2012-07-21T06:51:37.1Z</time>
      </trkpt>
      <trkpt lat="45.38521" lon="5.8121">
        <ele>1609</ele>
        <time>2012-07-21T06:51:39.1Z</time>
      </trkpt>
      <trkpt lat="45.38522" lon="5.81208">
        <ele>1610</ele>
        <time>2012-07-21T06:51:41.1Z</time>
      </trkpt>
      <trkpt lat="45.38523" lon="5.81207">
        <ele>1610</ele>
        <time>2012-07-21T06:51:43.1Z</time>
      </trkpt>
      <trkpt lat="45.38525" lon="5.81205">
        <ele>1610</ele>
        <time>2012-07-21T06:51:45.1Z</time>
      </trkpt>
      <trkpt lat="45.38528" lon="5.81202">
        <ele>1610</ele>
        <time>2012-07-21T06:51:47.1Z</time>
      </trkpt>
      <trkpt lat="45.3853" lon="5.81201">
        <ele>1611</ele>
        <time>2012-07-21T06:51:50.1Z</time>
      </trkpt>
      <trkpt lat="45.38533" lon="5.812">
        <ele>1611</ele>
        <time>2012-07-21T06:51:52.1Z</time>
      </trkpt>
      <trkpt lat="45.38536" lon="5.812">
        <ele>1612</ele>
        <time>2012-07-21T06:51:54.1Z</time>
      </trkpt>
      <trkpt lat="45.38539" lon="5.81199">
        <ele>1612</ele>
        <time>2012-07-21T06:51:56.1Z</time>
      </trkpt>
      <trkpt lat="45.3854" lon="5.81197">
        <ele>1612</ele>
        <time>2012-07-21T06:51:58.1Z</time>
      </trkpt>
      <trkpt lat="45.38543" lon="5.81195">
        <ele>1612</ele>
        <time>2012-07-21T06:52:00.1Z</time>
      </trkpt>
      <trkpt lat="45.38545" lon="5.81193">
        <ele>1613</ele>
        <time>2012-07-21T06:52:02.1Z</time>
      </trkpt>
      <trkpt lat="45.38548" lon="5.81191">
        <ele>1614</ele>
        <time>2012-07-21T06:52:04.1Z</time>
      </trkpt>
      <trkpt lat="45.3855" lon="5.8119">
        <ele>1614</ele>
        <time>2012-07-21T06:52:06.1Z</time>
      </trkpt>
      <trkpt lat="45.38552" lon="5.81187">
        <ele>1614</ele>
        <time>2012-07-21T06:52:09.1Z</time>
      </trkpt>
      <trkpt lat="45.38555" lon="5.81184">
        <ele>1615</ele>
        <time>2012-07-21T06:52:11.1Z</time>
      </trkpt>
      <trkpt lat="45.38557" lon="5.81183">
        <ele>1616</ele>
        <time>2012-07-21T06:52:13.1Z</time>
      </trkpt>
      <trkpt lat="45.3856" lon="5.81182">
        <ele>1617</ele>
        <time>2012-07-21T06:52:15.1Z</time>
      </trkpt>
      <trkpt lat="45.3856" lon="5.8118">
        <ele>1617</ele>
        <time>2012-07-21T06:52:17.1Z</time>
      </trkpt>
      <trkpt lat="45.38561" lon="5.81177">
        <ele>1618</ele>
        <time>2012-07-21T06:52:19.1Z</time>
      </trkpt>
      <trkpt lat="45.38563" lon="5.81176">
        <ele>1618</ele>
        <time>2012-07-21T06:52:21.1Z</time>
      </trkpt>
      <trkpt lat="45.38566" lon="5.81172">
        <ele>1619</ele>
        <time>2012-07-21T06:52:23.1Z</time>
      </trkpt>
      <trkpt lat="45.38567" lon="5.8117">
        <ele>1619</ele>
        <time>2012-07-21T06:52:25.1Z</time>
      </trkpt>
      <trkpt lat="45.38567" lon="5.81168">
        <ele>1620</ele>
        <time>2012-07-21T06:52:28.1Z</time>
      </trkpt>
      <trkpt lat="45.38567" lon="5.81165">
        <ele>1620</ele>
        <time>2012-07-21T06:52:30.1Z</time>
      </trkpt>
      <trkpt lat="45.38567" lon="5.81163">
        <ele>1620</ele>
        <time>2012-07-21T06:52:32.1Z</time>
      </trkpt>
      <trkpt lat="45.38568" lon="5.81161">
        <ele>1621</ele>
        <time>2012-07-21T06:52:34.1Z</time>
      </trkpt>
      <trkpt lat="45.3857" lon="5.81159">
        <ele>1622</ele>
        <time>2012-07-21T06:52:36.1Z</time>
      </trkpt>
      <trkpt lat="45.3857" lon="5.81157">
        <ele>1622</ele>
        <time>2012-07-21T06:52:38.1Z</time>
      </trkpt>
      <trkpt lat="45.38571" lon="5.81155">
        <ele>1623</ele>
        <time>2012-07-21T06:52:40.1Z</time>
      </trkpt>
      <trkpt lat="45.38572" lon="5.81153">
        <ele>1623</ele>
        <time>2012-07-21T06:52:42.1Z</time>
      </trkpt>
      <trkpt lat="45.38574" lon="5.81151">
        <ele>1624</ele>
        <time>2012-07-21T06:52:44.1Z</time>
      </trkpt>
      <trkpt lat="45.38575" lon="5.81148">
        <ele>1624</ele>
        <time>2012-07-21T06:52:46.1Z</time>
      </trkpt>
      <trkpt lat="45.38576" lon="5.81145">
        <ele>1624</ele>
        <time>2012-07-21T06:52:49.1Z</time>
      </trkpt>
      <trkpt lat="45.38578" lon="5.81143">
        <ele>1625</ele>
        <time>2012-07-21T06:52:51.1Z</time>
      </trkpt>
      <trkpt lat="45.3858" lon="5.81142">
        <ele>1625</ele>
        <time>2012-07-21T06:52:53.1Z</time>
      </trkpt>
      <trkpt lat="45.38581" lon="5.81141">
        <ele>1625</ele>
        <time>2012-07-21T06:52:55.1Z</time>
      </trkpt>
      <trkpt lat="45.38581" lon="5.8114">
        <ele>1626</ele>
        <time>2012-07-21T06:52:57.1Z</time>
      </trkpt>
      <trkpt lat="45.38582" lon="5.81139">
        <ele>1626</ele>
        <time>2012-07-21T06:52:59.1Z</time>
      </trkpt>
      <trkpt lat="45.38584" lon="5.81137">
        <ele>1627</ele>
        <time>2012-07-21T06:53:01.1Z</time>
      </trkpt>
      <trkpt lat="45.38585" lon="5.81135">
        <ele>1628</ele>
        <time>2012-07-21T06:53:03.1Z</time>
      </trkpt>
      <trkpt lat="45.38585" lon="5.81133">
        <ele>1628</ele>
        <time>2012-07-21T06:53:05.1Z</time>
      </trkpt>
      <trkpt lat="45.38585" lon="5.81131">
        <ele>1628</ele>
        <time>2012-07-21T06:53:08.1Z</time>
      </trkpt>
      <trkpt lat="45.38586" lon="5.8113">
        <ele>1628</ele>
        <time>2012-07-21T06:53:10.1Z</time>
      </trkpt>
      <trkpt lat="45.38587" lon="5.81128">
        <ele>1629</ele>
        <time>2012-07-21T06:53:12.1Z</time>
      </trkpt>
      <trkpt lat="45.38588" lon="5.81127">
        <ele>1629</ele>
        <time>2012-07-21T06:53:14.1Z</time>
      </trkpt>
      <trkpt lat="45.38589" lon="5.81126">
        <ele>1630</ele>
        <time>2012-07-21T06:53:16.1Z</time>
      </trkpt>
      <trkpt lat="45.3859" lon="5.81125">
        <ele>1631</ele>
        <time>2012-07-21T06:53:18.1Z</time>
      </trkpt>
      <trkpt lat="45.38591" lon="5.81124">
        <ele>1631</ele>
        <time>2012-07-21T06:53:20.1Z</time>
      </trkpt>
      <trkpt lat="45.38591" lon="5.81122">
        <ele>1632</ele>
        <time>2012-07-21T06:53:22.1Z</time>
      </trkpt>
      <trkpt lat="45.38591" lon="5.8112">
        <ele>1632</ele>
        <time>2012-07-21T06:53:24.1Z</time>
      </trkpt>
      <trkpt lat="45.38592" lon="5.81118">
        <ele>1632</ele>
        <time>2012-07-21T06:53:26.1Z</time>
      </trkpt>
      <trkpt lat="45.38593" lon="5.81116">
        <ele>1633</ele>
        <time>2012-07-21T06:53:28.1Z</time>
      </trkpt>
      <trkpt lat="45.38594" lon="5.81115">
        <ele>1633</ele>
        <time>2012-07-21T06:53:30.1Z</time>
      </trkpt>
      <trkpt lat="45.38596" lon="5.81114">
        <ele>1634</ele>
        <time>2012-07-21T06:53:32.1Z</time>
      </trkpt>
      <trkpt lat="45.38598" lon="5.81112">
        <ele>1634</ele>
        <time>2012-07-21T06:53:34.1Z</time>
      </trkpt>
      <trkpt lat="45.386" lon="5.81111">
        <ele>1635</ele>
        <time>2012-07-21T06:53:36.1Z</time>
      </trkpt>
      <trkpt lat="45.38602" lon="5.81109">
        <ele>1635</ele>
        <time>2012-07-21T06:53:39.1Z</time>
      </trkpt>
      <trkpt lat="45.38604" lon="5.81106">
        <ele>1636</ele>
        <time>2012-07-21T06:53:41.1Z</time>
      </trkpt>
      <trkpt lat="45.38607" lon="5.81104">
        <ele>1636</ele>
        <time>2012-07-21T06:53:43.1Z</time>
      </trkpt>
      <trkpt lat="45.38608" lon="5.81101">
        <ele>1637</ele>
        <time>2012-07-21T06:53:45.1Z</time>
      </trkpt>
      <trkpt lat="45.38609" lon="5.81098">
        <ele>1637</ele>
        <time>2012-07-21T06:53:47.1Z</time>
      </trkpt>
      <trkpt lat="45.38609" lon="5.81096">
        <ele>1637</ele>
        <time>2012-07-21T06:53:49.1Z</time>
      </trkpt>
      <trkpt lat="45.38611" lon="5.81093">
        <ele>1638</ele>
        <time>2012-07-21T06:53:51.1Z</time>
      </trkpt>
      <trkpt lat="45.38612" lon="5.81092">
        <ele>1638</ele>
        <time>2012-07-21T06:53:53.1Z</time>
      </trkpt>
      <trkpt lat="45.38612" lon="5.8109">
        <ele>1639</ele>
        <time>2012-07-21T06:53:55.1Z</time>
      </trkpt>
      <trkpt lat="45.38614" lon="5.81089">
        <ele>1640</ele>
        <time>2012-07-21T06:53:57.1Z</time>
      </trkpt>
      <trkpt lat="45.38614" lon="5.81088">
        <ele>1641</ele>
        <time>2012-07-21T06:53:59.1Z</time>
      </trkpt>
      <trkpt lat="45.38616" lon="5.81085">
        <ele>1642</ele>
        <time>2012-07-21T06:54:01.1Z</time>
      </trkpt>
      <trkpt lat="45.38618" lon="5.81083">
        <ele>1642</ele>
        <time>2012-07-21T06:54:04.1Z</time>
      </trkpt>
      <trkpt lat="45.38619" lon="5.81082">
        <ele>1643</ele>
        <time>2012-07-21T06:54:06.1Z</time>
      </trkpt>
      <trkpt lat="45.38621" lon="5.81081">
        <ele>1643</ele>
        <time>2012-07-21T06:54:08.1Z</time>
      </trkpt>
      <trkpt lat="45.38623" lon="5.8108">
        <ele>1644</ele>
        <time>2012-07-21T06:54:10.1Z</time>
      </trkpt>
      <trkpt lat="45.38624" lon="5.81078">
        <ele>1645</ele>
        <time>2012-07-21T06:54:12.1Z</time>
      </trkpt>
      <trkpt lat="45.38625" lon="5.81077">
        <ele>1645</ele>
        <time>2012-07-21T06:54:14.1Z</time>
      </trkpt>
      <trkpt lat="45.38626" lon="5.81075">
        <ele>1646</ele>
        <time>2012-07-21T06:54:16.1Z</time>
      </trkpt>
      <trkpt lat="45.38627" lon="5.81074">
        <ele>1646</ele>
        <time>2012-07-21T06:54:18.1Z</time>
      </trkpt>
      <trkpt lat="45.38629" lon="5.81072">
        <ele>1647</ele>
        <time>2012-07-21T06:54:20.1Z</time>
      </trkpt>
      <trkpt lat="45.3863" lon="5.8107">
        <ele>1647</ele>
        <time>2012-07-21T06:54:22.1Z</time>
      </trkpt>
      <trkpt lat="45.38631" lon="5.81068">
        <ele>1648</ele>
        <time>2012-07-21T06:54:25.1Z</time>
      </trkpt>
      <trkpt lat="45.38631" lon="5.81067">
        <ele>1648</ele>
        <time>2012-07-21T06:54:27.1Z</time>
      </trkpt>
      <trkpt lat="45.38631" lon="5.81066">
        <ele>1649</ele>
        <time>2012-07-21T06:54:29.1Z</time>
      </trkpt>
      <trkpt lat="45.38632" lon="5.81065">
        <ele>1649</ele>
        <time>2012-07-21T06:54:31.1Z</time>
      </trkpt>
      <trkpt lat="45.38632" lon="5.81063">
        <ele>1650</ele>
        <time>2012-07-21T06:54:33.1Z</time>
      </trkpt>
      <trkpt lat="45.38633" lon="5.81063">
        <ele>1650</ele>
        <time>2012-07-21T06:54:35.1Z</time>
      </trkpt>
      <trkpt lat="45.38633" lon="5.81062">
        <ele>1650</ele>
        <time>2012-07-21T06:54:37.1Z</time>
      </trkpt>
      <trkpt lat="45.38632" lon="5.81062">
        <ele>1650</ele>
        <time>2012-07-21T06:54:39.1Z</time>
      </trkpt>
      <trkpt lat="45.38632" lon="5.81062">
        <ele>1650</ele>
        <time>2012-07-21T06:54:41.1Z</time>
      </trkpt>
      <trkpt lat="45.38632" lon="5.81062">
        <ele>1650</ele>
        <time>2012-07-21T06:54:43.1Z</time>
      </trkpt>
      <trkpt lat="45.38632" lon="5.81062">
        <ele>1650</ele>
        <time>2012-07-21T06:54:46.1Z</time>
      </trkpt>
      <trkpt lat="45.38631" lon="5.81062">
        <ele>1650</ele>
        <time>2012-07-21T06:54:48.1Z</time>
      </trkpt>
      <trkpt lat="45.38631" lon="5.81061">
        <ele>1650</ele>
        <time>2012-07-21T06:54:50.1Z</time>
      </trkpt>
      <trkpt lat="45.38632" lon="5.8106">
        <ele>1650</ele>
        <time>2012-07-21T06:54:52.1Z</time>
      </trkpt>
      <trkpt lat="45.38633" lon="5.8106">
        <ele>1650</ele>
        <time>2012-07-21T06:54:54.1Z</time>
      </trkpt>
      <trkpt lat="45.38634" lon="5.81058">
        <ele>1650</ele>
        <time>2012-07-21T06:54:56.1Z</time>
      </trkpt>
      <trkpt lat="45.38636" lon="5.81057">
        <ele>1650</ele>
        <time>2012-07-21T06:54:58.1Z</time>
      </trkpt>
      <trkpt lat="45.38636" lon="5.81057">
        <ele>1650</ele>
        <time>2012-07-21T06:55:00.1Z</time>
      </trkpt>
      <trkpt lat="45.38637" lon="5.81055">
        <ele>1649</ele>
        <time>2012-07-21T06:55:02.1Z</time>
      </trkpt>
      <trkpt lat="45.38638" lon="5.81053">
        <ele>1649</ele>
        <time>2012-07-21T06:55:04.1Z</time>
      </trkpt>
      <trkpt lat="45.38639" lon="5.81052">
        <ele>1649</ele>
        <time>2012-07-21T06:55:06.1Z</time>
      </trkpt>
      <trkpt lat="45.38639" lon="5.81051">
        <ele>1648</ele>
        <time>2012-07-21T06:55:09.1Z</time>
      </trkpt>
      <trkpt lat="45.38639" lon="5.81049">
        <ele>1648</ele>
        <time>2012-07-21T06:55:11.1Z</time>
      </trkpt>
      <trkpt lat="45.38639" lon="5.81048">
        <ele>1647</ele>
        <time>2012-07-21T06:55:13.1Z</time>
      </trkpt>
      <trkpt lat="45.38641" lon="5.81045">
        <ele>1647</ele>
        <time>2012-07-21T06:55:15.1Z</time>
      </trkpt>
      <trkpt lat="45.38642" lon="5.81042">
        <ele>1647</ele>
        <time>2012-07-21T06:55:17.1Z</time>
      </trkpt>
      <trkpt lat="45.38644" lon="5.81038">
        <ele>1646</ele>
        <time>2012-07-21T06:55:19.1Z</time>
      </trkpt>
      <trkpt lat="45.38646" lon="5.81038">
        <ele>1646</ele>
        <time>2012-07-21T06:55:21.1Z</time>
      </trkpt>
      <trkpt lat="45.38647" lon="5.81036">
        <ele>1645</ele>
        <time>2012-07-21T06:55:23.1Z</time>
      </trkpt>
      <trkpt lat="45.3865" lon="5.81034">
        <ele>1644</ele>
        <time>2012-07-21T06:55:25.1Z</time>
      </trkpt>
      <trkpt lat="45.38652" lon="5.81032">
        <ele>1643</ele>
        <time>2012-07-21T06:55:27.1Z</time>
      </trkpt>
      <trkpt lat="45.38654" lon="5.8103">
        <ele>1642</ele>
        <time>2012-07-21T06:55:30.1Z</time>
      </trkpt>
      <trkpt lat="45.38656" lon="5.81029">
        <ele>1642</ele>
        <time>2012-07-21T06:55:32.1Z</time>
      </trkpt>
      <trkpt lat="45.38657" lon="5.81027">
        <ele>1641</ele>
        <time>2012-07-21T06:55:34.1Z</time>
      </trkpt>
      <trkpt lat="45.38658" lon="5.81025">
        <ele>1641</ele>
        <time>2012-07-21T06:55:36.1Z</time>
      </trkpt>
      <trkpt lat="45.38658" lon="5.81022">
        <ele>1640</ele>
        <time>2012-07-21T06:55:38.1Z</time>
      </trkpt>
      <trkpt lat="45.38659" lon="5.81018">
        <ele>1639</ele>
        <time>2012-07-21T06:55:40.1Z</time>
      </trkpt>
      <trkpt lat="45.38661" lon="5.81013">
        <ele>1638</ele>
        <time>2012-07-21T06:55:42.1Z</time>
      </trkpt>
      <trkpt lat="45.38663" lon="5.81006">
        <ele>1636</ele>
        <time>2012-07-21T06:55:44.1Z</time>
      </trkpt>
      <trkpt lat="45.38665" lon="5.80999">
        <ele>1635</ele>
        <time>2012-07-21T06:55:47.1Z</time>
      </trkpt>
      <trkpt lat="45.38667" lon="5.80994">
        <ele>1635</ele>
        <time>2012-07-21T06:55:49.1Z</time>
      </trkpt>
      <trkpt lat="45.38669" lon="5.80989">
        <ele>1634</ele>
        <time>2012-07-21T06:55:51.1Z</time>
      </trkpt>
      <trkpt lat="45.38671" lon="5.80984">
        <ele>1633</ele>
        <time>2012-07-21T06:55:53.1Z</time>
      </trkpt>
      <trkpt lat="45.38675" lon="5.80979">
        <ele>1632</ele>
        <time>2012-07-21T06:55:55.1Z</time>
      </trkpt>
      <trkpt lat="45.38678" lon="5.80975">
        <ele>1631</ele>
        <time>2012-07-21T06:55:57.1Z</time>
      </trkpt>
      <trkpt lat="45.38682" lon="5.80971">
        <ele>1629</ele>
        <time>2012-07-21T06:55:59.1Z</time>
      </trkpt>
      <trkpt lat="45.38685" lon="5.80965">
        <ele>1628</ele>
        <time>2012-07-21T06:56:01.1Z</time>
      </trkpt>
      <trkpt lat="45.38689" lon="5.80959">
        <ele>1626</ele>
        <time>2012-07-21T06:56:03.1Z</time>
      </trkpt>
      <trkpt lat="45.38691" lon="5.80953">
        <ele>1625</ele>
        <time>2012-07-21T06:56:05.1Z</time>
      </trkpt>
      <trkpt lat="45.38693" lon="5.80943">
        <ele>1623</ele>
        <time>2012-07-21T06:56:07.1Z</time>
      </trkpt>
      <trkpt lat="45.38696" lon="5.80935">
        <ele>1622</ele>
        <time>2012-07-21T06:56:09.1Z</time>
      </trkpt>
      <trkpt lat="45.38699" lon="5.80927">
        <ele>1620</ele>
        <time>2012-07-21T06:56:11.1Z</time>
      </trkpt>
      <trkpt lat="45.38703" lon="5.8092">
        <ele>1619</ele>
        <time>2012-07-21T06:56:13.1Z</time>
      </trkpt>
      <trkpt lat="45.38708" lon="5.80908">
        <ele>1619</ele>
        <time>2012-07-21T06:56:15.1Z</time>
      </trkpt>
      <trkpt lat="45.3871" lon="5.809">
        <ele>1618</ele>
        <time>2012-07-21T06:56:18.1Z</time>
      </trkpt>
      <trkpt lat="45.38713" lon="5.80892">
        <ele>1617</ele>
        <time>2012-07-21T06:56:20.1Z</time>
      </trkpt>
      <trkpt lat="45.38715" lon="5.80884">
        <ele>1617</ele>
        <time>2012-07-21T06:56:22.1Z</time>
      </trkpt>
      <trkpt lat="45.38717" lon="5.80876">
        <ele>1616</ele>
        <time>2012-07-21T06:56:24.1Z</time>
      </trkpt>
      <trkpt lat="45.38717" lon="5.8087">
        <ele>1615</ele>
        <time>2012-07-21T06:56:26.1Z</time>
      </trkpt>
      <trkpt lat="45.38716" lon="5.80863">
        <ele>1615</ele>
        <time>2012-07-21T06:56:28.1Z</time>
      </trkpt>
      <trkpt lat="45.38715" lon="5.80856">
        <ele>1615</ele>
        <time>2012-07-21T06:56:30.1Z</time>
      </trkpt>
      <trkpt lat="45.38715" lon="5.80849">
        <ele>1616</ele>
        <time>2012-07-21T06:56:32.1Z</time>
      </trkpt>
      <trkpt lat="45.38715" lon="5.80842">
        <ele>1616</ele>
        <time>2012-07-21T06:56:34.1Z</time>
      </trkpt>
      <trkpt lat="45.38714" lon="5.80836">
        <ele>1617</ele>
        <time>2012-07-21T06:56:36.1Z</time>
      </trkpt>
      <trkpt lat="45.38713" lon="5.80828">
        <ele>1617</ele>
        <time>2012-07-21T06:56:38.1Z</time>
      </trkpt>
      <trkpt lat="45.38712" lon="5.80822">
        <ele>1618</ele>
        <time>2012-07-21T06:56:40.1Z</time>
      </trkpt>
      <trkpt lat="45.38711" lon="5.80817">
        <ele>1619</ele>
        <time>2012-07-21T06:56:43.1Z</time>
      </trkpt>
      <trkpt lat="45.3871" lon="5.8081">
        <ele>1620</ele>
        <time>2012-07-21T06:56:45.1Z</time>
      </trkpt>
      <trkpt lat="45.38708" lon="5.80803">
        <ele>1621</ele>
        <time>2012-07-21T06:56:47.1Z</time>
      </trkpt>
      <trkpt lat="45.38707" lon="5.80797">
        <ele>1622</ele>
        <time>2012-07-21T06:56:49.1Z</time>
      </trkpt>
      <trkpt lat="45.38706" lon="5.80792">
        <ele>1623</ele>
        <time>2012-07-21T06:56:51.1Z</time>
      </trkpt>
      <trkpt lat="45.38705" lon="5.80787">
        <ele>1623</ele>
        <time>2012-07-21T06:56:53.1Z</time>
      </trkpt>
      <trkpt lat="45.38705" lon="5.80779">
        <ele>1624</ele>
        <time>2012-07-21T06:56:55.1Z</time>
      </trkpt>
      <trkpt lat="45.38704" lon="5.80773">
        <ele>1625</ele>
        <time>2012-07-21T06:56:57.1Z</time>
      </trkpt>
      <trkpt lat="45.38704" lon="5.80768">
        <ele>1626</ele>
        <time>2012-07-21T06:57:00.1Z</time>
      </trkpt>
      <trkpt lat="45.38702" lon="5.80764">
        <ele>1626</ele>
        <time>2012-07-21T06:57:02.1Z</time>
      </trkpt>
      <trkpt lat="45.38702" lon="5.80761">
        <ele>1627</ele>
        <time>2012-07-21T06:57:04.1Z</time>
      </trkpt>
      <trkpt lat="45.38702" lon="5.80758">
        <ele>1628</ele>
        <time>2012-07-21T06:57:06.1Z</time>
      </trkpt>
      <trkpt lat="45.38702" lon="5.80755">
        <ele>1628</ele>
        <time>2012-07-21T06:57:08.1Z</time>
      </trkpt>
      <trkpt lat="45.38701" lon="5.80752">
        <ele>1629</ele>
        <time>2012-07-21T06:57:10.1Z</time>
      </trkpt>
      <trkpt lat="45.387" lon="5.8075">
        <ele>1629</ele>
        <time>2012-07-21T06:57:12.1Z</time>
      </trkpt>
      <trkpt lat="45.387" lon="5.80747">
        <ele>1630</ele>
        <time>2012-07-21T06:57:14.1Z</time>
      </trkpt>
      <trkpt lat="45.387" lon="5.80744">
        <ele>1630</ele>
        <time>2012-07-21T06:57:16.1Z</time>
      </trkpt>
      <trkpt lat="45.387" lon="5.80742">
        <ele>1631</ele>
        <time>2012-07-21T06:57:18.1Z</time>
      </trkpt>
      <trkpt lat="45.387" lon="5.80739">
        <ele>1631</ele>
        <time>2012-07-21T06:57:20.1Z</time>
      </trkpt>
      <trkpt lat="45.387" lon="5.80736">
        <ele>1632</ele>
        <time>2012-07-21T06:57:22.1Z</time>
      </trkpt>
      <trkpt lat="45.38699" lon="5.80735">
        <ele>1632</ele>
        <time>2012-07-21T06:57:24.1Z</time>
      </trkpt>
      <trkpt lat="45.38697" lon="5.80733">
        <ele>1633</ele>
        <time>2012-07-21T06:57:26.1Z</time>
      </trkpt>
      <trkpt lat="45.38697" lon="5.80731">
        <ele>1634</ele>
        <time>2012-07-21T06:57:28.1Z</time>
      </trkpt>
      <trkpt lat="45.38696" lon="5.8073">
        <ele>1634</ele>
        <time>2012-07-21T06:57:30.1Z</time>
      </trkpt>
      <trkpt lat="45.38694" lon="5.80727">
        <ele>1635</ele>
        <time>2012-07-21T06:57:32.1Z</time>
      </trkpt>
      <trkpt lat="45.38694" lon="5.80727">
        <ele>1635</ele>
        <time>2012-07-21T06:57:34.1Z</time>
      </trkpt>
      <trkpt lat="45.38694" lon="5.80724">
        <ele>1636</ele>
        <time>2012-07-21T06:57:36.1Z</time>
      </trkpt>
      <trkpt lat="45.38694" lon="5.80722">
        <ele>1637</ele>
        <time>2012-07-21T06:57:39.1Z</time>
      </trkpt>
      <trkpt lat="45.38694" lon="5.80719">
        <ele>1638</ele>
        <time>2012-07-21T06:57:41.1Z</time>
      </trkpt>
      <trkpt lat="45.38694" lon="5.80717">
        <ele>1638</ele>
        <time>2012-07-21T06:57:43.1Z</time>
      </trkpt>
      <trkpt lat="45.38695" lon="5.80715">
        <ele>1639</ele>
        <time>2012-07-21T06:57:45.1Z</time>
      </trkpt>
      <trkpt lat="45.38696" lon="5.80714">
        <ele>1640</ele>
        <time>2012-07-21T06:57:47.1Z</time>
      </trkpt>
      <trkpt lat="45.38695" lon="5.80713">
        <ele>1641</ele>
        <time>2012-07-21T06:57:49.1Z</time>
      </trkpt>
      <trkpt lat="45.38695" lon="5.80711">
        <ele>1641</ele>
        <time>2012-07-21T06:57:51.1Z</time>
      </trkpt>
      <trkpt lat="45.38697" lon="5.80708">
        <ele>1642</ele>
        <time>2012-07-21T06:57:53.1Z</time>
      </trkpt>
      <trkpt lat="45.38697" lon="5.80706">
        <ele>1642</ele>
        <time>2012-07-21T06:57:55.1Z</time>
      </trkpt>
      <trkpt lat="45.38698" lon="5.80704">
        <ele>1643</ele>
        <time>2012-07-21T06:57:58.1Z</time>
      </trkpt>
      <trkpt lat="45.38699" lon="5.80701">
        <ele>1644</ele>
        <time>2012-07-21T06:58:00.1Z</time>
      </trkpt>
      <trkpt lat="45.38699" lon="5.80698">
        <ele>1644</ele>
        <time>2012-07-21T06:58:02.1Z</time>
      </trkpt>
      <trkpt lat="45.38699" lon="5.80696">
        <ele>1645</ele>
        <time>2012-07-21T06:58:04.1Z</time>
      </trkpt>
      <trkpt lat="45.387" lon="5.80695">
        <ele>1646</ele>
        <time>2012-07-21T06:58:06.1Z</time>
      </trkpt>
      <trkpt lat="45.38702" lon="5.80693">
        <ele>1646</ele>
        <time>2012-07-21T06:58:08.1Z</time>
      </trkpt>
      <trkpt lat="45.38702" lon="5.80692">
        <ele>1646</ele>
        <time>2012-07-21T06:58:10.1Z</time>
      </trkpt>
      <trkpt lat="45.38703" lon="5.8069">
        <ele>1647</ele>
        <time>2012-07-21T06:58:12.1Z</time>
      </trkpt>
      <trkpt lat="45.38705" lon="5.80688">
        <ele>1648</ele>
        <time>2012-07-21T06:58:14.1Z</time>
      </trkpt>
      <trkpt lat="45.38706" lon="5.80686">
        <ele>1648</ele>
        <time>2012-07-21T06:58:17.1Z</time>
      </trkpt>
      <trkpt lat="45.38707" lon="5.80684">
        <ele>1649</ele>
        <time>2012-07-21T06:58:19.1Z</time>
      </trkpt>
      <trkpt lat="45.3871" lon="5.80683">
        <ele>1649</ele>
        <time>2012-07-21T06:58:21.1Z</time>
      </trkpt>
      <trkpt lat="45.38711" lon="5.80683">
        <ele>1649</ele>
        <time>2012-07-21T06:58:23.1Z</time>
      </trkpt>
      <trkpt lat="45.38713" lon="5.80682">
        <ele>1650</ele>
        <time>2012-07-21T06:58:25.1Z</time>
      </trkpt>
      <trkpt lat="45.38715" lon="5.80681">
        <ele>1650</ele>
        <time>2012-07-21T06:58:27.1Z</time>
      </trkpt>
      <trkpt lat="45.38716" lon="5.8068">
        <ele>1650</ele>
        <time>2012-07-21T06:58:29.1Z</time>
      </trkpt>
      <trkpt lat="45.38718" lon="5.80678">
        <ele>1651</ele>
        <time>2012-07-21T06:58:31.1Z</time>
      </trkpt>
      <trkpt lat="45.3872" lon="5.80677">
        <ele>1651</ele>
        <time>2012-07-21T06:58:33.1Z</time>
      </trkpt>
      <trkpt lat="45.38722" lon="5.80676">
        <ele>1652</ele>
        <time>2012-07-21T06:58:36.1Z</time>
      </trkpt>
      <trkpt lat="45.38723" lon="5.80674">
        <ele>1652</ele>
        <time>2012-07-21T06:58:38.1Z</time>
      </trkpt>
      <trkpt lat="45.38724" lon="5.80673">
        <ele>1653</ele>
        <time>2012-07-21T06:58:40.1Z</time>
      </trkpt>
      <trkpt lat="45.38725" lon="5.80672">
        <ele>1653</ele>
        <time>2012-07-21T06:58:42.1Z</time>
      </trkpt>
      <trkpt lat="45.38727" lon="5.8067">
        <ele>1653</ele>
        <time>2012-07-21T06:58:44.1Z</time>
      </trkpt>
      <trkpt lat="45.38728" lon="5.80668">
        <ele>1654</ele>
        <time>2012-07-21T06:58:46.1Z</time>
      </trkpt>
      <trkpt lat="45.38729" lon="5.80667">
        <ele>1655</ele>
        <time>2012-07-21T06:58:48.1Z</time>
      </trkpt>
      <trkpt lat="45.3873" lon="5.80665">
        <ele>1656</ele>
        <time>2012-07-21T06:58:50.1Z</time>
      </trkpt>
      <trkpt lat="45.38731" lon="5.80663">
        <ele>1656</ele>
        <time>2012-07-21T06:58:52.1Z</time>
      </trkpt>
      <trkpt lat="45.38732" lon="5.80661">
        <ele>1656</ele>
        <time>2012-07-21T06:58:54.1Z</time>
      </trkpt>
      <trkpt lat="45.38734" lon="5.80659">
        <ele>1657</ele>
        <time>2012-07-21T06:58:56.1Z</time>
      </trkpt>
      <trkpt lat="45.38736" lon="5.80657">
        <ele>1657</ele>
        <time>2012-07-21T06:58:59.1Z</time>
      </trkpt>
      <trkpt lat="45.38737" lon="5.80655">
        <ele>1658</ele>
        <time>2012-07-21T06:59:01.1Z</time>
      </trkpt>
      <trkpt lat="45.38739" lon="5.80653">
        <ele>1659</ele>
        <time>2012-07-21T06:59:03.1Z</time>
      </trkpt>
      <trkpt lat="45.38739" lon="5.80651">
        <ele>1659</ele>
        <time>2012-07-21T06:59:05.1Z</time>
      </trkpt>
      <trkpt lat="45.38741" lon="5.80649">
        <ele>1660</ele>
        <time>2012-07-21T06:59:07.1Z</time>
      </trkpt>
      <trkpt lat="45.38741" lon="5.80647">
        <ele>1660</ele>
        <time>2012-07-21T06:59:09.1Z</time>
      </trkpt>
      <trkpt lat="45.38742" lon="5.80645">
        <ele>1661</ele>
        <time>2012-07-21T06:59:11.1Z</time>
      </trkpt>
      <trkpt lat="45.38743" lon="5.80644">
        <ele>1661</ele>
        <time>2012-07-21T06:59:13.1Z</time>
      </trkpt>
      <trkpt lat="45.38744" lon="5.80641">
        <ele>1662</ele>
        <time>2012-07-21T06:59:15.1Z</time>
      </trkpt>
      <trkpt lat="45.38745" lon="5.80639">
        <ele>1662</ele>
        <time>2012-07-21T06:59:17.1Z</time>
      </trkpt>
      <trkpt lat="45.38746" lon="5.80637">
        <ele>1663</ele>
        <time>2012-07-21T06:59:20.1Z</time>
      </trkpt>
      <trkpt lat="45.38747" lon="5.80634">
        <ele>1663</ele>
        <time>2012-07-21T06:59:22.1Z</time>
      </trkpt>
      <trkpt lat="45.38749" lon="5.80631">
        <ele>1663</ele>
        <time>2012-07-21T06:59:24.1Z</time>
      </trkpt>
      <trkpt lat="45.38751" lon="5.80627">
        <ele>1664</ele>
        <time>2012-07-21T06:59:26.1Z</time>
      </trkpt>
      <trkpt lat="45.38751" lon="5.80622">
        <ele>1664</ele>
        <time>2012-07-21T06:59:28.1Z</time>
      </trkpt>
      <trkpt lat="45.38751" lon="5.80617">
        <ele>1665</ele>
        <time>2012-07-21T06:59:30.1Z</time>
      </trkpt>
      <trkpt lat="45.38752" lon="5.80613">
        <ele>1665</ele>
        <time>2012-07-21T06:59:32.1Z</time>
      </trkpt>
      <trkpt lat="45.38755" lon="5.80607">
        <ele>1666</ele>
        <time>2012-07-21T06:59:34.1Z</time>
      </trkpt>
      <trkpt lat="45.38757" lon="5.80602">
        <ele>1666</ele>
        <time>2012-07-21T06:59:36.1Z</time>
      </trkpt>
      <trkpt lat="45.38759" lon="5.80596">
        <ele>1666</ele>
        <time>2012-07-21T06:59:39.1Z</time>
      </trkpt>
      <trkpt lat="45.38762" lon="5.80591">
        <ele>1667</ele>
        <time>2012-07-21T06:59:41.1Z</time>
      </trkpt>
      <trkpt lat="45.38765" lon="5.80586">
        <ele>1667</ele>
        <time>2012-07-21T06:59:43.1Z</time>
      </trkpt>
      <trkpt lat="45.38768" lon="5.80581">
        <ele>1667</ele>
        <time>2012-07-21T06:59:45.1Z</time>
      </trkpt>
      <trkpt lat="45.38771" lon="5.80576">
        <ele>1667</ele>
        <time>2012-07-21T06:59:47.1Z</time>
      </trkpt>
      <trkpt lat="45.38774" lon="5.80571">
        <ele>1668</ele>
        <time>2012-07-21T06:59:49.1Z</time>
      </trkpt>
      <trkpt lat="45.38775" lon="5.80567">
        <ele>1668</ele>
        <time>2012-07-21T06:59:51.1Z</time>
      </trkpt>
      <trkpt lat="45.38777" lon="5.80563">
        <ele>1669</ele>
        <time>2012-07-21T06:59:53.1Z</time>
      </trkpt>
      <trkpt lat="45.38781" lon="5.80558">
        <ele>1670</ele>
        <time>2012-07-21T06:59:55.1Z</time>
      </trkpt>
      <trkpt lat="45.38783" lon="5.80555">
        <ele>1671</ele>
        <time>2012-07-21T06:59:57.1Z</time>
      </trkpt>
      <trkpt lat="45.38785" lon="5.80552">
        <ele>1671</ele>
        <time>2012-07-21T07:00:00.1Z</time>
      </trkpt>
      <trkpt lat="45.38786" lon="5.80549">
        <ele>1672</ele>
        <time>2012-07-21T07:00:02.1Z</time>
      </trkpt>
      <trkpt lat="45.38787" lon="5.80545">
        <ele>1673</ele>
        <time>2012-07-21T07:00:04.1Z</time>
      </trkpt>
      <trkpt lat="45.38789" lon="5.80542">
        <ele>1674</ele>
        <time>2012-07-21T07:00:06.1Z</time>
      </trkpt>
      <trkpt lat="45.38789" lon="5.8054">
        <ele>1675</ele>
        <time>2012-07-21T07:00:08.1Z</time>
      </trkpt>
      <trkpt lat="45.38787" lon="5.80538">
        <ele>1675</ele>
        <time>2012-07-21T07:00:10.1Z</time>
      </trkpt>
      <trkpt lat="45.38786" lon="5.80536">
        <ele>1676</ele>
        <time>2012-07-21T07:00:12.1Z</time>
      </trkpt>
      <trkpt lat="45.38785" lon="5.80533">
        <ele>1677</ele>
        <time>2012-07-21T07:00:14.1Z</time>
      </trkpt>
      <trkpt lat="45.38786" lon="5.8053">
        <ele>1677</ele>
        <time>2012-07-21T07:00:16.1Z</time>
      </trkpt>
      <trkpt lat="45.38787" lon="5.80528">
        <ele>1678</ele>
        <time>2012-07-21T07:00:18.1Z</time>
      </trkpt>
      <trkpt lat="45.38788" lon="5.80526">
        <ele>1678</ele>
        <time>2012-07-21T07:00:21.1Z</time>
      </trkpt>
      <trkpt lat="45.38789" lon="5.80525">
        <ele>1679</ele>
        <time>2012-07-21T07:00:23.1Z</time>
      </trkpt>
      <trkpt lat="45.3879" lon="5.80524">
        <ele>1679</ele>
        <time>2012-07-21T07:00:25.1Z</time>
      </trkpt>
      <trkpt lat="45.3879" lon="5.80524">
        <ele>1679</ele>
        <time>2012-07-21T07:00:27.1Z</time>
      </trkpt>
      <trkpt lat="45.3879" lon="5.80524">
        <ele>1680</ele>
        <time>2012-07-21T07:00:29.1Z</time>
      </trkpt>
      <trkpt lat="45.3879" lon="5.80524">
        <ele>1680</ele>
        <time>2012-07-21T07:00:31.1Z</time>
      </trkpt>
      <trkpt lat="45.3879" lon="5.80524">
        <ele>1680</ele>
        <time>2012-07-21T07:00:33.1Z</time>
      </trkpt>
      <trkpt lat="45.38791" lon="5.80524">
        <ele>1680</ele>
        <time>2012-07-21T07:00:35.1Z</time>
      </trkpt>
      <trkpt lat="45.38791" lon="5.80524">
        <ele>1680</ele>
        <time>2012-07-21T07:00:38.1Z</time>
      </trkpt>
      <trkpt lat="45.38791" lon="5.80524">
        <ele>1680</ele>
        <time>2012-07-21T07:00:40.1Z</time>
      </trkpt>
      <trkpt lat="45.38791" lon="5.80525">
        <ele>1680</ele>
        <time>2012-07-21T07:00:42.1Z</time>
      </trkpt>
      <trkpt lat="45.38791" lon="5.80525">
        <ele>1680</ele>
        <time>2012-07-21T07:00:44.1Z</time>
      </trkpt>
      <trkpt lat="45.38791" lon="5.80525">
        <ele>1680</ele>
        <time>2012-07-21T07:00:46.1Z</time>
      </trkpt>
      <trkpt lat="45.38791" lon="5.80525">
        <ele>1680</ele>
        <time>2012-07-21T07:00:48.1Z</time>
      </trkpt>
      <trkpt lat="45.3879" lon="5.80524">
        <ele>1680</ele>
        <time>2012-07-21T07:00:50.1Z</time>
      </trkpt>
      <trkpt lat="45.3879" lon="5.80524">
        <ele>1680</ele>
        <time>2012-07-21T07:00:52.1Z</time>
      </trkpt>
      <trkpt lat="45.3879" lon="5.80525">
        <ele>1680</ele>
        <time>2012-07-21T07:00:55.1Z</time>
      </trkpt>
      <trkpt lat="45.3879" lon="5.80525">
        <ele>1680</ele>
        <time>2012-07-21T07:00:57.1Z</time>
      </trkpt>
      <trkpt lat="45.3879" lon="5.80525">
        <ele>1680</ele>
        <time>2012-07-21T07:00:59.1Z</time>
      </trkpt>
      <trkpt lat="45.3879" lon="5.80525">
        <ele>1680</ele>
        <time>2012-07-21T07:01:01.1Z</time>
      </trkpt>
      <trkpt lat="45.3879" lon="5.80525">
        <ele>1680</ele>
        <time>2012-07-21T07:01:03.1Z</time>
      </trkpt>
      <trkpt lat="45.3879" lon="5.80525">
        <ele>1680</ele>
        <time>2012-07-21T07:01:05.1Z</time>
      </trkpt>
      <trkpt lat="45.3879" lon="5.80525">
        <ele>1680</ele>
        <time>2012-07-21T07:01:07.1Z</time>
      </trkpt>
      <trkpt lat="45.3879" lon="5.80525">
        <ele>1680</ele>
        <time>2012-07-21T07:01:09.1Z</time>
      </trkpt>
      <trkpt lat="45.3879" lon="5.80525">
        <ele>1680</ele>
        <time>2012-07-21T07:01:11.1Z</time>
      </trkpt>
      <trkpt lat="45.3879" lon="5.80525">
        <ele>1680</ele>
        <time>2012-07-21T07:01:13.1Z</time>
      </trkpt>
      <trkpt lat="45.3879" lon="5.80525">
        <ele>1680</ele>
        <time>2012-07-21T07:01:15.1Z</time>
      </trkpt>
      <trkpt lat="45.3879" lon="5.80525">
        <ele>1680</ele>
        <time>2012-07-21T07:01:18.1Z</time>
      </trkpt>
      <trkpt lat="45.3879" lon="5.80525">
        <ele>1680</ele>
        <time>2012-07-21T07:01:20.1Z</time>
      </trkpt>
      <trkpt lat="45.3879" lon="5.80525">
        <ele>1680</ele>
        <time>2012-07-21T07:01:22.1Z</time>
      </trkpt>
      <trkpt lat="45.38789" lon="5.80526">
        <ele>1680</ele>
        <time>2012-07-21T07:01:24.1Z</time>
      </trkpt>
      <trkpt lat="45.38789" lon="5.80526">
        <ele>1680</ele>
        <time>2012-07-21T07:01:26.1Z</time>
      </trkpt>
      <trkpt lat="45.38789" lon="5.80526">
        <ele>1680</ele>
        <time>2012-07-21T07:01:28.1Z</time>
      </trkpt>
      <trkpt lat="45.38789" lon="5.80526">
        <ele>1680</ele>
        <time>2012-07-21T07:01:30.1Z</time>
      </trkpt>
      <trkpt lat="45.38789" lon="5.80526">
        <ele>1680</ele>
        <time>2012-07-21T07:01:32.1Z</time>
      </trkpt>
      <trkpt lat="45.38788" lon="5.80526">
        <ele>1680</ele>
        <time>2012-07-21T07:01:34.1Z</time>
      </trkpt>
      <trkpt lat="45.38788" lon="5.80526">
        <ele>1680</ele>
        <time>2012-07-21T07:01:36.1Z</time>
      </trkpt>
      <trkpt lat="45.38788" lon="5.80526">
        <ele>1680</ele>
        <time>2012-07-21T07:01:38.1Z</time>
      </trkpt>
      <trkpt lat="45.38788" lon="5.80526">
        <ele>1680</ele>
        <time>2012-07-21T07:01:40.1Z</time>
      </trkpt>
      <trkpt lat="45.38789" lon="5.80527">
        <ele>1680</ele>
        <time>2012-07-21T07:01:42.1Z</time>
      </trkpt>
      <trkpt lat="45.38789" lon="5.80527">
        <ele>1680</ele>
        <time>2012-07-21T07:01:44.1Z</time>
      </trkpt>
      <trkpt lat="45.38789" lon="5.80527">
        <ele>1680</ele>
        <time>2012-07-21T07:01:46.1Z</time>
      </trkpt>
      <trkpt lat="45.38789" lon="5.80527">
        <ele>1681</ele>
        <time>2012-07-21T07:01:49.1Z</time>
      </trkpt>
      <trkpt lat="45.38788" lon="5.80526">
        <ele>1681</ele>
        <time>2012-07-21T07:01:51.1Z</time>
      </trkpt>
      <trkpt lat="45.38787" lon="5.80527">
        <ele>1681</ele>
        <time>2012-07-21T07:01:53.1Z</time>
      </trkpt>
      <trkpt lat="45.38787" lon="5.80527">
        <ele>1681</ele>
        <time>2012-07-21T07:01:55.1Z</time>
      </trkpt>
      <trkpt lat="45.38787" lon="5.80527">
        <ele>1680</ele>
        <time>2012-07-21T07:01:57.1Z</time>
      </trkpt>
      <trkpt lat="45.38787" lon="5.80526">
        <ele>1680</ele>
        <time>2012-07-21T07:01:59.1Z</time>
      </trkpt>
      <trkpt lat="45.38787" lon="5.80526">
        <ele>1680</ele>
        <time>2012-07-21T07:02:01.1Z</time>
      </trkpt>
      <trkpt lat="45.38787" lon="5.80526">
        <ele>1680</ele>
        <time>2012-07-21T07:02:03.1Z</time>
      </trkpt>
      <trkpt lat="45.38787" lon="5.80526">
        <ele>1680</ele>
        <time>2012-07-21T07:02:05.1Z</time>
      </trkpt>
      <trkpt lat="45.38787" lon="5.80526">
        <ele>1680</ele>
        <time>2012-07-21T07:02:07.1Z</time>
      </trkpt>
      <trkpt lat="45.38787" lon="5.80525">
        <ele>1680</ele>
        <time>2012-07-21T07:02:09.1Z</time>
      </trkpt>
      <trkpt lat="45.38787" lon="5.80525">
        <ele>1680</ele>
        <time>2012-07-21T07:02:11.1Z</time>
      </trkpt>
      <trkpt lat="45.38788" lon="5.80525">
        <ele>1680</ele>
        <time>2012-07-21T07:02:13.1Z</time>
      </trkpt>
      <trkpt lat="45.38788" lon="5.80525">
        <ele>1680</ele>
        <time>2012-07-21T07:02:16.1Z</time>
      </trkpt>
      <trkpt lat="45.38788" lon="5.80525">
        <ele>1680</ele>
        <time>2012-07-21T07:02:18.1Z</time>
      </trkpt>
      <trkpt lat="45.38789" lon="5.80525">
        <ele>1680</ele>
        <time>2012-07-21T07:02:20.1Z</time>
      </trkpt>
      <trkpt lat="45.38789" lon="5.80525">
        <ele>1680</ele>
        <time>2012-07-21T07:02:22.1Z</time>
      </trkpt>
      <trkpt lat="45.38789" lon="5.80524">
        <ele>1680</ele>
        <time>2012-07-21T07:02:24.1Z</time>
      </trkpt>
      <trkpt lat="45.38789" lon="5.80524">
        <ele>1680</ele>
        <time>2012-07-21T07:02:26.1Z</time>
      </trkpt>
      <trkpt lat="45.38789" lon="5.80524">
        <ele>1680</ele>
        <time>2012-07-21T07:02:28.1Z</time>
      </trkpt>
      <trkpt lat="45.38789" lon="5.80524">
        <ele>1680</ele>
        <time>2012-07-21T07:02:31.1Z</time>
      </trkpt>
      <trkpt lat="45.38789" lon="5.80525">
        <ele>1680</ele>
        <time>2012-07-21T07:02:33.1Z</time>
      </trkpt>
      <trkpt lat="45.38789" lon="5.80525">
        <ele>1680</ele>
        <time>2012-07-21T07:02:35.1Z</time>
      </trkpt>
      <trkpt lat="45.38789" lon="5.80525">
        <ele>1680</ele>
        <time>2012-07-21T07:02:37.1Z</time>
      </trkpt>
      <trkpt lat="45.38789" lon="5.80525">
        <ele>1680</ele>
        <time>2012-07-21T07:02:39.1Z</time>
      </trkpt>
      <trkpt lat="45.38789" lon="5.80525">
        <ele>1680</ele>
        <time>2012-07-21T07:02:41.1Z</time>
      </trkpt>
      <trkpt lat="45.38789" lon="5.80524">
        <ele>1681</ele>
        <time>2012-07-21T07:02:43.1Z</time>
      </trkpt>
      <trkpt lat="45.38789" lon="5.80524">
        <ele>1681</ele>
        <time>2012-07-21T07:02:45.1Z</time>
      </trkpt>
      <trkpt lat="45.38789" lon="5.80524">
        <ele>1680</ele>
        <time>2012-07-21T07:02:48.1Z</time>
      </trkpt>
      <trkpt lat="45.38789" lon="5.80524">
        <ele>1680</ele>
        <time>2012-07-21T07:02:50.1Z</time>
      </trkpt>
      <trkpt lat="45.38789" lon="5.80525">
        <ele>1680</ele>
        <time>2012-07-21T07:02:52.1Z</time>
      </trkpt>
      <trkpt lat="45.38789" lon="5.80524">
        <ele>1680</ele>
        <time>2012-07-21T07:02:54.1Z</time>
      </trkpt>
      <trkpt lat="45.38789" lon="5.80524">
        <ele>1680</ele>
        <time>2012-07-21T07:02:56.1Z</time>
      </trkpt>
      <trkpt lat="45.38789" lon="5.80524">
        <ele>1680</ele>
        <time>2012-07-21T07:02:58.1Z</time>
      </trkpt>
      <trkpt lat="45.38789" lon="5.80524">
        <ele>1681</ele>
        <time>2012-07-21T07:03:00.1Z</time>
      </trkpt>
      <trkpt lat="45.38789" lon="5.80524">
        <ele>1681</ele>
        <time>2012-07-21T07:03:02.1Z</time>
      </trkpt>
      <trkpt lat="45.38789" lon="5.80524">
        <ele>1681</ele>
        <time>2012-07-21T07:03:04.1Z</time>
      </trkpt>
      <trkpt lat="45.38789" lon="5.80524">
        <ele>1681</ele>
        <time>2012-07-21T07:03:07.1Z</time>
      </trkpt>
      <trkpt lat="45.38789" lon="5.80524">
        <ele>1681</ele>
        <time>2012-07-21T07:03:09.1Z</time>
      </trkpt>
      <trkpt lat="45.38789" lon="5.80524">
        <ele>1681</ele>
        <time>2012-07-21T07:03:11.1Z</time>
      </trkpt>
      <trkpt lat="45.38789" lon="5.80524">
        <ele>1680</ele>
        <time>2012-07-21T07:03:13.1Z</time>
      </trkpt>
      <trkpt lat="45.38789" lon="5.80524">
        <ele>1680</ele>
        <time>2012-07-21T07:03:15.1Z</time>
      </trkpt>
      <trkpt lat="45.38789" lon="5.80524">
        <ele>1680</ele>
        <time>2012-07-21T07:03:17.1Z</time>
      </trkpt>
      <trkpt lat="45.38789" lon="5.80524">
        <ele>1680</ele>
        <time>2012-07-21T07:03:20.1Z</time>
      </trkpt>
      <trkpt lat="45.38789" lon="5.80524">
        <ele>1680</ele>
        <time>2012-07-21T07:03:22.1Z</time>
      </trkpt>
      <trkpt lat="45.38789" lon="5.80524">
        <ele>1680</ele>
        <time>2012-07-21T07:03:24.1Z</time>
      </trkpt>
      <trkpt lat="45.38789" lon="5.80524">
        <ele>1680</ele>
        <time>2012-07-21T07:03:26.1Z</time>
      </trkpt>
      <trkpt lat="45.38789" lon="5.80525">
        <ele>1680</ele>
        <time>2012-07-21T07:03:28.1Z</time>
      </trkpt>
      <trkpt lat="45.38789" lon="5.80525">
        <ele>1680</ele>
        <time>2012-07-21T07:03:30.1Z</time>
      </trkpt>
      <trkpt lat="45.3879" lon="5.80524">
        <ele>1680</ele>
        <time>2012-07-21T07:03:32.1Z</time>
      </trkpt>
      <trkpt lat="45.3879" lon="5.80524">
        <ele>1680</ele>
        <time>2012-07-21T07:03:34.1Z</time>
      </trkpt>
      <trkpt lat="45.3879" lon="5.80525">
        <ele>1680</ele>
        <time>2012-07-21T07:03:37.1Z</time>
      </trkpt>
      <trkpt lat="45.3879" lon="5.80525">
        <ele>1681</ele>
        <time>2012-07-21T07:03:39.1Z</time>
      </trkpt>
      <trkpt lat="45.3879" lon="5.80525">
        <ele>1680</ele>
        <time>2012-07-21T07:03:41.1Z</time>
      </trkpt>
      <trkpt lat="45.3879" lon="5.80525">
        <ele>1680</ele>
        <time>2012-07-21T07:03:43.1Z</time>
      </trkpt>
      <trkpt lat="45.3879" lon="5.80526">
        <ele>1680</ele>
        <time>2012-07-21T07:03:45.1Z</time>
      </trkpt>
      <trkpt lat="45.38791" lon="5.80526">
        <ele>1680</ele>
        <time>2012-07-21T07:03:47.1Z</time>
      </trkpt>
      <trkpt lat="45.3879" lon="5.80526">
        <ele>1680</ele>
        <time>2012-07-21T07:03:49.1Z</time>
      </trkpt>
      <trkpt lat="45.3879" lon="5.80526">
        <ele>1680</ele>
        <time>2012-07-21T07:03:52.1Z</time>
      </trkpt>
      <trkpt lat="45.3879" lon="5.80526">
        <ele>1680</ele>
        <time>2012-07-21T07:03:54.1Z</time>
      </trkpt>
      <trkpt lat="45.3879" lon="5.80526">
        <ele>1680</ele>
        <time>2012-07-21T07:03:56.1Z</time>
      </trkpt>
      <trkpt lat="45.3879" lon="5.80527">
        <ele>1680</ele>
        <time>2012-07-21T07:03:58.1Z</time>
      </trkpt>
      <trkpt lat="45.38789" lon="5.80527">
        <ele>1680</ele>
        <time>2012-07-21T07:04:00.1Z</time>
      </trkpt>
      <trkpt lat="45.38788" lon="5.80528">
        <ele>1679</ele>
        <time>2012-07-21T07:04:02.1Z</time>
      </trkpt>
      <trkpt lat="45.38786" lon="5.80529">
        <ele>1679</ele>
        <time>2012-07-21T07:04:04.1Z</time>
      </trkpt>
      <trkpt lat="45.38786" lon="5.80531">
        <ele>1679</ele>
        <time>2012-07-21T07:04:06.1Z</time>
      </trkpt>
      <trkpt lat="45.38786" lon="5.80534">
        <ele>1678</ele>
        <time>2012-07-21T07:04:08.1Z</time>
      </trkpt>
      <trkpt lat="45.38784" lon="5.80537">
        <ele>1678</ele>
        <time>2012-07-21T07:04:10.1Z</time>
      </trkpt>
      <trkpt lat="45.38783" lon="5.80538">
        <ele>1677</ele>
        <time>2012-07-21T07:04:13.1Z</time>
      </trkpt>
      <trkpt lat="45.38781" lon="5.80541">
        <ele>1677</ele>
        <time>2012-07-21T07:04:15.1Z</time>
      </trkpt>
      <trkpt lat="45.38779" lon="5.80544">
        <ele>1676</ele>
        <time>2012-07-21T07:04:17.1Z</time>
      </trkpt>
      <trkpt lat="45.38777" lon="5.80547">
        <ele>1675</ele>
        <time>2012-07-21T07:04:19.1Z</time>
      </trkpt>
      <trkpt lat="45.38774" lon="5.80549">
        <ele>1674</ele>
        <time>2012-07-21T07:04:21.1Z</time>
      </trkpt>
      <trkpt lat="45.38771" lon="5.80555">
        <ele>1673</ele>
        <time>2012-07-21T07:04:23.1Z</time>
      </trkpt>
      <trkpt lat="45.38766" lon="5.80557">
        <ele>1672</ele>
        <time>2012-07-21T07:04:25.1Z</time>
      </trkpt>
      <trkpt lat="45.38761" lon="5.80561">
        <ele>1671</ele>
        <time>2012-07-21T07:04:27.1Z</time>
      </trkpt>
      <trkpt lat="45.38757" lon="5.80566">
        <ele>1671</ele>
        <time>2012-07-21T07:04:29.1Z</time>
      </trkpt>
      <trkpt lat="45.38755" lon="5.80577">
        <ele>1671</ele>
        <time>2012-07-21T07:04:31.1Z</time>
      </trkpt>
      <trkpt lat="45.38753" lon="5.80585">
        <ele>1671</ele>
        <time>2012-07-21T07:04:33.1Z</time>
      </trkpt>
      <trkpt lat="45.3875" lon="5.8059">
        <ele>1671</ele>
        <time>2012-07-21T07:04:35.1Z</time>
      </trkpt>
      <trkpt lat="45.38747" lon="5.80596">
        <ele>1671</ele>
        <time>2012-07-21T07:04:38.1Z</time>
      </trkpt>
      <trkpt lat="45.38745" lon="5.80603">
        <ele>1671</ele>
        <time>2012-07-21T07:04:40.1Z</time>
      </trkpt>
      <trkpt lat="45.38742" lon="5.80609">
        <ele>1671</ele>
        <time>2012-07-21T07:04:42.1Z</time>
      </trkpt>
      <trkpt lat="45.38741" lon="5.80615">
        <ele>1672</ele>
        <time>2012-07-21T07:04:44.1Z</time>
      </trkpt>
      <trkpt lat="45.38738" lon="5.80621">
        <ele>1672</ele>
        <time>2012-07-21T07:04:46.1Z</time>
      </trkpt>
      <trkpt lat="45.38733" lon="5.80625">
        <ele>1673</ele>
        <time>2012-07-21T07:04:48.1Z</time>
      </trkpt>
      <trkpt lat="45.38729" lon="5.80629">
        <ele>1673</ele>
        <time>2012-07-21T07:04:50.1Z</time>
      </trkpt>
      <trkpt lat="45.38724" lon="5.80632">
        <ele>1673</ele>
        <time>2012-07-21T07:04:52.1Z</time>
      </trkpt>
      <trkpt lat="45.3872" lon="5.80634">
        <ele>1672</ele>
        <time>2012-07-21T07:04:54.1Z</time>
      </trkpt>
      <trkpt lat="45.38716" lon="5.80635">
        <ele>1672</ele>
        <time>2012-07-21T07:04:56.1Z</time>
      </trkpt>
      <trkpt lat="45.38712" lon="5.80635">
        <ele>1671</ele>
        <time>2012-07-21T07:04:58.1Z</time>
      </trkpt>
      <trkpt lat="45.38709" lon="5.80635">
        <ele>1670</ele>
        <time>2012-07-21T07:05:00.1Z</time>
      </trkpt>
      <trkpt lat="45.38706" lon="5.80636">
        <ele>1670</ele>
        <time>2012-07-21T07:05:02.1Z</time>
      </trkpt>
      <trkpt lat="45.38702" lon="5.80637">
        <ele>1669</ele>
        <time>2012-07-21T07:05:05.1Z</time>
      </trkpt>
      <trkpt lat="45.38699" lon="5.80638">
        <ele>1669</ele>
        <time>2012-07-21T07:05:07.1Z</time>
      </trkpt>
      <trkpt lat="45.38695" lon="5.80638">
        <ele>1667</ele>
        <time>2012-07-21T07:05:09.1Z</time>
      </trkpt>
      <trkpt lat="45.3869" lon="5.80638">
        <ele>1666</ele>
        <time>2012-07-21T07:05:11.1Z</time>
      </trkpt>
      <trkpt lat="45.38686" lon="5.80636">
        <ele>1665</ele>
        <time>2012-07-21T07:05:13.1Z</time>
      </trkpt>
      <trkpt lat="45.38683" lon="5.80635">
        <ele>1664</ele>
        <time>2012-07-21T07:05:15.1Z</time>
      </trkpt>
      <trkpt lat="45.3868" lon="5.80633">
        <ele>1663</ele>
        <time>2012-07-21T07:05:17.1Z</time>
      </trkpt>
      <trkpt lat="45.38677" lon="5.8063">
        <ele>1662</ele>
        <time>2012-07-21T07:05:19.1Z</time>
      </trkpt>
      <trkpt lat="45.38674" lon="5.80629">
        <ele>1660</ele>
        <time>2012-07-21T07:05:21.1Z</time>
      </trkpt>
      <trkpt lat="45.3867" lon="5.80628">
        <ele>1660</ele>
        <time>2012-07-21T07:05:23.1Z</time>
      </trkpt>
      <trkpt lat="45.38666" lon="5.80627">
        <ele>1658</ele>
        <time>2012-07-21T07:05:25.1Z</time>
      </trkpt>
      <trkpt lat="45.38661" lon="5.80623">
        <ele>1657</ele>
        <time>2012-07-21T07:05:27.1Z</time>
      </trkpt>
      <trkpt lat="45.38656" lon="5.8062">
        <ele>1656</ele>
        <time>2012-07-21T07:05:30.1Z</time>
      </trkpt>
      <trkpt lat="45.38651" lon="5.80616">
        <ele>1655</ele>
        <time>2012-07-21T07:05:32.1Z</time>
      </trkpt>
      <trkpt lat="45.38648" lon="5.80612">
        <ele>1654</ele>
        <time>2012-07-21T07:05:34.1Z</time>
      </trkpt>
      <trkpt lat="45.38644" lon="5.8061">
        <ele>1653</ele>
        <time>2012-07-21T07:05:36.1Z</time>
      </trkpt>
      <trkpt lat="45.3864" lon="5.80607">
        <ele>1652</ele>
        <time>2012-07-21T07:05:38.1Z</time>
      </trkpt>
      <trkpt lat="45.38639" lon="5.80604">
        <ele>1651</ele>
        <time>2012-07-21T07:05:40.1Z</time>
      </trkpt>
      <trkpt lat="45.3864" lon="5.80602">
        <ele>1650</ele>
        <time>2012-07-21T07:05:42.1Z</time>
      </trkpt>
      <trkpt lat="45.38642" lon="5.80601">
        <ele>1649</ele>
        <time>2012-07-21T07:05:45.1Z</time>
      </trkpt>
      <trkpt lat="45.38643" lon="5.80601">
        <ele>1648</ele>
        <time>2012-07-21T07:05:47.1Z</time>
      </trkpt>
      <trkpt lat="45.38645" lon="5.806">
        <ele>1647</ele>
        <time>2012-07-21T07:05:49.1Z</time>
      </trkpt>
      <trkpt lat="45.38646" lon="5.80599">
        <ele>1647</ele>
        <time>2012-07-21T07:05:51.1Z</time>
      </trkpt>
      <trkpt lat="45.38646" lon="5.80599">
        <ele>1646</ele>
        <time>2012-07-21T07:05:53.1Z</time>
      </trkpt>
      <trkpt lat="45.38647" lon="5.80599">
        <ele>1645</ele>
        <time>2012-07-21T07:05:55.1Z</time>
      </trkpt>
      <trkpt lat="45.38647" lon="5.80598">
        <ele>1645</ele>
        <time>2012-07-21T07:05:57.1Z</time>
      </trkpt>
      <trkpt lat="45.38647" lon="5.80596">
        <ele>1644</ele>
        <time>2012-07-21T07:05:59.1Z</time>
      </trkpt>
      <trkpt lat="45.38646" lon="5.80593">
        <ele>1643</ele>
        <time>2012-07-21T07:06:02.1Z</time>
      </trkpt>
      <trkpt lat="45.38649" lon="5.80594">
        <ele>1642</ele>
        <time>2012-07-21T07:06:04.1Z</time>
      </trkpt>
      <trkpt lat="45.38649" lon="5.80593">
        <ele>1641</ele>
        <time>2012-07-21T07:06:06.1Z</time>
      </trkpt>
      <trkpt lat="45.38652" lon="5.80591">
        <ele>1640</ele>
        <time>2012-07-21T07:06:08.1Z</time>
      </trkpt>
      <trkpt lat="45.38653" lon="5.8059">
        <ele>1639</ele>
        <time>2012-07-21T07:06:10.1Z</time>
      </trkpt>
      <trkpt lat="45.38654" lon="5.80589">
        <ele>1639</ele>
        <time>2012-07-21T07:06:12.1Z</time>
      </trkpt>
      <trkpt lat="45.38653" lon="5.80588">
        <ele>1638</ele>
        <time>2012-07-21T07:06:14.1Z</time>
      </trkpt>
      <trkpt lat="45.38654" lon="5.80588">
        <ele>1637</ele>
        <time>2012-07-21T07:06:17.1Z</time>
      </trkpt>
      <trkpt lat="45.38654" lon="5.80587">
        <ele>1637</ele>
        <time>2012-07-21T07:06:19.1Z</time>
      </trkpt>
      <trkpt lat="45.38656" lon="5.80586">
        <ele>1637</ele>
        <time>2012-07-21T07:06:21.1Z</time>
      </trkpt>
      <trkpt lat="45.38658" lon="5.80585">
        <ele>1637</ele>
        <time>2012-07-21T07:06:23.1Z</time>
      </trkpt>
      <trkpt lat="45.38659" lon="5.80583">
        <ele>1636</ele>
        <time>2012-07-21T07:06:25.1Z</time>
      </trkpt>
      <trkpt lat="45.3866" lon="5.8058">
        <ele>1635</ele>
        <time>2012-07-21T07:06:27.1Z</time>
      </trkpt>
      <trkpt lat="45.38667" lon="5.80581">
        <ele>1634</ele>
        <time>2012-07-21T07:06:29.1Z</time>
      </trkpt>
      <trkpt lat="45.3867" lon="5.80581">
        <ele>1633</ele>
        <time>2012-07-21T07:06:32.1Z</time>
      </trkpt>
      <trkpt lat="45.3867" lon="5.8058">
        <ele>1633</ele>
        <time>2012-07-21T07:06:34.1Z</time>
      </trkpt>
      <trkpt lat="45.3867" lon="5.80576">
        <ele>1632</ele>
        <time>2012-07-21T07:06:36.1Z</time>
      </trkpt>
      <trkpt lat="45.38671" lon="5.80573">
        <ele>1631</ele>
        <time>2012-07-21T07:06:38.1Z</time>
      </trkpt>
      <trkpt lat="45.3867" lon="5.80571">
        <ele>1630</ele>
        <time>2012-07-21T07:06:40.1Z</time>
      </trkpt>
      <trkpt lat="45.38668" lon="5.8057">
        <ele>1629</ele>
        <time>2012-07-21T07:06:42.1Z</time>
      </trkpt>
      <trkpt lat="45.38667" lon="5.80571">
        <ele>1628</ele>
        <time>2012-07-21T07:06:44.1Z</time>
      </trkpt>
      <trkpt lat="45.38667" lon="5.8057">
        <ele>1627</ele>
        <time>2012-07-21T07:06:47.1Z</time>
      </trkpt>
      <trkpt lat="45.38666" lon="5.8057">
        <ele>1626</ele>
        <time>2012-07-21T07:06:49.1Z</time>
      </trkpt>
      <trkpt lat="45.38665" lon="5.80567">
        <ele>1625</ele>
        <time>2012-07-21T07:06:51.1Z</time>
      </trkpt>
      <trkpt lat="45.38664" lon="5.80565">
        <ele>1624</ele>
        <time>2012-07-21T07:06:53.1Z</time>
      </trkpt>
      <trkpt lat="45.38664" lon="5.80564">
        <ele>1624</ele>
        <time>2012-07-21T07:06:55.1Z</time>
      </trkpt>
      <trkpt lat="45.38663" lon="5.80563">
        <ele>1624</ele>
        <time>2012-07-21T07:06:57.1Z</time>
      </trkpt>
      <trkpt lat="45.38662" lon="5.80564">
        <ele>1624</ele>
        <time>2012-07-21T07:07:00.1Z</time>
      </trkpt>
      <trkpt lat="45.38661" lon="5.80564">
        <ele>1624</ele>
        <time>2012-07-21T07:07:02.1Z</time>
      </trkpt>
      <trkpt lat="45.3866" lon="5.80563">
        <ele>1623</ele>
        <time>2012-07-21T07:07:04.1Z</time>
      </trkpt>
      <trkpt lat="45.38659" lon="5.80563">
        <ele>1624</ele>
        <time>2012-07-21T07:07:06.1Z</time>
      </trkpt>
      <trkpt lat="45.38657" lon="5.80563">
        <ele>1624</ele>
        <time>2012-07-21T07:07:08.1Z</time>
      </trkpt>
      <trkpt lat="45.38657" lon="5.80562">
        <ele>1623</ele>
        <time>2012-07-21T07:07:10.1Z</time>
      </trkpt>
      <trkpt lat="45.38656" lon="5.80561">
        <ele>1623</ele>
        <time>2012-07-21T07:07:12.1Z</time>
      </trkpt>
      <trkpt lat="45.38654" lon="5.8056">
        <ele>1622</ele>
        <time>2012-07-21T07:07:14.1Z</time>
      </trkpt>
      <trkpt lat="45.38655" lon="5.80559">
        <ele>1622</ele>
        <time>2012-07-21T07:07:16.1Z</time>
      </trkpt>
      <trkpt lat="45.38655" lon="5.80559">
        <ele>1621</ele>
        <time>2012-07-21T07:07:19.1Z</time>
      </trkpt>
      <trkpt lat="45.38654" lon="5.80559">
        <ele>1621</ele>
        <time>2012-07-21T07:07:21.1Z</time>
      </trkpt>
      <trkpt lat="45.38655" lon="5.80558">
        <ele>1621</ele>
        <time>2012-07-21T07:07:23.1Z</time>
      </trkpt>
      <trkpt lat="45.38655" lon="5.80558">
        <ele>1621</ele>
        <time>2012-07-21T07:07:25.1Z</time>
      </trkpt>
      <trkpt lat="45.38655" lon="5.80557">
        <ele>1620</ele>
        <time>2012-07-21T07:07:27.1Z</time>
      </trkpt>
      <trkpt lat="45.38654" lon="5.80556">
        <ele>1621</ele>
        <time>2012-07-21T07:07:29.1Z</time>
      </trkpt>
      <trkpt lat="45.38654" lon="5.80557">
        <ele>1621</ele>
        <time>2012-07-21T07:07:31.1Z</time>
      </trkpt>
      <trkpt lat="45.38653" lon="5.80557">
        <ele>1620</ele>
        <time>2012-07-21T07:07:34.1Z</time>
      </trkpt>
      <trkpt lat="45.38653" lon="5.80557">
        <ele>1620</ele>
        <time>2012-07-21T07:07:36.1Z</time>
      </trkpt>
      <trkpt lat="45.38652" lon="5.80557">
        <ele>1620</ele>
        <time>2012-07-21T07:07:38.1Z</time>
      </trkpt>
      <trkpt lat="45.38652" lon="5.80556">
        <ele>1619</ele>
        <time>2012-07-21T07:07:40.1Z</time>
      </trkpt>
      <trkpt lat="45.38652" lon="5.80555">
        <ele>1618</ele>
        <time>2012-07-21T07:07:42.1Z</time>
      </trkpt>
      <trkpt lat="45.38654" lon="5.80555">
        <ele>1618</ele>
        <time>2012-07-21T07:07:44.1Z</time>
      </trkpt>
      <trkpt lat="45.38655" lon="5.80555">
        <ele>1618</ele>
        <time>2012-07-21T07:07:46.1Z</time>
      </trkpt>
      <trkpt lat="45.38655" lon="5.80554">
        <ele>1617</ele>
        <time>2012-07-21T07:07:49.1Z</time>
      </trkpt>
      <trkpt lat="45.38656" lon="5.80554">
        <ele>1617</ele>
        <time>2012-07-21T07:07:51.1Z</time>
      </trkpt>
      <trkpt lat="45.38657" lon="5.80555">
        <ele>1616</ele>
        <time>2012-07-21T07:07:53.1Z</time>
      </trkpt>
      <trkpt lat="45.38657" lon="5.80553">
        <ele>1616</ele>
        <time>2012-07-21T07:07:55.1Z</time>
      </trkpt>
      <trkpt lat="45.38657" lon="5.80552">
        <ele>1615</ele>
        <time>2012-07-21T07:07:57.1Z</time>
      </trkpt>
      <trkpt lat="45.38658" lon="5.8055">
        <ele>1615</ele>
        <time>2012-07-21T07:07:59.1Z</time>
      </trkpt>
      <trkpt lat="45.3866" lon="5.80549">
        <ele>1614</ele>
        <time>2012-07-21T07:08:01.1Z</time>
      </trkpt>
      <trkpt lat="45.3866" lon="5.80549">
        <ele>1614</ele>
        <time>2012-07-21T07:08:03.1Z</time>
      </trkpt>
      <trkpt lat="45.3866" lon="5.80549">
        <ele>1613</ele>
        <time>2012-07-21T07:08:06.1Z</time>
      </trkpt>
      <trkpt lat="45.3866" lon="5.80547">
        <ele>1613</ele>
        <time>2012-07-21T07:08:08.1Z</time>
      </trkpt>
      <trkpt lat="45.38661" lon="5.80545">
        <ele>1613</ele>
        <time>2012-07-21T07:08:10.1Z</time>
      </trkpt>
      <trkpt lat="45.38661" lon="5.80543">
        <ele>1612</ele>
        <time>2012-07-21T07:08:12.1Z</time>
      </trkpt>
      <trkpt lat="45.38662" lon="5.80543">
        <ele>1612</ele>
        <time>2012-07-21T07:08:14.1Z</time>
      </trkpt>
      <trkpt lat="45.38663" lon="5.80543">
        <ele>1611</ele>
        <time>2012-07-21T07:08:16.1Z</time>
      </trkpt>
      <trkpt lat="45.38663" lon="5.80544">
        <ele>1611</ele>
        <time>2012-07-21T07:08:18.1Z</time>
      </trkpt>
      <trkpt lat="45.38665" lon="5.80545">
        <ele>1611</ele>
        <time>2012-07-21T07:08:21.1Z</time>
      </trkpt>
      <trkpt lat="45.38665" lon="5.80545">
        <ele>1610</ele>
        <time>2012-07-21T07:08:23.1Z</time>
      </trkpt>
      <trkpt lat="45.38666" lon="5.80544">
        <ele>1610</ele>
        <time>2012-07-21T07:08:25.1Z</time>
      </trkpt>
      <trkpt lat="45.38666" lon="5.80543">
        <ele>1610</ele>
        <time>2012-07-21T07:08:27.1Z</time>
      </trkpt>
      <trkpt lat="45.38667" lon="5.80542">
        <ele>1610</ele>
        <time>2012-07-21T07:08:29.1Z</time>
      </trkpt>
      <trkpt lat="45.38669" lon="5.80541">
        <ele>1609</ele>
        <time>2012-07-21T07:08:31.1Z</time>
      </trkpt>
      <trkpt lat="45.38668" lon="5.8054">
        <ele>1608</ele>
        <time>2012-07-21T07:08:33.1Z</time>
      </trkpt>
      <trkpt lat="45.38669" lon="5.80538">
        <ele>1608</ele>
        <time>2012-07-21T07:08:36.1Z</time>
      </trkpt>
      <trkpt lat="45.38671" lon="5.80537">
        <ele>1607</ele>
        <time>2012-07-21T07:08:38.1Z</time>
      </trkpt>
      <trkpt lat="45.38671" lon="5.80537">
        <ele>1607</ele>
        <time>2012-07-21T07:08:40.1Z</time>
      </trkpt>
      <trkpt lat="45.38671" lon="5.80537">
        <ele>1607</ele>
        <time>2012-07-21T07:08:42.1Z</time>
      </trkpt>
      <trkpt lat="45.38671" lon="5.80536">
        <ele>1607</ele>
        <time>2012-07-21T07:08:44.1Z</time>
      </trkpt>
      <trkpt lat="45.38671" lon="5.8054">
        <ele>1606</ele>
        <time>2012-07-21T07:08:46.1Z</time>
      </trkpt>
      <trkpt lat="45.38671" lon="5.80541">
        <ele>1606</ele>
        <time>2012-07-21T07:08:48.1Z</time>
      </trkpt>
      <trkpt lat="45.3867" lon="5.80543">
        <ele>1606</ele>
        <time>2012-07-21T07:08:50.1Z</time>
      </trkpt>
      <trkpt lat="45.3867" lon="5.80544">
        <ele>1605</ele>
        <time>2012-07-21T07:08:53.1Z</time>
      </trkpt>
      <trkpt lat="45.38669" lon="5.80546">
        <ele>1605</ele>
        <time>2012-07-21T07:08:55.1Z</time>
      </trkpt>
      <trkpt lat="45.3867" lon="5.80548">
        <ele>1604</ele>
        <time>2012-07-21T07:08:57.1Z</time>
      </trkpt>
      <trkpt lat="45.3867" lon="5.80548">
        <ele>1603</ele>
        <time>2012-07-21T07:08:59.1Z</time>
      </trkpt>
      <trkpt lat="45.38671" lon="5.80548">
        <ele>1603</ele>
        <time>2012-07-21T07:09:01.1Z</time>
      </trkpt>
      <trkpt lat="45.38672" lon="5.80548">
        <ele>1603</ele>
        <time>2012-07-21T07:09:03.1Z</time>
      </trkpt>
      <trkpt lat="45.38673" lon="5.80547">
        <ele>1603</ele>
        <time>2012-07-21T07:09:05.1Z</time>
      </trkpt>
      <trkpt lat="45.38676" lon="5.80548">
        <ele>1602</ele>
        <time>2012-07-21T07:09:07.1Z</time>
      </trkpt>
      <trkpt lat="45.38676" lon="5.80547">
        <ele>1602</ele>
        <time>2012-07-21T07:09:09.1Z</time>
      </trkpt>
      <trkpt lat="45.38676" lon="5.80546">
        <ele>1601</ele>
        <time>2012-07-21T07:09:11.1Z</time>
      </trkpt>
      <trkpt lat="45.38675" lon="5.80544">
        <ele>1601</ele>
        <time>2012-07-21T07:09:14.1Z</time>
      </trkpt>
      <trkpt lat="45.38674" lon="5.80543">
        <ele>1600</ele>
        <time>2012-07-21T07:09:16.1Z</time>
      </trkpt>
      <trkpt lat="45.38674" lon="5.80542">
        <ele>1600</ele>
        <time>2012-07-21T07:09:18.1Z</time>
      </trkpt>
      <trkpt lat="45.38675" lon="5.80541">
        <ele>1600</ele>
        <time>2012-07-21T07:09:20.1Z</time>
      </trkpt>
      <trkpt lat="45.38674" lon="5.80539">
        <ele>1600</ele>
        <time>2012-07-21T07:09:22.1Z</time>
      </trkpt>
      <trkpt lat="45.38673" lon="5.80533">
        <ele>1599</ele>
        <time>2012-07-21T07:09:24.1Z</time>
      </trkpt>
      <trkpt lat="45.38673" lon="5.8053">
        <ele>1598</ele>
        <time>2012-07-21T07:09:26.1Z</time>
      </trkpt>
      <trkpt lat="45.38672" lon="5.80527">
        <ele>1598</ele>
        <time>2012-07-21T07:09:28.1Z</time>
      </trkpt>
      <trkpt lat="45.38672" lon="5.80526">
        <ele>1597</ele>
        <time>2012-07-21T07:09:30.1Z</time>
      </trkpt>
      <trkpt lat="45.38673" lon="5.80524">
        <ele>1597</ele>
        <time>2012-07-21T07:09:32.1Z</time>
      </trkpt>
      <trkpt lat="45.38672" lon="5.80524">
        <ele>1597</ele>
        <time>2012-07-21T07:09:34.1Z</time>
      </trkpt>
      <trkpt lat="45.38672" lon="5.80522">
        <ele>1597</ele>
        <time>2012-07-21T07:09:36.1Z</time>
      </trkpt>
      <trkpt lat="45.38674" lon="5.80522">
        <ele>1596</ele>
        <time>2012-07-21T07:09:38.1Z</time>
      </trkpt>
      <trkpt lat="45.38674" lon="5.80522">
        <ele>1596</ele>
        <time>2012-07-21T07:09:40.1Z</time>
      </trkpt>
      <trkpt lat="45.38676" lon="5.80524">
        <ele>1596</ele>
        <time>2012-07-21T07:09:43.1Z</time>
      </trkpt>
      <trkpt lat="45.38677" lon="5.80523">
        <ele>1595</ele>
        <time>2012-07-21T07:09:45.1Z</time>
      </trkpt>
      <trkpt lat="45.38678" lon="5.80525">
        <ele>1595</ele>
        <time>2012-07-21T07:09:47.1Z</time>
      </trkpt>
      <trkpt lat="45.38679" lon="5.80525">
        <ele>1594</ele>
        <time>2012-07-21T07:09:49.1Z</time>
      </trkpt>
      <trkpt lat="45.38678" lon="5.80524">
        <ele>1594</ele>
        <time>2012-07-21T07:09:51.1Z</time>
      </trkpt>
      <trkpt lat="45.3868" lon="5.80523">
        <ele>1593</ele>
        <time>2012-07-21T07:09:53.1Z</time>
      </trkpt>
      <trkpt lat="45.3868" lon="5.80523">
        <ele>1593</ele>
        <time>2012-07-21T07:09:55.1Z</time>
      </trkpt>
      <trkpt lat="45.3868" lon="5.80523">
        <ele>1593</ele>
        <time>2012-07-21T07:09:57.1Z</time>
      </trkpt>
      <trkpt lat="45.3868" lon="5.80521">
        <ele>1593</ele>
        <time>2012-07-21T07:09:59.1Z</time>
      </trkpt>
      <trkpt lat="45.3868" lon="5.80521">
        <ele>1592</ele>
        <time>2012-07-21T07:10:01.1Z</time>
      </trkpt>
      <trkpt lat="45.3868" lon="5.8052">
        <ele>1592</ele>
        <time>2012-07-21T07:10:03.1Z</time>
      </trkpt>
      <trkpt lat="45.3868" lon="5.80518">
        <ele>1591</ele>
        <time>2012-07-21T07:10:05.1Z</time>
      </trkpt>
      <trkpt lat="45.3868" lon="5.80519">
        <ele>1591</ele>
        <time>2012-07-21T07:10:07.1Z</time>
      </trkpt>
      <trkpt lat="45.3868" lon="5.80518">
        <ele>1590</ele>
        <time>2012-07-21T07:10:10.1Z</time>
      </trkpt>
      <trkpt lat="45.3868" lon="5.80517">
        <ele>1590</ele>
        <time>2012-07-21T07:10:12.1Z</time>
      </trkpt>
      <trkpt lat="45.3868" lon="5.80515">
        <ele>1589</ele>
        <time>2012-07-21T07:10:14.1Z</time>
      </trkpt>
      <trkpt lat="45.38679" lon="5.80515">
        <ele>1588</ele>
        <time>2012-07-21T07:10:16.1Z</time>
      </trkpt>
      <trkpt lat="45.38678" lon="5.80515">
        <ele>1588</ele>
        <time>2012-07-21T07:10:18.1Z</time>
      </trkpt>
      <trkpt lat="45.38678" lon="5.80513">
        <ele>1587</ele>
        <time>2012-07-21T07:10:20.1Z</time>
      </trkpt>
      <trkpt lat="45.38677" lon="5.80513">
        <ele>1587</ele>
        <time>2012-07-21T07:10:22.1Z</time>
      </trkpt>
      <trkpt lat="45.38677" lon="5.80512">
        <ele>1587</ele>
        <time>2012-07-21T07:10:24.1Z</time>
      </trkpt>
      <trkpt lat="45.38677" lon="5.80512">
        <ele>1587</ele>
        <time>2012-07-21T07:10:27.1Z</time>
      </trkpt>
      <trkpt lat="45.38676" lon="5.80512">
        <ele>1587</ele>
        <time>2012-07-21T07:10:29.1Z</time>
      </trkpt>
      <trkpt lat="45.38676" lon="5.80512">
        <ele>1587</ele>
        <time>2012-07-21T07:10:31.1Z</time>
      </trkpt>
      <trkpt lat="45.38676" lon="5.80512">
        <ele>1587</ele>
        <time>2012-07-21T07:10:33.1Z</time>
      </trkpt>
      <trkpt lat="45.38676" lon="5.80512">
        <ele>1587</ele>
        <time>2012-07-21T07:10:35.1Z</time>
      </trkpt>
      <trkpt lat="45.38676" lon="5.80511">
        <ele>1587</ele>
        <time>2012-07-21T07:10:37.1Z</time>
      </trkpt>
      <trkpt lat="45.38675" lon="5.80511">
        <ele>1588</ele>
        <time>2012-07-21T07:10:39.1Z</time>
      </trkpt>
      <trkpt lat="45.38675" lon="5.8051">
        <ele>1588</ele>
        <time>2012-07-21T07:10:41.1Z</time>
      </trkpt>
      <trkpt lat="45.38675" lon="5.8051">
        <ele>1588</ele>
        <time>2012-07-21T07:10:44.1Z</time>
      </trkpt>
      <trkpt lat="45.38675" lon="5.8051">
        <ele>1588</ele>
        <time>2012-07-21T07:10:46.1Z</time>
      </trkpt>
      <trkpt lat="45.38674" lon="5.8051">
        <ele>1588</ele>
        <time>2012-07-21T07:10:48.1Z</time>
      </trkpt>
      <trkpt lat="45.38675" lon="5.8051">
        <ele>1588</ele>
        <time>2012-07-21T07:10:50.1Z</time>
      </trkpt>
      <trkpt lat="45.38675" lon="5.8051">
        <ele>1588</ele>
        <time>2012-07-21T07:10:52.1Z</time>
      </trkpt>
      <trkpt lat="45.38675" lon="5.8051">
        <ele>1587</ele>
        <time>2012-07-21T07:10:54.1Z</time>
      </trkpt>
      <trkpt lat="45.38676" lon="5.80509">
        <ele>1587</ele>
        <time>2012-07-21T07:10:56.1Z</time>
      </trkpt>
      <trkpt lat="45.38677" lon="5.8051">
        <ele>1587</ele>
        <time>2012-07-21T07:10:58.1Z</time>
      </trkpt>
      <trkpt lat="45.38678" lon="5.80511">
        <ele>1587</ele>
        <time>2012-07-21T07:11:00.1Z</time>
      </trkpt>
      <trkpt lat="45.38679" lon="5.8051">
        <ele>1586</ele>
        <time>2012-07-21T07:11:02.1Z</time>
      </trkpt>
      <trkpt lat="45.3868" lon="5.8051">
        <ele>1586</ele>
        <time>2012-07-21T07:11:04.1Z</time>
      </trkpt>
      <trkpt lat="45.3868" lon="5.80509">
        <ele>1586</ele>
        <time>2012-07-21T07:11:06.1Z</time>
      </trkpt>
      <trkpt lat="45.38679" lon="5.80509">
        <ele>1585</ele>
        <time>2012-07-21T07:11:08.1Z</time>
      </trkpt>
      <trkpt lat="45.38681" lon="5.8051">
        <ele>1585</ele>
        <time>2012-07-21T07:11:10.1Z</time>
      </trkpt>
      <trkpt lat="45.38681" lon="5.80508">
        <ele>1585</ele>
        <time>2012-07-21T07:11:13.1Z</time>
      </trkpt>
      <trkpt lat="45.38682" lon="5.80506">
        <ele>1584</ele>
        <time>2012-07-21T07:11:15.1Z</time>
      </trkpt>
      <trkpt lat="45.38682" lon="5.80504">
        <ele>1584</ele>
        <time>2012-07-21T07:11:17.1Z</time>
      </trkpt>
      <trkpt lat="45.38684" lon="5.80501">
        <ele>1583</ele>
        <time>2012-07-21T07:11:19.1Z</time>
      </trkpt>
      <trkpt lat="45.38687" lon="5.805">
        <ele>1582</ele>
        <time>2012-07-21T07:11:21.1Z</time>
      </trkpt>
      <trkpt lat="45.3869" lon="5.80498">
        <ele>1581</ele>
        <time>2012-07-21T07:11:23.1Z</time>
      </trkpt>
      <trkpt lat="45.38691" lon="5.80497">
        <ele>1580</ele>
        <time>2012-07-21T07:11:25.1Z</time>
      </trkpt>
      <trkpt lat="45.38693" lon="5.80495">
        <ele>1579</ele>
        <time>2012-07-21T07:11:27.1Z</time>
      </trkpt>
      <trkpt lat="45.38694" lon="5.80494">
        <ele>1578</ele>
        <time>2012-07-21T07:11:30.1Z</time>
      </trkpt>
      <trkpt lat="45.38692" lon="5.80493">
        <ele>1577</ele>
        <time>2012-07-21T07:11:32.1Z</time>
      </trkpt>
      <trkpt lat="45.38693" lon="5.80491">
        <ele>1576</ele>
        <time>2012-07-21T07:11:34.1Z</time>
      </trkpt>
      <trkpt lat="45.38694" lon="5.8049">
        <ele>1575</ele>
        <time>2012-07-21T07:11:36.1Z</time>
      </trkpt>
      <trkpt lat="45.38695" lon="5.8049">
        <ele>1574</ele>
        <time>2012-07-21T07:11:38.1Z</time>
      </trkpt>
      <trkpt lat="45.38693" lon="5.80487">
        <ele>1573</ele>
        <time>2012-07-21T07:11:40.1Z</time>
      </trkpt>
      <trkpt lat="45.38691" lon="5.80486">
        <ele>1572</ele>
        <time>2012-07-21T07:11:43.1Z</time>
      </trkpt>
      <trkpt lat="45.38689" lon="5.80485">
        <ele>1571</ele>
        <time>2012-07-21T07:11:45.1Z</time>
      </trkpt>
      <trkpt lat="45.38689" lon="5.80484">
        <ele>1570</ele>
        <time>2012-07-21T07:11:47.1Z</time>
      </trkpt>
      <trkpt lat="45.3869" lon="5.80484">
        <ele>1569</ele>
        <time>2012-07-21T07:11:49.1Z</time>
      </trkpt>
      <trkpt lat="45.38688" lon="5.80483">
        <ele>1568</ele>
        <time>2012-07-21T07:11:51.1Z</time>
      </trkpt>
      <trkpt lat="45.38686" lon="5.80482">
        <ele>1567</ele>
        <time>2012-07-21T07:11:53.1Z</time>
      </trkpt>
      <trkpt lat="45.38684" lon="5.8048">
        <ele>1566</ele>
        <time>2012-07-21T07:11:55.1Z</time>
      </trkpt>
      <trkpt lat="45.38683" lon="5.80478">
        <ele>1566</ele>
        <time>2012-07-21T07:11:58.1Z</time>
      </trkpt>
      <trkpt lat="45.38684" lon="5.80476">
        <ele>1565</ele>
        <time>2012-07-21T07:12:00.1Z</time>
      </trkpt>
      <trkpt lat="45.38686" lon="5.80475">
        <ele>1564</ele>
        <time>2012-07-21T07:12:02.1Z</time>
      </trkpt>
      <trkpt lat="45.38688" lon="5.80474">
        <ele>1564</ele>
        <time>2012-07-21T07:12:04.1Z</time>
      </trkpt>
      <trkpt lat="45.38686" lon="5.80473">
        <ele>1563</ele>
        <time>2012-07-21T07:12:06.1Z</time>
      </trkpt>
      <trkpt lat="45.38683" lon="5.80473">
        <ele>1561</ele>
        <time>2012-07-21T07:12:08.1Z</time>
      </trkpt>
      <trkpt lat="45.38681" lon="5.80472">
        <ele>1560</ele>
        <time>2012-07-21T07:12:10.1Z</time>
      </trkpt>
      <trkpt lat="45.38679" lon="5.8047">
        <ele>1560</ele>
        <time>2012-07-21T07:12:12.1Z</time>
      </trkpt>
      <trkpt lat="45.38679" lon="5.80469">
        <ele>1559</ele>
        <time>2012-07-21T07:12:14.1Z</time>
      </trkpt>
      <trkpt lat="45.3868" lon="5.80469">
        <ele>1558</ele>
        <time>2012-07-21T07:12:17.1Z</time>
      </trkpt>
      <trkpt lat="45.38678" lon="5.80467">
        <ele>1557</ele>
        <time>2012-07-21T07:12:19.1Z</time>
      </trkpt>
      <trkpt lat="45.38676" lon="5.80466">
        <ele>1556</ele>
        <time>2012-07-21T07:12:21.1Z</time>
      </trkpt>
      <trkpt lat="45.38675" lon="5.80462">
        <ele>1555</ele>
        <time>2012-07-21T07:12:23.1Z</time>
      </trkpt>
      <trkpt lat="45.38673" lon="5.80461">
        <ele>1554</ele>
        <time>2012-07-21T07:12:25.1Z</time>
      </trkpt>
      <trkpt lat="45.38671" lon="5.80459">
        <ele>1553</ele>
        <time>2012-07-21T07:12:27.1Z</time>
      </trkpt>
      <trkpt lat="45.3867" lon="5.80456">
        <ele>1552</ele>
        <time>2012-07-21T07:12:29.1Z</time>
      </trkpt>
      <trkpt lat="45.38671" lon="5.80455">
        <ele>1551</ele>
        <time>2012-07-21T07:12:31.1Z</time>
      </trkpt>
      <trkpt lat="45.38671" lon="5.80453">
        <ele>1550</ele>
        <time>2012-07-21T07:12:33.1Z</time>
      </trkpt>
      <trkpt lat="45.38672" lon="5.8045">
        <ele>1550</ele>
        <time>2012-07-21T07:12:35.1Z</time>
      </trkpt>
      <trkpt lat="45.38673" lon="5.80448">
        <ele>1549</ele>
        <time>2012-07-21T07:12:37.1Z</time>
      </trkpt>
      <trkpt lat="45.38674" lon="5.80444">
        <ele>1548</ele>
        <time>2012-07-21T07:12:39.1Z</time>
      </trkpt>
      <trkpt lat="45.38673" lon="5.80442">
        <ele>1547</ele>
        <time>2012-07-21T07:12:41.1Z</time>
      </trkpt>
      <trkpt lat="45.38671" lon="5.80439">
        <ele>1545</ele>
        <time>2012-07-21T07:12:44.1Z</time>
      </trkpt>
      <trkpt lat="45.38668" lon="5.80437">
        <ele>1544</ele>
        <time>2012-07-21T07:12:46.1Z</time>
      </trkpt>
      <trkpt lat="45.38666" lon="5.80435">
        <ele>1543</ele>
        <time>2012-07-21T07:12:48.1Z</time>
      </trkpt>
      <trkpt lat="45.38667" lon="5.80432">
        <ele>1542</ele>
        <time>2012-07-21T07:12:50.1Z</time>
      </trkpt>
      <trkpt lat="45.3867" lon="5.8043">
        <ele>1541</ele>
        <time>2012-07-21T07:12:52.1Z</time>
      </trkpt>
      <trkpt lat="45.38671" lon="5.80427">
        <ele>1540</ele>
        <time>2012-07-21T07:12:54.1Z</time>
      </trkpt>
      <trkpt lat="45.38669" lon="5.80423">
        <ele>1539</ele>
        <time>2012-07-21T07:12:57.1Z</time>
      </trkpt>
      <trkpt lat="45.38667" lon="5.80421">
        <ele>1538</ele>
        <time>2012-07-21T07:12:59.1Z</time>
      </trkpt>
      <trkpt lat="45.38663" lon="5.80419">
        <ele>1536</ele>
        <time>2012-07-21T07:13:01.1Z</time>
      </trkpt>
      <trkpt lat="45.3866" lon="5.80419">
        <ele>1535</ele>
        <time>2012-07-21T07:13:03.1Z</time>
      </trkpt>
      <trkpt lat="45.38652" lon="5.80416">
        <ele>1534</ele>
        <time>2012-07-21T07:13:05.1Z</time>
      </trkpt>
      <trkpt lat="45.38649" lon="5.80415">
        <ele>1532</ele>
        <time>2012-07-21T07:13:07.1Z</time>
      </trkpt>
      <trkpt lat="45.38646" lon="5.80414">
        <ele>1532</ele>
        <time>2012-07-21T07:13:10.1Z</time>
      </trkpt>
      <trkpt lat="45.38643" lon="5.80414">
        <ele>1530</ele>
        <time>2012-07-21T07:13:12.1Z</time>
      </trkpt>
      <trkpt lat="45.3864" lon="5.80413">
        <ele>1529</ele>
        <time>2012-07-21T07:13:14.1Z</time>
      </trkpt>
      <trkpt lat="45.38636" lon="5.80413">
        <ele>1528</ele>
        <time>2012-07-21T07:13:16.1Z</time>
      </trkpt>
      <trkpt lat="45.38631" lon="5.80415">
        <ele>1527</ele>
        <time>2012-07-21T07:13:18.1Z</time>
      </trkpt>
      <trkpt lat="45.38628" lon="5.80415">
        <ele>1525</ele>
        <time>2012-07-21T07:13:20.1Z</time>
      </trkpt>
      <trkpt lat="45.38625" lon="5.80414">
        <ele>1524</ele>
        <time>2012-07-21T07:13:22.1Z</time>
      </trkpt>
      <trkpt lat="45.38622" lon="5.80415">
        <ele>1523</ele>
        <time>2012-07-21T07:13:25.1Z</time>
      </trkpt>
      <trkpt lat="45.38619" lon="5.80416">
        <ele>1522</ele>
        <time>2012-07-21T07:13:27.1Z</time>
      </trkpt>
      <trkpt lat="45.38617" lon="5.80417">
        <ele>1521</ele>
        <time>2012-07-21T07:13:29.1Z</time>
      </trkpt>
      <trkpt lat="45.38615" lon="5.80417">
        <ele>1519</ele>
        <time>2012-07-21T07:13:31.1Z</time>
      </trkpt>
      <trkpt lat="45.38614" lon="5.80417">
        <ele>1519</ele>
        <time>2012-07-21T07:13:33.1Z</time>
      </trkpt>
      <trkpt lat="45.38614" lon="5.80411">
        <ele>1518</ele>
        <time>2012-07-21T07:13:35.1Z</time>
      </trkpt>
      <trkpt lat="45.38615" lon="5.80408">
        <ele>1518</ele>
        <time>2012-07-21T07:13:37.1Z</time>
      </trkpt>
      <trkpt lat="45.38616" lon="5.80406">
        <ele>1517</ele>
        <time>2012-07-21T07:13:40.1Z</time>
      </trkpt>
      <trkpt lat="45.38617" lon="5.80403">
        <ele>1516</ele>
        <time>2012-07-21T07:13:42.1Z</time>
      </trkpt>
      <trkpt lat="45.38618" lon="5.80398">
        <ele>1515</ele>
        <time>2012-07-21T07:13:44.1Z</time>
      </trkpt>
      <trkpt lat="45.3862" lon="5.80395">
        <ele>1514</ele>
        <time>2012-07-21T07:13:46.1Z</time>
      </trkpt>
      <trkpt lat="45.38621" lon="5.80391">
        <ele>1513</ele>
        <time>2012-07-21T07:13:48.1Z</time>
      </trkpt>
      <trkpt lat="45.38622" lon="5.80388">
        <ele>1511</ele>
        <time>2012-07-21T07:13:50.1Z</time>
      </trkpt>
      <trkpt lat="45.38624" lon="5.80384">
        <ele>1511</ele>
        <time>2012-07-21T07:13:53.1Z</time>
      </trkpt>
      <trkpt lat="45.38626" lon="5.80381">
        <ele>1509</ele>
        <time>2012-07-21T07:13:55.1Z</time>
      </trkpt>
      <trkpt lat="45.38629" lon="5.80377">
        <ele>1509</ele>
        <time>2012-07-21T07:13:57.1Z</time>
      </trkpt>
      <trkpt lat="45.3863" lon="5.80373">
        <ele>1508</ele>
        <time>2012-07-21T07:13:59.1Z</time>
      </trkpt>
      <trkpt lat="45.38632" lon="5.80369">
        <ele>1507</ele>
        <time>2012-07-21T07:14:01.1Z</time>
      </trkpt>
      <trkpt lat="45.38631" lon="5.80364">
        <ele>1506</ele>
        <time>2012-07-21T07:14:03.1Z</time>
      </trkpt>
      <trkpt lat="45.38632" lon="5.80361">
        <ele>1504</ele>
        <time>2012-07-21T07:14:05.1Z</time>
      </trkpt>
      <trkpt lat="45.38631" lon="5.80359">
        <ele>1503</ele>
        <time>2012-07-21T07:14:07.1Z</time>
      </trkpt>
      <trkpt lat="45.3863" lon="5.80356">
        <ele>1502</ele>
        <time>2012-07-21T07:14:10.1Z</time>
      </trkpt>
      <trkpt lat="45.3863" lon="5.80353">
        <ele>1501</ele>
        <time>2012-07-21T07:14:12.1Z</time>
      </trkpt>
      <trkpt lat="45.38628" lon="5.80352">
        <ele>1500</ele>
        <time>2012-07-21T07:14:14.1Z</time>
      </trkpt>
      <trkpt lat="45.38627" lon="5.8035">
        <ele>1499</ele>
        <time>2012-07-21T07:14:16.1Z</time>
      </trkpt>
      <trkpt lat="45.38626" lon="5.80346">
        <ele>1498</ele>
        <time>2012-07-21T07:14:18.1Z</time>
      </trkpt>
      <trkpt lat="45.38628" lon="5.80341">
        <ele>1496</ele>
        <time>2012-07-21T07:14:20.1Z</time>
      </trkpt>
      <trkpt lat="45.38628" lon="5.80337">
        <ele>1496</ele>
        <time>2012-07-21T07:14:22.1Z</time>
      </trkpt>
      <trkpt lat="45.38627" lon="5.80335">
        <ele>1495</ele>
        <time>2012-07-21T07:14:24.1Z</time>
      </trkpt>
      <trkpt lat="45.38626" lon="5.80332">
        <ele>1495</ele>
        <time>2012-07-21T07:14:26.1Z</time>
      </trkpt>
      <trkpt lat="45.38626" lon="5.80327">
        <ele>1494</ele>
        <time>2012-07-21T07:14:28.1Z</time>
      </trkpt>
      <trkpt lat="45.38625" lon="5.80324">
        <ele>1492</ele>
        <time>2012-07-21T07:14:30.1Z</time>
      </trkpt>
      <trkpt lat="45.38623" lon="5.80321">
        <ele>1491</ele>
        <time>2012-07-21T07:14:32.1Z</time>
      </trkpt>
      <trkpt lat="45.38624" lon="5.80318">
        <ele>1490</ele>
        <time>2012-07-21T07:14:34.1Z</time>
      </trkpt>
      <trkpt lat="45.38624" lon="5.80314">
        <ele>1489</ele>
        <time>2012-07-21T07:14:36.1Z</time>
      </trkpt>
      <trkpt lat="45.38625" lon="5.8031">
        <ele>1488</ele>
        <time>2012-07-21T07:14:38.1Z</time>
      </trkpt>
      <trkpt lat="45.38625" lon="5.80306">
        <ele>1486</ele>
        <time>2012-07-21T07:14:40.1Z</time>
      </trkpt>
      <trkpt lat="45.38626" lon="5.80302">
        <ele>1485</ele>
        <time>2012-07-21T07:14:43.1Z</time>
      </trkpt>
      <trkpt lat="45.38625" lon="5.80298">
        <ele>1483</ele>
        <time>2012-07-21T07:14:45.1Z</time>
      </trkpt>
      <trkpt lat="45.38623" lon="5.80296">
        <ele>1481</ele>
        <time>2012-07-21T07:14:47.1Z</time>
      </trkpt>
      <trkpt lat="45.38622" lon="5.80293">
        <ele>1480</ele>
        <time>2012-07-21T07:14:49.1Z</time>
      </trkpt>
      <trkpt lat="45.3862" lon="5.80291">
        <ele>1479</ele>
        <time>2012-07-21T07:14:51.1Z</time>
      </trkpt>
      <trkpt lat="45.38619" lon="5.80289">
        <ele>1479</ele>
        <time>2012-07-21T07:14:53.1Z</time>
      </trkpt>
      <trkpt lat="45.38619" lon="5.80286">
        <ele>1478</ele>
        <time>2012-07-21T07:14:55.1Z</time>
      </trkpt>
      <trkpt lat="45.38618" lon="5.80285">
        <ele>1477</ele>
        <time>2012-07-21T07:14:57.1Z</time>
      </trkpt>
      <trkpt lat="45.38617" lon="5.80283">
        <ele>1476</ele>
        <time>2012-07-21T07:14:59.1Z</time>
      </trkpt>
      <trkpt lat="45.38616" lon="5.80281">
        <ele>1475</ele>
        <time>2012-07-21T07:15:02.1Z</time>
      </trkpt>
      <trkpt lat="45.38615" lon="5.80279">
        <ele>1473</ele>
        <time>2012-07-21T07:15:04.1Z</time>
      </trkpt>
      <trkpt lat="45.38614" lon="5.80277">
        <ele>1472</ele>
        <time>2012-07-21T07:15:06.1Z</time>
      </trkpt>
      <trkpt lat="45.38613" lon="5.80277">
        <ele>1471</ele>
        <time>2012-07-21T07:15:08.1Z</time>
      </trkpt>
      <trkpt lat="45.38612" lon="5.80274">
        <ele>1471</ele>
        <time>2012-07-21T07:15:10.1Z</time>
      </trkpt>
      <trkpt lat="45.38612" lon="5.80271">
        <ele>1470</ele>
        <time>2012-07-21T07:15:12.1Z</time>
      </trkpt>
      <trkpt lat="45.3861" lon="5.80268">
        <ele>1469</ele>
        <time>2012-07-21T07:15:14.1Z</time>
      </trkpt>
      <trkpt lat="45.38608" lon="5.80266">
        <ele>1468</ele>
        <time>2012-07-21T07:15:16.1Z</time>
      </trkpt>
      <trkpt lat="45.38606" lon="5.80263">
        <ele>1467</ele>
        <time>2012-07-21T07:15:18.1Z</time>
      </trkpt>
      <trkpt lat="45.38604" lon="5.80258">
        <ele>1465</ele>
        <time>2012-07-21T07:15:20.1Z</time>
      </trkpt>
      <trkpt lat="45.386" lon="5.80255">
        <ele>1464</ele>
        <time>2012-07-21T07:15:22.1Z</time>
      </trkpt>
      <trkpt lat="45.38598" lon="5.80254">
        <ele>1462</ele>
        <time>2012-07-21T07:15:24.1Z</time>
      </trkpt>
      <trkpt lat="45.38595" lon="5.80252">
        <ele>1460</ele>
        <time>2012-07-21T07:15:26.1Z</time>
      </trkpt>
      <trkpt lat="45.38592" lon="5.80251">
        <ele>1459</ele>
        <time>2012-07-21T07:15:29.1Z</time>
      </trkpt>
      <trkpt lat="45.3859" lon="5.80248">
        <ele>1457</ele>
        <time>2012-07-21T07:15:31.1Z</time>
      </trkpt>
      <trkpt lat="45.38588" lon="5.80243">
        <ele>1456</ele>
        <time>2012-07-21T07:15:33.1Z</time>
      </trkpt>
      <trkpt lat="45.38585" lon="5.8024">
        <ele>1455</ele>
        <time>2012-07-21T07:15:35.1Z</time>
      </trkpt>
      <trkpt lat="45.38583" lon="5.80237">
        <ele>1454</ele>
        <time>2012-07-21T07:15:37.1Z</time>
      </trkpt>
      <trkpt lat="45.38579" lon="5.80232">
        <ele>1453</ele>
        <time>2012-07-21T07:15:39.1Z</time>
      </trkpt>
      <trkpt lat="45.38576" lon="5.80229">
        <ele>1451</ele>
        <time>2012-07-21T07:15:41.1Z</time>
      </trkpt>
      <trkpt lat="45.38574" lon="5.80227">
        <ele>1450</ele>
        <time>2012-07-21T07:15:43.1Z</time>
      </trkpt>
      <trkpt lat="45.38572" lon="5.80226">
        <ele>1449</ele>
        <time>2012-07-21T07:15:45.1Z</time>
      </trkpt>
      <trkpt lat="45.3857" lon="5.80226">
        <ele>1448</ele>
        <time>2012-07-21T07:15:47.1Z</time>
      </trkpt>
      <trkpt lat="45.38566" lon="5.80227">
        <ele>1447</ele>
        <time>2012-07-21T07:15:49.1Z</time>
      </trkpt>
      <trkpt lat="45.38563" lon="5.80227">
        <ele>1446</ele>
        <time>2012-07-21T07:15:52.1Z</time>
      </trkpt>
      <trkpt lat="45.38562" lon="5.80227">
        <ele>1445</ele>
        <time>2012-07-21T07:15:54.1Z</time>
      </trkpt>
      <trkpt lat="45.38562" lon="5.80227">
        <ele>1445</ele>
        <time>2012-07-21T07:15:56.1Z</time>
      </trkpt>
      <trkpt lat="45.38562" lon="5.80227">
        <ele>1445</ele>
        <time>2012-07-21T07:15:58.1Z</time>
      </trkpt>
      <trkpt lat="45.38562" lon="5.80227">
        <ele>1445</ele>
        <time>2012-07-21T07:16:00.1Z</time>
      </trkpt>
      <trkpt lat="45.38562" lon="5.80227">
        <ele>1444</ele>
        <time>2012-07-21T07:16:02.1Z</time>
      </trkpt>
      <trkpt lat="45.38562" lon="5.80227">
        <ele>1444</ele>
        <time>2012-07-21T07:16:04.1Z</time>
      </trkpt>
      <trkpt lat="45.38562" lon="5.80227">
        <ele>1444</ele>
        <time>2012-07-21T07:16:06.1Z</time>
      </trkpt>
      <trkpt lat="45.38562" lon="5.80227">
        <ele>1444</ele>
        <time>2012-07-21T07:16:08.1Z</time>
      </trkpt>
      <trkpt lat="45.38562" lon="5.80227">
        <ele>1444</ele>
        <time>2012-07-21T07:16:10.1Z</time>
      </trkpt>
      <trkpt lat="45.38561" lon="5.80227">
        <ele>1444</ele>
        <time>2012-07-21T07:16:13.1Z</time>
      </trkpt>
      <trkpt lat="45.38561" lon="5.80227">
        <ele>1444</ele>
        <time>2012-07-21T07:16:15.1Z</time>
      </trkpt>
      <trkpt lat="45.38561" lon="5.80227">
        <ele>1444</ele>
        <time>2012-07-21T07:16:17.1Z</time>
      </trkpt>
      <trkpt lat="45.38561" lon="5.80227">
        <ele>1444</ele>
        <time>2012-07-21T07:16:19.1Z</time>
      </trkpt>
      <trkpt lat="45.38561" lon="5.80227">
        <ele>1444</ele>
        <time>2012-07-21T07:16:21.1Z</time>
      </trkpt>
      <trkpt lat="45.38561" lon="5.80227">
        <ele>1444</ele>
        <time>2012-07-21T07:16:23.1Z</time>
      </trkpt>
      <trkpt lat="45.38562" lon="5.80227">
        <ele>1444</ele>
        <time>2012-07-21T07:16:25.1Z</time>
      </trkpt>
      <trkpt lat="45.38562" lon="5.80227">
        <ele>1444</ele>
        <time>2012-07-21T07:16:27.1Z</time>
      </trkpt>
      <trkpt lat="45.38562" lon="5.80227">
        <ele>1443</ele>
        <time>2012-07-21T07:16:30.1Z</time>
      </trkpt>
      <trkpt lat="45.3856" lon="5.80225">
        <ele>1444</ele>
        <time>2012-07-21T07:16:32.1Z</time>
      </trkpt>
      <trkpt lat="45.3856" lon="5.80225">
        <ele>1444</ele>
        <time>2012-07-21T07:16:34.1Z</time>
      </trkpt>
      <trkpt lat="45.3856" lon="5.80225">
        <ele>1444</ele>
        <time>2012-07-21T07:16:36.1Z</time>
      </trkpt>
      <trkpt lat="45.38561" lon="5.80225">
        <ele>1444</ele>
        <time>2012-07-21T07:16:38.1Z</time>
      </trkpt>
      <trkpt lat="45.38561" lon="5.80225">
        <ele>1444</ele>
        <time>2012-07-21T07:16:40.1Z</time>
      </trkpt>
      <trkpt lat="45.38561" lon="5.80225">
        <ele>1444</ele>
        <time>2012-07-21T07:16:43.1Z</time>
      </trkpt>
      <trkpt lat="45.38561" lon="5.80225">
        <ele>1444</ele>
        <time>2012-07-21T07:16:45.1Z</time>
      </trkpt>
      <trkpt lat="45.38561" lon="5.80225">
        <ele>1444</ele>
        <time>2012-07-21T07:16:47.1Z</time>
      </trkpt>
      <trkpt lat="45.38561" lon="5.80224">
        <ele>1444</ele>
        <time>2012-07-21T07:16:49.1Z</time>
      </trkpt>
      <trkpt lat="45.38561" lon="5.80224">
        <ele>1444</ele>
        <time>2012-07-21T07:16:51.1Z</time>
      </trkpt>
      <trkpt lat="45.38561" lon="5.80224">
        <ele>1444</ele>
        <time>2012-07-21T07:16:53.1Z</time>
      </trkpt>
      <trkpt lat="45.38561" lon="5.80224">
        <ele>1444</ele>
        <time>2012-07-21T07:16:55.1Z</time>
      </trkpt>
      <trkpt lat="45.38561" lon="5.80224">
        <ele>1444</ele>
        <time>2012-07-21T07:16:58.1Z</time>
      </trkpt>
      <trkpt lat="45.38561" lon="5.80224">
        <ele>1444</ele>
        <time>2012-07-21T07:17:00.1Z</time>
      </trkpt>
      <trkpt lat="45.3856" lon="5.80224">
        <ele>1444</ele>
        <time>2012-07-21T07:17:02.1Z</time>
      </trkpt>
      <trkpt lat="45.3856" lon="5.8022">
        <ele>1444</ele>
        <time>2012-07-21T07:17:04.1Z</time>
      </trkpt>
      <trkpt lat="45.3856" lon="5.80215">
        <ele>1444</ele>
        <time>2012-07-21T07:17:06.1Z</time>
      </trkpt>
      <trkpt lat="45.38561" lon="5.8021">
        <ele>1443</ele>
        <time>2012-07-21T07:17:08.1Z</time>
      </trkpt>
      <trkpt lat="45.38562" lon="5.80206">
        <ele>1443</ele>
        <time>2012-07-21T07:17:11.1Z</time>
      </trkpt>
      <trkpt lat="45.38564" lon="5.80202">
        <ele>1442</ele>
        <time>2012-07-21T07:17:13.1Z</time>
      </trkpt>
      <trkpt lat="45.38566" lon="5.80199">
        <ele>1441</ele>
        <time>2012-07-21T07:17:15.1Z</time>
      </trkpt>
      <trkpt lat="45.38569" lon="5.80196">
        <ele>1441</ele>
        <time>2012-07-21T07:17:17.1Z</time>
      </trkpt>
      <trkpt lat="45.38573" lon="5.80192">
        <ele>1441</ele>
        <time>2012-07-21T07:17:19.1Z</time>
      </trkpt>
      <trkpt lat="45.38575" lon="5.80191">
        <ele>1440</ele>
        <time>2012-07-21T07:17:21.1Z</time>
      </trkpt>
      <trkpt lat="45.38574" lon="5.80189">
        <ele>1439</ele>
        <time>2012-07-21T07:17:23.1Z</time>
      </trkpt>
      <trkpt lat="45.38571" lon="5.8019">
        <ele>1439</ele>
        <time>2012-07-21T07:17:26.1Z</time>
      </trkpt>
      <trkpt lat="45.38567" lon="5.80189">
        <ele>1438</ele>
        <time>2012-07-21T07:17:28.1Z</time>
      </trkpt>
      <trkpt lat="45.38563" lon="5.80187">
        <ele>1437</ele>
        <time>2012-07-21T07:17:30.1Z</time>
      </trkpt>
      <trkpt lat="45.38555" lon="5.80188">
        <ele>1436</ele>
        <time>2012-07-21T07:17:32.1Z</time>
      </trkpt>
      <trkpt lat="45.3855" lon="5.80189">
        <ele>1435</ele>
        <time>2012-07-21T07:17:34.1Z</time>
      </trkpt>
      <trkpt lat="45.38545" lon="5.80191">
        <ele>1434</ele>
        <time>2012-07-21T07:17:36.1Z</time>
      </trkpt>
      <trkpt lat="45.38539" lon="5.80193">
        <ele>1433</ele>
        <time>2012-07-21T07:17:38.1Z</time>
      </trkpt>
      <trkpt lat="45.38533" lon="5.80197">
        <ele>1432</ele>
        <time>2012-07-21T07:17:40.1Z</time>
      </trkpt>
      <trkpt lat="45.38529" lon="5.802">
        <ele>1431</ele>
        <time>2012-07-21T07:17:42.1Z</time>
      </trkpt>
      <trkpt lat="45.38525" lon="5.80206">
        <ele>1430</ele>
        <time>2012-07-21T07:17:44.1Z</time>
      </trkpt>
      <trkpt lat="45.38523" lon="5.8021">
        <ele>1429</ele>
        <time>2012-07-21T07:17:46.1Z</time>
      </trkpt>
      <trkpt lat="45.38522" lon="5.80207">
        <ele>1428</ele>
        <time>2012-07-21T07:17:49.1Z</time>
      </trkpt>
      <trkpt lat="45.38521" lon="5.80201">
        <ele>1427</ele>
        <time>2012-07-21T07:17:51.1Z</time>
      </trkpt>
      <trkpt lat="45.38522" lon="5.80196">
        <ele>1425</ele>
        <time>2012-07-21T07:17:53.1Z</time>
      </trkpt>
      <trkpt lat="45.38523" lon="5.80189">
        <ele>1424</ele>
        <time>2012-07-21T07:17:55.1Z</time>
      </trkpt>
      <trkpt lat="45.38524" lon="5.80183">
        <ele>1423</ele>
        <time>2012-07-21T07:17:57.1Z</time>
      </trkpt>
      <trkpt lat="45.38525" lon="5.80177">
        <ele>1422</ele>
        <time>2012-07-21T07:17:59.1Z</time>
      </trkpt>
      <trkpt lat="45.38527" lon="5.80172">
        <ele>1421</ele>
        <time>2012-07-21T07:18:01.1Z</time>
      </trkpt>
      <trkpt lat="45.38531" lon="5.80164">
        <ele>1420</ele>
        <time>2012-07-21T07:18:03.1Z</time>
      </trkpt>
      <trkpt lat="45.38535" lon="5.80157">
        <ele>1419</ele>
        <time>2012-07-21T07:18:05.1Z</time>
      </trkpt>
      <trkpt lat="45.38538" lon="5.80152">
        <ele>1418</ele>
        <time>2012-07-21T07:18:07.1Z</time>
      </trkpt>
      <trkpt lat="45.38542" lon="5.80147">
        <ele>1416</ele>
        <time>2012-07-21T07:18:10.1Z</time>
      </trkpt>
      <trkpt lat="45.38546" lon="5.80141">
        <ele>1415</ele>
        <time>2012-07-21T07:18:12.1Z</time>
      </trkpt>
      <trkpt lat="45.38549" lon="5.80135">
        <ele>1414</ele>
        <time>2012-07-21T07:18:14.1Z</time>
      </trkpt>
      <trkpt lat="45.38553" lon="5.80129">
        <ele>1413</ele>
        <time>2012-07-21T07:18:16.1Z</time>
      </trkpt>
      <trkpt lat="45.3856" lon="5.80123">
        <ele>1412</ele>
        <time>2012-07-21T07:18:18.1Z</time>
      </trkpt>
      <trkpt lat="45.38562" lon="5.80121">
        <ele>1411</ele>
        <time>2012-07-21T07:18:20.1Z</time>
      </trkpt>
      <trkpt lat="45.3856" lon="5.80118">
        <ele>1410</ele>
        <time>2012-07-21T07:18:22.1Z</time>
      </trkpt>
      <trkpt lat="45.38556" lon="5.80116">
        <ele>1409</ele>
        <time>2012-07-21T07:18:24.1Z</time>
      </trkpt>
      <trkpt lat="45.3855" lon="5.80114">
        <ele>1408</ele>
        <time>2012-07-21T07:18:26.1Z</time>
      </trkpt>
      <trkpt lat="45.38543" lon="5.80114">
        <ele>1406</ele>
        <time>2012-07-21T07:18:28.1Z</time>
      </trkpt>
      <trkpt lat="45.38538" lon="5.80112">
        <ele>1405</ele>
        <time>2012-07-21T07:18:30.1Z</time>
      </trkpt>
      <trkpt lat="45.38535" lon="5.8011">
        <ele>1403</ele>
        <time>2012-07-21T07:18:32.1Z</time>
      </trkpt>
      <trkpt lat="45.38536" lon="5.80106">
        <ele>1402</ele>
        <time>2012-07-21T07:18:34.1Z</time>
      </trkpt>
      <trkpt lat="45.3854" lon="5.80102">
        <ele>1401</ele>
        <time>2012-07-21T07:18:37.1Z</time>
      </trkpt>
      <trkpt lat="45.38544" lon="5.80096">
        <ele>1400</ele>
        <time>2012-07-21T07:18:39.1Z</time>
      </trkpt>
      <trkpt lat="45.38549" lon="5.80091">
        <ele>1399</ele>
        <time>2012-07-21T07:18:41.1Z</time>
      </trkpt>
      <trkpt lat="45.38554" lon="5.80088">
        <ele>1398</ele>
        <time>2012-07-21T07:18:43.1Z</time>
      </trkpt>
      <trkpt lat="45.38563" lon="5.80084">
        <ele>1397</ele>
        <time>2012-07-21T07:18:45.1Z</time>
      </trkpt>
      <trkpt lat="45.38568" lon="5.80081">
        <ele>1395</ele>
        <time>2012-07-21T07:18:47.1Z</time>
      </trkpt>
      <trkpt lat="45.38572" lon="5.80076">
        <ele>1394</ele>
        <time>2012-07-21T07:18:49.1Z</time>
      </trkpt>
      <trkpt lat="45.38577" lon="5.80073">
        <ele>1393</ele>
        <time>2012-07-21T07:18:51.1Z</time>
      </trkpt>
      <trkpt lat="45.38578" lon="5.80069">
        <ele>1392</ele>
        <time>2012-07-21T07:18:54.1Z</time>
      </trkpt>
      <trkpt lat="45.38573" lon="5.80066">
        <ele>1390</ele>
        <time>2012-07-21T07:18:56.1Z</time>
      </trkpt>
      <trkpt lat="45.38568" lon="5.80062">
        <ele>1389</ele>
        <time>2012-07-21T07:18:58.1Z</time>
      </trkpt>
      <trkpt lat="45.38562" lon="5.80058">
        <ele>1388</ele>
        <time>2012-07-21T07:19:00.1Z</time>
      </trkpt>
      <trkpt lat="45.38552" lon="5.80052">
        <ele>1386</ele>
        <time>2012-07-21T07:19:02.1Z</time>
      </trkpt>
      <trkpt lat="45.38547" lon="5.80047">
        <ele>1385</ele>
        <time>2012-07-21T07:19:04.1Z</time>
      </trkpt>
      <trkpt lat="45.38542" lon="5.80043">
        <ele>1383</ele>
        <time>2012-07-21T07:19:07.1Z</time>
      </trkpt>
      <trkpt lat="45.38536" lon="5.80041">
        <ele>1382</ele>
        <time>2012-07-21T07:19:09.1Z</time>
      </trkpt>
      <trkpt lat="45.3853" lon="5.80038">
        <ele>1381</ele>
        <time>2012-07-21T07:19:11.1Z</time>
      </trkpt>
      <trkpt lat="45.38525" lon="5.80037">
        <ele>1379</ele>
        <time>2012-07-21T07:19:13.1Z</time>
      </trkpt>
      <trkpt lat="45.38518" lon="5.80037">
        <ele>1379</ele>
        <time>2012-07-21T07:19:15.1Z</time>
      </trkpt>
      <trkpt lat="45.3852" lon="5.80033">
        <ele>1378</ele>
        <time>2012-07-21T07:19:17.1Z</time>
      </trkpt>
      <trkpt lat="45.38523" lon="5.80029">
        <ele>1377</ele>
        <time>2012-07-21T07:19:19.1Z</time>
      </trkpt>
      <trkpt lat="45.38526" lon="5.80024">
        <ele>1376</ele>
        <time>2012-07-21T07:19:22.1Z</time>
      </trkpt>
      <trkpt lat="45.38529" lon="5.8002">
        <ele>1375</ele>
        <time>2012-07-21T07:19:24.1Z</time>
      </trkpt>
      <trkpt lat="45.38532" lon="5.80016">
        <ele>1374</ele>
        <time>2012-07-21T07:19:26.1Z</time>
      </trkpt>
      <trkpt lat="45.38538" lon="5.8001">
        <ele>1373</ele>
        <time>2012-07-21T07:19:28.1Z</time>
      </trkpt>
      <trkpt lat="45.38543" lon="5.80007">
        <ele>1372</ele>
        <time>2012-07-21T07:19:30.1Z</time>
      </trkpt>
      <trkpt lat="45.38548" lon="5.80002">
        <ele>1371</ele>
        <time>2012-07-21T07:19:32.1Z</time>
      </trkpt>
      <trkpt lat="45.38553" lon="5.79998">
        <ele>1370</ele>
        <time>2012-07-21T07:19:34.1Z</time>
      </trkpt>
      <trkpt lat="45.38557" lon="5.79995">
        <ele>1369</ele>
        <time>2012-07-21T07:19:36.1Z</time>
      </trkpt>
      <trkpt lat="45.38563" lon="5.7999">
        <ele>1368</ele>
        <time>2012-07-21T07:19:38.1Z</time>
      </trkpt>
      <trkpt lat="45.38567" lon="5.79985">
        <ele>1367</ele>
        <time>2012-07-21T07:19:40.1Z</time>
      </trkpt>
      <trkpt lat="45.3857" lon="5.79978">
        <ele>1365</ele>
        <time>2012-07-21T07:19:42.1Z</time>
      </trkpt>
      <trkpt lat="45.38572" lon="5.7997">
        <ele>1364</ele>
        <time>2012-07-21T07:19:44.1Z</time>
      </trkpt>
      <trkpt lat="45.38575" lon="5.79962">
        <ele>1362</ele>
        <time>2012-07-21T07:19:47.1Z</time>
      </trkpt>
      <trkpt lat="45.38578" lon="5.79954">
        <ele>1361</ele>
        <time>2012-07-21T07:19:49.1Z</time>
      </trkpt>
      <trkpt lat="45.38582" lon="5.79948">
        <ele>1359</ele>
        <time>2012-07-21T07:19:51.1Z</time>
      </trkpt>
      <trkpt lat="45.38589" lon="5.79943">
        <ele>1358</ele>
        <time>2012-07-21T07:19:53.1Z</time>
      </trkpt>
      <trkpt lat="45.38594" lon="5.7994">
        <ele>1357</ele>
        <time>2012-07-21T07:19:55.1Z</time>
      </trkpt>
      <trkpt lat="45.38602" lon="5.79934">
        <ele>1356</ele>
        <time>2012-07-21T07:19:57.1Z</time>
      </trkpt>
      <trkpt lat="45.38607" lon="5.7993">
        <ele>1355</ele>
        <time>2012-07-21T07:19:59.1Z</time>
      </trkpt>
      <trkpt lat="45.38612" lon="5.79924">
        <ele>1354</ele>
        <time>2012-07-21T07:20:01.1Z</time>
      </trkpt>
      <trkpt lat="45.38615" lon="5.79916">
        <ele>1353</ele>
        <time>2012-07-21T07:20:04.1Z</time>
      </trkpt>
      <trkpt lat="45.38615" lon="5.79909">
        <ele>1351</ele>
        <time>2012-07-21T07:20:06.1Z</time>
      </trkpt>
      <trkpt lat="45.38615" lon="5.79901">
        <ele>1349</ele>
        <time>2012-07-21T07:20:08.1Z</time>
      </trkpt>
      <trkpt lat="45.38619" lon="5.7989">
        <ele>1348</ele>
        <time>2012-07-21T07:20:10.1Z</time>
      </trkpt>
      <trkpt lat="45.38619" lon="5.79881">
        <ele>1347</ele>
        <time>2012-07-21T07:20:12.1Z</time>
      </trkpt>
      <trkpt lat="45.38618" lon="5.79873">
        <ele>1346</ele>
        <time>2012-07-21T07:20:14.1Z</time>
      </trkpt>
      <trkpt lat="45.38618" lon="5.79864">
        <ele>1345</ele>
        <time>2012-07-21T07:20:16.1Z</time>
      </trkpt>
      <trkpt lat="45.3862" lon="5.79854">
        <ele>1344</ele>
        <time>2012-07-21T07:20:18.1Z</time>
      </trkpt>
      <trkpt lat="45.38621" lon="5.79846">
        <ele>1343</ele>
        <time>2012-07-21T07:20:20.1Z</time>
      </trkpt>
      <trkpt lat="45.38624" lon="5.79838">
        <ele>1341</ele>
        <time>2012-07-21T07:20:22.1Z</time>
      </trkpt>
      <trkpt lat="45.38627" lon="5.79829">
        <ele>1340</ele>
        <time>2012-07-21T07:20:24.1Z</time>
      </trkpt>
      <trkpt lat="45.38629" lon="5.79822">
        <ele>1339</ele>
        <time>2012-07-21T07:20:26.1Z</time>
      </trkpt>
      <trkpt lat="45.3863" lon="5.79814">
        <ele>1338</ele>
        <time>2012-07-21T07:20:29.1Z</time>
      </trkpt>
      <trkpt lat="45.38631" lon="5.79809">
        <ele>1337</ele>
        <time>2012-07-21T07:20:31.1Z</time>
      </trkpt>
      <trkpt lat="45.38631" lon="5.79807">
        <ele>1337</ele>
        <time>2012-07-21T07:20:33.1Z</time>
      </trkpt>
      <trkpt lat="45.38631" lon="5.79806">
        <ele>1337</ele>
        <time>2012-07-21T07:20:35.1Z</time>
      </trkpt>
      <trkpt lat="45.38631" lon="5.79806">
        <ele>1336</ele>
        <time>2012-07-21T07:20:37.1Z</time>
      </trkpt>
      <trkpt lat="45.38631" lon="5.79806">
        <ele>1336</ele>
        <time>2012-07-21T07:20:39.1Z</time>
      </trkpt>
      <trkpt lat="45.38631" lon="5.79806">
        <ele>1336</ele>
        <time>2012-07-21T07:20:41.1Z</time>
      </trkpt>
      <trkpt lat="45.38631" lon="5.79805">
        <ele>1336</ele>
        <time>2012-07-21T07:20:43.1Z</time>
      </trkpt>
      <trkpt lat="45.38631" lon="5.79805">
        <ele>1336</ele>
        <time>2012-07-21T07:20:45.1Z</time>
      </trkpt>
      <trkpt lat="45.38631" lon="5.79805">
        <ele>1336</ele>
        <time>2012-07-21T07:20:47.1Z</time>
      </trkpt>
      <trkpt lat="45.38632" lon="5.79805">
        <ele>1336</ele>
        <time>2012-07-21T07:20:50.1Z</time>
      </trkpt>
      <trkpt lat="45.38632" lon="5.79805">
        <ele>1336</ele>
        <time>2012-07-21T07:20:52.1Z</time>
      </trkpt>
      <trkpt lat="45.38632" lon="5.79805">
        <ele>1336</ele>
        <time>2012-07-21T07:20:54.1Z</time>
      </trkpt>
      <trkpt lat="45.38633" lon="5.79804">
        <ele>1336</ele>
        <time>2012-07-21T07:20:56.1Z</time>
      </trkpt>
      <trkpt lat="45.38634" lon="5.79804">
        <ele>1336</ele>
        <time>2012-07-21T07:20:58.1Z</time>
      </trkpt>
      <trkpt lat="45.38636" lon="5.79804">
        <ele>1336</ele>
        <time>2012-07-21T07:21:00.1Z</time>
      </trkpt>
      <trkpt lat="45.38639" lon="5.79803">
        <ele>1336</ele>
        <time>2012-07-21T07:21:02.1Z</time>
      </trkpt>
      <trkpt lat="45.3864" lon="5.79802">
        <ele>1336</ele>
        <time>2012-07-21T07:21:04.1Z</time>
      </trkpt>
      <trkpt lat="45.38641" lon="5.79797">
        <ele>1336</ele>
        <time>2012-07-21T07:21:06.1Z</time>
      </trkpt>
      <trkpt lat="45.38639" lon="5.79794">
        <ele>1336</ele>
        <time>2012-07-21T07:21:08.1Z</time>
      </trkpt>
      <trkpt lat="45.38638" lon="5.79792">
        <ele>1336</ele>
        <time>2012-07-21T07:21:10.1Z</time>
      </trkpt>
      <trkpt lat="45.38638" lon="5.79787">
        <ele>1335</ele>
        <time>2012-07-21T07:21:12.1Z</time>
      </trkpt>
      <trkpt lat="45.38641" lon="5.79785">
        <ele>1335</ele>
        <time>2012-07-21T07:21:15.1Z</time>
      </trkpt>
      <trkpt lat="45.38643" lon="5.79785">
        <ele>1334</ele>
        <time>2012-07-21T07:21:17.1Z</time>
      </trkpt>
      <trkpt lat="45.38642" lon="5.79784">
        <ele>1334</ele>
        <time>2012-07-21T07:21:19.1Z</time>
      </trkpt>
      <trkpt lat="45.38641" lon="5.79783">
        <ele>1333</ele>
        <time>2012-07-21T07:21:21.1Z</time>
      </trkpt>
      <trkpt lat="45.38642" lon="5.7978">
        <ele>1333</ele>
        <time>2012-07-21T07:21:23.1Z</time>
      </trkpt>
      <trkpt lat="45.38642" lon="5.7978">
        <ele>1333</ele>
        <time>2012-07-21T07:21:25.1Z</time>
      </trkpt>
      <trkpt lat="45.38642" lon="5.7978">
        <ele>1333</ele>
        <time>2012-07-21T07:21:27.1Z</time>
      </trkpt>
      <trkpt lat="45.38642" lon="5.7978">
        <ele>1333</ele>
        <time>2012-07-21T07:21:29.1Z</time>
      </trkpt>
      <trkpt lat="45.38642" lon="5.7978">
        <ele>1332</ele>
        <time>2012-07-21T07:21:31.1Z</time>
      </trkpt>
      <trkpt lat="45.38642" lon="5.7978">
        <ele>1332</ele>
        <time>2012-07-21T07:21:33.1Z</time>
      </trkpt>
      <trkpt lat="45.38642" lon="5.7978">
        <ele>1332</ele>
        <time>2012-07-21T07:21:35.1Z</time>
      </trkpt>
      <trkpt lat="45.38642" lon="5.7978">
        <ele>1332</ele>
        <time>2012-07-21T07:21:38.1Z</time>
      </trkpt>
      <trkpt lat="45.38643" lon="5.7978">
        <ele>1332</ele>
        <time>2012-07-21T07:21:40.1Z</time>
      </trkpt>
      <trkpt lat="45.38643" lon="5.79779">
        <ele>1332</ele>
        <time>2012-07-21T07:21:42.1Z</time>
      </trkpt>
      <trkpt lat="45.38643" lon="5.79779">
        <ele>1332</ele>
        <time>2012-07-21T07:21:44.1Z</time>
      </trkpt>
      <trkpt lat="45.38643" lon="5.79779">
        <ele>1332</ele>
        <time>2012-07-21T07:21:46.1Z</time>
      </trkpt>
      <trkpt lat="45.38642" lon="5.79778">
        <ele>1332</ele>
        <time>2012-07-21T07:21:48.1Z</time>
      </trkpt>
      <trkpt lat="45.38642" lon="5.79778">
        <ele>1332</ele>
        <time>2012-07-21T07:21:50.1Z</time>
      </trkpt>
      <trkpt lat="45.38642" lon="5.79778">
        <ele>1333</ele>
        <time>2012-07-21T07:21:52.1Z</time>
      </trkpt>
      <trkpt lat="45.38642" lon="5.79777">
        <ele>1333</ele>
        <time>2012-07-21T07:21:54.1Z</time>
      </trkpt>
      <trkpt lat="45.38642" lon="5.79777">
        <ele>1332</ele>
        <time>2012-07-21T07:21:57.1Z</time>
      </trkpt>
      <trkpt lat="45.38641" lon="5.79776">
        <ele>1332</ele>
        <time>2012-07-21T07:21:59.1Z</time>
      </trkpt>
      <trkpt lat="45.38641" lon="5.79776">
        <ele>1332</ele>
        <time>2012-07-21T07:22:01.1Z</time>
      </trkpt>
      <trkpt lat="45.38641" lon="5.79775">
        <ele>1332</ele>
        <time>2012-07-21T07:22:03.1Z</time>
      </trkpt>
      <trkpt lat="45.38641" lon="5.79773">
        <ele>1332</ele>
        <time>2012-07-21T07:22:05.1Z</time>
      </trkpt>
      <trkpt lat="45.38641" lon="5.79773">
        <ele>1332</ele>
        <time>2012-07-21T07:22:07.1Z</time>
      </trkpt>
      <trkpt lat="45.38641" lon="5.7977">
        <ele>1332</ele>
        <time>2012-07-21T07:22:09.1Z</time>
      </trkpt>
      <trkpt lat="45.38641" lon="5.79769">
        <ele>1332</ele>
        <time>2012-07-21T07:22:11.1Z</time>
      </trkpt>
      <trkpt lat="45.38641" lon="5.79767">
        <ele>1331</ele>
        <time>2012-07-21T07:22:13.1Z</time>
      </trkpt>
      <trkpt lat="45.38641" lon="5.79766">
        <ele>1331</ele>
        <time>2012-07-21T07:22:15.1Z</time>
      </trkpt>
      <trkpt lat="45.38641" lon="5.79765">
        <ele>1331</ele>
        <time>2012-07-21T07:22:17.1Z</time>
      </trkpt>
      <trkpt lat="45.38642" lon="5.79765">
        <ele>1330</ele>
        <time>2012-07-21T07:22:19.1Z</time>
      </trkpt>
      <trkpt lat="45.38642" lon="5.79761">
        <ele>1330</ele>
        <time>2012-07-21T07:22:22.1Z</time>
      </trkpt>
      <trkpt lat="45.38641" lon="5.79754">
        <ele>1330</ele>
        <time>2012-07-21T07:22:24.1Z</time>
      </trkpt>
      <trkpt lat="45.3864" lon="5.79746">
        <ele>1329</ele>
        <time>2012-07-21T07:22:26.1Z</time>
      </trkpt>
      <trkpt lat="45.3864" lon="5.79739">
        <ele>1327</ele>
        <time>2012-07-21T07:22:28.1Z</time>
      </trkpt>
      <trkpt lat="45.38642" lon="5.79732">
        <ele>1327</ele>
        <time>2012-07-21T07:22:30.1Z</time>
      </trkpt>
      <trkpt lat="45.38645" lon="5.79725">
        <ele>1325</ele>
        <time>2012-07-21T07:22:32.1Z</time>
      </trkpt>
      <trkpt lat="45.38647" lon="5.7972">
        <ele>1324</ele>
        <time>2012-07-21T07:22:34.1Z</time>
      </trkpt>
      <trkpt lat="45.38649" lon="5.79716">
        <ele>1323</ele>
        <time>2012-07-21T07:22:37.1Z</time>
      </trkpt>
      <trkpt lat="45.38651" lon="5.79711">
        <ele>1321</ele>
        <time>2012-07-21T07:22:39.1Z</time>
      </trkpt>
      <trkpt lat="45.38654" lon="5.79705">
        <ele>1319</ele>
        <time>2012-07-21T07:22:41.1Z</time>
      </trkpt>
      <trkpt lat="45.38659" lon="5.797">
        <ele>1318</ele>
        <time>2012-07-21T07:22:43.1Z</time>
      </trkpt>
      <trkpt lat="45.38665" lon="5.79685">
        <ele>1317</ele>
        <time>2012-07-21T07:22:45.1Z</time>
      </trkpt>
      <trkpt lat="45.3867" lon="5.79676">
        <ele>1316</ele>
        <time>2012-07-21T07:22:47.1Z</time>
      </trkpt>
      <trkpt lat="45.38674" lon="5.7967">
        <ele>1315</ele>
        <time>2012-07-21T07:22:49.1Z</time>
      </trkpt>
      <trkpt lat="45.38678" lon="5.79665">
        <ele>1315</ele>
        <time>2012-07-21T07:22:52.1Z</time>
      </trkpt>
      <trkpt lat="45.38681" lon="5.7966">
        <ele>1315</ele>
        <time>2012-07-21T07:22:54.1Z</time>
      </trkpt>
      <trkpt lat="45.38684" lon="5.79655">
        <ele>1315</ele>
        <time>2012-07-21T07:22:56.1Z</time>
      </trkpt>
      <trkpt lat="45.38687" lon="5.7965">
        <ele>1315</ele>
        <time>2012-07-21T07:22:58.1Z</time>
      </trkpt>
      <trkpt lat="45.38692" lon="5.79642">
        <ele>1315</ele>
        <time>2012-07-21T07:23:00.1Z</time>
      </trkpt>
      <trkpt lat="45.38693" lon="5.79634">
        <ele>1315</ele>
        <time>2012-07-21T07:23:02.1Z</time>
      </trkpt>
      <trkpt lat="45.38693" lon="5.79628">
        <ele>1314</ele>
        <time>2012-07-21T07:23:04.1Z</time>
      </trkpt>
      <trkpt lat="45.38694" lon="5.79622">
        <ele>1314</ele>
        <time>2012-07-21T07:23:06.1Z</time>
      </trkpt>
      <trkpt lat="45.38695" lon="5.79617">
        <ele>1313</ele>
        <time>2012-07-21T07:23:08.1Z</time>
      </trkpt>
      <trkpt lat="45.38697" lon="5.79615">
        <ele>1311</ele>
        <time>2012-07-21T07:23:10.1Z</time>
      </trkpt>
      <trkpt lat="45.38698" lon="5.79612">
        <ele>1311</ele>
        <time>2012-07-21T07:23:12.1Z</time>
      </trkpt>
      <trkpt lat="45.38699" lon="5.7961">
        <ele>1310</ele>
        <time>2012-07-21T07:23:14.1Z</time>
      </trkpt>
      <trkpt lat="45.38699" lon="5.79607">
        <ele>1310</ele>
        <time>2012-07-21T07:23:16.1Z</time>
      </trkpt>
      <trkpt lat="45.38699" lon="5.79606">
        <ele>1309</ele>
        <time>2012-07-21T07:23:18.1Z</time>
      </trkpt>
      <trkpt lat="45.38699" lon="5.79607">
        <ele>1309</ele>
        <time>2012-07-21T07:23:21.1Z</time>
      </trkpt>
      <trkpt lat="45.38697" lon="5.79606">
        <ele>1310</ele>
        <time>2012-07-21T07:23:23.1Z</time>
      </trkpt>
      <trkpt lat="45.38696" lon="5.79603">
        <ele>1310</ele>
        <time>2012-07-21T07:23:25.1Z</time>
      </trkpt>
      <trkpt lat="45.38696" lon="5.79601">
        <ele>1310</ele>
        <time>2012-07-21T07:23:27.1Z</time>
      </trkpt>
      <trkpt lat="45.38698" lon="5.79599">
        <ele>1310</ele>
        <time>2012-07-21T07:23:29.1Z</time>
      </trkpt>
      <trkpt lat="45.38702" lon="5.79594">
        <ele>1310</ele>
        <time>2012-07-21T07:23:31.1Z</time>
      </trkpt>
      <trkpt lat="45.38704" lon="5.7959">
        <ele>1310</ele>
        <time>2012-07-21T07:23:33.1Z</time>
      </trkpt>
      <trkpt lat="45.38706" lon="5.79587">
        <ele>1310</ele>
        <time>2012-07-21T07:23:35.1Z</time>
      </trkpt>
      <trkpt lat="45.38708" lon="5.79583">
        <ele>1310</ele>
        <time>2012-07-21T07:23:38.1Z</time>
      </trkpt>
      <trkpt lat="45.3871" lon="5.7958">
        <ele>1310</ele>
        <time>2012-07-21T07:23:40.1Z</time>
      </trkpt>
      <trkpt lat="45.38712" lon="5.79576">
        <ele>1310</ele>
        <time>2012-07-21T07:23:42.1Z</time>
      </trkpt>
      <trkpt lat="45.38713" lon="5.79571">
        <ele>1310</ele>
        <time>2012-07-21T07:23:44.1Z</time>
      </trkpt>
      <trkpt lat="45.38715" lon="5.79565">
        <ele>1310</ele>
        <time>2012-07-21T07:23:46.1Z</time>
      </trkpt>
      <trkpt lat="45.38719" lon="5.7956">
        <ele>1310</ele>
        <time>2012-07-21T07:23:48.1Z</time>
      </trkpt>
      <trkpt lat="45.38721" lon="5.79555">
        <ele>1310</ele>
        <time>2012-07-21T07:23:50.1Z</time>
      </trkpt>
      <trkpt lat="45.38723" lon="5.7955">
        <ele>1309</ele>
        <time>2012-07-21T07:23:52.1Z</time>
      </trkpt>
      <trkpt lat="45.38729" lon="5.79544">
        <ele>1309</ele>
        <time>2012-07-21T07:23:55.1Z</time>
      </trkpt>
      <trkpt lat="45.38734" lon="5.79538">
        <ele>1308</ele>
        <time>2012-07-21T07:23:57.1Z</time>
      </trkpt>
      <trkpt lat="45.38739" lon="5.79531">
        <ele>1308</ele>
        <time>2012-07-21T07:23:59.1Z</time>
      </trkpt>
      <trkpt lat="45.38743" lon="5.79524">
        <ele>1308</ele>
        <time>2012-07-21T07:24:01.1Z</time>
      </trkpt>
      <trkpt lat="45.38752" lon="5.79515">
        <ele>1307</ele>
        <time>2012-07-21T07:24:03.1Z</time>
      </trkpt>
      <trkpt lat="45.38757" lon="5.79511">
        <ele>1306</ele>
        <time>2012-07-21T07:24:05.1Z</time>
      </trkpt>
      <trkpt lat="45.38763" lon="5.79508">
        <ele>1305</ele>
        <time>2012-07-21T07:24:07.1Z</time>
      </trkpt>
      <trkpt lat="45.38768" lon="5.79506">
        <ele>1305</ele>
        <time>2012-07-21T07:24:10.1Z</time>
      </trkpt>
      <trkpt lat="45.38773" lon="5.79503">
        <ele>1304</ele>
        <time>2012-07-21T07:24:12.1Z</time>
      </trkpt>
      <trkpt lat="45.38776" lon="5.79501">
        <ele>1303</ele>
        <time>2012-07-21T07:24:14.1Z</time>
      </trkpt>
      <trkpt lat="45.38781" lon="5.795">
        <ele>1303</ele>
        <time>2012-07-21T07:24:16.1Z</time>
      </trkpt>
      <trkpt lat="45.38792" lon="5.79497">
        <ele>1302</ele>
        <time>2012-07-21T07:24:18.1Z</time>
      </trkpt>
      <trkpt lat="45.38799" lon="5.79494">
        <ele>1301</ele>
        <time>2012-07-21T07:24:20.1Z</time>
      </trkpt>
      <trkpt lat="45.38807" lon="5.79493">
        <ele>1300</ele>
        <time>2012-07-21T07:24:23.1Z</time>
      </trkpt>
      <trkpt lat="45.38815" lon="5.79494">
        <ele>1300</ele>
        <time>2012-07-21T07:24:25.1Z</time>
      </trkpt>
      <trkpt lat="45.38822" lon="5.79495">
        <ele>1299</ele>
        <time>2012-07-21T07:24:27.1Z</time>
      </trkpt>
      <trkpt lat="45.38827" lon="5.79498">
        <ele>1298</ele>
        <time>2012-07-21T07:24:29.1Z</time>
      </trkpt>
      <trkpt lat="45.38836" lon="5.79502">
        <ele>1298</ele>
        <time>2012-07-21T07:24:31.1Z</time>
      </trkpt>
      <trkpt lat="45.38842" lon="5.79505">
        <ele>1297</ele>
        <time>2012-07-21T07:24:33.1Z</time>
      </trkpt>
      <trkpt lat="45.38849" lon="5.79508">
        <ele>1296</ele>
        <time>2012-07-21T07:24:35.1Z</time>
      </trkpt>
      <trkpt lat="45.38856" lon="5.79511">
        <ele>1295</ele>
        <time>2012-07-21T07:24:38.1Z</time>
      </trkpt>
      <trkpt lat="45.38862" lon="5.79517">
        <ele>1294</ele>
        <time>2012-07-21T07:24:40.1Z</time>
      </trkpt>
      <trkpt lat="45.38868" lon="5.79525">
        <ele>1293</ele>
        <time>2012-07-21T07:24:42.1Z</time>
      </trkpt>
      <trkpt lat="45.38872" lon="5.79532">
        <ele>1293</ele>
        <time>2012-07-21T07:24:44.1Z</time>
      </trkpt>
      <trkpt lat="45.3888" lon="5.79541">
        <ele>1292</ele>
        <time>2012-07-21T07:24:46.1Z</time>
      </trkpt>
      <trkpt lat="45.38883" lon="5.79546">
        <ele>1292</ele>
        <time>2012-07-21T07:24:48.1Z</time>
      </trkpt>
      <trkpt lat="45.38887" lon="5.79555">
        <ele>1291</ele>
        <time>2012-07-21T07:24:50.1Z</time>
      </trkpt>
      <trkpt lat="45.3889" lon="5.79562">
        <ele>1290</ele>
        <time>2012-07-21T07:24:52.1Z</time>
      </trkpt>
      <trkpt lat="45.38894" lon="5.79566">
        <ele>1289</ele>
        <time>2012-07-21T07:24:54.1Z</time>
      </trkpt>
      <trkpt lat="45.38897" lon="5.7957">
        <ele>1287</ele>
        <time>2012-07-21T07:24:57.1Z</time>
      </trkpt>
      <trkpt lat="45.38901" lon="5.79575">
        <ele>1285</ele>
        <time>2012-07-21T07:24:59.1Z</time>
      </trkpt>
      <trkpt lat="45.38903" lon="5.7958">
        <ele>1283</ele>
        <time>2012-07-21T07:25:01.1Z</time>
      </trkpt>
      <trkpt lat="45.38905" lon="5.79585">
        <ele>1282</ele>
        <time>2012-07-21T07:25:03.1Z</time>
      </trkpt>
      <trkpt lat="45.38906" lon="5.79591">
        <ele>1281</ele>
        <time>2012-07-21T07:25:05.1Z</time>
      </trkpt>
      <trkpt lat="45.38908" lon="5.79597">
        <ele>1279</ele>
        <time>2012-07-21T07:25:07.1Z</time>
      </trkpt>
      <trkpt lat="45.38911" lon="5.79603">
        <ele>1278</ele>
        <time>2012-07-21T07:25:09.1Z</time>
      </trkpt>
      <trkpt lat="45.38913" lon="5.79611">
        <ele>1276</ele>
        <time>2012-07-21T07:25:11.1Z</time>
      </trkpt>
      <trkpt lat="45.38915" lon="5.79618">
        <ele>1274</ele>
        <time>2012-07-21T07:25:13.1Z</time>
      </trkpt>
      <trkpt lat="45.38919" lon="5.79629">
        <ele>1272</ele>
        <time>2012-07-21T07:25:15.1Z</time>
      </trkpt>
      <trkpt lat="45.38923" lon="5.79635">
        <ele>1271</ele>
        <time>2012-07-21T07:25:17.1Z</time>
      </trkpt>
      <trkpt lat="45.38927" lon="5.7964">
        <ele>1270</ele>
        <time>2012-07-21T07:25:20.1Z</time>
      </trkpt>
      <trkpt lat="45.38931" lon="5.79646">
        <ele>1269</ele>
        <time>2012-07-21T07:25:22.1Z</time>
      </trkpt>
      <trkpt lat="45.38935" lon="5.7965">
        <ele>1268</ele>
        <time>2012-07-21T07:25:24.1Z</time>
      </trkpt>
      <trkpt lat="45.38942" lon="5.79654">
        <ele>1267</ele>
        <time>2012-07-21T07:25:26.1Z</time>
      </trkpt>
      <trkpt lat="45.38946" lon="5.79656">
        <ele>1266</ele>
        <time>2012-07-21T07:25:28.1Z</time>
      </trkpt>
      <trkpt lat="45.38951" lon="5.79658">
        <ele>1265</ele>
        <time>2012-07-21T07:25:30.1Z</time>
      </trkpt>
      <trkpt lat="45.38957" lon="5.79658">
        <ele>1263</ele>
        <time>2012-07-21T07:25:33.1Z</time>
      </trkpt>
      <trkpt lat="45.38961" lon="5.79656">
        <ele>1262</ele>
        <time>2012-07-21T07:25:35.1Z</time>
      </trkpt>
      <trkpt lat="45.38968" lon="5.79653">
        <ele>1260</ele>
        <time>2012-07-21T07:25:37.1Z</time>
      </trkpt>
      <trkpt lat="45.38974" lon="5.79651">
        <ele>1259</ele>
        <time>2012-07-21T07:25:39.1Z</time>
      </trkpt>
      <trkpt lat="45.38981" lon="5.79656">
        <ele>1258</ele>
        <time>2012-07-21T07:25:41.1Z</time>
      </trkpt>
      <trkpt lat="45.38983" lon="5.79661">
        <ele>1257</ele>
        <time>2012-07-21T07:25:43.1Z</time>
      </trkpt>
      <trkpt lat="45.38986" lon="5.79665">
        <ele>1255</ele>
        <time>2012-07-21T07:25:46.1Z</time>
      </trkpt>
      <trkpt lat="45.38988" lon="5.7967">
        <ele>1254</ele>
        <time>2012-07-21T07:25:48.1Z</time>
      </trkpt>
      <trkpt lat="45.3899" lon="5.79675">
        <ele>1253</ele>
        <time>2012-07-21T07:25:50.1Z</time>
      </trkpt>
      <trkpt lat="45.38997" lon="5.7968">
        <ele>1251</ele>
        <time>2012-07-21T07:25:52.1Z</time>
      </trkpt>
      <trkpt lat="45.39004" lon="5.79684">
        <ele>1250</ele>
        <time>2012-07-21T07:25:54.1Z</time>
      </trkpt>
      <trkpt lat="45.39012" lon="5.79688">
        <ele>1249</ele>
        <time>2012-07-21T07:25:56.1Z</time>
      </trkpt>
      <trkpt lat="45.39018" lon="5.79693">
        <ele>1249</ele>
        <time>2012-07-21T07:25:58.1Z</time>
      </trkpt>
      <trkpt lat="45.39022" lon="5.79696">
        <ele>1248</ele>
        <time>2012-07-21T07:26:00.1Z</time>
      </trkpt>
      <trkpt lat="45.39026" lon="5.79704">
        <ele>1247</ele>
        <time>2012-07-21T07:26:02.1Z</time>
      </trkpt>
      <trkpt lat="45.39029" lon="5.7971">
        <ele>1245</ele>
        <time>2012-07-21T07:26:04.1Z</time>
      </trkpt>
      <trkpt lat="45.39031" lon="5.79715">
        <ele>1244</ele>
        <time>2012-07-21T07:26:06.1Z</time>
      </trkpt>
      <trkpt lat="45.39035" lon="5.79717">
        <ele>1243</ele>
        <time>2012-07-21T07:26:08.1Z</time>
      </trkpt>
      <trkpt lat="45.39039" lon="5.7972">
        <ele>1241</ele>
        <time>2012-07-21T07:26:10.1Z</time>
      </trkpt>
      <trkpt lat="45.39041" lon="5.79724">
        <ele>1240</ele>
        <time>2012-07-21T07:26:12.1Z</time>
      </trkpt>
      <trkpt lat="45.39044" lon="5.79728">
        <ele>1238</ele>
        <time>2012-07-21T07:26:15.1Z</time>
      </trkpt>
      <trkpt lat="45.39048" lon="5.79729">
        <ele>1237</ele>
        <time>2012-07-21T07:26:17.1Z</time>
      </trkpt>
      <trkpt lat="45.39052" lon="5.7973">
        <ele>1236</ele>
        <time>2012-07-21T07:26:19.1Z</time>
      </trkpt>
      <trkpt lat="45.3906" lon="5.79731">
        <ele>1234</ele>
        <time>2012-07-21T07:26:21.1Z</time>
      </trkpt>
      <trkpt lat="45.39064" lon="5.79732">
        <ele>1233</ele>
        <time>2012-07-21T07:26:23.1Z</time>
      </trkpt>
      <trkpt lat="45.39067" lon="5.79733">
        <ele>1232</ele>
        <time>2012-07-21T07:26:25.1Z</time>
      </trkpt>
      <trkpt lat="45.3907" lon="5.79734">
        <ele>1231</ele>
        <time>2012-07-21T07:26:28.1Z</time>
      </trkpt>
      <trkpt lat="45.39074" lon="5.79734">
        <ele>1230</ele>
        <time>2012-07-21T07:26:30.1Z</time>
      </trkpt>
      <trkpt lat="45.39079" lon="5.79733">
        <ele>1229</ele>
        <time>2012-07-21T07:26:32.1Z</time>
      </trkpt>
      <trkpt lat="45.39083" lon="5.79733">
        <ele>1227</ele>
        <time>2012-07-21T07:26:34.1Z</time>
      </trkpt>
      <trkpt lat="45.39088" lon="5.79733">
        <ele>1226</ele>
        <time>2012-07-21T07:26:36.1Z</time>
      </trkpt>
      <trkpt lat="45.39092" lon="5.79735">
        <ele>1225</ele>
        <time>2012-07-21T07:26:38.1Z</time>
      </trkpt>
      <trkpt lat="45.39096" lon="5.79735">
        <ele>1224</ele>
        <time>2012-07-21T07:26:40.1Z</time>
      </trkpt>
      <trkpt lat="45.39104" lon="5.79734">
        <ele>1223</ele>
        <time>2012-07-21T07:26:42.1Z</time>
      </trkpt>
      <trkpt lat="45.39112" lon="5.79733">
        <ele>1222</ele>
        <time>2012-07-21T07:26:44.1Z</time>
      </trkpt>
      <trkpt lat="45.39118" lon="5.79733">
        <ele>1221</ele>
        <time>2012-07-21T07:26:46.1Z</time>
      </trkpt>
      <trkpt lat="45.39123" lon="5.79733">
        <ele>1219</ele>
        <time>2012-07-21T07:26:48.1Z</time>
      </trkpt>
      <trkpt lat="45.3913" lon="5.79735">
        <ele>1218</ele>
        <time>2012-07-21T07:26:50.1Z</time>
      </trkpt>
      <trkpt lat="45.39138" lon="5.79737">
        <ele>1216</ele>
        <time>2012-07-21T07:26:52.1Z</time>
      </trkpt>
      <trkpt lat="45.39146" lon="5.7974">
        <ele>1215</ele>
        <time>2012-07-21T07:26:55.1Z</time>
      </trkpt>
      <trkpt lat="45.39151" lon="5.79743">
        <ele>1214</ele>
        <time>2012-07-21T07:26:57.1Z</time>
      </trkpt>
      <trkpt lat="45.39157" lon="5.79745">
        <ele>1213</ele>
        <time>2012-07-21T07:26:59.1Z</time>
      </trkpt>
      <trkpt lat="45.39164" lon="5.79745">
        <ele>1212</ele>
        <time>2012-07-21T07:27:01.1Z</time>
      </trkpt>
      <trkpt lat="45.39169" lon="5.79746">
        <ele>1211</ele>
        <time>2012-07-21T07:27:03.1Z</time>
      </trkpt>
      <trkpt lat="45.39179" lon="5.79752">
        <ele>1210</ele>
        <time>2012-07-21T07:27:05.1Z</time>
      </trkpt>
      <trkpt lat="45.39185" lon="5.79756">
        <ele>1210</ele>
        <time>2012-07-21T07:27:07.1Z</time>
      </trkpt>
      <trkpt lat="45.39191" lon="5.79759">
        <ele>1209</ele>
        <time>2012-07-21T07:27:09.1Z</time>
      </trkpt>
      <trkpt lat="45.39196" lon="5.79764">
        <ele>1208</ele>
        <time>2012-07-21T07:27:11.1Z</time>
      </trkpt>
      <trkpt lat="45.39202" lon="5.79767">
        <ele>1208</ele>
        <time>2012-07-21T07:27:14.1Z</time>
      </trkpt>
      <trkpt lat="45.39209" lon="5.79769">
        <ele>1206</ele>
        <time>2012-07-21T07:27:16.1Z</time>
      </trkpt>
      <trkpt lat="45.39215" lon="5.79768">
        <ele>1205</ele>
        <time>2012-07-21T07:27:18.1Z</time>
      </trkpt>
      <trkpt lat="45.39222" lon="5.79769">
        <ele>1204</ele>
        <time>2012-07-21T07:27:20.1Z</time>
      </trkpt>
      <trkpt lat="45.39228" lon="5.79772">
        <ele>1203</ele>
        <time>2012-07-21T07:27:22.1Z</time>
      </trkpt>
      <trkpt lat="45.39233" lon="5.79773">
        <ele>1201</ele>
        <time>2012-07-21T07:27:24.1Z</time>
      </trkpt>
      <trkpt lat="45.39238" lon="5.79773">
        <ele>1200</ele>
        <time>2012-07-21T07:27:26.1Z</time>
      </trkpt>
      <trkpt lat="45.39241" lon="5.79773">
        <ele>1198</ele>
        <time>2012-07-21T07:27:28.1Z</time>
      </trkpt>
      <trkpt lat="45.39245" lon="5.79773">
        <ele>1197</ele>
        <time>2012-07-21T07:27:31.1Z</time>
      </trkpt>
      <trkpt lat="45.3925" lon="5.79774">
        <ele>1196</ele>
        <time>2012-07-21T07:27:33.1Z</time>
      </trkpt>
      <trkpt lat="45.39254" lon="5.79774">
        <ele>1195</ele>
        <time>2012-07-21T07:27:35.1Z</time>
      </trkpt>
      <trkpt lat="45.3926" lon="5.79772">
        <ele>1194</ele>
        <time>2012-07-21T07:27:37.1Z</time>
      </trkpt>
      <trkpt lat="45.39263" lon="5.79773">
        <ele>1192</ele>
        <time>2012-07-21T07:27:39.1Z</time>
      </trkpt>
      <trkpt lat="45.39267" lon="5.79775">
        <ele>1191</ele>
        <time>2012-07-21T07:27:41.1Z</time>
      </trkpt>
      <trkpt lat="45.39271" lon="5.79776">
        <ele>1191</ele>
        <time>2012-07-21T07:27:43.1Z</time>
      </trkpt>
      <trkpt lat="45.39275" lon="5.79775">
        <ele>1190</ele>
        <time>2012-07-21T07:27:45.1Z</time>
      </trkpt>
      <trkpt lat="45.39279" lon="5.79775">
        <ele>1189</ele>
        <time>2012-07-21T07:27:47.1Z</time>
      </trkpt>
      <trkpt lat="45.39284" lon="5.79774">
        <ele>1188</ele>
        <time>2012-07-21T07:27:49.1Z</time>
      </trkpt>
      <trkpt lat="45.39291" lon="5.79772">
        <ele>1186</ele>
        <time>2012-07-21T07:27:51.1Z</time>
      </trkpt>
      <trkpt lat="45.39297" lon="5.79771">
        <ele>1185</ele>
        <time>2012-07-21T07:27:53.1Z</time>
      </trkpt>
      <trkpt lat="45.39302" lon="5.7977">
        <ele>1183</ele>
        <time>2012-07-21T07:27:55.1Z</time>
      </trkpt>
      <trkpt lat="45.39308" lon="5.7977">
        <ele>1182</ele>
        <time>2012-07-21T07:27:58.1Z</time>
      </trkpt>
      <trkpt lat="45.39314" lon="5.79769">
        <ele>1181</ele>
        <time>2012-07-21T07:28:00.1Z</time>
      </trkpt>
      <trkpt lat="45.39319" lon="5.79767">
        <ele>1179</ele>
        <time>2012-07-21T07:28:02.1Z</time>
      </trkpt>
      <trkpt lat="45.39323" lon="5.79764">
        <ele>1178</ele>
        <time>2012-07-21T07:28:04.1Z</time>
      </trkpt>
      <trkpt lat="45.39327" lon="5.79763">
        <ele>1177</ele>
        <time>2012-07-21T07:28:06.1Z</time>
      </trkpt>
      <trkpt lat="45.39334" lon="5.7976">
        <ele>1175</ele>
        <time>2012-07-21T07:28:08.1Z</time>
      </trkpt>
      <trkpt lat="45.39339" lon="5.79757">
        <ele>1174</ele>
        <time>2012-07-21T07:28:10.1Z</time>
      </trkpt>
      <trkpt lat="45.39346" lon="5.79754">
        <ele>1173</ele>
        <time>2012-07-21T07:28:12.1Z</time>
      </trkpt>
      <trkpt lat="45.39352" lon="5.79752">
        <ele>1171</ele>
        <time>2012-07-21T07:28:15.1Z</time>
      </trkpt>
      <trkpt lat="45.39358" lon="5.79751">
        <ele>1171</ele>
        <time>2012-07-21T07:28:17.1Z</time>
      </trkpt>
      <trkpt lat="45.39363" lon="5.79749">
        <ele>1169</ele>
        <time>2012-07-21T07:28:19.1Z</time>
      </trkpt>
      <trkpt lat="45.39368" lon="5.79747">
        <ele>1168</ele>
        <time>2012-07-21T07:28:21.1Z</time>
      </trkpt>
      <trkpt lat="45.39374" lon="5.79744">
        <ele>1166</ele>
        <time>2012-07-21T07:28:23.1Z</time>
      </trkpt>
      <trkpt lat="45.39379" lon="5.79738">
        <ele>1165</ele>
        <time>2012-07-21T07:28:25.1Z</time>
      </trkpt>
      <trkpt lat="45.39386" lon="5.79735">
        <ele>1164</ele>
        <time>2012-07-21T07:28:27.1Z</time>
      </trkpt>
      <trkpt lat="45.39391" lon="5.79732">
        <ele>1162</ele>
        <time>2012-07-21T07:28:30.1Z</time>
      </trkpt>
      <trkpt lat="45.39397" lon="5.79729">
        <ele>1161</ele>
        <time>2012-07-21T07:28:32.1Z</time>
      </trkpt>
      <trkpt lat="45.39401" lon="5.79726">
        <ele>1160</ele>
        <time>2012-07-21T07:28:34.1Z</time>
      </trkpt>
      <trkpt lat="45.39409" lon="5.79722">
        <ele>1159</ele>
        <time>2012-07-21T07:28:36.1Z</time>
      </trkpt>
      <trkpt lat="45.39414" lon="5.79719">
        <ele>1157</ele>
        <time>2012-07-21T07:28:38.1Z</time>
      </trkpt>
      <trkpt lat="45.39418" lon="5.79716">
        <ele>1156</ele>
        <time>2012-07-21T07:28:40.1Z</time>
      </trkpt>
      <trkpt lat="45.39423" lon="5.79713">
        <ele>1154</ele>
        <time>2012-07-21T07:28:43.1Z</time>
      </trkpt>
      <trkpt lat="45.39428" lon="5.79711">
        <ele>1153</ele>
        <time>2012-07-21T07:28:45.1Z</time>
      </trkpt>
      <trkpt lat="45.39433" lon="5.79711">
        <ele>1152</ele>
        <time>2012-07-21T07:28:47.1Z</time>
      </trkpt>
      <trkpt lat="45.39437" lon="5.79712">
        <ele>1151</ele>
        <time>2012-07-21T07:28:49.1Z</time>
      </trkpt>
      <trkpt lat="45.39444" lon="5.79713">
        <ele>1150</ele>
        <time>2012-07-21T07:28:51.1Z</time>
      </trkpt>
      <trkpt lat="45.3945" lon="5.79713">
        <ele>1149</ele>
        <time>2012-07-21T07:28:53.1Z</time>
      </trkpt>
      <trkpt lat="45.39456" lon="5.79712">
        <ele>1147</ele>
        <time>2012-07-21T07:28:55.1Z</time>
      </trkpt>
      <trkpt lat="45.39461" lon="5.79713">
        <ele>1146</ele>
        <time>2012-07-21T07:28:58.1Z</time>
      </trkpt>
      <trkpt lat="45.39465" lon="5.79711">
        <ele>1144</ele>
        <time>2012-07-21T07:29:00.1Z</time>
      </trkpt>
      <trkpt lat="45.3947" lon="5.79709">
        <ele>1143</ele>
        <time>2012-07-21T07:29:02.1Z</time>
      </trkpt>
      <trkpt lat="45.39475" lon="5.79709">
        <ele>1142</ele>
        <time>2012-07-21T07:29:04.1Z</time>
      </trkpt>
      <trkpt lat="45.39485" lon="5.79701">
        <ele>1141</ele>
        <time>2012-07-21T07:29:06.1Z</time>
      </trkpt>
      <trkpt lat="45.3949" lon="5.79699">
        <ele>1140</ele>
        <time>2012-07-21T07:29:08.1Z</time>
      </trkpt>
      <trkpt lat="45.39495" lon="5.79697">
        <ele>1139</ele>
        <time>2012-07-21T07:29:10.1Z</time>
      </trkpt>
      <trkpt lat="45.39499" lon="5.79696">
        <ele>1137</ele>
        <time>2012-07-21T07:29:12.1Z</time>
      </trkpt>
      <trkpt lat="45.39502" lon="5.79694">
        <ele>1136</ele>
        <time>2012-07-21T07:29:14.1Z</time>
      </trkpt>
      <trkpt lat="45.39505" lon="5.79695">
        <ele>1134</ele>
        <time>2012-07-21T07:29:16.1Z</time>
      </trkpt>
      <trkpt lat="45.3951" lon="5.79695">
        <ele>1133</ele>
        <time>2012-07-21T07:29:18.1Z</time>
      </trkpt>
      <trkpt lat="45.39515" lon="5.79696">
        <ele>1133</ele>
        <time>2012-07-21T07:29:20.1Z</time>
      </trkpt>
      <trkpt lat="45.39519" lon="5.79696">
        <ele>1131</ele>
        <time>2012-07-21T07:29:23.1Z</time>
      </trkpt>
      <trkpt lat="45.39523" lon="5.79696">
        <ele>1131</ele>
        <time>2012-07-21T07:29:25.1Z</time>
      </trkpt>
      <trkpt lat="45.39527" lon="5.79696">
        <ele>1129</ele>
        <time>2012-07-21T07:29:27.1Z</time>
      </trkpt>
      <trkpt lat="45.39533" lon="5.79698">
        <ele>1128</ele>
        <time>2012-07-21T07:29:29.1Z</time>
      </trkpt>
      <trkpt lat="45.39541" lon="5.79699">
        <ele>1127</ele>
        <time>2012-07-21T07:29:31.1Z</time>
      </trkpt>
      <trkpt lat="45.39547" lon="5.797">
        <ele>1126</ele>
        <time>2012-07-21T07:29:33.1Z</time>
      </trkpt>
      <trkpt lat="45.39557" lon="5.79702">
        <ele>1125</ele>
        <time>2012-07-21T07:29:35.1Z</time>
      </trkpt>
      <trkpt lat="45.39565" lon="5.79703">
        <ele>1124</ele>
        <time>2012-07-21T07:29:37.1Z</time>
      </trkpt>
      <trkpt lat="45.39571" lon="5.79705">
        <ele>1123</ele>
        <time>2012-07-21T07:29:39.1Z</time>
      </trkpt>
      <trkpt lat="45.39576" lon="5.79706">
        <ele>1122</ele>
        <time>2012-07-21T07:29:42.1Z</time>
      </trkpt>
      <trkpt lat="45.39582" lon="5.79708">
        <ele>1120</ele>
        <time>2012-07-21T07:29:44.1Z</time>
      </trkpt>
      <trkpt lat="45.39587" lon="5.79709">
        <ele>1118</ele>
        <time>2012-07-21T07:29:46.1Z</time>
      </trkpt>
      <trkpt lat="45.39597" lon="5.7971">
        <ele>1117</ele>
        <time>2012-07-21T07:29:48.1Z</time>
      </trkpt>
      <trkpt lat="45.39603" lon="5.79713">
        <ele>1116</ele>
        <time>2012-07-21T07:29:50.1Z</time>
      </trkpt>
      <trkpt lat="45.39607" lon="5.79714">
        <ele>1115</ele>
        <time>2012-07-21T07:29:52.1Z</time>
      </trkpt>
      <trkpt lat="45.3961" lon="5.79714">
        <ele>1114</ele>
        <time>2012-07-21T07:29:54.1Z</time>
      </trkpt>
      <trkpt lat="45.39615" lon="5.79713">
        <ele>1114</ele>
        <time>2012-07-21T07:29:56.1Z</time>
      </trkpt>
      <trkpt lat="45.39619" lon="5.79715">
        <ele>1113</ele>
        <time>2012-07-21T07:29:58.1Z</time>
      </trkpt>
      <trkpt lat="45.39621" lon="5.79715">
        <ele>1112</ele>
        <time>2012-07-21T07:30:00.1Z</time>
      </trkpt>
      <trkpt lat="45.39625" lon="5.79718">
        <ele>1111</ele>
        <time>2012-07-21T07:30:02.1Z</time>
      </trkpt>
      <trkpt lat="45.39628" lon="5.79722">
        <ele>1109</ele>
        <time>2012-07-21T07:30:04.1Z</time>
      </trkpt>
      <trkpt lat="45.39633" lon="5.79728">
        <ele>1108</ele>
        <time>2012-07-21T07:30:07.1Z</time>
      </trkpt>
      <trkpt lat="45.39639" lon="5.79736">
        <ele>1107</ele>
        <time>2012-07-21T07:30:09.1Z</time>
      </trkpt>
      <trkpt lat="45.39646" lon="5.79744">
        <ele>1105</ele>
        <time>2012-07-21T07:30:11.1Z</time>
      </trkpt>
      <trkpt lat="45.39653" lon="5.79749">
        <ele>1104</ele>
        <time>2012-07-21T07:30:13.1Z</time>
      </trkpt>
      <trkpt lat="45.39657" lon="5.79756">
        <ele>1103</ele>
        <time>2012-07-21T07:30:15.1Z</time>
      </trkpt>
      <trkpt lat="45.3966" lon="5.79757">
        <ele>1102</ele>
        <time>2012-07-21T07:30:17.1Z</time>
      </trkpt>
      <trkpt lat="45.39661" lon="5.79757">
        <ele>1102</ele>
        <time>2012-07-21T07:30:19.1Z</time>
      </trkpt>
      <trkpt lat="45.39663" lon="5.79758">
        <ele>1102</ele>
        <time>2012-07-21T07:30:21.1Z</time>
      </trkpt>
      <trkpt lat="45.39664" lon="5.79759">
        <ele>1102</ele>
        <time>2012-07-21T07:30:23.1Z</time>
      </trkpt>
      <trkpt lat="45.39665" lon="5.79759">
        <ele>1102</ele>
        <time>2012-07-21T07:30:25.1Z</time>
      </trkpt>
      <trkpt lat="45.39666" lon="5.7976">
        <ele>1102</ele>
        <time>2012-07-21T07:30:27.1Z</time>
      </trkpt>
      <trkpt lat="45.39667" lon="5.79761">
        <ele>1102</ele>
        <time>2012-07-21T07:30:29.1Z</time>
      </trkpt>
      <trkpt lat="45.39668" lon="5.79762">
        <ele>1102</ele>
        <time>2012-07-21T07:30:32.1Z</time>
      </trkpt>
      <trkpt lat="45.3967" lon="5.79764">
        <ele>1102</ele>
        <time>2012-07-21T07:30:34.1Z</time>
      </trkpt>
      <trkpt lat="45.39671" lon="5.79768">
        <ele>1102</ele>
        <time>2012-07-21T07:30:36.1Z</time>
      </trkpt>
      <trkpt lat="45.39672" lon="5.79771">
        <ele>1102</ele>
        <time>2012-07-21T07:30:38.1Z</time>
      </trkpt>
      <trkpt lat="45.39673" lon="5.79772">
        <ele>1102</ele>
        <time>2012-07-21T07:30:40.1Z</time>
      </trkpt>
      <trkpt lat="45.39674" lon="5.79773">
        <ele>1101</ele>
        <time>2012-07-21T07:30:42.1Z</time>
      </trkpt>
      <trkpt lat="45.39676" lon="5.79773">
        <ele>1101</ele>
        <time>2012-07-21T07:30:44.1Z</time>
      </trkpt>
      <trkpt lat="45.39679" lon="5.79772">
        <ele>1101</ele>
        <time>2012-07-21T07:30:46.1Z</time>
      </trkpt>
      <trkpt lat="45.39681" lon="5.79772">
        <ele>1101</ele>
        <time>2012-07-21T07:30:48.1Z</time>
      </trkpt>
      <trkpt lat="45.39684" lon="5.79772">
        <ele>1101</ele>
        <time>2012-07-21T07:30:50.1Z</time>
      </trkpt>
      <trkpt lat="45.39685" lon="5.79771">
        <ele>1100</ele>
        <time>2012-07-21T07:30:52.1Z</time>
      </trkpt>
      <trkpt lat="45.39687" lon="5.79769">
        <ele>1100</ele>
        <time>2012-07-21T07:30:55.1Z</time>
      </trkpt>
      <trkpt lat="45.3969" lon="5.7977">
        <ele>1100</ele>
        <time>2012-07-21T07:30:57.1Z</time>
      </trkpt>
      <trkpt lat="45.39693" lon="5.7977">
        <ele>1100</ele>
        <time>2012-07-21T07:30:59.1Z</time>
      </trkpt>
      <trkpt lat="45.39697" lon="5.7977">
        <ele>1099</ele>
        <time>2012-07-21T07:31:01.1Z</time>
      </trkpt>
      <trkpt lat="45.39702" lon="5.79772">
        <ele>1099</ele>
        <time>2012-07-21T07:31:03.1Z</time>
      </trkpt>
      <trkpt lat="45.39706" lon="5.79772">
        <ele>1099</ele>
        <time>2012-07-21T07:31:05.1Z</time>
      </trkpt>
      <trkpt lat="45.39711" lon="5.79771">
        <ele>1099</ele>
        <time>2012-07-21T07:31:07.1Z</time>
      </trkpt>
      <trkpt lat="45.39716" lon="5.79773">
        <ele>1098</ele>
        <time>2012-07-21T07:31:09.1Z</time>
      </trkpt>
      <trkpt lat="45.39723" lon="5.79773">
        <ele>1097</ele>
        <time>2012-07-21T07:31:12.1Z</time>
      </trkpt>
      <trkpt lat="45.39729" lon="5.79774">
        <ele>1096</ele>
        <time>2012-07-21T07:31:14.1Z</time>
      </trkpt>
      <trkpt lat="45.39734" lon="5.79775">
        <ele>1095</ele>
        <time>2012-07-21T07:31:16.1Z</time>
      </trkpt>
      <trkpt lat="45.39745" lon="5.79776">
        <ele>1094</ele>
        <time>2012-07-21T07:31:18.1Z</time>
      </trkpt>
      <trkpt lat="45.39753" lon="5.79774">
        <ele>1093</ele>
        <time>2012-07-21T07:31:20.1Z</time>
      </trkpt>
      <trkpt lat="45.39759" lon="5.79774">
        <ele>1093</ele>
        <time>2012-07-21T07:31:22.1Z</time>
      </trkpt>
      <trkpt lat="45.39765" lon="5.79774">
        <ele>1092</ele>
        <time>2012-07-21T07:31:24.1Z</time>
      </trkpt>
      <trkpt lat="45.39772" lon="5.79774">
        <ele>1091</ele>
        <time>2012-07-21T07:31:26.1Z</time>
      </trkpt>
      <trkpt lat="45.3978" lon="5.79775">
        <ele>1090</ele>
        <time>2012-07-21T07:31:29.1Z</time>
      </trkpt>
      <trkpt lat="45.39787" lon="5.79776">
        <ele>1089</ele>
        <time>2012-07-21T07:31:31.1Z</time>
      </trkpt>
      <trkpt lat="45.39793" lon="5.79776">
        <ele>1088</ele>
        <time>2012-07-21T07:31:33.1Z</time>
      </trkpt>
      <trkpt lat="45.39804" lon="5.79776">
        <ele>1087</ele>
        <time>2012-07-21T07:31:35.1Z</time>
      </trkpt>
      <trkpt lat="45.39809" lon="5.79777">
        <ele>1086</ele>
        <time>2012-07-21T07:31:37.1Z</time>
      </trkpt>
      <trkpt lat="45.39815" lon="5.79777">
        <ele>1085</ele>
        <time>2012-07-21T07:31:39.1Z</time>
      </trkpt>
      <trkpt lat="45.39819" lon="5.7978">
        <ele>1085</ele>
        <time>2012-07-21T07:31:41.1Z</time>
      </trkpt>
      <trkpt lat="45.39825" lon="5.7978">
        <ele>1084</ele>
        <time>2012-07-21T07:31:43.1Z</time>
      </trkpt>
      <trkpt lat="45.39829" lon="5.79783">
        <ele>1083</ele>
        <time>2012-07-21T07:31:45.1Z</time>
      </trkpt>
      <trkpt lat="45.39833" lon="5.79786">
        <ele>1082</ele>
        <time>2012-07-21T07:31:47.1Z</time>
      </trkpt>
      <trkpt lat="45.39838" lon="5.79787">
        <ele>1081</ele>
        <time>2012-07-21T07:31:50.1Z</time>
      </trkpt>
      <trkpt lat="45.39845" lon="5.79786">
        <ele>1080</ele>
        <time>2012-07-21T07:31:52.1Z</time>
      </trkpt>
      <trkpt lat="45.39855" lon="5.79786">
        <ele>1078</ele>
        <time>2012-07-21T07:31:54.1Z</time>
      </trkpt>
      <trkpt lat="45.39862" lon="5.79785">
        <ele>1077</ele>
        <time>2012-07-21T07:31:56.1Z</time>
      </trkpt>
      <trkpt lat="45.39867" lon="5.79783">
        <ele>1076</ele>
        <time>2012-07-21T07:31:58.1Z</time>
      </trkpt>
      <trkpt lat="45.39872" lon="5.79784">
        <ele>1075</ele>
        <time>2012-07-21T07:32:00.1Z</time>
      </trkpt>
      <trkpt lat="45.39875" lon="5.79784">
        <ele>1073</ele>
        <time>2012-07-21T07:32:02.1Z</time>
      </trkpt>
      <trkpt lat="45.39882" lon="5.79786">
        <ele>1072</ele>
        <time>2012-07-21T07:32:04.1Z</time>
      </trkpt>
      <trkpt lat="45.39888" lon="5.79788">
        <ele>1071</ele>
        <time>2012-07-21T07:32:06.1Z</time>
      </trkpt>
      <trkpt lat="45.39894" lon="5.7979">
        <ele>1070</ele>
        <time>2012-07-21T07:32:08.1Z</time>
      </trkpt>
      <trkpt lat="45.39899" lon="5.79792">
        <ele>1070</ele>
        <time>2012-07-21T07:32:10.1Z</time>
      </trkpt>
      <trkpt lat="45.39904" lon="5.79794">
        <ele>1069</ele>
        <time>2012-07-21T07:32:13.1Z</time>
      </trkpt>
      <trkpt lat="45.39911" lon="5.79797">
        <ele>1068</ele>
        <time>2012-07-21T07:32:15.1Z</time>
      </trkpt>
      <trkpt lat="45.39917" lon="5.798">
        <ele>1067</ele>
        <time>2012-07-21T07:32:17.1Z</time>
      </trkpt>
      <trkpt lat="45.39923" lon="5.79805">
        <ele>1066</ele>
        <time>2012-07-21T07:32:19.1Z</time>
      </trkpt>
      <trkpt lat="45.39928" lon="5.79808">
        <ele>1065</ele>
        <time>2012-07-21T07:32:21.1Z</time>
      </trkpt>
      <trkpt lat="45.39932" lon="5.7981">
        <ele>1065</ele>
        <time>2012-07-21T07:32:23.1Z</time>
      </trkpt>
      <trkpt lat="45.39937" lon="5.79813">
        <ele>1064</ele>
        <time>2012-07-21T07:32:26.1Z</time>
      </trkpt>
      <trkpt lat="45.39943" lon="5.79815">
        <ele>1064</ele>
        <time>2012-07-21T07:32:28.1Z</time>
      </trkpt>
      <trkpt lat="45.39949" lon="5.79817">
        <ele>1063</ele>
        <time>2012-07-21T07:32:30.1Z</time>
      </trkpt>
      <trkpt lat="45.39958" lon="5.7982">
        <ele>1062</ele>
        <time>2012-07-21T07:32:32.1Z</time>
      </trkpt>
      <trkpt lat="45.39963" lon="5.7982">
        <ele>1062</ele>
        <time>2012-07-21T07:32:34.1Z</time>
      </trkpt>
      <trkpt lat="45.39968" lon="5.79822">
        <ele>1061</ele>
        <time>2012-07-21T07:32:36.1Z</time>
      </trkpt>
      <trkpt lat="45.39974" lon="5.79822">
        <ele>1060</ele>
        <time>2012-07-21T07:32:38.1Z</time>
      </trkpt>
      <trkpt lat="45.39983" lon="5.79823">
        <ele>1060</ele>
        <time>2012-07-21T07:32:41.1Z</time>
      </trkpt>
      <trkpt lat="45.39989" lon="5.79825">
        <ele>1060</ele>
        <time>2012-07-21T07:32:43.1Z</time>
      </trkpt>
      <trkpt lat="45.39996" lon="5.79826">
        <ele>1060</ele>
        <time>2012-07-21T07:32:45.1Z</time>
      </trkpt>
      <trkpt lat="45.40007" lon="5.79831">
        <ele>1060</ele>
        <time>2012-07-21T07:32:47.1Z</time>
      </trkpt>
      <trkpt lat="45.4001" lon="5.79834">
        <ele>1059</ele>
        <time>2012-07-21T07:32:49.1Z</time>
      </trkpt>
      <trkpt lat="45.40015" lon="5.79836">
        <ele>1059</ele>
        <time>2012-07-21T07:32:51.1Z</time>
      </trkpt>
      <trkpt lat="45.4002" lon="5.79839">
        <ele>1059</ele>
        <time>2012-07-21T07:32:53.1Z</time>
      </trkpt>
      <trkpt lat="45.40025" lon="5.7984">
        <ele>1059</ele>
        <time>2012-07-21T07:32:56.1Z</time>
      </trkpt>
      <trkpt lat="45.40029" lon="5.7984">
        <ele>1059</ele>
        <time>2012-07-21T07:32:58.1Z</time>
      </trkpt>
      <trkpt lat="45.40035" lon="5.79841">
        <ele>1059</ele>
        <time>2012-07-21T07:33:00.1Z</time>
      </trkpt>
      <trkpt lat="45.40043" lon="5.79842">
        <ele>1059</ele>
        <time>2012-07-21T07:33:02.1Z</time>
      </trkpt>
      <trkpt lat="45.40048" lon="5.79844">
        <ele>1059</ele>
        <time>2012-07-21T07:33:04.1Z</time>
      </trkpt>
      <trkpt lat="45.40052" lon="5.79846">
        <ele>1059</ele>
        <time>2012-07-21T07:33:06.1Z</time>
      </trkpt>
      <trkpt lat="45.40055" lon="5.79849">
        <ele>1059</ele>
        <time>2012-07-21T07:33:08.1Z</time>
      </trkpt>
      <trkpt lat="45.4006" lon="5.79855">
        <ele>1059</ele>
        <time>2012-07-21T07:33:11.1Z</time>
      </trkpt>
      <trkpt lat="45.40065" lon="5.7986">
        <ele>1059</ele>
        <time>2012-07-21T07:33:13.1Z</time>
      </trkpt>
      <trkpt lat="45.4007" lon="5.79864">
        <ele>1058</ele>
        <time>2012-07-21T07:33:15.1Z</time>
      </trkpt>
      <trkpt lat="45.40076" lon="5.79873">
        <ele>1058</ele>
        <time>2012-07-21T07:33:17.1Z</time>
      </trkpt>
      <trkpt lat="45.40081" lon="5.79879">
        <ele>1058</ele>
        <time>2012-07-21T07:33:19.1Z</time>
      </trkpt>
      <trkpt lat="45.40087" lon="5.79885">
        <ele>1058</ele>
        <time>2012-07-21T07:33:21.1Z</time>
      </trkpt>
      <trkpt lat="45.40092" lon="5.79892">
        <ele>1057</ele>
        <time>2012-07-21T07:33:24.1Z</time>
      </trkpt>
      <trkpt lat="45.40096" lon="5.79898">
        <ele>1057</ele>
        <time>2012-07-21T07:33:26.1Z</time>
      </trkpt>
      <trkpt lat="45.40101" lon="5.79902">
        <ele>1056</ele>
        <time>2012-07-21T07:33:28.1Z</time>
      </trkpt>
      <trkpt lat="45.40108" lon="5.79907">
        <ele>1055</ele>
        <time>2012-07-21T07:33:30.1Z</time>
      </trkpt>
      <trkpt lat="45.40113" lon="5.79911">
        <ele>1054</ele>
        <time>2012-07-21T07:33:32.1Z</time>
      </trkpt>
      <trkpt lat="45.40117" lon="5.79916">
        <ele>1053</ele>
        <time>2012-07-21T07:33:34.1Z</time>
      </trkpt>
      <trkpt lat="45.40121" lon="5.79921">
        <ele>1052</ele>
        <time>2012-07-21T07:33:36.1Z</time>
      </trkpt>
      <trkpt lat="45.40126" lon="5.79925">
        <ele>1052</ele>
        <time>2012-07-21T07:33:38.1Z</time>
      </trkpt>
      <trkpt lat="45.40129" lon="5.79931">
        <ele>1051</ele>
        <time>2012-07-21T07:33:40.1Z</time>
      </trkpt>
      <trkpt lat="45.40132" lon="5.79936">
        <ele>1050</ele>
        <time>2012-07-21T07:33:42.1Z</time>
      </trkpt>
      <trkpt lat="45.40134" lon="5.79943">
        <ele>1049</ele>
        <time>2012-07-21T07:33:44.1Z</time>
      </trkpt>
      <trkpt lat="45.40136" lon="5.79947">
        <ele>1048</ele>
        <time>2012-07-21T07:33:46.1Z</time>
      </trkpt>
      <trkpt lat="45.40139" lon="5.7995">
        <ele>1047</ele>
        <time>2012-07-21T07:33:48.1Z</time>
      </trkpt>
      <trkpt lat="45.40145" lon="5.79952">
        <ele>1046</ele>
        <time>2012-07-21T07:33:51.1Z</time>
      </trkpt>
      <trkpt lat="45.40151" lon="5.79953">
        <ele>1045</ele>
        <time>2012-07-21T07:33:53.1Z</time>
      </trkpt>
      <trkpt lat="45.40155" lon="5.79951">
        <ele>1044</ele>
        <time>2012-07-21T07:33:55.1Z</time>
      </trkpt>
      <trkpt lat="45.4016" lon="5.79954">
        <ele>1043</ele>
        <time>2012-07-21T07:33:57.1Z</time>
      </trkpt>
      <trkpt lat="45.40158" lon="5.79961">
        <ele>1042</ele>
        <time>2012-07-21T07:33:59.1Z</time>
      </trkpt>
      <trkpt lat="45.40156" lon="5.79967">
        <ele>1042</ele>
        <time>2012-07-21T07:34:01.1Z</time>
      </trkpt>
      <trkpt lat="45.40153" lon="5.79974">
        <ele>1041</ele>
        <time>2012-07-21T07:34:03.1Z</time>
      </trkpt>
      <trkpt lat="45.4015" lon="5.79979">
        <ele>1041</ele>
        <time>2012-07-21T07:34:06.1Z</time>
      </trkpt>
      <trkpt lat="45.40145" lon="5.79983">
        <ele>1041</ele>
        <time>2012-07-21T07:34:08.1Z</time>
      </trkpt>
      <trkpt lat="45.40141" lon="5.79987">
        <ele>1041</ele>
        <time>2012-07-21T07:34:10.1Z</time>
      </trkpt>
      <trkpt lat="45.40133" lon="5.7999">
        <ele>1041</ele>
        <time>2012-07-21T07:34:12.1Z</time>
      </trkpt>
      <trkpt lat="45.40126" lon="5.7999">
        <ele>1040</ele>
        <time>2012-07-21T07:34:14.1Z</time>
      </trkpt>
      <trkpt lat="45.40121" lon="5.79989">
        <ele>1040</ele>
        <time>2012-07-21T07:34:16.1Z</time>
      </trkpt>
      <trkpt lat="45.40115" lon="5.79987">
        <ele>1040</ele>
        <time>2012-07-21T07:34:18.1Z</time>
      </trkpt>
      <trkpt lat="45.40111" lon="5.79985">
        <ele>1040</ele>
        <time>2012-07-21T07:34:21.1Z</time>
      </trkpt>
      <trkpt lat="45.40105" lon="5.79983">
        <ele>1039</ele>
        <time>2012-07-21T07:34:23.1Z</time>
      </trkpt>
      <trkpt lat="45.40098" lon="5.79981">
        <ele>1039</ele>
        <time>2012-07-21T07:34:25.1Z</time>
      </trkpt>
      <trkpt lat="45.40092" lon="5.79979">
        <ele>1039</ele>
        <time>2012-07-21T07:34:27.1Z</time>
      </trkpt>
      <trkpt lat="45.40088" lon="5.79976">
        <ele>1039</ele>
        <time>2012-07-21T07:34:29.1Z</time>
      </trkpt>
      <trkpt lat="45.40083" lon="5.79973">
        <ele>1038</ele>
        <time>2012-07-21T07:34:31.1Z</time>
      </trkpt>
      <trkpt lat="45.40079" lon="5.79969">
        <ele>1038</ele>
        <time>2012-07-21T07:34:34.1Z</time>
      </trkpt>
      <trkpt lat="45.40075" lon="5.79964">
        <ele>1038</ele>
        <time>2012-07-21T07:34:36.1Z</time>
      </trkpt>
      <trkpt lat="45.4007" lon="5.79961">
        <ele>1038</ele>
        <time>2012-07-21T07:34:38.1Z</time>
      </trkpt>
      <trkpt lat="45.40069" lon="5.7996">
        <ele>1038</ele>
        <time>2012-07-21T07:34:39.1Z</time>
      </trkpt>
    </trkseg>
  </trk>
</gpx>